<?xml version="1.0" encoding="UTF-8" standalone="no" ?>
<gpx xmlns="http://www.topografix.com/GPX/1/1" xmlns:xsi="http://www.w3.org/2001/XMLSchema-instance" xsi:schemaLocation="http://www.topografix.com/GPX/1/1 http://www.topografix.com/GPX/1/1/gpx.xsd" version="1.1" creator="VisuGPX - https://www.visugpx.com">
  <metadata>
    <name>Grenoble Trail 2021-07-18</name>
  </metadata>
  <trk>
    <name><![CDATA[Grenoble Trail]]></name>
    <trkseg>
      <trkpt lat="45.19628" lon="5.73936">
        <ele>126.80000305176</ele>
        <time>2021-07-18T03:18:27.000Z</time>
      </trkpt>
      <trkpt lat="45.19629" lon="5.73934">
        <ele>126.80000305176</ele>
        <time>2021-07-18T03:18:28.000Z</time>
      </trkpt>
      <trkpt lat="45.19634" lon="5.73942">
        <ele>126.80000305176</ele>
        <time>2021-07-18T03:18:33.000Z</time>
      </trkpt>
      <trkpt lat="45.19634" lon="5.73944">
        <ele>127</ele>
        <time>2021-07-18T03:18:34.000Z</time>
      </trkpt>
      <trkpt lat="45.19635" lon="5.73955">
        <ele>127</ele>
        <time>2021-07-18T03:18:40.000Z</time>
      </trkpt>
      <trkpt lat="45.19635" lon="5.73956">
        <ele>127</ele>
        <time>2021-07-18T03:18:41.000Z</time>
      </trkpt>
      <trkpt lat="45.19636" lon="5.7396">
        <ele>127</ele>
        <time>2021-07-18T03:18:46.000Z</time>
      </trkpt>
      <trkpt lat="45.19636" lon="5.73961">
        <ele>127</ele>
        <time>2021-07-18T03:18:47.000Z</time>
      </trkpt>
      <trkpt lat="45.19645" lon="5.73972">
        <ele>126.19999694824</ele>
        <time>2021-07-18T03:18:55.000Z</time>
      </trkpt>
      <trkpt lat="45.19649" lon="5.73974">
        <ele>125.19999694824</ele>
        <time>2021-07-18T03:19:01.000Z</time>
      </trkpt>
      <trkpt lat="45.19649" lon="5.73974">
        <ele>125.19999694824</ele>
        <time>2021-07-18T03:19:02.000Z</time>
      </trkpt>
      <trkpt lat="45.19653" lon="5.73984">
        <ele>124.19999694824</ele>
        <time>2021-07-18T03:19:07.000Z</time>
      </trkpt>
      <trkpt lat="45.19653" lon="5.73983">
        <ele>124.19999694824</ele>
        <time>2021-07-18T03:19:08.000Z</time>
      </trkpt>
      <trkpt lat="45.19653" lon="5.73982">
        <ele>124.19999694824</ele>
        <time>2021-07-18T03:19:10.000Z</time>
      </trkpt>
      <trkpt lat="45.19652" lon="5.73981">
        <ele>124.19999694824</ele>
        <time>2021-07-18T03:19:11.000Z</time>
      </trkpt>
      <trkpt lat="45.19649" lon="5.73979">
        <ele>122.40000152588</ele>
        <time>2021-07-18T03:19:14.000Z</time>
      </trkpt>
      <trkpt lat="45.19655" lon="5.73973">
        <ele>119</ele>
        <time>2021-07-18T03:19:30.000Z</time>
      </trkpt>
      <trkpt lat="45.19649" lon="5.73978">
        <ele>118.80000305176</ele>
        <time>2021-07-18T03:19:32.000Z</time>
      </trkpt>
      <trkpt lat="45.19648" lon="5.73981">
        <ele>119</ele>
        <time>2021-07-18T03:19:34.000Z</time>
      </trkpt>
      <trkpt lat="45.19648" lon="5.73976">
        <ele>118.80000305176</ele>
        <time>2021-07-18T03:19:37.000Z</time>
      </trkpt>
      <trkpt lat="45.1965" lon="5.73971">
        <ele>119</ele>
        <time>2021-07-18T03:19:39.000Z</time>
      </trkpt>
      <trkpt lat="45.19655" lon="5.73966">
        <ele>119</ele>
        <time>2021-07-18T03:19:43.000Z</time>
      </trkpt>
      <trkpt lat="45.19657" lon="5.73966">
        <ele>119.19999694824</ele>
        <time>2021-07-18T03:19:44.000Z</time>
      </trkpt>
      <trkpt lat="45.19668" lon="5.7396">
        <ele>119.19999694824</ele>
        <time>2021-07-18T03:19:48.000Z</time>
      </trkpt>
      <trkpt lat="45.19676" lon="5.7395">
        <ele>118.80000305176</ele>
        <time>2021-07-18T03:19:52.000Z</time>
      </trkpt>
      <trkpt lat="45.19675" lon="5.73947">
        <ele>119</ele>
        <time>2021-07-18T03:19:53.000Z</time>
      </trkpt>
      <trkpt lat="45.19674" lon="5.73945">
        <ele>118.80000305176</ele>
        <time>2021-07-18T03:19:54.000Z</time>
      </trkpt>
      <trkpt lat="45.19674" lon="5.73944">
        <ele>118.80000305176</ele>
        <time>2021-07-18T03:19:55.000Z</time>
      </trkpt>
      <trkpt lat="45.19675" lon="5.73943">
        <ele>119</ele>
        <time>2021-07-18T03:19:57.000Z</time>
      </trkpt>
      <trkpt lat="45.19676" lon="5.73943">
        <ele>119</ele>
        <time>2021-07-18T03:19:58.000Z</time>
      </trkpt>
      <trkpt lat="45.19681" lon="5.73945">
        <ele>119.19999694824</ele>
        <time>2021-07-18T03:20:00.000Z</time>
      </trkpt>
      <trkpt lat="45.19689" lon="5.73953">
        <ele>119</ele>
        <time>2021-07-18T03:20:04.000Z</time>
      </trkpt>
      <trkpt lat="45.19692" lon="5.73959">
        <ele>119</ele>
        <time>2021-07-18T03:20:07.000Z</time>
      </trkpt>
      <trkpt lat="45.19694" lon="5.73963">
        <ele>119.19999694824</ele>
        <time>2021-07-18T03:20:09.000Z</time>
      </trkpt>
      <trkpt lat="45.19694" lon="5.73966">
        <ele>119</ele>
        <time>2021-07-18T03:20:10.000Z</time>
      </trkpt>
      <trkpt lat="45.19695" lon="5.7397">
        <ele>119</ele>
        <time>2021-07-18T03:20:12.000Z</time>
      </trkpt>
      <trkpt lat="45.19697" lon="5.73974">
        <ele>119</ele>
        <time>2021-07-18T03:20:14.000Z</time>
      </trkpt>
      <trkpt lat="45.19698" lon="5.73978">
        <ele>119</ele>
        <time>2021-07-18T03:20:15.000Z</time>
      </trkpt>
      <trkpt lat="45.19698" lon="5.73981">
        <ele>119</ele>
        <time>2021-07-18T03:20:16.000Z</time>
      </trkpt>
      <trkpt lat="45.197" lon="5.73984">
        <ele>119</ele>
        <time>2021-07-18T03:20:17.000Z</time>
      </trkpt>
      <trkpt lat="45.19704" lon="5.73996">
        <ele>118.80000305176</ele>
        <time>2021-07-18T03:20:22.000Z</time>
      </trkpt>
      <trkpt lat="45.19704" lon="5.73999">
        <ele>118.80000305176</ele>
        <time>2021-07-18T03:20:23.000Z</time>
      </trkpt>
      <trkpt lat="45.19712" lon="5.74019">
        <ele>119</ele>
        <time>2021-07-18T03:20:31.000Z</time>
      </trkpt>
      <trkpt lat="45.19716" lon="5.74037">
        <ele>119</ele>
        <time>2021-07-18T03:20:37.000Z</time>
      </trkpt>
      <trkpt lat="45.19717" lon="5.7404">
        <ele>119</ele>
        <time>2021-07-18T03:20:38.000Z</time>
      </trkpt>
      <trkpt lat="45.19723" lon="5.74068">
        <ele>119.19999694824</ele>
        <time>2021-07-18T03:20:45.000Z</time>
      </trkpt>
      <trkpt lat="45.19725" lon="5.74094">
        <ele>119.19999694824</ele>
        <time>2021-07-18T03:20:53.000Z</time>
      </trkpt>
      <trkpt lat="45.19725" lon="5.74102">
        <ele>119.19999694824</ele>
        <time>2021-07-18T03:20:56.000Z</time>
      </trkpt>
      <trkpt lat="45.19726" lon="5.7411">
        <ele>119.19999694824</ele>
        <time>2021-07-18T03:20:59.000Z</time>
      </trkpt>
      <trkpt lat="45.19727" lon="5.74116">
        <ele>119.19999694824</ele>
        <time>2021-07-18T03:21:01.000Z</time>
      </trkpt>
      <trkpt lat="45.1973" lon="5.74129">
        <ele>119.19999694824</ele>
        <time>2021-07-18T03:21:05.000Z</time>
      </trkpt>
      <trkpt lat="45.19732" lon="5.74152">
        <ele>119.19999694824</ele>
        <time>2021-07-18T03:21:11.000Z</time>
      </trkpt>
      <trkpt lat="45.19738" lon="5.74173">
        <ele>119.19999694824</ele>
        <time>2021-07-18T03:21:18.000Z</time>
      </trkpt>
      <trkpt lat="45.19742" lon="5.742">
        <ele>119</ele>
        <time>2021-07-18T03:21:27.000Z</time>
      </trkpt>
      <trkpt lat="45.19743" lon="5.74211">
        <ele>119.19999694824</ele>
        <time>2021-07-18T03:21:30.000Z</time>
      </trkpt>
      <trkpt lat="45.19745" lon="5.74221">
        <ele>119.19999694824</ele>
        <time>2021-07-18T03:21:33.000Z</time>
      </trkpt>
      <trkpt lat="45.19744" lon="5.74227">
        <ele>119.19999694824</ele>
        <time>2021-07-18T03:21:35.000Z</time>
      </trkpt>
      <trkpt lat="45.1974" lon="5.74233">
        <ele>119.40000152588</ele>
        <time>2021-07-18T03:21:37.000Z</time>
      </trkpt>
      <trkpt lat="45.19721" lon="5.74245">
        <ele>119.40000152588</ele>
        <time>2021-07-18T03:21:44.000Z</time>
      </trkpt>
      <trkpt lat="45.19703" lon="5.74253">
        <ele>119.40000152588</ele>
        <time>2021-07-18T03:21:51.000Z</time>
      </trkpt>
      <trkpt lat="45.19701" lon="5.74253">
        <ele>119.40000152588</ele>
        <time>2021-07-18T03:21:52.000Z</time>
      </trkpt>
      <trkpt lat="45.19682" lon="5.74256">
        <ele>119.40000152588</ele>
        <time>2021-07-18T03:21:59.000Z</time>
      </trkpt>
      <trkpt lat="45.1967" lon="5.74255">
        <ele>119.80000305176</ele>
        <time>2021-07-18T03:22:04.000Z</time>
      </trkpt>
      <trkpt lat="45.19663" lon="5.74254">
        <ele>119.59999847412</ele>
        <time>2021-07-18T03:22:07.000Z</time>
      </trkpt>
      <trkpt lat="45.19648" lon="5.7425">
        <ele>119.80000305176</ele>
        <time>2021-07-18T03:22:13.000Z</time>
      </trkpt>
      <trkpt lat="45.1964" lon="5.74249">
        <ele>119.80000305176</ele>
        <time>2021-07-18T03:22:16.000Z</time>
      </trkpt>
      <trkpt lat="45.1962" lon="5.74249">
        <ele>119.80000305176</ele>
        <time>2021-07-18T03:22:23.000Z</time>
      </trkpt>
      <trkpt lat="45.19609" lon="5.74247">
        <ele>119.80000305176</ele>
        <time>2021-07-18T03:22:27.000Z</time>
      </trkpt>
      <trkpt lat="45.19596" lon="5.74249">
        <ele>119.80000305176</ele>
        <time>2021-07-18T03:22:32.000Z</time>
      </trkpt>
      <trkpt lat="45.19586" lon="5.74246">
        <ele>120</ele>
        <time>2021-07-18T03:22:36.000Z</time>
      </trkpt>
      <trkpt lat="45.19579" lon="5.74244">
        <ele>120.59999847412</ele>
        <time>2021-07-18T03:22:39.000Z</time>
      </trkpt>
      <trkpt lat="45.19564" lon="5.74246">
        <ele>120.19999694824</ele>
        <time>2021-07-18T03:22:45.000Z</time>
      </trkpt>
      <trkpt lat="45.19545" lon="5.74245">
        <ele>120.19999694824</ele>
        <time>2021-07-18T03:22:53.000Z</time>
      </trkpt>
      <trkpt lat="45.19543" lon="5.74244">
        <ele>120.40000152588</ele>
        <time>2021-07-18T03:22:54.000Z</time>
      </trkpt>
      <trkpt lat="45.19538" lon="5.74241">
        <ele>120.19999694824</ele>
        <time>2021-07-18T03:22:56.000Z</time>
      </trkpt>
      <trkpt lat="45.1952" lon="5.74228">
        <ele>120.80000305176</ele>
        <time>2021-07-18T03:23:03.000Z</time>
      </trkpt>
      <trkpt lat="45.19505" lon="5.74221">
        <ele>121.59999847412</ele>
        <time>2021-07-18T03:23:09.000Z</time>
      </trkpt>
      <trkpt lat="45.19497" lon="5.74218">
        <ele>122</ele>
        <time>2021-07-18T03:23:12.000Z</time>
      </trkpt>
      <trkpt lat="45.19495" lon="5.74217">
        <ele>122</ele>
        <time>2021-07-18T03:23:13.000Z</time>
      </trkpt>
      <trkpt lat="45.1948" lon="5.74211">
        <ele>122</ele>
        <time>2021-07-18T03:23:20.000Z</time>
      </trkpt>
      <trkpt lat="45.19477" lon="5.7421">
        <ele>122</ele>
        <time>2021-07-18T03:23:21.000Z</time>
      </trkpt>
      <trkpt lat="45.19472" lon="5.74209">
        <ele>122</ele>
        <time>2021-07-18T03:23:23.000Z</time>
      </trkpt>
      <trkpt lat="45.19459" lon="5.74201">
        <ele>122.19999694824</ele>
        <time>2021-07-18T03:23:29.000Z</time>
      </trkpt>
      <trkpt lat="45.19447" lon="5.74197">
        <ele>122</ele>
        <time>2021-07-18T03:23:34.000Z</time>
      </trkpt>
      <trkpt lat="45.19428" lon="5.74188">
        <ele>122</ele>
        <time>2021-07-18T03:23:42.000Z</time>
      </trkpt>
      <trkpt lat="45.19426" lon="5.74187">
        <ele>122</ele>
        <time>2021-07-18T03:23:43.000Z</time>
      </trkpt>
      <trkpt lat="45.19423" lon="5.74186">
        <ele>122</ele>
        <time>2021-07-18T03:23:44.000Z</time>
      </trkpt>
      <trkpt lat="45.19405" lon="5.74181">
        <ele>122</ele>
        <time>2021-07-18T03:23:51.000Z</time>
      </trkpt>
      <trkpt lat="45.19403" lon="5.7418">
        <ele>122.19999694824</ele>
        <time>2021-07-18T03:23:52.000Z</time>
      </trkpt>
      <trkpt lat="45.19387" lon="5.74175">
        <ele>122</ele>
        <time>2021-07-18T03:23:58.000Z</time>
      </trkpt>
      <trkpt lat="45.19371" lon="5.74172">
        <ele>122</ele>
        <time>2021-07-18T03:24:06.000Z</time>
      </trkpt>
      <trkpt lat="45.19383" lon="5.74167">
        <ele>122.40000152588</ele>
        <time>2021-07-18T03:24:11.000Z</time>
      </trkpt>
      <trkpt lat="45.19399" lon="5.74165">
        <ele>122.19999694824</ele>
        <time>2021-07-18T03:24:18.000Z</time>
      </trkpt>
      <trkpt lat="45.19402" lon="5.74165">
        <ele>122.19999694824</ele>
        <time>2021-07-18T03:24:19.000Z</time>
      </trkpt>
      <trkpt lat="45.19404" lon="5.74165">
        <ele>122.19999694824</ele>
        <time>2021-07-18T03:24:20.000Z</time>
      </trkpt>
      <trkpt lat="45.1942" lon="5.74165">
        <ele>122.19999694824</ele>
        <time>2021-07-18T03:24:26.000Z</time>
      </trkpt>
      <trkpt lat="45.19437" lon="5.74168">
        <ele>122</ele>
        <time>2021-07-18T03:24:32.000Z</time>
      </trkpt>
      <trkpt lat="45.19442" lon="5.74169">
        <ele>122.19999694824</ele>
        <time>2021-07-18T03:24:34.000Z</time>
      </trkpt>
      <trkpt lat="45.19447" lon="5.74168">
        <ele>122.19999694824</ele>
        <time>2021-07-18T03:24:36.000Z</time>
      </trkpt>
      <trkpt lat="45.19454" lon="5.74169">
        <ele>122.40000152588</ele>
        <time>2021-07-18T03:24:39.000Z</time>
      </trkpt>
      <trkpt lat="45.19457" lon="5.7417">
        <ele>122.40000152588</ele>
        <time>2021-07-18T03:24:40.000Z</time>
      </trkpt>
      <trkpt lat="45.19471" lon="5.74176">
        <ele>122.19999694824</ele>
        <time>2021-07-18T03:24:46.000Z</time>
      </trkpt>
      <trkpt lat="45.19481" lon="5.7418">
        <ele>122.59999847412</ele>
        <time>2021-07-18T03:24:50.000Z</time>
      </trkpt>
      <trkpt lat="45.19488" lon="5.74183">
        <ele>122.40000152588</ele>
        <time>2021-07-18T03:24:53.000Z</time>
      </trkpt>
      <trkpt lat="45.19501" lon="5.7419">
        <ele>122</ele>
        <time>2021-07-18T03:24:59.000Z</time>
      </trkpt>
      <trkpt lat="45.19506" lon="5.74191">
        <ele>122</ele>
        <time>2021-07-18T03:25:01.000Z</time>
      </trkpt>
      <trkpt lat="45.19526" lon="5.74197">
        <ele>121.40000152588</ele>
        <time>2021-07-18T03:25:09.000Z</time>
      </trkpt>
      <trkpt lat="45.19545" lon="5.74207">
        <ele>121.19999694824</ele>
        <time>2021-07-18T03:25:17.000Z</time>
      </trkpt>
      <trkpt lat="45.19561" lon="5.74213">
        <ele>121.40000152588</ele>
        <time>2021-07-18T03:25:24.000Z</time>
      </trkpt>
      <trkpt lat="45.19576" lon="5.74213">
        <ele>121.59999847412</ele>
        <time>2021-07-18T03:25:30.000Z</time>
      </trkpt>
      <trkpt lat="45.19587" lon="5.74217">
        <ele>121.59999847412</ele>
        <time>2021-07-18T03:25:35.000Z</time>
      </trkpt>
      <trkpt lat="45.19592" lon="5.74217">
        <ele>121.59999847412</ele>
        <time>2021-07-18T03:25:37.000Z</time>
      </trkpt>
      <trkpt lat="45.19596" lon="5.74218">
        <ele>121.59999847412</ele>
        <time>2021-07-18T03:25:39.000Z</time>
      </trkpt>
      <trkpt lat="45.19603" lon="5.74221">
        <ele>121.59999847412</ele>
        <time>2021-07-18T03:25:41.000Z</time>
      </trkpt>
      <trkpt lat="45.1961" lon="5.74225">
        <ele>121.40000152588</ele>
        <time>2021-07-18T03:25:43.000Z</time>
      </trkpt>
      <trkpt lat="45.19613" lon="5.74226">
        <ele>121.40000152588</ele>
        <time>2021-07-18T03:25:44.000Z</time>
      </trkpt>
      <trkpt lat="45.1963" lon="5.74227">
        <ele>121.40000152588</ele>
        <time>2021-07-18T03:25:52.000Z</time>
      </trkpt>
      <trkpt lat="45.19645" lon="5.74227">
        <ele>121.40000152588</ele>
        <time>2021-07-18T03:25:58.000Z</time>
      </trkpt>
      <trkpt lat="45.19657" lon="5.74228">
        <ele>121.40000152588</ele>
        <time>2021-07-18T03:26:03.000Z</time>
      </trkpt>
      <trkpt lat="45.19662" lon="5.74228">
        <ele>121.19999694824</ele>
        <time>2021-07-18T03:26:05.000Z</time>
      </trkpt>
      <trkpt lat="45.19669" lon="5.7423">
        <ele>121.40000152588</ele>
        <time>2021-07-18T03:26:08.000Z</time>
      </trkpt>
      <trkpt lat="45.19682" lon="5.7423">
        <ele>121.80000305176</ele>
        <time>2021-07-18T03:26:13.000Z</time>
      </trkpt>
      <trkpt lat="45.19693" lon="5.74229">
        <ele>122</ele>
        <time>2021-07-18T03:26:18.000Z</time>
      </trkpt>
      <trkpt lat="45.19699" lon="5.7423">
        <ele>121.80000305176</ele>
        <time>2021-07-18T03:26:20.000Z</time>
      </trkpt>
      <trkpt lat="45.19718" lon="5.74228">
        <ele>121.59999847412</ele>
        <time>2021-07-18T03:26:28.000Z</time>
      </trkpt>
      <trkpt lat="45.19723" lon="5.74227">
        <ele>121.59999847412</ele>
        <time>2021-07-18T03:26:30.000Z</time>
      </trkpt>
      <trkpt lat="45.1973" lon="5.74227">
        <ele>121.80000305176</ele>
        <time>2021-07-18T03:26:33.000Z</time>
      </trkpt>
      <trkpt lat="45.19738" lon="5.74227">
        <ele>121.59999847412</ele>
        <time>2021-07-18T03:26:36.000Z</time>
      </trkpt>
      <trkpt lat="45.19744" lon="5.74227">
        <ele>121.40000152588</ele>
        <time>2021-07-18T03:26:38.000Z</time>
      </trkpt>
      <trkpt lat="45.19748" lon="5.74227">
        <ele>121.59999847412</ele>
        <time>2021-07-18T03:26:40.000Z</time>
      </trkpt>
      <trkpt lat="45.19753" lon="5.74227">
        <ele>121.59999847412</ele>
        <time>2021-07-18T03:26:42.000Z</time>
      </trkpt>
      <trkpt lat="45.19759" lon="5.74226">
        <ele>121.59999847412</ele>
        <time>2021-07-18T03:26:45.000Z</time>
      </trkpt>
      <trkpt lat="45.19764" lon="5.74225">
        <ele>121.59999847412</ele>
        <time>2021-07-18T03:26:47.000Z</time>
      </trkpt>
      <trkpt lat="45.19782" lon="5.74223">
        <ele>121.59999847412</ele>
        <time>2021-07-18T03:26:55.000Z</time>
      </trkpt>
      <trkpt lat="45.19796" lon="5.74229">
        <ele>121.40000152588</ele>
        <time>2021-07-18T03:27:02.000Z</time>
      </trkpt>
      <trkpt lat="45.19811" lon="5.74229">
        <ele>121.40000152588</ele>
        <time>2021-07-18T03:27:09.000Z</time>
      </trkpt>
      <trkpt lat="45.19826" lon="5.74222">
        <ele>121.19999694824</ele>
        <time>2021-07-18T03:27:15.000Z</time>
      </trkpt>
      <trkpt lat="45.19838" lon="5.74218">
        <ele>121.40000152588</ele>
        <time>2021-07-18T03:27:21.000Z</time>
      </trkpt>
      <trkpt lat="45.19852" lon="5.7421">
        <ele>121.40000152588</ele>
        <time>2021-07-18T03:27:26.000Z</time>
      </trkpt>
      <trkpt lat="45.19869" lon="5.74201">
        <ele>121.59999847412</ele>
        <time>2021-07-18T03:27:32.000Z</time>
      </trkpt>
      <trkpt lat="45.19872" lon="5.742">
        <ele>121.59999847412</ele>
        <time>2021-07-18T03:27:33.000Z</time>
      </trkpt>
      <trkpt lat="45.19884" lon="5.74191">
        <ele>121.59999847412</ele>
        <time>2021-07-18T03:27:38.000Z</time>
      </trkpt>
      <trkpt lat="45.19904" lon="5.74181">
        <ele>121.59999847412</ele>
        <time>2021-07-18T03:27:45.000Z</time>
      </trkpt>
      <trkpt lat="45.19909" lon="5.74179">
        <ele>121.80000305176</ele>
        <time>2021-07-18T03:27:47.000Z</time>
      </trkpt>
      <trkpt lat="45.19925" lon="5.74171">
        <ele>121.80000305176</ele>
        <time>2021-07-18T03:27:53.000Z</time>
      </trkpt>
      <trkpt lat="45.19931" lon="5.74168">
        <ele>121.80000305176</ele>
        <time>2021-07-18T03:27:55.000Z</time>
      </trkpt>
      <trkpt lat="45.19947" lon="5.74156">
        <ele>121.80000305176</ele>
        <time>2021-07-18T03:28:02.000Z</time>
      </trkpt>
      <trkpt lat="45.19958" lon="5.74142">
        <ele>121.80000305176</ele>
        <time>2021-07-18T03:28:08.000Z</time>
      </trkpt>
      <trkpt lat="45.19961" lon="5.74141">
        <ele>121.80000305176</ele>
        <time>2021-07-18T03:28:09.000Z</time>
      </trkpt>
      <trkpt lat="45.19975" lon="5.74124">
        <ele>121.80000305176</ele>
        <time>2021-07-18T03:28:17.000Z</time>
      </trkpt>
      <trkpt lat="45.19981" lon="5.74115">
        <ele>121.19999694824</ele>
        <time>2021-07-18T03:28:22.000Z</time>
      </trkpt>
      <trkpt lat="45.19985" lon="5.74112">
        <ele>121.19999694824</ele>
        <time>2021-07-18T03:28:24.000Z</time>
      </trkpt>
      <trkpt lat="45.19993" lon="5.74106">
        <ele>120.80000305176</ele>
        <time>2021-07-18T03:28:27.000Z</time>
      </trkpt>
      <trkpt lat="45.19996" lon="5.74104">
        <ele>120</ele>
        <time>2021-07-18T03:28:28.000Z</time>
      </trkpt>
      <trkpt lat="45.20005" lon="5.74097">
        <ele>119.80000305176</ele>
        <time>2021-07-18T03:28:32.000Z</time>
      </trkpt>
      <trkpt lat="45.20014" lon="5.74089">
        <ele>119.19999694824</ele>
        <time>2021-07-18T03:28:36.000Z</time>
      </trkpt>
      <trkpt lat="45.20016" lon="5.74086">
        <ele>119.19999694824</ele>
        <time>2021-07-18T03:28:37.000Z</time>
      </trkpt>
      <trkpt lat="45.20018" lon="5.74084">
        <ele>119</ele>
        <time>2021-07-18T03:28:38.000Z</time>
      </trkpt>
      <trkpt lat="45.20021" lon="5.74082">
        <ele>119.19999694824</ele>
        <time>2021-07-18T03:28:40.000Z</time>
      </trkpt>
      <trkpt lat="45.20024" lon="5.74084">
        <ele>119.40000152588</ele>
        <time>2021-07-18T03:28:42.000Z</time>
      </trkpt>
      <trkpt lat="45.20037" lon="5.74034">
        <ele>120.19999694824</ele>
        <time>2021-07-18T03:28:56.000Z</time>
      </trkpt>
      <trkpt lat="45.2004" lon="5.74025">
        <ele>120.19999694824</ele>
        <time>2021-07-18T03:28:58.000Z</time>
      </trkpt>
      <trkpt lat="45.20047" lon="5.7402">
        <ele>121.19999694824</ele>
        <time>2021-07-18T03:29:01.000Z</time>
      </trkpt>
      <trkpt lat="45.20055" lon="5.7401">
        <ele>121.59999847412</ele>
        <time>2021-07-18T03:29:06.000Z</time>
      </trkpt>
      <trkpt lat="45.20056" lon="5.74007">
        <ele>121.59999847412</ele>
        <time>2021-07-18T03:29:07.000Z</time>
      </trkpt>
      <trkpt lat="45.20056" lon="5.74004">
        <ele>121.59999847412</ele>
        <time>2021-07-18T03:29:08.000Z</time>
      </trkpt>
      <trkpt lat="45.20058" lon="5.74002">
        <ele>121.59999847412</ele>
        <time>2021-07-18T03:29:09.000Z</time>
      </trkpt>
      <trkpt lat="45.2006" lon="5.74">
        <ele>121.59999847412</ele>
        <time>2021-07-18T03:29:10.000Z</time>
      </trkpt>
      <trkpt lat="45.20072" lon="5.73989">
        <ele>121.19999694824</ele>
        <time>2021-07-18T03:29:15.000Z</time>
      </trkpt>
      <trkpt lat="45.20076" lon="5.73984">
        <ele>121</ele>
        <time>2021-07-18T03:29:17.000Z</time>
      </trkpt>
      <trkpt lat="45.20088" lon="5.73971">
        <ele>121</ele>
        <time>2021-07-18T03:29:23.000Z</time>
      </trkpt>
      <trkpt lat="45.20102" lon="5.73954">
        <ele>120.59999847412</ele>
        <time>2021-07-18T03:29:29.000Z</time>
      </trkpt>
      <trkpt lat="45.2011" lon="5.73945">
        <ele>120.40000152588</ele>
        <time>2021-07-18T03:29:33.000Z</time>
      </trkpt>
      <trkpt lat="45.20119" lon="5.73928">
        <ele>120.40000152588</ele>
        <time>2021-07-18T03:29:39.000Z</time>
      </trkpt>
      <trkpt lat="45.20132" lon="5.73912">
        <ele>120.80000305176</ele>
        <time>2021-07-18T03:29:47.000Z</time>
      </trkpt>
      <trkpt lat="45.20144" lon="5.7389">
        <ele>121</ele>
        <time>2021-07-18T03:29:54.000Z</time>
      </trkpt>
      <trkpt lat="45.20146" lon="5.73887">
        <ele>120.59999847412</ele>
        <time>2021-07-18T03:29:55.000Z</time>
      </trkpt>
      <trkpt lat="45.20149" lon="5.73882">
        <ele>120.59999847412</ele>
        <time>2021-07-18T03:29:57.000Z</time>
      </trkpt>
      <trkpt lat="45.20151" lon="5.73878">
        <ele>120.59999847412</ele>
        <time>2021-07-18T03:29:58.000Z</time>
      </trkpt>
      <trkpt lat="45.20157" lon="5.73866">
        <ele>120.40000152588</ele>
        <time>2021-07-18T03:30:02.000Z</time>
      </trkpt>
      <trkpt lat="45.20158" lon="5.73862">
        <ele>120.40000152588</ele>
        <time>2021-07-18T03:30:03.000Z</time>
      </trkpt>
      <trkpt lat="45.20163" lon="5.73853">
        <ele>120.59999847412</ele>
        <time>2021-07-18T03:30:06.000Z</time>
      </trkpt>
      <trkpt lat="45.20171" lon="5.73831">
        <ele>120.59999847412</ele>
        <time>2021-07-18T03:30:13.000Z</time>
      </trkpt>
      <trkpt lat="45.20175" lon="5.73807">
        <ele>120.59999847412</ele>
        <time>2021-07-18T03:30:20.000Z</time>
      </trkpt>
      <trkpt lat="45.20181" lon="5.73785">
        <ele>120.59999847412</ele>
        <time>2021-07-18T03:30:27.000Z</time>
      </trkpt>
      <trkpt lat="45.20179" lon="5.73757">
        <ele>120.59999847412</ele>
        <time>2021-07-18T03:30:35.000Z</time>
      </trkpt>
      <trkpt lat="45.20177" lon="5.73728">
        <ele>121.40000152588</ele>
        <time>2021-07-18T03:30:43.000Z</time>
      </trkpt>
      <trkpt lat="45.20173" lon="5.73713">
        <ele>121</ele>
        <time>2021-07-18T03:30:48.000Z</time>
      </trkpt>
      <trkpt lat="45.20168" lon="5.73686">
        <ele>121</ele>
        <time>2021-07-18T03:30:56.000Z</time>
      </trkpt>
      <trkpt lat="45.20167" lon="5.73683">
        <ele>120.80000305176</ele>
        <time>2021-07-18T03:30:57.000Z</time>
      </trkpt>
      <trkpt lat="45.20159" lon="5.73658">
        <ele>120.80000305176</ele>
        <time>2021-07-18T03:31:04.000Z</time>
      </trkpt>
      <trkpt lat="45.20157" lon="5.73655">
        <ele>120.80000305176</ele>
        <time>2021-07-18T03:31:05.000Z</time>
      </trkpt>
      <trkpt lat="45.20151" lon="5.73636">
        <ele>120.80000305176</ele>
        <time>2021-07-18T03:31:12.000Z</time>
      </trkpt>
      <trkpt lat="45.20141" lon="5.73617">
        <ele>120.59999847412</ele>
        <time>2021-07-18T03:31:19.000Z</time>
      </trkpt>
      <trkpt lat="45.20132" lon="5.73594">
        <ele>120.59999847412</ele>
        <time>2021-07-18T03:31:26.000Z</time>
      </trkpt>
      <trkpt lat="45.2013" lon="5.73593">
        <ele>120.59999847412</ele>
        <time>2021-07-18T03:31:27.000Z</time>
      </trkpt>
      <trkpt lat="45.20123" lon="5.73583">
        <ele>121</ele>
        <time>2021-07-18T03:31:31.000Z</time>
      </trkpt>
      <trkpt lat="45.20113" lon="5.73564">
        <ele>121</ele>
        <time>2021-07-18T03:31:38.000Z</time>
      </trkpt>
      <trkpt lat="45.20105" lon="5.73553">
        <ele>121</ele>
        <time>2021-07-18T03:31:45.000Z</time>
      </trkpt>
      <trkpt lat="45.20098" lon="5.7354">
        <ele>121</ele>
        <time>2021-07-18T03:31:50.000Z</time>
      </trkpt>
      <trkpt lat="45.20094" lon="5.73535">
        <ele>121</ele>
        <time>2021-07-18T03:31:52.000Z</time>
      </trkpt>
      <trkpt lat="45.20092" lon="5.73532">
        <ele>120.80000305176</ele>
        <time>2021-07-18T03:31:53.000Z</time>
      </trkpt>
      <trkpt lat="45.20073" lon="5.73518">
        <ele>121</ele>
        <time>2021-07-18T03:32:00.000Z</time>
      </trkpt>
      <trkpt lat="45.20054" lon="5.73512">
        <ele>121</ele>
        <time>2021-07-18T03:32:06.000Z</time>
      </trkpt>
      <trkpt lat="45.20052" lon="5.7351">
        <ele>121</ele>
        <time>2021-07-18T03:32:07.000Z</time>
      </trkpt>
      <trkpt lat="45.20033" lon="5.73499">
        <ele>120.59999847412</ele>
        <time>2021-07-18T03:32:13.000Z</time>
      </trkpt>
      <trkpt lat="45.20024" lon="5.73492">
        <ele>120</ele>
        <time>2021-07-18T03:32:17.000Z</time>
      </trkpt>
      <trkpt lat="45.20021" lon="5.73483">
        <ele>119.59999847412</ele>
        <time>2021-07-18T03:32:19.000Z</time>
      </trkpt>
      <trkpt lat="45.20005" lon="5.73463">
        <ele>119.59999847412</ele>
        <time>2021-07-18T03:32:26.000Z</time>
      </trkpt>
      <trkpt lat="45.20001" lon="5.73462">
        <ele>119.59999847412</ele>
        <time>2021-07-18T03:32:28.000Z</time>
      </trkpt>
      <trkpt lat="45.19986" lon="5.73454">
        <ele>120.40000152588</ele>
        <time>2021-07-18T03:32:35.000Z</time>
      </trkpt>
      <trkpt lat="45.19977" lon="5.73448">
        <ele>120.19999694824</ele>
        <time>2021-07-18T03:32:40.000Z</time>
      </trkpt>
      <trkpt lat="45.19968" lon="5.73442">
        <ele>120.40000152588</ele>
        <time>2021-07-18T03:32:44.000Z</time>
      </trkpt>
      <trkpt lat="45.19953" lon="5.7343">
        <ele>121</ele>
        <time>2021-07-18T03:32:53.000Z</time>
      </trkpt>
      <trkpt lat="45.19936" lon="5.73425">
        <ele>120.40000152588</ele>
        <time>2021-07-18T03:32:59.000Z</time>
      </trkpt>
      <trkpt lat="45.19931" lon="5.73423">
        <ele>120.19999694824</ele>
        <time>2021-07-18T03:33:01.000Z</time>
      </trkpt>
      <trkpt lat="45.19912" lon="5.73418">
        <ele>120.40000152588</ele>
        <time>2021-07-18T03:33:09.000Z</time>
      </trkpt>
      <trkpt lat="45.1991" lon="5.73417">
        <ele>120.59999847412</ele>
        <time>2021-07-18T03:33:10.000Z</time>
      </trkpt>
      <trkpt lat="45.19891" lon="5.73413">
        <ele>120.19999694824</ele>
        <time>2021-07-18T03:33:18.000Z</time>
      </trkpt>
      <trkpt lat="45.19881" lon="5.73413">
        <ele>120.40000152588</ele>
        <time>2021-07-18T03:33:24.000Z</time>
      </trkpt>
      <trkpt lat="45.19871" lon="5.73411">
        <ele>120.80000305176</ele>
        <time>2021-07-18T03:33:30.000Z</time>
      </trkpt>
      <trkpt lat="45.19868" lon="5.7341">
        <ele>120.59999847412</ele>
        <time>2021-07-18T03:33:31.000Z</time>
      </trkpt>
      <trkpt lat="45.19864" lon="5.73409">
        <ele>120.40000152588</ele>
        <time>2021-07-18T03:33:32.000Z</time>
      </trkpt>
      <trkpt lat="45.19854" lon="5.73406">
        <ele>121.19999694824</ele>
        <time>2021-07-18T03:33:35.000Z</time>
      </trkpt>
      <trkpt lat="45.19838" lon="5.73403">
        <ele>120.59999847412</ele>
        <time>2021-07-18T03:33:41.000Z</time>
      </trkpt>
      <trkpt lat="45.19835" lon="5.73402">
        <ele>120.40000152588</ele>
        <time>2021-07-18T03:33:42.000Z</time>
      </trkpt>
      <trkpt lat="45.19831" lon="5.734">
        <ele>120</ele>
        <time>2021-07-18T03:33:44.000Z</time>
      </trkpt>
      <trkpt lat="45.19816" lon="5.73394">
        <ele>120.40000152588</ele>
        <time>2021-07-18T03:33:49.000Z</time>
      </trkpt>
      <trkpt lat="45.19796" lon="5.7339">
        <ele>120.40000152588</ele>
        <time>2021-07-18T03:33:56.000Z</time>
      </trkpt>
      <trkpt lat="45.19791" lon="5.73388">
        <ele>120.40000152588</ele>
        <time>2021-07-18T03:33:58.000Z</time>
      </trkpt>
      <trkpt lat="45.19773" lon="5.73385">
        <ele>120.40000152588</ele>
        <time>2021-07-18T03:34:05.000Z</time>
      </trkpt>
      <trkpt lat="45.19771" lon="5.73384">
        <ele>120.59999847412</ele>
        <time>2021-07-18T03:34:06.000Z</time>
      </trkpt>
      <trkpt lat="45.19758" lon="5.73379">
        <ele>121.19999694824</ele>
        <time>2021-07-18T03:34:11.000Z</time>
      </trkpt>
      <trkpt lat="45.19747" lon="5.73376">
        <ele>121.40000152588</ele>
        <time>2021-07-18T03:34:16.000Z</time>
      </trkpt>
      <trkpt lat="45.19738" lon="5.73371">
        <ele>122</ele>
        <time>2021-07-18T03:34:21.000Z</time>
      </trkpt>
      <trkpt lat="45.19737" lon="5.73368">
        <ele>122.19999694824</ele>
        <time>2021-07-18T03:34:22.000Z</time>
      </trkpt>
      <trkpt lat="45.19737" lon="5.7335">
        <ele>123</ele>
        <time>2021-07-18T03:34:26.000Z</time>
      </trkpt>
      <trkpt lat="45.1974" lon="5.73338">
        <ele>123</ele>
        <time>2021-07-18T03:34:29.000Z</time>
      </trkpt>
      <trkpt lat="45.19742" lon="5.7333">
        <ele>123.19999694824</ele>
        <time>2021-07-18T03:34:31.000Z</time>
      </trkpt>
      <trkpt lat="45.19747" lon="5.73308">
        <ele>123.19999694824</ele>
        <time>2021-07-18T03:34:37.000Z</time>
      </trkpt>
      <trkpt lat="45.19747" lon="5.73304">
        <ele>123.19999694824</ele>
        <time>2021-07-18T03:34:38.000Z</time>
      </trkpt>
      <trkpt lat="45.19748" lon="5.733">
        <ele>122.80000305176</ele>
        <time>2021-07-18T03:34:39.000Z</time>
      </trkpt>
      <trkpt lat="45.19753" lon="5.73284">
        <ele>123</ele>
        <time>2021-07-18T03:34:44.000Z</time>
      </trkpt>
      <trkpt lat="45.19754" lon="5.7328">
        <ele>122.80000305176</ele>
        <time>2021-07-18T03:34:45.000Z</time>
      </trkpt>
      <trkpt lat="45.19755" lon="5.73276">
        <ele>123</ele>
        <time>2021-07-18T03:34:46.000Z</time>
      </trkpt>
      <trkpt lat="45.19762" lon="5.73252">
        <ele>122.59999847412</ele>
        <time>2021-07-18T03:34:53.000Z</time>
      </trkpt>
      <trkpt lat="45.19763" lon="5.73249">
        <ele>122.40000152588</ele>
        <time>2021-07-18T03:34:54.000Z</time>
      </trkpt>
      <trkpt lat="45.19767" lon="5.7324">
        <ele>122.19999694824</ele>
        <time>2021-07-18T03:34:57.000Z</time>
      </trkpt>
      <trkpt lat="45.19776" lon="5.73228">
        <ele>122</ele>
        <time>2021-07-18T03:35:01.000Z</time>
      </trkpt>
      <trkpt lat="45.19788" lon="5.73208">
        <ele>121.40000152588</ele>
        <time>2021-07-18T03:35:07.000Z</time>
      </trkpt>
      <trkpt lat="45.19789" lon="5.73206">
        <ele>121.40000152588</ele>
        <time>2021-07-18T03:35:08.000Z</time>
      </trkpt>
      <trkpt lat="45.1979" lon="5.732">
        <ele>121.40000152588</ele>
        <time>2021-07-18T03:35:10.000Z</time>
      </trkpt>
      <trkpt lat="45.19789" lon="5.73194">
        <ele>121.40000152588</ele>
        <time>2021-07-18T03:35:12.000Z</time>
      </trkpt>
      <trkpt lat="45.19787" lon="5.73178">
        <ele>121.59999847412</ele>
        <time>2021-07-18T03:35:18.000Z</time>
      </trkpt>
      <trkpt lat="45.19787" lon="5.73176">
        <ele>121.59999847412</ele>
        <time>2021-07-18T03:35:19.000Z</time>
      </trkpt>
      <trkpt lat="45.1979" lon="5.73167">
        <ele>123.19999694824</ele>
        <time>2021-07-18T03:35:22.000Z</time>
      </trkpt>
      <trkpt lat="45.19792" lon="5.73165">
        <ele>123.40000152588</ele>
        <time>2021-07-18T03:35:23.000Z</time>
      </trkpt>
      <trkpt lat="45.19796" lon="5.73161">
        <ele>124.40000152588</ele>
        <time>2021-07-18T03:35:25.000Z</time>
      </trkpt>
      <trkpt lat="45.19799" lon="5.73152">
        <ele>125</ele>
        <time>2021-07-18T03:35:28.000Z</time>
      </trkpt>
      <trkpt lat="45.19801" lon="5.73145">
        <ele>125.19999694824</ele>
        <time>2021-07-18T03:35:30.000Z</time>
      </trkpt>
      <trkpt lat="45.19803" lon="5.73142">
        <ele>126</ele>
        <time>2021-07-18T03:35:31.000Z</time>
      </trkpt>
      <trkpt lat="45.19803" lon="5.73133">
        <ele>127.19999694824</ele>
        <time>2021-07-18T03:35:35.000Z</time>
      </trkpt>
      <trkpt lat="45.19805" lon="5.73132">
        <ele>127.19999694824</ele>
        <time>2021-07-18T03:35:36.000Z</time>
      </trkpt>
      <trkpt lat="45.19809" lon="5.73129">
        <ele>128</ele>
        <time>2021-07-18T03:35:40.000Z</time>
      </trkpt>
      <trkpt lat="45.19809" lon="5.73128">
        <ele>128.19999694824</ele>
        <time>2021-07-18T03:35:41.000Z</time>
      </trkpt>
      <trkpt lat="45.19809" lon="5.73127">
        <ele>128.19999694824</ele>
        <time>2021-07-18T03:35:42.000Z</time>
      </trkpt>
      <trkpt lat="45.19804" lon="5.73128">
        <ele>128.80000305176</ele>
        <time>2021-07-18T03:35:45.000Z</time>
      </trkpt>
      <trkpt lat="45.19803" lon="5.73127">
        <ele>129.39999389648</ele>
        <time>2021-07-18T03:35:46.000Z</time>
      </trkpt>
      <trkpt lat="45.19797" lon="5.73128">
        <ele>129.80000305176</ele>
        <time>2021-07-18T03:35:50.000Z</time>
      </trkpt>
      <trkpt lat="45.19766" lon="5.73101">
        <ele>132.19999694824</ele>
        <time>2021-07-18T03:36:02.000Z</time>
      </trkpt>
      <trkpt lat="45.19766" lon="5.73108">
        <ele>132.19999694824</ele>
        <time>2021-07-18T03:36:03.000Z</time>
      </trkpt>
      <trkpt lat="45.19764" lon="5.73101">
        <ele>133</ele>
        <time>2021-07-18T03:36:05.000Z</time>
      </trkpt>
      <trkpt lat="45.19761" lon="5.73092">
        <ele>133.80000305176</ele>
        <time>2021-07-18T03:36:08.000Z</time>
      </trkpt>
      <trkpt lat="45.1976" lon="5.7309">
        <ele>133.80000305176</ele>
        <time>2021-07-18T03:36:09.000Z</time>
      </trkpt>
      <trkpt lat="45.19761" lon="5.73087">
        <ele>134.19999694824</ele>
        <time>2021-07-18T03:36:10.000Z</time>
      </trkpt>
      <trkpt lat="45.19764" lon="5.73084">
        <ele>134.39999389648</ele>
        <time>2021-07-18T03:36:12.000Z</time>
      </trkpt>
      <trkpt lat="45.19766" lon="5.73083">
        <ele>134.80000305176</ele>
        <time>2021-07-18T03:36:14.000Z</time>
      </trkpt>
      <trkpt lat="45.1977" lon="5.73084">
        <ele>135.60000610352</ele>
        <time>2021-07-18T03:36:17.000Z</time>
      </trkpt>
      <trkpt lat="45.19773" lon="5.73084">
        <ele>136</ele>
        <time>2021-07-18T03:36:20.000Z</time>
      </trkpt>
      <trkpt lat="45.19775" lon="5.73084">
        <ele>136</ele>
        <time>2021-07-18T03:36:21.000Z</time>
      </trkpt>
      <trkpt lat="45.19784" lon="5.73087">
        <ele>137</ele>
        <time>2021-07-18T03:36:24.000Z</time>
      </trkpt>
      <trkpt lat="45.19784" lon="5.73088">
        <ele>137.19999694824</ele>
        <time>2021-07-18T03:36:25.000Z</time>
      </trkpt>
      <trkpt lat="45.19785" lon="5.7309">
        <ele>137.39999389648</ele>
        <time>2021-07-18T03:36:26.000Z</time>
      </trkpt>
      <trkpt lat="45.19787" lon="5.7309">
        <ele>137.80000305176</ele>
        <time>2021-07-18T03:36:27.000Z</time>
      </trkpt>
      <trkpt lat="45.1979" lon="5.73091">
        <ele>138</ele>
        <time>2021-07-18T03:36:29.000Z</time>
      </trkpt>
      <trkpt lat="45.19794" lon="5.73093">
        <ele>138.39999389648</ele>
        <time>2021-07-18T03:36:31.000Z</time>
      </trkpt>
      <trkpt lat="45.19796" lon="5.73093">
        <ele>138.39999389648</ele>
        <time>2021-07-18T03:36:32.000Z</time>
      </trkpt>
      <trkpt lat="45.19798" lon="5.73094">
        <ele>138.60000610352</ele>
        <time>2021-07-18T03:36:34.000Z</time>
      </trkpt>
      <trkpt lat="45.19801" lon="5.73093">
        <ele>139</ele>
        <time>2021-07-18T03:36:36.000Z</time>
      </trkpt>
      <trkpt lat="45.19801" lon="5.73092">
        <ele>139.19999694824</ele>
        <time>2021-07-18T03:36:37.000Z</time>
      </trkpt>
      <trkpt lat="45.19799" lon="5.73096">
        <ele>139.80000305176</ele>
        <time>2021-07-18T03:36:40.000Z</time>
      </trkpt>
      <trkpt lat="45.19797" lon="5.73098">
        <ele>140.39999389648</ele>
        <time>2021-07-18T03:36:42.000Z</time>
      </trkpt>
      <trkpt lat="45.19787" lon="5.73097">
        <ele>141.39999389648</ele>
        <time>2021-07-18T03:36:49.000Z</time>
      </trkpt>
      <trkpt lat="45.1978" lon="5.73094">
        <ele>142.39999389648</ele>
        <time>2021-07-18T03:36:53.000Z</time>
      </trkpt>
      <trkpt lat="45.19775" lon="5.73091">
        <ele>143.19999694824</ele>
        <time>2021-07-18T03:36:56.000Z</time>
      </trkpt>
      <trkpt lat="45.19768" lon="5.73088">
        <ele>143.60000610352</ele>
        <time>2021-07-18T03:36:59.000Z</time>
      </trkpt>
      <trkpt lat="45.19761" lon="5.73083">
        <ele>144.60000610352</ele>
        <time>2021-07-18T03:37:03.000Z</time>
      </trkpt>
      <trkpt lat="45.19758" lon="5.7308">
        <ele>144.80000305176</ele>
        <time>2021-07-18T03:37:05.000Z</time>
      </trkpt>
      <trkpt lat="45.19751" lon="5.73071">
        <ele>145.39999389648</ele>
        <time>2021-07-18T03:37:09.000Z</time>
      </trkpt>
      <trkpt lat="45.19751" lon="5.73069">
        <ele>145.80000305176</ele>
        <time>2021-07-18T03:37:10.000Z</time>
      </trkpt>
      <trkpt lat="45.1975" lon="5.73065">
        <ele>146.60000610352</ele>
        <time>2021-07-18T03:37:13.000Z</time>
      </trkpt>
      <trkpt lat="45.19751" lon="5.73064">
        <ele>146.80000305176</ele>
        <time>2021-07-18T03:37:14.000Z</time>
      </trkpt>
      <trkpt lat="45.19753" lon="5.73064">
        <ele>147.19999694824</ele>
        <time>2021-07-18T03:37:15.000Z</time>
      </trkpt>
      <trkpt lat="45.19755" lon="5.73061">
        <ele>147.39999389648</ele>
        <time>2021-07-18T03:37:18.000Z</time>
      </trkpt>
      <trkpt lat="45.19757" lon="5.7306">
        <ele>148</ele>
        <time>2021-07-18T03:37:20.000Z</time>
      </trkpt>
      <trkpt lat="45.19759" lon="5.73061">
        <ele>148.19999694824</ele>
        <time>2021-07-18T03:37:21.000Z</time>
      </trkpt>
      <trkpt lat="45.19759" lon="5.73061">
        <ele>148.80000305176</ele>
        <time>2021-07-18T03:37:22.000Z</time>
      </trkpt>
      <trkpt lat="45.19763" lon="5.73062">
        <ele>149.19999694824</ele>
        <time>2021-07-18T03:37:25.000Z</time>
      </trkpt>
      <trkpt lat="45.19765" lon="5.73061">
        <ele>149.60000610352</ele>
        <time>2021-07-18T03:37:27.000Z</time>
      </trkpt>
      <trkpt lat="45.19771" lon="5.73061">
        <ele>150.39999389648</ele>
        <time>2021-07-18T03:37:30.000Z</time>
      </trkpt>
      <trkpt lat="45.19774" lon="5.73061">
        <ele>150.60000610352</ele>
        <time>2021-07-18T03:37:33.000Z</time>
      </trkpt>
      <trkpt lat="45.19778" lon="5.73061">
        <ele>151.19999694824</ele>
        <time>2021-07-18T03:37:35.000Z</time>
      </trkpt>
      <trkpt lat="45.19781" lon="5.7306">
        <ele>151.39999389648</ele>
        <time>2021-07-18T03:37:37.000Z</time>
      </trkpt>
      <trkpt lat="45.19781" lon="5.73059">
        <ele>151.60000610352</ele>
        <time>2021-07-18T03:37:38.000Z</time>
      </trkpt>
      <trkpt lat="45.19782" lon="5.73058">
        <ele>152.19999694824</ele>
        <time>2021-07-18T03:37:39.000Z</time>
      </trkpt>
      <trkpt lat="45.19783" lon="5.73059">
        <ele>152.60000610352</ele>
        <time>2021-07-18T03:37:41.000Z</time>
      </trkpt>
      <trkpt lat="45.19781" lon="5.73059">
        <ele>152.80000305176</ele>
        <time>2021-07-18T03:37:42.000Z</time>
      </trkpt>
      <trkpt lat="45.19779" lon="5.7306">
        <ele>153.19999694824</ele>
        <time>2021-07-18T03:37:44.000Z</time>
      </trkpt>
      <trkpt lat="45.19776" lon="5.73059">
        <ele>153.80000305176</ele>
        <time>2021-07-18T03:37:47.000Z</time>
      </trkpt>
      <trkpt lat="45.19771" lon="5.73057">
        <ele>154.39999389648</ele>
        <time>2021-07-18T03:37:51.000Z</time>
      </trkpt>
      <trkpt lat="45.19769" lon="5.73056">
        <ele>154.60000610352</ele>
        <time>2021-07-18T03:37:52.000Z</time>
      </trkpt>
      <trkpt lat="45.19768" lon="5.73055">
        <ele>154.80000305176</ele>
        <time>2021-07-18T03:37:53.000Z</time>
      </trkpt>
      <trkpt lat="45.19763" lon="5.7305">
        <ele>155.60000610352</ele>
        <time>2021-07-18T03:37:58.000Z</time>
      </trkpt>
      <trkpt lat="45.19761" lon="5.73049">
        <ele>156</ele>
        <time>2021-07-18T03:37:59.000Z</time>
      </trkpt>
      <trkpt lat="45.19758" lon="5.73048">
        <ele>156.60000610352</ele>
        <time>2021-07-18T03:38:01.000Z</time>
      </trkpt>
      <trkpt lat="45.19754" lon="5.73046">
        <ele>157.19999694824</ele>
        <time>2021-07-18T03:38:04.000Z</time>
      </trkpt>
      <trkpt lat="45.19753" lon="5.73044">
        <ele>157.60000610352</ele>
        <time>2021-07-18T03:38:05.000Z</time>
      </trkpt>
      <trkpt lat="45.19757" lon="5.73042">
        <ele>158.19999694824</ele>
        <time>2021-07-18T03:38:09.000Z</time>
      </trkpt>
      <trkpt lat="45.19773" lon="5.73038">
        <ele>159.19999694824</ele>
        <time>2021-07-18T03:38:17.000Z</time>
      </trkpt>
      <trkpt lat="45.19778" lon="5.73038">
        <ele>160.60000610352</ele>
        <time>2021-07-18T03:38:20.000Z</time>
      </trkpt>
      <trkpt lat="45.19782" lon="5.73037">
        <ele>160.80000305176</ele>
        <time>2021-07-18T03:38:22.000Z</time>
      </trkpt>
      <trkpt lat="45.19784" lon="5.73037">
        <ele>161.19999694824</ele>
        <time>2021-07-18T03:38:24.000Z</time>
      </trkpt>
      <trkpt lat="45.19789" lon="5.73037">
        <ele>161.80000305176</ele>
        <time>2021-07-18T03:38:27.000Z</time>
      </trkpt>
      <trkpt lat="45.19797" lon="5.73038">
        <ele>162.80000305176</ele>
        <time>2021-07-18T03:38:32.000Z</time>
      </trkpt>
      <trkpt lat="45.19798" lon="5.73038">
        <ele>163</ele>
        <time>2021-07-18T03:38:33.000Z</time>
      </trkpt>
      <trkpt lat="45.198" lon="5.73037">
        <ele>164.19999694824</ele>
        <time>2021-07-18T03:38:36.000Z</time>
      </trkpt>
      <trkpt lat="45.19799" lon="5.73036">
        <ele>164.39999389648</ele>
        <time>2021-07-18T03:38:38.000Z</time>
      </trkpt>
      <trkpt lat="45.19798" lon="5.73035">
        <ele>164.39999389648</ele>
        <time>2021-07-18T03:38:39.000Z</time>
      </trkpt>
      <trkpt lat="45.19793" lon="5.73032">
        <ele>165.39999389648</ele>
        <time>2021-07-18T03:38:42.000Z</time>
      </trkpt>
      <trkpt lat="45.19792" lon="5.73032">
        <ele>165.39999389648</ele>
        <time>2021-07-18T03:38:43.000Z</time>
      </trkpt>
      <trkpt lat="45.19781" lon="5.7303">
        <ele>166.39999389648</ele>
        <time>2021-07-18T03:38:50.000Z</time>
      </trkpt>
      <trkpt lat="45.1978" lon="5.7303">
        <ele>166.39999389648</ele>
        <time>2021-07-18T03:38:51.000Z</time>
      </trkpt>
      <trkpt lat="45.19773" lon="5.73029">
        <ele>167.60000610352</ele>
        <time>2021-07-18T03:38:56.000Z</time>
      </trkpt>
      <trkpt lat="45.19772" lon="5.73029">
        <ele>167.80000305176</ele>
        <time>2021-07-18T03:38:57.000Z</time>
      </trkpt>
      <trkpt lat="45.19766" lon="5.73027">
        <ele>168.19999694824</ele>
        <time>2021-07-18T03:39:01.000Z</time>
      </trkpt>
      <trkpt lat="45.19766" lon="5.73025">
        <ele>168.80000305176</ele>
        <time>2021-07-18T03:39:02.000Z</time>
      </trkpt>
      <trkpt lat="45.19772" lon="5.73018">
        <ele>169.60000610352</ele>
        <time>2021-07-18T03:39:06.000Z</time>
      </trkpt>
      <trkpt lat="45.19774" lon="5.73018">
        <ele>170</ele>
        <time>2021-07-18T03:39:07.000Z</time>
      </trkpt>
      <trkpt lat="45.19779" lon="5.73019">
        <ele>170.60000610352</ele>
        <time>2021-07-18T03:39:11.000Z</time>
      </trkpt>
      <trkpt lat="45.1978" lon="5.73019">
        <ele>171</ele>
        <time>2021-07-18T03:39:12.000Z</time>
      </trkpt>
      <trkpt lat="45.19781" lon="5.7302">
        <ele>171.19999694824</ele>
        <time>2021-07-18T03:39:13.000Z</time>
      </trkpt>
      <trkpt lat="45.19783" lon="5.7302">
        <ele>171.39999389648</ele>
        <time>2021-07-18T03:39:15.000Z</time>
      </trkpt>
      <trkpt lat="45.19787" lon="5.73021">
        <ele>172</ele>
        <time>2021-07-18T03:39:18.000Z</time>
      </trkpt>
      <trkpt lat="45.19789" lon="5.7302">
        <ele>172.39999389648</ele>
        <time>2021-07-18T03:39:19.000Z</time>
      </trkpt>
      <trkpt lat="45.19792" lon="5.73022">
        <ele>172.39999389648</ele>
        <time>2021-07-18T03:39:21.000Z</time>
      </trkpt>
      <trkpt lat="45.19794" lon="5.73025">
        <ele>172.60000610352</ele>
        <time>2021-07-18T03:39:23.000Z</time>
      </trkpt>
      <trkpt lat="45.19798" lon="5.73027">
        <ele>173.60000610352</ele>
        <time>2021-07-18T03:39:26.000Z</time>
      </trkpt>
      <trkpt lat="45.198" lon="5.73028">
        <ele>173.60000610352</ele>
        <time>2021-07-18T03:39:27.000Z</time>
      </trkpt>
      <trkpt lat="45.19802" lon="5.73029">
        <ele>173.80000305176</ele>
        <time>2021-07-18T03:39:29.000Z</time>
      </trkpt>
      <trkpt lat="45.19804" lon="5.73028">
        <ele>174.39999389648</ele>
        <time>2021-07-18T03:39:32.000Z</time>
      </trkpt>
      <trkpt lat="45.19804" lon="5.73027">
        <ele>174.80000305176</ele>
        <time>2021-07-18T03:39:33.000Z</time>
      </trkpt>
      <trkpt lat="45.19795" lon="5.73023">
        <ele>175.39999389648</ele>
        <time>2021-07-18T03:39:39.000Z</time>
      </trkpt>
      <trkpt lat="45.19794" lon="5.73022">
        <ele>175.60000610352</ele>
        <time>2021-07-18T03:39:40.000Z</time>
      </trkpt>
      <trkpt lat="45.19791" lon="5.73021">
        <ele>176</ele>
        <time>2021-07-18T03:39:42.000Z</time>
      </trkpt>
      <trkpt lat="45.19786" lon="5.73019">
        <ele>176.60000610352</ele>
        <time>2021-07-18T03:39:45.000Z</time>
      </trkpt>
      <trkpt lat="45.19783" lon="5.73018">
        <ele>177.19999694824</ele>
        <time>2021-07-18T03:39:47.000Z</time>
      </trkpt>
      <trkpt lat="45.19779" lon="5.7301">
        <ele>177.80000305176</ele>
        <time>2021-07-18T03:39:51.000Z</time>
      </trkpt>
      <trkpt lat="45.19777" lon="5.73004">
        <ele>178.39999389648</ele>
        <time>2021-07-18T03:39:53.000Z</time>
      </trkpt>
      <trkpt lat="45.19771" lon="5.72996">
        <ele>179.39999389648</ele>
        <time>2021-07-18T03:39:57.000Z</time>
      </trkpt>
      <trkpt lat="45.19769" lon="5.72995">
        <ele>179.60000610352</ele>
        <time>2021-07-18T03:39:58.000Z</time>
      </trkpt>
      <trkpt lat="45.19767" lon="5.72993">
        <ele>179.80000305176</ele>
        <time>2021-07-18T03:39:59.000Z</time>
      </trkpt>
      <trkpt lat="45.19761" lon="5.72986">
        <ele>180.60000610352</ele>
        <time>2021-07-18T03:40:03.000Z</time>
      </trkpt>
      <trkpt lat="45.1976" lon="5.72984">
        <ele>180.80000305176</ele>
        <time>2021-07-18T03:40:04.000Z</time>
      </trkpt>
      <trkpt lat="45.19756" lon="5.72979">
        <ele>181.19999694824</ele>
        <time>2021-07-18T03:40:07.000Z</time>
      </trkpt>
      <trkpt lat="45.19755" lon="5.72977">
        <ele>181.19999694824</ele>
        <time>2021-07-18T03:40:08.000Z</time>
      </trkpt>
      <trkpt lat="45.19753" lon="5.72973">
        <ele>182</ele>
        <time>2021-07-18T03:40:10.000Z</time>
      </trkpt>
      <trkpt lat="45.19747" lon="5.72966">
        <ele>183</ele>
        <time>2021-07-18T03:40:14.000Z</time>
      </trkpt>
      <trkpt lat="45.19739" lon="5.72949">
        <ele>184.39999389648</ele>
        <time>2021-07-18T03:40:21.000Z</time>
      </trkpt>
      <trkpt lat="45.19738" lon="5.72946">
        <ele>184.39999389648</ele>
        <time>2021-07-18T03:40:22.000Z</time>
      </trkpt>
      <trkpt lat="45.19731" lon="5.72933">
        <ele>185.60000610352</ele>
        <time>2021-07-18T03:40:28.000Z</time>
      </trkpt>
      <trkpt lat="45.19728" lon="5.72929">
        <ele>185.80000305176</ele>
        <time>2021-07-18T03:40:30.000Z</time>
      </trkpt>
      <trkpt lat="45.19724" lon="5.72923">
        <ele>186.80000305176</ele>
        <time>2021-07-18T03:40:33.000Z</time>
      </trkpt>
      <trkpt lat="45.19719" lon="5.72917">
        <ele>187.19999694824</ele>
        <time>2021-07-18T03:40:37.000Z</time>
      </trkpt>
      <trkpt lat="45.19719" lon="5.72916">
        <ele>187.80000305176</ele>
        <time>2021-07-18T03:40:38.000Z</time>
      </trkpt>
      <trkpt lat="45.19714" lon="5.72906">
        <ele>188.80000305176</ele>
        <time>2021-07-18T03:40:43.000Z</time>
      </trkpt>
      <trkpt lat="45.19712" lon="5.72904">
        <ele>189</ele>
        <time>2021-07-18T03:40:44.000Z</time>
      </trkpt>
      <trkpt lat="45.19707" lon="5.72896">
        <ele>190</ele>
        <time>2021-07-18T03:40:49.000Z</time>
      </trkpt>
      <trkpt lat="45.19705" lon="5.72893">
        <ele>190</ele>
        <time>2021-07-18T03:40:50.000Z</time>
      </trkpt>
      <trkpt lat="45.19698" lon="5.72881">
        <ele>191</ele>
        <time>2021-07-18T03:40:56.000Z</time>
      </trkpt>
      <trkpt lat="45.19695" lon="5.72877">
        <ele>191.60000610352</ele>
        <time>2021-07-18T03:40:58.000Z</time>
      </trkpt>
      <trkpt lat="45.19693" lon="5.72873">
        <ele>192.19999694824</ele>
        <time>2021-07-18T03:41:00.000Z</time>
      </trkpt>
      <trkpt lat="45.19691" lon="5.72867">
        <ele>192.80000305176</ele>
        <time>2021-07-18T03:41:03.000Z</time>
      </trkpt>
      <trkpt lat="45.19692" lon="5.72867">
        <ele>193.19999694824</ele>
        <time>2021-07-18T03:41:04.000Z</time>
      </trkpt>
      <trkpt lat="45.19693" lon="5.72863">
        <ele>193.60000610352</ele>
        <time>2021-07-18T03:41:05.000Z</time>
      </trkpt>
      <trkpt lat="45.19699" lon="5.72863">
        <ele>194.19999694824</ele>
        <time>2021-07-18T03:41:09.000Z</time>
      </trkpt>
      <trkpt lat="45.19703" lon="5.72862">
        <ele>194.80000305176</ele>
        <time>2021-07-18T03:41:12.000Z</time>
      </trkpt>
      <trkpt lat="45.19704" lon="5.72863">
        <ele>195</ele>
        <time>2021-07-18T03:41:13.000Z</time>
      </trkpt>
      <trkpt lat="45.19705" lon="5.72863">
        <ele>195.39999389648</ele>
        <time>2021-07-18T03:41:14.000Z</time>
      </trkpt>
      <trkpt lat="45.19708" lon="5.72864">
        <ele>195.80000305176</ele>
        <time>2021-07-18T03:41:17.000Z</time>
      </trkpt>
      <trkpt lat="45.19711" lon="5.72866">
        <ele>196</ele>
        <time>2021-07-18T03:41:19.000Z</time>
      </trkpt>
      <trkpt lat="45.19715" lon="5.72867">
        <ele>196.80000305176</ele>
        <time>2021-07-18T03:41:22.000Z</time>
      </trkpt>
      <trkpt lat="45.19721" lon="5.72871">
        <ele>197.60000610352</ele>
        <time>2021-07-18T03:41:25.000Z</time>
      </trkpt>
      <trkpt lat="45.19726" lon="5.72872">
        <ele>198.19999694824</ele>
        <time>2021-07-18T03:41:27.000Z</time>
      </trkpt>
      <trkpt lat="45.19734" lon="5.72874">
        <ele>198.60000610352</ele>
        <time>2021-07-18T03:41:31.000Z</time>
      </trkpt>
      <trkpt lat="45.19736" lon="5.72876">
        <ele>199.39999389648</ele>
        <time>2021-07-18T03:41:33.000Z</time>
      </trkpt>
      <trkpt lat="45.19739" lon="5.72879">
        <ele>199.60000610352</ele>
        <time>2021-07-18T03:41:35.000Z</time>
      </trkpt>
      <trkpt lat="45.19741" lon="5.7288">
        <ele>199.80000305176</ele>
        <time>2021-07-18T03:41:36.000Z</time>
      </trkpt>
      <trkpt lat="45.19745" lon="5.72883">
        <ele>200.39999389648</ele>
        <time>2021-07-18T03:41:39.000Z</time>
      </trkpt>
      <trkpt lat="45.19746" lon="5.72885">
        <ele>200.60000610352</ele>
        <time>2021-07-18T03:41:40.000Z</time>
      </trkpt>
      <trkpt lat="45.19749" lon="5.72888">
        <ele>201.39999389648</ele>
        <time>2021-07-18T03:41:42.000Z</time>
      </trkpt>
      <trkpt lat="45.19756" lon="5.72891">
        <ele>202.19999694824</ele>
        <time>2021-07-18T03:41:45.000Z</time>
      </trkpt>
      <trkpt lat="45.1976" lon="5.72892">
        <ele>202.60000610352</ele>
        <time>2021-07-18T03:41:47.000Z</time>
      </trkpt>
      <trkpt lat="45.19763" lon="5.72893">
        <ele>202.80000305176</ele>
        <time>2021-07-18T03:41:50.000Z</time>
      </trkpt>
      <trkpt lat="45.19768" lon="5.72895">
        <ele>203.80000305176</ele>
        <time>2021-07-18T03:41:52.000Z</time>
      </trkpt>
      <trkpt lat="45.19776" lon="5.729">
        <ele>204.80000305176</ele>
        <time>2021-07-18T03:41:56.000Z</time>
      </trkpt>
      <trkpt lat="45.19777" lon="5.72901">
        <ele>204.80000305176</ele>
        <time>2021-07-18T03:41:57.000Z</time>
      </trkpt>
      <trkpt lat="45.19784" lon="5.72906">
        <ele>205.19999694824</ele>
        <time>2021-07-18T03:42:01.000Z</time>
      </trkpt>
      <trkpt lat="45.19785" lon="5.72907">
        <ele>205.39999389648</ele>
        <time>2021-07-18T03:42:02.000Z</time>
      </trkpt>
      <trkpt lat="45.19787" lon="5.72909">
        <ele>206</ele>
        <time>2021-07-18T03:42:03.000Z</time>
      </trkpt>
      <trkpt lat="45.19791" lon="5.7291">
        <ele>206.60000610352</ele>
        <time>2021-07-18T03:42:05.000Z</time>
      </trkpt>
      <trkpt lat="45.19794" lon="5.72911">
        <ele>206.80000305176</ele>
        <time>2021-07-18T03:42:07.000Z</time>
      </trkpt>
      <trkpt lat="45.19795" lon="5.72913">
        <ele>206.80000305176</ele>
        <time>2021-07-18T03:42:08.000Z</time>
      </trkpt>
      <trkpt lat="45.19794" lon="5.72914">
        <ele>207.19999694824</ele>
        <time>2021-07-18T03:42:09.000Z</time>
      </trkpt>
      <trkpt lat="45.19793" lon="5.72914">
        <ele>207.19999694824</ele>
        <time>2021-07-18T03:42:10.000Z</time>
      </trkpt>
      <trkpt lat="45.19792" lon="5.72915">
        <ele>207.80000305176</ele>
        <time>2021-07-18T03:42:11.000Z</time>
      </trkpt>
      <trkpt lat="45.19789" lon="5.72914">
        <ele>208.60000610352</ele>
        <time>2021-07-18T03:42:14.000Z</time>
      </trkpt>
      <trkpt lat="45.19784" lon="5.72912">
        <ele>209</ele>
        <time>2021-07-18T03:42:17.000Z</time>
      </trkpt>
      <trkpt lat="45.19782" lon="5.72912">
        <ele>209.60000610352</ele>
        <time>2021-07-18T03:42:19.000Z</time>
      </trkpt>
      <trkpt lat="45.19776" lon="5.72907">
        <ele>210.60000610352</ele>
        <time>2021-07-18T03:42:23.000Z</time>
      </trkpt>
      <trkpt lat="45.19775" lon="5.72904">
        <ele>210.80000305176</ele>
        <time>2021-07-18T03:42:25.000Z</time>
      </trkpt>
      <trkpt lat="45.19772" lon="5.729">
        <ele>211.60000610352</ele>
        <time>2021-07-18T03:42:28.000Z</time>
      </trkpt>
      <trkpt lat="45.19767" lon="5.72894">
        <ele>212</ele>
        <time>2021-07-18T03:42:32.000Z</time>
      </trkpt>
      <trkpt lat="45.19764" lon="5.7289">
        <ele>212.80000305176</ele>
        <time>2021-07-18T03:42:34.000Z</time>
      </trkpt>
      <trkpt lat="45.19759" lon="5.72884">
        <ele>213.80000305176</ele>
        <time>2021-07-18T03:42:38.000Z</time>
      </trkpt>
      <trkpt lat="45.19758" lon="5.72883">
        <ele>213.80000305176</ele>
        <time>2021-07-18T03:42:39.000Z</time>
      </trkpt>
      <trkpt lat="45.19757" lon="5.72881">
        <ele>214.19999694824</ele>
        <time>2021-07-18T03:42:40.000Z</time>
      </trkpt>
      <trkpt lat="45.19751" lon="5.72873">
        <ele>214.80000305176</ele>
        <time>2021-07-18T03:42:44.000Z</time>
      </trkpt>
      <trkpt lat="45.19745" lon="5.72866">
        <ele>216</ele>
        <time>2021-07-18T03:42:48.000Z</time>
      </trkpt>
      <trkpt lat="45.19742" lon="5.72857">
        <ele>216.80000305176</ele>
        <time>2021-07-18T03:42:52.000Z</time>
      </trkpt>
      <trkpt lat="45.19743" lon="5.72857">
        <ele>217.19999694824</ele>
        <time>2021-07-18T03:42:53.000Z</time>
      </trkpt>
      <trkpt lat="45.19744" lon="5.72857">
        <ele>217.39999389648</ele>
        <time>2021-07-18T03:42:54.000Z</time>
      </trkpt>
      <trkpt lat="45.19748" lon="5.72859">
        <ele>218.39999389648</ele>
        <time>2021-07-18T03:42:57.000Z</time>
      </trkpt>
      <trkpt lat="45.19751" lon="5.72859">
        <ele>219</ele>
        <time>2021-07-18T03:43:00.000Z</time>
      </trkpt>
      <trkpt lat="45.19755" lon="5.72859">
        <ele>219.39999389648</ele>
        <time>2021-07-18T03:43:02.000Z</time>
      </trkpt>
      <trkpt lat="45.19756" lon="5.72859">
        <ele>219.60000610352</ele>
        <time>2021-07-18T03:43:03.000Z</time>
      </trkpt>
      <trkpt lat="45.19764" lon="5.72859">
        <ele>220.60000610352</ele>
        <time>2021-07-18T03:43:08.000Z</time>
      </trkpt>
      <trkpt lat="45.19769" lon="5.7286">
        <ele>221</ele>
        <time>2021-07-18T03:43:10.000Z</time>
      </trkpt>
      <trkpt lat="45.19776" lon="5.72864">
        <ele>221.80000305176</ele>
        <time>2021-07-18T03:43:13.000Z</time>
      </trkpt>
      <trkpt lat="45.19777" lon="5.72865">
        <ele>221.80000305176</ele>
        <time>2021-07-18T03:43:14.000Z</time>
      </trkpt>
      <trkpt lat="45.19778" lon="5.72866">
        <ele>222.39999389648</ele>
        <time>2021-07-18T03:43:15.000Z</time>
      </trkpt>
      <trkpt lat="45.19784" lon="5.7287">
        <ele>223</ele>
        <time>2021-07-18T03:43:19.000Z</time>
      </trkpt>
      <trkpt lat="45.19788" lon="5.72872">
        <ele>223.39999389648</ele>
        <time>2021-07-18T03:43:21.000Z</time>
      </trkpt>
      <trkpt lat="45.19791" lon="5.72873">
        <ele>224</ele>
        <time>2021-07-18T03:43:22.000Z</time>
      </trkpt>
      <trkpt lat="45.19796" lon="5.72874">
        <ele>224.60000610352</ele>
        <time>2021-07-18T03:43:25.000Z</time>
      </trkpt>
      <trkpt lat="45.19803" lon="5.72877">
        <ele>225</ele>
        <time>2021-07-18T03:43:28.000Z</time>
      </trkpt>
      <trkpt lat="45.19805" lon="5.72876">
        <ele>225.19999694824</ele>
        <time>2021-07-18T03:43:29.000Z</time>
      </trkpt>
      <trkpt lat="45.19806" lon="5.72876">
        <ele>225.19999694824</ele>
        <time>2021-07-18T03:43:30.000Z</time>
      </trkpt>
      <trkpt lat="45.19805" lon="5.72875">
        <ele>226</ele>
        <time>2021-07-18T03:43:32.000Z</time>
      </trkpt>
      <trkpt lat="45.19804" lon="5.72875">
        <ele>226.19999694824</ele>
        <time>2021-07-18T03:43:33.000Z</time>
      </trkpt>
      <trkpt lat="45.198" lon="5.72876">
        <ele>227.19999694824</ele>
        <time>2021-07-18T03:43:37.000Z</time>
      </trkpt>
      <trkpt lat="45.19792" lon="5.72871">
        <ele>228.39999389648</ele>
        <time>2021-07-18T03:43:42.000Z</time>
      </trkpt>
      <trkpt lat="45.19789" lon="5.72867">
        <ele>229</ele>
        <time>2021-07-18T03:43:45.000Z</time>
      </trkpt>
      <trkpt lat="45.19785" lon="5.72863">
        <ele>229.60000610352</ele>
        <time>2021-07-18T03:43:47.000Z</time>
      </trkpt>
      <trkpt lat="45.19779" lon="5.72855">
        <ele>230.60000610352</ele>
        <time>2021-07-18T03:43:51.000Z</time>
      </trkpt>
      <trkpt lat="45.19778" lon="5.72853">
        <ele>231</ele>
        <time>2021-07-18T03:43:52.000Z</time>
      </trkpt>
      <trkpt lat="45.19774" lon="5.72847">
        <ele>231.80000305176</ele>
        <time>2021-07-18T03:43:55.000Z</time>
      </trkpt>
      <trkpt lat="45.19769" lon="5.72843">
        <ele>232.60000610352</ele>
        <time>2021-07-18T03:43:58.000Z</time>
      </trkpt>
      <trkpt lat="45.19764" lon="5.72838">
        <ele>233.19999694824</ele>
        <time>2021-07-18T03:44:01.000Z</time>
      </trkpt>
      <trkpt lat="45.1976" lon="5.72834">
        <ele>234.19999694824</ele>
        <time>2021-07-18T03:44:04.000Z</time>
      </trkpt>
      <trkpt lat="45.19758" lon="5.72832">
        <ele>234.39999389648</ele>
        <time>2021-07-18T03:44:05.000Z</time>
      </trkpt>
      <trkpt lat="45.19754" lon="5.72827">
        <ele>235</ele>
        <time>2021-07-18T03:44:08.000Z</time>
      </trkpt>
      <trkpt lat="45.19754" lon="5.72824">
        <ele>235</ele>
        <time>2021-07-18T03:44:10.000Z</time>
      </trkpt>
      <trkpt lat="45.19755" lon="5.72823">
        <ele>235.60000610352</ele>
        <time>2021-07-18T03:44:11.000Z</time>
      </trkpt>
      <trkpt lat="45.19756" lon="5.7282">
        <ele>236</ele>
        <time>2021-07-18T03:44:12.000Z</time>
      </trkpt>
      <trkpt lat="45.19759" lon="5.72819">
        <ele>236.39999389648</ele>
        <time>2021-07-18T03:44:14.000Z</time>
      </trkpt>
      <trkpt lat="45.19759" lon="5.72819">
        <ele>236.60000610352</ele>
        <time>2021-07-18T03:44:15.000Z</time>
      </trkpt>
      <trkpt lat="45.19761" lon="5.72819">
        <ele>236.60000610352</ele>
        <time>2021-07-18T03:44:16.000Z</time>
      </trkpt>
      <trkpt lat="45.19765" lon="5.7282">
        <ele>237.80000305176</ele>
        <time>2021-07-18T03:44:19.000Z</time>
      </trkpt>
      <trkpt lat="45.19767" lon="5.72821">
        <ele>238</ele>
        <time>2021-07-18T03:44:20.000Z</time>
      </trkpt>
      <trkpt lat="45.19775" lon="5.72823">
        <ele>239</ele>
        <time>2021-07-18T03:44:24.000Z</time>
      </trkpt>
      <trkpt lat="45.19781" lon="5.72824">
        <ele>239.39999389648</ele>
        <time>2021-07-18T03:44:27.000Z</time>
      </trkpt>
      <trkpt lat="45.19783" lon="5.72826">
        <ele>240</ele>
        <time>2021-07-18T03:44:28.000Z</time>
      </trkpt>
      <trkpt lat="45.1979" lon="5.72831">
        <ele>240.39999389648</ele>
        <time>2021-07-18T03:44:32.000Z</time>
      </trkpt>
      <trkpt lat="45.19794" lon="5.72832">
        <ele>241.19999694824</ele>
        <time>2021-07-18T03:44:34.000Z</time>
      </trkpt>
      <trkpt lat="45.19799" lon="5.72835">
        <ele>241.80000305176</ele>
        <time>2021-07-18T03:44:37.000Z</time>
      </trkpt>
      <trkpt lat="45.19804" lon="5.72837">
        <ele>242.60000610352</ele>
        <time>2021-07-18T03:44:40.000Z</time>
      </trkpt>
      <trkpt lat="45.19807" lon="5.72837">
        <ele>243</ele>
        <time>2021-07-18T03:44:42.000Z</time>
      </trkpt>
      <trkpt lat="45.19812" lon="5.7284">
        <ele>243.60000610352</ele>
        <time>2021-07-18T03:44:45.000Z</time>
      </trkpt>
      <trkpt lat="45.19815" lon="5.7284">
        <ele>244</ele>
        <time>2021-07-18T03:44:48.000Z</time>
      </trkpt>
      <trkpt lat="45.19816" lon="5.7284">
        <ele>244.80000305176</ele>
        <time>2021-07-18T03:44:49.000Z</time>
      </trkpt>
      <trkpt lat="45.19815" lon="5.72838">
        <ele>244.80000305176</ele>
        <time>2021-07-18T03:44:51.000Z</time>
      </trkpt>
      <trkpt lat="45.19813" lon="5.72837">
        <ele>244.80000305176</ele>
        <time>2021-07-18T03:44:52.000Z</time>
      </trkpt>
      <trkpt lat="45.19806" lon="5.72835">
        <ele>246</ele>
        <time>2021-07-18T03:44:57.000Z</time>
      </trkpt>
      <trkpt lat="45.19805" lon="5.72835">
        <ele>246</ele>
        <time>2021-07-18T03:44:58.000Z</time>
      </trkpt>
      <trkpt lat="45.19796" lon="5.7283">
        <ele>246.80000305176</ele>
        <time>2021-07-18T03:45:03.000Z</time>
      </trkpt>
      <trkpt lat="45.19795" lon="5.72829">
        <ele>247.39999389648</ele>
        <time>2021-07-18T03:45:04.000Z</time>
      </trkpt>
      <trkpt lat="45.1979" lon="5.72819">
        <ele>248.19999694824</ele>
        <time>2021-07-18T03:45:09.000Z</time>
      </trkpt>
      <trkpt lat="45.19794" lon="5.72819">
        <ele>248.19999694824</ele>
        <time>2021-07-18T03:45:11.000Z</time>
      </trkpt>
      <trkpt lat="45.19797" lon="5.72821">
        <ele>248.39999389648</ele>
        <time>2021-07-18T03:45:13.000Z</time>
      </trkpt>
      <trkpt lat="45.19799" lon="5.72821">
        <ele>248.39999389648</ele>
        <time>2021-07-18T03:45:14.000Z</time>
      </trkpt>
      <trkpt lat="45.19806" lon="5.72825">
        <ele>249.39999389648</ele>
        <time>2021-07-18T03:45:17.000Z</time>
      </trkpt>
      <trkpt lat="45.19809" lon="5.72827">
        <ele>249.80000305176</ele>
        <time>2021-07-18T03:45:19.000Z</time>
      </trkpt>
      <trkpt lat="45.19813" lon="5.72829">
        <ele>250.39999389648</ele>
        <time>2021-07-18T03:45:22.000Z</time>
      </trkpt>
      <trkpt lat="45.19822" lon="5.72835">
        <ele>252</ele>
        <time>2021-07-18T03:45:28.000Z</time>
      </trkpt>
      <trkpt lat="45.19831" lon="5.72838">
        <ele>253</ele>
        <time>2021-07-18T03:45:34.000Z</time>
      </trkpt>
      <trkpt lat="45.19831" lon="5.72837">
        <ele>253</ele>
        <time>2021-07-18T03:45:35.000Z</time>
      </trkpt>
      <trkpt lat="45.1983" lon="5.72836">
        <ele>253.19999694824</ele>
        <time>2021-07-18T03:45:36.000Z</time>
      </trkpt>
      <trkpt lat="45.19829" lon="5.72835">
        <ele>253.39999389648</ele>
        <time>2021-07-18T03:45:38.000Z</time>
      </trkpt>
      <trkpt lat="45.19828" lon="5.72834">
        <ele>253.80000305176</ele>
        <time>2021-07-18T03:45:39.000Z</time>
      </trkpt>
      <trkpt lat="45.19825" lon="5.72833">
        <ele>254.19999694824</ele>
        <time>2021-07-18T03:45:41.000Z</time>
      </trkpt>
      <trkpt lat="45.19819" lon="5.72828">
        <ele>255</ele>
        <time>2021-07-18T03:45:45.000Z</time>
      </trkpt>
      <trkpt lat="45.19818" lon="5.72826">
        <ele>255.80000305176</ele>
        <time>2021-07-18T03:45:46.000Z</time>
      </trkpt>
      <trkpt lat="45.19818" lon="5.72823">
        <ele>255.80000305176</ele>
        <time>2021-07-18T03:45:48.000Z</time>
      </trkpt>
      <trkpt lat="45.19819" lon="5.72823">
        <ele>256.39999389648</ele>
        <time>2021-07-18T03:45:50.000Z</time>
      </trkpt>
      <trkpt lat="45.1982" lon="5.72824">
        <ele>256.79998779297</ele>
        <time>2021-07-18T03:45:51.000Z</time>
      </trkpt>
      <trkpt lat="45.19827" lon="5.72823">
        <ele>257</ele>
        <time>2021-07-18T03:45:54.000Z</time>
      </trkpt>
      <trkpt lat="45.19828" lon="5.72823">
        <ele>257.60000610352</ele>
        <time>2021-07-18T03:45:55.000Z</time>
      </trkpt>
      <trkpt lat="45.19832" lon="5.72824">
        <ele>257.79998779297</ele>
        <time>2021-07-18T03:45:57.000Z</time>
      </trkpt>
      <trkpt lat="45.1984" lon="5.72828">
        <ele>258.39999389648</ele>
        <time>2021-07-18T03:46:01.000Z</time>
      </trkpt>
      <trkpt lat="45.19844" lon="5.72829">
        <ele>259.20001220703</ele>
        <time>2021-07-18T03:46:03.000Z</time>
      </trkpt>
      <trkpt lat="45.19848" lon="5.72828">
        <ele>259.39999389648</ele>
        <time>2021-07-18T03:46:05.000Z</time>
      </trkpt>
      <trkpt lat="45.19848" lon="5.72827">
        <ele>259.79998779297</ele>
        <time>2021-07-18T03:46:06.000Z</time>
      </trkpt>
      <trkpt lat="45.19845" lon="5.72824">
        <ele>260.20001220703</ele>
        <time>2021-07-18T03:46:09.000Z</time>
      </trkpt>
      <trkpt lat="45.19843" lon="5.72822">
        <ele>260.20001220703</ele>
        <time>2021-07-18T03:46:10.000Z</time>
      </trkpt>
      <trkpt lat="45.19839" lon="5.7282">
        <ele>261.20001220703</ele>
        <time>2021-07-18T03:46:12.000Z</time>
      </trkpt>
      <trkpt lat="45.19837" lon="5.72819">
        <ele>261.39999389648</ele>
        <time>2021-07-18T03:46:13.000Z</time>
      </trkpt>
      <trkpt lat="45.19829" lon="5.72812">
        <ele>262.39999389648</ele>
        <time>2021-07-18T03:46:19.000Z</time>
      </trkpt>
      <trkpt lat="45.19826" lon="5.7281">
        <ele>262.79998779297</ele>
        <time>2021-07-18T03:46:21.000Z</time>
      </trkpt>
      <trkpt lat="45.19825" lon="5.72809">
        <ele>263.39999389648</ele>
        <time>2021-07-18T03:46:22.000Z</time>
      </trkpt>
      <trkpt lat="45.19819" lon="5.72804">
        <ele>264.39999389648</ele>
        <time>2021-07-18T03:46:26.000Z</time>
      </trkpt>
      <trkpt lat="45.19815" lon="5.72803">
        <ele>264.60000610352</ele>
        <time>2021-07-18T03:46:28.000Z</time>
      </trkpt>
      <trkpt lat="45.19808" lon="5.728">
        <ele>265.60000610352</ele>
        <time>2021-07-18T03:46:33.000Z</time>
      </trkpt>
      <trkpt lat="45.19805" lon="5.72797">
        <ele>266.20001220703</ele>
        <time>2021-07-18T03:46:35.000Z</time>
      </trkpt>
      <trkpt lat="45.198" lon="5.72793">
        <ele>266.60000610352</ele>
        <time>2021-07-18T03:46:38.000Z</time>
      </trkpt>
      <trkpt lat="45.198" lon="5.72789">
        <ele>267</ele>
        <time>2021-07-18T03:46:40.000Z</time>
      </trkpt>
      <trkpt lat="45.19802" lon="5.72787">
        <ele>267</ele>
        <time>2021-07-18T03:46:42.000Z</time>
      </trkpt>
      <trkpt lat="45.19805" lon="5.72787">
        <ele>267.60000610352</ele>
        <time>2021-07-18T03:46:44.000Z</time>
      </trkpt>
      <trkpt lat="45.19807" lon="5.72789">
        <ele>267.79998779297</ele>
        <time>2021-07-18T03:46:45.000Z</time>
      </trkpt>
      <trkpt lat="45.19817" lon="5.72788">
        <ele>269</ele>
        <time>2021-07-18T03:46:49.000Z</time>
      </trkpt>
      <trkpt lat="45.19823" lon="5.7279">
        <ele>269.60000610352</ele>
        <time>2021-07-18T03:46:52.000Z</time>
      </trkpt>
      <trkpt lat="45.19828" lon="5.7279">
        <ele>270.20001220703</ele>
        <time>2021-07-18T03:46:55.000Z</time>
      </trkpt>
      <trkpt lat="45.19835" lon="5.72792">
        <ele>271.39999389648</ele>
        <time>2021-07-18T03:46:58.000Z</time>
      </trkpt>
      <trkpt lat="45.19838" lon="5.72793">
        <ele>271.39999389648</ele>
        <time>2021-07-18T03:46:59.000Z</time>
      </trkpt>
      <trkpt lat="45.19846" lon="5.72795">
        <ele>272.39999389648</ele>
        <time>2021-07-18T03:47:04.000Z</time>
      </trkpt>
      <trkpt lat="45.19849" lon="5.72794">
        <ele>272.79998779297</ele>
        <time>2021-07-18T03:47:06.000Z</time>
      </trkpt>
      <trkpt lat="45.19845" lon="5.72792">
        <ele>273.20001220703</ele>
        <time>2021-07-18T03:47:09.000Z</time>
      </trkpt>
      <trkpt lat="45.19843" lon="5.72792">
        <ele>274</ele>
        <time>2021-07-18T03:47:10.000Z</time>
      </trkpt>
      <trkpt lat="45.1984" lon="5.72791">
        <ele>274.20001220703</ele>
        <time>2021-07-18T03:47:12.000Z</time>
      </trkpt>
      <trkpt lat="45.19834" lon="5.72786">
        <ele>275</ele>
        <time>2021-07-18T03:47:16.000Z</time>
      </trkpt>
      <trkpt lat="45.19833" lon="5.72785">
        <ele>275.60000610352</ele>
        <time>2021-07-18T03:47:17.000Z</time>
      </trkpt>
      <trkpt lat="45.19823" lon="5.72779">
        <ele>276.60000610352</ele>
        <time>2021-07-18T03:47:23.000Z</time>
      </trkpt>
      <trkpt lat="45.19817" lon="5.72772">
        <ele>277.60000610352</ele>
        <time>2021-07-18T03:47:27.000Z</time>
      </trkpt>
      <trkpt lat="45.19816" lon="5.7277">
        <ele>278</ele>
        <time>2021-07-18T03:47:28.000Z</time>
      </trkpt>
      <trkpt lat="45.19814" lon="5.72767">
        <ele>278</ele>
        <time>2021-07-18T03:47:29.000Z</time>
      </trkpt>
      <trkpt lat="45.19812" lon="5.72764">
        <ele>279</ele>
        <time>2021-07-18T03:47:31.000Z</time>
      </trkpt>
      <trkpt lat="45.19809" lon="5.72758">
        <ele>279.20001220703</ele>
        <time>2021-07-18T03:47:34.000Z</time>
      </trkpt>
      <trkpt lat="45.19803" lon="5.72752">
        <ele>280.39999389648</ele>
        <time>2021-07-18T03:47:38.000Z</time>
      </trkpt>
      <trkpt lat="45.19797" lon="5.72748">
        <ele>281</ele>
        <time>2021-07-18T03:47:42.000Z</time>
      </trkpt>
      <trkpt lat="45.19794" lon="5.72745">
        <ele>281.39999389648</ele>
        <time>2021-07-18T03:47:44.000Z</time>
      </trkpt>
      <trkpt lat="45.19791" lon="5.72742">
        <ele>281.79998779297</ele>
        <time>2021-07-18T03:47:46.000Z</time>
      </trkpt>
      <trkpt lat="45.19791" lon="5.72739">
        <ele>282.20001220703</ele>
        <time>2021-07-18T03:47:48.000Z</time>
      </trkpt>
      <trkpt lat="45.19792" lon="5.72738">
        <ele>282.60000610352</ele>
        <time>2021-07-18T03:47:49.000Z</time>
      </trkpt>
      <trkpt lat="45.19797" lon="5.72736">
        <ele>283.20001220703</ele>
        <time>2021-07-18T03:47:52.000Z</time>
      </trkpt>
      <trkpt lat="45.19801" lon="5.72736">
        <ele>284</ele>
        <time>2021-07-18T03:47:55.000Z</time>
      </trkpt>
      <trkpt lat="45.19803" lon="5.72738">
        <ele>284.39999389648</ele>
        <time>2021-07-18T03:47:57.000Z</time>
      </trkpt>
      <trkpt lat="45.19807" lon="5.72743">
        <ele>285</ele>
        <time>2021-07-18T03:48:00.000Z</time>
      </trkpt>
      <trkpt lat="45.19817" lon="5.72752">
        <ele>286</ele>
        <time>2021-07-18T03:48:07.000Z</time>
      </trkpt>
      <trkpt lat="45.1982" lon="5.72753">
        <ele>286.39999389648</ele>
        <time>2021-07-18T03:48:08.000Z</time>
      </trkpt>
      <trkpt lat="45.19828" lon="5.72759">
        <ele>287</ele>
        <time>2021-07-18T03:48:13.000Z</time>
      </trkpt>
      <trkpt lat="45.19834" lon="5.72764">
        <ele>287.39999389648</ele>
        <time>2021-07-18T03:48:16.000Z</time>
      </trkpt>
      <trkpt lat="45.19843" lon="5.72771">
        <ele>288.39999389648</ele>
        <time>2021-07-18T03:48:21.000Z</time>
      </trkpt>
      <trkpt lat="45.19845" lon="5.72772">
        <ele>289</ele>
        <time>2021-07-18T03:48:22.000Z</time>
      </trkpt>
      <trkpt lat="45.1985" lon="5.72776">
        <ele>289.39999389648</ele>
        <time>2021-07-18T03:48:27.000Z</time>
      </trkpt>
      <trkpt lat="45.19848" lon="5.72774">
        <ele>290.39999389648</ele>
        <time>2021-07-18T03:48:29.000Z</time>
      </trkpt>
      <trkpt lat="45.19847" lon="5.72771">
        <ele>290.39999389648</ele>
        <time>2021-07-18T03:48:31.000Z</time>
      </trkpt>
      <trkpt lat="45.19846" lon="5.72768">
        <ele>290.60000610352</ele>
        <time>2021-07-18T03:48:32.000Z</time>
      </trkpt>
      <trkpt lat="45.19846" lon="5.72767">
        <ele>290.60000610352</ele>
        <time>2021-07-18T03:48:33.000Z</time>
      </trkpt>
      <trkpt lat="45.19849" lon="5.72765">
        <ele>291</ele>
        <time>2021-07-18T03:48:35.000Z</time>
      </trkpt>
      <trkpt lat="45.1985" lon="5.72765">
        <ele>291.39999389648</ele>
        <time>2021-07-18T03:48:36.000Z</time>
      </trkpt>
      <trkpt lat="45.19852" lon="5.72766">
        <ele>292.39999389648</ele>
        <time>2021-07-18T03:48:39.000Z</time>
      </trkpt>
      <trkpt lat="45.19853" lon="5.72765">
        <ele>292.79998779297</ele>
        <time>2021-07-18T03:48:40.000Z</time>
      </trkpt>
      <trkpt lat="45.19853" lon="5.72765">
        <ele>293.60000610352</ele>
        <time>2021-07-18T03:48:41.000Z</time>
      </trkpt>
      <trkpt lat="45.19854" lon="5.72766">
        <ele>293.60000610352</ele>
        <time>2021-07-18T03:48:42.000Z</time>
      </trkpt>
      <trkpt lat="45.19854" lon="5.72767">
        <ele>294</ele>
        <time>2021-07-18T03:48:43.000Z</time>
      </trkpt>
      <trkpt lat="45.19857" lon="5.72769">
        <ele>295.20001220703</ele>
        <time>2021-07-18T03:48:47.000Z</time>
      </trkpt>
      <trkpt lat="45.19855" lon="5.72766">
        <ele>296.39999389648</ele>
        <time>2021-07-18T03:48:51.000Z</time>
      </trkpt>
      <trkpt lat="45.19855" lon="5.72765">
        <ele>296.39999389648</ele>
        <time>2021-07-18T03:48:52.000Z</time>
      </trkpt>
      <trkpt lat="45.19855" lon="5.72763">
        <ele>296.39999389648</ele>
        <time>2021-07-18T03:48:53.000Z</time>
      </trkpt>
      <trkpt lat="45.19865" lon="5.72769">
        <ele>310.39999389648</ele>
        <time>2021-07-18T03:49:36.000Z</time>
      </trkpt>
      <trkpt lat="45.19861" lon="5.72766">
        <ele>311</ele>
        <time>2021-07-18T03:49:38.000Z</time>
      </trkpt>
      <trkpt lat="45.19858" lon="5.72763">
        <ele>311.60000610352</ele>
        <time>2021-07-18T03:49:40.000Z</time>
      </trkpt>
      <trkpt lat="45.19855" lon="5.72762">
        <ele>312.60000610352</ele>
        <time>2021-07-18T03:49:42.000Z</time>
      </trkpt>
      <trkpt lat="45.19855" lon="5.72761">
        <ele>312.79998779297</ele>
        <time>2021-07-18T03:49:43.000Z</time>
      </trkpt>
      <trkpt lat="45.19857" lon="5.72759">
        <ele>312.79998779297</ele>
        <time>2021-07-18T03:49:45.000Z</time>
      </trkpt>
      <trkpt lat="45.19857" lon="5.72757">
        <ele>313.60000610352</ele>
        <time>2021-07-18T03:49:46.000Z</time>
      </trkpt>
      <trkpt lat="45.19857" lon="5.72753">
        <ele>313.60000610352</ele>
        <time>2021-07-18T03:49:48.000Z</time>
      </trkpt>
      <trkpt lat="45.19857" lon="5.7275">
        <ele>313.60000610352</ele>
        <time>2021-07-18T03:49:49.000Z</time>
      </trkpt>
      <trkpt lat="45.19855" lon="5.72743">
        <ele>314</ele>
        <time>2021-07-18T03:49:52.000Z</time>
      </trkpt>
      <trkpt lat="45.19854" lon="5.72741">
        <ele>314.20001220703</ele>
        <time>2021-07-18T03:49:54.000Z</time>
      </trkpt>
      <trkpt lat="45.19854" lon="5.72741">
        <ele>314.79998779297</ele>
        <time>2021-07-18T03:49:58.000Z</time>
      </trkpt>
      <trkpt lat="45.19856" lon="5.72741">
        <ele>315.39999389648</ele>
        <time>2021-07-18T03:49:59.000Z</time>
      </trkpt>
      <trkpt lat="45.19856" lon="5.72743">
        <ele>315.39999389648</ele>
        <time>2021-07-18T03:50:00.000Z</time>
      </trkpt>
      <trkpt lat="45.19836" lon="5.72744">
        <ele>318.39999389648</ele>
        <time>2021-07-18T03:50:14.000Z</time>
      </trkpt>
      <trkpt lat="45.19829" lon="5.72732">
        <ele>318</ele>
        <time>2021-07-18T03:50:20.000Z</time>
      </trkpt>
      <trkpt lat="45.19829" lon="5.72727">
        <ele>318</ele>
        <time>2021-07-18T03:50:22.000Z</time>
      </trkpt>
      <trkpt lat="45.19825" lon="5.72725">
        <ele>318</ele>
        <time>2021-07-18T03:50:24.000Z</time>
      </trkpt>
      <trkpt lat="45.19808" lon="5.7271">
        <ele>317.39999389648</ele>
        <time>2021-07-18T03:50:33.000Z</time>
      </trkpt>
      <trkpt lat="45.19803" lon="5.72706">
        <ele>317.39999389648</ele>
        <time>2021-07-18T03:50:36.000Z</time>
      </trkpt>
      <trkpt lat="45.19796" lon="5.727">
        <ele>317.39999389648</ele>
        <time>2021-07-18T03:50:40.000Z</time>
      </trkpt>
      <trkpt lat="45.19791" lon="5.72695">
        <ele>317.39999389648</ele>
        <time>2021-07-18T03:50:43.000Z</time>
      </trkpt>
      <trkpt lat="45.19789" lon="5.72694">
        <ele>317.20001220703</ele>
        <time>2021-07-18T03:50:44.000Z</time>
      </trkpt>
      <trkpt lat="45.1978" lon="5.72687">
        <ele>317.20001220703</ele>
        <time>2021-07-18T03:50:48.000Z</time>
      </trkpt>
      <trkpt lat="45.1977" lon="5.72674">
        <ele>317.39999389648</ele>
        <time>2021-07-18T03:50:53.000Z</time>
      </trkpt>
      <trkpt lat="45.19764" lon="5.72667">
        <ele>317.20001220703</ele>
        <time>2021-07-18T03:50:56.000Z</time>
      </trkpt>
      <trkpt lat="45.19757" lon="5.72657">
        <ele>317</ele>
        <time>2021-07-18T03:51:00.000Z</time>
      </trkpt>
      <trkpt lat="45.19752" lon="5.72649">
        <ele>317.20001220703</ele>
        <time>2021-07-18T03:51:03.000Z</time>
      </trkpt>
      <trkpt lat="45.19748" lon="5.7264">
        <ele>317.20001220703</ele>
        <time>2021-07-18T03:51:06.000Z</time>
      </trkpt>
      <trkpt lat="45.19744" lon="5.72638">
        <ele>317.39999389648</ele>
        <time>2021-07-18T03:51:09.000Z</time>
      </trkpt>
      <trkpt lat="45.19742" lon="5.72639">
        <ele>317.39999389648</ele>
        <time>2021-07-18T03:51:10.000Z</time>
      </trkpt>
      <trkpt lat="45.19739" lon="5.72639">
        <ele>317.39999389648</ele>
        <time>2021-07-18T03:51:12.000Z</time>
      </trkpt>
      <trkpt lat="45.19737" lon="5.72634">
        <ele>317.39999389648</ele>
        <time>2021-07-18T03:51:14.000Z</time>
      </trkpt>
      <trkpt lat="45.19738" lon="5.72631">
        <ele>317.39999389648</ele>
        <time>2021-07-18T03:51:15.000Z</time>
      </trkpt>
      <trkpt lat="45.19738" lon="5.72613">
        <ele>317.20001220703</ele>
        <time>2021-07-18T03:51:19.000Z</time>
      </trkpt>
      <trkpt lat="45.19739" lon="5.72584">
        <ele>317</ele>
        <time>2021-07-18T03:51:27.000Z</time>
      </trkpt>
      <trkpt lat="45.19739" lon="5.7258">
        <ele>317</ele>
        <time>2021-07-18T03:51:28.000Z</time>
      </trkpt>
      <trkpt lat="45.19739" lon="5.72554">
        <ele>317</ele>
        <time>2021-07-18T03:51:36.000Z</time>
      </trkpt>
      <trkpt lat="45.19737" lon="5.72538">
        <ele>317</ele>
        <time>2021-07-18T03:51:41.000Z</time>
      </trkpt>
      <trkpt lat="45.19734" lon="5.72537">
        <ele>317.79998779297</ele>
        <time>2021-07-18T03:51:42.000Z</time>
      </trkpt>
      <trkpt lat="45.19728" lon="5.72533">
        <ele>317.79998779297</ele>
        <time>2021-07-18T03:51:45.000Z</time>
      </trkpt>
      <trkpt lat="45.19727" lon="5.72526">
        <ele>317</ele>
        <time>2021-07-18T03:51:47.000Z</time>
      </trkpt>
      <trkpt lat="45.19728" lon="5.72523">
        <ele>317</ele>
        <time>2021-07-18T03:51:48.000Z</time>
      </trkpt>
      <trkpt lat="45.19733" lon="5.72515">
        <ele>317</ele>
        <time>2021-07-18T03:51:51.000Z</time>
      </trkpt>
      <trkpt lat="45.19735" lon="5.72513">
        <ele>317.20001220703</ele>
        <time>2021-07-18T03:51:52.000Z</time>
      </trkpt>
      <trkpt lat="45.19739" lon="5.72512">
        <ele>317.20001220703</ele>
        <time>2021-07-18T03:51:54.000Z</time>
      </trkpt>
      <trkpt lat="45.1974" lon="5.7251">
        <ele>317.20001220703</ele>
        <time>2021-07-18T03:51:55.000Z</time>
      </trkpt>
      <trkpt lat="45.19754" lon="5.7249">
        <ele>317.39999389648</ele>
        <time>2021-07-18T03:52:02.000Z</time>
      </trkpt>
      <trkpt lat="45.19758" lon="5.72485">
        <ele>317</ele>
        <time>2021-07-18T03:52:04.000Z</time>
      </trkpt>
      <trkpt lat="45.19768" lon="5.72463">
        <ele>317</ele>
        <time>2021-07-18T03:52:11.000Z</time>
      </trkpt>
      <trkpt lat="45.1977" lon="5.72459">
        <ele>317</ele>
        <time>2021-07-18T03:52:12.000Z</time>
      </trkpt>
      <trkpt lat="45.19778" lon="5.7244">
        <ele>317.20001220703</ele>
        <time>2021-07-18T03:52:19.000Z</time>
      </trkpt>
      <trkpt lat="45.19784" lon="5.72438">
        <ele>317.39999389648</ele>
        <time>2021-07-18T03:52:22.000Z</time>
      </trkpt>
      <trkpt lat="45.19791" lon="5.72446">
        <ele>317.39999389648</ele>
        <time>2021-07-18T03:52:25.000Z</time>
      </trkpt>
      <trkpt lat="45.1979" lon="5.7245">
        <ele>317.79998779297</ele>
        <time>2021-07-18T03:52:26.000Z</time>
      </trkpt>
      <trkpt lat="45.19792" lon="5.72465">
        <ele>318.20001220703</ele>
        <time>2021-07-18T03:52:31.000Z</time>
      </trkpt>
      <trkpt lat="45.19791" lon="5.72469">
        <ele>318.39999389648</ele>
        <time>2021-07-18T03:52:32.000Z</time>
      </trkpt>
      <trkpt lat="45.19789" lon="5.72488">
        <ele>319.20001220703</ele>
        <time>2021-07-18T03:52:38.000Z</time>
      </trkpt>
      <trkpt lat="45.19787" lon="5.72497">
        <ele>319.20001220703</ele>
        <time>2021-07-18T03:52:41.000Z</time>
      </trkpt>
      <trkpt lat="45.19784" lon="5.72505">
        <ele>319.60000610352</ele>
        <time>2021-07-18T03:52:43.000Z</time>
      </trkpt>
      <trkpt lat="45.19781" lon="5.72517">
        <ele>320</ele>
        <time>2021-07-18T03:52:47.000Z</time>
      </trkpt>
      <trkpt lat="45.1978" lon="5.72519">
        <ele>320.20001220703</ele>
        <time>2021-07-18T03:52:48.000Z</time>
      </trkpt>
      <trkpt lat="45.1978" lon="5.72521">
        <ele>320.60000610352</ele>
        <time>2021-07-18T03:52:49.000Z</time>
      </trkpt>
      <trkpt lat="45.1978" lon="5.72528">
        <ele>321.20001220703</ele>
        <time>2021-07-18T03:52:52.000Z</time>
      </trkpt>
      <trkpt lat="45.1978" lon="5.72534">
        <ele>321.20001220703</ele>
        <time>2021-07-18T03:52:54.000Z</time>
      </trkpt>
      <trkpt lat="45.19781" lon="5.72538">
        <ele>321.39999389648</ele>
        <time>2021-07-18T03:52:55.000Z</time>
      </trkpt>
      <trkpt lat="45.19776" lon="5.72547">
        <ele>321.79998779297</ele>
        <time>2021-07-18T03:52:58.000Z</time>
      </trkpt>
      <trkpt lat="45.19774" lon="5.72548">
        <ele>321.79998779297</ele>
        <time>2021-07-18T03:52:59.000Z</time>
      </trkpt>
      <trkpt lat="45.19774" lon="5.7255">
        <ele>322.39999389648</ele>
        <time>2021-07-18T03:53:00.000Z</time>
      </trkpt>
      <trkpt lat="45.19775" lon="5.72554">
        <ele>323</ele>
        <time>2021-07-18T03:53:02.000Z</time>
      </trkpt>
      <trkpt lat="45.19777" lon="5.72558">
        <ele>323.60000610352</ele>
        <time>2021-07-18T03:53:04.000Z</time>
      </trkpt>
      <trkpt lat="45.19778" lon="5.72561">
        <ele>323.60000610352</ele>
        <time>2021-07-18T03:53:05.000Z</time>
      </trkpt>
      <trkpt lat="45.19781" lon="5.72571">
        <ele>324.60000610352</ele>
        <time>2021-07-18T03:53:09.000Z</time>
      </trkpt>
      <trkpt lat="45.19779" lon="5.72581">
        <ele>325.20001220703</ele>
        <time>2021-07-18T03:53:14.000Z</time>
      </trkpt>
      <trkpt lat="45.19778" lon="5.72581">
        <ele>325.79998779297</ele>
        <time>2021-07-18T03:53:15.000Z</time>
      </trkpt>
      <trkpt lat="45.19777" lon="5.72576">
        <ele>326.39999389648</ele>
        <time>2021-07-18T03:53:19.000Z</time>
      </trkpt>
      <trkpt lat="45.19776" lon="5.72567">
        <ele>327.39999389648</ele>
        <time>2021-07-18T03:53:22.000Z</time>
      </trkpt>
      <trkpt lat="45.19774" lon="5.72551">
        <ele>327.60000610352</ele>
        <time>2021-07-18T03:53:27.000Z</time>
      </trkpt>
      <trkpt lat="45.19775" lon="5.72542">
        <ele>328.39999389648</ele>
        <time>2021-07-18T03:53:31.000Z</time>
      </trkpt>
      <trkpt lat="45.19777" lon="5.72535">
        <ele>329.39999389648</ele>
        <time>2021-07-18T03:53:34.000Z</time>
      </trkpt>
      <trkpt lat="45.1978" lon="5.72527">
        <ele>330.20001220703</ele>
        <time>2021-07-18T03:53:37.000Z</time>
      </trkpt>
      <trkpt lat="45.19783" lon="5.72527">
        <ele>330.39999389648</ele>
        <time>2021-07-18T03:53:39.000Z</time>
      </trkpt>
      <trkpt lat="45.19784" lon="5.72528">
        <ele>331.39999389648</ele>
        <time>2021-07-18T03:53:40.000Z</time>
      </trkpt>
      <trkpt lat="45.19793" lon="5.72547">
        <ele>332</ele>
        <time>2021-07-18T03:53:46.000Z</time>
      </trkpt>
      <trkpt lat="45.19794" lon="5.72556">
        <ele>332.79998779297</ele>
        <time>2021-07-18T03:53:49.000Z</time>
      </trkpt>
      <trkpt lat="45.19794" lon="5.72564">
        <ele>333.39999389648</ele>
        <time>2021-07-18T03:53:52.000Z</time>
      </trkpt>
      <trkpt lat="45.19797" lon="5.72577">
        <ele>334.20001220703</ele>
        <time>2021-07-18T03:53:57.000Z</time>
      </trkpt>
      <trkpt lat="45.19797" lon="5.7258">
        <ele>334.39999389648</ele>
        <time>2021-07-18T03:53:58.000Z</time>
      </trkpt>
      <trkpt lat="45.198" lon="5.72592">
        <ele>335.39999389648</ele>
        <time>2021-07-18T03:54:03.000Z</time>
      </trkpt>
      <trkpt lat="45.19799" lon="5.72597">
        <ele>335.60000610352</ele>
        <time>2021-07-18T03:54:05.000Z</time>
      </trkpt>
      <trkpt lat="45.19798" lon="5.72608">
        <ele>336.60000610352</ele>
        <time>2021-07-18T03:54:09.000Z</time>
      </trkpt>
      <trkpt lat="45.19799" lon="5.72613">
        <ele>337</ele>
        <time>2021-07-18T03:54:12.000Z</time>
      </trkpt>
      <trkpt lat="45.198" lon="5.72615">
        <ele>337</ele>
        <time>2021-07-18T03:54:13.000Z</time>
      </trkpt>
      <trkpt lat="45.19802" lon="5.72625">
        <ele>338</ele>
        <time>2021-07-18T03:54:18.000Z</time>
      </trkpt>
      <trkpt lat="45.19803" lon="5.72629">
        <ele>338.20001220703</ele>
        <time>2021-07-18T03:54:20.000Z</time>
      </trkpt>
      <trkpt lat="45.19807" lon="5.72633">
        <ele>338.60000610352</ele>
        <time>2021-07-18T03:54:23.000Z</time>
      </trkpt>
      <trkpt lat="45.19807" lon="5.72634">
        <ele>338.79998779297</ele>
        <time>2021-07-18T03:54:24.000Z</time>
      </trkpt>
      <trkpt lat="45.19809" lon="5.72637">
        <ele>339.39999389648</ele>
        <time>2021-07-18T03:54:26.000Z</time>
      </trkpt>
      <trkpt lat="45.19811" lon="5.72638">
        <ele>339.39999389648</ele>
        <time>2021-07-18T03:54:27.000Z</time>
      </trkpt>
      <trkpt lat="45.1982" lon="5.72644">
        <ele>340.20001220703</ele>
        <time>2021-07-18T03:54:32.000Z</time>
      </trkpt>
      <trkpt lat="45.19822" lon="5.72646">
        <ele>340.79998779297</ele>
        <time>2021-07-18T03:54:33.000Z</time>
      </trkpt>
      <trkpt lat="45.19832" lon="5.72657">
        <ele>341.79998779297</ele>
        <time>2021-07-18T03:54:39.000Z</time>
      </trkpt>
      <trkpt lat="45.19833" lon="5.72659">
        <ele>342.20001220703</ele>
        <time>2021-07-18T03:54:40.000Z</time>
      </trkpt>
      <trkpt lat="45.19842" lon="5.72668">
        <ele>343.39999389648</ele>
        <time>2021-07-18T03:54:46.000Z</time>
      </trkpt>
      <trkpt lat="45.19844" lon="5.72671">
        <ele>343.39999389648</ele>
        <time>2021-07-18T03:54:48.000Z</time>
      </trkpt>
      <trkpt lat="45.19852" lon="5.72677">
        <ele>344.60000610352</ele>
        <time>2021-07-18T03:54:54.000Z</time>
      </trkpt>
      <trkpt lat="45.19853" lon="5.72678">
        <ele>344.60000610352</ele>
        <time>2021-07-18T03:54:55.000Z</time>
      </trkpt>
      <trkpt lat="45.19855" lon="5.72679">
        <ele>345.20001220703</ele>
        <time>2021-07-18T03:54:57.000Z</time>
      </trkpt>
      <trkpt lat="45.19855" lon="5.72682">
        <ele>345.39999389648</ele>
        <time>2021-07-18T03:54:59.000Z</time>
      </trkpt>
      <trkpt lat="45.19854" lon="5.7268">
        <ele>346</ele>
        <time>2021-07-18T03:55:01.000Z</time>
      </trkpt>
      <trkpt lat="45.19847" lon="5.72675">
        <ele>346.79998779297</ele>
        <time>2021-07-18T03:55:06.000Z</time>
      </trkpt>
      <trkpt lat="45.19845" lon="5.72671">
        <ele>347.39999389648</ele>
        <time>2021-07-18T03:55:08.000Z</time>
      </trkpt>
      <trkpt lat="45.19839" lon="5.72663">
        <ele>348.60000610352</ele>
        <time>2021-07-18T03:55:12.000Z</time>
      </trkpt>
      <trkpt lat="45.19837" lon="5.72661">
        <ele>348.39999389648</ele>
        <time>2021-07-18T03:55:13.000Z</time>
      </trkpt>
      <trkpt lat="45.19834" lon="5.72654">
        <ele>348.60000610352</ele>
        <time>2021-07-18T03:55:16.000Z</time>
      </trkpt>
      <trkpt lat="45.19828" lon="5.72642">
        <ele>349.79998779297</ele>
        <time>2021-07-18T03:55:22.000Z</time>
      </trkpt>
      <trkpt lat="45.19821" lon="5.72626">
        <ele>350.60000610352</ele>
        <time>2021-07-18T03:55:28.000Z</time>
      </trkpt>
      <trkpt lat="45.19819" lon="5.72619">
        <ele>351.39999389648</ele>
        <time>2021-07-18T03:55:30.000Z</time>
      </trkpt>
      <trkpt lat="45.19818" lon="5.72608">
        <ele>352</ele>
        <time>2021-07-18T03:55:34.000Z</time>
      </trkpt>
      <trkpt lat="45.19819" lon="5.72598">
        <ele>352.39999389648</ele>
        <time>2021-07-18T03:55:37.000Z</time>
      </trkpt>
      <trkpt lat="45.1982" lon="5.72589">
        <ele>352.79998779297</ele>
        <time>2021-07-18T03:55:40.000Z</time>
      </trkpt>
      <trkpt lat="45.1982" lon="5.72586">
        <ele>353</ele>
        <time>2021-07-18T03:55:41.000Z</time>
      </trkpt>
      <trkpt lat="45.19819" lon="5.72581">
        <ele>353.60000610352</ele>
        <time>2021-07-18T03:55:43.000Z</time>
      </trkpt>
      <trkpt lat="45.19817" lon="5.72564">
        <ele>354.79998779297</ele>
        <time>2021-07-18T03:55:49.000Z</time>
      </trkpt>
      <trkpt lat="45.19817" lon="5.72544">
        <ele>355.79998779297</ele>
        <time>2021-07-18T03:55:56.000Z</time>
      </trkpt>
      <trkpt lat="45.19817" lon="5.72537">
        <ele>356.20001220703</ele>
        <time>2021-07-18T03:55:58.000Z</time>
      </trkpt>
      <trkpt lat="45.19818" lon="5.7253">
        <ele>356.79998779297</ele>
        <time>2021-07-18T03:56:00.000Z</time>
      </trkpt>
      <trkpt lat="45.19821" lon="5.72515">
        <ele>358</ele>
        <time>2021-07-18T03:56:05.000Z</time>
      </trkpt>
      <trkpt lat="45.19825" lon="5.725">
        <ele>359.20001220703</ele>
        <time>2021-07-18T03:56:10.000Z</time>
      </trkpt>
      <trkpt lat="45.19826" lon="5.72493">
        <ele>360</ele>
        <time>2021-07-18T03:56:13.000Z</time>
      </trkpt>
      <trkpt lat="45.19827" lon="5.72491">
        <ele>360.39999389648</ele>
        <time>2021-07-18T03:56:14.000Z</time>
      </trkpt>
      <trkpt lat="45.19829" lon="5.72476">
        <ele>361.20001220703</ele>
        <time>2021-07-18T03:56:19.000Z</time>
      </trkpt>
      <trkpt lat="45.19829" lon="5.72473">
        <ele>361.60000610352</ele>
        <time>2021-07-18T03:56:20.000Z</time>
      </trkpt>
      <trkpt lat="45.19831" lon="5.72465">
        <ele>362.60000610352</ele>
        <time>2021-07-18T03:56:23.000Z</time>
      </trkpt>
      <trkpt lat="45.19832" lon="5.72459">
        <ele>362.60000610352</ele>
        <time>2021-07-18T03:56:25.000Z</time>
      </trkpt>
      <trkpt lat="45.19833" lon="5.72456">
        <ele>362.60000610352</ele>
        <time>2021-07-18T03:56:26.000Z</time>
      </trkpt>
      <trkpt lat="45.19837" lon="5.72445">
        <ele>364</ele>
        <time>2021-07-18T03:56:30.000Z</time>
      </trkpt>
      <trkpt lat="45.1984" lon="5.72443">
        <ele>364</ele>
        <time>2021-07-18T03:56:32.000Z</time>
      </trkpt>
      <trkpt lat="45.19842" lon="5.72442">
        <ele>364.20001220703</ele>
        <time>2021-07-18T03:56:33.000Z</time>
      </trkpt>
      <trkpt lat="45.19843" lon="5.72443">
        <ele>364.60000610352</ele>
        <time>2021-07-18T03:56:34.000Z</time>
      </trkpt>
      <trkpt lat="45.19844" lon="5.72448">
        <ele>364.79998779297</ele>
        <time>2021-07-18T03:56:36.000Z</time>
      </trkpt>
      <trkpt lat="45.19845" lon="5.7245">
        <ele>365.20001220703</ele>
        <time>2021-07-18T03:56:37.000Z</time>
      </trkpt>
      <trkpt lat="45.19848" lon="5.72458">
        <ele>365.60000610352</ele>
        <time>2021-07-18T03:56:40.000Z</time>
      </trkpt>
      <trkpt lat="45.19847" lon="5.7246">
        <ele>366</ele>
        <time>2021-07-18T03:56:41.000Z</time>
      </trkpt>
      <trkpt lat="45.19847" lon="5.72462">
        <ele>366.39999389648</ele>
        <time>2021-07-18T03:56:42.000Z</time>
      </trkpt>
      <trkpt lat="45.19847" lon="5.72465">
        <ele>366.60000610352</ele>
        <time>2021-07-18T03:56:43.000Z</time>
      </trkpt>
      <trkpt lat="45.19849" lon="5.72475">
        <ele>367.39999389648</ele>
        <time>2021-07-18T03:56:47.000Z</time>
      </trkpt>
      <trkpt lat="45.19849" lon="5.72478">
        <ele>367.39999389648</ele>
        <time>2021-07-18T03:56:48.000Z</time>
      </trkpt>
      <trkpt lat="45.1985" lon="5.72489">
        <ele>368.60000610352</ele>
        <time>2021-07-18T03:56:52.000Z</time>
      </trkpt>
      <trkpt lat="45.19851" lon="5.72495">
        <ele>369</ele>
        <time>2021-07-18T03:56:54.000Z</time>
      </trkpt>
      <trkpt lat="45.19852" lon="5.72504">
        <ele>369.60000610352</ele>
        <time>2021-07-18T03:56:57.000Z</time>
      </trkpt>
      <trkpt lat="45.19852" lon="5.72513">
        <ele>370.20001220703</ele>
        <time>2021-07-18T03:57:00.000Z</time>
      </trkpt>
      <trkpt lat="45.19851" lon="5.72524">
        <ele>370.79998779297</ele>
        <time>2021-07-18T03:57:04.000Z</time>
      </trkpt>
      <trkpt lat="45.19852" lon="5.72527">
        <ele>370.79998779297</ele>
        <time>2021-07-18T03:57:05.000Z</time>
      </trkpt>
      <trkpt lat="45.19853" lon="5.7253">
        <ele>370.79998779297</ele>
        <time>2021-07-18T03:57:06.000Z</time>
      </trkpt>
      <trkpt lat="45.19857" lon="5.72539">
        <ele>372</ele>
        <time>2021-07-18T03:57:09.000Z</time>
      </trkpt>
      <trkpt lat="45.1986" lon="5.72551">
        <ele>372.20001220703</ele>
        <time>2021-07-18T03:57:14.000Z</time>
      </trkpt>
      <trkpt lat="45.1986" lon="5.72551">
        <ele>372.20001220703</ele>
        <time>2021-07-18T03:57:15.000Z</time>
      </trkpt>
      <trkpt lat="45.1986" lon="5.72549">
        <ele>372.79998779297</ele>
        <time>2021-07-18T03:57:16.000Z</time>
      </trkpt>
      <trkpt lat="45.19861" lon="5.72546">
        <ele>373.79998779297</ele>
        <time>2021-07-18T03:57:17.000Z</time>
      </trkpt>
      <trkpt lat="45.19859" lon="5.72536">
        <ele>374.20001220703</ele>
        <time>2021-07-18T03:57:21.000Z</time>
      </trkpt>
      <trkpt lat="45.19858" lon="5.72533">
        <ele>374.39999389648</ele>
        <time>2021-07-18T03:57:22.000Z</time>
      </trkpt>
      <trkpt lat="45.19858" lon="5.72528">
        <ele>374.79998779297</ele>
        <time>2021-07-18T03:57:24.000Z</time>
      </trkpt>
      <trkpt lat="45.19858" lon="5.72525">
        <ele>375.20001220703</ele>
        <time>2021-07-18T03:57:25.000Z</time>
      </trkpt>
      <trkpt lat="45.19857" lon="5.72522">
        <ele>375.39999389648</ele>
        <time>2021-07-18T03:57:26.000Z</time>
      </trkpt>
      <trkpt lat="45.19857" lon="5.72519">
        <ele>375.79998779297</ele>
        <time>2021-07-18T03:57:27.000Z</time>
      </trkpt>
      <trkpt lat="45.19856" lon="5.72516">
        <ele>376</ele>
        <time>2021-07-18T03:57:28.000Z</time>
      </trkpt>
      <trkpt lat="45.19856" lon="5.72499">
        <ele>376.39999389648</ele>
        <time>2021-07-18T03:57:33.000Z</time>
      </trkpt>
      <trkpt lat="45.19858" lon="5.72491">
        <ele>376.60000610352</ele>
        <time>2021-07-18T03:57:35.000Z</time>
      </trkpt>
      <trkpt lat="45.19863" lon="5.72483">
        <ele>377</ele>
        <time>2021-07-18T03:57:39.000Z</time>
      </trkpt>
      <trkpt lat="45.19865" lon="5.72482">
        <ele>377</ele>
        <time>2021-07-18T03:57:40.000Z</time>
      </trkpt>
      <trkpt lat="45.19868" lon="5.72481">
        <ele>377.20001220703</ele>
        <time>2021-07-18T03:57:41.000Z</time>
      </trkpt>
      <trkpt lat="45.19883" lon="5.72478">
        <ele>377.79998779297</ele>
        <time>2021-07-18T03:57:47.000Z</time>
      </trkpt>
      <trkpt lat="45.19895" lon="5.72467">
        <ele>377.60000610352</ele>
        <time>2021-07-18T03:57:51.000Z</time>
      </trkpt>
      <trkpt lat="45.19893" lon="5.72455">
        <ele>377.20001220703</ele>
        <time>2021-07-18T03:57:54.000Z</time>
      </trkpt>
      <trkpt lat="45.19894" lon="5.72453">
        <ele>377.20001220703</ele>
        <time>2021-07-18T03:57:55.000Z</time>
      </trkpt>
      <trkpt lat="45.19896" lon="5.72447">
        <ele>376.79998779297</ele>
        <time>2021-07-18T03:57:57.000Z</time>
      </trkpt>
      <trkpt lat="45.19902" lon="5.72442">
        <ele>376.20001220703</ele>
        <time>2021-07-18T03:58:00.000Z</time>
      </trkpt>
      <trkpt lat="45.19907" lon="5.7244">
        <ele>375.79998779297</ele>
        <time>2021-07-18T03:58:02.000Z</time>
      </trkpt>
      <trkpt lat="45.19911" lon="5.72436">
        <ele>375</ele>
        <time>2021-07-18T03:58:04.000Z</time>
      </trkpt>
      <trkpt lat="45.19921" lon="5.72431">
        <ele>374</ele>
        <time>2021-07-18T03:58:08.000Z</time>
      </trkpt>
      <trkpt lat="45.19924" lon="5.72431">
        <ele>373.79998779297</ele>
        <time>2021-07-18T03:58:09.000Z</time>
      </trkpt>
      <trkpt lat="45.19939" lon="5.72424">
        <ele>373.39999389648</ele>
        <time>2021-07-18T03:58:15.000Z</time>
      </trkpt>
      <trkpt lat="45.19958" lon="5.72421">
        <ele>373.60000610352</ele>
        <time>2021-07-18T03:58:22.000Z</time>
      </trkpt>
      <trkpt lat="45.19966" lon="5.72421">
        <ele>374.39999389648</ele>
        <time>2021-07-18T03:58:26.000Z</time>
      </trkpt>
      <trkpt lat="45.19969" lon="5.72421">
        <ele>375</ele>
        <time>2021-07-18T03:58:27.000Z</time>
      </trkpt>
      <trkpt lat="45.19976" lon="5.72421">
        <ele>375.79998779297</ele>
        <time>2021-07-18T03:58:30.000Z</time>
      </trkpt>
      <trkpt lat="45.1998" lon="5.7242">
        <ele>376.20001220703</ele>
        <time>2021-07-18T03:58:32.000Z</time>
      </trkpt>
      <trkpt lat="45.19985" lon="5.7242">
        <ele>376.60000610352</ele>
        <time>2021-07-18T03:58:34.000Z</time>
      </trkpt>
      <trkpt lat="45.19989" lon="5.72421">
        <ele>377.60000610352</ele>
        <time>2021-07-18T03:58:36.000Z</time>
      </trkpt>
      <trkpt lat="45.19995" lon="5.72422">
        <ele>378</ele>
        <time>2021-07-18T03:58:39.000Z</time>
      </trkpt>
      <trkpt lat="45.20004" lon="5.72422">
        <ele>378.60000610352</ele>
        <time>2021-07-18T03:58:43.000Z</time>
      </trkpt>
      <trkpt lat="45.20011" lon="5.72422">
        <ele>379.79998779297</ele>
        <time>2021-07-18T03:58:46.000Z</time>
      </trkpt>
      <trkpt lat="45.20013" lon="5.72422">
        <ele>379.79998779297</ele>
        <time>2021-07-18T03:58:47.000Z</time>
      </trkpt>
      <trkpt lat="45.20022" lon="5.72422">
        <ele>381.20001220703</ele>
        <time>2021-07-18T03:58:51.000Z</time>
      </trkpt>
      <trkpt lat="45.20031" lon="5.72423">
        <ele>381.39999389648</ele>
        <time>2021-07-18T03:58:55.000Z</time>
      </trkpt>
      <trkpt lat="45.20039" lon="5.72423">
        <ele>382.39999389648</ele>
        <time>2021-07-18T03:58:59.000Z</time>
      </trkpt>
      <trkpt lat="45.20044" lon="5.72424">
        <ele>383</ele>
        <time>2021-07-18T03:59:01.000Z</time>
      </trkpt>
      <trkpt lat="45.2005" lon="5.72425">
        <ele>383.60000610352</ele>
        <time>2021-07-18T03:59:04.000Z</time>
      </trkpt>
      <trkpt lat="45.20054" lon="5.72426">
        <ele>384.20001220703</ele>
        <time>2021-07-18T03:59:06.000Z</time>
      </trkpt>
      <trkpt lat="45.20058" lon="5.72427">
        <ele>384.79998779297</ele>
        <time>2021-07-18T03:59:08.000Z</time>
      </trkpt>
      <trkpt lat="45.20065" lon="5.7243">
        <ele>385.79998779297</ele>
        <time>2021-07-18T03:59:11.000Z</time>
      </trkpt>
      <trkpt lat="45.20066" lon="5.72432">
        <ele>386</ele>
        <time>2021-07-18T03:59:12.000Z</time>
      </trkpt>
      <trkpt lat="45.20068" lon="5.72434">
        <ele>386.20001220703</ele>
        <time>2021-07-18T03:59:13.000Z</time>
      </trkpt>
      <trkpt lat="45.2007" lon="5.72439">
        <ele>386.79998779297</ele>
        <time>2021-07-18T03:59:15.000Z</time>
      </trkpt>
      <trkpt lat="45.20072" lon="5.72442">
        <ele>387.39999389648</ele>
        <time>2021-07-18T03:59:16.000Z</time>
      </trkpt>
      <trkpt lat="45.20074" lon="5.72448">
        <ele>387.60000610352</ele>
        <time>2021-07-18T03:59:18.000Z</time>
      </trkpt>
      <trkpt lat="45.20077" lon="5.72467">
        <ele>388.60000610352</ele>
        <time>2021-07-18T03:59:23.000Z</time>
      </trkpt>
      <trkpt lat="45.20078" lon="5.7247">
        <ele>388.79998779297</ele>
        <time>2021-07-18T03:59:24.000Z</time>
      </trkpt>
      <trkpt lat="45.20078" lon="5.72474">
        <ele>389.60000610352</ele>
        <time>2021-07-18T03:59:25.000Z</time>
      </trkpt>
      <trkpt lat="45.20075" lon="5.72489">
        <ele>389.79998779297</ele>
        <time>2021-07-18T03:59:29.000Z</time>
      </trkpt>
      <trkpt lat="45.2007" lon="5.72508">
        <ele>390.39999389648</ele>
        <time>2021-07-18T03:59:34.000Z</time>
      </trkpt>
      <trkpt lat="45.2007" lon="5.72511">
        <ele>390.60000610352</ele>
        <time>2021-07-18T03:59:35.000Z</time>
      </trkpt>
      <trkpt lat="45.2007" lon="5.72518">
        <ele>390.60000610352</ele>
        <time>2021-07-18T03:59:37.000Z</time>
      </trkpt>
      <trkpt lat="45.20071" lon="5.72521">
        <ele>390.79998779297</ele>
        <time>2021-07-18T03:59:38.000Z</time>
      </trkpt>
      <trkpt lat="45.20074" lon="5.72527">
        <ele>391</ele>
        <time>2021-07-18T03:59:40.000Z</time>
      </trkpt>
      <trkpt lat="45.20083" lon="5.72539">
        <ele>391.20001220703</ele>
        <time>2021-07-18T03:59:45.000Z</time>
      </trkpt>
      <trkpt lat="45.20085" lon="5.72541">
        <ele>391.20001220703</ele>
        <time>2021-07-18T03:59:46.000Z</time>
      </trkpt>
      <trkpt lat="45.20089" lon="5.7254">
        <ele>391.79998779297</ele>
        <time>2021-07-18T03:59:49.000Z</time>
      </trkpt>
      <trkpt lat="45.20093" lon="5.72541">
        <ele>392.20001220703</ele>
        <time>2021-07-18T03:59:51.000Z</time>
      </trkpt>
      <trkpt lat="45.20096" lon="5.7254">
        <ele>393.20001220703</ele>
        <time>2021-07-18T03:59:53.000Z</time>
      </trkpt>
      <trkpt lat="45.20099" lon="5.72539">
        <ele>394</ele>
        <time>2021-07-18T03:59:55.000Z</time>
      </trkpt>
      <trkpt lat="45.201" lon="5.72539">
        <ele>394.79998779297</ele>
        <time>2021-07-18T03:59:56.000Z</time>
      </trkpt>
      <trkpt lat="45.20105" lon="5.72538">
        <ele>395.39999389648</ele>
        <time>2021-07-18T03:59:59.000Z</time>
      </trkpt>
      <trkpt lat="45.20106" lon="5.72538">
        <ele>395.79998779297</ele>
        <time>2021-07-18T04:00:00.000Z</time>
      </trkpt>
      <trkpt lat="45.20108" lon="5.72538">
        <ele>396.79998779297</ele>
        <time>2021-07-18T04:00:02.000Z</time>
      </trkpt>
      <trkpt lat="45.20112" lon="5.72537">
        <ele>397.60000610352</ele>
        <time>2021-07-18T04:00:06.000Z</time>
      </trkpt>
      <trkpt lat="45.20114" lon="5.72537">
        <ele>398</ele>
        <time>2021-07-18T04:00:07.000Z</time>
      </trkpt>
      <trkpt lat="45.20124" lon="5.72537">
        <ele>399.20001220703</ele>
        <time>2021-07-18T04:00:12.000Z</time>
      </trkpt>
      <trkpt lat="45.20126" lon="5.72538">
        <ele>400.20001220703</ele>
        <time>2021-07-18T04:00:13.000Z</time>
      </trkpt>
      <trkpt lat="45.2013" lon="5.7254">
        <ele>400.39999389648</ele>
        <time>2021-07-18T04:00:15.000Z</time>
      </trkpt>
      <trkpt lat="45.20133" lon="5.72542">
        <ele>401.20001220703</ele>
        <time>2021-07-18T04:00:18.000Z</time>
      </trkpt>
      <trkpt lat="45.20141" lon="5.72547">
        <ele>402.39999389648</ele>
        <time>2021-07-18T04:00:23.000Z</time>
      </trkpt>
      <trkpt lat="45.20142" lon="5.72547">
        <ele>402.60000610352</ele>
        <time>2021-07-18T04:00:24.000Z</time>
      </trkpt>
      <trkpt lat="45.20153" lon="5.72551">
        <ele>403.60000610352</ele>
        <time>2021-07-18T04:00:29.000Z</time>
      </trkpt>
      <trkpt lat="45.20159" lon="5.72556">
        <ele>404.20001220703</ele>
        <time>2021-07-18T04:00:33.000Z</time>
      </trkpt>
      <trkpt lat="45.20162" lon="5.72557">
        <ele>405</ele>
        <time>2021-07-18T04:00:35.000Z</time>
      </trkpt>
      <trkpt lat="45.2017" lon="5.72561">
        <ele>405.79998779297</ele>
        <time>2021-07-18T04:00:39.000Z</time>
      </trkpt>
      <trkpt lat="45.20172" lon="5.72562">
        <ele>405.79998779297</ele>
        <time>2021-07-18T04:00:40.000Z</time>
      </trkpt>
      <trkpt lat="45.20174" lon="5.72563">
        <ele>406.20001220703</ele>
        <time>2021-07-18T04:00:41.000Z</time>
      </trkpt>
      <trkpt lat="45.20179" lon="5.72565">
        <ele>407.60000610352</ele>
        <time>2021-07-18T04:00:44.000Z</time>
      </trkpt>
      <trkpt lat="45.20186" lon="5.72568">
        <ele>408.20001220703</ele>
        <time>2021-07-18T04:00:48.000Z</time>
      </trkpt>
      <trkpt lat="45.20189" lon="5.7257">
        <ele>409</ele>
        <time>2021-07-18T04:00:50.000Z</time>
      </trkpt>
      <trkpt lat="45.20192" lon="5.72573">
        <ele>409.20001220703</ele>
        <time>2021-07-18T04:00:53.000Z</time>
      </trkpt>
      <trkpt lat="45.20197" lon="5.72578">
        <ele>410</ele>
        <time>2021-07-18T04:00:58.000Z</time>
      </trkpt>
      <trkpt lat="45.20198" lon="5.72581">
        <ele>409.79998779297</ele>
        <time>2021-07-18T04:01:00.000Z</time>
      </trkpt>
      <trkpt lat="45.202" lon="5.72585">
        <ele>408.79998779297</ele>
        <time>2021-07-18T04:01:02.000Z</time>
      </trkpt>
      <trkpt lat="45.20202" lon="5.72586">
        <ele>408.79998779297</ele>
        <time>2021-07-18T04:01:03.000Z</time>
      </trkpt>
      <trkpt lat="45.20203" lon="5.72591">
        <ele>408</ele>
        <time>2021-07-18T04:01:08.000Z</time>
      </trkpt>
      <trkpt lat="45.20205" lon="5.72594">
        <ele>407.60000610352</ele>
        <time>2021-07-18T04:01:10.000Z</time>
      </trkpt>
      <trkpt lat="45.20209" lon="5.72598">
        <ele>407.39999389648</ele>
        <time>2021-07-18T04:01:14.000Z</time>
      </trkpt>
      <trkpt lat="45.20211" lon="5.72599">
        <ele>407.39999389648</ele>
        <time>2021-07-18T04:01:16.000Z</time>
      </trkpt>
      <trkpt lat="45.20213" lon="5.72601">
        <ele>406.79998779297</ele>
        <time>2021-07-18T04:01:18.000Z</time>
      </trkpt>
      <trkpt lat="45.20213" lon="5.72603">
        <ele>406.39999389648</ele>
        <time>2021-07-18T04:01:19.000Z</time>
      </trkpt>
      <trkpt lat="45.20215" lon="5.72605">
        <ele>406.20001220703</ele>
        <time>2021-07-18T04:01:20.000Z</time>
      </trkpt>
      <trkpt lat="45.20217" lon="5.72607">
        <ele>405.79998779297</ele>
        <time>2021-07-18T04:01:22.000Z</time>
      </trkpt>
      <trkpt lat="45.2022" lon="5.72611">
        <ele>405.39999389648</ele>
        <time>2021-07-18T04:01:25.000Z</time>
      </trkpt>
      <trkpt lat="45.20224" lon="5.72615">
        <ele>404.79998779297</ele>
        <time>2021-07-18T04:01:29.000Z</time>
      </trkpt>
      <trkpt lat="45.20225" lon="5.72616">
        <ele>404.60000610352</ele>
        <time>2021-07-18T04:01:30.000Z</time>
      </trkpt>
      <trkpt lat="45.20234" lon="5.72623">
        <ele>404.60000610352</ele>
        <time>2021-07-18T04:01:36.000Z</time>
      </trkpt>
      <trkpt lat="45.20237" lon="5.72624">
        <ele>404</ele>
        <time>2021-07-18T04:01:37.000Z</time>
      </trkpt>
      <trkpt lat="45.2024" lon="5.72627">
        <ele>403.79998779297</ele>
        <time>2021-07-18T04:01:39.000Z</time>
      </trkpt>
      <trkpt lat="45.20243" lon="5.72631">
        <ele>403.60000610352</ele>
        <time>2021-07-18T04:01:41.000Z</time>
      </trkpt>
      <trkpt lat="45.20245" lon="5.72633">
        <ele>403.39999389648</ele>
        <time>2021-07-18T04:01:43.000Z</time>
      </trkpt>
      <trkpt lat="45.20249" lon="5.72634">
        <ele>403</ele>
        <time>2021-07-18T04:01:45.000Z</time>
      </trkpt>
      <trkpt lat="45.20251" lon="5.72635">
        <ele>402</ele>
        <time>2021-07-18T04:01:46.000Z</time>
      </trkpt>
      <trkpt lat="45.20253" lon="5.72639">
        <ele>401.79998779297</ele>
        <time>2021-07-18T04:01:48.000Z</time>
      </trkpt>
      <trkpt lat="45.20258" lon="5.72646">
        <ele>400.60000610352</ele>
        <time>2021-07-18T04:01:52.000Z</time>
      </trkpt>
      <trkpt lat="45.20259" lon="5.72651">
        <ele>399.39999389648</ele>
        <time>2021-07-18T04:01:55.000Z</time>
      </trkpt>
      <trkpt lat="45.2026" lon="5.72653">
        <ele>399</ele>
        <time>2021-07-18T04:01:56.000Z</time>
      </trkpt>
      <trkpt lat="45.20262" lon="5.72656">
        <ele>398.20001220703</ele>
        <time>2021-07-18T04:01:58.000Z</time>
      </trkpt>
      <trkpt lat="45.20263" lon="5.72657">
        <ele>398</ele>
        <time>2021-07-18T04:01:59.000Z</time>
      </trkpt>
      <trkpt lat="45.20264" lon="5.72659">
        <ele>397</ele>
        <time>2021-07-18T04:02:01.000Z</time>
      </trkpt>
      <trkpt lat="45.20264" lon="5.7266">
        <ele>396.39999389648</ele>
        <time>2021-07-18T04:02:02.000Z</time>
      </trkpt>
      <trkpt lat="45.20266" lon="5.72664">
        <ele>395.79998779297</ele>
        <time>2021-07-18T04:02:04.000Z</time>
      </trkpt>
      <trkpt lat="45.20268" lon="5.72667">
        <ele>395.39999389648</ele>
        <time>2021-07-18T04:02:06.000Z</time>
      </trkpt>
      <trkpt lat="45.20269" lon="5.72668">
        <ele>395.39999389648</ele>
        <time>2021-07-18T04:02:07.000Z</time>
      </trkpt>
      <trkpt lat="45.20272" lon="5.72671">
        <ele>395.79998779297</ele>
        <time>2021-07-18T04:02:09.000Z</time>
      </trkpt>
      <trkpt lat="45.20278" lon="5.72677">
        <ele>396.20001220703</ele>
        <time>2021-07-18T04:02:13.000Z</time>
      </trkpt>
      <trkpt lat="45.20279" lon="5.72679">
        <ele>396.20001220703</ele>
        <time>2021-07-18T04:02:14.000Z</time>
      </trkpt>
      <trkpt lat="45.20281" lon="5.72682">
        <ele>396.79998779297</ele>
        <time>2021-07-18T04:02:16.000Z</time>
      </trkpt>
      <trkpt lat="45.20286" lon="5.72685">
        <ele>397.79998779297</ele>
        <time>2021-07-18T04:02:20.000Z</time>
      </trkpt>
      <trkpt lat="45.20287" lon="5.72687">
        <ele>398</ele>
        <time>2021-07-18T04:02:21.000Z</time>
      </trkpt>
      <trkpt lat="45.20287" lon="5.72688">
        <ele>398.20001220703</ele>
        <time>2021-07-18T04:02:22.000Z</time>
      </trkpt>
      <trkpt lat="45.20289" lon="5.72691">
        <ele>398.39999389648</ele>
        <time>2021-07-18T04:02:24.000Z</time>
      </trkpt>
      <trkpt lat="45.20296" lon="5.72694">
        <ele>398.79998779297</ele>
        <time>2021-07-18T04:02:28.000Z</time>
      </trkpt>
      <trkpt lat="45.20297" lon="5.72694">
        <ele>399.20001220703</ele>
        <time>2021-07-18T04:02:29.000Z</time>
      </trkpt>
      <trkpt lat="45.203" lon="5.72696">
        <ele>399.20001220703</ele>
        <time>2021-07-18T04:02:31.000Z</time>
      </trkpt>
      <trkpt lat="45.20302" lon="5.72699">
        <ele>399.39999389648</ele>
        <time>2021-07-18T04:02:33.000Z</time>
      </trkpt>
      <trkpt lat="45.20303" lon="5.727">
        <ele>399.39999389648</ele>
        <time>2021-07-18T04:02:34.000Z</time>
      </trkpt>
      <trkpt lat="45.20305" lon="5.72701">
        <ele>399.39999389648</ele>
        <time>2021-07-18T04:02:35.000Z</time>
      </trkpt>
      <trkpt lat="45.2031" lon="5.72703">
        <ele>399.60000610352</ele>
        <time>2021-07-18T04:02:38.000Z</time>
      </trkpt>
      <trkpt lat="45.20314" lon="5.72707">
        <ele>399.60000610352</ele>
        <time>2021-07-18T04:02:41.000Z</time>
      </trkpt>
      <trkpt lat="45.20317" lon="5.7271">
        <ele>399.60000610352</ele>
        <time>2021-07-18T04:02:43.000Z</time>
      </trkpt>
      <trkpt lat="45.20329" lon="5.72719">
        <ele>400</ele>
        <time>2021-07-18T04:02:48.000Z</time>
      </trkpt>
      <trkpt lat="45.20335" lon="5.72723">
        <ele>400.20001220703</ele>
        <time>2021-07-18T04:02:50.000Z</time>
      </trkpt>
      <trkpt lat="45.2034" lon="5.72727">
        <ele>401</ele>
        <time>2021-07-18T04:02:53.000Z</time>
      </trkpt>
      <trkpt lat="45.20342" lon="5.72727">
        <ele>401</ele>
        <time>2021-07-18T04:02:54.000Z</time>
      </trkpt>
      <trkpt lat="45.20343" lon="5.72729">
        <ele>401.60000610352</ele>
        <time>2021-07-18T04:02:56.000Z</time>
      </trkpt>
      <trkpt lat="45.20344" lon="5.72731">
        <ele>401.60000610352</ele>
        <time>2021-07-18T04:02:57.000Z</time>
      </trkpt>
      <trkpt lat="45.20347" lon="5.72733">
        <ele>402.39999389648</ele>
        <time>2021-07-18T04:02:59.000Z</time>
      </trkpt>
      <trkpt lat="45.2035" lon="5.72734">
        <ele>402.60000610352</ele>
        <time>2021-07-18T04:03:00.000Z</time>
      </trkpt>
      <trkpt lat="45.20357" lon="5.72738">
        <ele>402.79998779297</ele>
        <time>2021-07-18T04:03:03.000Z</time>
      </trkpt>
      <trkpt lat="45.20362" lon="5.72745">
        <ele>403.79998779297</ele>
        <time>2021-07-18T04:03:06.000Z</time>
      </trkpt>
      <trkpt lat="45.20363" lon="5.72747">
        <ele>404</ele>
        <time>2021-07-18T04:03:07.000Z</time>
      </trkpt>
      <trkpt lat="45.20368" lon="5.72753">
        <ele>404.20001220703</ele>
        <time>2021-07-18T04:03:10.000Z</time>
      </trkpt>
      <trkpt lat="45.2037" lon="5.72755">
        <ele>404.60000610352</ele>
        <time>2021-07-18T04:03:13.000Z</time>
      </trkpt>
      <trkpt lat="45.20375" lon="5.72756">
        <ele>404.79998779297</ele>
        <time>2021-07-18T04:03:16.000Z</time>
      </trkpt>
      <trkpt lat="45.20378" lon="5.72758">
        <ele>405.39999389648</ele>
        <time>2021-07-18T04:03:18.000Z</time>
      </trkpt>
      <trkpt lat="45.20382" lon="5.72763">
        <ele>406</ele>
        <time>2021-07-18T04:03:21.000Z</time>
      </trkpt>
      <trkpt lat="45.20384" lon="5.72764">
        <ele>406.60000610352</ele>
        <time>2021-07-18T04:03:23.000Z</time>
      </trkpt>
      <trkpt lat="45.20385" lon="5.72765">
        <ele>406.60000610352</ele>
        <time>2021-07-18T04:03:24.000Z</time>
      </trkpt>
      <trkpt lat="45.2039" lon="5.72768">
        <ele>407.20001220703</ele>
        <time>2021-07-18T04:03:27.000Z</time>
      </trkpt>
      <trkpt lat="45.20393" lon="5.72771">
        <ele>407.39999389648</ele>
        <time>2021-07-18T04:03:29.000Z</time>
      </trkpt>
      <trkpt lat="45.20394" lon="5.72773">
        <ele>407.39999389648</ele>
        <time>2021-07-18T04:03:30.000Z</time>
      </trkpt>
      <trkpt lat="45.204" lon="5.72781">
        <ele>408.20001220703</ele>
        <time>2021-07-18T04:03:35.000Z</time>
      </trkpt>
      <trkpt lat="45.20402" lon="5.72783">
        <ele>408.39999389648</ele>
        <time>2021-07-18T04:03:37.000Z</time>
      </trkpt>
      <trkpt lat="45.20405" lon="5.72786">
        <ele>409.20001220703</ele>
        <time>2021-07-18T04:03:40.000Z</time>
      </trkpt>
      <trkpt lat="45.20406" lon="5.72787">
        <ele>409.60000610352</ele>
        <time>2021-07-18T04:03:41.000Z</time>
      </trkpt>
      <trkpt lat="45.20412" lon="5.72792">
        <ele>410.39999389648</ele>
        <time>2021-07-18T04:03:45.000Z</time>
      </trkpt>
      <trkpt lat="45.20414" lon="5.72794">
        <ele>410.39999389648</ele>
        <time>2021-07-18T04:03:46.000Z</time>
      </trkpt>
      <trkpt lat="45.20416" lon="5.72798">
        <ele>411</ele>
        <time>2021-07-18T04:03:49.000Z</time>
      </trkpt>
      <trkpt lat="45.20425" lon="5.72806">
        <ele>411.39999389648</ele>
        <time>2021-07-18T04:03:54.000Z</time>
      </trkpt>
      <trkpt lat="45.20438" lon="5.72815">
        <ele>412</ele>
        <time>2021-07-18T04:04:00.000Z</time>
      </trkpt>
      <trkpt lat="45.2044" lon="5.72816">
        <ele>412.20001220703</ele>
        <time>2021-07-18T04:04:01.000Z</time>
      </trkpt>
      <trkpt lat="45.2044" lon="5.72817">
        <ele>412.20001220703</ele>
        <time>2021-07-18T04:04:02.000Z</time>
      </trkpt>
      <trkpt lat="45.2044" lon="5.72819">
        <ele>412.20001220703</ele>
        <time>2021-07-18T04:04:03.000Z</time>
      </trkpt>
      <trkpt lat="45.20439" lon="5.7282">
        <ele>412.39999389648</ele>
        <time>2021-07-18T04:04:04.000Z</time>
      </trkpt>
      <trkpt lat="45.20441" lon="5.72822">
        <ele>412.39999389648</ele>
        <time>2021-07-18T04:04:05.000Z</time>
      </trkpt>
      <trkpt lat="45.20444" lon="5.72825">
        <ele>412.39999389648</ele>
        <time>2021-07-18T04:04:06.000Z</time>
      </trkpt>
      <trkpt lat="45.20451" lon="5.72831">
        <ele>413</ele>
        <time>2021-07-18T04:04:10.000Z</time>
      </trkpt>
      <trkpt lat="45.20452" lon="5.72833">
        <ele>413.39999389648</ele>
        <time>2021-07-18T04:04:12.000Z</time>
      </trkpt>
      <trkpt lat="45.20453" lon="5.72836">
        <ele>413.79998779297</ele>
        <time>2021-07-18T04:04:14.000Z</time>
      </trkpt>
      <trkpt lat="45.20456" lon="5.72838">
        <ele>414.20001220703</ele>
        <time>2021-07-18T04:04:16.000Z</time>
      </trkpt>
      <trkpt lat="45.20463" lon="5.72843">
        <ele>414.20001220703</ele>
        <time>2021-07-18T04:04:20.000Z</time>
      </trkpt>
      <trkpt lat="45.2047" lon="5.72845">
        <ele>414.60000610352</ele>
        <time>2021-07-18T04:04:23.000Z</time>
      </trkpt>
      <trkpt lat="45.20477" lon="5.72847">
        <ele>414.60000610352</ele>
        <time>2021-07-18T04:04:27.000Z</time>
      </trkpt>
      <trkpt lat="45.2048" lon="5.7285">
        <ele>414.20001220703</ele>
        <time>2021-07-18T04:04:29.000Z</time>
      </trkpt>
      <trkpt lat="45.20484" lon="5.72852">
        <ele>414.20001220703</ele>
        <time>2021-07-18T04:04:31.000Z</time>
      </trkpt>
      <trkpt lat="45.20491" lon="5.72857">
        <ele>414</ele>
        <time>2021-07-18T04:04:34.000Z</time>
      </trkpt>
      <trkpt lat="45.20497" lon="5.72861">
        <ele>413.79998779297</ele>
        <time>2021-07-18T04:04:37.000Z</time>
      </trkpt>
      <trkpt lat="45.205" lon="5.72864">
        <ele>413.60000610352</ele>
        <time>2021-07-18T04:04:39.000Z</time>
      </trkpt>
      <trkpt lat="45.20501" lon="5.72865">
        <ele>413.20001220703</ele>
        <time>2021-07-18T04:04:40.000Z</time>
      </trkpt>
      <trkpt lat="45.20503" lon="5.7287">
        <ele>413.20001220703</ele>
        <time>2021-07-18T04:04:42.000Z</time>
      </trkpt>
      <trkpt lat="45.20505" lon="5.72875">
        <ele>412.39999389648</ele>
        <time>2021-07-18T04:04:45.000Z</time>
      </trkpt>
      <trkpt lat="45.20508" lon="5.72879">
        <ele>412</ele>
        <time>2021-07-18T04:04:47.000Z</time>
      </trkpt>
      <trkpt lat="45.20514" lon="5.72882">
        <ele>411</ele>
        <time>2021-07-18T04:04:50.000Z</time>
      </trkpt>
      <trkpt lat="45.20518" lon="5.72886">
        <ele>411</ele>
        <time>2021-07-18T04:04:52.000Z</time>
      </trkpt>
      <trkpt lat="45.20533" lon="5.72894">
        <ele>410.79998779297</ele>
        <time>2021-07-18T04:04:58.000Z</time>
      </trkpt>
      <trkpt lat="45.20538" lon="5.72898">
        <ele>410.60000610352</ele>
        <time>2021-07-18T04:05:01.000Z</time>
      </trkpt>
      <trkpt lat="45.20544" lon="5.72902">
        <ele>410.60000610352</ele>
        <time>2021-07-18T04:05:05.000Z</time>
      </trkpt>
      <trkpt lat="45.20548" lon="5.72907">
        <ele>410.20001220703</ele>
        <time>2021-07-18T04:05:09.000Z</time>
      </trkpt>
      <trkpt lat="45.20548" lon="5.72908">
        <ele>409.60000610352</ele>
        <time>2021-07-18T04:05:10.000Z</time>
      </trkpt>
      <trkpt lat="45.2055" lon="5.72909">
        <ele>409.60000610352</ele>
        <time>2021-07-18T04:05:11.000Z</time>
      </trkpt>
      <trkpt lat="45.20556" lon="5.72912">
        <ele>409.39999389648</ele>
        <time>2021-07-18T04:05:15.000Z</time>
      </trkpt>
      <trkpt lat="45.2056" lon="5.72914">
        <ele>409.79998779297</ele>
        <time>2021-07-18T04:05:17.000Z</time>
      </trkpt>
      <trkpt lat="45.20562" lon="5.72917">
        <ele>409.79998779297</ele>
        <time>2021-07-18T04:05:19.000Z</time>
      </trkpt>
      <trkpt lat="45.20565" lon="5.7292">
        <ele>409.39999389648</ele>
        <time>2021-07-18T04:05:21.000Z</time>
      </trkpt>
      <trkpt lat="45.20567" lon="5.72922">
        <ele>409.39999389648</ele>
        <time>2021-07-18T04:05:22.000Z</time>
      </trkpt>
      <trkpt lat="45.20577" lon="5.72933">
        <ele>409.20001220703</ele>
        <time>2021-07-18T04:05:28.000Z</time>
      </trkpt>
      <trkpt lat="45.2058" lon="5.72935">
        <ele>409</ele>
        <time>2021-07-18T04:05:29.000Z</time>
      </trkpt>
      <trkpt lat="45.20589" lon="5.72938">
        <ele>408.79998779297</ele>
        <time>2021-07-18T04:05:32.000Z</time>
      </trkpt>
      <trkpt lat="45.20593" lon="5.72941">
        <ele>408.60000610352</ele>
        <time>2021-07-18T04:05:34.000Z</time>
      </trkpt>
      <trkpt lat="45.20599" lon="5.72948">
        <ele>408.60000610352</ele>
        <time>2021-07-18T04:05:38.000Z</time>
      </trkpt>
      <trkpt lat="45.20601" lon="5.72949">
        <ele>408.60000610352</ele>
        <time>2021-07-18T04:05:39.000Z</time>
      </trkpt>
      <trkpt lat="45.20603" lon="5.72951">
        <ele>408.39999389648</ele>
        <time>2021-07-18T04:05:41.000Z</time>
      </trkpt>
      <trkpt lat="45.20604" lon="5.72951">
        <ele>408.39999389648</ele>
        <time>2021-07-18T04:05:42.000Z</time>
      </trkpt>
      <trkpt lat="45.20608" lon="5.72952">
        <ele>408.39999389648</ele>
        <time>2021-07-18T04:05:44.000Z</time>
      </trkpt>
      <trkpt lat="45.20613" lon="5.72959">
        <ele>408.60000610352</ele>
        <time>2021-07-18T04:05:47.000Z</time>
      </trkpt>
      <trkpt lat="45.20626" lon="5.72967">
        <ele>409</ele>
        <time>2021-07-18T04:05:55.000Z</time>
      </trkpt>
      <trkpt lat="45.20627" lon="5.72969">
        <ele>409</ele>
        <time>2021-07-18T04:05:56.000Z</time>
      </trkpt>
      <trkpt lat="45.2063" lon="5.72971">
        <ele>409</ele>
        <time>2021-07-18T04:05:58.000Z</time>
      </trkpt>
      <trkpt lat="45.20631" lon="5.72974">
        <ele>409</ele>
        <time>2021-07-18T04:06:00.000Z</time>
      </trkpt>
      <trkpt lat="45.20639" lon="5.72982">
        <ele>408.60000610352</ele>
        <time>2021-07-18T04:06:05.000Z</time>
      </trkpt>
      <trkpt lat="45.20643" lon="5.72985">
        <ele>408.60000610352</ele>
        <time>2021-07-18T04:06:07.000Z</time>
      </trkpt>
      <trkpt lat="45.20654" lon="5.72996">
        <ele>408.79998779297</ele>
        <time>2021-07-18T04:06:15.000Z</time>
      </trkpt>
      <trkpt lat="45.2066" lon="5.73001">
        <ele>408.79998779297</ele>
        <time>2021-07-18T04:06:18.000Z</time>
      </trkpt>
      <trkpt lat="45.20667" lon="5.73006">
        <ele>408.79998779297</ele>
        <time>2021-07-18T04:06:21.000Z</time>
      </trkpt>
      <trkpt lat="45.20676" lon="5.73011">
        <ele>409</ele>
        <time>2021-07-18T04:06:26.000Z</time>
      </trkpt>
      <trkpt lat="45.20678" lon="5.73012">
        <ele>409</ele>
        <time>2021-07-18T04:06:27.000Z</time>
      </trkpt>
      <trkpt lat="45.2068" lon="5.73017">
        <ele>409</ele>
        <time>2021-07-18T04:06:30.000Z</time>
      </trkpt>
      <trkpt lat="45.20687" lon="5.73025">
        <ele>409.60000610352</ele>
        <time>2021-07-18T04:06:35.000Z</time>
      </trkpt>
      <trkpt lat="45.20688" lon="5.73026">
        <ele>410.60000610352</ele>
        <time>2021-07-18T04:06:36.000Z</time>
      </trkpt>
      <trkpt lat="45.20688" lon="5.73027">
        <ele>410.60000610352</ele>
        <time>2021-07-18T04:06:37.000Z</time>
      </trkpt>
      <trkpt lat="45.20695" lon="5.73036">
        <ele>411.20001220703</ele>
        <time>2021-07-18T04:06:42.000Z</time>
      </trkpt>
      <trkpt lat="45.20697" lon="5.73038">
        <ele>411.20001220703</ele>
        <time>2021-07-18T04:06:43.000Z</time>
      </trkpt>
      <trkpt lat="45.20702" lon="5.73041">
        <ele>411.60000610352</ele>
        <time>2021-07-18T04:06:45.000Z</time>
      </trkpt>
      <trkpt lat="45.20708" lon="5.73044">
        <ele>411.79998779297</ele>
        <time>2021-07-18T04:06:48.000Z</time>
      </trkpt>
      <trkpt lat="45.20714" lon="5.7305">
        <ele>412.39999389648</ele>
        <time>2021-07-18T04:06:53.000Z</time>
      </trkpt>
      <trkpt lat="45.20716" lon="5.73051">
        <ele>412.39999389648</ele>
        <time>2021-07-18T04:06:54.000Z</time>
      </trkpt>
      <trkpt lat="45.20723" lon="5.73059">
        <ele>412.20001220703</ele>
        <time>2021-07-18T04:06:59.000Z</time>
      </trkpt>
      <trkpt lat="45.20726" lon="5.73062">
        <ele>412.20001220703</ele>
        <time>2021-07-18T04:07:01.000Z</time>
      </trkpt>
      <trkpt lat="45.2073" lon="5.73068">
        <ele>412</ele>
        <time>2021-07-18T04:07:04.000Z</time>
      </trkpt>
      <trkpt lat="45.20734" lon="5.73073">
        <ele>411.39999389648</ele>
        <time>2021-07-18T04:07:06.000Z</time>
      </trkpt>
      <trkpt lat="45.20738" lon="5.73079">
        <ele>411.39999389648</ele>
        <time>2021-07-18T04:07:09.000Z</time>
      </trkpt>
      <trkpt lat="45.2074" lon="5.73081">
        <ele>411.60000610352</ele>
        <time>2021-07-18T04:07:11.000Z</time>
      </trkpt>
      <trkpt lat="45.20743" lon="5.73083">
        <ele>411.79998779297</ele>
        <time>2021-07-18T04:07:13.000Z</time>
      </trkpt>
      <trkpt lat="45.20747" lon="5.73087">
        <ele>412.20001220703</ele>
        <time>2021-07-18T04:07:18.000Z</time>
      </trkpt>
      <trkpt lat="45.20749" lon="5.73088">
        <ele>412.20001220703</ele>
        <time>2021-07-18T04:07:20.000Z</time>
      </trkpt>
      <trkpt lat="45.20753" lon="5.73093">
        <ele>412</ele>
        <time>2021-07-18T04:07:23.000Z</time>
      </trkpt>
      <trkpt lat="45.20757" lon="5.73103">
        <ele>411.79998779297</ele>
        <time>2021-07-18T04:07:27.000Z</time>
      </trkpt>
      <trkpt lat="45.20758" lon="5.73105">
        <ele>411.39999389648</ele>
        <time>2021-07-18T04:07:29.000Z</time>
      </trkpt>
      <trkpt lat="45.20767" lon="5.7311">
        <ele>411</ele>
        <time>2021-07-18T04:07:35.000Z</time>
      </trkpt>
      <trkpt lat="45.20769" lon="5.73113">
        <ele>410.60000610352</ele>
        <time>2021-07-18T04:07:37.000Z</time>
      </trkpt>
      <trkpt lat="45.20772" lon="5.73115">
        <ele>410.39999389648</ele>
        <time>2021-07-18T04:07:39.000Z</time>
      </trkpt>
      <trkpt lat="45.20775" lon="5.73117">
        <ele>409.39999389648</ele>
        <time>2021-07-18T04:07:41.000Z</time>
      </trkpt>
      <trkpt lat="45.2078" lon="5.73121">
        <ele>409.20001220703</ele>
        <time>2021-07-18T04:07:44.000Z</time>
      </trkpt>
      <trkpt lat="45.20782" lon="5.73127">
        <ele>409</ele>
        <time>2021-07-18T04:07:47.000Z</time>
      </trkpt>
      <trkpt lat="45.20782" lon="5.7313">
        <ele>408.39999389648</ele>
        <time>2021-07-18T04:07:48.000Z</time>
      </trkpt>
      <trkpt lat="45.20782" lon="5.73134">
        <ele>407.79998779297</ele>
        <time>2021-07-18T04:07:50.000Z</time>
      </trkpt>
      <trkpt lat="45.20784" lon="5.73139">
        <ele>407.20001220703</ele>
        <time>2021-07-18T04:07:52.000Z</time>
      </trkpt>
      <trkpt lat="45.20785" lon="5.7314">
        <ele>405.79998779297</ele>
        <time>2021-07-18T04:07:53.000Z</time>
      </trkpt>
      <trkpt lat="45.20786" lon="5.73141">
        <ele>405.79998779297</ele>
        <time>2021-07-18T04:07:54.000Z</time>
      </trkpt>
      <trkpt lat="45.20787" lon="5.73145">
        <ele>405.39999389648</ele>
        <time>2021-07-18T04:07:56.000Z</time>
      </trkpt>
      <trkpt lat="45.20787" lon="5.73147">
        <ele>404.79998779297</ele>
        <time>2021-07-18T04:07:57.000Z</time>
      </trkpt>
      <trkpt lat="45.20787" lon="5.73149">
        <ele>404.39999389648</ele>
        <time>2021-07-18T04:07:58.000Z</time>
      </trkpt>
      <trkpt lat="45.20788" lon="5.73151">
        <ele>403.79998779297</ele>
        <time>2021-07-18T04:07:59.000Z</time>
      </trkpt>
      <trkpt lat="45.20791" lon="5.7316">
        <ele>402.20001220703</ele>
        <time>2021-07-18T04:08:03.000Z</time>
      </trkpt>
      <trkpt lat="45.20791" lon="5.73165">
        <ele>402</ele>
        <time>2021-07-18T04:08:05.000Z</time>
      </trkpt>
      <trkpt lat="45.20793" lon="5.7317">
        <ele>401.39999389648</ele>
        <time>2021-07-18T04:08:08.000Z</time>
      </trkpt>
      <trkpt lat="45.20794" lon="5.73171">
        <ele>401</ele>
        <time>2021-07-18T04:08:09.000Z</time>
      </trkpt>
      <trkpt lat="45.20797" lon="5.73175">
        <ele>400.60000610352</ele>
        <time>2021-07-18T04:08:11.000Z</time>
      </trkpt>
      <trkpt lat="45.20801" lon="5.73183">
        <ele>399.79998779297</ele>
        <time>2021-07-18T04:08:15.000Z</time>
      </trkpt>
      <trkpt lat="45.20804" lon="5.73189">
        <ele>399.39999389648</ele>
        <time>2021-07-18T04:08:18.000Z</time>
      </trkpt>
      <trkpt lat="45.20808" lon="5.73195">
        <ele>399</ele>
        <time>2021-07-18T04:08:21.000Z</time>
      </trkpt>
      <trkpt lat="45.2081" lon="5.73199">
        <ele>398.39999389648</ele>
        <time>2021-07-18T04:08:23.000Z</time>
      </trkpt>
      <trkpt lat="45.20811" lon="5.732">
        <ele>398.39999389648</ele>
        <time>2021-07-18T04:08:24.000Z</time>
      </trkpt>
      <trkpt lat="45.20812" lon="5.73202">
        <ele>398.39999389648</ele>
        <time>2021-07-18T04:08:25.000Z</time>
      </trkpt>
      <trkpt lat="45.20822" lon="5.73215">
        <ele>397.79998779297</ele>
        <time>2021-07-18T04:08:30.000Z</time>
      </trkpt>
      <trkpt lat="45.20824" lon="5.73222">
        <ele>397.20001220703</ele>
        <time>2021-07-18T04:08:32.000Z</time>
      </trkpt>
      <trkpt lat="45.2083" lon="5.73231">
        <ele>396</ele>
        <time>2021-07-18T04:08:36.000Z</time>
      </trkpt>
      <trkpt lat="45.20836" lon="5.73245">
        <ele>394.79998779297</ele>
        <time>2021-07-18T04:08:41.000Z</time>
      </trkpt>
      <trkpt lat="45.20837" lon="5.73247">
        <ele>394.79998779297</ele>
        <time>2021-07-18T04:08:42.000Z</time>
      </trkpt>
      <trkpt lat="45.20842" lon="5.73254">
        <ele>394.39999389648</ele>
        <time>2021-07-18T04:08:46.000Z</time>
      </trkpt>
      <trkpt lat="45.20842" lon="5.73257">
        <ele>394.39999389648</ele>
        <time>2021-07-18T04:08:47.000Z</time>
      </trkpt>
      <trkpt lat="45.20843" lon="5.73261">
        <ele>394.39999389648</ele>
        <time>2021-07-18T04:08:49.000Z</time>
      </trkpt>
      <trkpt lat="45.20846" lon="5.73271">
        <ele>393.79998779297</ele>
        <time>2021-07-18T04:08:53.000Z</time>
      </trkpt>
      <trkpt lat="45.20849" lon="5.73276">
        <ele>393.79998779297</ele>
        <time>2021-07-18T04:08:56.000Z</time>
      </trkpt>
      <trkpt lat="45.20851" lon="5.7328">
        <ele>394</ele>
        <time>2021-07-18T04:08:58.000Z</time>
      </trkpt>
      <trkpt lat="45.20854" lon="5.73291">
        <ele>393.60000610352</ele>
        <time>2021-07-18T04:09:03.000Z</time>
      </trkpt>
      <trkpt lat="45.20855" lon="5.73292">
        <ele>393.60000610352</ele>
        <time>2021-07-18T04:09:04.000Z</time>
      </trkpt>
      <trkpt lat="45.20854" lon="5.73295">
        <ele>393.60000610352</ele>
        <time>2021-07-18T04:09:06.000Z</time>
      </trkpt>
      <trkpt lat="45.20855" lon="5.73296">
        <ele>393.60000610352</ele>
        <time>2021-07-18T04:09:07.000Z</time>
      </trkpt>
      <trkpt lat="45.20858" lon="5.73297">
        <ele>395</ele>
        <time>2021-07-18T04:09:11.000Z</time>
      </trkpt>
      <trkpt lat="45.20861" lon="5.73298">
        <ele>395.39999389648</ele>
        <time>2021-07-18T04:09:14.000Z</time>
      </trkpt>
      <trkpt lat="45.20864" lon="5.73299">
        <ele>396</ele>
        <time>2021-07-18T04:09:16.000Z</time>
      </trkpt>
      <trkpt lat="45.20868" lon="5.73302">
        <ele>396.39999389648</ele>
        <time>2021-07-18T04:09:19.000Z</time>
      </trkpt>
      <trkpt lat="45.2087" lon="5.73304">
        <ele>397</ele>
        <time>2021-07-18T04:09:21.000Z</time>
      </trkpt>
      <trkpt lat="45.20875" lon="5.73303">
        <ele>397.60000610352</ele>
        <time>2021-07-18T04:09:25.000Z</time>
      </trkpt>
      <trkpt lat="45.20876" lon="5.73303">
        <ele>398.20001220703</ele>
        <time>2021-07-18T04:09:26.000Z</time>
      </trkpt>
      <trkpt lat="45.20878" lon="5.73303">
        <ele>398.39999389648</ele>
        <time>2021-07-18T04:09:28.000Z</time>
      </trkpt>
      <trkpt lat="45.2088" lon="5.73303">
        <ele>399.20001220703</ele>
        <time>2021-07-18T04:09:31.000Z</time>
      </trkpt>
      <trkpt lat="45.20881" lon="5.73304">
        <ele>399.60000610352</ele>
        <time>2021-07-18T04:09:32.000Z</time>
      </trkpt>
      <trkpt lat="45.20883" lon="5.73304">
        <ele>400.20001220703</ele>
        <time>2021-07-18T04:09:34.000Z</time>
      </trkpt>
      <trkpt lat="45.20884" lon="5.73304">
        <ele>400.39999389648</ele>
        <time>2021-07-18T04:09:35.000Z</time>
      </trkpt>
      <trkpt lat="45.20886" lon="5.73304">
        <ele>400.60000610352</ele>
        <time>2021-07-18T04:09:37.000Z</time>
      </trkpt>
      <trkpt lat="45.20888" lon="5.73304">
        <ele>400.79998779297</ele>
        <time>2021-07-18T04:09:39.000Z</time>
      </trkpt>
      <trkpt lat="45.20889" lon="5.73304">
        <ele>401.39999389648</ele>
        <time>2021-07-18T04:09:40.000Z</time>
      </trkpt>
      <trkpt lat="45.2089" lon="5.73304">
        <ele>401.39999389648</ele>
        <time>2021-07-18T04:09:41.000Z</time>
      </trkpt>
      <trkpt lat="45.20895" lon="5.73307">
        <ele>402</ele>
        <time>2021-07-18T04:09:44.000Z</time>
      </trkpt>
      <trkpt lat="45.20898" lon="5.73307">
        <ele>402.39999389648</ele>
        <time>2021-07-18T04:09:46.000Z</time>
      </trkpt>
      <trkpt lat="45.20899" lon="5.73306">
        <ele>402.60000610352</ele>
        <time>2021-07-18T04:09:47.000Z</time>
      </trkpt>
      <trkpt lat="45.20902" lon="5.73305">
        <ele>403</ele>
        <time>2021-07-18T04:09:49.000Z</time>
      </trkpt>
      <trkpt lat="45.20903" lon="5.73306">
        <ele>403.60000610352</ele>
        <time>2021-07-18T04:09:51.000Z</time>
      </trkpt>
      <trkpt lat="45.20903" lon="5.73307">
        <ele>403.60000610352</ele>
        <time>2021-07-18T04:09:52.000Z</time>
      </trkpt>
      <trkpt lat="45.20905" lon="5.73307">
        <ele>404.20001220703</ele>
        <time>2021-07-18T04:09:54.000Z</time>
      </trkpt>
      <trkpt lat="45.20908" lon="5.73308">
        <ele>405</ele>
        <time>2021-07-18T04:09:57.000Z</time>
      </trkpt>
      <trkpt lat="45.20911" lon="5.7331">
        <ele>405.20001220703</ele>
        <time>2021-07-18T04:09:59.000Z</time>
      </trkpt>
      <trkpt lat="45.20915" lon="5.73312">
        <ele>406</ele>
        <time>2021-07-18T04:10:03.000Z</time>
      </trkpt>
      <trkpt lat="45.20922" lon="5.73312">
        <ele>406</ele>
        <time>2021-07-18T04:10:05.000Z</time>
      </trkpt>
      <trkpt lat="45.20925" lon="5.73313">
        <ele>406.60000610352</ele>
        <time>2021-07-18T04:10:06.000Z</time>
      </trkpt>
      <trkpt lat="45.20928" lon="5.73315">
        <ele>407.20001220703</ele>
        <time>2021-07-18T04:10:08.000Z</time>
      </trkpt>
      <trkpt lat="45.20933" lon="5.73316">
        <ele>407.79998779297</ele>
        <time>2021-07-18T04:10:13.000Z</time>
      </trkpt>
      <trkpt lat="45.20934" lon="5.73316">
        <ele>408.20001220703</ele>
        <time>2021-07-18T04:10:14.000Z</time>
      </trkpt>
      <trkpt lat="45.20942" lon="5.73312">
        <ele>409.20001220703</ele>
        <time>2021-07-18T04:10:19.000Z</time>
      </trkpt>
      <trkpt lat="45.20944" lon="5.73311">
        <ele>409.39999389648</ele>
        <time>2021-07-18T04:10:20.000Z</time>
      </trkpt>
      <trkpt lat="45.20947" lon="5.7331">
        <ele>410.20001220703</ele>
        <time>2021-07-18T04:10:23.000Z</time>
      </trkpt>
      <trkpt lat="45.20948" lon="5.7331">
        <ele>410.60000610352</ele>
        <time>2021-07-18T04:10:24.000Z</time>
      </trkpt>
      <trkpt lat="45.20952" lon="5.73307">
        <ele>411</ele>
        <time>2021-07-18T04:10:26.000Z</time>
      </trkpt>
      <trkpt lat="45.20953" lon="5.73306">
        <ele>411</ele>
        <time>2021-07-18T04:10:27.000Z</time>
      </trkpt>
      <trkpt lat="45.20957" lon="5.73306">
        <ele>411.79998779297</ele>
        <time>2021-07-18T04:10:29.000Z</time>
      </trkpt>
      <trkpt lat="45.20958" lon="5.73306">
        <ele>412</ele>
        <time>2021-07-18T04:10:31.000Z</time>
      </trkpt>
      <trkpt lat="45.20963" lon="5.73305">
        <ele>412.60000610352</ele>
        <time>2021-07-18T04:10:34.000Z</time>
      </trkpt>
      <trkpt lat="45.20965" lon="5.73305">
        <ele>413.20001220703</ele>
        <time>2021-07-18T04:10:35.000Z</time>
      </trkpt>
      <trkpt lat="45.20967" lon="5.73305">
        <ele>413.39999389648</ele>
        <time>2021-07-18T04:10:36.000Z</time>
      </trkpt>
      <trkpt lat="45.20969" lon="5.73304">
        <ele>413.39999389648</ele>
        <time>2021-07-18T04:10:37.000Z</time>
      </trkpt>
      <trkpt lat="45.20973" lon="5.733">
        <ele>414.20001220703</ele>
        <time>2021-07-18T04:10:40.000Z</time>
      </trkpt>
      <trkpt lat="45.20975" lon="5.73299">
        <ele>414.60000610352</ele>
        <time>2021-07-18T04:10:41.000Z</time>
      </trkpt>
      <trkpt lat="45.20976" lon="5.73299">
        <ele>414.60000610352</ele>
        <time>2021-07-18T04:10:42.000Z</time>
      </trkpt>
      <trkpt lat="45.20978" lon="5.73298">
        <ele>414.79998779297</ele>
        <time>2021-07-18T04:10:44.000Z</time>
      </trkpt>
      <trkpt lat="45.2098" lon="5.73298">
        <ele>415.39999389648</ele>
        <time>2021-07-18T04:10:46.000Z</time>
      </trkpt>
      <trkpt lat="45.20981" lon="5.73297">
        <ele>415.60000610352</ele>
        <time>2021-07-18T04:10:47.000Z</time>
      </trkpt>
      <trkpt lat="45.20981" lon="5.73297">
        <ele>415.79998779297</ele>
        <time>2021-07-18T04:10:48.000Z</time>
      </trkpt>
      <trkpt lat="45.2098" lon="5.73296">
        <ele>417</ele>
        <time>2021-07-18T04:10:51.000Z</time>
      </trkpt>
      <trkpt lat="45.20979" lon="5.73297">
        <ele>417</ele>
        <time>2021-07-18T04:10:52.000Z</time>
      </trkpt>
      <trkpt lat="45.20977" lon="5.73296">
        <ele>417.20001220703</ele>
        <time>2021-07-18T04:10:54.000Z</time>
      </trkpt>
      <trkpt lat="45.20976" lon="5.73295">
        <ele>417.79998779297</ele>
        <time>2021-07-18T04:10:56.000Z</time>
      </trkpt>
      <trkpt lat="45.20975" lon="5.73295">
        <ele>418.20001220703</ele>
        <time>2021-07-18T04:10:57.000Z</time>
      </trkpt>
      <trkpt lat="45.20973" lon="5.73295">
        <ele>418.60000610352</ele>
        <time>2021-07-18T04:10:59.000Z</time>
      </trkpt>
      <trkpt lat="45.20969" lon="5.73296">
        <ele>419.20001220703</ele>
        <time>2021-07-18T04:11:02.000Z</time>
      </trkpt>
      <trkpt lat="45.20967" lon="5.73294">
        <ele>419.39999389648</ele>
        <time>2021-07-18T04:11:04.000Z</time>
      </trkpt>
      <trkpt lat="45.20964" lon="5.73291">
        <ele>420.39999389648</ele>
        <time>2021-07-18T04:11:08.000Z</time>
      </trkpt>
      <trkpt lat="45.20963" lon="5.73291">
        <ele>420.60000610352</ele>
        <time>2021-07-18T04:11:09.000Z</time>
      </trkpt>
      <trkpt lat="45.20961" lon="5.73289">
        <ele>421.20001220703</ele>
        <time>2021-07-18T04:11:11.000Z</time>
      </trkpt>
      <trkpt lat="45.20961" lon="5.73289">
        <ele>421.20001220703</ele>
        <time>2021-07-18T04:11:12.000Z</time>
      </trkpt>
      <trkpt lat="45.20958" lon="5.73287">
        <ele>421.39999389648</ele>
        <time>2021-07-18T04:11:15.000Z</time>
      </trkpt>
      <trkpt lat="45.20956" lon="5.73287">
        <ele>422</ele>
        <time>2021-07-18T04:11:17.000Z</time>
      </trkpt>
      <trkpt lat="45.20954" lon="5.73288">
        <ele>422.39999389648</ele>
        <time>2021-07-18T04:11:19.000Z</time>
      </trkpt>
      <trkpt lat="45.20952" lon="5.73287">
        <ele>423</ele>
        <time>2021-07-18T04:11:21.000Z</time>
      </trkpt>
      <trkpt lat="45.20951" lon="5.73288">
        <ele>423.20001220703</ele>
        <time>2021-07-18T04:11:22.000Z</time>
      </trkpt>
      <trkpt lat="45.20951" lon="5.73288">
        <ele>423.39999389648</ele>
        <time>2021-07-18T04:11:23.000Z</time>
      </trkpt>
      <trkpt lat="45.20949" lon="5.73288">
        <ele>423.60000610352</ele>
        <time>2021-07-18T04:11:24.000Z</time>
      </trkpt>
      <trkpt lat="45.20946" lon="5.73286">
        <ele>424.60000610352</ele>
        <time>2021-07-18T04:11:28.000Z</time>
      </trkpt>
      <trkpt lat="45.20945" lon="5.73285">
        <ele>424.79998779297</ele>
        <time>2021-07-18T04:11:29.000Z</time>
      </trkpt>
      <trkpt lat="45.20944" lon="5.73284">
        <ele>425</ele>
        <time>2021-07-18T04:11:31.000Z</time>
      </trkpt>
      <trkpt lat="45.20941" lon="5.7328">
        <ele>425.79998779297</ele>
        <time>2021-07-18T04:11:34.000Z</time>
      </trkpt>
      <trkpt lat="45.2094" lon="5.7328">
        <ele>425.79998779297</ele>
        <time>2021-07-18T04:11:35.000Z</time>
      </trkpt>
      <trkpt lat="45.20935" lon="5.73277">
        <ele>426.79998779297</ele>
        <time>2021-07-18T04:11:39.000Z</time>
      </trkpt>
      <trkpt lat="45.20931" lon="5.73274">
        <ele>427</ele>
        <time>2021-07-18T04:11:42.000Z</time>
      </trkpt>
      <trkpt lat="45.20929" lon="5.73272">
        <ele>427.79998779297</ele>
        <time>2021-07-18T04:11:44.000Z</time>
      </trkpt>
      <trkpt lat="45.20927" lon="5.73271">
        <ele>428</ele>
        <time>2021-07-18T04:11:45.000Z</time>
      </trkpt>
      <trkpt lat="45.20925" lon="5.73271">
        <ele>428.20001220703</ele>
        <time>2021-07-18T04:11:47.000Z</time>
      </trkpt>
      <trkpt lat="45.20921" lon="5.73267">
        <ele>429</ele>
        <time>2021-07-18T04:11:51.000Z</time>
      </trkpt>
      <trkpt lat="45.20919" lon="5.73267">
        <ele>429.39999389648</ele>
        <time>2021-07-18T04:11:53.000Z</time>
      </trkpt>
      <trkpt lat="45.20917" lon="5.73267">
        <ele>430.20001220703</ele>
        <time>2021-07-18T04:11:55.000Z</time>
      </trkpt>
      <trkpt lat="45.20914" lon="5.73266">
        <ele>430.60000610352</ele>
        <time>2021-07-18T04:11:57.000Z</time>
      </trkpt>
      <trkpt lat="45.20911" lon="5.73261">
        <ele>431.20001220703</ele>
        <time>2021-07-18T04:12:00.000Z</time>
      </trkpt>
      <trkpt lat="45.20911" lon="5.7326">
        <ele>431.39999389648</ele>
        <time>2021-07-18T04:12:01.000Z</time>
      </trkpt>
      <trkpt lat="45.20911" lon="5.73259">
        <ele>431.39999389648</ele>
        <time>2021-07-18T04:12:02.000Z</time>
      </trkpt>
      <trkpt lat="45.20913" lon="5.73258">
        <ele>432.39999389648</ele>
        <time>2021-07-18T04:12:04.000Z</time>
      </trkpt>
      <trkpt lat="45.20913" lon="5.73257">
        <ele>432.60000610352</ele>
        <time>2021-07-18T04:12:05.000Z</time>
      </trkpt>
      <trkpt lat="45.20914" lon="5.73256">
        <ele>432.79998779297</ele>
        <time>2021-07-18T04:12:06.000Z</time>
      </trkpt>
      <trkpt lat="45.20915" lon="5.73256">
        <ele>432.79998779297</ele>
        <time>2021-07-18T04:12:07.000Z</time>
      </trkpt>
      <trkpt lat="45.20918" lon="5.73256">
        <ele>433.60000610352</ele>
        <time>2021-07-18T04:12:11.000Z</time>
      </trkpt>
      <trkpt lat="45.20922" lon="5.73257">
        <ele>434.79998779297</ele>
        <time>2021-07-18T04:12:16.000Z</time>
      </trkpt>
      <trkpt lat="45.20923" lon="5.73257">
        <ele>435</ele>
        <time>2021-07-18T04:12:17.000Z</time>
      </trkpt>
      <trkpt lat="45.20924" lon="5.73258">
        <ele>435</ele>
        <time>2021-07-18T04:12:18.000Z</time>
      </trkpt>
      <trkpt lat="45.20927" lon="5.73259">
        <ele>436.20001220703</ele>
        <time>2021-07-18T04:12:22.000Z</time>
      </trkpt>
      <trkpt lat="45.20929" lon="5.73261">
        <ele>436.39999389648</ele>
        <time>2021-07-18T04:12:24.000Z</time>
      </trkpt>
      <trkpt lat="45.20931" lon="5.73264">
        <ele>437.20001220703</ele>
        <time>2021-07-18T04:12:27.000Z</time>
      </trkpt>
      <trkpt lat="45.20936" lon="5.73266">
        <ele>438</ele>
        <time>2021-07-18T04:12:31.000Z</time>
      </trkpt>
      <trkpt lat="45.20937" lon="5.73266">
        <ele>438.39999389648</ele>
        <time>2021-07-18T04:12:33.000Z</time>
      </trkpt>
      <trkpt lat="45.20938" lon="5.73266">
        <ele>439</ele>
        <time>2021-07-18T04:12:36.000Z</time>
      </trkpt>
      <trkpt lat="45.20939" lon="5.73264">
        <ele>440</ele>
        <time>2021-07-18T04:12:38.000Z</time>
      </trkpt>
      <trkpt lat="45.20944" lon="5.73261">
        <ele>440.20001220703</ele>
        <time>2021-07-18T04:12:40.000Z</time>
      </trkpt>
      <trkpt lat="45.20946" lon="5.7326">
        <ele>440.20001220703</ele>
        <time>2021-07-18T04:12:41.000Z</time>
      </trkpt>
      <trkpt lat="45.20951" lon="5.73257">
        <ele>441</ele>
        <time>2021-07-18T04:12:44.000Z</time>
      </trkpt>
      <trkpt lat="45.20951" lon="5.73256">
        <ele>441.20001220703</ele>
        <time>2021-07-18T04:12:45.000Z</time>
      </trkpt>
      <trkpt lat="45.20952" lon="5.73256">
        <ele>441.39999389648</ele>
        <time>2021-07-18T04:12:46.000Z</time>
      </trkpt>
      <trkpt lat="45.20953" lon="5.73256">
        <ele>441.39999389648</ele>
        <time>2021-07-18T04:12:47.000Z</time>
      </trkpt>
      <trkpt lat="45.20955" lon="5.73256">
        <ele>442.20001220703</ele>
        <time>2021-07-18T04:12:49.000Z</time>
      </trkpt>
      <trkpt lat="45.20957" lon="5.73255">
        <ele>442.39999389648</ele>
        <time>2021-07-18T04:12:51.000Z</time>
      </trkpt>
      <trkpt lat="45.20961" lon="5.73255">
        <ele>443.39999389648</ele>
        <time>2021-07-18T04:12:54.000Z</time>
      </trkpt>
      <trkpt lat="45.20963" lon="5.73254">
        <ele>443.60000610352</ele>
        <time>2021-07-18T04:12:56.000Z</time>
      </trkpt>
      <trkpt lat="45.20964" lon="5.73254">
        <ele>443.79998779297</ele>
        <time>2021-07-18T04:12:57.000Z</time>
      </trkpt>
      <trkpt lat="45.20968" lon="5.73252">
        <ele>444.60000610352</ele>
        <time>2021-07-18T04:13:01.000Z</time>
      </trkpt>
      <trkpt lat="45.20969" lon="5.73252">
        <ele>445</ele>
        <time>2021-07-18T04:13:02.000Z</time>
      </trkpt>
      <trkpt lat="45.20978" lon="5.73248">
        <ele>446</ele>
        <time>2021-07-18T04:13:06.000Z</time>
      </trkpt>
      <trkpt lat="45.20979" lon="5.73247">
        <ele>446.60000610352</ele>
        <time>2021-07-18T04:13:08.000Z</time>
      </trkpt>
      <trkpt lat="45.20979" lon="5.73247">
        <ele>446.79998779297</ele>
        <time>2021-07-18T04:13:10.000Z</time>
      </trkpt>
      <trkpt lat="45.20978" lon="5.73247">
        <ele>447.20001220703</ele>
        <time>2021-07-18T04:13:11.000Z</time>
      </trkpt>
      <trkpt lat="45.20973" lon="5.73245">
        <ele>448.39999389648</ele>
        <time>2021-07-18T04:13:16.000Z</time>
      </trkpt>
      <trkpt lat="45.20969" lon="5.73243">
        <ele>449.20001220703</ele>
        <time>2021-07-18T04:13:21.000Z</time>
      </trkpt>
      <trkpt lat="45.20968" lon="5.73242">
        <ele>449.39999389648</ele>
        <time>2021-07-18T04:13:22.000Z</time>
      </trkpt>
      <trkpt lat="45.20967" lon="5.7324">
        <ele>449.39999389648</ele>
        <time>2021-07-18T04:13:23.000Z</time>
      </trkpt>
      <trkpt lat="45.20966" lon="5.73238">
        <ele>449.79998779297</ele>
        <time>2021-07-18T04:13:25.000Z</time>
      </trkpt>
      <trkpt lat="45.20964" lon="5.73237">
        <ele>450.39999389648</ele>
        <time>2021-07-18T04:13:27.000Z</time>
      </trkpt>
      <trkpt lat="45.20963" lon="5.73236">
        <ele>450.39999389648</ele>
        <time>2021-07-18T04:13:28.000Z</time>
      </trkpt>
      <trkpt lat="45.20962" lon="5.73236">
        <ele>451</ele>
        <time>2021-07-18T04:13:29.000Z</time>
      </trkpt>
      <trkpt lat="45.20958" lon="5.73239">
        <ele>451.60000610352</ele>
        <time>2021-07-18T04:13:32.000Z</time>
      </trkpt>
      <trkpt lat="45.20952" lon="5.73242">
        <ele>452.20001220703</ele>
        <time>2021-07-18T04:13:37.000Z</time>
      </trkpt>
      <trkpt lat="45.20949" lon="5.73242">
        <ele>452.79998779297</ele>
        <time>2021-07-18T04:13:40.000Z</time>
      </trkpt>
      <trkpt lat="45.20946" lon="5.73241">
        <ele>453.79998779297</ele>
        <time>2021-07-18T04:13:43.000Z</time>
      </trkpt>
      <trkpt lat="45.20944" lon="5.73241">
        <ele>454</ele>
        <time>2021-07-18T04:13:45.000Z</time>
      </trkpt>
      <trkpt lat="45.20943" lon="5.73241">
        <ele>454.20001220703</ele>
        <time>2021-07-18T04:13:46.000Z</time>
      </trkpt>
      <trkpt lat="45.20941" lon="5.73241">
        <ele>454.20001220703</ele>
        <time>2021-07-18T04:13:47.000Z</time>
      </trkpt>
      <trkpt lat="45.20939" lon="5.73239">
        <ele>454.60000610352</ele>
        <time>2021-07-18T04:13:49.000Z</time>
      </trkpt>
      <trkpt lat="45.20938" lon="5.73238">
        <ele>455</ele>
        <time>2021-07-18T04:13:50.000Z</time>
      </trkpt>
      <trkpt lat="45.20935" lon="5.73235">
        <ele>455.39999389648</ele>
        <time>2021-07-18T04:13:53.000Z</time>
      </trkpt>
      <trkpt lat="45.20932" lon="5.73234">
        <ele>455.79998779297</ele>
        <time>2021-07-18T04:13:55.000Z</time>
      </trkpt>
      <trkpt lat="45.20931" lon="5.73234">
        <ele>456</ele>
        <time>2021-07-18T04:13:56.000Z</time>
      </trkpt>
      <trkpt lat="45.20931" lon="5.7323">
        <ele>456.20001220703</ele>
        <time>2021-07-18T04:13:57.000Z</time>
      </trkpt>
      <trkpt lat="45.20931" lon="5.73222">
        <ele>457</ele>
        <time>2021-07-18T04:14:00.000Z</time>
      </trkpt>
      <trkpt lat="45.20932" lon="5.73221">
        <ele>457</ele>
        <time>2021-07-18T04:14:02.000Z</time>
      </trkpt>
      <trkpt lat="45.20933" lon="5.73221">
        <ele>457.60000610352</ele>
        <time>2021-07-18T04:14:03.000Z</time>
      </trkpt>
      <trkpt lat="45.20936" lon="5.73221">
        <ele>458.39999389648</ele>
        <time>2021-07-18T04:14:06.000Z</time>
      </trkpt>
      <trkpt lat="45.20938" lon="5.73221">
        <ele>458.79998779297</ele>
        <time>2021-07-18T04:14:08.000Z</time>
      </trkpt>
      <trkpt lat="45.20941" lon="5.73222">
        <ele>459.39999389648</ele>
        <time>2021-07-18T04:14:12.000Z</time>
      </trkpt>
      <trkpt lat="45.20942" lon="5.73223">
        <ele>459.79998779297</ele>
        <time>2021-07-18T04:14:14.000Z</time>
      </trkpt>
      <trkpt lat="45.20946" lon="5.73222">
        <ele>460.39999389648</ele>
        <time>2021-07-18T04:14:18.000Z</time>
      </trkpt>
      <trkpt lat="45.20947" lon="5.7322">
        <ele>461</ele>
        <time>2021-07-18T04:14:20.000Z</time>
      </trkpt>
      <trkpt lat="45.20951" lon="5.73218">
        <ele>462.20001220703</ele>
        <time>2021-07-18T04:14:26.000Z</time>
      </trkpt>
      <trkpt lat="45.20952" lon="5.73218">
        <ele>462.39999389648</ele>
        <time>2021-07-18T04:14:27.000Z</time>
      </trkpt>
      <trkpt lat="45.20956" lon="5.7322">
        <ele>463.20001220703</ele>
        <time>2021-07-18T04:14:31.000Z</time>
      </trkpt>
      <trkpt lat="45.20958" lon="5.73221">
        <ele>463.60000610352</ele>
        <time>2021-07-18T04:14:33.000Z</time>
      </trkpt>
      <trkpt lat="45.20962" lon="5.7322">
        <ele>464.60000610352</ele>
        <time>2021-07-18T04:14:36.000Z</time>
      </trkpt>
      <trkpt lat="45.20963" lon="5.7322">
        <ele>464.60000610352</ele>
        <time>2021-07-18T04:14:37.000Z</time>
      </trkpt>
      <trkpt lat="45.20966" lon="5.7322">
        <ele>464.79998779297</ele>
        <time>2021-07-18T04:14:39.000Z</time>
      </trkpt>
      <trkpt lat="45.2097" lon="5.73217">
        <ele>465.79998779297</ele>
        <time>2021-07-18T04:14:43.000Z</time>
      </trkpt>
      <trkpt lat="45.20973" lon="5.73216">
        <ele>466.39999389648</ele>
        <time>2021-07-18T04:14:46.000Z</time>
      </trkpt>
      <trkpt lat="45.20977" lon="5.73214">
        <ele>467.39999389648</ele>
        <time>2021-07-18T04:14:49.000Z</time>
      </trkpt>
      <trkpt lat="45.20979" lon="5.73213">
        <ele>467.39999389648</ele>
        <time>2021-07-18T04:14:50.000Z</time>
      </trkpt>
      <trkpt lat="45.20979" lon="5.73211">
        <ele>467.60000610352</ele>
        <time>2021-07-18T04:14:52.000Z</time>
      </trkpt>
      <trkpt lat="45.20977" lon="5.73212">
        <ele>468.20001220703</ele>
        <time>2021-07-18T04:14:55.000Z</time>
      </trkpt>
      <trkpt lat="45.20976" lon="5.73213">
        <ele>468.39999389648</ele>
        <time>2021-07-18T04:14:56.000Z</time>
      </trkpt>
      <trkpt lat="45.20975" lon="5.73213">
        <ele>469</ele>
        <time>2021-07-18T04:14:57.000Z</time>
      </trkpt>
      <trkpt lat="45.20971" lon="5.73213">
        <ele>469.60000610352</ele>
        <time>2021-07-18T04:15:02.000Z</time>
      </trkpt>
      <trkpt lat="45.2097" lon="5.73212">
        <ele>470</ele>
        <time>2021-07-18T04:15:04.000Z</time>
      </trkpt>
      <trkpt lat="45.20972" lon="5.73212">
        <ele>470.60000610352</ele>
        <time>2021-07-18T04:15:06.000Z</time>
      </trkpt>
      <trkpt lat="45.20972" lon="5.73211">
        <ele>470.79998779297</ele>
        <time>2021-07-18T04:15:07.000Z</time>
      </trkpt>
      <trkpt lat="45.20973" lon="5.73211">
        <ele>471</ele>
        <time>2021-07-18T04:15:08.000Z</time>
      </trkpt>
      <trkpt lat="45.20974" lon="5.73211">
        <ele>471.79998779297</ele>
        <time>2021-07-18T04:15:09.000Z</time>
      </trkpt>
      <trkpt lat="45.20979" lon="5.73208">
        <ele>472.39999389648</ele>
        <time>2021-07-18T04:15:14.000Z</time>
      </trkpt>
      <trkpt lat="45.20981" lon="5.73207">
        <ele>472.79998779297</ele>
        <time>2021-07-18T04:15:15.000Z</time>
      </trkpt>
      <trkpt lat="45.20982" lon="5.73207">
        <ele>472.79998779297</ele>
        <time>2021-07-18T04:15:16.000Z</time>
      </trkpt>
      <trkpt lat="45.20983" lon="5.73206">
        <ele>473.39999389648</ele>
        <time>2021-07-18T04:15:17.000Z</time>
      </trkpt>
      <trkpt lat="45.20985" lon="5.73201">
        <ele>473.39999389648</ele>
        <time>2021-07-18T04:15:20.000Z</time>
      </trkpt>
      <trkpt lat="45.20986" lon="5.73199">
        <ele>473.39999389648</ele>
        <time>2021-07-18T04:15:21.000Z</time>
      </trkpt>
      <trkpt lat="45.20988" lon="5.73197">
        <ele>474.39999389648</ele>
        <time>2021-07-18T04:15:23.000Z</time>
      </trkpt>
      <trkpt lat="45.20991" lon="5.73193">
        <ele>474.79998779297</ele>
        <time>2021-07-18T04:15:26.000Z</time>
      </trkpt>
      <trkpt lat="45.20992" lon="5.73192">
        <ele>474.79998779297</ele>
        <time>2021-07-18T04:15:27.000Z</time>
      </trkpt>
      <trkpt lat="45.20994" lon="5.73189">
        <ele>475.39999389648</ele>
        <time>2021-07-18T04:15:29.000Z</time>
      </trkpt>
      <trkpt lat="45.20995" lon="5.73188">
        <ele>475.60000610352</ele>
        <time>2021-07-18T04:15:30.000Z</time>
      </trkpt>
      <trkpt lat="45.20999" lon="5.73185">
        <ele>476.39999389648</ele>
        <time>2021-07-18T04:15:32.000Z</time>
      </trkpt>
      <trkpt lat="45.21002" lon="5.73181">
        <ele>477.20001220703</ele>
        <time>2021-07-18T04:15:36.000Z</time>
      </trkpt>
      <trkpt lat="45.21004" lon="5.73181">
        <ele>478.39999389648</ele>
        <time>2021-07-18T04:15:38.000Z</time>
      </trkpt>
      <trkpt lat="45.21005" lon="5.73179">
        <ele>478.39999389648</ele>
        <time>2021-07-18T04:15:39.000Z</time>
      </trkpt>
      <trkpt lat="45.21006" lon="5.73178">
        <ele>478.39999389648</ele>
        <time>2021-07-18T04:15:40.000Z</time>
      </trkpt>
      <trkpt lat="45.21013" lon="5.73172">
        <ele>479.60000610352</ele>
        <time>2021-07-18T04:15:45.000Z</time>
      </trkpt>
      <trkpt lat="45.21013" lon="5.73172">
        <ele>479.79998779297</ele>
        <time>2021-07-18T04:15:46.000Z</time>
      </trkpt>
      <trkpt lat="45.21014" lon="5.7317">
        <ele>480</ele>
        <time>2021-07-18T04:15:48.000Z</time>
      </trkpt>
      <trkpt lat="45.21014" lon="5.7317">
        <ele>480.20001220703</ele>
        <time>2021-07-18T04:15:50.000Z</time>
      </trkpt>
      <trkpt lat="45.21015" lon="5.73171">
        <ele>480.39999389648</ele>
        <time>2021-07-18T04:15:51.000Z</time>
      </trkpt>
      <trkpt lat="45.21016" lon="5.73173">
        <ele>480.79998779297</ele>
        <time>2021-07-18T04:15:52.000Z</time>
      </trkpt>
      <trkpt lat="45.21017" lon="5.73176">
        <ele>481</ele>
        <time>2021-07-18T04:15:54.000Z</time>
      </trkpt>
      <trkpt lat="45.21019" lon="5.73176">
        <ele>481.20001220703</ele>
        <time>2021-07-18T04:15:56.000Z</time>
      </trkpt>
      <trkpt lat="45.21022" lon="5.73175">
        <ele>482</ele>
        <time>2021-07-18T04:15:59.000Z</time>
      </trkpt>
      <trkpt lat="45.21023" lon="5.73176">
        <ele>482.20001220703</ele>
        <time>2021-07-18T04:16:01.000Z</time>
      </trkpt>
      <trkpt lat="45.21024" lon="5.73177">
        <ele>482.39999389648</ele>
        <time>2021-07-18T04:16:02.000Z</time>
      </trkpt>
      <trkpt lat="45.21025" lon="5.73177">
        <ele>482.79998779297</ele>
        <time>2021-07-18T04:16:03.000Z</time>
      </trkpt>
      <trkpt lat="45.21026" lon="5.73178">
        <ele>483.20001220703</ele>
        <time>2021-07-18T04:16:04.000Z</time>
      </trkpt>
      <trkpt lat="45.21028" lon="5.7318">
        <ele>483.20001220703</ele>
        <time>2021-07-18T04:16:05.000Z</time>
      </trkpt>
      <trkpt lat="45.21031" lon="5.73179">
        <ele>483.60000610352</ele>
        <time>2021-07-18T04:16:07.000Z</time>
      </trkpt>
      <trkpt lat="45.21033" lon="5.73179">
        <ele>484.39999389648</ele>
        <time>2021-07-18T04:16:09.000Z</time>
      </trkpt>
      <trkpt lat="45.21037" lon="5.73182">
        <ele>484.79998779297</ele>
        <time>2021-07-18T04:16:12.000Z</time>
      </trkpt>
      <trkpt lat="45.21039" lon="5.7318">
        <ele>485.39999389648</ele>
        <time>2021-07-18T04:16:14.000Z</time>
      </trkpt>
      <trkpt lat="45.21047" lon="5.73178">
        <ele>486.60000610352</ele>
        <time>2021-07-18T04:16:18.000Z</time>
      </trkpt>
      <trkpt lat="45.21049" lon="5.7318">
        <ele>486.60000610352</ele>
        <time>2021-07-18T04:16:19.000Z</time>
      </trkpt>
      <trkpt lat="45.21051" lon="5.73181">
        <ele>486.79998779297</ele>
        <time>2021-07-18T04:16:20.000Z</time>
      </trkpt>
      <trkpt lat="45.21053" lon="5.73183">
        <ele>487.79998779297</ele>
        <time>2021-07-18T04:16:23.000Z</time>
      </trkpt>
      <trkpt lat="45.21054" lon="5.73183">
        <ele>487.79998779297</ele>
        <time>2021-07-18T04:16:24.000Z</time>
      </trkpt>
      <trkpt lat="45.2106" lon="5.73185">
        <ele>488.60000610352</ele>
        <time>2021-07-18T04:16:28.000Z</time>
      </trkpt>
      <trkpt lat="45.21061" lon="5.73185">
        <ele>488.60000610352</ele>
        <time>2021-07-18T04:16:29.000Z</time>
      </trkpt>
      <trkpt lat="45.21061" lon="5.73187">
        <ele>488.79998779297</ele>
        <time>2021-07-18T04:16:30.000Z</time>
      </trkpt>
      <trkpt lat="45.21069" lon="5.7319">
        <ele>489.79998779297</ele>
        <time>2021-07-18T04:16:35.000Z</time>
      </trkpt>
      <trkpt lat="45.2107" lon="5.73192">
        <ele>490</ele>
        <time>2021-07-18T04:16:36.000Z</time>
      </trkpt>
      <trkpt lat="45.21073" lon="5.73196">
        <ele>490.60000610352</ele>
        <time>2021-07-18T04:16:38.000Z</time>
      </trkpt>
      <trkpt lat="45.21075" lon="5.73197">
        <ele>490.79998779297</ele>
        <time>2021-07-18T04:16:40.000Z</time>
      </trkpt>
      <trkpt lat="45.21076" lon="5.73198">
        <ele>491.20001220703</ele>
        <time>2021-07-18T04:16:41.000Z</time>
      </trkpt>
      <trkpt lat="45.21081" lon="5.73198">
        <ele>492.39999389648</ele>
        <time>2021-07-18T04:16:46.000Z</time>
      </trkpt>
      <trkpt lat="45.2108" lon="5.73199">
        <ele>492.39999389648</ele>
        <time>2021-07-18T04:16:47.000Z</time>
      </trkpt>
      <trkpt lat="45.2108" lon="5.732">
        <ele>493.39999389648</ele>
        <time>2021-07-18T04:16:49.000Z</time>
      </trkpt>
      <trkpt lat="45.21079" lon="5.732">
        <ele>493.39999389648</ele>
        <time>2021-07-18T04:16:50.000Z</time>
      </trkpt>
      <trkpt lat="45.21077" lon="5.73201">
        <ele>493.60000610352</ele>
        <time>2021-07-18T04:16:52.000Z</time>
      </trkpt>
      <trkpt lat="45.21077" lon="5.73199">
        <ele>494</ele>
        <time>2021-07-18T04:16:54.000Z</time>
      </trkpt>
      <trkpt lat="45.21077" lon="5.73197">
        <ele>494.79998779297</ele>
        <time>2021-07-18T04:16:56.000Z</time>
      </trkpt>
      <trkpt lat="45.21076" lon="5.73196">
        <ele>494.79998779297</ele>
        <time>2021-07-18T04:16:57.000Z</time>
      </trkpt>
      <trkpt lat="45.21075" lon="5.73194">
        <ele>495</ele>
        <time>2021-07-18T04:16:59.000Z</time>
      </trkpt>
      <trkpt lat="45.21074" lon="5.73192">
        <ele>496</ele>
        <time>2021-07-18T04:17:01.000Z</time>
      </trkpt>
      <trkpt lat="45.21073" lon="5.7319">
        <ele>496</ele>
        <time>2021-07-18T04:17:02.000Z</time>
      </trkpt>
      <trkpt lat="45.21072" lon="5.73188">
        <ele>496.20001220703</ele>
        <time>2021-07-18T04:17:04.000Z</time>
      </trkpt>
      <trkpt lat="45.21069" lon="5.73186">
        <ele>496.79998779297</ele>
        <time>2021-07-18T04:17:07.000Z</time>
      </trkpt>
      <trkpt lat="45.21069" lon="5.73185">
        <ele>497</ele>
        <time>2021-07-18T04:17:08.000Z</time>
      </trkpt>
      <trkpt lat="45.21069" lon="5.73184">
        <ele>497</ele>
        <time>2021-07-18T04:17:09.000Z</time>
      </trkpt>
      <trkpt lat="45.21068" lon="5.73182">
        <ele>497.20001220703</ele>
        <time>2021-07-18T04:17:11.000Z</time>
      </trkpt>
      <trkpt lat="45.21066" lon="5.73182">
        <ele>497.79998779297</ele>
        <time>2021-07-18T04:17:13.000Z</time>
      </trkpt>
      <trkpt lat="45.21066" lon="5.73182">
        <ele>498.39999389648</ele>
        <time>2021-07-18T04:17:14.000Z</time>
      </trkpt>
      <trkpt lat="45.21064" lon="5.73182">
        <ele>499</ele>
        <time>2021-07-18T04:17:17.000Z</time>
      </trkpt>
      <trkpt lat="45.21063" lon="5.73178">
        <ele>499.39999389648</ele>
        <time>2021-07-18T04:17:20.000Z</time>
      </trkpt>
      <trkpt lat="45.21063" lon="5.73177">
        <ele>499.79998779297</ele>
        <time>2021-07-18T04:17:21.000Z</time>
      </trkpt>
      <trkpt lat="45.21062" lon="5.73175">
        <ele>499.79998779297</ele>
        <time>2021-07-18T04:17:22.000Z</time>
      </trkpt>
      <trkpt lat="45.21061" lon="5.73172">
        <ele>500.60000610352</ele>
        <time>2021-07-18T04:17:24.000Z</time>
      </trkpt>
      <trkpt lat="45.21058" lon="5.73171">
        <ele>501.20001220703</ele>
        <time>2021-07-18T04:17:27.000Z</time>
      </trkpt>
      <trkpt lat="45.21056" lon="5.73172">
        <ele>501.20001220703</ele>
        <time>2021-07-18T04:17:28.000Z</time>
      </trkpt>
      <trkpt lat="45.21055" lon="5.73173">
        <ele>501.60000610352</ele>
        <time>2021-07-18T04:17:29.000Z</time>
      </trkpt>
      <trkpt lat="45.21047" lon="5.73174">
        <ele>502.60000610352</ele>
        <time>2021-07-18T04:17:34.000Z</time>
      </trkpt>
      <trkpt lat="45.21046" lon="5.73173">
        <ele>502.79998779297</ele>
        <time>2021-07-18T04:17:35.000Z</time>
      </trkpt>
      <trkpt lat="45.21041" lon="5.73166">
        <ele>503.79998779297</ele>
        <time>2021-07-18T04:17:39.000Z</time>
      </trkpt>
      <trkpt lat="45.21037" lon="5.73164">
        <ele>504.20001220703</ele>
        <time>2021-07-18T04:17:41.000Z</time>
      </trkpt>
      <trkpt lat="45.21034" lon="5.73161">
        <ele>504.79998779297</ele>
        <time>2021-07-18T04:17:44.000Z</time>
      </trkpt>
      <trkpt lat="45.21033" lon="5.73158">
        <ele>505.39999389648</ele>
        <time>2021-07-18T04:17:46.000Z</time>
      </trkpt>
      <trkpt lat="45.21031" lon="5.73157">
        <ele>505.60000610352</ele>
        <time>2021-07-18T04:17:47.000Z</time>
      </trkpt>
      <trkpt lat="45.21031" lon="5.73155">
        <ele>505.79998779297</ele>
        <time>2021-07-18T04:17:48.000Z</time>
      </trkpt>
      <trkpt lat="45.2103" lon="5.73154">
        <ele>505.79998779297</ele>
        <time>2021-07-18T04:17:49.000Z</time>
      </trkpt>
      <trkpt lat="45.21028" lon="5.73148">
        <ele>506.79998779297</ele>
        <time>2021-07-18T04:17:53.000Z</time>
      </trkpt>
      <trkpt lat="45.21025" lon="5.73143">
        <ele>508</ele>
        <time>2021-07-18T04:17:58.000Z</time>
      </trkpt>
      <trkpt lat="45.21024" lon="5.73143">
        <ele>508.60000610352</ele>
        <time>2021-07-18T04:17:59.000Z</time>
      </trkpt>
      <trkpt lat="45.21024" lon="5.73143">
        <ele>509.20001220703</ele>
        <time>2021-07-18T04:18:01.000Z</time>
      </trkpt>
      <trkpt lat="45.21024" lon="5.73143">
        <ele>509.60000610352</ele>
        <time>2021-07-18T04:18:02.000Z</time>
      </trkpt>
      <trkpt lat="45.21022" lon="5.7314">
        <ele>510.39999389648</ele>
        <time>2021-07-18T04:18:05.000Z</time>
      </trkpt>
      <trkpt lat="45.21018" lon="5.73139">
        <ele>510.79998779297</ele>
        <time>2021-07-18T04:18:11.000Z</time>
      </trkpt>
      <trkpt lat="45.21017" lon="5.73138">
        <ele>511</ele>
        <time>2021-07-18T04:18:12.000Z</time>
      </trkpt>
      <trkpt lat="45.21016" lon="5.73139">
        <ele>511.60000610352</ele>
        <time>2021-07-18T04:18:14.000Z</time>
      </trkpt>
      <trkpt lat="45.21016" lon="5.73139">
        <ele>511.79998779297</ele>
        <time>2021-07-18T04:18:17.000Z</time>
      </trkpt>
      <trkpt lat="45.21011" lon="5.7314">
        <ele>512.20001220703</ele>
        <time>2021-07-18T04:18:21.000Z</time>
      </trkpt>
      <trkpt lat="45.21009" lon="5.73141">
        <ele>512.79998779297</ele>
        <time>2021-07-18T04:18:22.000Z</time>
      </trkpt>
      <trkpt lat="45.21007" lon="5.73142">
        <ele>512.79998779297</ele>
        <time>2021-07-18T04:18:23.000Z</time>
      </trkpt>
      <trkpt lat="45.21006" lon="5.73143">
        <ele>513.20001220703</ele>
        <time>2021-07-18T04:18:24.000Z</time>
      </trkpt>
      <trkpt lat="45.21003" lon="5.73145">
        <ele>513.79998779297</ele>
        <time>2021-07-18T04:18:27.000Z</time>
      </trkpt>
      <trkpt lat="45.21002" lon="5.73147">
        <ele>514.20001220703</ele>
        <time>2021-07-18T04:18:28.000Z</time>
      </trkpt>
      <trkpt lat="45.20998" lon="5.73151">
        <ele>515</ele>
        <time>2021-07-18T04:18:32.000Z</time>
      </trkpt>
      <trkpt lat="45.20997" lon="5.73151">
        <ele>515.40002441406</ele>
        <time>2021-07-18T04:18:33.000Z</time>
      </trkpt>
      <trkpt lat="45.20994" lon="5.73151">
        <ele>515.79998779297</ele>
        <time>2021-07-18T04:18:35.000Z</time>
      </trkpt>
      <trkpt lat="45.20988" lon="5.73152">
        <ele>516.59997558594</ele>
        <time>2021-07-18T04:18:38.000Z</time>
      </trkpt>
      <trkpt lat="45.20988" lon="5.73151">
        <ele>516.59997558594</ele>
        <time>2021-07-18T04:18:39.000Z</time>
      </trkpt>
      <trkpt lat="45.20989" lon="5.73145">
        <ele>517.59997558594</ele>
        <time>2021-07-18T04:18:43.000Z</time>
      </trkpt>
      <trkpt lat="45.2099" lon="5.73144">
        <ele>518</ele>
        <time>2021-07-18T04:18:44.000Z</time>
      </trkpt>
      <trkpt lat="45.2099" lon="5.73143">
        <ele>518</ele>
        <time>2021-07-18T04:18:45.000Z</time>
      </trkpt>
      <trkpt lat="45.20994" lon="5.73135">
        <ele>519.40002441406</ele>
        <time>2021-07-18T04:18:50.000Z</time>
      </trkpt>
      <trkpt lat="45.20994" lon="5.73135">
        <ele>519.59997558594</ele>
        <time>2021-07-18T04:18:51.000Z</time>
      </trkpt>
      <trkpt lat="45.20996" lon="5.73133">
        <ele>519.79998779297</ele>
        <time>2021-07-18T04:18:53.000Z</time>
      </trkpt>
      <trkpt lat="45.20996" lon="5.73132">
        <ele>519.79998779297</ele>
        <time>2021-07-18T04:18:54.000Z</time>
      </trkpt>
      <trkpt lat="45.20997" lon="5.7313">
        <ele>520.20001220703</ele>
        <time>2021-07-18T04:18:55.000Z</time>
      </trkpt>
      <trkpt lat="45.20999" lon="5.73129">
        <ele>520.59997558594</ele>
        <time>2021-07-18T04:18:56.000Z</time>
      </trkpt>
      <trkpt lat="45.21001" lon="5.73127">
        <ele>520.79998779297</ele>
        <time>2021-07-18T04:18:59.000Z</time>
      </trkpt>
      <trkpt lat="45.21001" lon="5.73125">
        <ele>521.79998779297</ele>
        <time>2021-07-18T04:19:00.000Z</time>
      </trkpt>
      <trkpt lat="45.21002" lon="5.73123">
        <ele>522.20001220703</ele>
        <time>2021-07-18T04:19:01.000Z</time>
      </trkpt>
      <trkpt lat="45.21009" lon="5.73113">
        <ele>523</ele>
        <time>2021-07-18T04:19:06.000Z</time>
      </trkpt>
      <trkpt lat="45.21011" lon="5.73109">
        <ele>523.40002441406</ele>
        <time>2021-07-18T04:19:08.000Z</time>
      </trkpt>
      <trkpt lat="45.21012" lon="5.73106">
        <ele>524.40002441406</ele>
        <time>2021-07-18T04:19:11.000Z</time>
      </trkpt>
      <trkpt lat="45.21013" lon="5.73106">
        <ele>524.79998779297</ele>
        <time>2021-07-18T04:19:13.000Z</time>
      </trkpt>
      <trkpt lat="45.21015" lon="5.73106">
        <ele>525</ele>
        <time>2021-07-18T04:19:15.000Z</time>
      </trkpt>
      <trkpt lat="45.21016" lon="5.73107">
        <ele>525.59997558594</ele>
        <time>2021-07-18T04:19:19.000Z</time>
      </trkpt>
      <trkpt lat="45.21016" lon="5.73107">
        <ele>525.59997558594</ele>
        <time>2021-07-18T04:19:20.000Z</time>
      </trkpt>
      <trkpt lat="45.21016" lon="5.73107">
        <ele>525.59997558594</ele>
        <time>2021-07-18T04:19:21.000Z</time>
      </trkpt>
      <trkpt lat="45.21018" lon="5.73105">
        <ele>525.79998779297</ele>
        <time>2021-07-18T04:19:23.000Z</time>
      </trkpt>
      <trkpt lat="45.21019" lon="5.73104">
        <ele>526</ele>
        <time>2021-07-18T04:19:25.000Z</time>
      </trkpt>
      <trkpt lat="45.21022" lon="5.73106">
        <ele>526.59997558594</ele>
        <time>2021-07-18T04:19:27.000Z</time>
      </trkpt>
      <trkpt lat="45.21023" lon="5.73106">
        <ele>526.79998779297</ele>
        <time>2021-07-18T04:19:28.000Z</time>
      </trkpt>
      <trkpt lat="45.21026" lon="5.73106">
        <ele>527.20001220703</ele>
        <time>2021-07-18T04:19:30.000Z</time>
      </trkpt>
      <trkpt lat="45.21028" lon="5.73106">
        <ele>527.59997558594</ele>
        <time>2021-07-18T04:19:32.000Z</time>
      </trkpt>
      <trkpt lat="45.21029" lon="5.73107">
        <ele>527.59997558594</ele>
        <time>2021-07-18T04:19:33.000Z</time>
      </trkpt>
      <trkpt lat="45.21038" lon="5.73109">
        <ele>528.59997558594</ele>
        <time>2021-07-18T04:19:38.000Z</time>
      </trkpt>
      <trkpt lat="45.2104" lon="5.7311">
        <ele>529.20001220703</ele>
        <time>2021-07-18T04:19:40.000Z</time>
      </trkpt>
      <trkpt lat="45.21045" lon="5.73112">
        <ele>530</ele>
        <time>2021-07-18T04:19:43.000Z</time>
      </trkpt>
      <trkpt lat="45.21046" lon="5.73112">
        <ele>530.20001220703</ele>
        <time>2021-07-18T04:19:44.000Z</time>
      </trkpt>
      <trkpt lat="45.21049" lon="5.73112">
        <ele>530.79998779297</ele>
        <time>2021-07-18T04:19:47.000Z</time>
      </trkpt>
      <trkpt lat="45.2105" lon="5.73113">
        <ele>531</ele>
        <time>2021-07-18T04:19:48.000Z</time>
      </trkpt>
      <trkpt lat="45.21054" lon="5.73115">
        <ele>531.20001220703</ele>
        <time>2021-07-18T04:19:50.000Z</time>
      </trkpt>
      <trkpt lat="45.21056" lon="5.73115">
        <ele>532.20001220703</ele>
        <time>2021-07-18T04:19:52.000Z</time>
      </trkpt>
      <trkpt lat="45.21057" lon="5.73114">
        <ele>532.40002441406</ele>
        <time>2021-07-18T04:19:53.000Z</time>
      </trkpt>
      <trkpt lat="45.2106" lon="5.73113">
        <ele>533.40002441406</ele>
        <time>2021-07-18T04:19:56.000Z</time>
      </trkpt>
      <trkpt lat="45.21063" lon="5.7311">
        <ele>533.59997558594</ele>
        <time>2021-07-18T04:19:58.000Z</time>
      </trkpt>
      <trkpt lat="45.21064" lon="5.73109">
        <ele>534</ele>
        <time>2021-07-18T04:19:59.000Z</time>
      </trkpt>
      <trkpt lat="45.21066" lon="5.73109">
        <ele>534.79998779297</ele>
        <time>2021-07-18T04:20:01.000Z</time>
      </trkpt>
      <trkpt lat="45.21068" lon="5.73111">
        <ele>534.79998779297</ele>
        <time>2021-07-18T04:20:03.000Z</time>
      </trkpt>
      <trkpt lat="45.21069" lon="5.73113">
        <ele>534.79998779297</ele>
        <time>2021-07-18T04:20:04.000Z</time>
      </trkpt>
      <trkpt lat="45.21073" lon="5.73119">
        <ele>536</ele>
        <time>2021-07-18T04:20:09.000Z</time>
      </trkpt>
      <trkpt lat="45.21074" lon="5.7312">
        <ele>536</ele>
        <time>2021-07-18T04:20:10.000Z</time>
      </trkpt>
      <trkpt lat="45.21079" lon="5.73122">
        <ele>536.40002441406</ele>
        <time>2021-07-18T04:20:13.000Z</time>
      </trkpt>
      <trkpt lat="45.21081" lon="5.73123">
        <ele>536.40002441406</ele>
        <time>2021-07-18T04:20:14.000Z</time>
      </trkpt>
      <trkpt lat="45.21085" lon="5.73125">
        <ele>537.20001220703</ele>
        <time>2021-07-18T04:20:17.000Z</time>
      </trkpt>
      <trkpt lat="45.21086" lon="5.73128">
        <ele>538</ele>
        <time>2021-07-18T04:20:19.000Z</time>
      </trkpt>
      <trkpt lat="45.21088" lon="5.7313">
        <ele>538.20001220703</ele>
        <time>2021-07-18T04:20:20.000Z</time>
      </trkpt>
      <trkpt lat="45.21095" lon="5.7314">
        <ele>539.40002441406</ele>
        <time>2021-07-18T04:20:26.000Z</time>
      </trkpt>
      <trkpt lat="45.21099" lon="5.73142">
        <ele>540.59997558594</ele>
        <time>2021-07-18T04:20:30.000Z</time>
      </trkpt>
      <trkpt lat="45.21101" lon="5.73141">
        <ele>541.40002441406</ele>
        <time>2021-07-18T04:20:32.000Z</time>
      </trkpt>
      <trkpt lat="45.21102" lon="5.73142">
        <ele>541.79998779297</ele>
        <time>2021-07-18T04:20:33.000Z</time>
      </trkpt>
      <trkpt lat="45.21105" lon="5.73142">
        <ele>542.20001220703</ele>
        <time>2021-07-18T04:20:35.000Z</time>
      </trkpt>
      <trkpt lat="45.21106" lon="5.73143">
        <ele>542.79998779297</ele>
        <time>2021-07-18T04:20:36.000Z</time>
      </trkpt>
      <trkpt lat="45.21107" lon="5.73143">
        <ele>543</ele>
        <time>2021-07-18T04:20:37.000Z</time>
      </trkpt>
      <trkpt lat="45.21108" lon="5.73143">
        <ele>543.20001220703</ele>
        <time>2021-07-18T04:20:38.000Z</time>
      </trkpt>
      <trkpt lat="45.2111" lon="5.73142">
        <ele>543.59997558594</ele>
        <time>2021-07-18T04:20:40.000Z</time>
      </trkpt>
      <trkpt lat="45.21111" lon="5.73142">
        <ele>543.79998779297</ele>
        <time>2021-07-18T04:20:41.000Z</time>
      </trkpt>
      <trkpt lat="45.21112" lon="5.73141">
        <ele>544.20001220703</ele>
        <time>2021-07-18T04:20:42.000Z</time>
      </trkpt>
      <trkpt lat="45.21114" lon="5.7314">
        <ele>544.20001220703</ele>
        <time>2021-07-18T04:20:44.000Z</time>
      </trkpt>
      <trkpt lat="45.21116" lon="5.7314">
        <ele>544.40002441406</ele>
        <time>2021-07-18T04:20:46.000Z</time>
      </trkpt>
      <trkpt lat="45.21121" lon="5.73139">
        <ele>545.20001220703</ele>
        <time>2021-07-18T04:20:49.000Z</time>
      </trkpt>
      <trkpt lat="45.21122" lon="5.73138">
        <ele>545.20001220703</ele>
        <time>2021-07-18T04:20:50.000Z</time>
      </trkpt>
      <trkpt lat="45.21125" lon="5.73137">
        <ele>545.40002441406</ele>
        <time>2021-07-18T04:20:51.000Z</time>
      </trkpt>
      <trkpt lat="45.21126" lon="5.73135">
        <ele>546.20001220703</ele>
        <time>2021-07-18T04:20:53.000Z</time>
      </trkpt>
      <trkpt lat="45.21127" lon="5.73135">
        <ele>547</ele>
        <time>2021-07-18T04:20:54.000Z</time>
      </trkpt>
      <trkpt lat="45.21128" lon="5.73138">
        <ele>547.20001220703</ele>
        <time>2021-07-18T04:20:56.000Z</time>
      </trkpt>
      <trkpt lat="45.21126" lon="5.73138">
        <ele>547.59997558594</ele>
        <time>2021-07-18T04:20:57.000Z</time>
      </trkpt>
      <trkpt lat="45.21125" lon="5.73138">
        <ele>548</ele>
        <time>2021-07-18T04:20:58.000Z</time>
      </trkpt>
      <trkpt lat="45.21124" lon="5.73138">
        <ele>548.40002441406</ele>
        <time>2021-07-18T04:20:59.000Z</time>
      </trkpt>
      <trkpt lat="45.21122" lon="5.73139">
        <ele>548.79998779297</ele>
        <time>2021-07-18T04:21:01.000Z</time>
      </trkpt>
      <trkpt lat="45.21119" lon="5.73139">
        <ele>549.40002441406</ele>
        <time>2021-07-18T04:21:04.000Z</time>
      </trkpt>
      <trkpt lat="45.21118" lon="5.73139">
        <ele>550</ele>
        <time>2021-07-18T04:21:05.000Z</time>
      </trkpt>
      <trkpt lat="45.21114" lon="5.7314">
        <ele>551.40002441406</ele>
        <time>2021-07-18T04:21:11.000Z</time>
      </trkpt>
      <trkpt lat="45.21112" lon="5.73142">
        <ele>551.40002441406</ele>
        <time>2021-07-18T04:21:13.000Z</time>
      </trkpt>
      <trkpt lat="45.21109" lon="5.73142">
        <ele>552.40002441406</ele>
        <time>2021-07-18T04:21:15.000Z</time>
      </trkpt>
      <trkpt lat="45.2111" lon="5.73141">
        <ele>552.79998779297</ele>
        <time>2021-07-18T04:21:17.000Z</time>
      </trkpt>
      <trkpt lat="45.21112" lon="5.73138">
        <ele>553.79998779297</ele>
        <time>2021-07-18T04:21:20.000Z</time>
      </trkpt>
      <trkpt lat="45.21113" lon="5.73137">
        <ele>553.79998779297</ele>
        <time>2021-07-18T04:21:21.000Z</time>
      </trkpt>
      <trkpt lat="45.21114" lon="5.73136">
        <ele>554</ele>
        <time>2021-07-18T04:21:22.000Z</time>
      </trkpt>
      <trkpt lat="45.21117" lon="5.73131">
        <ele>555</ele>
        <time>2021-07-18T04:21:25.000Z</time>
      </trkpt>
      <trkpt lat="45.21119" lon="5.73129">
        <ele>555.59997558594</ele>
        <time>2021-07-18T04:21:28.000Z</time>
      </trkpt>
      <trkpt lat="45.2112" lon="5.73128">
        <ele>556.20001220703</ele>
        <time>2021-07-18T04:21:30.000Z</time>
      </trkpt>
      <trkpt lat="45.21122" lon="5.73125">
        <ele>556.59997558594</ele>
        <time>2021-07-18T04:21:32.000Z</time>
      </trkpt>
      <trkpt lat="45.21125" lon="5.73124">
        <ele>557.59997558594</ele>
        <time>2021-07-18T04:21:35.000Z</time>
      </trkpt>
      <trkpt lat="45.21126" lon="5.73124">
        <ele>558</ele>
        <time>2021-07-18T04:21:37.000Z</time>
      </trkpt>
      <trkpt lat="45.21127" lon="5.73123">
        <ele>558</ele>
        <time>2021-07-18T04:21:38.000Z</time>
      </trkpt>
      <trkpt lat="45.21128" lon="5.73123">
        <ele>558.59997558594</ele>
        <time>2021-07-18T04:21:39.000Z</time>
      </trkpt>
      <trkpt lat="45.21131" lon="5.73122">
        <ele>559</ele>
        <time>2021-07-18T04:21:42.000Z</time>
      </trkpt>
      <trkpt lat="45.21132" lon="5.73122">
        <ele>559</ele>
        <time>2021-07-18T04:21:43.000Z</time>
      </trkpt>
      <trkpt lat="45.21133" lon="5.73121">
        <ele>559.79998779297</ele>
        <time>2021-07-18T04:21:44.000Z</time>
      </trkpt>
      <trkpt lat="45.21135" lon="5.73121">
        <ele>560.79998779297</ele>
        <time>2021-07-18T04:21:47.000Z</time>
      </trkpt>
      <trkpt lat="45.21136" lon="5.73121">
        <ele>561</ele>
        <time>2021-07-18T04:21:48.000Z</time>
      </trkpt>
      <trkpt lat="45.21137" lon="5.73122">
        <ele>561</ele>
        <time>2021-07-18T04:21:49.000Z</time>
      </trkpt>
      <trkpt lat="45.2114" lon="5.73123">
        <ele>561.20001220703</ele>
        <time>2021-07-18T04:21:52.000Z</time>
      </trkpt>
      <trkpt lat="45.21141" lon="5.73125">
        <ele>562.20001220703</ele>
        <time>2021-07-18T04:21:54.000Z</time>
      </trkpt>
      <trkpt lat="45.21146" lon="5.7313">
        <ele>563</ele>
        <time>2021-07-18T04:21:58.000Z</time>
      </trkpt>
      <trkpt lat="45.21147" lon="5.73131">
        <ele>563.20001220703</ele>
        <time>2021-07-18T04:21:59.000Z</time>
      </trkpt>
      <trkpt lat="45.21149" lon="5.73132">
        <ele>563.20001220703</ele>
        <time>2021-07-18T04:22:00.000Z</time>
      </trkpt>
      <trkpt lat="45.21155" lon="5.73135">
        <ele>564.40002441406</ele>
        <time>2021-07-18T04:22:04.000Z</time>
      </trkpt>
      <trkpt lat="45.21156" lon="5.73136">
        <ele>564.59997558594</ele>
        <time>2021-07-18T04:22:05.000Z</time>
      </trkpt>
      <trkpt lat="45.2116" lon="5.7314">
        <ele>565.79998779297</ele>
        <time>2021-07-18T04:22:09.000Z</time>
      </trkpt>
      <trkpt lat="45.21162" lon="5.73143">
        <ele>565.79998779297</ele>
        <time>2021-07-18T04:22:11.000Z</time>
      </trkpt>
      <trkpt lat="45.21164" lon="5.73145">
        <ele>566.79998779297</ele>
        <time>2021-07-18T04:22:14.000Z</time>
      </trkpt>
      <trkpt lat="45.21168" lon="5.7315">
        <ele>567.79998779297</ele>
        <time>2021-07-18T04:22:18.000Z</time>
      </trkpt>
      <trkpt lat="45.21169" lon="5.73151">
        <ele>568</ele>
        <time>2021-07-18T04:22:19.000Z</time>
      </trkpt>
      <trkpt lat="45.2117" lon="5.73152">
        <ele>568.40002441406</ele>
        <time>2021-07-18T04:22:20.000Z</time>
      </trkpt>
      <trkpt lat="45.21172" lon="5.73156">
        <ele>568.59997558594</ele>
        <time>2021-07-18T04:22:22.000Z</time>
      </trkpt>
      <trkpt lat="45.21174" lon="5.73157">
        <ele>569</ele>
        <time>2021-07-18T04:22:24.000Z</time>
      </trkpt>
      <trkpt lat="45.21176" lon="5.73158">
        <ele>570</ele>
        <time>2021-07-18T04:22:25.000Z</time>
      </trkpt>
      <trkpt lat="45.21179" lon="5.73162">
        <ele>570.40002441406</ele>
        <time>2021-07-18T04:22:28.000Z</time>
      </trkpt>
      <trkpt lat="45.2118" lon="5.73163">
        <ele>571</ele>
        <time>2021-07-18T04:22:29.000Z</time>
      </trkpt>
      <trkpt lat="45.2118" lon="5.73165">
        <ele>571</ele>
        <time>2021-07-18T04:22:30.000Z</time>
      </trkpt>
      <trkpt lat="45.21182" lon="5.73167">
        <ele>571.40002441406</ele>
        <time>2021-07-18T04:22:32.000Z</time>
      </trkpt>
      <trkpt lat="45.21186" lon="5.73168">
        <ele>572</ele>
        <time>2021-07-18T04:22:34.000Z</time>
      </trkpt>
      <trkpt lat="45.21187" lon="5.73169">
        <ele>572.20001220703</ele>
        <time>2021-07-18T04:22:35.000Z</time>
      </trkpt>
      <trkpt lat="45.21189" lon="5.73175">
        <ele>573</ele>
        <time>2021-07-18T04:22:38.000Z</time>
      </trkpt>
      <trkpt lat="45.2119" lon="5.73176">
        <ele>573.40002441406</ele>
        <time>2021-07-18T04:22:39.000Z</time>
      </trkpt>
      <trkpt lat="45.21193" lon="5.7318">
        <ele>573.79998779297</ele>
        <time>2021-07-18T04:22:41.000Z</time>
      </trkpt>
      <trkpt lat="45.21195" lon="5.73182">
        <ele>574.20001220703</ele>
        <time>2021-07-18T04:22:43.000Z</time>
      </trkpt>
      <trkpt lat="45.21196" lon="5.73183">
        <ele>574.40002441406</ele>
        <time>2021-07-18T04:22:44.000Z</time>
      </trkpt>
      <trkpt lat="45.21197" lon="5.73183">
        <ele>574.79998779297</ele>
        <time>2021-07-18T04:22:45.000Z</time>
      </trkpt>
      <trkpt lat="45.21198" lon="5.73184">
        <ele>575.20001220703</ele>
        <time>2021-07-18T04:22:46.000Z</time>
      </trkpt>
      <trkpt lat="45.21199" lon="5.73186">
        <ele>575.40002441406</ele>
        <time>2021-07-18T04:22:47.000Z</time>
      </trkpt>
      <trkpt lat="45.21201" lon="5.73189">
        <ele>575.59997558594</ele>
        <time>2021-07-18T04:22:48.000Z</time>
      </trkpt>
      <trkpt lat="45.21203" lon="5.73191">
        <ele>576.20001220703</ele>
        <time>2021-07-18T04:22:50.000Z</time>
      </trkpt>
      <trkpt lat="45.21206" lon="5.73192">
        <ele>576.40002441406</ele>
        <time>2021-07-18T04:22:52.000Z</time>
      </trkpt>
      <trkpt lat="45.21207" lon="5.73193">
        <ele>576.79998779297</ele>
        <time>2021-07-18T04:22:53.000Z</time>
      </trkpt>
      <trkpt lat="45.2121" lon="5.73197">
        <ele>578.20001220703</ele>
        <time>2021-07-18T04:22:57.000Z</time>
      </trkpt>
      <trkpt lat="45.21212" lon="5.73198">
        <ele>578.59997558594</ele>
        <time>2021-07-18T04:22:59.000Z</time>
      </trkpt>
      <trkpt lat="45.21216" lon="5.73203">
        <ele>579.40002441406</ele>
        <time>2021-07-18T04:23:03.000Z</time>
      </trkpt>
      <trkpt lat="45.21217" lon="5.73204">
        <ele>580</ele>
        <time>2021-07-18T04:23:04.000Z</time>
      </trkpt>
      <trkpt lat="45.21221" lon="5.73207">
        <ele>580.59997558594</ele>
        <time>2021-07-18T04:23:07.000Z</time>
      </trkpt>
      <trkpt lat="45.21227" lon="5.73211">
        <ele>581.40002441406</ele>
        <time>2021-07-18T04:23:11.000Z</time>
      </trkpt>
      <trkpt lat="45.21228" lon="5.73212">
        <ele>582</ele>
        <time>2021-07-18T04:23:12.000Z</time>
      </trkpt>
      <trkpt lat="45.21234" lon="5.73215">
        <ele>583.40002441406</ele>
        <time>2021-07-18T04:23:17.000Z</time>
      </trkpt>
      <trkpt lat="45.21236" lon="5.73217">
        <ele>583.59997558594</ele>
        <time>2021-07-18T04:23:19.000Z</time>
      </trkpt>
      <trkpt lat="45.21239" lon="5.73221">
        <ele>584.40002441406</ele>
        <time>2021-07-18T04:23:22.000Z</time>
      </trkpt>
      <trkpt lat="45.2124" lon="5.73222">
        <ele>584.59997558594</ele>
        <time>2021-07-18T04:23:23.000Z</time>
      </trkpt>
      <trkpt lat="45.21242" lon="5.73223">
        <ele>585.59997558594</ele>
        <time>2021-07-18T04:23:25.000Z</time>
      </trkpt>
      <trkpt lat="45.21242" lon="5.73225">
        <ele>585.79998779297</ele>
        <time>2021-07-18T04:23:26.000Z</time>
      </trkpt>
      <trkpt lat="45.21242" lon="5.73228">
        <ele>586.79998779297</ele>
        <time>2021-07-18T04:23:29.000Z</time>
      </trkpt>
      <trkpt lat="45.21242" lon="5.73229">
        <ele>587</ele>
        <time>2021-07-18T04:23:30.000Z</time>
      </trkpt>
      <trkpt lat="45.21243" lon="5.7323">
        <ele>587.20001220703</ele>
        <time>2021-07-18T04:23:31.000Z</time>
      </trkpt>
      <trkpt lat="45.21246" lon="5.73235">
        <ele>587.79998779297</ele>
        <time>2021-07-18T04:23:35.000Z</time>
      </trkpt>
      <trkpt lat="45.21247" lon="5.73236">
        <ele>588.59997558594</ele>
        <time>2021-07-18T04:23:36.000Z</time>
      </trkpt>
      <trkpt lat="45.21249" lon="5.73237">
        <ele>588.79998779297</ele>
        <time>2021-07-18T04:23:38.000Z</time>
      </trkpt>
      <trkpt lat="45.2125" lon="5.73239">
        <ele>589</ele>
        <time>2021-07-18T04:23:39.000Z</time>
      </trkpt>
      <trkpt lat="45.21251" lon="5.7324">
        <ele>589.40002441406</ele>
        <time>2021-07-18T04:23:40.000Z</time>
      </trkpt>
      <trkpt lat="45.21254" lon="5.73245">
        <ele>589.79998779297</ele>
        <time>2021-07-18T04:23:44.000Z</time>
      </trkpt>
      <trkpt lat="45.21255" lon="5.73246">
        <ele>590</ele>
        <time>2021-07-18T04:23:45.000Z</time>
      </trkpt>
      <trkpt lat="45.21256" lon="5.73247">
        <ele>590.40002441406</ele>
        <time>2021-07-18T04:23:46.000Z</time>
      </trkpt>
      <trkpt lat="45.2126" lon="5.73248">
        <ele>591</ele>
        <time>2021-07-18T04:23:49.000Z</time>
      </trkpt>
      <trkpt lat="45.21261" lon="5.73249">
        <ele>591.20001220703</ele>
        <time>2021-07-18T04:23:50.000Z</time>
      </trkpt>
      <trkpt lat="45.21265" lon="5.73251">
        <ele>592.20001220703</ele>
        <time>2021-07-18T04:23:54.000Z</time>
      </trkpt>
      <trkpt lat="45.21267" lon="5.73252">
        <ele>592.20001220703</ele>
        <time>2021-07-18T04:23:55.000Z</time>
      </trkpt>
      <trkpt lat="45.21267" lon="5.73254">
        <ele>593</ele>
        <time>2021-07-18T04:23:56.000Z</time>
      </trkpt>
      <trkpt lat="45.21269" lon="5.73255">
        <ele>593.40002441406</ele>
        <time>2021-07-18T04:23:58.000Z</time>
      </trkpt>
      <trkpt lat="45.21272" lon="5.73258">
        <ele>593.59997558594</ele>
        <time>2021-07-18T04:24:00.000Z</time>
      </trkpt>
      <trkpt lat="45.21273" lon="5.7326">
        <ele>594</ele>
        <time>2021-07-18T04:24:02.000Z</time>
      </trkpt>
      <trkpt lat="45.21274" lon="5.73261">
        <ele>594.79998779297</ele>
        <time>2021-07-18T04:24:03.000Z</time>
      </trkpt>
      <trkpt lat="45.21275" lon="5.73264">
        <ele>594.79998779297</ele>
        <time>2021-07-18T04:24:04.000Z</time>
      </trkpt>
      <trkpt lat="45.21277" lon="5.73269">
        <ele>595.59997558594</ele>
        <time>2021-07-18T04:24:07.000Z</time>
      </trkpt>
      <trkpt lat="45.21277" lon="5.7327">
        <ele>595.79998779297</ele>
        <time>2021-07-18T04:24:08.000Z</time>
      </trkpt>
      <trkpt lat="45.21279" lon="5.73272">
        <ele>596</ele>
        <time>2021-07-18T04:24:11.000Z</time>
      </trkpt>
      <trkpt lat="45.2128" lon="5.73274">
        <ele>596</ele>
        <time>2021-07-18T04:24:12.000Z</time>
      </trkpt>
      <trkpt lat="45.21283" lon="5.73275">
        <ele>597.20001220703</ele>
        <time>2021-07-18T04:24:13.000Z</time>
      </trkpt>
      <trkpt lat="45.21286" lon="5.73277">
        <ele>597.59997558594</ele>
        <time>2021-07-18T04:24:16.000Z</time>
      </trkpt>
      <trkpt lat="45.21286" lon="5.73279">
        <ele>597.79998779297</ele>
        <time>2021-07-18T04:24:17.000Z</time>
      </trkpt>
      <trkpt lat="45.21286" lon="5.73281">
        <ele>598.20001220703</ele>
        <time>2021-07-18T04:24:18.000Z</time>
      </trkpt>
      <trkpt lat="45.21286" lon="5.73283">
        <ele>598.20001220703</ele>
        <time>2021-07-18T04:24:19.000Z</time>
      </trkpt>
      <trkpt lat="45.21288" lon="5.73289">
        <ele>599</ele>
        <time>2021-07-18T04:24:23.000Z</time>
      </trkpt>
      <trkpt lat="45.21289" lon="5.7329">
        <ele>599.40002441406</ele>
        <time>2021-07-18T04:24:24.000Z</time>
      </trkpt>
      <trkpt lat="45.21292" lon="5.73292">
        <ele>599.59997558594</ele>
        <time>2021-07-18T04:24:26.000Z</time>
      </trkpt>
      <trkpt lat="45.21295" lon="5.73292">
        <ele>600.59997558594</ele>
        <time>2021-07-18T04:24:28.000Z</time>
      </trkpt>
      <trkpt lat="45.21296" lon="5.73292">
        <ele>600.59997558594</ele>
        <time>2021-07-18T04:24:29.000Z</time>
      </trkpt>
      <trkpt lat="45.21297" lon="5.73292">
        <ele>601</ele>
        <time>2021-07-18T04:24:31.000Z</time>
      </trkpt>
      <trkpt lat="45.21299" lon="5.7329">
        <ele>601.40002441406</ele>
        <time>2021-07-18T04:24:33.000Z</time>
      </trkpt>
      <trkpt lat="45.213" lon="5.7329">
        <ele>602</ele>
        <time>2021-07-18T04:24:34.000Z</time>
      </trkpt>
      <trkpt lat="45.21301" lon="5.73289">
        <ele>602.20001220703</ele>
        <time>2021-07-18T04:24:35.000Z</time>
      </trkpt>
      <trkpt lat="45.21305" lon="5.73288">
        <ele>603.79998779297</ele>
        <time>2021-07-18T04:24:39.000Z</time>
      </trkpt>
      <trkpt lat="45.21307" lon="5.73288">
        <ele>604</ele>
        <time>2021-07-18T04:24:40.000Z</time>
      </trkpt>
      <trkpt lat="45.21312" lon="5.73286">
        <ele>605</ele>
        <time>2021-07-18T04:24:44.000Z</time>
      </trkpt>
      <trkpt lat="45.21314" lon="5.73285">
        <ele>605</ele>
        <time>2021-07-18T04:24:45.000Z</time>
      </trkpt>
      <trkpt lat="45.21319" lon="5.73288">
        <ele>606.40002441406</ele>
        <time>2021-07-18T04:24:49.000Z</time>
      </trkpt>
      <trkpt lat="45.21321" lon="5.73289">
        <ele>607</ele>
        <time>2021-07-18T04:24:51.000Z</time>
      </trkpt>
      <trkpt lat="45.21322" lon="5.73289">
        <ele>607.40002441406</ele>
        <time>2021-07-18T04:24:53.000Z</time>
      </trkpt>
      <trkpt lat="45.21322" lon="5.73292">
        <ele>607.59997558594</ele>
        <time>2021-07-18T04:24:55.000Z</time>
      </trkpt>
      <trkpt lat="45.21323" lon="5.73294">
        <ele>607.59997558594</ele>
        <time>2021-07-18T04:24:56.000Z</time>
      </trkpt>
      <trkpt lat="45.21324" lon="5.73301">
        <ele>607.79998779297</ele>
        <time>2021-07-18T04:24:59.000Z</time>
      </trkpt>
      <trkpt lat="45.21326" lon="5.73305">
        <ele>608</ele>
        <time>2021-07-18T04:25:01.000Z</time>
      </trkpt>
      <trkpt lat="45.21327" lon="5.73305">
        <ele>608</ele>
        <time>2021-07-18T04:25:02.000Z</time>
      </trkpt>
      <trkpt lat="45.21329" lon="5.73307">
        <ele>608.40002441406</ele>
        <time>2021-07-18T04:25:04.000Z</time>
      </trkpt>
      <trkpt lat="45.21329" lon="5.73308">
        <ele>608.40002441406</ele>
        <time>2021-07-18T04:25:05.000Z</time>
      </trkpt>
      <trkpt lat="45.21331" lon="5.7331">
        <ele>608.79998779297</ele>
        <time>2021-07-18T04:25:06.000Z</time>
      </trkpt>
      <trkpt lat="45.21332" lon="5.7331">
        <ele>609</ele>
        <time>2021-07-18T04:25:07.000Z</time>
      </trkpt>
      <trkpt lat="45.21334" lon="5.73312">
        <ele>609.79998779297</ele>
        <time>2021-07-18T04:25:09.000Z</time>
      </trkpt>
      <trkpt lat="45.21338" lon="5.73314">
        <ele>610.59997558594</ele>
        <time>2021-07-18T04:25:12.000Z</time>
      </trkpt>
      <trkpt lat="45.21341" lon="5.73317">
        <ele>611</ele>
        <time>2021-07-18T04:25:14.000Z</time>
      </trkpt>
      <trkpt lat="45.21342" lon="5.73319">
        <ele>611</ele>
        <time>2021-07-18T04:25:15.000Z</time>
      </trkpt>
      <trkpt lat="45.21344" lon="5.73321">
        <ele>611.79998779297</ele>
        <time>2021-07-18T04:25:17.000Z</time>
      </trkpt>
      <trkpt lat="45.21346" lon="5.73323">
        <ele>612.20001220703</ele>
        <time>2021-07-18T04:25:19.000Z</time>
      </trkpt>
      <trkpt lat="45.21349" lon="5.73327">
        <ele>612.40002441406</ele>
        <time>2021-07-18T04:25:22.000Z</time>
      </trkpt>
      <trkpt lat="45.21352" lon="5.73328">
        <ele>613.40002441406</ele>
        <time>2021-07-18T04:25:25.000Z</time>
      </trkpt>
      <trkpt lat="45.21355" lon="5.7333">
        <ele>613.59997558594</ele>
        <time>2021-07-18T04:25:27.000Z</time>
      </trkpt>
      <trkpt lat="45.21356" lon="5.73331">
        <ele>613.79998779297</ele>
        <time>2021-07-18T04:25:28.000Z</time>
      </trkpt>
      <trkpt lat="45.21357" lon="5.73332">
        <ele>614.59997558594</ele>
        <time>2021-07-18T04:25:30.000Z</time>
      </trkpt>
      <trkpt lat="45.21357" lon="5.73333">
        <ele>614.59997558594</ele>
        <time>2021-07-18T04:25:31.000Z</time>
      </trkpt>
      <trkpt lat="45.21357" lon="5.73335">
        <ele>614.59997558594</ele>
        <time>2021-07-18T04:25:32.000Z</time>
      </trkpt>
      <trkpt lat="45.21358" lon="5.73338">
        <ele>615.79998779297</ele>
        <time>2021-07-18T04:25:35.000Z</time>
      </trkpt>
      <trkpt lat="45.2136" lon="5.73339">
        <ele>617</ele>
        <time>2021-07-18T04:25:38.000Z</time>
      </trkpt>
      <trkpt lat="45.21362" lon="5.73345">
        <ele>617.20001220703</ele>
        <time>2021-07-18T04:25:41.000Z</time>
      </trkpt>
      <trkpt lat="45.21365" lon="5.73346">
        <ele>617.20001220703</ele>
        <time>2021-07-18T04:25:43.000Z</time>
      </trkpt>
      <trkpt lat="45.21368" lon="5.73348">
        <ele>617.40002441406</ele>
        <time>2021-07-18T04:25:45.000Z</time>
      </trkpt>
      <trkpt lat="45.21371" lon="5.73351">
        <ele>618.20001220703</ele>
        <time>2021-07-18T04:25:49.000Z</time>
      </trkpt>
      <trkpt lat="45.21371" lon="5.73351">
        <ele>618.40002441406</ele>
        <time>2021-07-18T04:25:50.000Z</time>
      </trkpt>
      <trkpt lat="45.21375" lon="5.73355">
        <ele>618.79998779297</ele>
        <time>2021-07-18T04:25:53.000Z</time>
      </trkpt>
      <trkpt lat="45.21376" lon="5.73357">
        <ele>619.40002441406</ele>
        <time>2021-07-18T04:25:55.000Z</time>
      </trkpt>
      <trkpt lat="45.21377" lon="5.73358">
        <ele>620.20001220703</ele>
        <time>2021-07-18T04:25:56.000Z</time>
      </trkpt>
      <trkpt lat="45.21379" lon="5.7336">
        <ele>620.79998779297</ele>
        <time>2021-07-18T04:25:58.000Z</time>
      </trkpt>
      <trkpt lat="45.2138" lon="5.73364">
        <ele>621</ele>
        <time>2021-07-18T04:26:00.000Z</time>
      </trkpt>
      <trkpt lat="45.2138" lon="5.73366">
        <ele>621.20001220703</ele>
        <time>2021-07-18T04:26:01.000Z</time>
      </trkpt>
      <trkpt lat="45.21381" lon="5.73368">
        <ele>621.40002441406</ele>
        <time>2021-07-18T04:26:02.000Z</time>
      </trkpt>
      <trkpt lat="45.21382" lon="5.73371">
        <ele>621.79998779297</ele>
        <time>2021-07-18T04:26:04.000Z</time>
      </trkpt>
      <trkpt lat="45.21383" lon="5.73372">
        <ele>622.20001220703</ele>
        <time>2021-07-18T04:26:06.000Z</time>
      </trkpt>
      <trkpt lat="45.21385" lon="5.73376">
        <ele>622.40002441406</ele>
        <time>2021-07-18T04:26:08.000Z</time>
      </trkpt>
      <trkpt lat="45.21387" lon="5.73377">
        <ele>623</ele>
        <time>2021-07-18T04:26:10.000Z</time>
      </trkpt>
      <trkpt lat="45.21388" lon="5.73377">
        <ele>623.20001220703</ele>
        <time>2021-07-18T04:26:11.000Z</time>
      </trkpt>
      <trkpt lat="45.2139" lon="5.73378">
        <ele>624</ele>
        <time>2021-07-18T04:26:13.000Z</time>
      </trkpt>
      <trkpt lat="45.21391" lon="5.73378">
        <ele>624</ele>
        <time>2021-07-18T04:26:14.000Z</time>
      </trkpt>
      <trkpt lat="45.21392" lon="5.73381">
        <ele>625.20001220703</ele>
        <time>2021-07-18T04:26:17.000Z</time>
      </trkpt>
      <trkpt lat="45.21394" lon="5.73389">
        <ele>625.59997558594</ele>
        <time>2021-07-18T04:26:21.000Z</time>
      </trkpt>
      <trkpt lat="45.21397" lon="5.73394">
        <ele>626</ele>
        <time>2021-07-18T04:26:23.000Z</time>
      </trkpt>
      <trkpt lat="45.21398" lon="5.73395">
        <ele>626.40002441406</ele>
        <time>2021-07-18T04:26:24.000Z</time>
      </trkpt>
      <trkpt lat="45.214" lon="5.73397">
        <ele>626.40002441406</ele>
        <time>2021-07-18T04:26:25.000Z</time>
      </trkpt>
      <trkpt lat="45.21401" lon="5.73398">
        <ele>626.40002441406</ele>
        <time>2021-07-18T04:26:26.000Z</time>
      </trkpt>
      <trkpt lat="45.21402" lon="5.734">
        <ele>627</ele>
        <time>2021-07-18T04:26:27.000Z</time>
      </trkpt>
      <trkpt lat="45.21404" lon="5.73404">
        <ele>627.59997558594</ele>
        <time>2021-07-18T04:26:29.000Z</time>
      </trkpt>
      <trkpt lat="45.21406" lon="5.73406">
        <ele>627.79998779297</ele>
        <time>2021-07-18T04:26:31.000Z</time>
      </trkpt>
      <trkpt lat="45.2141" lon="5.73407">
        <ele>628.79998779297</ele>
        <time>2021-07-18T04:26:33.000Z</time>
      </trkpt>
      <trkpt lat="45.21412" lon="5.73409">
        <ele>629</ele>
        <time>2021-07-18T04:26:34.000Z</time>
      </trkpt>
      <trkpt lat="45.21413" lon="5.73411">
        <ele>629</ele>
        <time>2021-07-18T04:26:36.000Z</time>
      </trkpt>
      <trkpt lat="45.21414" lon="5.73412">
        <ele>629.59997558594</ele>
        <time>2021-07-18T04:26:37.000Z</time>
      </trkpt>
      <trkpt lat="45.21414" lon="5.73414">
        <ele>630</ele>
        <time>2021-07-18T04:26:39.000Z</time>
      </trkpt>
      <trkpt lat="45.21415" lon="5.73416">
        <ele>630</ele>
        <time>2021-07-18T04:26:40.000Z</time>
      </trkpt>
      <trkpt lat="45.21416" lon="5.73417">
        <ele>630.20001220703</ele>
        <time>2021-07-18T04:26:41.000Z</time>
      </trkpt>
      <trkpt lat="45.21418" lon="5.7342">
        <ele>631.20001220703</ele>
        <time>2021-07-18T04:26:43.000Z</time>
      </trkpt>
      <trkpt lat="45.2142" lon="5.73423">
        <ele>631.40002441406</ele>
        <time>2021-07-18T04:26:45.000Z</time>
      </trkpt>
      <trkpt lat="45.2142" lon="5.73426">
        <ele>631.40002441406</ele>
        <time>2021-07-18T04:26:46.000Z</time>
      </trkpt>
      <trkpt lat="45.21422" lon="5.73428">
        <ele>632</ele>
        <time>2021-07-18T04:26:49.000Z</time>
      </trkpt>
      <trkpt lat="45.21423" lon="5.73431">
        <ele>632.20001220703</ele>
        <time>2021-07-18T04:26:51.000Z</time>
      </trkpt>
      <trkpt lat="45.21428" lon="5.73436">
        <ele>633.79998779297</ele>
        <time>2021-07-18T04:26:55.000Z</time>
      </trkpt>
      <trkpt lat="45.21429" lon="5.73439">
        <ele>634.40002441406</ele>
        <time>2021-07-18T04:26:58.000Z</time>
      </trkpt>
      <trkpt lat="45.2143" lon="5.73441">
        <ele>635.20001220703</ele>
        <time>2021-07-18T04:27:00.000Z</time>
      </trkpt>
      <trkpt lat="45.2143" lon="5.73443">
        <ele>635.59997558594</ele>
        <time>2021-07-18T04:27:01.000Z</time>
      </trkpt>
      <trkpt lat="45.2143" lon="5.73444">
        <ele>635.79998779297</ele>
        <time>2021-07-18T04:27:02.000Z</time>
      </trkpt>
      <trkpt lat="45.21433" lon="5.7345">
        <ele>636.40002441406</ele>
        <time>2021-07-18T04:27:04.000Z</time>
      </trkpt>
      <trkpt lat="45.21435" lon="5.73455">
        <ele>636.40002441406</ele>
        <time>2021-07-18T04:27:07.000Z</time>
      </trkpt>
      <trkpt lat="45.21437" lon="5.73458">
        <ele>636.79998779297</ele>
        <time>2021-07-18T04:27:09.000Z</time>
      </trkpt>
      <trkpt lat="45.2144" lon="5.73461">
        <ele>637.79998779297</ele>
        <time>2021-07-18T04:27:12.000Z</time>
      </trkpt>
      <trkpt lat="45.21441" lon="5.73463">
        <ele>638.40002441406</ele>
        <time>2021-07-18T04:27:14.000Z</time>
      </trkpt>
      <trkpt lat="45.21442" lon="5.73465">
        <ele>638.40002441406</ele>
        <time>2021-07-18T04:27:16.000Z</time>
      </trkpt>
      <trkpt lat="45.21443" lon="5.73467">
        <ele>638.59997558594</ele>
        <time>2021-07-18T04:27:17.000Z</time>
      </trkpt>
      <trkpt lat="45.21445" lon="5.73468">
        <ele>639.40002441406</ele>
        <time>2021-07-18T04:27:18.000Z</time>
      </trkpt>
      <trkpt lat="45.21446" lon="5.7347">
        <ele>639.40002441406</ele>
        <time>2021-07-18T04:27:19.000Z</time>
      </trkpt>
      <trkpt lat="45.21447" lon="5.73472">
        <ele>639.59997558594</ele>
        <time>2021-07-18T04:27:20.000Z</time>
      </trkpt>
      <trkpt lat="45.21448" lon="5.73474">
        <ele>640</ele>
        <time>2021-07-18T04:27:22.000Z</time>
      </trkpt>
      <trkpt lat="45.21448" lon="5.73476">
        <ele>640.79998779297</ele>
        <time>2021-07-18T04:27:24.000Z</time>
      </trkpt>
      <trkpt lat="45.21452" lon="5.7348">
        <ele>641.40002441406</ele>
        <time>2021-07-18T04:27:27.000Z</time>
      </trkpt>
      <trkpt lat="45.21454" lon="5.73482">
        <ele>641.79998779297</ele>
        <time>2021-07-18T04:27:29.000Z</time>
      </trkpt>
      <trkpt lat="45.21458" lon="5.73486">
        <ele>643</ele>
        <time>2021-07-18T04:27:33.000Z</time>
      </trkpt>
      <trkpt lat="45.2146" lon="5.73488">
        <ele>643.40002441406</ele>
        <time>2021-07-18T04:27:35.000Z</time>
      </trkpt>
      <trkpt lat="45.21461" lon="5.73489">
        <ele>643.79998779297</ele>
        <time>2021-07-18T04:27:36.000Z</time>
      </trkpt>
      <trkpt lat="45.21461" lon="5.7349">
        <ele>644.20001220703</ele>
        <time>2021-07-18T04:27:37.000Z</time>
      </trkpt>
      <trkpt lat="45.21462" lon="5.73495">
        <ele>644.40002441406</ele>
        <time>2021-07-18T04:27:39.000Z</time>
      </trkpt>
      <trkpt lat="45.21462" lon="5.73497">
        <ele>644.40002441406</ele>
        <time>2021-07-18T04:27:40.000Z</time>
      </trkpt>
      <trkpt lat="45.21463" lon="5.73502">
        <ele>645.59997558594</ele>
        <time>2021-07-18T04:27:43.000Z</time>
      </trkpt>
      <trkpt lat="45.21463" lon="5.73512">
        <ele>646.59997558594</ele>
        <time>2021-07-18T04:27:48.000Z</time>
      </trkpt>
      <trkpt lat="45.21463" lon="5.73513">
        <ele>647</ele>
        <time>2021-07-18T04:27:49.000Z</time>
      </trkpt>
      <trkpt lat="45.21463" lon="5.73515">
        <ele>647.40002441406</ele>
        <time>2021-07-18T04:27:51.000Z</time>
      </trkpt>
      <trkpt lat="45.21464" lon="5.73519">
        <ele>648</ele>
        <time>2021-07-18T04:27:53.000Z</time>
      </trkpt>
      <trkpt lat="45.21464" lon="5.73522">
        <ele>648</ele>
        <time>2021-07-18T04:27:55.000Z</time>
      </trkpt>
      <trkpt lat="45.21465" lon="5.73524">
        <ele>648.20001220703</ele>
        <time>2021-07-18T04:27:56.000Z</time>
      </trkpt>
      <trkpt lat="45.21465" lon="5.73526">
        <ele>648.79998779297</ele>
        <time>2021-07-18T04:27:58.000Z</time>
      </trkpt>
      <trkpt lat="45.21466" lon="5.73531">
        <ele>649.20001220703</ele>
        <time>2021-07-18T04:28:01.000Z</time>
      </trkpt>
      <trkpt lat="45.21466" lon="5.73532">
        <ele>649.20001220703</ele>
        <time>2021-07-18T04:28:02.000Z</time>
      </trkpt>
      <trkpt lat="45.21467" lon="5.73533">
        <ele>649.79998779297</ele>
        <time>2021-07-18T04:28:03.000Z</time>
      </trkpt>
      <trkpt lat="45.21469" lon="5.73536">
        <ele>650.40002441406</ele>
        <time>2021-07-18T04:28:06.000Z</time>
      </trkpt>
      <trkpt lat="45.2147" lon="5.73538">
        <ele>650.59997558594</ele>
        <time>2021-07-18T04:28:07.000Z</time>
      </trkpt>
      <trkpt lat="45.21473" lon="5.73542">
        <ele>651.40002441406</ele>
        <time>2021-07-18T04:28:11.000Z</time>
      </trkpt>
      <trkpt lat="45.21474" lon="5.73544">
        <ele>651.79998779297</ele>
        <time>2021-07-18T04:28:13.000Z</time>
      </trkpt>
      <trkpt lat="45.21474" lon="5.73546">
        <ele>652.40002441406</ele>
        <time>2021-07-18T04:28:15.000Z</time>
      </trkpt>
      <trkpt lat="45.21477" lon="5.73548">
        <ele>652.59997558594</ele>
        <time>2021-07-18T04:28:18.000Z</time>
      </trkpt>
      <trkpt lat="45.2148" lon="5.7355">
        <ele>653.59997558594</ele>
        <time>2021-07-18T04:28:22.000Z</time>
      </trkpt>
      <trkpt lat="45.21482" lon="5.73551">
        <ele>653.59997558594</ele>
        <time>2021-07-18T04:28:23.000Z</time>
      </trkpt>
      <trkpt lat="45.21486" lon="5.73555">
        <ele>654.79998779297</ele>
        <time>2021-07-18T04:28:27.000Z</time>
      </trkpt>
      <trkpt lat="45.21487" lon="5.73556">
        <ele>654.79998779297</ele>
        <time>2021-07-18T04:28:29.000Z</time>
      </trkpt>
      <trkpt lat="45.21488" lon="5.73556">
        <ele>654.79998779297</ele>
        <time>2021-07-18T04:28:30.000Z</time>
      </trkpt>
      <trkpt lat="45.21489" lon="5.73557">
        <ele>655.79998779297</ele>
        <time>2021-07-18T04:28:31.000Z</time>
      </trkpt>
      <trkpt lat="45.21494" lon="5.73562">
        <ele>656.40002441406</ele>
        <time>2021-07-18T04:28:36.000Z</time>
      </trkpt>
      <trkpt lat="45.21495" lon="5.73562">
        <ele>657.20001220703</ele>
        <time>2021-07-18T04:28:37.000Z</time>
      </trkpt>
      <trkpt lat="45.21497" lon="5.73566">
        <ele>657.79998779297</ele>
        <time>2021-07-18T04:28:41.000Z</time>
      </trkpt>
      <trkpt lat="45.21498" lon="5.73567">
        <ele>658</ele>
        <time>2021-07-18T04:28:42.000Z</time>
      </trkpt>
      <trkpt lat="45.21498" lon="5.73569">
        <ele>658.20001220703</ele>
        <time>2021-07-18T04:28:43.000Z</time>
      </trkpt>
      <trkpt lat="45.21498" lon="5.73573">
        <ele>658.59997558594</ele>
        <time>2021-07-18T04:28:45.000Z</time>
      </trkpt>
      <trkpt lat="45.21499" lon="5.73576">
        <ele>659</ele>
        <time>2021-07-18T04:28:47.000Z</time>
      </trkpt>
      <trkpt lat="45.215" lon="5.73577">
        <ele>659.20001220703</ele>
        <time>2021-07-18T04:28:48.000Z</time>
      </trkpt>
      <trkpt lat="45.215" lon="5.73581">
        <ele>660.20001220703</ele>
        <time>2021-07-18T04:28:50.000Z</time>
      </trkpt>
      <trkpt lat="45.215" lon="5.73583">
        <ele>660.40002441406</ele>
        <time>2021-07-18T04:28:51.000Z</time>
      </trkpt>
      <trkpt lat="45.215" lon="5.73585">
        <ele>661</ele>
        <time>2021-07-18T04:28:53.000Z</time>
      </trkpt>
      <trkpt lat="45.21502" lon="5.7359">
        <ele>661.59997558594</ele>
        <time>2021-07-18T04:28:56.000Z</time>
      </trkpt>
      <trkpt lat="45.21503" lon="5.73591">
        <ele>662.40002441406</ele>
        <time>2021-07-18T04:28:59.000Z</time>
      </trkpt>
      <trkpt lat="45.21503" lon="5.73589">
        <ele>663</ele>
        <time>2021-07-18T04:29:01.000Z</time>
      </trkpt>
      <trkpt lat="45.21502" lon="5.73587">
        <ele>663.20001220703</ele>
        <time>2021-07-18T04:29:02.000Z</time>
      </trkpt>
      <trkpt lat="45.21503" lon="5.73583">
        <ele>663.79998779297</ele>
        <time>2021-07-18T04:29:05.000Z</time>
      </trkpt>
      <trkpt lat="45.21504" lon="5.73583">
        <ele>664.20001220703</ele>
        <time>2021-07-18T04:29:06.000Z</time>
      </trkpt>
      <trkpt lat="45.21507" lon="5.73577">
        <ele>665.20001220703</ele>
        <time>2021-07-18T04:29:11.000Z</time>
      </trkpt>
      <trkpt lat="45.21508" lon="5.73575">
        <ele>665.79998779297</ele>
        <time>2021-07-18T04:29:12.000Z</time>
      </trkpt>
      <trkpt lat="45.21508" lon="5.73574">
        <ele>666</ele>
        <time>2021-07-18T04:29:13.000Z</time>
      </trkpt>
      <trkpt lat="45.21509" lon="5.73575">
        <ele>666</ele>
        <time>2021-07-18T04:29:15.000Z</time>
      </trkpt>
      <trkpt lat="45.21509" lon="5.73576">
        <ele>666.40002441406</ele>
        <time>2021-07-18T04:29:16.000Z</time>
      </trkpt>
      <trkpt lat="45.21512" lon="5.73579">
        <ele>667</ele>
        <time>2021-07-18T04:29:19.000Z</time>
      </trkpt>
      <trkpt lat="45.21515" lon="5.73583">
        <ele>667.79998779297</ele>
        <time>2021-07-18T04:29:23.000Z</time>
      </trkpt>
      <trkpt lat="45.21515" lon="5.73586">
        <ele>668.20001220703</ele>
        <time>2021-07-18T04:29:25.000Z</time>
      </trkpt>
      <trkpt lat="45.21515" lon="5.73587">
        <ele>668.20001220703</ele>
        <time>2021-07-18T04:29:26.000Z</time>
      </trkpt>
      <trkpt lat="45.21517" lon="5.73589">
        <ele>668.40002441406</ele>
        <time>2021-07-18T04:29:28.000Z</time>
      </trkpt>
      <trkpt lat="45.21517" lon="5.7359">
        <ele>668.40002441406</ele>
        <time>2021-07-18T04:29:29.000Z</time>
      </trkpt>
      <trkpt lat="45.21518" lon="5.7359">
        <ele>669</ele>
        <time>2021-07-18T04:29:30.000Z</time>
      </trkpt>
      <trkpt lat="45.21519" lon="5.73591">
        <ele>669.40002441406</ele>
        <time>2021-07-18T04:29:31.000Z</time>
      </trkpt>
      <trkpt lat="45.21519" lon="5.73596">
        <ele>670.20001220703</ele>
        <time>2021-07-18T04:29:34.000Z</time>
      </trkpt>
      <trkpt lat="45.2152" lon="5.73598">
        <ele>670.79998779297</ele>
        <time>2021-07-18T04:29:36.000Z</time>
      </trkpt>
      <trkpt lat="45.21521" lon="5.73599">
        <ele>671.20001220703</ele>
        <time>2021-07-18T04:29:37.000Z</time>
      </trkpt>
      <trkpt lat="45.21523" lon="5.73602">
        <ele>671.20001220703</ele>
        <time>2021-07-18T04:29:39.000Z</time>
      </trkpt>
      <trkpt lat="45.21524" lon="5.73603">
        <ele>671.40002441406</ele>
        <time>2021-07-18T04:29:40.000Z</time>
      </trkpt>
      <trkpt lat="45.21525" lon="5.73605">
        <ele>671.40002441406</ele>
        <time>2021-07-18T04:29:41.000Z</time>
      </trkpt>
      <trkpt lat="45.21525" lon="5.73607">
        <ele>672</ele>
        <time>2021-07-18T04:29:42.000Z</time>
      </trkpt>
      <trkpt lat="45.21527" lon="5.7361">
        <ele>672.20001220703</ele>
        <time>2021-07-18T04:29:44.000Z</time>
      </trkpt>
      <trkpt lat="45.21527" lon="5.73611">
        <ele>672.59997558594</ele>
        <time>2021-07-18T04:29:45.000Z</time>
      </trkpt>
      <trkpt lat="45.21529" lon="5.73616">
        <ele>673</ele>
        <time>2021-07-18T04:29:48.000Z</time>
      </trkpt>
      <trkpt lat="45.21531" lon="5.73615">
        <ele>673.59997558594</ele>
        <time>2021-07-18T04:29:51.000Z</time>
      </trkpt>
      <trkpt lat="45.21531" lon="5.73614">
        <ele>674.79998779297</ele>
        <time>2021-07-18T04:29:53.000Z</time>
      </trkpt>
      <trkpt lat="45.21531" lon="5.73611">
        <ele>674.79998779297</ele>
        <time>2021-07-18T04:29:55.000Z</time>
      </trkpt>
      <trkpt lat="45.2153" lon="5.73609">
        <ele>675</ele>
        <time>2021-07-18T04:29:57.000Z</time>
      </trkpt>
      <trkpt lat="45.2153" lon="5.73606">
        <ele>675.79998779297</ele>
        <time>2021-07-18T04:30:00.000Z</time>
      </trkpt>
      <trkpt lat="45.21529" lon="5.73601">
        <ele>676.40002441406</ele>
        <time>2021-07-18T04:30:04.000Z</time>
      </trkpt>
      <trkpt lat="45.21529" lon="5.73599">
        <ele>676.79998779297</ele>
        <time>2021-07-18T04:30:05.000Z</time>
      </trkpt>
      <trkpt lat="45.21528" lon="5.73598">
        <ele>677</ele>
        <time>2021-07-18T04:30:06.000Z</time>
      </trkpt>
      <trkpt lat="45.21528" lon="5.73594">
        <ele>677.40002441406</ele>
        <time>2021-07-18T04:30:09.000Z</time>
      </trkpt>
      <trkpt lat="45.21529" lon="5.73594">
        <ele>678</ele>
        <time>2021-07-18T04:30:11.000Z</time>
      </trkpt>
      <trkpt lat="45.2153" lon="5.73595">
        <ele>678.79998779297</ele>
        <time>2021-07-18T04:30:13.000Z</time>
      </trkpt>
      <trkpt lat="45.21532" lon="5.73596">
        <ele>679.20001220703</ele>
        <time>2021-07-18T04:30:14.000Z</time>
      </trkpt>
      <trkpt lat="45.21533" lon="5.73598">
        <ele>679.20001220703</ele>
        <time>2021-07-18T04:30:15.000Z</time>
      </trkpt>
      <trkpt lat="45.21534" lon="5.73601">
        <ele>679.20001220703</ele>
        <time>2021-07-18T04:30:16.000Z</time>
      </trkpt>
      <trkpt lat="45.21535" lon="5.73605">
        <ele>679.59997558594</ele>
        <time>2021-07-18T04:30:18.000Z</time>
      </trkpt>
      <trkpt lat="45.21535" lon="5.73607">
        <ele>680.59997558594</ele>
        <time>2021-07-18T04:30:20.000Z</time>
      </trkpt>
      <trkpt lat="45.21536" lon="5.73608">
        <ele>680.79998779297</ele>
        <time>2021-07-18T04:30:23.000Z</time>
      </trkpt>
      <trkpt lat="45.21536" lon="5.73607">
        <ele>681.20001220703</ele>
        <time>2021-07-18T04:30:24.000Z</time>
      </trkpt>
      <trkpt lat="45.21536" lon="5.73607">
        <ele>681.79998779297</ele>
        <time>2021-07-18T04:30:25.000Z</time>
      </trkpt>
      <trkpt lat="45.21536" lon="5.73605">
        <ele>681.79998779297</ele>
        <time>2021-07-18T04:30:26.000Z</time>
      </trkpt>
      <trkpt lat="45.21536" lon="5.73604">
        <ele>681.79998779297</ele>
        <time>2021-07-18T04:30:27.000Z</time>
      </trkpt>
      <trkpt lat="45.21536" lon="5.73601">
        <ele>682.20001220703</ele>
        <time>2021-07-18T04:30:29.000Z</time>
      </trkpt>
      <trkpt lat="45.21535" lon="5.73597">
        <ele>683.40002441406</ele>
        <time>2021-07-18T04:30:33.000Z</time>
      </trkpt>
      <trkpt lat="45.21535" lon="5.73596">
        <ele>683.79998779297</ele>
        <time>2021-07-18T04:30:34.000Z</time>
      </trkpt>
      <trkpt lat="45.21533" lon="5.73593">
        <ele>683.79998779297</ele>
        <time>2021-07-18T04:30:36.000Z</time>
      </trkpt>
      <trkpt lat="45.21533" lon="5.73592">
        <ele>684</ele>
        <time>2021-07-18T04:30:37.000Z</time>
      </trkpt>
      <trkpt lat="45.21533" lon="5.7359">
        <ele>684.79998779297</ele>
        <time>2021-07-18T04:30:39.000Z</time>
      </trkpt>
      <trkpt lat="45.21532" lon="5.73585">
        <ele>685.20001220703</ele>
        <time>2021-07-18T04:30:42.000Z</time>
      </trkpt>
      <trkpt lat="45.21531" lon="5.73581">
        <ele>685.79998779297</ele>
        <time>2021-07-18T04:30:45.000Z</time>
      </trkpt>
      <trkpt lat="45.21531" lon="5.73572">
        <ele>687</ele>
        <time>2021-07-18T04:30:50.000Z</time>
      </trkpt>
      <trkpt lat="45.21531" lon="5.73568">
        <ele>687</ele>
        <time>2021-07-18T04:30:52.000Z</time>
      </trkpt>
      <trkpt lat="45.21531" lon="5.73564">
        <ele>688.40002441406</ele>
        <time>2021-07-18T04:30:54.000Z</time>
      </trkpt>
      <trkpt lat="45.21531" lon="5.7356">
        <ele>688.40002441406</ele>
        <time>2021-07-18T04:30:56.000Z</time>
      </trkpt>
      <trkpt lat="45.21531" lon="5.73555">
        <ele>689.20001220703</ele>
        <time>2021-07-18T04:30:59.000Z</time>
      </trkpt>
      <trkpt lat="45.21531" lon="5.73552">
        <ele>689.40002441406</ele>
        <time>2021-07-18T04:31:01.000Z</time>
      </trkpt>
      <trkpt lat="45.21531" lon="5.7355">
        <ele>689.59997558594</ele>
        <time>2021-07-18T04:31:02.000Z</time>
      </trkpt>
      <trkpt lat="45.21531" lon="5.73548">
        <ele>689.59997558594</ele>
        <time>2021-07-18T04:31:03.000Z</time>
      </trkpt>
      <trkpt lat="45.21532" lon="5.73547">
        <ele>690.40002441406</ele>
        <time>2021-07-18T04:31:06.000Z</time>
      </trkpt>
      <trkpt lat="45.21533" lon="5.73548">
        <ele>691.20001220703</ele>
        <time>2021-07-18T04:31:07.000Z</time>
      </trkpt>
      <trkpt lat="45.21535" lon="5.73551">
        <ele>691.59997558594</ele>
        <time>2021-07-18T04:31:10.000Z</time>
      </trkpt>
      <trkpt lat="45.21538" lon="5.73553">
        <ele>692</ele>
        <time>2021-07-18T04:31:13.000Z</time>
      </trkpt>
      <trkpt lat="45.21539" lon="5.73554">
        <ele>692.20001220703</ele>
        <time>2021-07-18T04:31:14.000Z</time>
      </trkpt>
      <trkpt lat="45.2154" lon="5.73557">
        <ele>693.20001220703</ele>
        <time>2021-07-18T04:31:18.000Z</time>
      </trkpt>
      <trkpt lat="45.21542" lon="5.73558">
        <ele>694.20001220703</ele>
        <time>2021-07-18T04:31:20.000Z</time>
      </trkpt>
      <trkpt lat="45.21543" lon="5.73559">
        <ele>694.40002441406</ele>
        <time>2021-07-18T04:31:21.000Z</time>
      </trkpt>
      <trkpt lat="45.21545" lon="5.73562">
        <ele>694.79998779297</ele>
        <time>2021-07-18T04:31:23.000Z</time>
      </trkpt>
      <trkpt lat="45.21549" lon="5.73566">
        <ele>695.79998779297</ele>
        <time>2021-07-18T04:31:26.000Z</time>
      </trkpt>
      <trkpt lat="45.2155" lon="5.73569">
        <ele>696.20001220703</ele>
        <time>2021-07-18T04:31:28.000Z</time>
      </trkpt>
      <trkpt lat="45.21552" lon="5.73569">
        <ele>696.20001220703</ele>
        <time>2021-07-18T04:31:29.000Z</time>
      </trkpt>
      <trkpt lat="45.21554" lon="5.73572">
        <ele>697.40002441406</ele>
        <time>2021-07-18T04:31:32.000Z</time>
      </trkpt>
      <trkpt lat="45.21555" lon="5.73575">
        <ele>697.59997558594</ele>
        <time>2021-07-18T04:31:34.000Z</time>
      </trkpt>
      <trkpt lat="45.21558" lon="5.73579">
        <ele>698.59997558594</ele>
        <time>2021-07-18T04:31:37.000Z</time>
      </trkpt>
      <trkpt lat="45.21561" lon="5.73582">
        <ele>698.79998779297</ele>
        <time>2021-07-18T04:31:39.000Z</time>
      </trkpt>
      <trkpt lat="45.21561" lon="5.73583">
        <ele>699.59997558594</ele>
        <time>2021-07-18T04:31:40.000Z</time>
      </trkpt>
      <trkpt lat="45.21562" lon="5.73583">
        <ele>699.59997558594</ele>
        <time>2021-07-18T04:31:42.000Z</time>
      </trkpt>
      <trkpt lat="45.21561" lon="5.73583">
        <ele>699.79998779297</ele>
        <time>2021-07-18T04:31:44.000Z</time>
      </trkpt>
      <trkpt lat="45.2156" lon="5.73582">
        <ele>700.40002441406</ele>
        <time>2021-07-18T04:31:45.000Z</time>
      </trkpt>
      <trkpt lat="45.21559" lon="5.7358">
        <ele>700.79998779297</ele>
        <time>2021-07-18T04:31:47.000Z</time>
      </trkpt>
      <trkpt lat="45.21559" lon="5.73576">
        <ele>701.79998779297</ele>
        <time>2021-07-18T04:31:50.000Z</time>
      </trkpt>
      <trkpt lat="45.21559" lon="5.73575">
        <ele>702</ele>
        <time>2021-07-18T04:31:51.000Z</time>
      </trkpt>
      <trkpt lat="45.21557" lon="5.73571">
        <ele>703</ele>
        <time>2021-07-18T04:31:55.000Z</time>
      </trkpt>
      <trkpt lat="45.21557" lon="5.73569">
        <ele>703.40002441406</ele>
        <time>2021-07-18T04:31:57.000Z</time>
      </trkpt>
      <trkpt lat="45.21557" lon="5.73565">
        <ele>704</ele>
        <time>2021-07-18T04:32:00.000Z</time>
      </trkpt>
      <trkpt lat="45.21556" lon="5.73563">
        <ele>704.40002441406</ele>
        <time>2021-07-18T04:32:02.000Z</time>
      </trkpt>
      <trkpt lat="45.21555" lon="5.7356">
        <ele>704.59997558594</ele>
        <time>2021-07-18T04:32:04.000Z</time>
      </trkpt>
      <trkpt lat="45.21554" lon="5.73557">
        <ele>705.20001220703</ele>
        <time>2021-07-18T04:32:06.000Z</time>
      </trkpt>
      <trkpt lat="45.21554" lon="5.73554">
        <ele>705.40002441406</ele>
        <time>2021-07-18T04:32:08.000Z</time>
      </trkpt>
      <trkpt lat="45.21554" lon="5.73549">
        <ele>706</ele>
        <time>2021-07-18T04:32:11.000Z</time>
      </trkpt>
      <trkpt lat="45.21554" lon="5.73548">
        <ele>706.20001220703</ele>
        <time>2021-07-18T04:32:12.000Z</time>
      </trkpt>
      <trkpt lat="45.21552" lon="5.73542">
        <ele>707.40002441406</ele>
        <time>2021-07-18T04:32:16.000Z</time>
      </trkpt>
      <trkpt lat="45.21552" lon="5.73539">
        <ele>707.59997558594</ele>
        <time>2021-07-18T04:32:18.000Z</time>
      </trkpt>
      <trkpt lat="45.21552" lon="5.73533">
        <ele>708.20001220703</ele>
        <time>2021-07-18T04:32:21.000Z</time>
      </trkpt>
      <trkpt lat="45.21551" lon="5.73532">
        <ele>708.40002441406</ele>
        <time>2021-07-18T04:32:22.000Z</time>
      </trkpt>
      <trkpt lat="45.21552" lon="5.73527">
        <ele>708.79998779297</ele>
        <time>2021-07-18T04:32:25.000Z</time>
      </trkpt>
      <trkpt lat="45.21552" lon="5.73523">
        <ele>709.59997558594</ele>
        <time>2021-07-18T04:32:27.000Z</time>
      </trkpt>
      <trkpt lat="45.21551" lon="5.73516">
        <ele>710.59997558594</ele>
        <time>2021-07-18T04:32:32.000Z</time>
      </trkpt>
      <trkpt lat="45.21551" lon="5.73515">
        <ele>710.79998779297</ele>
        <time>2021-07-18T04:32:33.000Z</time>
      </trkpt>
      <trkpt lat="45.21549" lon="5.73507">
        <ele>711.79998779297</ele>
        <time>2021-07-18T04:32:38.000Z</time>
      </trkpt>
      <trkpt lat="45.21549" lon="5.73505">
        <ele>712.20001220703</ele>
        <time>2021-07-18T04:32:39.000Z</time>
      </trkpt>
      <trkpt lat="45.21547" lon="5.73501">
        <ele>713</ele>
        <time>2021-07-18T04:32:43.000Z</time>
      </trkpt>
      <trkpt lat="45.21545" lon="5.73501">
        <ele>713.59997558594</ele>
        <time>2021-07-18T04:32:45.000Z</time>
      </trkpt>
      <trkpt lat="45.21539" lon="5.73498">
        <ele>714.20001220703</ele>
        <time>2021-07-18T04:32:50.000Z</time>
      </trkpt>
      <trkpt lat="45.21538" lon="5.73498">
        <ele>714.40002441406</ele>
        <time>2021-07-18T04:32:51.000Z</time>
      </trkpt>
      <trkpt lat="45.21533" lon="5.73495">
        <ele>715.59997558594</ele>
        <time>2021-07-18T04:32:56.000Z</time>
      </trkpt>
      <trkpt lat="45.21532" lon="5.73492">
        <ele>715.79998779297</ele>
        <time>2021-07-18T04:32:58.000Z</time>
      </trkpt>
      <trkpt lat="45.2153" lon="5.73488">
        <ele>716.40002441406</ele>
        <time>2021-07-18T04:33:01.000Z</time>
      </trkpt>
      <trkpt lat="45.2153" lon="5.73486">
        <ele>717.20001220703</ele>
        <time>2021-07-18T04:33:02.000Z</time>
      </trkpt>
      <trkpt lat="45.21531" lon="5.73485">
        <ele>717.20001220703</ele>
        <time>2021-07-18T04:33:03.000Z</time>
      </trkpt>
      <trkpt lat="45.21534" lon="5.73484">
        <ele>718</ele>
        <time>2021-07-18T04:33:06.000Z</time>
      </trkpt>
      <trkpt lat="45.21536" lon="5.73483">
        <ele>718.40002441406</ele>
        <time>2021-07-18T04:33:08.000Z</time>
      </trkpt>
      <trkpt lat="45.21538" lon="5.73482">
        <ele>718.79998779297</ele>
        <time>2021-07-18T04:33:10.000Z</time>
      </trkpt>
      <trkpt lat="45.21539" lon="5.73481">
        <ele>718.79998779297</ele>
        <time>2021-07-18T04:33:11.000Z</time>
      </trkpt>
      <trkpt lat="45.21542" lon="5.7348">
        <ele>720</ele>
        <time>2021-07-18T04:33:15.000Z</time>
      </trkpt>
      <trkpt lat="45.21545" lon="5.7348">
        <ele>720.20001220703</ele>
        <time>2021-07-18T04:33:17.000Z</time>
      </trkpt>
      <trkpt lat="45.21549" lon="5.73481">
        <ele>720.79998779297</ele>
        <time>2021-07-18T04:33:21.000Z</time>
      </trkpt>
      <trkpt lat="45.2155" lon="5.7348">
        <ele>720.79998779297</ele>
        <time>2021-07-18T04:33:22.000Z</time>
      </trkpt>
      <trkpt lat="45.2155" lon="5.7348">
        <ele>721.59997558594</ele>
        <time>2021-07-18T04:33:23.000Z</time>
      </trkpt>
      <trkpt lat="45.21552" lon="5.7348">
        <ele>721.79998779297</ele>
        <time>2021-07-18T04:33:25.000Z</time>
      </trkpt>
      <trkpt lat="45.21555" lon="5.73483">
        <ele>722.79998779297</ele>
        <time>2021-07-18T04:33:29.000Z</time>
      </trkpt>
      <trkpt lat="45.21557" lon="5.73484">
        <ele>723.20001220703</ele>
        <time>2021-07-18T04:33:31.000Z</time>
      </trkpt>
      <trkpt lat="45.21561" lon="5.73486">
        <ele>723.20001220703</ele>
        <time>2021-07-18T04:33:34.000Z</time>
      </trkpt>
      <trkpt lat="45.21563" lon="5.73486">
        <ele>723.59997558594</ele>
        <time>2021-07-18T04:33:36.000Z</time>
      </trkpt>
      <trkpt lat="45.21564" lon="5.73487">
        <ele>724.40002441406</ele>
        <time>2021-07-18T04:33:37.000Z</time>
      </trkpt>
      <trkpt lat="45.21566" lon="5.73489">
        <ele>724.59997558594</ele>
        <time>2021-07-18T04:33:39.000Z</time>
      </trkpt>
      <trkpt lat="45.21567" lon="5.73491">
        <ele>724.79998779297</ele>
        <time>2021-07-18T04:33:40.000Z</time>
      </trkpt>
      <trkpt lat="45.21568" lon="5.73494">
        <ele>725.20001220703</ele>
        <time>2021-07-18T04:33:42.000Z</time>
      </trkpt>
      <trkpt lat="45.21571" lon="5.73496">
        <ele>725.79998779297</ele>
        <time>2021-07-18T04:33:44.000Z</time>
      </trkpt>
      <trkpt lat="45.21571" lon="5.73498">
        <ele>726</ele>
        <time>2021-07-18T04:33:45.000Z</time>
      </trkpt>
      <trkpt lat="45.21572" lon="5.73502">
        <ele>726.20001220703</ele>
        <time>2021-07-18T04:33:47.000Z</time>
      </trkpt>
      <trkpt lat="45.21575" lon="5.73506">
        <ele>727</ele>
        <time>2021-07-18T04:33:50.000Z</time>
      </trkpt>
      <trkpt lat="45.21576" lon="5.73508">
        <ele>727.40002441406</ele>
        <time>2021-07-18T04:33:51.000Z</time>
      </trkpt>
      <trkpt lat="45.21576" lon="5.7351">
        <ele>727.59997558594</ele>
        <time>2021-07-18T04:33:52.000Z</time>
      </trkpt>
      <trkpt lat="45.21577" lon="5.73514">
        <ele>728</ele>
        <time>2021-07-18T04:33:55.000Z</time>
      </trkpt>
      <trkpt lat="45.21579" lon="5.73516">
        <ele>729</ele>
        <time>2021-07-18T04:33:57.000Z</time>
      </trkpt>
      <trkpt lat="45.21579" lon="5.73518">
        <ele>729.20001220703</ele>
        <time>2021-07-18T04:33:58.000Z</time>
      </trkpt>
      <trkpt lat="45.21582" lon="5.73522">
        <ele>729.40002441406</ele>
        <time>2021-07-18T04:34:01.000Z</time>
      </trkpt>
      <trkpt lat="45.21583" lon="5.73522">
        <ele>730.20001220703</ele>
        <time>2021-07-18T04:34:02.000Z</time>
      </trkpt>
      <trkpt lat="45.21583" lon="5.73523">
        <ele>730.20001220703</ele>
        <time>2021-07-18T04:34:03.000Z</time>
      </trkpt>
      <trkpt lat="45.21584" lon="5.73526">
        <ele>730.59997558594</ele>
        <time>2021-07-18T04:34:05.000Z</time>
      </trkpt>
      <trkpt lat="45.21584" lon="5.73528">
        <ele>730.59997558594</ele>
        <time>2021-07-18T04:34:06.000Z</time>
      </trkpt>
      <trkpt lat="45.21585" lon="5.73529">
        <ele>731.40002441406</ele>
        <time>2021-07-18T04:34:07.000Z</time>
      </trkpt>
      <trkpt lat="45.21587" lon="5.73535">
        <ele>732</ele>
        <time>2021-07-18T04:34:11.000Z</time>
      </trkpt>
      <trkpt lat="45.21588" lon="5.73537">
        <ele>732.79998779297</ele>
        <time>2021-07-18T04:34:13.000Z</time>
      </trkpt>
      <trkpt lat="45.21591" lon="5.7354">
        <ele>733.20001220703</ele>
        <time>2021-07-18T04:34:16.000Z</time>
      </trkpt>
      <trkpt lat="45.21592" lon="5.73541">
        <ele>733.59997558594</ele>
        <time>2021-07-18T04:34:17.000Z</time>
      </trkpt>
      <trkpt lat="45.21593" lon="5.73544">
        <ele>734</ele>
        <time>2021-07-18T04:34:19.000Z</time>
      </trkpt>
      <trkpt lat="45.21593" lon="5.73545">
        <ele>734.20001220703</ele>
        <time>2021-07-18T04:34:20.000Z</time>
      </trkpt>
      <trkpt lat="45.21595" lon="5.73547">
        <ele>734.40002441406</ele>
        <time>2021-07-18T04:34:22.000Z</time>
      </trkpt>
      <trkpt lat="45.21596" lon="5.73549">
        <ele>734.40002441406</ele>
        <time>2021-07-18T04:34:23.000Z</time>
      </trkpt>
      <trkpt lat="45.21597" lon="5.7355">
        <ele>735.40002441406</ele>
        <time>2021-07-18T04:34:24.000Z</time>
      </trkpt>
      <trkpt lat="45.21598" lon="5.73552">
        <ele>735.79998779297</ele>
        <time>2021-07-18T04:34:26.000Z</time>
      </trkpt>
      <trkpt lat="45.216" lon="5.73553">
        <ele>736</ele>
        <time>2021-07-18T04:34:27.000Z</time>
      </trkpt>
      <trkpt lat="45.21605" lon="5.73556">
        <ele>736.59997558594</ele>
        <time>2021-07-18T04:34:29.000Z</time>
      </trkpt>
      <trkpt lat="45.21609" lon="5.73561">
        <ele>737.20001220703</ele>
        <time>2021-07-18T04:34:32.000Z</time>
      </trkpt>
      <trkpt lat="45.21609" lon="5.73562">
        <ele>737.20001220703</ele>
        <time>2021-07-18T04:34:33.000Z</time>
      </trkpt>
      <trkpt lat="45.21609" lon="5.73563">
        <ele>737.59997558594</ele>
        <time>2021-07-18T04:34:34.000Z</time>
      </trkpt>
      <trkpt lat="45.21611" lon="5.73565">
        <ele>738.40002441406</ele>
        <time>2021-07-18T04:34:36.000Z</time>
      </trkpt>
      <trkpt lat="45.21612" lon="5.73566">
        <ele>738.59997558594</ele>
        <time>2021-07-18T04:34:37.000Z</time>
      </trkpt>
      <trkpt lat="45.21613" lon="5.73567">
        <ele>738.59997558594</ele>
        <time>2021-07-18T04:34:38.000Z</time>
      </trkpt>
      <trkpt lat="45.21616" lon="5.7357">
        <ele>739.79998779297</ele>
        <time>2021-07-18T04:34:42.000Z</time>
      </trkpt>
      <trkpt lat="45.21616" lon="5.73572">
        <ele>740.20001220703</ele>
        <time>2021-07-18T04:34:43.000Z</time>
      </trkpt>
      <trkpt lat="45.21619" lon="5.73576">
        <ele>741.20001220703</ele>
        <time>2021-07-18T04:34:48.000Z</time>
      </trkpt>
      <trkpt lat="45.21619" lon="5.73577">
        <ele>741.20001220703</ele>
        <time>2021-07-18T04:34:49.000Z</time>
      </trkpt>
      <trkpt lat="45.21618" lon="5.73576">
        <ele>741.40002441406</ele>
        <time>2021-07-18T04:34:50.000Z</time>
      </trkpt>
      <trkpt lat="45.21618" lon="5.73575">
        <ele>742</ele>
        <time>2021-07-18T04:34:52.000Z</time>
      </trkpt>
      <trkpt lat="45.21617" lon="5.73575">
        <ele>742.40002441406</ele>
        <time>2021-07-18T04:34:53.000Z</time>
      </trkpt>
      <trkpt lat="45.21617" lon="5.73574">
        <ele>742.40002441406</ele>
        <time>2021-07-18T04:34:54.000Z</time>
      </trkpt>
      <trkpt lat="45.21617" lon="5.73573">
        <ele>742.59997558594</ele>
        <time>2021-07-18T04:34:55.000Z</time>
      </trkpt>
      <trkpt lat="45.21614" lon="5.7357">
        <ele>743.79998779297</ele>
        <time>2021-07-18T04:34:59.000Z</time>
      </trkpt>
      <trkpt lat="45.21614" lon="5.73568">
        <ele>744</ele>
        <time>2021-07-18T04:35:01.000Z</time>
      </trkpt>
      <trkpt lat="45.21613" lon="5.73564">
        <ele>744.59997558594</ele>
        <time>2021-07-18T04:35:04.000Z</time>
      </trkpt>
      <trkpt lat="45.21612" lon="5.73562">
        <ele>744.79998779297</ele>
        <time>2021-07-18T04:35:05.000Z</time>
      </trkpt>
      <trkpt lat="45.21611" lon="5.73556">
        <ele>746</ele>
        <time>2021-07-18T04:35:09.000Z</time>
      </trkpt>
      <trkpt lat="45.2161" lon="5.73552">
        <ele>746.40002441406</ele>
        <time>2021-07-18T04:35:12.000Z</time>
      </trkpt>
      <trkpt lat="45.21609" lon="5.73549">
        <ele>747</ele>
        <time>2021-07-18T04:35:14.000Z</time>
      </trkpt>
      <trkpt lat="45.21609" lon="5.73546">
        <ele>747.20001220703</ele>
        <time>2021-07-18T04:35:16.000Z</time>
      </trkpt>
      <trkpt lat="45.21608" lon="5.73541">
        <ele>748</ele>
        <time>2021-07-18T04:35:19.000Z</time>
      </trkpt>
      <trkpt lat="45.21607" lon="5.73538">
        <ele>748.40002441406</ele>
        <time>2021-07-18T04:35:21.000Z</time>
      </trkpt>
      <trkpt lat="45.21608" lon="5.73535">
        <ele>748.79998779297</ele>
        <time>2021-07-18T04:35:23.000Z</time>
      </trkpt>
      <trkpt lat="45.21608" lon="5.73534">
        <ele>748.79998779297</ele>
        <time>2021-07-18T04:35:24.000Z</time>
      </trkpt>
      <trkpt lat="45.21608" lon="5.73534">
        <ele>749.20001220703</ele>
        <time>2021-07-18T04:35:25.000Z</time>
      </trkpt>
      <trkpt lat="45.21608" lon="5.73534">
        <ele>749.40002441406</ele>
        <time>2021-07-18T04:35:26.000Z</time>
      </trkpt>
      <trkpt lat="45.2161" lon="5.73536">
        <ele>750</ele>
        <time>2021-07-18T04:35:28.000Z</time>
      </trkpt>
      <trkpt lat="45.21611" lon="5.73538">
        <ele>750.20001220703</ele>
        <time>2021-07-18T04:35:29.000Z</time>
      </trkpt>
      <trkpt lat="45.21611" lon="5.73538">
        <ele>750.20001220703</ele>
        <time>2021-07-18T04:35:30.000Z</time>
      </trkpt>
      <trkpt lat="45.21613" lon="5.7354">
        <ele>750.40002441406</ele>
        <time>2021-07-18T04:35:32.000Z</time>
      </trkpt>
      <trkpt lat="45.21614" lon="5.73543">
        <ele>751.20001220703</ele>
        <time>2021-07-18T04:35:34.000Z</time>
      </trkpt>
      <trkpt lat="45.21615" lon="5.73543">
        <ele>751.59997558594</ele>
        <time>2021-07-18T04:35:35.000Z</time>
      </trkpt>
      <trkpt lat="45.21617" lon="5.73544">
        <ele>751.79998779297</ele>
        <time>2021-07-18T04:35:37.000Z</time>
      </trkpt>
      <trkpt lat="45.21618" lon="5.73545">
        <ele>752.20001220703</ele>
        <time>2021-07-18T04:35:39.000Z</time>
      </trkpt>
      <trkpt lat="45.2162" lon="5.73547">
        <ele>752.59997558594</ele>
        <time>2021-07-18T04:35:41.000Z</time>
      </trkpt>
      <trkpt lat="45.21622" lon="5.73548">
        <ele>753.20001220703</ele>
        <time>2021-07-18T04:35:43.000Z</time>
      </trkpt>
      <trkpt lat="45.21623" lon="5.73552">
        <ele>754.20001220703</ele>
        <time>2021-07-18T04:35:46.000Z</time>
      </trkpt>
      <trkpt lat="45.21624" lon="5.73554">
        <ele>754.40002441406</ele>
        <time>2021-07-18T04:35:48.000Z</time>
      </trkpt>
      <trkpt lat="45.21627" lon="5.73556">
        <ele>754.79998779297</ele>
        <time>2021-07-18T04:35:51.000Z</time>
      </trkpt>
      <trkpt lat="45.21629" lon="5.73557">
        <ele>755.20001220703</ele>
        <time>2021-07-18T04:35:53.000Z</time>
      </trkpt>
      <trkpt lat="45.2163" lon="5.73557">
        <ele>755.20001220703</ele>
        <time>2021-07-18T04:35:54.000Z</time>
      </trkpt>
      <trkpt lat="45.21631" lon="5.73558">
        <ele>755.59997558594</ele>
        <time>2021-07-18T04:35:55.000Z</time>
      </trkpt>
      <trkpt lat="45.21632" lon="5.73559">
        <ele>756</ele>
        <time>2021-07-18T04:35:56.000Z</time>
      </trkpt>
      <trkpt lat="45.21633" lon="5.73559">
        <ele>756.20001220703</ele>
        <time>2021-07-18T04:35:59.000Z</time>
      </trkpt>
      <trkpt lat="45.21634" lon="5.73559">
        <ele>756.79998779297</ele>
        <time>2021-07-18T04:36:01.000Z</time>
      </trkpt>
      <trkpt lat="45.21638" lon="5.73558">
        <ele>757.79998779297</ele>
        <time>2021-07-18T04:36:05.000Z</time>
      </trkpt>
      <trkpt lat="45.2164" lon="5.73558">
        <ele>758.40002441406</ele>
        <time>2021-07-18T04:36:08.000Z</time>
      </trkpt>
      <trkpt lat="45.21643" lon="5.73557">
        <ele>759</ele>
        <time>2021-07-18T04:36:11.000Z</time>
      </trkpt>
      <trkpt lat="45.21646" lon="5.73558">
        <ele>759.59997558594</ele>
        <time>2021-07-18T04:36:12.000Z</time>
      </trkpt>
      <trkpt lat="45.21647" lon="5.73558">
        <ele>760</ele>
        <time>2021-07-18T04:36:14.000Z</time>
      </trkpt>
      <trkpt lat="45.21649" lon="5.73558">
        <ele>760.20001220703</ele>
        <time>2021-07-18T04:36:15.000Z</time>
      </trkpt>
      <trkpt lat="45.2165" lon="5.73558">
        <ele>760.20001220703</ele>
        <time>2021-07-18T04:36:16.000Z</time>
      </trkpt>
      <trkpt lat="45.2165" lon="5.73557">
        <ele>760.79998779297</ele>
        <time>2021-07-18T04:36:17.000Z</time>
      </trkpt>
      <trkpt lat="45.2165" lon="5.73557">
        <ele>761.40002441406</ele>
        <time>2021-07-18T04:36:19.000Z</time>
      </trkpt>
      <trkpt lat="45.21653" lon="5.73556">
        <ele>761.59997558594</ele>
        <time>2021-07-18T04:36:22.000Z</time>
      </trkpt>
      <trkpt lat="45.21658" lon="5.73554">
        <ele>762.20001220703</ele>
        <time>2021-07-18T04:36:24.000Z</time>
      </trkpt>
      <trkpt lat="45.21658" lon="5.73555">
        <ele>762.40002441406</ele>
        <time>2021-07-18T04:36:25.000Z</time>
      </trkpt>
      <trkpt lat="45.21661" lon="5.73556">
        <ele>763.20001220703</ele>
        <time>2021-07-18T04:36:28.000Z</time>
      </trkpt>
      <trkpt lat="45.21665" lon="5.73555">
        <ele>763.40002441406</ele>
        <time>2021-07-18T04:36:31.000Z</time>
      </trkpt>
      <trkpt lat="45.21667" lon="5.73555">
        <ele>763.59997558594</ele>
        <time>2021-07-18T04:36:32.000Z</time>
      </trkpt>
      <trkpt lat="45.2167" lon="5.73555">
        <ele>764.20001220703</ele>
        <time>2021-07-18T04:36:35.000Z</time>
      </trkpt>
      <trkpt lat="45.21673" lon="5.73555">
        <ele>764.20001220703</ele>
        <time>2021-07-18T04:36:37.000Z</time>
      </trkpt>
      <trkpt lat="45.21674" lon="5.73555">
        <ele>764.59997558594</ele>
        <time>2021-07-18T04:36:38.000Z</time>
      </trkpt>
      <trkpt lat="45.21675" lon="5.73555">
        <ele>764.79998779297</ele>
        <time>2021-07-18T04:36:39.000Z</time>
      </trkpt>
      <trkpt lat="45.21676" lon="5.73555">
        <ele>765.20001220703</ele>
        <time>2021-07-18T04:36:40.000Z</time>
      </trkpt>
      <trkpt lat="45.21678" lon="5.73558">
        <ele>765.59997558594</ele>
        <time>2021-07-18T04:36:42.000Z</time>
      </trkpt>
      <trkpt lat="45.21679" lon="5.73558">
        <ele>765.79998779297</ele>
        <time>2021-07-18T04:36:43.000Z</time>
      </trkpt>
      <trkpt lat="45.21681" lon="5.73558">
        <ele>766.40002441406</ele>
        <time>2021-07-18T04:36:44.000Z</time>
      </trkpt>
      <trkpt lat="45.21686" lon="5.73559">
        <ele>767</ele>
        <time>2021-07-18T04:36:47.000Z</time>
      </trkpt>
      <trkpt lat="45.21688" lon="5.7356">
        <ele>767</ele>
        <time>2021-07-18T04:36:48.000Z</time>
      </trkpt>
      <trkpt lat="45.21689" lon="5.73561">
        <ele>767.40002441406</ele>
        <time>2021-07-18T04:36:49.000Z</time>
      </trkpt>
      <trkpt lat="45.21689" lon="5.7356">
        <ele>767.79998779297</ele>
        <time>2021-07-18T04:36:50.000Z</time>
      </trkpt>
      <trkpt lat="45.21689" lon="5.7356">
        <ele>768.20001220703</ele>
        <time>2021-07-18T04:36:52.000Z</time>
      </trkpt>
      <trkpt lat="45.21689" lon="5.73561">
        <ele>768.40002441406</ele>
        <time>2021-07-18T04:36:53.000Z</time>
      </trkpt>
      <trkpt lat="45.21688" lon="5.73562">
        <ele>768.79998779297</ele>
        <time>2021-07-18T04:36:54.000Z</time>
      </trkpt>
      <trkpt lat="45.21688" lon="5.73562">
        <ele>769</ele>
        <time>2021-07-18T04:36:55.000Z</time>
      </trkpt>
      <trkpt lat="45.21687" lon="5.73563">
        <ele>769.59997558594</ele>
        <time>2021-07-18T04:36:57.000Z</time>
      </trkpt>
      <trkpt lat="45.21686" lon="5.73564">
        <ele>769.79998779297</ele>
        <time>2021-07-18T04:36:58.000Z</time>
      </trkpt>
      <trkpt lat="45.21685" lon="5.73564">
        <ele>770</ele>
        <time>2021-07-18T04:36:59.000Z</time>
      </trkpt>
      <trkpt lat="45.21681" lon="5.73565">
        <ele>771</ele>
        <time>2021-07-18T04:37:02.000Z</time>
      </trkpt>
      <trkpt lat="45.2168" lon="5.73564">
        <ele>771</ele>
        <time>2021-07-18T04:37:03.000Z</time>
      </trkpt>
      <trkpt lat="45.21679" lon="5.73564">
        <ele>771</ele>
        <time>2021-07-18T04:37:04.000Z</time>
      </trkpt>
      <trkpt lat="45.21678" lon="5.73564">
        <ele>771.20001220703</ele>
        <time>2021-07-18T04:37:05.000Z</time>
      </trkpt>
      <trkpt lat="45.21677" lon="5.73562">
        <ele>771.79998779297</ele>
        <time>2021-07-18T04:37:07.000Z</time>
      </trkpt>
      <trkpt lat="45.21676" lon="5.73561">
        <ele>772</ele>
        <time>2021-07-18T04:37:08.000Z</time>
      </trkpt>
      <trkpt lat="45.21675" lon="5.7356">
        <ele>772.20001220703</ele>
        <time>2021-07-18T04:37:09.000Z</time>
      </trkpt>
      <trkpt lat="45.21673" lon="5.73558">
        <ele>773</ele>
        <time>2021-07-18T04:37:12.000Z</time>
      </trkpt>
      <trkpt lat="45.21672" lon="5.73558">
        <ele>773</ele>
        <time>2021-07-18T04:37:13.000Z</time>
      </trkpt>
      <trkpt lat="45.21671" lon="5.73557">
        <ele>773.40002441406</ele>
        <time>2021-07-18T04:37:14.000Z</time>
      </trkpt>
      <trkpt lat="45.21671" lon="5.73556">
        <ele>773.40002441406</ele>
        <time>2021-07-18T04:37:15.000Z</time>
      </trkpt>
      <trkpt lat="45.21669" lon="5.73555">
        <ele>773.79998779297</ele>
        <time>2021-07-18T04:37:17.000Z</time>
      </trkpt>
      <trkpt lat="45.21668" lon="5.73556">
        <ele>774.20001220703</ele>
        <time>2021-07-18T04:37:18.000Z</time>
      </trkpt>
      <trkpt lat="45.21664" lon="5.73556">
        <ele>775</ele>
        <time>2021-07-18T04:37:21.000Z</time>
      </trkpt>
      <trkpt lat="45.21663" lon="5.73555">
        <ele>775.20001220703</ele>
        <time>2021-07-18T04:37:23.000Z</time>
      </trkpt>
      <trkpt lat="45.21662" lon="5.73553">
        <ele>775.79998779297</ele>
        <time>2021-07-18T04:37:24.000Z</time>
      </trkpt>
      <trkpt lat="45.21657" lon="5.73551">
        <ele>776.40002441406</ele>
        <time>2021-07-18T04:37:28.000Z</time>
      </trkpt>
      <trkpt lat="45.21655" lon="5.7355">
        <ele>777.20001220703</ele>
        <time>2021-07-18T04:37:30.000Z</time>
      </trkpt>
      <trkpt lat="45.21654" lon="5.73549">
        <ele>777.59997558594</ele>
        <time>2021-07-18T04:37:31.000Z</time>
      </trkpt>
      <trkpt lat="45.21655" lon="5.73547">
        <ele>778.20001220703</ele>
        <time>2021-07-18T04:37:33.000Z</time>
      </trkpt>
      <trkpt lat="45.21655" lon="5.73545">
        <ele>778.59997558594</ele>
        <time>2021-07-18T04:37:34.000Z</time>
      </trkpt>
      <trkpt lat="45.21656" lon="5.73544">
        <ele>779</ele>
        <time>2021-07-18T04:37:36.000Z</time>
      </trkpt>
      <trkpt lat="45.21658" lon="5.73543">
        <ele>780</ele>
        <time>2021-07-18T04:37:38.000Z</time>
      </trkpt>
      <trkpt lat="45.2166" lon="5.7354">
        <ele>780.20001220703</ele>
        <time>2021-07-18T04:37:40.000Z</time>
      </trkpt>
      <trkpt lat="45.21664" lon="5.73537">
        <ele>780.79998779297</ele>
        <time>2021-07-18T04:37:43.000Z</time>
      </trkpt>
      <trkpt lat="45.21665" lon="5.73537">
        <ele>781.20001220703</ele>
        <time>2021-07-18T04:37:44.000Z</time>
      </trkpt>
      <trkpt lat="45.21668" lon="5.73536">
        <ele>781.59997558594</ele>
        <time>2021-07-18T04:37:47.000Z</time>
      </trkpt>
      <trkpt lat="45.2167" lon="5.73536">
        <ele>781.79998779297</ele>
        <time>2021-07-18T04:37:49.000Z</time>
      </trkpt>
      <trkpt lat="45.21671" lon="5.73536">
        <ele>782.59997558594</ele>
        <time>2021-07-18T04:37:51.000Z</time>
      </trkpt>
      <trkpt lat="45.21673" lon="5.73536">
        <ele>782.59997558594</ele>
        <time>2021-07-18T04:37:52.000Z</time>
      </trkpt>
      <trkpt lat="45.21675" lon="5.73536">
        <ele>783</ele>
        <time>2021-07-18T04:37:54.000Z</time>
      </trkpt>
      <trkpt lat="45.21677" lon="5.73535">
        <ele>783.59997558594</ele>
        <time>2021-07-18T04:37:56.000Z</time>
      </trkpt>
      <trkpt lat="45.2168" lon="5.73534">
        <ele>784</ele>
        <time>2021-07-18T04:37:59.000Z</time>
      </trkpt>
      <trkpt lat="45.21681" lon="5.73534">
        <ele>784.20001220703</ele>
        <time>2021-07-18T04:38:00.000Z</time>
      </trkpt>
      <trkpt lat="45.21682" lon="5.73535">
        <ele>785</ele>
        <time>2021-07-18T04:38:02.000Z</time>
      </trkpt>
      <trkpt lat="45.21686" lon="5.73537">
        <ele>785.79998779297</ele>
        <time>2021-07-18T04:38:06.000Z</time>
      </trkpt>
      <trkpt lat="45.21687" lon="5.73537">
        <ele>786</ele>
        <time>2021-07-18T04:38:07.000Z</time>
      </trkpt>
      <trkpt lat="45.21689" lon="5.73537">
        <ele>786.40002441406</ele>
        <time>2021-07-18T04:38:08.000Z</time>
      </trkpt>
      <trkpt lat="45.2169" lon="5.73538">
        <ele>786.79998779297</ele>
        <time>2021-07-18T04:38:09.000Z</time>
      </trkpt>
      <trkpt lat="45.21694" lon="5.73538">
        <ele>787.20001220703</ele>
        <time>2021-07-18T04:38:11.000Z</time>
      </trkpt>
      <trkpt lat="45.21695" lon="5.73538">
        <ele>787.40002441406</ele>
        <time>2021-07-18T04:38:12.000Z</time>
      </trkpt>
      <trkpt lat="45.21698" lon="5.73536">
        <ele>788.59997558594</ele>
        <time>2021-07-18T04:38:15.000Z</time>
      </trkpt>
      <trkpt lat="45.21699" lon="5.73536">
        <ele>788.59997558594</ele>
        <time>2021-07-18T04:38:16.000Z</time>
      </trkpt>
      <trkpt lat="45.21699" lon="5.73535">
        <ele>788.79998779297</ele>
        <time>2021-07-18T04:38:17.000Z</time>
      </trkpt>
      <trkpt lat="45.21698" lon="5.73532">
        <ele>789.79998779297</ele>
        <time>2021-07-18T04:38:20.000Z</time>
      </trkpt>
      <trkpt lat="45.21697" lon="5.7353">
        <ele>789.79998779297</ele>
        <time>2021-07-18T04:38:21.000Z</time>
      </trkpt>
      <trkpt lat="45.21692" lon="5.73527">
        <ele>790.59997558594</ele>
        <time>2021-07-18T04:38:27.000Z</time>
      </trkpt>
      <trkpt lat="45.21691" lon="5.73526">
        <ele>790.79998779297</ele>
        <time>2021-07-18T04:38:29.000Z</time>
      </trkpt>
      <trkpt lat="45.2169" lon="5.73525">
        <ele>791</ele>
        <time>2021-07-18T04:38:30.000Z</time>
      </trkpt>
      <trkpt lat="45.21687" lon="5.73523">
        <ele>792</ele>
        <time>2021-07-18T04:38:33.000Z</time>
      </trkpt>
      <trkpt lat="45.21687" lon="5.73521">
        <ele>792.40002441406</ele>
        <time>2021-07-18T04:38:34.000Z</time>
      </trkpt>
      <trkpt lat="45.21685" lon="5.73519">
        <ele>793.59997558594</ele>
        <time>2021-07-18T04:38:37.000Z</time>
      </trkpt>
      <trkpt lat="45.21685" lon="5.73519">
        <ele>793.79998779297</ele>
        <time>2021-07-18T04:38:38.000Z</time>
      </trkpt>
      <trkpt lat="45.2168" lon="5.73517">
        <ele>794.59997558594</ele>
        <time>2021-07-18T04:38:42.000Z</time>
      </trkpt>
      <trkpt lat="45.21679" lon="5.73517">
        <ele>794.79998779297</ele>
        <time>2021-07-18T04:38:43.000Z</time>
      </trkpt>
      <trkpt lat="45.21679" lon="5.73517">
        <ele>795.20001220703</ele>
        <time>2021-07-18T04:38:44.000Z</time>
      </trkpt>
      <trkpt lat="45.21678" lon="5.73517">
        <ele>795.20001220703</ele>
        <time>2021-07-18T04:38:45.000Z</time>
      </trkpt>
      <trkpt lat="45.21677" lon="5.73516">
        <ele>795.79998779297</ele>
        <time>2021-07-18T04:38:47.000Z</time>
      </trkpt>
      <trkpt lat="45.21676" lon="5.73515">
        <ele>796</ele>
        <time>2021-07-18T04:38:48.000Z</time>
      </trkpt>
      <trkpt lat="45.21675" lon="5.73515">
        <ele>796.20001220703</ele>
        <time>2021-07-18T04:38:49.000Z</time>
      </trkpt>
      <trkpt lat="45.21674" lon="5.73514">
        <ele>796.59997558594</ele>
        <time>2021-07-18T04:38:50.000Z</time>
      </trkpt>
      <trkpt lat="45.21671" lon="5.73513">
        <ele>796.79998779297</ele>
        <time>2021-07-18T04:38:53.000Z</time>
      </trkpt>
      <trkpt lat="45.21667" lon="5.73509">
        <ele>798</ele>
        <time>2021-07-18T04:38:58.000Z</time>
      </trkpt>
      <trkpt lat="45.21666" lon="5.735">
        <ele>799</ele>
        <time>2021-07-18T04:39:03.000Z</time>
      </trkpt>
      <trkpt lat="45.21667" lon="5.73496">
        <ele>799.40002441406</ele>
        <time>2021-07-18T04:39:05.000Z</time>
      </trkpt>
      <trkpt lat="45.21667" lon="5.73489">
        <ele>800.40002441406</ele>
        <time>2021-07-18T04:39:08.000Z</time>
      </trkpt>
      <trkpt lat="45.21666" lon="5.73487">
        <ele>800.59997558594</ele>
        <time>2021-07-18T04:39:10.000Z</time>
      </trkpt>
      <trkpt lat="45.21665" lon="5.73484">
        <ele>801.20001220703</ele>
        <time>2021-07-18T04:39:12.000Z</time>
      </trkpt>
      <trkpt lat="45.21665" lon="5.73481">
        <ele>801.59997558594</ele>
        <time>2021-07-18T04:39:13.000Z</time>
      </trkpt>
      <trkpt lat="45.21664" lon="5.73475">
        <ele>802.40002441406</ele>
        <time>2021-07-18T04:39:16.000Z</time>
      </trkpt>
      <trkpt lat="45.21663" lon="5.7347">
        <ele>802.79998779297</ele>
        <time>2021-07-18T04:39:18.000Z</time>
      </trkpt>
      <trkpt lat="45.21663" lon="5.73457">
        <ele>803.79998779297</ele>
        <time>2021-07-18T04:39:23.000Z</time>
      </trkpt>
      <trkpt lat="45.21663" lon="5.73455">
        <ele>804</ele>
        <time>2021-07-18T04:39:24.000Z</time>
      </trkpt>
      <trkpt lat="45.21663" lon="5.73447">
        <ele>805</ele>
        <time>2021-07-18T04:39:28.000Z</time>
      </trkpt>
      <trkpt lat="45.21664" lon="5.73442">
        <ele>805.79998779297</ele>
        <time>2021-07-18T04:39:31.000Z</time>
      </trkpt>
      <trkpt lat="45.21664" lon="5.7344">
        <ele>806.20001220703</ele>
        <time>2021-07-18T04:39:32.000Z</time>
      </trkpt>
      <trkpt lat="45.21665" lon="5.73435">
        <ele>806.79998779297</ele>
        <time>2021-07-18T04:39:35.000Z</time>
      </trkpt>
      <trkpt lat="45.21665" lon="5.73431">
        <ele>807.40002441406</ele>
        <time>2021-07-18T04:39:37.000Z</time>
      </trkpt>
      <trkpt lat="45.21665" lon="5.73429">
        <ele>807.79998779297</ele>
        <time>2021-07-18T04:39:38.000Z</time>
      </trkpt>
      <trkpt lat="45.21665" lon="5.73424">
        <ele>809</ele>
        <time>2021-07-18T04:39:41.000Z</time>
      </trkpt>
      <trkpt lat="45.21664" lon="5.7342">
        <ele>809.40002441406</ele>
        <time>2021-07-18T04:39:44.000Z</time>
      </trkpt>
      <trkpt lat="45.21663" lon="5.73419">
        <ele>809.59997558594</ele>
        <time>2021-07-18T04:39:46.000Z</time>
      </trkpt>
      <trkpt lat="45.21662" lon="5.73418">
        <ele>810.59997558594</ele>
        <time>2021-07-18T04:39:47.000Z</time>
      </trkpt>
      <trkpt lat="45.21662" lon="5.73417">
        <ele>810.59997558594</ele>
        <time>2021-07-18T04:39:48.000Z</time>
      </trkpt>
      <trkpt lat="45.21661" lon="5.73416">
        <ele>811</ele>
        <time>2021-07-18T04:39:49.000Z</time>
      </trkpt>
      <trkpt lat="45.2166" lon="5.73412">
        <ele>811.40002441406</ele>
        <time>2021-07-18T04:39:51.000Z</time>
      </trkpt>
      <trkpt lat="45.21658" lon="5.7341">
        <ele>812.20001220703</ele>
        <time>2021-07-18T04:39:53.000Z</time>
      </trkpt>
      <trkpt lat="45.21657" lon="5.73409">
        <ele>812.59997558594</ele>
        <time>2021-07-18T04:39:55.000Z</time>
      </trkpt>
      <trkpt lat="45.21657" lon="5.73408">
        <ele>812.59997558594</ele>
        <time>2021-07-18T04:39:56.000Z</time>
      </trkpt>
      <trkpt lat="45.21656" lon="5.73407">
        <ele>813.20001220703</ele>
        <time>2021-07-18T04:39:57.000Z</time>
      </trkpt>
      <trkpt lat="45.21656" lon="5.73405">
        <ele>813.20001220703</ele>
        <time>2021-07-18T04:39:58.000Z</time>
      </trkpt>
      <trkpt lat="45.21656" lon="5.73402">
        <ele>814</ele>
        <time>2021-07-18T04:40:00.000Z</time>
      </trkpt>
      <trkpt lat="45.21654" lon="5.73399">
        <ele>814.20001220703</ele>
        <time>2021-07-18T04:40:02.000Z</time>
      </trkpt>
      <trkpt lat="45.21653" lon="5.73391">
        <ele>815.40002441406</ele>
        <time>2021-07-18T04:40:05.000Z</time>
      </trkpt>
      <trkpt lat="45.21652" lon="5.73389">
        <ele>815.79998779297</ele>
        <time>2021-07-18T04:40:07.000Z</time>
      </trkpt>
      <trkpt lat="45.2165" lon="5.73387">
        <ele>816.59997558594</ele>
        <time>2021-07-18T04:40:09.000Z</time>
      </trkpt>
      <trkpt lat="45.21648" lon="5.7338">
        <ele>818</ele>
        <time>2021-07-18T04:40:13.000Z</time>
      </trkpt>
      <trkpt lat="45.21646" lon="5.73375">
        <ele>818.40002441406</ele>
        <time>2021-07-18T04:40:16.000Z</time>
      </trkpt>
      <trkpt lat="45.21645" lon="5.73373">
        <ele>818.40002441406</ele>
        <time>2021-07-18T04:40:17.000Z</time>
      </trkpt>
      <trkpt lat="45.21644" lon="5.73372">
        <ele>819</ele>
        <time>2021-07-18T04:40:18.000Z</time>
      </trkpt>
      <trkpt lat="45.21643" lon="5.73371">
        <ele>820</ele>
        <time>2021-07-18T04:40:20.000Z</time>
      </trkpt>
      <trkpt lat="45.21642" lon="5.7337">
        <ele>820.20001220703</ele>
        <time>2021-07-18T04:40:21.000Z</time>
      </trkpt>
      <trkpt lat="45.21642" lon="5.73368">
        <ele>820.40002441406</ele>
        <time>2021-07-18T04:40:22.000Z</time>
      </trkpt>
      <trkpt lat="45.21642" lon="5.73366">
        <ele>820.79998779297</ele>
        <time>2021-07-18T04:40:23.000Z</time>
      </trkpt>
      <trkpt lat="45.2164" lon="5.73364">
        <ele>821.20001220703</ele>
        <time>2021-07-18T04:40:25.000Z</time>
      </trkpt>
      <trkpt lat="45.2164" lon="5.73363">
        <ele>821.59997558594</ele>
        <time>2021-07-18T04:40:26.000Z</time>
      </trkpt>
      <trkpt lat="45.21638" lon="5.73359">
        <ele>822.59997558594</ele>
        <time>2021-07-18T04:40:29.000Z</time>
      </trkpt>
      <trkpt lat="45.21635" lon="5.73356">
        <ele>823.59997558594</ele>
        <time>2021-07-18T04:40:33.000Z</time>
      </trkpt>
      <trkpt lat="45.21635" lon="5.73354">
        <ele>823.59997558594</ele>
        <time>2021-07-18T04:40:34.000Z</time>
      </trkpt>
      <trkpt lat="45.21635" lon="5.7335">
        <ele>824.79998779297</ele>
        <time>2021-07-18T04:40:37.000Z</time>
      </trkpt>
      <trkpt lat="45.21635" lon="5.73348">
        <ele>825.40002441406</ele>
        <time>2021-07-18T04:40:39.000Z</time>
      </trkpt>
      <trkpt lat="45.21634" lon="5.73347">
        <ele>825.40002441406</ele>
        <time>2021-07-18T04:40:40.000Z</time>
      </trkpt>
      <trkpt lat="45.21633" lon="5.73345">
        <ele>825.59997558594</ele>
        <time>2021-07-18T04:40:42.000Z</time>
      </trkpt>
      <trkpt lat="45.21632" lon="5.73344">
        <ele>826.20001220703</ele>
        <time>2021-07-18T04:40:43.000Z</time>
      </trkpt>
      <trkpt lat="45.2163" lon="5.73339">
        <ele>826.59997558594</ele>
        <time>2021-07-18T04:40:46.000Z</time>
      </trkpt>
      <trkpt lat="45.2163" lon="5.73335">
        <ele>827.40002441406</ele>
        <time>2021-07-18T04:40:48.000Z</time>
      </trkpt>
      <trkpt lat="45.21629" lon="5.73331">
        <ele>827.79998779297</ele>
        <time>2021-07-18T04:40:50.000Z</time>
      </trkpt>
      <trkpt lat="45.21628" lon="5.73325">
        <ele>828.59997558594</ele>
        <time>2021-07-18T04:40:53.000Z</time>
      </trkpt>
      <trkpt lat="45.21626" lon="5.73318">
        <ele>829.59997558594</ele>
        <time>2021-07-18T04:40:57.000Z</time>
      </trkpt>
      <trkpt lat="45.21625" lon="5.73317">
        <ele>829.79998779297</ele>
        <time>2021-07-18T04:40:58.000Z</time>
      </trkpt>
      <trkpt lat="45.21624" lon="5.73315">
        <ele>829.79998779297</ele>
        <time>2021-07-18T04:40:59.000Z</time>
      </trkpt>
      <trkpt lat="45.21624" lon="5.73312">
        <ele>830.59997558594</ele>
        <time>2021-07-18T04:41:01.000Z</time>
      </trkpt>
      <trkpt lat="45.21624" lon="5.7331">
        <ele>830.59997558594</ele>
        <time>2021-07-18T04:41:02.000Z</time>
      </trkpt>
      <trkpt lat="45.21623" lon="5.73307">
        <ele>830.79998779297</ele>
        <time>2021-07-18T04:41:03.000Z</time>
      </trkpt>
      <trkpt lat="45.21623" lon="5.73305">
        <ele>831</ele>
        <time>2021-07-18T04:41:04.000Z</time>
      </trkpt>
      <trkpt lat="45.21622" lon="5.73302">
        <ele>831.59997558594</ele>
        <time>2021-07-18T04:41:06.000Z</time>
      </trkpt>
      <trkpt lat="45.21621" lon="5.733">
        <ele>831.79998779297</ele>
        <time>2021-07-18T04:41:07.000Z</time>
      </trkpt>
      <trkpt lat="45.21619" lon="5.73294">
        <ele>832.20001220703</ele>
        <time>2021-07-18T04:41:10.000Z</time>
      </trkpt>
      <trkpt lat="45.21618" lon="5.73293">
        <ele>832.40002441406</ele>
        <time>2021-07-18T04:41:11.000Z</time>
      </trkpt>
      <trkpt lat="45.21616" lon="5.73289">
        <ele>833</ele>
        <time>2021-07-18T04:41:14.000Z</time>
      </trkpt>
      <trkpt lat="45.21613" lon="5.73285">
        <ele>833.40002441406</ele>
        <time>2021-07-18T04:41:17.000Z</time>
      </trkpt>
      <trkpt lat="45.21609" lon="5.73282">
        <ele>834.40002441406</ele>
        <time>2021-07-18T04:41:20.000Z</time>
      </trkpt>
      <trkpt lat="45.21605" lon="5.7328">
        <ele>834.79998779297</ele>
        <time>2021-07-18T04:41:23.000Z</time>
      </trkpt>
      <trkpt lat="45.21603" lon="5.73277">
        <ele>835.40002441406</ele>
        <time>2021-07-18T04:41:25.000Z</time>
      </trkpt>
      <trkpt lat="45.21603" lon="5.73276">
        <ele>835.59997558594</ele>
        <time>2021-07-18T04:41:26.000Z</time>
      </trkpt>
      <trkpt lat="45.21601" lon="5.73275">
        <ele>836.20001220703</ele>
        <time>2021-07-18T04:41:28.000Z</time>
      </trkpt>
      <trkpt lat="45.21598" lon="5.73275">
        <ele>836.40002441406</ele>
        <time>2021-07-18T04:41:30.000Z</time>
      </trkpt>
      <trkpt lat="45.21596" lon="5.73275">
        <ele>836.79998779297</ele>
        <time>2021-07-18T04:41:31.000Z</time>
      </trkpt>
      <trkpt lat="45.21595" lon="5.73275">
        <ele>837.20001220703</ele>
        <time>2021-07-18T04:41:32.000Z</time>
      </trkpt>
      <trkpt lat="45.21592" lon="5.73273">
        <ele>838</ele>
        <time>2021-07-18T04:41:35.000Z</time>
      </trkpt>
      <trkpt lat="45.21591" lon="5.73271">
        <ele>838.59997558594</ele>
        <time>2021-07-18T04:41:38.000Z</time>
      </trkpt>
      <trkpt lat="45.21591" lon="5.73269">
        <ele>839.20001220703</ele>
        <time>2021-07-18T04:41:39.000Z</time>
      </trkpt>
      <trkpt lat="45.2159" lon="5.73267">
        <ele>839.59997558594</ele>
        <time>2021-07-18T04:41:41.000Z</time>
      </trkpt>
      <trkpt lat="45.21589" lon="5.73265">
        <ele>840</ele>
        <time>2021-07-18T04:41:42.000Z</time>
      </trkpt>
      <trkpt lat="45.21589" lon="5.73263">
        <ele>840.40002441406</ele>
        <time>2021-07-18T04:41:44.000Z</time>
      </trkpt>
      <trkpt lat="45.21587" lon="5.73262">
        <ele>841.20001220703</ele>
        <time>2021-07-18T04:41:46.000Z</time>
      </trkpt>
      <trkpt lat="45.21587" lon="5.73261">
        <ele>841.40002441406</ele>
        <time>2021-07-18T04:41:47.000Z</time>
      </trkpt>
      <trkpt lat="45.21586" lon="5.73259">
        <ele>841.40002441406</ele>
        <time>2021-07-18T04:41:48.000Z</time>
      </trkpt>
      <trkpt lat="45.21587" lon="5.73252">
        <ele>842.40002441406</ele>
        <time>2021-07-18T04:41:52.000Z</time>
      </trkpt>
      <trkpt lat="45.21586" lon="5.73251">
        <ele>842.59997558594</ele>
        <time>2021-07-18T04:41:53.000Z</time>
      </trkpt>
      <trkpt lat="45.21586" lon="5.7325">
        <ele>843.20001220703</ele>
        <time>2021-07-18T04:41:54.000Z</time>
      </trkpt>
      <trkpt lat="45.21585" lon="5.73249">
        <ele>843.79998779297</ele>
        <time>2021-07-18T04:41:55.000Z</time>
      </trkpt>
      <trkpt lat="45.21584" lon="5.73245">
        <ele>843.79998779297</ele>
        <time>2021-07-18T04:41:57.000Z</time>
      </trkpt>
      <trkpt lat="45.21583" lon="5.73239">
        <ele>844.79998779297</ele>
        <time>2021-07-18T04:42:00.000Z</time>
      </trkpt>
      <trkpt lat="45.21581" lon="5.73237">
        <ele>844.79998779297</ele>
        <time>2021-07-18T04:42:02.000Z</time>
      </trkpt>
      <trkpt lat="45.21575" lon="5.73232">
        <ele>845.40002441406</ele>
        <time>2021-07-18T04:42:06.000Z</time>
      </trkpt>
      <trkpt lat="45.21574" lon="5.73231">
        <ele>845.59997558594</ele>
        <time>2021-07-18T04:42:07.000Z</time>
      </trkpt>
      <trkpt lat="45.21572" lon="5.73228">
        <ele>846</ele>
        <time>2021-07-18T04:42:09.000Z</time>
      </trkpt>
      <trkpt lat="45.21569" lon="5.73224">
        <ele>846.59997558594</ele>
        <time>2021-07-18T04:42:12.000Z</time>
      </trkpt>
      <trkpt lat="45.21568" lon="5.73223">
        <ele>846.79998779297</ele>
        <time>2021-07-18T04:42:13.000Z</time>
      </trkpt>
      <trkpt lat="45.21567" lon="5.73221">
        <ele>846.79998779297</ele>
        <time>2021-07-18T04:42:14.000Z</time>
      </trkpt>
      <trkpt lat="45.21565" lon="5.73218">
        <ele>847.20001220703</ele>
        <time>2021-07-18T04:42:16.000Z</time>
      </trkpt>
      <trkpt lat="45.21564" lon="5.73217">
        <ele>847.59997558594</ele>
        <time>2021-07-18T04:42:17.000Z</time>
      </trkpt>
      <trkpt lat="45.2156" lon="5.73214">
        <ele>848.40002441406</ele>
        <time>2021-07-18T04:42:20.000Z</time>
      </trkpt>
      <trkpt lat="45.21558" lon="5.73212">
        <ele>848.79998779297</ele>
        <time>2021-07-18T04:42:22.000Z</time>
      </trkpt>
      <trkpt lat="45.21558" lon="5.73211">
        <ele>849</ele>
        <time>2021-07-18T04:42:23.000Z</time>
      </trkpt>
      <trkpt lat="45.21557" lon="5.73209">
        <ele>849.20001220703</ele>
        <time>2021-07-18T04:42:24.000Z</time>
      </trkpt>
      <trkpt lat="45.21557" lon="5.73207">
        <ele>849.79998779297</ele>
        <time>2021-07-18T04:42:25.000Z</time>
      </trkpt>
      <trkpt lat="45.21555" lon="5.73204">
        <ele>850.40002441406</ele>
        <time>2021-07-18T04:42:27.000Z</time>
      </trkpt>
      <trkpt lat="45.21555" lon="5.732">
        <ele>850.59997558594</ele>
        <time>2021-07-18T04:42:29.000Z</time>
      </trkpt>
      <trkpt lat="45.21555" lon="5.73197">
        <ele>850.79998779297</ele>
        <time>2021-07-18T04:42:30.000Z</time>
      </trkpt>
      <trkpt lat="45.21555" lon="5.73192">
        <ele>852</ele>
        <time>2021-07-18T04:42:32.000Z</time>
      </trkpt>
      <trkpt lat="45.21555" lon="5.73188">
        <ele>852.20001220703</ele>
        <time>2021-07-18T04:42:35.000Z</time>
      </trkpt>
      <trkpt lat="45.21555" lon="5.73187">
        <ele>853</ele>
        <time>2021-07-18T04:42:36.000Z</time>
      </trkpt>
      <trkpt lat="45.21554" lon="5.73186">
        <ele>853.59997558594</ele>
        <time>2021-07-18T04:42:37.000Z</time>
      </trkpt>
      <trkpt lat="45.21553" lon="5.7318">
        <ele>854.20001220703</ele>
        <time>2021-07-18T04:42:41.000Z</time>
      </trkpt>
      <trkpt lat="45.21553" lon="5.73178">
        <ele>854.20001220703</ele>
        <time>2021-07-18T04:42:42.000Z</time>
      </trkpt>
      <trkpt lat="45.21554" lon="5.73175">
        <ele>855.20001220703</ele>
        <time>2021-07-18T04:42:44.000Z</time>
      </trkpt>
      <trkpt lat="45.21554" lon="5.73173">
        <ele>855.59997558594</ele>
        <time>2021-07-18T04:42:45.000Z</time>
      </trkpt>
      <trkpt lat="45.21555" lon="5.73171">
        <ele>855.59997558594</ele>
        <time>2021-07-18T04:42:46.000Z</time>
      </trkpt>
      <trkpt lat="45.21557" lon="5.7317">
        <ele>856.40002441406</ele>
        <time>2021-07-18T04:42:48.000Z</time>
      </trkpt>
      <trkpt lat="45.21558" lon="5.73169">
        <ele>857</ele>
        <time>2021-07-18T04:42:50.000Z</time>
      </trkpt>
      <trkpt lat="45.2156" lon="5.73166">
        <ele>857.40002441406</ele>
        <time>2021-07-18T04:42:54.000Z</time>
      </trkpt>
      <trkpt lat="45.2156" lon="5.73166">
        <ele>858.40002441406</ele>
        <time>2021-07-18T04:42:55.000Z</time>
      </trkpt>
      <trkpt lat="45.21558" lon="5.73165">
        <ele>859</ele>
        <time>2021-07-18T04:42:58.000Z</time>
      </trkpt>
      <trkpt lat="45.21561" lon="5.73162">
        <ele>859.59997558594</ele>
        <time>2021-07-18T04:43:01.000Z</time>
      </trkpt>
      <trkpt lat="45.21561" lon="5.73162">
        <ele>859.79998779297</ele>
        <time>2021-07-18T04:43:02.000Z</time>
      </trkpt>
      <trkpt lat="45.21562" lon="5.7316">
        <ele>860.79998779297</ele>
        <time>2021-07-18T04:43:05.000Z</time>
      </trkpt>
      <trkpt lat="45.21563" lon="5.73158">
        <ele>861.59997558594</ele>
        <time>2021-07-18T04:43:07.000Z</time>
      </trkpt>
      <trkpt lat="45.21563" lon="5.73157">
        <ele>861.79998779297</ele>
        <time>2021-07-18T04:43:08.000Z</time>
      </trkpt>
      <trkpt lat="45.21566" lon="5.73151">
        <ele>862.79998779297</ele>
        <time>2021-07-18T04:43:14.000Z</time>
      </trkpt>
      <trkpt lat="45.21567" lon="5.73149">
        <ele>863.59997558594</ele>
        <time>2021-07-18T04:43:15.000Z</time>
      </trkpt>
      <trkpt lat="45.2157" lon="5.73144">
        <ele>865</ele>
        <time>2021-07-18T04:43:20.000Z</time>
      </trkpt>
      <trkpt lat="45.21569" lon="5.73143">
        <ele>865.20001220703</ele>
        <time>2021-07-18T04:43:21.000Z</time>
      </trkpt>
      <trkpt lat="45.21569" lon="5.7314">
        <ele>866.20001220703</ele>
        <time>2021-07-18T04:43:23.000Z</time>
      </trkpt>
      <trkpt lat="45.21568" lon="5.73138">
        <ele>867</ele>
        <time>2021-07-18T04:43:26.000Z</time>
      </trkpt>
      <trkpt lat="45.2157" lon="5.73132">
        <ele>867.20001220703</ele>
        <time>2021-07-18T04:43:29.000Z</time>
      </trkpt>
      <trkpt lat="45.2157" lon="5.7313">
        <ele>867.79998779297</ele>
        <time>2021-07-18T04:43:30.000Z</time>
      </trkpt>
      <trkpt lat="45.21571" lon="5.73127">
        <ele>868.59997558594</ele>
        <time>2021-07-18T04:43:32.000Z</time>
      </trkpt>
      <trkpt lat="45.21573" lon="5.73124">
        <ele>869</ele>
        <time>2021-07-18T04:43:34.000Z</time>
      </trkpt>
      <trkpt lat="45.21574" lon="5.73123">
        <ele>869.20001220703</ele>
        <time>2021-07-18T04:43:35.000Z</time>
      </trkpt>
      <trkpt lat="45.21578" lon="5.73121">
        <ele>869.79998779297</ele>
        <time>2021-07-18T04:43:38.000Z</time>
      </trkpt>
      <trkpt lat="45.21579" lon="5.7312">
        <ele>870</ele>
        <time>2021-07-18T04:43:39.000Z</time>
      </trkpt>
      <trkpt lat="45.21582" lon="5.73117">
        <ele>871</ele>
        <time>2021-07-18T04:43:41.000Z</time>
      </trkpt>
      <trkpt lat="45.21589" lon="5.73114">
        <ele>871.59997558594</ele>
        <time>2021-07-18T04:43:45.000Z</time>
      </trkpt>
      <trkpt lat="45.2159" lon="5.73114">
        <ele>872.20001220703</ele>
        <time>2021-07-18T04:43:46.000Z</time>
      </trkpt>
      <trkpt lat="45.21592" lon="5.73115">
        <ele>872.20001220703</ele>
        <time>2021-07-18T04:43:48.000Z</time>
      </trkpt>
      <trkpt lat="45.21599" lon="5.73117">
        <ele>873.20001220703</ele>
        <time>2021-07-18T04:43:53.000Z</time>
      </trkpt>
      <trkpt lat="45.21602" lon="5.73118">
        <ele>873.40002441406</ele>
        <time>2021-07-18T04:43:56.000Z</time>
      </trkpt>
      <trkpt lat="45.21605" lon="5.73117">
        <ele>874.40002441406</ele>
        <time>2021-07-18T04:43:58.000Z</time>
      </trkpt>
      <trkpt lat="45.21608" lon="5.73118">
        <ele>874.59997558594</ele>
        <time>2021-07-18T04:44:00.000Z</time>
      </trkpt>
      <trkpt lat="45.21611" lon="5.73119">
        <ele>875.40002441406</ele>
        <time>2021-07-18T04:44:03.000Z</time>
      </trkpt>
      <trkpt lat="45.21613" lon="5.73119">
        <ele>876</ele>
        <time>2021-07-18T04:44:04.000Z</time>
      </trkpt>
      <trkpt lat="45.21616" lon="5.7312">
        <ele>876.40002441406</ele>
        <time>2021-07-18T04:44:06.000Z</time>
      </trkpt>
      <trkpt lat="45.21619" lon="5.7312">
        <ele>876.79998779297</ele>
        <time>2021-07-18T04:44:09.000Z</time>
      </trkpt>
      <trkpt lat="45.2162" lon="5.73121">
        <ele>877.40002441406</ele>
        <time>2021-07-18T04:44:10.000Z</time>
      </trkpt>
      <trkpt lat="45.21623" lon="5.73123">
        <ele>878</ele>
        <time>2021-07-18T04:44:13.000Z</time>
      </trkpt>
      <trkpt lat="45.21624" lon="5.73125">
        <ele>878.20001220703</ele>
        <time>2021-07-18T04:44:14.000Z</time>
      </trkpt>
      <trkpt lat="45.21629" lon="5.73127">
        <ele>879.40002441406</ele>
        <time>2021-07-18T04:44:18.000Z</time>
      </trkpt>
      <trkpt lat="45.2163" lon="5.73127">
        <ele>880.79998779297</ele>
        <time>2021-07-18T04:44:21.000Z</time>
      </trkpt>
      <trkpt lat="45.21633" lon="5.73124">
        <ele>881.20001220703</ele>
        <time>2021-07-18T04:44:25.000Z</time>
      </trkpt>
      <trkpt lat="45.21635" lon="5.73124">
        <ele>882</ele>
        <time>2021-07-18T04:44:27.000Z</time>
      </trkpt>
      <trkpt lat="45.21636" lon="5.73123">
        <ele>882.40002441406</ele>
        <time>2021-07-18T04:44:29.000Z</time>
      </trkpt>
      <trkpt lat="45.21638" lon="5.73122">
        <ele>882.79998779297</ele>
        <time>2021-07-18T04:44:31.000Z</time>
      </trkpt>
      <trkpt lat="45.2164" lon="5.73123">
        <ele>883.20001220703</ele>
        <time>2021-07-18T04:44:33.000Z</time>
      </trkpt>
      <trkpt lat="45.21641" lon="5.73123">
        <ele>883.79998779297</ele>
        <time>2021-07-18T04:44:34.000Z</time>
      </trkpt>
      <trkpt lat="45.21643" lon="5.73125">
        <ele>884.40002441406</ele>
        <time>2021-07-18T04:44:37.000Z</time>
      </trkpt>
      <trkpt lat="45.21644" lon="5.73125">
        <ele>884.40002441406</ele>
        <time>2021-07-18T04:44:38.000Z</time>
      </trkpt>
      <trkpt lat="45.21646" lon="5.73125">
        <ele>885.40002441406</ele>
        <time>2021-07-18T04:44:40.000Z</time>
      </trkpt>
      <trkpt lat="45.21651" lon="5.73127">
        <ele>886.20001220703</ele>
        <time>2021-07-18T04:44:46.000Z</time>
      </trkpt>
      <trkpt lat="45.21652" lon="5.73127">
        <ele>886.59997558594</ele>
        <time>2021-07-18T04:44:47.000Z</time>
      </trkpt>
      <trkpt lat="45.21655" lon="5.73127">
        <ele>887.59997558594</ele>
        <time>2021-07-18T04:44:51.000Z</time>
      </trkpt>
      <trkpt lat="45.21656" lon="5.73127">
        <ele>887.79998779297</ele>
        <time>2021-07-18T04:44:52.000Z</time>
      </trkpt>
      <trkpt lat="45.21657" lon="5.73128">
        <ele>888.59997558594</ele>
        <time>2021-07-18T04:44:54.000Z</time>
      </trkpt>
      <trkpt lat="45.21657" lon="5.73129">
        <ele>888.59997558594</ele>
        <time>2021-07-18T04:44:55.000Z</time>
      </trkpt>
      <trkpt lat="45.21658" lon="5.73131">
        <ele>888.79998779297</ele>
        <time>2021-07-18T04:44:57.000Z</time>
      </trkpt>
      <trkpt lat="45.21659" lon="5.73131">
        <ele>889.79998779297</ele>
        <time>2021-07-18T04:44:58.000Z</time>
      </trkpt>
      <trkpt lat="45.2166" lon="5.73131">
        <ele>889.79998779297</ele>
        <time>2021-07-18T04:44:59.000Z</time>
      </trkpt>
      <trkpt lat="45.21661" lon="5.73131">
        <ele>890.20001220703</ele>
        <time>2021-07-18T04:45:01.000Z</time>
      </trkpt>
      <trkpt lat="45.21663" lon="5.7313">
        <ele>890.79998779297</ele>
        <time>2021-07-18T04:45:03.000Z</time>
      </trkpt>
      <trkpt lat="45.21664" lon="5.73131">
        <ele>891</ele>
        <time>2021-07-18T04:45:04.000Z</time>
      </trkpt>
      <trkpt lat="45.21667" lon="5.73134">
        <ele>892.20001220703</ele>
        <time>2021-07-18T04:45:07.000Z</time>
      </trkpt>
      <trkpt lat="45.21669" lon="5.73136">
        <ele>892.59997558594</ele>
        <time>2021-07-18T04:45:09.000Z</time>
      </trkpt>
      <trkpt lat="45.21669" lon="5.73136">
        <ele>893.20001220703</ele>
        <time>2021-07-18T04:45:10.000Z</time>
      </trkpt>
      <trkpt lat="45.21669" lon="5.73137">
        <ele>893.40002441406</ele>
        <time>2021-07-18T04:45:11.000Z</time>
      </trkpt>
      <trkpt lat="45.21671" lon="5.73142">
        <ele>894.20001220703</ele>
        <time>2021-07-18T04:45:16.000Z</time>
      </trkpt>
      <trkpt lat="45.21672" lon="5.73144">
        <ele>894.20001220703</ele>
        <time>2021-07-18T04:45:17.000Z</time>
      </trkpt>
      <trkpt lat="45.21672" lon="5.73145">
        <ele>894.40002441406</ele>
        <time>2021-07-18T04:45:18.000Z</time>
      </trkpt>
      <trkpt lat="45.21673" lon="5.73147">
        <ele>895.40002441406</ele>
        <time>2021-07-18T04:45:21.000Z</time>
      </trkpt>
      <trkpt lat="45.21675" lon="5.73149">
        <ele>896.59997558594</ele>
        <time>2021-07-18T04:45:23.000Z</time>
      </trkpt>
      <trkpt lat="45.21675" lon="5.7315">
        <ele>896.59997558594</ele>
        <time>2021-07-18T04:45:24.000Z</time>
      </trkpt>
      <trkpt lat="45.21675" lon="5.73151">
        <ele>896.79998779297</ele>
        <time>2021-07-18T04:45:25.000Z</time>
      </trkpt>
      <trkpt lat="45.21676" lon="5.73153">
        <ele>896.79998779297</ele>
        <time>2021-07-18T04:45:26.000Z</time>
      </trkpt>
      <trkpt lat="45.21679" lon="5.73157">
        <ele>898.40002441406</ele>
        <time>2021-07-18T04:45:31.000Z</time>
      </trkpt>
      <trkpt lat="45.21679" lon="5.73159">
        <ele>898.79998779297</ele>
        <time>2021-07-18T04:45:32.000Z</time>
      </trkpt>
      <trkpt lat="45.2168" lon="5.73162">
        <ele>899.20001220703</ele>
        <time>2021-07-18T04:45:35.000Z</time>
      </trkpt>
      <trkpt lat="45.21683" lon="5.73163">
        <ele>899.79998779297</ele>
        <time>2021-07-18T04:45:37.000Z</time>
      </trkpt>
      <trkpt lat="45.21684" lon="5.73164">
        <ele>900</ele>
        <time>2021-07-18T04:45:38.000Z</time>
      </trkpt>
      <trkpt lat="45.21685" lon="5.73167">
        <ele>900.20001220703</ele>
        <time>2021-07-18T04:45:40.000Z</time>
      </trkpt>
      <trkpt lat="45.21685" lon="5.73168">
        <ele>900.59997558594</ele>
        <time>2021-07-18T04:45:41.000Z</time>
      </trkpt>
      <trkpt lat="45.21686" lon="5.73171">
        <ele>901.40002441406</ele>
        <time>2021-07-18T04:45:43.000Z</time>
      </trkpt>
      <trkpt lat="45.21689" lon="5.73176">
        <ele>902.20001220703</ele>
        <time>2021-07-18T04:45:47.000Z</time>
      </trkpt>
      <trkpt lat="45.2169" lon="5.73178">
        <ele>902.40002441406</ele>
        <time>2021-07-18T04:45:48.000Z</time>
      </trkpt>
      <trkpt lat="45.21691" lon="5.7318">
        <ele>902.40002441406</ele>
        <time>2021-07-18T04:45:49.000Z</time>
      </trkpt>
      <trkpt lat="45.21691" lon="5.73182">
        <ele>902.40002441406</ele>
        <time>2021-07-18T04:45:50.000Z</time>
      </trkpt>
      <trkpt lat="45.21693" lon="5.73185">
        <ele>902.79998779297</ele>
        <time>2021-07-18T04:45:52.000Z</time>
      </trkpt>
      <trkpt lat="45.21699" lon="5.73191">
        <ele>903.40002441406</ele>
        <time>2021-07-18T04:45:56.000Z</time>
      </trkpt>
      <trkpt lat="45.217" lon="5.73192">
        <ele>903.40002441406</ele>
        <time>2021-07-18T04:45:57.000Z</time>
      </trkpt>
      <trkpt lat="45.21701" lon="5.73195">
        <ele>903.59997558594</ele>
        <time>2021-07-18T04:45:59.000Z</time>
      </trkpt>
      <trkpt lat="45.21702" lon="5.73198">
        <ele>903.59997558594</ele>
        <time>2021-07-18T04:46:01.000Z</time>
      </trkpt>
      <trkpt lat="45.21703" lon="5.73201">
        <ele>903.79998779297</ele>
        <time>2021-07-18T04:46:03.000Z</time>
      </trkpt>
      <trkpt lat="45.21707" lon="5.73204">
        <ele>903.79998779297</ele>
        <time>2021-07-18T04:46:05.000Z</time>
      </trkpt>
      <trkpt lat="45.2171" lon="5.73206">
        <ele>904</ele>
        <time>2021-07-18T04:46:08.000Z</time>
      </trkpt>
      <trkpt lat="45.21712" lon="5.7321">
        <ele>904</ele>
        <time>2021-07-18T04:46:11.000Z</time>
      </trkpt>
      <trkpt lat="45.21713" lon="5.73211">
        <ele>904.40002441406</ele>
        <time>2021-07-18T04:46:12.000Z</time>
      </trkpt>
      <trkpt lat="45.21714" lon="5.73212">
        <ele>904.59997558594</ele>
        <time>2021-07-18T04:46:13.000Z</time>
      </trkpt>
      <trkpt lat="45.21716" lon="5.73214">
        <ele>905</ele>
        <time>2021-07-18T04:46:15.000Z</time>
      </trkpt>
      <trkpt lat="45.21716" lon="5.73214">
        <ele>905.59997558594</ele>
        <time>2021-07-18T04:46:16.000Z</time>
      </trkpt>
      <trkpt lat="45.21718" lon="5.73214">
        <ele>905.79998779297</ele>
        <time>2021-07-18T04:46:18.000Z</time>
      </trkpt>
      <trkpt lat="45.21719" lon="5.73213">
        <ele>906.59997558594</ele>
        <time>2021-07-18T04:46:20.000Z</time>
      </trkpt>
      <trkpt lat="45.2172" lon="5.73213">
        <ele>906.79998779297</ele>
        <time>2021-07-18T04:46:21.000Z</time>
      </trkpt>
      <trkpt lat="45.21721" lon="5.73212">
        <ele>907.59997558594</ele>
        <time>2021-07-18T04:46:23.000Z</time>
      </trkpt>
      <trkpt lat="45.21722" lon="5.73211">
        <ele>908</ele>
        <time>2021-07-18T04:46:25.000Z</time>
      </trkpt>
      <trkpt lat="45.21724" lon="5.73208">
        <ele>908.40002441406</ele>
        <time>2021-07-18T04:46:28.000Z</time>
      </trkpt>
      <trkpt lat="45.21724" lon="5.73208">
        <ele>908.79998779297</ele>
        <time>2021-07-18T04:46:29.000Z</time>
      </trkpt>
      <trkpt lat="45.21725" lon="5.73208">
        <ele>909.20001220703</ele>
        <time>2021-07-18T04:46:30.000Z</time>
      </trkpt>
      <trkpt lat="45.21725" lon="5.73207">
        <ele>909.59997558594</ele>
        <time>2021-07-18T04:46:32.000Z</time>
      </trkpt>
      <trkpt lat="45.21729" lon="5.73203">
        <ele>909.59997558594</ele>
        <time>2021-07-18T04:46:35.000Z</time>
      </trkpt>
      <trkpt lat="45.21737" lon="5.73201">
        <ele>910</ele>
        <time>2021-07-18T04:46:40.000Z</time>
      </trkpt>
      <trkpt lat="45.21743" lon="5.73196">
        <ele>909.79998779297</ele>
        <time>2021-07-18T04:46:45.000Z</time>
      </trkpt>
      <trkpt lat="45.2175" lon="5.73198">
        <ele>908.59997558594</ele>
        <time>2021-07-18T04:46:50.000Z</time>
      </trkpt>
      <trkpt lat="45.21757" lon="5.73199">
        <ele>908.59997558594</ele>
        <time>2021-07-18T04:46:55.000Z</time>
      </trkpt>
      <trkpt lat="45.21758" lon="5.732">
        <ele>908.59997558594</ele>
        <time>2021-07-18T04:46:56.000Z</time>
      </trkpt>
      <trkpt lat="45.21759" lon="5.73203">
        <ele>909.40002441406</ele>
        <time>2021-07-18T04:46:58.000Z</time>
      </trkpt>
      <trkpt lat="45.21759" lon="5.73203">
        <ele>910.20001220703</ele>
        <time>2021-07-18T04:46:59.000Z</time>
      </trkpt>
      <trkpt lat="45.21759" lon="5.73206">
        <ele>910.59997558594</ele>
        <time>2021-07-18T04:47:01.000Z</time>
      </trkpt>
      <trkpt lat="45.21759" lon="5.73207">
        <ele>910.79998779297</ele>
        <time>2021-07-18T04:47:02.000Z</time>
      </trkpt>
      <trkpt lat="45.21759" lon="5.73209">
        <ele>911.40002441406</ele>
        <time>2021-07-18T04:47:03.000Z</time>
      </trkpt>
      <trkpt lat="45.2176" lon="5.73213">
        <ele>911.79998779297</ele>
        <time>2021-07-18T04:47:07.000Z</time>
      </trkpt>
      <trkpt lat="45.21762" lon="5.73215">
        <ele>912.40002441406</ele>
        <time>2021-07-18T04:47:10.000Z</time>
      </trkpt>
      <trkpt lat="45.21766" lon="5.73219">
        <ele>913</ele>
        <time>2021-07-18T04:47:14.000Z</time>
      </trkpt>
      <trkpt lat="45.21766" lon="5.7322">
        <ele>912.79998779297</ele>
        <time>2021-07-18T04:47:15.000Z</time>
      </trkpt>
      <trkpt lat="45.21767" lon="5.73222">
        <ele>912.79998779297</ele>
        <time>2021-07-18T04:47:17.000Z</time>
      </trkpt>
      <trkpt lat="45.21769" lon="5.73222">
        <ele>912.59997558594</ele>
        <time>2021-07-18T04:47:20.000Z</time>
      </trkpt>
      <trkpt lat="45.2177" lon="5.73222">
        <ele>912.59997558594</ele>
        <time>2021-07-18T04:47:21.000Z</time>
      </trkpt>
      <trkpt lat="45.21772" lon="5.73223">
        <ele>912.59997558594</ele>
        <time>2021-07-18T04:47:22.000Z</time>
      </trkpt>
      <trkpt lat="45.21777" lon="5.73231">
        <ele>913.40002441406</ele>
        <time>2021-07-18T04:47:27.000Z</time>
      </trkpt>
      <trkpt lat="45.2178" lon="5.73237">
        <ele>913.59997558594</ele>
        <time>2021-07-18T04:47:30.000Z</time>
      </trkpt>
      <trkpt lat="45.21782" lon="5.7324">
        <ele>914</ele>
        <time>2021-07-18T04:47:33.000Z</time>
      </trkpt>
      <trkpt lat="45.21782" lon="5.73242">
        <ele>914.79998779297</ele>
        <time>2021-07-18T04:47:34.000Z</time>
      </trkpt>
      <trkpt lat="45.21783" lon="5.73247">
        <ele>915.79998779297</ele>
        <time>2021-07-18T04:47:38.000Z</time>
      </trkpt>
      <trkpt lat="45.21784" lon="5.7325">
        <ele>916</ele>
        <time>2021-07-18T04:47:39.000Z</time>
      </trkpt>
      <trkpt lat="45.21784" lon="5.73255">
        <ele>916.79998779297</ele>
        <time>2021-07-18T04:47:41.000Z</time>
      </trkpt>
      <trkpt lat="45.21782" lon="5.73257">
        <ele>917</ele>
        <time>2021-07-18T04:47:42.000Z</time>
      </trkpt>
      <trkpt lat="45.21779" lon="5.73263">
        <ele>917.40002441406</ele>
        <time>2021-07-18T04:47:45.000Z</time>
      </trkpt>
      <trkpt lat="45.2178" lon="5.73265">
        <ele>917.40002441406</ele>
        <time>2021-07-18T04:47:46.000Z</time>
      </trkpt>
      <trkpt lat="45.21782" lon="5.7327">
        <ele>918</ele>
        <time>2021-07-18T04:47:50.000Z</time>
      </trkpt>
      <trkpt lat="45.21789" lon="5.73274">
        <ele>919.20001220703</ele>
        <time>2021-07-18T04:47:55.000Z</time>
      </trkpt>
      <trkpt lat="45.21793" lon="5.73276">
        <ele>920.79998779297</ele>
        <time>2021-07-18T04:47:59.000Z</time>
      </trkpt>
      <trkpt lat="45.21794" lon="5.73276">
        <ele>921</ele>
        <time>2021-07-18T04:48:00.000Z</time>
      </trkpt>
      <trkpt lat="45.21797" lon="5.73278">
        <ele>921.40002441406</ele>
        <time>2021-07-18T04:48:02.000Z</time>
      </trkpt>
      <trkpt lat="45.21799" lon="5.73281">
        <ele>922.20001220703</ele>
        <time>2021-07-18T04:48:05.000Z</time>
      </trkpt>
      <trkpt lat="45.21802" lon="5.73282">
        <ele>922.40002441406</ele>
        <time>2021-07-18T04:48:07.000Z</time>
      </trkpt>
      <trkpt lat="45.21808" lon="5.7329">
        <ele>923.20001220703</ele>
        <time>2021-07-18T04:48:12.000Z</time>
      </trkpt>
      <trkpt lat="45.2181" lon="5.73293">
        <ele>924</ele>
        <time>2021-07-18T04:48:14.000Z</time>
      </trkpt>
      <trkpt lat="45.21812" lon="5.73295">
        <ele>924</ele>
        <time>2021-07-18T04:48:16.000Z</time>
      </trkpt>
      <trkpt lat="45.21815" lon="5.73296">
        <ele>924.59997558594</ele>
        <time>2021-07-18T04:48:18.000Z</time>
      </trkpt>
      <trkpt lat="45.21818" lon="5.73298">
        <ele>925</ele>
        <time>2021-07-18T04:48:20.000Z</time>
      </trkpt>
      <trkpt lat="45.21819" lon="5.73299">
        <ele>925.20001220703</ele>
        <time>2021-07-18T04:48:21.000Z</time>
      </trkpt>
      <trkpt lat="45.21819" lon="5.733">
        <ele>925.59997558594</ele>
        <time>2021-07-18T04:48:22.000Z</time>
      </trkpt>
      <trkpt lat="45.21822" lon="5.73305">
        <ele>926.59997558594</ele>
        <time>2021-07-18T04:48:26.000Z</time>
      </trkpt>
      <trkpt lat="45.21827" lon="5.73308">
        <ele>927.59997558594</ele>
        <time>2021-07-18T04:48:30.000Z</time>
      </trkpt>
      <trkpt lat="45.21828" lon="5.73309">
        <ele>927.59997558594</ele>
        <time>2021-07-18T04:48:31.000Z</time>
      </trkpt>
      <trkpt lat="45.21829" lon="5.73311">
        <ele>928.20001220703</ele>
        <time>2021-07-18T04:48:32.000Z</time>
      </trkpt>
      <trkpt lat="45.21831" lon="5.73312">
        <ele>928.40002441406</ele>
        <time>2021-07-18T04:48:33.000Z</time>
      </trkpt>
      <trkpt lat="45.21838" lon="5.73319">
        <ele>929.40002441406</ele>
        <time>2021-07-18T04:48:39.000Z</time>
      </trkpt>
      <trkpt lat="45.21841" lon="5.73323">
        <ele>929.40002441406</ele>
        <time>2021-07-18T04:48:41.000Z</time>
      </trkpt>
      <trkpt lat="45.21844" lon="5.73327">
        <ele>929.40002441406</ele>
        <time>2021-07-18T04:48:44.000Z</time>
      </trkpt>
      <trkpt lat="45.21847" lon="5.7333">
        <ele>929.40002441406</ele>
        <time>2021-07-18T04:48:49.000Z</time>
      </trkpt>
      <trkpt lat="45.21848" lon="5.7333">
        <ele>929.40002441406</ele>
        <time>2021-07-18T04:48:51.000Z</time>
      </trkpt>
      <trkpt lat="45.21847" lon="5.73331">
        <ele>929.40002441406</ele>
        <time>2021-07-18T04:48:55.000Z</time>
      </trkpt>
      <trkpt lat="45.21847" lon="5.73331">
        <ele>929.40002441406</ele>
        <time>2021-07-18T04:48:56.000Z</time>
      </trkpt>
      <trkpt lat="45.21847" lon="5.73333">
        <ele>929.40002441406</ele>
        <time>2021-07-18T04:49:01.000Z</time>
      </trkpt>
      <trkpt lat="45.21847" lon="5.73333">
        <ele>929.40002441406</ele>
        <time>2021-07-18T04:49:03.000Z</time>
      </trkpt>
      <trkpt lat="45.21847" lon="5.73333">
        <ele>929.40002441406</ele>
        <time>2021-07-18T04:49:06.000Z</time>
      </trkpt>
      <trkpt lat="45.21847" lon="5.73333">
        <ele>929.40002441406</ele>
        <time>2021-07-18T04:49:09.000Z</time>
      </trkpt>
      <trkpt lat="45.21847" lon="5.73333">
        <ele>929.40002441406</ele>
        <time>2021-07-18T04:49:13.000Z</time>
      </trkpt>
      <trkpt lat="45.21847" lon="5.73337">
        <ele>929.20001220703</ele>
        <time>2021-07-18T04:49:15.000Z</time>
      </trkpt>
      <trkpt lat="45.21846" lon="5.73342">
        <ele>929.20001220703</ele>
        <time>2021-07-18T04:49:17.000Z</time>
      </trkpt>
      <trkpt lat="45.21845" lon="5.73344">
        <ele>929.20001220703</ele>
        <time>2021-07-18T04:49:18.000Z</time>
      </trkpt>
      <trkpt lat="45.21846" lon="5.73351">
        <ele>929.20001220703</ele>
        <time>2021-07-18T04:49:22.000Z</time>
      </trkpt>
      <trkpt lat="45.21844" lon="5.73356">
        <ele>929.20001220703</ele>
        <time>2021-07-18T04:49:26.000Z</time>
      </trkpt>
      <trkpt lat="45.21842" lon="5.73357">
        <ele>929.40002441406</ele>
        <time>2021-07-18T04:49:32.000Z</time>
      </trkpt>
      <trkpt lat="45.21842" lon="5.73357">
        <ele>929.20001220703</ele>
        <time>2021-07-18T04:49:38.000Z</time>
      </trkpt>
      <trkpt lat="45.21842" lon="5.73357">
        <ele>929.20001220703</ele>
        <time>2021-07-18T04:49:40.000Z</time>
      </trkpt>
      <trkpt lat="45.21842" lon="5.73357">
        <ele>929.20001220703</ele>
        <time>2021-07-18T04:49:42.000Z</time>
      </trkpt>
      <trkpt lat="45.21842" lon="5.73357">
        <ele>929.20001220703</ele>
        <time>2021-07-18T04:49:43.000Z</time>
      </trkpt>
      <trkpt lat="45.21842" lon="5.73357">
        <ele>929.20001220703</ele>
        <time>2021-07-18T04:49:46.000Z</time>
      </trkpt>
      <trkpt lat="45.21842" lon="5.73357">
        <ele>929</ele>
        <time>2021-07-18T04:49:58.000Z</time>
      </trkpt>
      <trkpt lat="45.21842" lon="5.73357">
        <ele>929.20001220703</ele>
        <time>2021-07-18T04:50:01.000Z</time>
      </trkpt>
      <trkpt lat="45.21842" lon="5.73357">
        <ele>929</ele>
        <time>2021-07-18T04:50:04.000Z</time>
      </trkpt>
      <trkpt lat="45.21842" lon="5.73357">
        <ele>929</ele>
        <time>2021-07-18T04:50:05.000Z</time>
      </trkpt>
      <trkpt lat="45.21842" lon="5.73357">
        <ele>929</ele>
        <time>2021-07-18T04:50:06.000Z</time>
      </trkpt>
      <trkpt lat="45.21844" lon="5.73349">
        <ele>929</ele>
        <time>2021-07-18T04:50:14.000Z</time>
      </trkpt>
      <trkpt lat="45.21849" lon="5.73346">
        <ele>929.40002441406</ele>
        <time>2021-07-18T04:50:19.000Z</time>
      </trkpt>
      <trkpt lat="45.21849" lon="5.73346">
        <ele>929.40002441406</ele>
        <time>2021-07-18T04:50:20.000Z</time>
      </trkpt>
      <trkpt lat="45.2185" lon="5.73346">
        <ele>929.20001220703</ele>
        <time>2021-07-18T04:50:21.000Z</time>
      </trkpt>
      <trkpt lat="45.21851" lon="5.73346">
        <ele>928.59997558594</ele>
        <time>2021-07-18T04:50:23.000Z</time>
      </trkpt>
      <trkpt lat="45.21852" lon="5.73347">
        <ele>928.40002441406</ele>
        <time>2021-07-18T04:50:25.000Z</time>
      </trkpt>
      <trkpt lat="45.21852" lon="5.73348">
        <ele>928.20001220703</ele>
        <time>2021-07-18T04:50:26.000Z</time>
      </trkpt>
      <trkpt lat="45.21852" lon="5.73349">
        <ele>927.79998779297</ele>
        <time>2021-07-18T04:50:28.000Z</time>
      </trkpt>
      <trkpt lat="45.21854" lon="5.7335">
        <ele>927.40002441406</ele>
        <time>2021-07-18T04:50:30.000Z</time>
      </trkpt>
      <trkpt lat="45.21856" lon="5.7335">
        <ele>926.40002441406</ele>
        <time>2021-07-18T04:50:32.000Z</time>
      </trkpt>
      <trkpt lat="45.21858" lon="5.7335">
        <ele>926.20001220703</ele>
        <time>2021-07-18T04:50:34.000Z</time>
      </trkpt>
      <trkpt lat="45.21859" lon="5.7335">
        <ele>926</ele>
        <time>2021-07-18T04:50:35.000Z</time>
      </trkpt>
      <trkpt lat="45.2186" lon="5.7335">
        <ele>926</ele>
        <time>2021-07-18T04:50:36.000Z</time>
      </trkpt>
      <trkpt lat="45.21863" lon="5.73349">
        <ele>924.79998779297</ele>
        <time>2021-07-18T04:50:40.000Z</time>
      </trkpt>
      <trkpt lat="45.21864" lon="5.7335">
        <ele>924.59997558594</ele>
        <time>2021-07-18T04:50:41.000Z</time>
      </trkpt>
      <trkpt lat="45.21865" lon="5.73353">
        <ele>924.20001220703</ele>
        <time>2021-07-18T04:50:43.000Z</time>
      </trkpt>
      <trkpt lat="45.21867" lon="5.73355">
        <ele>923.40002441406</ele>
        <time>2021-07-18T04:50:46.000Z</time>
      </trkpt>
      <trkpt lat="45.21869" lon="5.73355">
        <ele>923</ele>
        <time>2021-07-18T04:50:48.000Z</time>
      </trkpt>
      <trkpt lat="45.2187" lon="5.73356">
        <ele>922.79998779297</ele>
        <time>2021-07-18T04:50:49.000Z</time>
      </trkpt>
      <trkpt lat="45.21873" lon="5.73359">
        <ele>922.59997558594</ele>
        <time>2021-07-18T04:50:53.000Z</time>
      </trkpt>
      <trkpt lat="45.21873" lon="5.73359">
        <ele>922.59997558594</ele>
        <time>2021-07-18T04:50:54.000Z</time>
      </trkpt>
      <trkpt lat="45.21874" lon="5.73359">
        <ele>922.40002441406</ele>
        <time>2021-07-18T04:50:56.000Z</time>
      </trkpt>
      <trkpt lat="45.21875" lon="5.73359">
        <ele>922.40002441406</ele>
        <time>2021-07-18T04:50:57.000Z</time>
      </trkpt>
      <trkpt lat="45.21875" lon="5.73359">
        <ele>922.20001220703</ele>
        <time>2021-07-18T04:50:58.000Z</time>
      </trkpt>
      <trkpt lat="45.21876" lon="5.7336">
        <ele>922</ele>
        <time>2021-07-18T04:50:59.000Z</time>
      </trkpt>
      <trkpt lat="45.21878" lon="5.73362">
        <ele>921.20001220703</ele>
        <time>2021-07-18T04:51:01.000Z</time>
      </trkpt>
      <trkpt lat="45.21885" lon="5.73366">
        <ele>921.20001220703</ele>
        <time>2021-07-18T04:51:06.000Z</time>
      </trkpt>
      <trkpt lat="45.21885" lon="5.73367">
        <ele>921.59997558594</ele>
        <time>2021-07-18T04:51:07.000Z</time>
      </trkpt>
      <trkpt lat="45.21886" lon="5.73367">
        <ele>921.79998779297</ele>
        <time>2021-07-18T04:51:08.000Z</time>
      </trkpt>
      <trkpt lat="45.2189" lon="5.7337">
        <ele>922</ele>
        <time>2021-07-18T04:51:12.000Z</time>
      </trkpt>
      <trkpt lat="45.21895" lon="5.73372">
        <ele>922.20001220703</ele>
        <time>2021-07-18T04:51:17.000Z</time>
      </trkpt>
      <trkpt lat="45.21896" lon="5.73372">
        <ele>922.20001220703</ele>
        <time>2021-07-18T04:51:18.000Z</time>
      </trkpt>
      <trkpt lat="45.21904" lon="5.73373">
        <ele>923</ele>
        <time>2021-07-18T04:51:24.000Z</time>
      </trkpt>
      <trkpt lat="45.21906" lon="5.73373">
        <ele>923.20001220703</ele>
        <time>2021-07-18T04:51:25.000Z</time>
      </trkpt>
      <trkpt lat="45.2191" lon="5.73374">
        <ele>923.20001220703</ele>
        <time>2021-07-18T04:51:28.000Z</time>
      </trkpt>
      <trkpt lat="45.21913" lon="5.73375">
        <ele>922.79998779297</ele>
        <time>2021-07-18T04:51:31.000Z</time>
      </trkpt>
      <trkpt lat="45.21915" lon="5.73376">
        <ele>922.40002441406</ele>
        <time>2021-07-18T04:51:32.000Z</time>
      </trkpt>
      <trkpt lat="45.21917" lon="5.73377">
        <ele>921.79998779297</ele>
        <time>2021-07-18T04:51:34.000Z</time>
      </trkpt>
      <trkpt lat="45.21918" lon="5.73378">
        <ele>921.79998779297</ele>
        <time>2021-07-18T04:51:35.000Z</time>
      </trkpt>
      <trkpt lat="45.21919" lon="5.7338">
        <ele>921.59997558594</ele>
        <time>2021-07-18T04:51:36.000Z</time>
      </trkpt>
      <trkpt lat="45.21927" lon="5.73389">
        <ele>921.40002441406</ele>
        <time>2021-07-18T04:51:42.000Z</time>
      </trkpt>
      <trkpt lat="45.21928" lon="5.73393">
        <ele>922</ele>
        <time>2021-07-18T04:51:44.000Z</time>
      </trkpt>
      <trkpt lat="45.21928" lon="5.73395">
        <ele>922</ele>
        <time>2021-07-18T04:51:45.000Z</time>
      </trkpt>
      <trkpt lat="45.21929" lon="5.73397">
        <ele>922.20001220703</ele>
        <time>2021-07-18T04:51:46.000Z</time>
      </trkpt>
      <trkpt lat="45.2193" lon="5.73398">
        <ele>922.20001220703</ele>
        <time>2021-07-18T04:51:47.000Z</time>
      </trkpt>
      <trkpt lat="45.21932" lon="5.734">
        <ele>922.40002441406</ele>
        <time>2021-07-18T04:51:49.000Z</time>
      </trkpt>
      <trkpt lat="45.21934" lon="5.73403">
        <ele>923</ele>
        <time>2021-07-18T04:51:51.000Z</time>
      </trkpt>
      <trkpt lat="45.21937" lon="5.73405">
        <ele>923.59997558594</ele>
        <time>2021-07-18T04:51:54.000Z</time>
      </trkpt>
      <trkpt lat="45.21938" lon="5.73408">
        <ele>924</ele>
        <time>2021-07-18T04:51:56.000Z</time>
      </trkpt>
      <trkpt lat="45.21939" lon="5.7341">
        <ele>924.20001220703</ele>
        <time>2021-07-18T04:51:57.000Z</time>
      </trkpt>
      <trkpt lat="45.21947" lon="5.73416">
        <ele>924.40002441406</ele>
        <time>2021-07-18T04:52:02.000Z</time>
      </trkpt>
      <trkpt lat="45.21949" lon="5.73417">
        <ele>924.79998779297</ele>
        <time>2021-07-18T04:52:04.000Z</time>
      </trkpt>
      <trkpt lat="45.2195" lon="5.73417">
        <ele>924.79998779297</ele>
        <time>2021-07-18T04:52:05.000Z</time>
      </trkpt>
      <trkpt lat="45.21952" lon="5.73417">
        <ele>925</ele>
        <time>2021-07-18T04:52:06.000Z</time>
      </trkpt>
      <trkpt lat="45.21954" lon="5.73416">
        <ele>925.40002441406</ele>
        <time>2021-07-18T04:52:08.000Z</time>
      </trkpt>
      <trkpt lat="45.21956" lon="5.73415">
        <ele>925.40002441406</ele>
        <time>2021-07-18T04:52:10.000Z</time>
      </trkpt>
      <trkpt lat="45.21966" lon="5.73416">
        <ele>925.79998779297</ele>
        <time>2021-07-18T04:52:15.000Z</time>
      </trkpt>
      <trkpt lat="45.21971" lon="5.73418">
        <ele>926.40002441406</ele>
        <time>2021-07-18T04:52:18.000Z</time>
      </trkpt>
      <trkpt lat="45.21978" lon="5.73421">
        <ele>927</ele>
        <time>2021-07-18T04:52:23.000Z</time>
      </trkpt>
      <trkpt lat="45.21981" lon="5.73422">
        <ele>927.79998779297</ele>
        <time>2021-07-18T04:52:25.000Z</time>
      </trkpt>
      <trkpt lat="45.21984" lon="5.73423">
        <ele>927.79998779297</ele>
        <time>2021-07-18T04:52:27.000Z</time>
      </trkpt>
      <trkpt lat="45.21987" lon="5.73424">
        <ele>928.79998779297</ele>
        <time>2021-07-18T04:52:29.000Z</time>
      </trkpt>
      <trkpt lat="45.2199" lon="5.73424">
        <ele>929</ele>
        <time>2021-07-18T04:52:31.000Z</time>
      </trkpt>
      <trkpt lat="45.21996" lon="5.73423">
        <ele>929.59997558594</ele>
        <time>2021-07-18T04:52:34.000Z</time>
      </trkpt>
      <trkpt lat="45.21999" lon="5.73424">
        <ele>929.59997558594</ele>
        <time>2021-07-18T04:52:36.000Z</time>
      </trkpt>
      <trkpt lat="45.22" lon="5.73424">
        <ele>930</ele>
        <time>2021-07-18T04:52:37.000Z</time>
      </trkpt>
      <trkpt lat="45.22002" lon="5.73423">
        <ele>930</ele>
        <time>2021-07-18T04:52:39.000Z</time>
      </trkpt>
      <trkpt lat="45.22006" lon="5.73424">
        <ele>929.79998779297</ele>
        <time>2021-07-18T04:52:44.000Z</time>
      </trkpt>
      <trkpt lat="45.22009" lon="5.73426">
        <ele>929.79998779297</ele>
        <time>2021-07-18T04:52:46.000Z</time>
      </trkpt>
      <trkpt lat="45.22017" lon="5.7343">
        <ele>928.79998779297</ele>
        <time>2021-07-18T04:52:51.000Z</time>
      </trkpt>
      <trkpt lat="45.22022" lon="5.73433">
        <ele>928.40002441406</ele>
        <time>2021-07-18T04:52:54.000Z</time>
      </trkpt>
      <trkpt lat="45.22025" lon="5.73436">
        <ele>927.79998779297</ele>
        <time>2021-07-18T04:52:56.000Z</time>
      </trkpt>
      <trkpt lat="45.22026" lon="5.73439">
        <ele>927.79998779297</ele>
        <time>2021-07-18T04:52:58.000Z</time>
      </trkpt>
      <trkpt lat="45.22028" lon="5.73443">
        <ele>927.20001220703</ele>
        <time>2021-07-18T04:53:00.000Z</time>
      </trkpt>
      <trkpt lat="45.22031" lon="5.73447">
        <ele>926.59997558594</ele>
        <time>2021-07-18T04:53:03.000Z</time>
      </trkpt>
      <trkpt lat="45.22031" lon="5.73448">
        <ele>926.59997558594</ele>
        <time>2021-07-18T04:53:04.000Z</time>
      </trkpt>
      <trkpt lat="45.22032" lon="5.73449">
        <ele>925.79998779297</ele>
        <time>2021-07-18T04:53:06.000Z</time>
      </trkpt>
      <trkpt lat="45.22034" lon="5.73449">
        <ele>925.59997558594</ele>
        <time>2021-07-18T04:53:08.000Z</time>
      </trkpt>
      <trkpt lat="45.22038" lon="5.73451">
        <ele>924.59997558594</ele>
        <time>2021-07-18T04:53:12.000Z</time>
      </trkpt>
      <trkpt lat="45.22039" lon="5.73452">
        <ele>924.20001220703</ele>
        <time>2021-07-18T04:53:13.000Z</time>
      </trkpt>
      <trkpt lat="45.22045" lon="5.73453">
        <ele>923.20001220703</ele>
        <time>2021-07-18T04:53:17.000Z</time>
      </trkpt>
      <trkpt lat="45.22048" lon="5.73456">
        <ele>922.79998779297</ele>
        <time>2021-07-18T04:53:20.000Z</time>
      </trkpt>
      <trkpt lat="45.22049" lon="5.73457">
        <ele>922.20001220703</ele>
        <time>2021-07-18T04:53:21.000Z</time>
      </trkpt>
      <trkpt lat="45.2205" lon="5.73458">
        <ele>922.20001220703</ele>
        <time>2021-07-18T04:53:22.000Z</time>
      </trkpt>
      <trkpt lat="45.22055" lon="5.73461">
        <ele>921.20001220703</ele>
        <time>2021-07-18T04:53:26.000Z</time>
      </trkpt>
      <trkpt lat="45.2206" lon="5.73461">
        <ele>920.40002441406</ele>
        <time>2021-07-18T04:53:29.000Z</time>
      </trkpt>
      <trkpt lat="45.22061" lon="5.73464">
        <ele>920.20001220703</ele>
        <time>2021-07-18T04:53:30.000Z</time>
      </trkpt>
      <trkpt lat="45.22067" lon="5.73464">
        <ele>919</ele>
        <time>2021-07-18T04:53:36.000Z</time>
      </trkpt>
      <trkpt lat="45.22066" lon="5.73464">
        <ele>919</ele>
        <time>2021-07-18T04:53:37.000Z</time>
      </trkpt>
      <trkpt lat="45.22065" lon="5.73464">
        <ele>918.79998779297</ele>
        <time>2021-07-18T04:53:38.000Z</time>
      </trkpt>
      <trkpt lat="45.22065" lon="5.73463">
        <ele>917.40002441406</ele>
        <time>2021-07-18T04:53:40.000Z</time>
      </trkpt>
      <trkpt lat="45.22066" lon="5.73462">
        <ele>916.40002441406</ele>
        <time>2021-07-18T04:53:42.000Z</time>
      </trkpt>
      <trkpt lat="45.22067" lon="5.73461">
        <ele>916</ele>
        <time>2021-07-18T04:53:43.000Z</time>
      </trkpt>
      <trkpt lat="45.22068" lon="5.7346">
        <ele>915</ele>
        <time>2021-07-18T04:53:46.000Z</time>
      </trkpt>
      <trkpt lat="45.22068" lon="5.73458">
        <ele>914</ele>
        <time>2021-07-18T04:53:49.000Z</time>
      </trkpt>
      <trkpt lat="45.2207" lon="5.73457">
        <ele>913</ele>
        <time>2021-07-18T04:53:50.000Z</time>
      </trkpt>
      <trkpt lat="45.22071" lon="5.73456">
        <ele>913</ele>
        <time>2021-07-18T04:53:51.000Z</time>
      </trkpt>
      <trkpt lat="45.22074" lon="5.73454">
        <ele>912</ele>
        <time>2021-07-18T04:53:54.000Z</time>
      </trkpt>
      <trkpt lat="45.22075" lon="5.73453">
        <ele>911.59997558594</ele>
        <time>2021-07-18T04:53:55.000Z</time>
      </trkpt>
      <trkpt lat="45.2208" lon="5.73452">
        <ele>910.40002441406</ele>
        <time>2021-07-18T04:53:58.000Z</time>
      </trkpt>
      <trkpt lat="45.22084" lon="5.7345">
        <ele>909.79998779297</ele>
        <time>2021-07-18T04:54:01.000Z</time>
      </trkpt>
      <trkpt lat="45.22083" lon="5.7345">
        <ele>909.40002441406</ele>
        <time>2021-07-18T04:54:02.000Z</time>
      </trkpt>
      <trkpt lat="45.22082" lon="5.73451">
        <ele>909.40002441406</ele>
        <time>2021-07-18T04:54:03.000Z</time>
      </trkpt>
      <trkpt lat="45.22082" lon="5.7345">
        <ele>908.40002441406</ele>
        <time>2021-07-18T04:54:06.000Z</time>
      </trkpt>
      <trkpt lat="45.22082" lon="5.73449">
        <ele>908.20001220703</ele>
        <time>2021-07-18T04:54:07.000Z</time>
      </trkpt>
      <trkpt lat="45.22081" lon="5.73449">
        <ele>907.20001220703</ele>
        <time>2021-07-18T04:54:09.000Z</time>
      </trkpt>
      <trkpt lat="45.22081" lon="5.73448">
        <ele>907.20001220703</ele>
        <time>2021-07-18T04:54:10.000Z</time>
      </trkpt>
      <trkpt lat="45.22082" lon="5.73448">
        <ele>906.79998779297</ele>
        <time>2021-07-18T04:54:11.000Z</time>
      </trkpt>
      <trkpt lat="45.22082" lon="5.73448">
        <ele>906.59997558594</ele>
        <time>2021-07-18T04:54:12.000Z</time>
      </trkpt>
      <trkpt lat="45.22082" lon="5.73446">
        <ele>906</ele>
        <time>2021-07-18T04:54:15.000Z</time>
      </trkpt>
      <trkpt lat="45.22083" lon="5.73444">
        <ele>905.20001220703</ele>
        <time>2021-07-18T04:54:19.000Z</time>
      </trkpt>
      <trkpt lat="45.22083" lon="5.73445">
        <ele>905</ele>
        <time>2021-07-18T04:54:22.000Z</time>
      </trkpt>
      <trkpt lat="45.22081" lon="5.73443">
        <ele>903.40002441406</ele>
        <time>2021-07-18T04:54:27.000Z</time>
      </trkpt>
      <trkpt lat="45.2208" lon="5.7344">
        <ele>902.59997558594</ele>
        <time>2021-07-18T04:54:31.000Z</time>
      </trkpt>
      <trkpt lat="45.2208" lon="5.73439">
        <ele>902.20001220703</ele>
        <time>2021-07-18T04:54:32.000Z</time>
      </trkpt>
      <trkpt lat="45.22079" lon="5.73438">
        <ele>901.40002441406</ele>
        <time>2021-07-18T04:54:33.000Z</time>
      </trkpt>
      <trkpt lat="45.22078" lon="5.73437">
        <ele>901.40002441406</ele>
        <time>2021-07-18T04:54:34.000Z</time>
      </trkpt>
      <trkpt lat="45.22078" lon="5.73435">
        <ele>900.59997558594</ele>
        <time>2021-07-18T04:54:35.000Z</time>
      </trkpt>
      <trkpt lat="45.22078" lon="5.73432">
        <ele>899.59997558594</ele>
        <time>2021-07-18T04:54:37.000Z</time>
      </trkpt>
      <trkpt lat="45.22076" lon="5.73429">
        <ele>899.40002441406</ele>
        <time>2021-07-18T04:54:39.000Z</time>
      </trkpt>
      <trkpt lat="45.22075" lon="5.73427">
        <ele>899</ele>
        <time>2021-07-18T04:54:40.000Z</time>
      </trkpt>
      <trkpt lat="45.22073" lon="5.73422">
        <ele>898.40002441406</ele>
        <time>2021-07-18T04:54:42.000Z</time>
      </trkpt>
      <trkpt lat="45.22073" lon="5.7342">
        <ele>898</ele>
        <time>2021-07-18T04:54:43.000Z</time>
      </trkpt>
      <trkpt lat="45.22073" lon="5.73418">
        <ele>897.40002441406</ele>
        <time>2021-07-18T04:54:44.000Z</time>
      </trkpt>
      <trkpt lat="45.22072" lon="5.73416">
        <ele>897.20001220703</ele>
        <time>2021-07-18T04:54:45.000Z</time>
      </trkpt>
      <trkpt lat="45.22072" lon="5.73415">
        <ele>897</ele>
        <time>2021-07-18T04:54:46.000Z</time>
      </trkpt>
      <trkpt lat="45.22071" lon="5.73408">
        <ele>896.59997558594</ele>
        <time>2021-07-18T04:54:49.000Z</time>
      </trkpt>
      <trkpt lat="45.22073" lon="5.734">
        <ele>895.20001220703</ele>
        <time>2021-07-18T04:54:51.000Z</time>
      </trkpt>
      <trkpt lat="45.22075" lon="5.73394">
        <ele>895</ele>
        <time>2021-07-18T04:54:53.000Z</time>
      </trkpt>
      <trkpt lat="45.2208" lon="5.73389">
        <ele>893.79998779297</ele>
        <time>2021-07-18T04:54:57.000Z</time>
      </trkpt>
      <trkpt lat="45.22084" lon="5.73387">
        <ele>893.79998779297</ele>
        <time>2021-07-18T04:55:00.000Z</time>
      </trkpt>
      <trkpt lat="45.22085" lon="5.73387">
        <ele>892.59997558594</ele>
        <time>2021-07-18T04:55:01.000Z</time>
      </trkpt>
      <trkpt lat="45.22087" lon="5.73387">
        <ele>892.20001220703</ele>
        <time>2021-07-18T04:55:04.000Z</time>
      </trkpt>
      <trkpt lat="45.22088" lon="5.73387">
        <ele>891.40002441406</ele>
        <time>2021-07-18T04:55:05.000Z</time>
      </trkpt>
      <trkpt lat="45.22093" lon="5.73388">
        <ele>890.40002441406</ele>
        <time>2021-07-18T04:55:09.000Z</time>
      </trkpt>
      <trkpt lat="45.22094" lon="5.73387">
        <ele>890.20001220703</ele>
        <time>2021-07-18T04:55:10.000Z</time>
      </trkpt>
      <trkpt lat="45.22094" lon="5.73387">
        <ele>889.79998779297</ele>
        <time>2021-07-18T04:55:11.000Z</time>
      </trkpt>
      <trkpt lat="45.221" lon="5.73382">
        <ele>888.40002441406</ele>
        <time>2021-07-18T04:55:14.000Z</time>
      </trkpt>
      <trkpt lat="45.22103" lon="5.7338">
        <ele>887.59997558594</ele>
        <time>2021-07-18T04:55:17.000Z</time>
      </trkpt>
      <trkpt lat="45.22106" lon="5.7338">
        <ele>886</ele>
        <time>2021-07-18T04:55:19.000Z</time>
      </trkpt>
      <trkpt lat="45.2211" lon="5.73379">
        <ele>885.59997558594</ele>
        <time>2021-07-18T04:55:22.000Z</time>
      </trkpt>
      <trkpt lat="45.22111" lon="5.73379">
        <ele>885</ele>
        <time>2021-07-18T04:55:23.000Z</time>
      </trkpt>
      <trkpt lat="45.22113" lon="5.73379">
        <ele>885</ele>
        <time>2021-07-18T04:55:24.000Z</time>
      </trkpt>
      <trkpt lat="45.22116" lon="5.73379">
        <ele>883.20001220703</ele>
        <time>2021-07-18T04:55:26.000Z</time>
      </trkpt>
      <trkpt lat="45.22117" lon="5.73379">
        <ele>883.20001220703</ele>
        <time>2021-07-18T04:55:27.000Z</time>
      </trkpt>
      <trkpt lat="45.2212" lon="5.73379">
        <ele>882.79998779297</ele>
        <time>2021-07-18T04:55:29.000Z</time>
      </trkpt>
      <trkpt lat="45.22121" lon="5.73379">
        <ele>882.20001220703</ele>
        <time>2021-07-18T04:55:30.000Z</time>
      </trkpt>
      <trkpt lat="45.22123" lon="5.73378">
        <ele>881.20001220703</ele>
        <time>2021-07-18T04:55:32.000Z</time>
      </trkpt>
      <trkpt lat="45.22125" lon="5.73379">
        <ele>881</ele>
        <time>2021-07-18T04:55:34.000Z</time>
      </trkpt>
      <trkpt lat="45.22126" lon="5.73379">
        <ele>880.79998779297</ele>
        <time>2021-07-18T04:55:35.000Z</time>
      </trkpt>
      <trkpt lat="45.22127" lon="5.73379">
        <ele>880.59997558594</ele>
        <time>2021-07-18T04:55:36.000Z</time>
      </trkpt>
      <trkpt lat="45.22128" lon="5.7338">
        <ele>880</ele>
        <time>2021-07-18T04:55:37.000Z</time>
      </trkpt>
      <trkpt lat="45.2213" lon="5.7338">
        <ele>879.59997558594</ele>
        <time>2021-07-18T04:55:38.000Z</time>
      </trkpt>
      <trkpt lat="45.22133" lon="5.7338">
        <ele>877.79998779297</ele>
        <time>2021-07-18T04:55:41.000Z</time>
      </trkpt>
      <trkpt lat="45.22139" lon="5.73383">
        <ele>876.79998779297</ele>
        <time>2021-07-18T04:55:46.000Z</time>
      </trkpt>
      <trkpt lat="45.22141" lon="5.73383">
        <ele>876.59997558594</ele>
        <time>2021-07-18T04:55:47.000Z</time>
      </trkpt>
      <trkpt lat="45.22143" lon="5.73383">
        <ele>875.40002441406</ele>
        <time>2021-07-18T04:55:48.000Z</time>
      </trkpt>
      <trkpt lat="45.22149" lon="5.73384">
        <ele>874.20001220703</ele>
        <time>2021-07-18T04:55:53.000Z</time>
      </trkpt>
      <trkpt lat="45.2215" lon="5.73384">
        <ele>873.79998779297</ele>
        <time>2021-07-18T04:55:54.000Z</time>
      </trkpt>
      <trkpt lat="45.22151" lon="5.73384">
        <ele>873.20001220703</ele>
        <time>2021-07-18T04:55:55.000Z</time>
      </trkpt>
      <trkpt lat="45.22156" lon="5.73382">
        <ele>871.79998779297</ele>
        <time>2021-07-18T04:55:59.000Z</time>
      </trkpt>
      <trkpt lat="45.22157" lon="5.73382">
        <ele>870.79998779297</ele>
        <time>2021-07-18T04:56:00.000Z</time>
      </trkpt>
      <trkpt lat="45.22158" lon="5.73382">
        <ele>870.79998779297</ele>
        <time>2021-07-18T04:56:01.000Z</time>
      </trkpt>
      <trkpt lat="45.22159" lon="5.73382">
        <ele>870.79998779297</ele>
        <time>2021-07-18T04:56:02.000Z</time>
      </trkpt>
      <trkpt lat="45.22159" lon="5.73382">
        <ele>870</ele>
        <time>2021-07-18T04:56:03.000Z</time>
      </trkpt>
      <trkpt lat="45.22161" lon="5.73382">
        <ele>869.40002441406</ele>
        <time>2021-07-18T04:56:05.000Z</time>
      </trkpt>
      <trkpt lat="45.22162" lon="5.73382">
        <ele>869</ele>
        <time>2021-07-18T04:56:06.000Z</time>
      </trkpt>
      <trkpt lat="45.22165" lon="5.73383">
        <ele>868.20001220703</ele>
        <time>2021-07-18T04:56:09.000Z</time>
      </trkpt>
      <trkpt lat="45.22166" lon="5.73384">
        <ele>866.79998779297</ele>
        <time>2021-07-18T04:56:11.000Z</time>
      </trkpt>
      <trkpt lat="45.22166" lon="5.73384">
        <ele>866.40002441406</ele>
        <time>2021-07-18T04:56:12.000Z</time>
      </trkpt>
      <trkpt lat="45.22171" lon="5.73383">
        <ele>865.79998779297</ele>
        <time>2021-07-18T04:56:16.000Z</time>
      </trkpt>
      <trkpt lat="45.22174" lon="5.73384">
        <ele>865.40002441406</ele>
        <time>2021-07-18T04:56:17.000Z</time>
      </trkpt>
      <trkpt lat="45.22177" lon="5.73386">
        <ele>863.59997558594</ele>
        <time>2021-07-18T04:56:19.000Z</time>
      </trkpt>
      <trkpt lat="45.22182" lon="5.73388">
        <ele>862.79998779297</ele>
        <time>2021-07-18T04:56:24.000Z</time>
      </trkpt>
      <trkpt lat="45.22182" lon="5.73388">
        <ele>862</ele>
        <time>2021-07-18T04:56:25.000Z</time>
      </trkpt>
      <trkpt lat="45.22185" lon="5.73389">
        <ele>861.40002441406</ele>
        <time>2021-07-18T04:56:28.000Z</time>
      </trkpt>
      <trkpt lat="45.22186" lon="5.73389">
        <ele>860.59997558594</ele>
        <time>2021-07-18T04:56:29.000Z</time>
      </trkpt>
      <trkpt lat="45.22187" lon="5.73389">
        <ele>859.59997558594</ele>
        <time>2021-07-18T04:56:30.000Z</time>
      </trkpt>
      <trkpt lat="45.2219" lon="5.73388">
        <ele>858.40002441406</ele>
        <time>2021-07-18T04:56:33.000Z</time>
      </trkpt>
      <trkpt lat="45.22192" lon="5.73388">
        <ele>857.79998779297</ele>
        <time>2021-07-18T04:56:36.000Z</time>
      </trkpt>
      <trkpt lat="45.22193" lon="5.73387">
        <ele>857.20001220703</ele>
        <time>2021-07-18T04:56:37.000Z</time>
      </trkpt>
      <trkpt lat="45.22195" lon="5.73387">
        <ele>856.59997558594</ele>
        <time>2021-07-18T04:56:39.000Z</time>
      </trkpt>
      <trkpt lat="45.22196" lon="5.73387">
        <ele>856.20001220703</ele>
        <time>2021-07-18T04:56:41.000Z</time>
      </trkpt>
      <trkpt lat="45.22198" lon="5.73388">
        <ele>855</ele>
        <time>2021-07-18T04:56:43.000Z</time>
      </trkpt>
      <trkpt lat="45.22199" lon="5.73388">
        <ele>854.79998779297</ele>
        <time>2021-07-18T04:56:44.000Z</time>
      </trkpt>
      <trkpt lat="45.222" lon="5.73388">
        <ele>854.20001220703</ele>
        <time>2021-07-18T04:56:45.000Z</time>
      </trkpt>
      <trkpt lat="45.22201" lon="5.73388">
        <ele>854</ele>
        <time>2021-07-18T04:56:46.000Z</time>
      </trkpt>
      <trkpt lat="45.22203" lon="5.73388">
        <ele>852.59997558594</ele>
        <time>2021-07-18T04:56:48.000Z</time>
      </trkpt>
      <trkpt lat="45.22207" lon="5.73388">
        <ele>850.79998779297</ele>
        <time>2021-07-18T04:56:52.000Z</time>
      </trkpt>
      <trkpt lat="45.22208" lon="5.73388">
        <ele>850.79998779297</ele>
        <time>2021-07-18T04:56:53.000Z</time>
      </trkpt>
      <trkpt lat="45.22214" lon="5.73389">
        <ele>849.79998779297</ele>
        <time>2021-07-18T04:56:58.000Z</time>
      </trkpt>
      <trkpt lat="45.22217" lon="5.7339">
        <ele>848.40002441406</ele>
        <time>2021-07-18T04:57:00.000Z</time>
      </trkpt>
      <trkpt lat="45.22218" lon="5.7339">
        <ele>848.20001220703</ele>
        <time>2021-07-18T04:57:01.000Z</time>
      </trkpt>
      <trkpt lat="45.2222" lon="5.7339">
        <ele>847.59997558594</ele>
        <time>2021-07-18T04:57:03.000Z</time>
      </trkpt>
      <trkpt lat="45.22221" lon="5.73391">
        <ele>847.40002441406</ele>
        <time>2021-07-18T04:57:04.000Z</time>
      </trkpt>
      <trkpt lat="45.22222" lon="5.73391">
        <ele>847.20001220703</ele>
        <time>2021-07-18T04:57:05.000Z</time>
      </trkpt>
      <trkpt lat="45.22226" lon="5.73392">
        <ele>846.20001220703</ele>
        <time>2021-07-18T04:57:09.000Z</time>
      </trkpt>
      <trkpt lat="45.22228" lon="5.73393">
        <ele>844.40002441406</ele>
        <time>2021-07-18T04:57:11.000Z</time>
      </trkpt>
      <trkpt lat="45.22229" lon="5.73393">
        <ele>844</ele>
        <time>2021-07-18T04:57:12.000Z</time>
      </trkpt>
      <trkpt lat="45.22231" lon="5.73394">
        <ele>843</ele>
        <time>2021-07-18T04:57:15.000Z</time>
      </trkpt>
      <trkpt lat="45.22233" lon="5.73394">
        <ele>842.59997558594</ele>
        <time>2021-07-18T04:57:16.000Z</time>
      </trkpt>
      <trkpt lat="45.22234" lon="5.73395">
        <ele>842</ele>
        <time>2021-07-18T04:57:18.000Z</time>
      </trkpt>
      <trkpt lat="45.22235" lon="5.73395">
        <ele>841.20001220703</ele>
        <time>2021-07-18T04:57:19.000Z</time>
      </trkpt>
      <trkpt lat="45.22238" lon="5.73395">
        <ele>840.20001220703</ele>
        <time>2021-07-18T04:57:22.000Z</time>
      </trkpt>
      <trkpt lat="45.22239" lon="5.73395">
        <ele>839.79998779297</ele>
        <time>2021-07-18T04:57:23.000Z</time>
      </trkpt>
      <trkpt lat="45.22241" lon="5.73394">
        <ele>839.40002441406</ele>
        <time>2021-07-18T04:57:25.000Z</time>
      </trkpt>
      <trkpt lat="45.22241" lon="5.73393">
        <ele>839.20001220703</ele>
        <time>2021-07-18T04:57:26.000Z</time>
      </trkpt>
      <trkpt lat="45.22243" lon="5.73393">
        <ele>838.40002441406</ele>
        <time>2021-07-18T04:57:28.000Z</time>
      </trkpt>
      <trkpt lat="45.22245" lon="5.73391">
        <ele>837.59997558594</ele>
        <time>2021-07-18T04:57:30.000Z</time>
      </trkpt>
      <trkpt lat="45.22246" lon="5.7339">
        <ele>837.20001220703</ele>
        <time>2021-07-18T04:57:31.000Z</time>
      </trkpt>
      <trkpt lat="45.22247" lon="5.7339">
        <ele>836.79998779297</ele>
        <time>2021-07-18T04:57:32.000Z</time>
      </trkpt>
      <trkpt lat="45.22251" lon="5.73389">
        <ele>836</ele>
        <time>2021-07-18T04:57:35.000Z</time>
      </trkpt>
      <trkpt lat="45.22255" lon="5.73388">
        <ele>835</ele>
        <time>2021-07-18T04:57:38.000Z</time>
      </trkpt>
      <trkpt lat="45.22261" lon="5.73388">
        <ele>833.79998779297</ele>
        <time>2021-07-18T04:57:42.000Z</time>
      </trkpt>
      <trkpt lat="45.22262" lon="5.73387">
        <ele>832.59997558594</ele>
        <time>2021-07-18T04:57:43.000Z</time>
      </trkpt>
      <trkpt lat="45.2227" lon="5.73387">
        <ele>831.40002441406</ele>
        <time>2021-07-18T04:57:48.000Z</time>
      </trkpt>
      <trkpt lat="45.22277" lon="5.73389">
        <ele>830</ele>
        <time>2021-07-18T04:57:54.000Z</time>
      </trkpt>
      <trkpt lat="45.22278" lon="5.7339">
        <ele>829.40002441406</ele>
        <time>2021-07-18T04:57:55.000Z</time>
      </trkpt>
      <trkpt lat="45.22281" lon="5.73389">
        <ele>828.79998779297</ele>
        <time>2021-07-18T04:57:58.000Z</time>
      </trkpt>
      <trkpt lat="45.22284" lon="5.73389">
        <ele>827.79998779297</ele>
        <time>2021-07-18T04:58:01.000Z</time>
      </trkpt>
      <trkpt lat="45.22286" lon="5.73389">
        <ele>827.59997558594</ele>
        <time>2021-07-18T04:58:02.000Z</time>
      </trkpt>
      <trkpt lat="45.22293" lon="5.73389">
        <ele>826.40002441406</ele>
        <time>2021-07-18T04:58:06.000Z</time>
      </trkpt>
      <trkpt lat="45.22296" lon="5.7339">
        <ele>825.20001220703</ele>
        <time>2021-07-18T04:58:09.000Z</time>
      </trkpt>
      <trkpt lat="45.22305" lon="5.7339">
        <ele>823.79998779297</ele>
        <time>2021-07-18T04:58:15.000Z</time>
      </trkpt>
      <trkpt lat="45.22312" lon="5.73394">
        <ele>822.40002441406</ele>
        <time>2021-07-18T04:58:19.000Z</time>
      </trkpt>
      <trkpt lat="45.22313" lon="5.73395">
        <ele>822.40002441406</ele>
        <time>2021-07-18T04:58:20.000Z</time>
      </trkpt>
      <trkpt lat="45.22315" lon="5.73396">
        <ele>820.59997558594</ele>
        <time>2021-07-18T04:58:23.000Z</time>
      </trkpt>
      <trkpt lat="45.2232" lon="5.73399">
        <ele>819.79998779297</ele>
        <time>2021-07-18T04:58:27.000Z</time>
      </trkpt>
      <trkpt lat="45.22322" lon="5.73399">
        <ele>819.40002441406</ele>
        <time>2021-07-18T04:58:28.000Z</time>
      </trkpt>
      <trkpt lat="45.22323" lon="5.73399">
        <ele>819.20001220703</ele>
        <time>2021-07-18T04:58:29.000Z</time>
      </trkpt>
      <trkpt lat="45.22327" lon="5.73399">
        <ele>818.20001220703</ele>
        <time>2021-07-18T04:58:32.000Z</time>
      </trkpt>
      <trkpt lat="45.22333" lon="5.73403">
        <ele>816.79998779297</ele>
        <time>2021-07-18T04:58:36.000Z</time>
      </trkpt>
      <trkpt lat="45.22334" lon="5.73404">
        <ele>816.20001220703</ele>
        <time>2021-07-18T04:58:37.000Z</time>
      </trkpt>
      <trkpt lat="45.22337" lon="5.73405">
        <ele>815.59997558594</ele>
        <time>2021-07-18T04:58:40.000Z</time>
      </trkpt>
      <trkpt lat="45.2234" lon="5.73404">
        <ele>815.20001220703</ele>
        <time>2021-07-18T04:58:43.000Z</time>
      </trkpt>
      <trkpt lat="45.22343" lon="5.73404">
        <ele>814.40002441406</ele>
        <time>2021-07-18T04:58:45.000Z</time>
      </trkpt>
      <trkpt lat="45.22344" lon="5.73404">
        <ele>814</ele>
        <time>2021-07-18T04:58:46.000Z</time>
      </trkpt>
      <trkpt lat="45.22347" lon="5.73405">
        <ele>813.40002441406</ele>
        <time>2021-07-18T04:58:48.000Z</time>
      </trkpt>
      <trkpt lat="45.22355" lon="5.73409">
        <ele>812.20001220703</ele>
        <time>2021-07-18T04:58:53.000Z</time>
      </trkpt>
      <trkpt lat="45.22364" lon="5.73409">
        <ele>811.20001220703</ele>
        <time>2021-07-18T04:59:00.000Z</time>
      </trkpt>
      <trkpt lat="45.22366" lon="5.7341">
        <ele>810.59997558594</ele>
        <time>2021-07-18T04:59:01.000Z</time>
      </trkpt>
      <trkpt lat="45.22367" lon="5.73411">
        <ele>810.40002441406</ele>
        <time>2021-07-18T04:59:02.000Z</time>
      </trkpt>
      <trkpt lat="45.22372" lon="5.73411">
        <ele>810.20001220703</ele>
        <time>2021-07-18T04:59:05.000Z</time>
      </trkpt>
      <trkpt lat="45.22373" lon="5.73411">
        <ele>810</ele>
        <time>2021-07-18T04:59:06.000Z</time>
      </trkpt>
      <trkpt lat="45.2238" lon="5.73411">
        <ele>809.79998779297</ele>
        <time>2021-07-18T04:59:10.000Z</time>
      </trkpt>
      <trkpt lat="45.22383" lon="5.73411">
        <ele>809.40002441406</ele>
        <time>2021-07-18T04:59:12.000Z</time>
      </trkpt>
      <trkpt lat="45.22384" lon="5.73412">
        <ele>809.40002441406</ele>
        <time>2021-07-18T04:59:13.000Z</time>
      </trkpt>
      <trkpt lat="45.22396" lon="5.73413">
        <ele>808.79998779297</ele>
        <time>2021-07-18T04:59:20.000Z</time>
      </trkpt>
      <trkpt lat="45.22398" lon="5.73413">
        <ele>808.40002441406</ele>
        <time>2021-07-18T04:59:21.000Z</time>
      </trkpt>
      <trkpt lat="45.22412" lon="5.73413">
        <ele>807.59997558594</ele>
        <time>2021-07-18T04:59:28.000Z</time>
      </trkpt>
      <trkpt lat="45.22414" lon="5.73413">
        <ele>807.59997558594</ele>
        <time>2021-07-18T04:59:29.000Z</time>
      </trkpt>
      <trkpt lat="45.22416" lon="5.73413">
        <ele>807.40002441406</ele>
        <time>2021-07-18T04:59:30.000Z</time>
      </trkpt>
      <trkpt lat="45.22419" lon="5.73413">
        <ele>807</ele>
        <time>2021-07-18T04:59:32.000Z</time>
      </trkpt>
      <trkpt lat="45.22422" lon="5.73413">
        <ele>806.79998779297</ele>
        <time>2021-07-18T04:59:33.000Z</time>
      </trkpt>
      <trkpt lat="45.22424" lon="5.73412">
        <ele>806.40002441406</ele>
        <time>2021-07-18T04:59:34.000Z</time>
      </trkpt>
      <trkpt lat="45.22428" lon="5.73413">
        <ele>806.40002441406</ele>
        <time>2021-07-18T04:59:36.000Z</time>
      </trkpt>
      <trkpt lat="45.22431" lon="5.73413">
        <ele>806.20001220703</ele>
        <time>2021-07-18T04:59:37.000Z</time>
      </trkpt>
      <trkpt lat="45.22439" lon="5.73413">
        <ele>805.40002441406</ele>
        <time>2021-07-18T04:59:41.000Z</time>
      </trkpt>
      <trkpt lat="45.2244" lon="5.73414">
        <ele>805.20001220703</ele>
        <time>2021-07-18T04:59:42.000Z</time>
      </trkpt>
      <trkpt lat="45.22443" lon="5.73414">
        <ele>804.79998779297</ele>
        <time>2021-07-18T04:59:44.000Z</time>
      </trkpt>
      <trkpt lat="45.22449" lon="5.73413">
        <ele>804.20001220703</ele>
        <time>2021-07-18T04:59:47.000Z</time>
      </trkpt>
      <trkpt lat="45.22452" lon="5.73412">
        <ele>803.79998779297</ele>
        <time>2021-07-18T04:59:49.000Z</time>
      </trkpt>
      <trkpt lat="45.22456" lon="5.73413">
        <ele>803.20001220703</ele>
        <time>2021-07-18T04:59:51.000Z</time>
      </trkpt>
      <trkpt lat="45.22457" lon="5.73413">
        <ele>802.79998779297</ele>
        <time>2021-07-18T04:59:52.000Z</time>
      </trkpt>
      <trkpt lat="45.22462" lon="5.73413">
        <ele>802.20001220703</ele>
        <time>2021-07-18T04:59:54.000Z</time>
      </trkpt>
      <trkpt lat="45.22463" lon="5.73412">
        <ele>802.20001220703</ele>
        <time>2021-07-18T04:59:55.000Z</time>
      </trkpt>
      <trkpt lat="45.22465" lon="5.73411">
        <ele>801.79998779297</ele>
        <time>2021-07-18T04:59:56.000Z</time>
      </trkpt>
      <trkpt lat="45.22471" lon="5.73412">
        <ele>801.40002441406</ele>
        <time>2021-07-18T04:59:59.000Z</time>
      </trkpt>
      <trkpt lat="45.22476" lon="5.73412">
        <ele>800</ele>
        <time>2021-07-18T05:00:02.000Z</time>
      </trkpt>
      <trkpt lat="45.22479" lon="5.73411">
        <ele>800</ele>
        <time>2021-07-18T05:00:05.000Z</time>
      </trkpt>
      <trkpt lat="45.22481" lon="5.73413">
        <ele>798.20001220703</ele>
        <time>2021-07-18T05:00:08.000Z</time>
      </trkpt>
      <trkpt lat="45.22482" lon="5.73413">
        <ele>797.79998779297</ele>
        <time>2021-07-18T05:00:12.000Z</time>
      </trkpt>
      <trkpt lat="45.22485" lon="5.73409">
        <ele>797</ele>
        <time>2021-07-18T05:00:15.000Z</time>
      </trkpt>
      <trkpt lat="45.22489" lon="5.73406">
        <ele>795.79998779297</ele>
        <time>2021-07-18T05:00:18.000Z</time>
      </trkpt>
      <trkpt lat="45.2249" lon="5.73405">
        <ele>795.20001220703</ele>
        <time>2021-07-18T05:00:19.000Z</time>
      </trkpt>
      <trkpt lat="45.22492" lon="5.73403">
        <ele>794.40002441406</ele>
        <time>2021-07-18T05:00:21.000Z</time>
      </trkpt>
      <trkpt lat="45.22494" lon="5.73402">
        <ele>793</ele>
        <time>2021-07-18T05:00:24.000Z</time>
      </trkpt>
      <trkpt lat="45.22495" lon="5.73401">
        <ele>793</ele>
        <time>2021-07-18T05:00:25.000Z</time>
      </trkpt>
      <trkpt lat="45.22499" lon="5.73399">
        <ele>791.40002441406</ele>
        <time>2021-07-18T05:00:29.000Z</time>
      </trkpt>
      <trkpt lat="45.22504" lon="5.73396">
        <ele>790.20001220703</ele>
        <time>2021-07-18T05:00:33.000Z</time>
      </trkpt>
      <trkpt lat="45.22508" lon="5.7339">
        <ele>789</ele>
        <time>2021-07-18T05:00:38.000Z</time>
      </trkpt>
      <trkpt lat="45.22511" lon="5.73389">
        <ele>787.59997558594</ele>
        <time>2021-07-18T05:00:41.000Z</time>
      </trkpt>
      <trkpt lat="45.22514" lon="5.73389">
        <ele>786.20001220703</ele>
        <time>2021-07-18T05:00:45.000Z</time>
      </trkpt>
      <trkpt lat="45.22517" lon="5.73388">
        <ele>785.59997558594</ele>
        <time>2021-07-18T05:00:48.000Z</time>
      </trkpt>
      <trkpt lat="45.22518" lon="5.73387">
        <ele>785</ele>
        <time>2021-07-18T05:00:50.000Z</time>
      </trkpt>
      <trkpt lat="45.22522" lon="5.73385">
        <ele>784.20001220703</ele>
        <time>2021-07-18T05:00:52.000Z</time>
      </trkpt>
      <trkpt lat="45.22523" lon="5.73384">
        <ele>783.79998779297</ele>
        <time>2021-07-18T05:00:53.000Z</time>
      </trkpt>
      <trkpt lat="45.22525" lon="5.73383">
        <ele>783.59997558594</ele>
        <time>2021-07-18T05:00:54.000Z</time>
      </trkpt>
      <trkpt lat="45.22528" lon="5.73383">
        <ele>782.40002441406</ele>
        <time>2021-07-18T05:00:56.000Z</time>
      </trkpt>
      <trkpt lat="45.22531" lon="5.73383">
        <ele>782.20001220703</ele>
        <time>2021-07-18T05:00:58.000Z</time>
      </trkpt>
      <trkpt lat="45.22533" lon="5.73382">
        <ele>781.59997558594</ele>
        <time>2021-07-18T05:01:00.000Z</time>
      </trkpt>
      <trkpt lat="45.22535" lon="5.73382">
        <ele>781.40002441406</ele>
        <time>2021-07-18T05:01:02.000Z</time>
      </trkpt>
      <trkpt lat="45.22536" lon="5.73382">
        <ele>780.20001220703</ele>
        <time>2021-07-18T05:01:03.000Z</time>
      </trkpt>
      <trkpt lat="45.2254" lon="5.73381">
        <ele>779.79998779297</ele>
        <time>2021-07-18T05:01:06.000Z</time>
      </trkpt>
      <trkpt lat="45.22541" lon="5.7338">
        <ele>779.79998779297</ele>
        <time>2021-07-18T05:01:07.000Z</time>
      </trkpt>
      <trkpt lat="45.22543" lon="5.7338">
        <ele>779</ele>
        <time>2021-07-18T05:01:08.000Z</time>
      </trkpt>
      <trkpt lat="45.22553" lon="5.73377">
        <ele>777.20001220703</ele>
        <time>2021-07-18T05:01:15.000Z</time>
      </trkpt>
      <trkpt lat="45.22554" lon="5.73376">
        <ele>777.20001220703</ele>
        <time>2021-07-18T05:01:16.000Z</time>
      </trkpt>
      <trkpt lat="45.22556" lon="5.73376">
        <ele>776.79998779297</ele>
        <time>2021-07-18T05:01:17.000Z</time>
      </trkpt>
      <trkpt lat="45.22559" lon="5.73375">
        <ele>776.20001220703</ele>
        <time>2021-07-18T05:01:20.000Z</time>
      </trkpt>
      <trkpt lat="45.2256" lon="5.73375">
        <ele>776</ele>
        <time>2021-07-18T05:01:21.000Z</time>
      </trkpt>
      <trkpt lat="45.22562" lon="5.73374">
        <ele>775</ele>
        <time>2021-07-18T05:01:23.000Z</time>
      </trkpt>
      <trkpt lat="45.22568" lon="5.73371">
        <ele>774</ele>
        <time>2021-07-18T05:01:28.000Z</time>
      </trkpt>
      <trkpt lat="45.22569" lon="5.7337">
        <ele>773.40002441406</ele>
        <time>2021-07-18T05:01:29.000Z</time>
      </trkpt>
      <trkpt lat="45.22575" lon="5.73368">
        <ele>771.79998779297</ele>
        <time>2021-07-18T05:01:35.000Z</time>
      </trkpt>
      <trkpt lat="45.22577" lon="5.73367">
        <ele>771.20001220703</ele>
        <time>2021-07-18T05:01:37.000Z</time>
      </trkpt>
      <trkpt lat="45.22578" lon="5.73367">
        <ele>770.59997558594</ele>
        <time>2021-07-18T05:01:38.000Z</time>
      </trkpt>
      <trkpt lat="45.22581" lon="5.73365">
        <ele>770.20001220703</ele>
        <time>2021-07-18T05:01:40.000Z</time>
      </trkpt>
      <trkpt lat="45.22586" lon="5.73363">
        <ele>769.59997558594</ele>
        <time>2021-07-18T05:01:43.000Z</time>
      </trkpt>
      <trkpt lat="45.2259" lon="5.73362">
        <ele>768.79998779297</ele>
        <time>2021-07-18T05:01:45.000Z</time>
      </trkpt>
      <trkpt lat="45.22591" lon="5.73361">
        <ele>768.40002441406</ele>
        <time>2021-07-18T05:01:46.000Z</time>
      </trkpt>
      <trkpt lat="45.22599" lon="5.7336">
        <ele>767.59997558594</ele>
        <time>2021-07-18T05:01:51.000Z</time>
      </trkpt>
      <trkpt lat="45.22601" lon="5.7336">
        <ele>766.79998779297</ele>
        <time>2021-07-18T05:01:52.000Z</time>
      </trkpt>
      <trkpt lat="45.22603" lon="5.73359">
        <ele>766.79998779297</ele>
        <time>2021-07-18T05:01:53.000Z</time>
      </trkpt>
      <trkpt lat="45.22608" lon="5.73358">
        <ele>765.59997558594</ele>
        <time>2021-07-18T05:01:57.000Z</time>
      </trkpt>
      <trkpt lat="45.22611" lon="5.73357">
        <ele>765.40002441406</ele>
        <time>2021-07-18T05:01:59.000Z</time>
      </trkpt>
      <trkpt lat="45.22612" lon="5.73356">
        <ele>764.40002441406</ele>
        <time>2021-07-18T05:02:01.000Z</time>
      </trkpt>
      <trkpt lat="45.22615" lon="5.73356">
        <ele>763.40002441406</ele>
        <time>2021-07-18T05:02:04.000Z</time>
      </trkpt>
      <trkpt lat="45.22621" lon="5.73355">
        <ele>762.40002441406</ele>
        <time>2021-07-18T05:02:08.000Z</time>
      </trkpt>
      <trkpt lat="45.22624" lon="5.73354">
        <ele>761.59997558594</ele>
        <time>2021-07-18T05:02:10.000Z</time>
      </trkpt>
      <trkpt lat="45.22626" lon="5.73353">
        <ele>760.79998779297</ele>
        <time>2021-07-18T05:02:11.000Z</time>
      </trkpt>
      <trkpt lat="45.22631" lon="5.73354">
        <ele>759.40002441406</ele>
        <time>2021-07-18T05:02:16.000Z</time>
      </trkpt>
      <trkpt lat="45.22638" lon="5.73353">
        <ele>757.79998779297</ele>
        <time>2021-07-18T05:02:21.000Z</time>
      </trkpt>
      <trkpt lat="45.2264" lon="5.73353">
        <ele>757.79998779297</ele>
        <time>2021-07-18T05:02:23.000Z</time>
      </trkpt>
      <trkpt lat="45.22645" lon="5.73352">
        <ele>756.59997558594</ele>
        <time>2021-07-18T05:02:27.000Z</time>
      </trkpt>
      <trkpt lat="45.22648" lon="5.73353">
        <ele>756.20001220703</ele>
        <time>2021-07-18T05:02:30.000Z</time>
      </trkpt>
      <trkpt lat="45.22649" lon="5.73354">
        <ele>755.40002441406</ele>
        <time>2021-07-18T05:02:31.000Z</time>
      </trkpt>
      <trkpt lat="45.22658" lon="5.73357">
        <ele>753.79998779297</ele>
        <time>2021-07-18T05:02:36.000Z</time>
      </trkpt>
      <trkpt lat="45.2266" lon="5.73356">
        <ele>753.59997558594</ele>
        <time>2021-07-18T05:02:37.000Z</time>
      </trkpt>
      <trkpt lat="45.22664" lon="5.73356">
        <ele>753.40002441406</ele>
        <time>2021-07-18T05:02:39.000Z</time>
      </trkpt>
      <trkpt lat="45.22665" lon="5.73355">
        <ele>753</ele>
        <time>2021-07-18T05:02:40.000Z</time>
      </trkpt>
      <trkpt lat="45.22666" lon="5.73355">
        <ele>752.40002441406</ele>
        <time>2021-07-18T05:02:41.000Z</time>
      </trkpt>
      <trkpt lat="45.22669" lon="5.73354">
        <ele>752</ele>
        <time>2021-07-18T05:02:43.000Z</time>
      </trkpt>
      <trkpt lat="45.2267" lon="5.73354">
        <ele>751.59997558594</ele>
        <time>2021-07-18T05:02:44.000Z</time>
      </trkpt>
      <trkpt lat="45.22671" lon="5.73354">
        <ele>751</ele>
        <time>2021-07-18T05:02:45.000Z</time>
      </trkpt>
      <trkpt lat="45.22674" lon="5.73358">
        <ele>750.59997558594</ele>
        <time>2021-07-18T05:02:48.000Z</time>
      </trkpt>
      <trkpt lat="45.22679" lon="5.73363">
        <ele>749.40002441406</ele>
        <time>2021-07-18T05:02:51.000Z</time>
      </trkpt>
      <trkpt lat="45.22684" lon="5.73365">
        <ele>748</ele>
        <time>2021-07-18T05:02:55.000Z</time>
      </trkpt>
      <trkpt lat="45.22686" lon="5.73364">
        <ele>747.79998779297</ele>
        <time>2021-07-18T05:02:57.000Z</time>
      </trkpt>
      <trkpt lat="45.22687" lon="5.73364">
        <ele>747.79998779297</ele>
        <time>2021-07-18T05:02:58.000Z</time>
      </trkpt>
      <trkpt lat="45.22691" lon="5.73364">
        <ele>746.79998779297</ele>
        <time>2021-07-18T05:03:01.000Z</time>
      </trkpt>
      <trkpt lat="45.22698" lon="5.73363">
        <ele>746</ele>
        <time>2021-07-18T05:03:06.000Z</time>
      </trkpt>
      <trkpt lat="45.22702" lon="5.73365">
        <ele>745.20001220703</ele>
        <time>2021-07-18T05:03:09.000Z</time>
      </trkpt>
      <trkpt lat="45.22707" lon="5.73367">
        <ele>744.59997558594</ele>
        <time>2021-07-18T05:03:13.000Z</time>
      </trkpt>
      <trkpt lat="45.22708" lon="5.73368">
        <ele>743.79998779297</ele>
        <time>2021-07-18T05:03:14.000Z</time>
      </trkpt>
      <trkpt lat="45.22711" lon="5.73368">
        <ele>743.59997558594</ele>
        <time>2021-07-18T05:03:15.000Z</time>
      </trkpt>
      <trkpt lat="45.22714" lon="5.7337">
        <ele>743.59997558594</ele>
        <time>2021-07-18T05:03:17.000Z</time>
      </trkpt>
      <trkpt lat="45.22716" lon="5.73372">
        <ele>742.79998779297</ele>
        <time>2021-07-18T05:03:18.000Z</time>
      </trkpt>
      <trkpt lat="45.22722" lon="5.73375">
        <ele>742.40002441406</ele>
        <time>2021-07-18T05:03:21.000Z</time>
      </trkpt>
      <trkpt lat="45.22728" lon="5.73376">
        <ele>741.79998779297</ele>
        <time>2021-07-18T05:03:24.000Z</time>
      </trkpt>
      <trkpt lat="45.22729" lon="5.73376">
        <ele>741.59997558594</ele>
        <time>2021-07-18T05:03:25.000Z</time>
      </trkpt>
      <trkpt lat="45.22731" lon="5.73377">
        <ele>741.40002441406</ele>
        <time>2021-07-18T05:03:26.000Z</time>
      </trkpt>
      <trkpt lat="45.22737" lon="5.73379">
        <ele>741</ele>
        <time>2021-07-18T05:03:29.000Z</time>
      </trkpt>
      <trkpt lat="45.22738" lon="5.73379">
        <ele>740.79998779297</ele>
        <time>2021-07-18T05:03:30.000Z</time>
      </trkpt>
      <trkpt lat="45.22741" lon="5.73379">
        <ele>740.20001220703</ele>
        <time>2021-07-18T05:03:32.000Z</time>
      </trkpt>
      <trkpt lat="45.22743" lon="5.7338">
        <ele>740</ele>
        <time>2021-07-18T05:03:33.000Z</time>
      </trkpt>
      <trkpt lat="45.2275" lon="5.7338">
        <ele>739</ele>
        <time>2021-07-18T05:03:37.000Z</time>
      </trkpt>
      <trkpt lat="45.22758" lon="5.7338">
        <ele>738.20001220703</ele>
        <time>2021-07-18T05:03:41.000Z</time>
      </trkpt>
      <trkpt lat="45.2276" lon="5.73381">
        <ele>737.59997558594</ele>
        <time>2021-07-18T05:03:43.000Z</time>
      </trkpt>
      <trkpt lat="45.22761" lon="5.73381">
        <ele>737.59997558594</ele>
        <time>2021-07-18T05:03:44.000Z</time>
      </trkpt>
      <trkpt lat="45.22772" lon="5.73385">
        <ele>736.40002441406</ele>
        <time>2021-07-18T05:03:49.000Z</time>
      </trkpt>
      <trkpt lat="45.22775" lon="5.73386">
        <ele>736.40002441406</ele>
        <time>2021-07-18T05:03:50.000Z</time>
      </trkpt>
      <trkpt lat="45.22782" lon="5.7339">
        <ele>735.20001220703</ele>
        <time>2021-07-18T05:03:54.000Z</time>
      </trkpt>
      <trkpt lat="45.22791" lon="5.7339">
        <ele>734.20001220703</ele>
        <time>2021-07-18T05:04:00.000Z</time>
      </trkpt>
      <trkpt lat="45.22793" lon="5.7339">
        <ele>734</ele>
        <time>2021-07-18T05:04:01.000Z</time>
      </trkpt>
      <trkpt lat="45.22801" lon="5.73392">
        <ele>732.79998779297</ele>
        <time>2021-07-18T05:04:05.000Z</time>
      </trkpt>
      <trkpt lat="45.2281" lon="5.73392">
        <ele>732.59997558594</ele>
        <time>2021-07-18T05:04:09.000Z</time>
      </trkpt>
      <trkpt lat="45.22815" lon="5.7339">
        <ele>732.20001220703</ele>
        <time>2021-07-18T05:04:11.000Z</time>
      </trkpt>
      <trkpt lat="45.22818" lon="5.73391">
        <ele>731.79998779297</ele>
        <time>2021-07-18T05:04:13.000Z</time>
      </trkpt>
      <trkpt lat="45.22823" lon="5.73394">
        <ele>731.59997558594</ele>
        <time>2021-07-18T05:04:16.000Z</time>
      </trkpt>
      <trkpt lat="45.22828" lon="5.73397">
        <ele>730.59997558594</ele>
        <time>2021-07-18T05:04:19.000Z</time>
      </trkpt>
      <trkpt lat="45.22835" lon="5.73398">
        <ele>730.20001220703</ele>
        <time>2021-07-18T05:04:23.000Z</time>
      </trkpt>
      <trkpt lat="45.22841" lon="5.73398">
        <ele>730</ele>
        <time>2021-07-18T05:04:26.000Z</time>
      </trkpt>
      <trkpt lat="45.22846" lon="5.73397">
        <ele>729</ele>
        <time>2021-07-18T05:04:28.000Z</time>
      </trkpt>
      <trkpt lat="45.22857" lon="5.73401">
        <ele>728.20001220703</ele>
        <time>2021-07-18T05:04:34.000Z</time>
      </trkpt>
      <trkpt lat="45.22858" lon="5.73401">
        <ele>728</ele>
        <time>2021-07-18T05:04:36.000Z</time>
      </trkpt>
      <trkpt lat="45.22859" lon="5.73401">
        <ele>727.40002441406</ele>
        <time>2021-07-18T05:04:37.000Z</time>
      </trkpt>
      <trkpt lat="45.22861" lon="5.73403">
        <ele>727</ele>
        <time>2021-07-18T05:04:39.000Z</time>
      </trkpt>
      <trkpt lat="45.22862" lon="5.73403">
        <ele>727</ele>
        <time>2021-07-18T05:04:40.000Z</time>
      </trkpt>
      <trkpt lat="45.22864" lon="5.73403">
        <ele>726.59997558594</ele>
        <time>2021-07-18T05:04:41.000Z</time>
      </trkpt>
      <trkpt lat="45.22866" lon="5.73405">
        <ele>725.40002441406</ele>
        <time>2021-07-18T05:04:45.000Z</time>
      </trkpt>
      <trkpt lat="45.22866" lon="5.73405">
        <ele>725.20001220703</ele>
        <time>2021-07-18T05:04:46.000Z</time>
      </trkpt>
      <trkpt lat="45.22867" lon="5.73406">
        <ele>725.20001220703</ele>
        <time>2021-07-18T05:04:47.000Z</time>
      </trkpt>
      <trkpt lat="45.22868" lon="5.73412">
        <ele>725.59997558594</ele>
        <time>2021-07-18T05:04:50.000Z</time>
      </trkpt>
      <trkpt lat="45.22868" lon="5.73414">
        <ele>725.79998779297</ele>
        <time>2021-07-18T05:04:51.000Z</time>
      </trkpt>
      <trkpt lat="45.22866" lon="5.73418">
        <ele>726</ele>
        <time>2021-07-18T05:04:53.000Z</time>
      </trkpt>
      <trkpt lat="45.22865" lon="5.7342">
        <ele>726.20001220703</ele>
        <time>2021-07-18T05:04:54.000Z</time>
      </trkpt>
      <trkpt lat="45.22864" lon="5.73421">
        <ele>726.20001220703</ele>
        <time>2021-07-18T05:04:55.000Z</time>
      </trkpt>
      <trkpt lat="45.22863" lon="5.73422">
        <ele>726.40002441406</ele>
        <time>2021-07-18T05:04:57.000Z</time>
      </trkpt>
      <trkpt lat="45.22863" lon="5.73423">
        <ele>727.20001220703</ele>
        <time>2021-07-18T05:04:59.000Z</time>
      </trkpt>
      <trkpt lat="45.22863" lon="5.73424">
        <ele>727.20001220703</ele>
        <time>2021-07-18T05:05:00.000Z</time>
      </trkpt>
      <trkpt lat="45.22863" lon="5.73425">
        <ele>728</ele>
        <time>2021-07-18T05:05:03.000Z</time>
      </trkpt>
      <trkpt lat="45.22862" lon="5.73426">
        <ele>728.40002441406</ele>
        <time>2021-07-18T05:05:05.000Z</time>
      </trkpt>
      <trkpt lat="45.22861" lon="5.73426">
        <ele>728.40002441406</ele>
        <time>2021-07-18T05:05:06.000Z</time>
      </trkpt>
      <trkpt lat="45.2286" lon="5.73427">
        <ele>728.59997558594</ele>
        <time>2021-07-18T05:05:08.000Z</time>
      </trkpt>
      <trkpt lat="45.22857" lon="5.7343">
        <ele>728.79998779297</ele>
        <time>2021-07-18T05:05:10.000Z</time>
      </trkpt>
      <trkpt lat="45.22856" lon="5.73432">
        <ele>729.20001220703</ele>
        <time>2021-07-18T05:05:13.000Z</time>
      </trkpt>
      <trkpt lat="45.22852" lon="5.73431">
        <ele>729.40002441406</ele>
        <time>2021-07-18T05:05:16.000Z</time>
      </trkpt>
      <trkpt lat="45.2285" lon="5.73431">
        <ele>729.40002441406</ele>
        <time>2021-07-18T05:05:17.000Z</time>
      </trkpt>
      <trkpt lat="45.22849" lon="5.73431">
        <ele>729.40002441406</ele>
        <time>2021-07-18T05:05:18.000Z</time>
      </trkpt>
      <trkpt lat="45.22844" lon="5.73431">
        <ele>729.79998779297</ele>
        <time>2021-07-18T05:05:20.000Z</time>
      </trkpt>
      <trkpt lat="45.22842" lon="5.7343">
        <ele>730</ele>
        <time>2021-07-18T05:05:21.000Z</time>
      </trkpt>
      <trkpt lat="45.2284" lon="5.73429">
        <ele>730.40002441406</ele>
        <time>2021-07-18T05:05:22.000Z</time>
      </trkpt>
      <trkpt lat="45.22837" lon="5.73428">
        <ele>730.40002441406</ele>
        <time>2021-07-18T05:05:25.000Z</time>
      </trkpt>
      <trkpt lat="45.22836" lon="5.73428">
        <ele>730.40002441406</ele>
        <time>2021-07-18T05:05:26.000Z</time>
      </trkpt>
      <trkpt lat="45.22836" lon="5.73427">
        <ele>730.59997558594</ele>
        <time>2021-07-18T05:05:27.000Z</time>
      </trkpt>
      <trkpt lat="45.22833" lon="5.73427">
        <ele>731.20001220703</ele>
        <time>2021-07-18T05:05:30.000Z</time>
      </trkpt>
      <trkpt lat="45.2283" lon="5.73427">
        <ele>731.40002441406</ele>
        <time>2021-07-18T05:05:32.000Z</time>
      </trkpt>
      <trkpt lat="45.22829" lon="5.73427">
        <ele>731.59997558594</ele>
        <time>2021-07-18T05:05:33.000Z</time>
      </trkpt>
      <trkpt lat="45.22827" lon="5.73428">
        <ele>732.20001220703</ele>
        <time>2021-07-18T05:05:35.000Z</time>
      </trkpt>
      <trkpt lat="45.22824" lon="5.73428">
        <ele>732.59997558594</ele>
        <time>2021-07-18T05:05:37.000Z</time>
      </trkpt>
      <trkpt lat="45.2282" lon="5.73428">
        <ele>732.79998779297</ele>
        <time>2021-07-18T05:05:39.000Z</time>
      </trkpt>
      <trkpt lat="45.22814" lon="5.73427">
        <ele>732.79998779297</ele>
        <time>2021-07-18T05:05:42.000Z</time>
      </trkpt>
      <trkpt lat="45.22813" lon="5.73427">
        <ele>733.20001220703</ele>
        <time>2021-07-18T05:05:43.000Z</time>
      </trkpt>
      <trkpt lat="45.22812" lon="5.73426">
        <ele>733.20001220703</ele>
        <time>2021-07-18T05:05:44.000Z</time>
      </trkpt>
      <trkpt lat="45.22806" lon="5.73425">
        <ele>733.59997558594</ele>
        <time>2021-07-18T05:05:48.000Z</time>
      </trkpt>
      <trkpt lat="45.22805" lon="5.73425">
        <ele>734</ele>
        <time>2021-07-18T05:05:49.000Z</time>
      </trkpt>
      <trkpt lat="45.22803" lon="5.73425">
        <ele>734</ele>
        <time>2021-07-18T05:05:50.000Z</time>
      </trkpt>
      <trkpt lat="45.228" lon="5.73425">
        <ele>734.79998779297</ele>
        <time>2021-07-18T05:05:53.000Z</time>
      </trkpt>
      <trkpt lat="45.22794" lon="5.73421">
        <ele>735</ele>
        <time>2021-07-18T05:05:57.000Z</time>
      </trkpt>
      <trkpt lat="45.22793" lon="5.7342">
        <ele>735</ele>
        <time>2021-07-18T05:05:58.000Z</time>
      </trkpt>
      <trkpt lat="45.2279" lon="5.7342">
        <ele>735.59997558594</ele>
        <time>2021-07-18T05:06:01.000Z</time>
      </trkpt>
      <trkpt lat="45.22788" lon="5.73419">
        <ele>736</ele>
        <time>2021-07-18T05:06:04.000Z</time>
      </trkpt>
      <trkpt lat="45.22786" lon="5.73419">
        <ele>736.59997558594</ele>
        <time>2021-07-18T05:06:05.000Z</time>
      </trkpt>
      <trkpt lat="45.22785" lon="5.73419">
        <ele>736.59997558594</ele>
        <time>2021-07-18T05:06:06.000Z</time>
      </trkpt>
      <trkpt lat="45.22781" lon="5.73419">
        <ele>736.79998779297</ele>
        <time>2021-07-18T05:06:09.000Z</time>
      </trkpt>
      <trkpt lat="45.22778" lon="5.73419">
        <ele>737</ele>
        <time>2021-07-18T05:06:11.000Z</time>
      </trkpt>
      <trkpt lat="45.22771" lon="5.73417">
        <ele>738.20001220703</ele>
        <time>2021-07-18T05:06:16.000Z</time>
      </trkpt>
      <trkpt lat="45.2277" lon="5.73416">
        <ele>738.20001220703</ele>
        <time>2021-07-18T05:06:17.000Z</time>
      </trkpt>
      <trkpt lat="45.22769" lon="5.73416">
        <ele>738.40002441406</ele>
        <time>2021-07-18T05:06:18.000Z</time>
      </trkpt>
      <trkpt lat="45.22768" lon="5.73416">
        <ele>738.79998779297</ele>
        <time>2021-07-18T05:06:19.000Z</time>
      </trkpt>
      <trkpt lat="45.22766" lon="5.73415">
        <ele>738.79998779297</ele>
        <time>2021-07-18T05:06:21.000Z</time>
      </trkpt>
      <trkpt lat="45.22765" lon="5.73414">
        <ele>739.20001220703</ele>
        <time>2021-07-18T05:06:22.000Z</time>
      </trkpt>
      <trkpt lat="45.22762" lon="5.73414">
        <ele>739.40002441406</ele>
        <time>2021-07-18T05:06:24.000Z</time>
      </trkpt>
      <trkpt lat="45.22758" lon="5.73413">
        <ele>739.79998779297</ele>
        <time>2021-07-18T05:06:26.000Z</time>
      </trkpt>
      <trkpt lat="45.22757" lon="5.73412">
        <ele>739.79998779297</ele>
        <time>2021-07-18T05:06:27.000Z</time>
      </trkpt>
      <trkpt lat="45.22755" lon="5.73411">
        <ele>740</ele>
        <time>2021-07-18T05:06:28.000Z</time>
      </trkpt>
      <trkpt lat="45.22753" lon="5.73409">
        <ele>740.59997558594</ele>
        <time>2021-07-18T05:06:30.000Z</time>
      </trkpt>
      <trkpt lat="45.22745" lon="5.73407">
        <ele>740.79998779297</ele>
        <time>2021-07-18T05:06:34.000Z</time>
      </trkpt>
      <trkpt lat="45.22741" lon="5.73405">
        <ele>742</ele>
        <time>2021-07-18T05:06:37.000Z</time>
      </trkpt>
      <trkpt lat="45.22739" lon="5.73404">
        <ele>742</ele>
        <time>2021-07-18T05:06:39.000Z</time>
      </trkpt>
      <trkpt lat="45.22731" lon="5.73401">
        <ele>742.59997558594</ele>
        <time>2021-07-18T05:06:45.000Z</time>
      </trkpt>
      <trkpt lat="45.2273" lon="5.73399">
        <ele>742.79998779297</ele>
        <time>2021-07-18T05:06:47.000Z</time>
      </trkpt>
      <trkpt lat="45.22729" lon="5.73398">
        <ele>743.40002441406</ele>
        <time>2021-07-18T05:06:48.000Z</time>
      </trkpt>
      <trkpt lat="45.22726" lon="5.73396">
        <ele>744</ele>
        <time>2021-07-18T05:06:50.000Z</time>
      </trkpt>
      <trkpt lat="45.22721" lon="5.73395">
        <ele>744.40002441406</ele>
        <time>2021-07-18T05:06:52.000Z</time>
      </trkpt>
      <trkpt lat="45.22719" lon="5.73394">
        <ele>744.40002441406</ele>
        <time>2021-07-18T05:06:53.000Z</time>
      </trkpt>
      <trkpt lat="45.22707" lon="5.73392">
        <ele>745.20001220703</ele>
        <time>2021-07-18T05:06:58.000Z</time>
      </trkpt>
      <trkpt lat="45.22705" lon="5.73391">
        <ele>745.20001220703</ele>
        <time>2021-07-18T05:07:00.000Z</time>
      </trkpt>
      <trkpt lat="45.22704" lon="5.73391">
        <ele>745.40002441406</ele>
        <time>2021-07-18T05:07:01.000Z</time>
      </trkpt>
      <trkpt lat="45.22703" lon="5.7339">
        <ele>746</ele>
        <time>2021-07-18T05:07:02.000Z</time>
      </trkpt>
      <trkpt lat="45.227" lon="5.73389">
        <ele>746.40002441406</ele>
        <time>2021-07-18T05:07:05.000Z</time>
      </trkpt>
      <trkpt lat="45.22699" lon="5.73389">
        <ele>746.59997558594</ele>
        <time>2021-07-18T05:07:06.000Z</time>
      </trkpt>
      <trkpt lat="45.22696" lon="5.73389">
        <ele>747</ele>
        <time>2021-07-18T05:07:08.000Z</time>
      </trkpt>
      <trkpt lat="45.22694" lon="5.73388">
        <ele>747.59997558594</ele>
        <time>2021-07-18T05:07:10.000Z</time>
      </trkpt>
      <trkpt lat="45.22691" lon="5.73388">
        <ele>748.20001220703</ele>
        <time>2021-07-18T05:07:13.000Z</time>
      </trkpt>
      <trkpt lat="45.22689" lon="5.73388">
        <ele>748.40002441406</ele>
        <time>2021-07-18T05:07:14.000Z</time>
      </trkpt>
      <trkpt lat="45.22687" lon="5.73387">
        <ele>748.79998779297</ele>
        <time>2021-07-18T05:07:16.000Z</time>
      </trkpt>
      <trkpt lat="45.22685" lon="5.73387">
        <ele>749.20001220703</ele>
        <time>2021-07-18T05:07:18.000Z</time>
      </trkpt>
      <trkpt lat="45.22683" lon="5.73387">
        <ele>749.59997558594</ele>
        <time>2021-07-18T05:07:19.000Z</time>
      </trkpt>
      <trkpt lat="45.2268" lon="5.73389">
        <ele>749.79998779297</ele>
        <time>2021-07-18T05:07:21.000Z</time>
      </trkpt>
      <trkpt lat="45.22678" lon="5.73389">
        <ele>749.79998779297</ele>
        <time>2021-07-18T05:07:22.000Z</time>
      </trkpt>
      <trkpt lat="45.22677" lon="5.73389">
        <ele>750.79998779297</ele>
        <time>2021-07-18T05:07:24.000Z</time>
      </trkpt>
      <trkpt lat="45.22676" lon="5.73386">
        <ele>751.20001220703</ele>
        <time>2021-07-18T05:07:28.000Z</time>
      </trkpt>
      <trkpt lat="45.22675" lon="5.73384">
        <ele>752</ele>
        <time>2021-07-18T05:07:29.000Z</time>
      </trkpt>
      <trkpt lat="45.22675" lon="5.73384">
        <ele>752.20001220703</ele>
        <time>2021-07-18T05:07:30.000Z</time>
      </trkpt>
      <trkpt lat="45.22673" lon="5.73384">
        <ele>752.59997558594</ele>
        <time>2021-07-18T05:07:32.000Z</time>
      </trkpt>
      <trkpt lat="45.22672" lon="5.73384">
        <ele>752.79998779297</ele>
        <time>2021-07-18T05:07:33.000Z</time>
      </trkpt>
      <trkpt lat="45.22671" lon="5.73382">
        <ele>753.59997558594</ele>
        <time>2021-07-18T05:07:35.000Z</time>
      </trkpt>
      <trkpt lat="45.22669" lon="5.73382">
        <ele>754</ele>
        <time>2021-07-18T05:07:38.000Z</time>
      </trkpt>
      <trkpt lat="45.22667" lon="5.73382">
        <ele>754.20001220703</ele>
        <time>2021-07-18T05:07:39.000Z</time>
      </trkpt>
      <trkpt lat="45.22664" lon="5.73382">
        <ele>754.59997558594</ele>
        <time>2021-07-18T05:07:41.000Z</time>
      </trkpt>
      <trkpt lat="45.22658" lon="5.73381">
        <ele>755.59997558594</ele>
        <time>2021-07-18T05:07:45.000Z</time>
      </trkpt>
      <trkpt lat="45.22657" lon="5.7338">
        <ele>755.59997558594</ele>
        <time>2021-07-18T05:07:46.000Z</time>
      </trkpt>
      <trkpt lat="45.22656" lon="5.7338">
        <ele>756.20001220703</ele>
        <time>2021-07-18T05:07:47.000Z</time>
      </trkpt>
      <trkpt lat="45.22655" lon="5.73379">
        <ele>756.40002441406</ele>
        <time>2021-07-18T05:07:48.000Z</time>
      </trkpt>
      <trkpt lat="45.22651" lon="5.7338">
        <ele>757.20001220703</ele>
        <time>2021-07-18T05:07:51.000Z</time>
      </trkpt>
      <trkpt lat="45.2265" lon="5.7338">
        <ele>757.40002441406</ele>
        <time>2021-07-18T05:07:52.000Z</time>
      </trkpt>
      <trkpt lat="45.22648" lon="5.73378">
        <ele>758</ele>
        <time>2021-07-18T05:07:55.000Z</time>
      </trkpt>
      <trkpt lat="45.22645" lon="5.73377">
        <ele>758.59997558594</ele>
        <time>2021-07-18T05:07:58.000Z</time>
      </trkpt>
      <trkpt lat="45.22644" lon="5.73378">
        <ele>758.59997558594</ele>
        <time>2021-07-18T05:07:59.000Z</time>
      </trkpt>
      <trkpt lat="45.22641" lon="5.73377">
        <ele>759</ele>
        <time>2021-07-18T05:08:01.000Z</time>
      </trkpt>
      <trkpt lat="45.2264" lon="5.73377">
        <ele>759</ele>
        <time>2021-07-18T05:08:02.000Z</time>
      </trkpt>
      <trkpt lat="45.22638" lon="5.73375">
        <ele>759.79998779297</ele>
        <time>2021-07-18T05:08:04.000Z</time>
      </trkpt>
      <trkpt lat="45.22637" lon="5.73375">
        <ele>760</ele>
        <time>2021-07-18T05:08:05.000Z</time>
      </trkpt>
      <trkpt lat="45.22634" lon="5.73374">
        <ele>760.20001220703</ele>
        <time>2021-07-18T05:08:07.000Z</time>
      </trkpt>
      <trkpt lat="45.22632" lon="5.73375">
        <ele>760.40002441406</ele>
        <time>2021-07-18T05:08:09.000Z</time>
      </trkpt>
      <trkpt lat="45.2263" lon="5.73375">
        <ele>760.79998779297</ele>
        <time>2021-07-18T05:08:11.000Z</time>
      </trkpt>
      <trkpt lat="45.22629" lon="5.73375">
        <ele>761.40002441406</ele>
        <time>2021-07-18T05:08:12.000Z</time>
      </trkpt>
      <trkpt lat="45.22629" lon="5.73375">
        <ele>761.79998779297</ele>
        <time>2021-07-18T05:08:13.000Z</time>
      </trkpt>
      <trkpt lat="45.22628" lon="5.73377">
        <ele>762.40002441406</ele>
        <time>2021-07-18T05:08:17.000Z</time>
      </trkpt>
      <trkpt lat="45.22628" lon="5.73377">
        <ele>762.59997558594</ele>
        <time>2021-07-18T05:08:18.000Z</time>
      </trkpt>
      <trkpt lat="45.22628" lon="5.73377">
        <ele>763.59997558594</ele>
        <time>2021-07-18T05:08:20.000Z</time>
      </trkpt>
      <trkpt lat="45.22627" lon="5.73377">
        <ele>763.79998779297</ele>
        <time>2021-07-18T05:08:21.000Z</time>
      </trkpt>
      <trkpt lat="45.22624" lon="5.73378">
        <ele>764.20001220703</ele>
        <time>2021-07-18T05:08:23.000Z</time>
      </trkpt>
      <trkpt lat="45.22622" lon="5.7338">
        <ele>764.59997558594</ele>
        <time>2021-07-18T05:08:25.000Z</time>
      </trkpt>
      <trkpt lat="45.2262" lon="5.73381">
        <ele>765.20001220703</ele>
        <time>2021-07-18T05:08:26.000Z</time>
      </trkpt>
      <trkpt lat="45.22618" lon="5.73382">
        <ele>765.40002441406</ele>
        <time>2021-07-18T05:08:28.000Z</time>
      </trkpt>
      <trkpt lat="45.22616" lon="5.73383">
        <ele>765.79998779297</ele>
        <time>2021-07-18T05:08:30.000Z</time>
      </trkpt>
      <trkpt lat="45.22615" lon="5.73382">
        <ele>766</ele>
        <time>2021-07-18T05:08:32.000Z</time>
      </trkpt>
      <trkpt lat="45.22614" lon="5.73382">
        <ele>766.20001220703</ele>
        <time>2021-07-18T05:08:33.000Z</time>
      </trkpt>
      <trkpt lat="45.22613" lon="5.73382">
        <ele>766.40002441406</ele>
        <time>2021-07-18T05:08:34.000Z</time>
      </trkpt>
      <trkpt lat="45.22609" lon="5.73384">
        <ele>766.79998779297</ele>
        <time>2021-07-18T05:08:37.000Z</time>
      </trkpt>
      <trkpt lat="45.22608" lon="5.73384">
        <ele>767</ele>
        <time>2021-07-18T05:08:38.000Z</time>
      </trkpt>
      <trkpt lat="45.22606" lon="5.73384">
        <ele>767.40002441406</ele>
        <time>2021-07-18T05:08:40.000Z</time>
      </trkpt>
      <trkpt lat="45.22604" lon="5.73384">
        <ele>768</ele>
        <time>2021-07-18T05:08:42.000Z</time>
      </trkpt>
      <trkpt lat="45.22601" lon="5.73385">
        <ele>768.20001220703</ele>
        <time>2021-07-18T05:08:44.000Z</time>
      </trkpt>
      <trkpt lat="45.22599" lon="5.73387">
        <ele>768.20001220703</ele>
        <time>2021-07-18T05:08:45.000Z</time>
      </trkpt>
      <trkpt lat="45.22598" lon="5.73387">
        <ele>768.59997558594</ele>
        <time>2021-07-18T05:08:46.000Z</time>
      </trkpt>
      <trkpt lat="45.22597" lon="5.73386">
        <ele>769</ele>
        <time>2021-07-18T05:08:48.000Z</time>
      </trkpt>
      <trkpt lat="45.22596" lon="5.73386">
        <ele>769.59997558594</ele>
        <time>2021-07-18T05:08:50.000Z</time>
      </trkpt>
      <trkpt lat="45.22595" lon="5.73387">
        <ele>769.59997558594</ele>
        <time>2021-07-18T05:08:51.000Z</time>
      </trkpt>
      <trkpt lat="45.22594" lon="5.73387">
        <ele>769.79998779297</ele>
        <time>2021-07-18T05:08:53.000Z</time>
      </trkpt>
      <trkpt lat="45.22591" lon="5.73388">
        <ele>770.59997558594</ele>
        <time>2021-07-18T05:08:56.000Z</time>
      </trkpt>
      <trkpt lat="45.2259" lon="5.73389">
        <ele>771</ele>
        <time>2021-07-18T05:08:57.000Z</time>
      </trkpt>
      <trkpt lat="45.22589" lon="5.73389">
        <ele>771.20001220703</ele>
        <time>2021-07-18T05:08:58.000Z</time>
      </trkpt>
      <trkpt lat="45.22583" lon="5.73393">
        <ele>772</ele>
        <time>2021-07-18T05:09:02.000Z</time>
      </trkpt>
      <trkpt lat="45.2258" lon="5.73393">
        <ele>772.40002441406</ele>
        <time>2021-07-18T05:09:04.000Z</time>
      </trkpt>
      <trkpt lat="45.22575" lon="5.73392">
        <ele>773</ele>
        <time>2021-07-18T05:09:08.000Z</time>
      </trkpt>
      <trkpt lat="45.22575" lon="5.73392">
        <ele>773.59997558594</ele>
        <time>2021-07-18T05:09:09.000Z</time>
      </trkpt>
      <trkpt lat="45.22572" lon="5.73393">
        <ele>774.40002441406</ele>
        <time>2021-07-18T05:09:13.000Z</time>
      </trkpt>
      <trkpt lat="45.2257" lon="5.73393">
        <ele>775</ele>
        <time>2021-07-18T05:09:16.000Z</time>
      </trkpt>
      <trkpt lat="45.22569" lon="5.73393">
        <ele>775.40002441406</ele>
        <time>2021-07-18T05:09:17.000Z</time>
      </trkpt>
      <trkpt lat="45.22566" lon="5.73393">
        <ele>776.20001220703</ele>
        <time>2021-07-18T05:09:20.000Z</time>
      </trkpt>
      <trkpt lat="45.22566" lon="5.73394">
        <ele>776.20001220703</ele>
        <time>2021-07-18T05:09:21.000Z</time>
      </trkpt>
      <trkpt lat="45.22562" lon="5.73396">
        <ele>776.59997558594</ele>
        <time>2021-07-18T05:09:23.000Z</time>
      </trkpt>
      <trkpt lat="45.22561" lon="5.73397">
        <ele>777.20001220703</ele>
        <time>2021-07-18T05:09:25.000Z</time>
      </trkpt>
      <trkpt lat="45.2256" lon="5.73396">
        <ele>777.20001220703</ele>
        <time>2021-07-18T05:09:26.000Z</time>
      </trkpt>
      <trkpt lat="45.22559" lon="5.73395">
        <ele>777.79998779297</ele>
        <time>2021-07-18T05:09:29.000Z</time>
      </trkpt>
      <trkpt lat="45.22558" lon="5.73394">
        <ele>777.79998779297</ele>
        <time>2021-07-18T05:09:30.000Z</time>
      </trkpt>
      <trkpt lat="45.22554" lon="5.73393">
        <ele>778.40002441406</ele>
        <time>2021-07-18T05:09:33.000Z</time>
      </trkpt>
      <trkpt lat="45.22551" lon="5.73393">
        <ele>779</ele>
        <time>2021-07-18T05:09:35.000Z</time>
      </trkpt>
      <trkpt lat="45.22549" lon="5.73393">
        <ele>779.40002441406</ele>
        <time>2021-07-18T05:09:36.000Z</time>
      </trkpt>
      <trkpt lat="45.22548" lon="5.73394">
        <ele>779.40002441406</ele>
        <time>2021-07-18T05:09:37.000Z</time>
      </trkpt>
      <trkpt lat="45.22547" lon="5.73394">
        <ele>779.59997558594</ele>
        <time>2021-07-18T05:09:38.000Z</time>
      </trkpt>
      <trkpt lat="45.22546" lon="5.73394">
        <ele>779.79998779297</ele>
        <time>2021-07-18T05:09:39.000Z</time>
      </trkpt>
      <trkpt lat="45.22544" lon="5.73393">
        <ele>780.40002441406</ele>
        <time>2021-07-18T05:09:42.000Z</time>
      </trkpt>
      <trkpt lat="45.22543" lon="5.73393">
        <ele>781</ele>
        <time>2021-07-18T05:09:43.000Z</time>
      </trkpt>
      <trkpt lat="45.22539" lon="5.73394">
        <ele>782</ele>
        <time>2021-07-18T05:09:47.000Z</time>
      </trkpt>
      <trkpt lat="45.22537" lon="5.73394">
        <ele>782.40002441406</ele>
        <time>2021-07-18T05:09:48.000Z</time>
      </trkpt>
      <trkpt lat="45.22534" lon="5.73397">
        <ele>782.59997558594</ele>
        <time>2021-07-18T05:09:50.000Z</time>
      </trkpt>
      <trkpt lat="45.22529" lon="5.734">
        <ele>783.20001220703</ele>
        <time>2021-07-18T05:09:52.000Z</time>
      </trkpt>
      <trkpt lat="45.22524" lon="5.73402">
        <ele>784.59997558594</ele>
        <time>2021-07-18T05:09:56.000Z</time>
      </trkpt>
      <trkpt lat="45.22524" lon="5.73402">
        <ele>784.79998779297</ele>
        <time>2021-07-18T05:09:57.000Z</time>
      </trkpt>
      <trkpt lat="45.22522" lon="5.73402">
        <ele>785.20001220703</ele>
        <time>2021-07-18T05:10:00.000Z</time>
      </trkpt>
      <trkpt lat="45.22521" lon="5.73402">
        <ele>786</ele>
        <time>2021-07-18T05:10:01.000Z</time>
      </trkpt>
      <trkpt lat="45.2252" lon="5.73402">
        <ele>786.40002441406</ele>
        <time>2021-07-18T05:10:03.000Z</time>
      </trkpt>
      <trkpt lat="45.22517" lon="5.73403">
        <ele>787</ele>
        <time>2021-07-18T05:10:05.000Z</time>
      </trkpt>
      <trkpt lat="45.22516" lon="5.73404">
        <ele>787.20001220703</ele>
        <time>2021-07-18T05:10:06.000Z</time>
      </trkpt>
      <trkpt lat="45.22515" lon="5.73405">
        <ele>787.59997558594</ele>
        <time>2021-07-18T05:10:08.000Z</time>
      </trkpt>
      <trkpt lat="45.22513" lon="5.73407">
        <ele>787.79998779297</ele>
        <time>2021-07-18T05:10:09.000Z</time>
      </trkpt>
      <trkpt lat="45.22512" lon="5.73408">
        <ele>788</ele>
        <time>2021-07-18T05:10:10.000Z</time>
      </trkpt>
      <trkpt lat="45.22511" lon="5.73409">
        <ele>788.40002441406</ele>
        <time>2021-07-18T05:10:11.000Z</time>
      </trkpt>
      <trkpt lat="45.2251" lon="5.73409">
        <ele>788.79998779297</ele>
        <time>2021-07-18T05:10:13.000Z</time>
      </trkpt>
      <trkpt lat="45.2251" lon="5.73409">
        <ele>789</ele>
        <time>2021-07-18T05:10:14.000Z</time>
      </trkpt>
      <trkpt lat="45.2251" lon="5.7341">
        <ele>789.79998779297</ele>
        <time>2021-07-18T05:10:16.000Z</time>
      </trkpt>
      <trkpt lat="45.22509" lon="5.7341">
        <ele>790.40002441406</ele>
        <time>2021-07-18T05:10:19.000Z</time>
      </trkpt>
      <trkpt lat="45.22508" lon="5.7341">
        <ele>790.59997558594</ele>
        <time>2021-07-18T05:10:20.000Z</time>
      </trkpt>
      <trkpt lat="45.22506" lon="5.7341">
        <ele>790.79998779297</ele>
        <time>2021-07-18T05:10:22.000Z</time>
      </trkpt>
      <trkpt lat="45.22504" lon="5.73412">
        <ele>791.79998779297</ele>
        <time>2021-07-18T05:10:25.000Z</time>
      </trkpt>
      <trkpt lat="45.22503" lon="5.73413">
        <ele>792.20001220703</ele>
        <time>2021-07-18T05:10:27.000Z</time>
      </trkpt>
      <trkpt lat="45.22501" lon="5.73414">
        <ele>792.59997558594</ele>
        <time>2021-07-18T05:10:29.000Z</time>
      </trkpt>
      <trkpt lat="45.22501" lon="5.73415">
        <ele>793</ele>
        <time>2021-07-18T05:10:30.000Z</time>
      </trkpt>
      <trkpt lat="45.225" lon="5.73415">
        <ele>793.40002441406</ele>
        <time>2021-07-18T05:10:31.000Z</time>
      </trkpt>
      <trkpt lat="45.22499" lon="5.73417">
        <ele>793.79998779297</ele>
        <time>2021-07-18T05:10:33.000Z</time>
      </trkpt>
      <trkpt lat="45.22498" lon="5.73418">
        <ele>793.79998779297</ele>
        <time>2021-07-18T05:10:34.000Z</time>
      </trkpt>
      <trkpt lat="45.22496" lon="5.73419">
        <ele>794.59997558594</ele>
        <time>2021-07-18T05:10:36.000Z</time>
      </trkpt>
      <trkpt lat="45.22495" lon="5.7342">
        <ele>795</ele>
        <time>2021-07-18T05:10:38.000Z</time>
      </trkpt>
      <trkpt lat="45.22495" lon="5.7342">
        <ele>795.20001220703</ele>
        <time>2021-07-18T05:10:39.000Z</time>
      </trkpt>
      <trkpt lat="45.22494" lon="5.73421">
        <ele>795.59997558594</ele>
        <time>2021-07-18T05:10:40.000Z</time>
      </trkpt>
      <trkpt lat="45.22494" lon="5.73422">
        <ele>796</ele>
        <time>2021-07-18T05:10:41.000Z</time>
      </trkpt>
      <trkpt lat="45.22493" lon="5.73423">
        <ele>796</ele>
        <time>2021-07-18T05:10:42.000Z</time>
      </trkpt>
      <trkpt lat="45.22492" lon="5.73425">
        <ele>796.20001220703</ele>
        <time>2021-07-18T05:10:44.000Z</time>
      </trkpt>
      <trkpt lat="45.22489" lon="5.73427">
        <ele>797.20001220703</ele>
        <time>2021-07-18T05:10:46.000Z</time>
      </trkpt>
      <trkpt lat="45.22486" lon="5.73429">
        <ele>797.79998779297</ele>
        <time>2021-07-18T05:10:48.000Z</time>
      </trkpt>
      <trkpt lat="45.22485" lon="5.73431">
        <ele>798.20001220703</ele>
        <time>2021-07-18T05:10:49.000Z</time>
      </trkpt>
      <trkpt lat="45.22482" lon="5.73433">
        <ele>799.20001220703</ele>
        <time>2021-07-18T05:10:53.000Z</time>
      </trkpt>
      <trkpt lat="45.22481" lon="5.73433">
        <ele>799.40002441406</ele>
        <time>2021-07-18T05:10:54.000Z</time>
      </trkpt>
      <trkpt lat="45.2248" lon="5.73435">
        <ele>800</ele>
        <time>2021-07-18T05:10:58.000Z</time>
      </trkpt>
      <trkpt lat="45.22479" lon="5.73435">
        <ele>800.20001220703</ele>
        <time>2021-07-18T05:10:59.000Z</time>
      </trkpt>
      <trkpt lat="45.22479" lon="5.73436">
        <ele>800.79998779297</ele>
        <time>2021-07-18T05:11:01.000Z</time>
      </trkpt>
      <trkpt lat="45.22477" lon="5.73438">
        <ele>801.79998779297</ele>
        <time>2021-07-18T05:11:03.000Z</time>
      </trkpt>
      <trkpt lat="45.22474" lon="5.73441">
        <ele>803</ele>
        <time>2021-07-18T05:11:08.000Z</time>
      </trkpt>
      <trkpt lat="45.22473" lon="5.73442">
        <ele>803.20001220703</ele>
        <time>2021-07-18T05:11:09.000Z</time>
      </trkpt>
      <trkpt lat="45.22471" lon="5.73444">
        <ele>804</ele>
        <time>2021-07-18T05:11:13.000Z</time>
      </trkpt>
      <trkpt lat="45.22469" lon="5.73446">
        <ele>805</ele>
        <time>2021-07-18T05:11:16.000Z</time>
      </trkpt>
      <trkpt lat="45.22469" lon="5.73446">
        <ele>805.40002441406</ele>
        <time>2021-07-18T05:11:17.000Z</time>
      </trkpt>
      <trkpt lat="45.22468" lon="5.73447">
        <ele>806</ele>
        <time>2021-07-18T05:11:18.000Z</time>
      </trkpt>
      <trkpt lat="45.22467" lon="5.7345">
        <ele>807</ele>
        <time>2021-07-18T05:11:23.000Z</time>
      </trkpt>
      <trkpt lat="45.22467" lon="5.73452">
        <ele>807.20001220703</ele>
        <time>2021-07-18T05:11:25.000Z</time>
      </trkpt>
      <trkpt lat="45.22466" lon="5.73453">
        <ele>807.40002441406</ele>
        <time>2021-07-18T05:11:26.000Z</time>
      </trkpt>
      <trkpt lat="45.22466" lon="5.73454">
        <ele>807.79998779297</ele>
        <time>2021-07-18T05:11:28.000Z</time>
      </trkpt>
      <trkpt lat="45.22465" lon="5.73455">
        <ele>808.20001220703</ele>
        <time>2021-07-18T05:11:29.000Z</time>
      </trkpt>
      <trkpt lat="45.22464" lon="5.73456">
        <ele>808.59997558594</ele>
        <time>2021-07-18T05:11:31.000Z</time>
      </trkpt>
      <trkpt lat="45.22464" lon="5.73457">
        <ele>809.40002441406</ele>
        <time>2021-07-18T05:11:33.000Z</time>
      </trkpt>
      <trkpt lat="45.22463" lon="5.73457">
        <ele>809.59997558594</ele>
        <time>2021-07-18T05:11:34.000Z</time>
      </trkpt>
      <trkpt lat="45.22463" lon="5.73459">
        <ele>810</ele>
        <time>2021-07-18T05:11:36.000Z</time>
      </trkpt>
      <trkpt lat="45.22462" lon="5.73461">
        <ele>810.40002441406</ele>
        <time>2021-07-18T05:11:38.000Z</time>
      </trkpt>
      <trkpt lat="45.22461" lon="5.73462">
        <ele>810.40002441406</ele>
        <time>2021-07-18T05:11:39.000Z</time>
      </trkpt>
      <trkpt lat="45.2246" lon="5.73465">
        <ele>810.79998779297</ele>
        <time>2021-07-18T05:11:41.000Z</time>
      </trkpt>
      <trkpt lat="45.22457" lon="5.73469">
        <ele>811.40002441406</ele>
        <time>2021-07-18T05:11:44.000Z</time>
      </trkpt>
      <trkpt lat="45.22452" lon="5.73474">
        <ele>812</ele>
        <time>2021-07-18T05:11:47.000Z</time>
      </trkpt>
      <trkpt lat="45.22452" lon="5.73475">
        <ele>812</ele>
        <time>2021-07-18T05:11:48.000Z</time>
      </trkpt>
      <trkpt lat="45.22451" lon="5.73477">
        <ele>812.20001220703</ele>
        <time>2021-07-18T05:11:50.000Z</time>
      </trkpt>
      <trkpt lat="45.2245" lon="5.73478">
        <ele>812.59997558594</ele>
        <time>2021-07-18T05:11:51.000Z</time>
      </trkpt>
      <trkpt lat="45.22445" lon="5.73482">
        <ele>813.59997558594</ele>
        <time>2021-07-18T05:11:56.000Z</time>
      </trkpt>
      <trkpt lat="45.22444" lon="5.73482">
        <ele>813.79998779297</ele>
        <time>2021-07-18T05:11:57.000Z</time>
      </trkpt>
      <trkpt lat="45.22444" lon="5.73483">
        <ele>814.59997558594</ele>
        <time>2021-07-18T05:11:59.000Z</time>
      </trkpt>
      <trkpt lat="45.22443" lon="5.73484">
        <ele>814.79998779297</ele>
        <time>2021-07-18T05:12:00.000Z</time>
      </trkpt>
      <trkpt lat="45.22442" lon="5.73488">
        <ele>815</ele>
        <time>2021-07-18T05:12:03.000Z</time>
      </trkpt>
      <trkpt lat="45.22443" lon="5.7349">
        <ele>815.40002441406</ele>
        <time>2021-07-18T05:12:04.000Z</time>
      </trkpt>
      <trkpt lat="45.22442" lon="5.73492">
        <ele>816</ele>
        <time>2021-07-18T05:12:06.000Z</time>
      </trkpt>
      <trkpt lat="45.22441" lon="5.73494">
        <ele>816.20001220703</ele>
        <time>2021-07-18T05:12:07.000Z</time>
      </trkpt>
      <trkpt lat="45.22439" lon="5.73495">
        <ele>816.20001220703</ele>
        <time>2021-07-18T05:12:08.000Z</time>
      </trkpt>
      <trkpt lat="45.22434" lon="5.73497">
        <ele>816.79998779297</ele>
        <time>2021-07-18T05:12:11.000Z</time>
      </trkpt>
      <trkpt lat="45.22432" lon="5.73498">
        <ele>817</ele>
        <time>2021-07-18T05:12:13.000Z</time>
      </trkpt>
      <trkpt lat="45.22431" lon="5.73499">
        <ele>818.20001220703</ele>
        <time>2021-07-18T05:12:14.000Z</time>
      </trkpt>
      <trkpt lat="45.22431" lon="5.735">
        <ele>818.20001220703</ele>
        <time>2021-07-18T05:12:15.000Z</time>
      </trkpt>
      <trkpt lat="45.22431" lon="5.735">
        <ele>818.40002441406</ele>
        <time>2021-07-18T05:12:17.000Z</time>
      </trkpt>
      <trkpt lat="45.22428" lon="5.73501">
        <ele>819</ele>
        <time>2021-07-18T05:12:20.000Z</time>
      </trkpt>
      <trkpt lat="45.22426" lon="5.73501">
        <ele>819.40002441406</ele>
        <time>2021-07-18T05:12:22.000Z</time>
      </trkpt>
      <trkpt lat="45.22425" lon="5.73502">
        <ele>820.59997558594</ele>
        <time>2021-07-18T05:12:24.000Z</time>
      </trkpt>
      <trkpt lat="45.22424" lon="5.73502">
        <ele>820.79998779297</ele>
        <time>2021-07-18T05:12:26.000Z</time>
      </trkpt>
      <trkpt lat="45.22421" lon="5.73503">
        <ele>821.59997558594</ele>
        <time>2021-07-18T05:12:29.000Z</time>
      </trkpt>
      <trkpt lat="45.22419" lon="5.73504">
        <ele>822</ele>
        <time>2021-07-18T05:12:31.000Z</time>
      </trkpt>
      <trkpt lat="45.22419" lon="5.73505">
        <ele>822</ele>
        <time>2021-07-18T05:12:32.000Z</time>
      </trkpt>
      <trkpt lat="45.22416" lon="5.73507">
        <ele>823.20001220703</ele>
        <time>2021-07-18T05:12:35.000Z</time>
      </trkpt>
      <trkpt lat="45.22415" lon="5.73508">
        <ele>823.20001220703</ele>
        <time>2021-07-18T05:12:36.000Z</time>
      </trkpt>
      <trkpt lat="45.22411" lon="5.73511">
        <ele>823.40002441406</ele>
        <time>2021-07-18T05:12:38.000Z</time>
      </trkpt>
      <trkpt lat="45.22408" lon="5.73512">
        <ele>824</ele>
        <time>2021-07-18T05:12:40.000Z</time>
      </trkpt>
      <trkpt lat="45.22406" lon="5.73513">
        <ele>824.20001220703</ele>
        <time>2021-07-18T05:12:42.000Z</time>
      </trkpt>
      <trkpt lat="45.22405" lon="5.73514">
        <ele>824.20001220703</ele>
        <time>2021-07-18T05:12:43.000Z</time>
      </trkpt>
      <trkpt lat="45.22404" lon="5.73514">
        <ele>824.40002441406</ele>
        <time>2021-07-18T05:12:44.000Z</time>
      </trkpt>
      <trkpt lat="45.22402" lon="5.73517">
        <ele>825.59997558594</ele>
        <time>2021-07-18T05:12:47.000Z</time>
      </trkpt>
      <trkpt lat="45.224" lon="5.73519">
        <ele>826.20001220703</ele>
        <time>2021-07-18T05:12:50.000Z</time>
      </trkpt>
      <trkpt lat="45.22398" lon="5.73521">
        <ele>826.40002441406</ele>
        <time>2021-07-18T05:12:53.000Z</time>
      </trkpt>
      <trkpt lat="45.22397" lon="5.73522">
        <ele>826.59997558594</ele>
        <time>2021-07-18T05:12:54.000Z</time>
      </trkpt>
      <trkpt lat="45.22396" lon="5.73523">
        <ele>827</ele>
        <time>2021-07-18T05:12:55.000Z</time>
      </trkpt>
      <trkpt lat="45.22393" lon="5.73528">
        <ele>828.20001220703</ele>
        <time>2021-07-18T05:12:59.000Z</time>
      </trkpt>
      <trkpt lat="45.22392" lon="5.7353">
        <ele>828.79998779297</ele>
        <time>2021-07-18T05:13:02.000Z</time>
      </trkpt>
      <trkpt lat="45.22391" lon="5.73533">
        <ele>829.40002441406</ele>
        <time>2021-07-18T05:13:05.000Z</time>
      </trkpt>
      <trkpt lat="45.2239" lon="5.73535">
        <ele>830.40002441406</ele>
        <time>2021-07-18T05:13:08.000Z</time>
      </trkpt>
      <trkpt lat="45.22389" lon="5.73535">
        <ele>831</ele>
        <time>2021-07-18T05:13:09.000Z</time>
      </trkpt>
      <trkpt lat="45.22388" lon="5.73536">
        <ele>831.59997558594</ele>
        <time>2021-07-18T05:13:11.000Z</time>
      </trkpt>
      <trkpt lat="45.22387" lon="5.73539">
        <ele>831.59997558594</ele>
        <time>2021-07-18T05:13:13.000Z</time>
      </trkpt>
      <trkpt lat="45.22387" lon="5.7354">
        <ele>832.59997558594</ele>
        <time>2021-07-18T05:13:15.000Z</time>
      </trkpt>
      <trkpt lat="45.22386" lon="5.73543">
        <ele>833.20001220703</ele>
        <time>2021-07-18T05:13:17.000Z</time>
      </trkpt>
      <trkpt lat="45.22385" lon="5.73546">
        <ele>834.20001220703</ele>
        <time>2021-07-18T05:13:20.000Z</time>
      </trkpt>
      <trkpt lat="45.22384" lon="5.73547">
        <ele>834.59997558594</ele>
        <time>2021-07-18T05:13:21.000Z</time>
      </trkpt>
      <trkpt lat="45.22384" lon="5.73548">
        <ele>834.79998779297</ele>
        <time>2021-07-18T05:13:23.000Z</time>
      </trkpt>
      <trkpt lat="45.22384" lon="5.73551">
        <ele>835</ele>
        <time>2021-07-18T05:13:25.000Z</time>
      </trkpt>
      <trkpt lat="45.22383" lon="5.73552">
        <ele>836</ele>
        <time>2021-07-18T05:13:26.000Z</time>
      </trkpt>
      <trkpt lat="45.22383" lon="5.73554">
        <ele>836.79998779297</ele>
        <time>2021-07-18T05:13:30.000Z</time>
      </trkpt>
      <trkpt lat="45.22382" lon="5.73554">
        <ele>837.20001220703</ele>
        <time>2021-07-18T05:13:31.000Z</time>
      </trkpt>
      <trkpt lat="45.22382" lon="5.73555">
        <ele>837.40002441406</ele>
        <time>2021-07-18T05:13:32.000Z</time>
      </trkpt>
      <trkpt lat="45.22383" lon="5.73559">
        <ele>838.40002441406</ele>
        <time>2021-07-18T05:13:36.000Z</time>
      </trkpt>
      <trkpt lat="45.22382" lon="5.73561">
        <ele>839.40002441406</ele>
        <time>2021-07-18T05:13:39.000Z</time>
      </trkpt>
      <trkpt lat="45.22381" lon="5.73562">
        <ele>839.40002441406</ele>
        <time>2021-07-18T05:13:40.000Z</time>
      </trkpt>
      <trkpt lat="45.22382" lon="5.73563">
        <ele>840</ele>
        <time>2021-07-18T05:13:42.000Z</time>
      </trkpt>
      <trkpt lat="45.22381" lon="5.73565">
        <ele>840.59997558594</ele>
        <time>2021-07-18T05:13:44.000Z</time>
      </trkpt>
      <trkpt lat="45.22381" lon="5.73566">
        <ele>840.79998779297</ele>
        <time>2021-07-18T05:13:45.000Z</time>
      </trkpt>
      <trkpt lat="45.22381" lon="5.73566">
        <ele>841.20001220703</ele>
        <time>2021-07-18T05:13:46.000Z</time>
      </trkpt>
      <trkpt lat="45.22381" lon="5.73567">
        <ele>841.79998779297</ele>
        <time>2021-07-18T05:13:48.000Z</time>
      </trkpt>
      <trkpt lat="45.22381" lon="5.73568">
        <ele>841.79998779297</ele>
        <time>2021-07-18T05:13:49.000Z</time>
      </trkpt>
      <trkpt lat="45.22383" lon="5.7357">
        <ele>842.59997558594</ele>
        <time>2021-07-18T05:13:52.000Z</time>
      </trkpt>
      <trkpt lat="45.22383" lon="5.73571">
        <ele>842.79998779297</ele>
        <time>2021-07-18T05:13:53.000Z</time>
      </trkpt>
      <trkpt lat="45.22382" lon="5.73573">
        <ele>844</ele>
        <time>2021-07-18T05:13:56.000Z</time>
      </trkpt>
      <trkpt lat="45.22382" lon="5.73575">
        <ele>844.20001220703</ele>
        <time>2021-07-18T05:13:58.000Z</time>
      </trkpt>
      <trkpt lat="45.22382" lon="5.73578">
        <ele>845.20001220703</ele>
        <time>2021-07-18T05:14:02.000Z</time>
      </trkpt>
      <trkpt lat="45.22381" lon="5.7358">
        <ele>846</ele>
        <time>2021-07-18T05:14:04.000Z</time>
      </trkpt>
      <trkpt lat="45.22381" lon="5.73582">
        <ele>846.40002441406</ele>
        <time>2021-07-18T05:14:05.000Z</time>
      </trkpt>
      <trkpt lat="45.22381" lon="5.73587">
        <ele>847.40002441406</ele>
        <time>2021-07-18T05:14:09.000Z</time>
      </trkpt>
      <trkpt lat="45.22381" lon="5.73591">
        <ele>847.79998779297</ele>
        <time>2021-07-18T05:14:12.000Z</time>
      </trkpt>
      <trkpt lat="45.22382" lon="5.73592">
        <ele>848.59997558594</ele>
        <time>2021-07-18T05:14:14.000Z</time>
      </trkpt>
      <trkpt lat="45.22381" lon="5.73597">
        <ele>849.40002441406</ele>
        <time>2021-07-18T05:14:17.000Z</time>
      </trkpt>
      <trkpt lat="45.2238" lon="5.73598">
        <ele>849.79998779297</ele>
        <time>2021-07-18T05:14:18.000Z</time>
      </trkpt>
      <trkpt lat="45.2238" lon="5.73605">
        <ele>850.59997558594</ele>
        <time>2021-07-18T05:14:23.000Z</time>
      </trkpt>
      <trkpt lat="45.22381" lon="5.73606">
        <ele>851.59997558594</ele>
        <time>2021-07-18T05:14:25.000Z</time>
      </trkpt>
      <trkpt lat="45.2238" lon="5.73607">
        <ele>852</ele>
        <time>2021-07-18T05:14:26.000Z</time>
      </trkpt>
      <trkpt lat="45.2238" lon="5.73611">
        <ele>852.59997558594</ele>
        <time>2021-07-18T05:14:30.000Z</time>
      </trkpt>
      <trkpt lat="45.2238" lon="5.73614">
        <ele>852.79998779297</ele>
        <time>2021-07-18T05:14:31.000Z</time>
      </trkpt>
      <trkpt lat="45.22378" lon="5.73619">
        <ele>854</ele>
        <time>2021-07-18T05:14:34.000Z</time>
      </trkpt>
      <trkpt lat="45.22379" lon="5.73624">
        <ele>855.20001220703</ele>
        <time>2021-07-18T05:14:38.000Z</time>
      </trkpt>
      <trkpt lat="45.22379" lon="5.73633">
        <ele>856.40002441406</ele>
        <time>2021-07-18T05:14:45.000Z</time>
      </trkpt>
      <trkpt lat="45.2238" lon="5.73635">
        <ele>857</ele>
        <time>2021-07-18T05:14:47.000Z</time>
      </trkpt>
      <trkpt lat="45.22379" lon="5.73638">
        <ele>857.40002441406</ele>
        <time>2021-07-18T05:14:50.000Z</time>
      </trkpt>
      <trkpt lat="45.22379" lon="5.73639">
        <ele>857.79998779297</ele>
        <time>2021-07-18T05:14:51.000Z</time>
      </trkpt>
      <trkpt lat="45.22378" lon="5.73644">
        <ele>858.40002441406</ele>
        <time>2021-07-18T05:14:54.000Z</time>
      </trkpt>
      <trkpt lat="45.22378" lon="5.73646">
        <ele>858.79998779297</ele>
        <time>2021-07-18T05:14:55.000Z</time>
      </trkpt>
      <trkpt lat="45.22378" lon="5.73647">
        <ele>858.79998779297</ele>
        <time>2021-07-18T05:14:56.000Z</time>
      </trkpt>
      <trkpt lat="45.22378" lon="5.73648">
        <ele>858.79998779297</ele>
        <time>2021-07-18T05:14:57.000Z</time>
      </trkpt>
      <trkpt lat="45.22379" lon="5.73649">
        <ele>860.40002441406</ele>
        <time>2021-07-18T05:14:58.000Z</time>
      </trkpt>
      <trkpt lat="45.22377" lon="5.73655">
        <ele>861</ele>
        <time>2021-07-18T05:15:03.000Z</time>
      </trkpt>
      <trkpt lat="45.22376" lon="5.73657">
        <ele>861</ele>
        <time>2021-07-18T05:15:04.000Z</time>
      </trkpt>
      <trkpt lat="45.22376" lon="5.73659">
        <ele>861.20001220703</ele>
        <time>2021-07-18T05:15:05.000Z</time>
      </trkpt>
      <trkpt lat="45.22376" lon="5.73663">
        <ele>861.40002441406</ele>
        <time>2021-07-18T05:15:07.000Z</time>
      </trkpt>
      <trkpt lat="45.22376" lon="5.7367">
        <ele>862</ele>
        <time>2021-07-18T05:15:11.000Z</time>
      </trkpt>
      <trkpt lat="45.22374" lon="5.73673">
        <ele>862.79998779297</ele>
        <time>2021-07-18T05:15:13.000Z</time>
      </trkpt>
      <trkpt lat="45.22372" lon="5.73677">
        <ele>863</ele>
        <time>2021-07-18T05:15:16.000Z</time>
      </trkpt>
      <trkpt lat="45.22372" lon="5.73677">
        <ele>863</ele>
        <time>2021-07-18T05:15:17.000Z</time>
      </trkpt>
      <trkpt lat="45.22372" lon="5.73679">
        <ele>863</ele>
        <time>2021-07-18T05:15:18.000Z</time>
      </trkpt>
      <trkpt lat="45.22374" lon="5.7368">
        <ele>863.20001220703</ele>
        <time>2021-07-18T05:15:21.000Z</time>
      </trkpt>
      <trkpt lat="45.22375" lon="5.7368">
        <ele>863.40002441406</ele>
        <time>2021-07-18T05:15:22.000Z</time>
      </trkpt>
      <trkpt lat="45.22376" lon="5.7368">
        <ele>863.59997558594</ele>
        <time>2021-07-18T05:15:26.000Z</time>
      </trkpt>
      <trkpt lat="45.22381" lon="5.73679">
        <ele>864</ele>
        <time>2021-07-18T05:15:30.000Z</time>
      </trkpt>
      <trkpt lat="45.22384" lon="5.73679">
        <ele>864.40002441406</ele>
        <time>2021-07-18T05:15:33.000Z</time>
      </trkpt>
      <trkpt lat="45.22386" lon="5.7368">
        <ele>865</ele>
        <time>2021-07-18T05:15:35.000Z</time>
      </trkpt>
      <trkpt lat="45.22387" lon="5.7368">
        <ele>865</ele>
        <time>2021-07-18T05:15:36.000Z</time>
      </trkpt>
      <trkpt lat="45.22389" lon="5.7368">
        <ele>865</ele>
        <time>2021-07-18T05:15:37.000Z</time>
      </trkpt>
      <trkpt lat="45.2239" lon="5.7368">
        <ele>865.20001220703</ele>
        <time>2021-07-18T05:15:38.000Z</time>
      </trkpt>
      <trkpt lat="45.22393" lon="5.7368">
        <ele>866</ele>
        <time>2021-07-18T05:15:41.000Z</time>
      </trkpt>
      <trkpt lat="45.22394" lon="5.7368">
        <ele>866</ele>
        <time>2021-07-18T05:15:42.000Z</time>
      </trkpt>
      <trkpt lat="45.22395" lon="5.73681">
        <ele>866.20001220703</ele>
        <time>2021-07-18T05:15:43.000Z</time>
      </trkpt>
      <trkpt lat="45.22395" lon="5.73682">
        <ele>867</ele>
        <time>2021-07-18T05:15:46.000Z</time>
      </trkpt>
      <trkpt lat="45.22396" lon="5.73681">
        <ele>867.20001220703</ele>
        <time>2021-07-18T05:15:47.000Z</time>
      </trkpt>
      <trkpt lat="45.22397" lon="5.73681">
        <ele>867.40002441406</ele>
        <time>2021-07-18T05:15:48.000Z</time>
      </trkpt>
      <trkpt lat="45.22401" lon="5.7368">
        <ele>868</ele>
        <time>2021-07-18T05:15:51.000Z</time>
      </trkpt>
      <trkpt lat="45.22401" lon="5.73681">
        <ele>868.59997558594</ele>
        <time>2021-07-18T05:15:52.000Z</time>
      </trkpt>
      <trkpt lat="45.22402" lon="5.73681">
        <ele>868.79998779297</ele>
        <time>2021-07-18T05:15:53.000Z</time>
      </trkpt>
      <trkpt lat="45.22404" lon="5.73681">
        <ele>869.20001220703</ele>
        <time>2021-07-18T05:15:55.000Z</time>
      </trkpt>
      <trkpt lat="45.22404" lon="5.73681">
        <ele>869.40002441406</ele>
        <time>2021-07-18T05:15:56.000Z</time>
      </trkpt>
      <trkpt lat="45.22404" lon="5.73681">
        <ele>869.79998779297</ele>
        <time>2021-07-18T05:15:57.000Z</time>
      </trkpt>
      <trkpt lat="45.22404" lon="5.73681">
        <ele>870.79998779297</ele>
        <time>2021-07-18T05:15:59.000Z</time>
      </trkpt>
      <trkpt lat="45.22407" lon="5.73682">
        <ele>871</ele>
        <time>2021-07-18T05:16:01.000Z</time>
      </trkpt>
      <trkpt lat="45.22408" lon="5.73683">
        <ele>871.20001220703</ele>
        <time>2021-07-18T05:16:02.000Z</time>
      </trkpt>
      <trkpt lat="45.22411" lon="5.73685">
        <ele>871.59997558594</ele>
        <time>2021-07-18T05:16:05.000Z</time>
      </trkpt>
      <trkpt lat="45.22412" lon="5.73685">
        <ele>871.79998779297</ele>
        <time>2021-07-18T05:16:07.000Z</time>
      </trkpt>
      <trkpt lat="45.22413" lon="5.73685">
        <ele>872.40002441406</ele>
        <time>2021-07-18T05:16:08.000Z</time>
      </trkpt>
      <trkpt lat="45.22414" lon="5.73685">
        <ele>873</ele>
        <time>2021-07-18T05:16:09.000Z</time>
      </trkpt>
      <trkpt lat="45.22417" lon="5.73684">
        <ele>873.20001220703</ele>
        <time>2021-07-18T05:16:12.000Z</time>
      </trkpt>
      <trkpt lat="45.22418" lon="5.73684">
        <ele>874.20001220703</ele>
        <time>2021-07-18T05:16:13.000Z</time>
      </trkpt>
      <trkpt lat="45.22417" lon="5.73683">
        <ele>874.59997558594</ele>
        <time>2021-07-18T05:16:16.000Z</time>
      </trkpt>
      <trkpt lat="45.2242" lon="5.73683">
        <ele>874.59997558594</ele>
        <time>2021-07-18T05:16:18.000Z</time>
      </trkpt>
      <trkpt lat="45.22423" lon="5.73684">
        <ele>875.20001220703</ele>
        <time>2021-07-18T05:16:20.000Z</time>
      </trkpt>
      <trkpt lat="45.22427" lon="5.73682">
        <ele>876</ele>
        <time>2021-07-18T05:16:23.000Z</time>
      </trkpt>
      <trkpt lat="45.22429" lon="5.73682">
        <ele>876.20001220703</ele>
        <time>2021-07-18T05:16:25.000Z</time>
      </trkpt>
      <trkpt lat="45.22431" lon="5.73683">
        <ele>876.59997558594</ele>
        <time>2021-07-18T05:16:26.000Z</time>
      </trkpt>
      <trkpt lat="45.22433" lon="5.73684">
        <ele>876.79998779297</ele>
        <time>2021-07-18T05:16:27.000Z</time>
      </trkpt>
      <trkpt lat="45.22437" lon="5.73685">
        <ele>877</ele>
        <time>2021-07-18T05:16:30.000Z</time>
      </trkpt>
      <trkpt lat="45.22442" lon="5.73687">
        <ele>876.79998779297</ele>
        <time>2021-07-18T05:16:33.000Z</time>
      </trkpt>
      <trkpt lat="45.22456" lon="5.73688">
        <ele>876.40002441406</ele>
        <time>2021-07-18T05:16:41.000Z</time>
      </trkpt>
      <trkpt lat="45.22459" lon="5.73689">
        <ele>877.59997558594</ele>
        <time>2021-07-18T05:16:45.000Z</time>
      </trkpt>
      <trkpt lat="45.22461" lon="5.7369">
        <ele>878</ele>
        <time>2021-07-18T05:16:47.000Z</time>
      </trkpt>
      <trkpt lat="45.22463" lon="5.73692">
        <ele>879</ele>
        <time>2021-07-18T05:16:49.000Z</time>
      </trkpt>
      <trkpt lat="45.22468" lon="5.73692">
        <ele>879.59997558594</ele>
        <time>2021-07-18T05:16:54.000Z</time>
      </trkpt>
      <trkpt lat="45.22469" lon="5.73692">
        <ele>880</ele>
        <time>2021-07-18T05:16:56.000Z</time>
      </trkpt>
      <trkpt lat="45.22469" lon="5.73692">
        <ele>880.20001220703</ele>
        <time>2021-07-18T05:16:57.000Z</time>
      </trkpt>
      <trkpt lat="45.22469" lon="5.73692">
        <ele>880.40002441406</ele>
        <time>2021-07-18T05:16:58.000Z</time>
      </trkpt>
      <trkpt lat="45.22472" lon="5.73692">
        <ele>881.20001220703</ele>
        <time>2021-07-18T05:17:00.000Z</time>
      </trkpt>
      <trkpt lat="45.22478" lon="5.7369">
        <ele>882</ele>
        <time>2021-07-18T05:17:04.000Z</time>
      </trkpt>
      <trkpt lat="45.22478" lon="5.73688">
        <ele>882.40002441406</ele>
        <time>2021-07-18T05:17:05.000Z</time>
      </trkpt>
      <trkpt lat="45.22479" lon="5.73687">
        <ele>883.59997558594</ele>
        <time>2021-07-18T05:17:07.000Z</time>
      </trkpt>
      <trkpt lat="45.22482" lon="5.73686">
        <ele>884</ele>
        <time>2021-07-18T05:17:11.000Z</time>
      </trkpt>
      <trkpt lat="45.22483" lon="5.73686">
        <ele>884.59997558594</ele>
        <time>2021-07-18T05:17:12.000Z</time>
      </trkpt>
      <trkpt lat="45.22487" lon="5.73684">
        <ele>885.79998779297</ele>
        <time>2021-07-18T05:17:16.000Z</time>
      </trkpt>
      <trkpt lat="45.22492" lon="5.73682">
        <ele>886.20001220703</ele>
        <time>2021-07-18T05:17:20.000Z</time>
      </trkpt>
      <trkpt lat="45.22497" lon="5.73679">
        <ele>887.20001220703</ele>
        <time>2021-07-18T05:17:23.000Z</time>
      </trkpt>
      <trkpt lat="45.22504" lon="5.73679">
        <ele>888.59997558594</ele>
        <time>2021-07-18T05:17:27.000Z</time>
      </trkpt>
      <trkpt lat="45.22506" lon="5.7368">
        <ele>888.79998779297</ele>
        <time>2021-07-18T05:17:29.000Z</time>
      </trkpt>
      <trkpt lat="45.22508" lon="5.7368">
        <ele>889.79998779297</ele>
        <time>2021-07-18T05:17:31.000Z</time>
      </trkpt>
      <trkpt lat="45.22512" lon="5.73681">
        <ele>890.20001220703</ele>
        <time>2021-07-18T05:17:35.000Z</time>
      </trkpt>
      <trkpt lat="45.22513" lon="5.73681">
        <ele>890.79998779297</ele>
        <time>2021-07-18T05:17:36.000Z</time>
      </trkpt>
      <trkpt lat="45.22514" lon="5.73681">
        <ele>891.20001220703</ele>
        <time>2021-07-18T05:17:37.000Z</time>
      </trkpt>
      <trkpt lat="45.22519" lon="5.73683">
        <ele>891.79998779297</ele>
        <time>2021-07-18T05:17:42.000Z</time>
      </trkpt>
      <trkpt lat="45.22522" lon="5.73681">
        <ele>892.79998779297</ele>
        <time>2021-07-18T05:17:45.000Z</time>
      </trkpt>
      <trkpt lat="45.22522" lon="5.73681">
        <ele>893</ele>
        <time>2021-07-18T05:17:46.000Z</time>
      </trkpt>
      <trkpt lat="45.22528" lon="5.73681">
        <ele>894.20001220703</ele>
        <time>2021-07-18T05:17:51.000Z</time>
      </trkpt>
      <trkpt lat="45.22529" lon="5.73681">
        <ele>894.40002441406</ele>
        <time>2021-07-18T05:17:52.000Z</time>
      </trkpt>
      <trkpt lat="45.22536" lon="5.73686">
        <ele>895.59997558594</ele>
        <time>2021-07-18T05:17:56.000Z</time>
      </trkpt>
      <trkpt lat="45.22537" lon="5.73687">
        <ele>895.79998779297</ele>
        <time>2021-07-18T05:17:58.000Z</time>
      </trkpt>
      <trkpt lat="45.2254" lon="5.73689">
        <ele>896.79998779297</ele>
        <time>2021-07-18T05:18:01.000Z</time>
      </trkpt>
      <trkpt lat="45.22542" lon="5.73689">
        <ele>897.20001220703</ele>
        <time>2021-07-18T05:18:03.000Z</time>
      </trkpt>
      <trkpt lat="45.22544" lon="5.73689">
        <ele>897.59997558594</ele>
        <time>2021-07-18T05:18:05.000Z</time>
      </trkpt>
      <trkpt lat="45.22545" lon="5.73689">
        <ele>897.79998779297</ele>
        <time>2021-07-18T05:18:06.000Z</time>
      </trkpt>
      <trkpt lat="45.22546" lon="5.7369">
        <ele>898.20001220703</ele>
        <time>2021-07-18T05:18:07.000Z</time>
      </trkpt>
      <trkpt lat="45.22548" lon="5.73691">
        <ele>898.79998779297</ele>
        <time>2021-07-18T05:18:09.000Z</time>
      </trkpt>
      <trkpt lat="45.2255" lon="5.73691">
        <ele>899.20001220703</ele>
        <time>2021-07-18T05:18:10.000Z</time>
      </trkpt>
      <trkpt lat="45.22555" lon="5.73694">
        <ele>899.79998779297</ele>
        <time>2021-07-18T05:18:13.000Z</time>
      </trkpt>
      <trkpt lat="45.22557" lon="5.73696">
        <ele>899.79998779297</ele>
        <time>2021-07-18T05:18:14.000Z</time>
      </trkpt>
      <trkpt lat="45.22562" lon="5.73705">
        <ele>900</ele>
        <time>2021-07-18T05:18:19.000Z</time>
      </trkpt>
      <trkpt lat="45.22566" lon="5.73706">
        <ele>900</ele>
        <time>2021-07-18T05:18:22.000Z</time>
      </trkpt>
      <trkpt lat="45.22568" lon="5.73707">
        <ele>900.20001220703</ele>
        <time>2021-07-18T05:18:23.000Z</time>
      </trkpt>
      <trkpt lat="45.22575" lon="5.73704">
        <ele>901</ele>
        <time>2021-07-18T05:18:28.000Z</time>
      </trkpt>
      <trkpt lat="45.22576" lon="5.73703">
        <ele>901.20001220703</ele>
        <time>2021-07-18T05:18:29.000Z</time>
      </trkpt>
      <trkpt lat="45.22577" lon="5.73703">
        <ele>901.40002441406</ele>
        <time>2021-07-18T05:18:30.000Z</time>
      </trkpt>
      <trkpt lat="45.22579" lon="5.73708">
        <ele>902</ele>
        <time>2021-07-18T05:18:34.000Z</time>
      </trkpt>
      <trkpt lat="45.22583" lon="5.73711">
        <ele>902.79998779297</ele>
        <time>2021-07-18T05:18:37.000Z</time>
      </trkpt>
      <trkpt lat="45.22584" lon="5.73711">
        <ele>903.20001220703</ele>
        <time>2021-07-18T05:18:38.000Z</time>
      </trkpt>
      <trkpt lat="45.22587" lon="5.73713">
        <ele>903.40002441406</ele>
        <time>2021-07-18T05:18:41.000Z</time>
      </trkpt>
      <trkpt lat="45.22588" lon="5.73713">
        <ele>904</ele>
        <time>2021-07-18T05:18:42.000Z</time>
      </trkpt>
      <trkpt lat="45.22589" lon="5.73714">
        <ele>905</ele>
        <time>2021-07-18T05:18:44.000Z</time>
      </trkpt>
      <trkpt lat="45.22594" lon="5.73716">
        <ele>905.40002441406</ele>
        <time>2021-07-18T05:18:48.000Z</time>
      </trkpt>
      <trkpt lat="45.22596" lon="5.73717">
        <ele>906</ele>
        <time>2021-07-18T05:18:49.000Z</time>
      </trkpt>
      <trkpt lat="45.22603" lon="5.7372">
        <ele>906.79998779297</ele>
        <time>2021-07-18T05:18:54.000Z</time>
      </trkpt>
      <trkpt lat="45.22606" lon="5.73721">
        <ele>907.40002441406</ele>
        <time>2021-07-18T05:18:56.000Z</time>
      </trkpt>
      <trkpt lat="45.22612" lon="5.73725">
        <ele>908</ele>
        <time>2021-07-18T05:19:00.000Z</time>
      </trkpt>
      <trkpt lat="45.2262" lon="5.7373">
        <ele>908.40002441406</ele>
        <time>2021-07-18T05:19:05.000Z</time>
      </trkpt>
      <trkpt lat="45.2262" lon="5.73732">
        <ele>908.40002441406</ele>
        <time>2021-07-18T05:19:07.000Z</time>
      </trkpt>
      <trkpt lat="45.22621" lon="5.73733">
        <ele>907.79998779297</ele>
        <time>2021-07-18T05:19:08.000Z</time>
      </trkpt>
      <trkpt lat="45.22623" lon="5.73735">
        <ele>907.79998779297</ele>
        <time>2021-07-18T05:19:10.000Z</time>
      </trkpt>
      <trkpt lat="45.22626" lon="5.73736">
        <ele>907.79998779297</ele>
        <time>2021-07-18T05:19:13.000Z</time>
      </trkpt>
      <trkpt lat="45.22632" lon="5.73744">
        <ele>907.79998779297</ele>
        <time>2021-07-18T05:19:19.000Z</time>
      </trkpt>
      <trkpt lat="45.22635" lon="5.73749">
        <ele>907.59997558594</ele>
        <time>2021-07-18T05:19:21.000Z</time>
      </trkpt>
      <trkpt lat="45.22639" lon="5.73754">
        <ele>908</ele>
        <time>2021-07-18T05:19:24.000Z</time>
      </trkpt>
      <trkpt lat="45.22644" lon="5.73755">
        <ele>909</ele>
        <time>2021-07-18T05:19:27.000Z</time>
      </trkpt>
      <trkpt lat="45.22652" lon="5.73757">
        <ele>909.79998779297</ele>
        <time>2021-07-18T05:19:31.000Z</time>
      </trkpt>
      <trkpt lat="45.22653" lon="5.73758">
        <ele>910.40002441406</ele>
        <time>2021-07-18T05:19:32.000Z</time>
      </trkpt>
      <trkpt lat="45.22655" lon="5.73763">
        <ele>910.79998779297</ele>
        <time>2021-07-18T05:19:35.000Z</time>
      </trkpt>
      <trkpt lat="45.22655" lon="5.73765">
        <ele>911.40002441406</ele>
        <time>2021-07-18T05:19:36.000Z</time>
      </trkpt>
      <trkpt lat="45.22661" lon="5.73771">
        <ele>912</ele>
        <time>2021-07-18T05:19:40.000Z</time>
      </trkpt>
      <trkpt lat="45.22663" lon="5.73773">
        <ele>912.20001220703</ele>
        <time>2021-07-18T05:19:41.000Z</time>
      </trkpt>
      <trkpt lat="45.2267" lon="5.73779">
        <ele>912.79998779297</ele>
        <time>2021-07-18T05:19:46.000Z</time>
      </trkpt>
      <trkpt lat="45.22673" lon="5.73781">
        <ele>912.79998779297</ele>
        <time>2021-07-18T05:19:48.000Z</time>
      </trkpt>
      <trkpt lat="45.22682" lon="5.73786">
        <ele>913.20001220703</ele>
        <time>2021-07-18T05:19:54.000Z</time>
      </trkpt>
      <trkpt lat="45.22686" lon="5.73791">
        <ele>914</ele>
        <time>2021-07-18T05:19:58.000Z</time>
      </trkpt>
      <trkpt lat="45.22691" lon="5.73792">
        <ele>914.40002441406</ele>
        <time>2021-07-18T05:20:02.000Z</time>
      </trkpt>
      <trkpt lat="45.22693" lon="5.73792">
        <ele>914.40002441406</ele>
        <time>2021-07-18T05:20:03.000Z</time>
      </trkpt>
      <trkpt lat="45.22695" lon="5.73792">
        <ele>914.40002441406</ele>
        <time>2021-07-18T05:20:04.000Z</time>
      </trkpt>
      <trkpt lat="45.22696" lon="5.73793">
        <ele>914.20001220703</ele>
        <time>2021-07-18T05:20:05.000Z</time>
      </trkpt>
      <trkpt lat="45.22699" lon="5.73794">
        <ele>914</ele>
        <time>2021-07-18T05:20:06.000Z</time>
      </trkpt>
      <trkpt lat="45.22704" lon="5.73796">
        <ele>913.79998779297</ele>
        <time>2021-07-18T05:20:08.000Z</time>
      </trkpt>
      <trkpt lat="45.22706" lon="5.73797">
        <ele>913.79998779297</ele>
        <time>2021-07-18T05:20:09.000Z</time>
      </trkpt>
      <trkpt lat="45.22713" lon="5.73798">
        <ele>913.40002441406</ele>
        <time>2021-07-18T05:20:14.000Z</time>
      </trkpt>
      <trkpt lat="45.22715" lon="5.73798">
        <ele>913.40002441406</ele>
        <time>2021-07-18T05:20:16.000Z</time>
      </trkpt>
      <trkpt lat="45.22719" lon="5.73799">
        <ele>913.40002441406</ele>
        <time>2021-07-18T05:20:19.000Z</time>
      </trkpt>
      <trkpt lat="45.22721" lon="5.73799">
        <ele>913.40002441406</ele>
        <time>2021-07-18T05:20:20.000Z</time>
      </trkpt>
      <trkpt lat="45.22726" lon="5.73802">
        <ele>913.20001220703</ele>
        <time>2021-07-18T05:20:24.000Z</time>
      </trkpt>
      <trkpt lat="45.2273" lon="5.73806">
        <ele>912.79998779297</ele>
        <time>2021-07-18T05:20:26.000Z</time>
      </trkpt>
      <trkpt lat="45.22737" lon="5.73811">
        <ele>912.79998779297</ele>
        <time>2021-07-18T05:20:29.000Z</time>
      </trkpt>
      <trkpt lat="45.22739" lon="5.73812">
        <ele>912.79998779297</ele>
        <time>2021-07-18T05:20:30.000Z</time>
      </trkpt>
      <trkpt lat="45.22742" lon="5.73813">
        <ele>913.20001220703</ele>
        <time>2021-07-18T05:20:31.000Z</time>
      </trkpt>
      <trkpt lat="45.22748" lon="5.73818">
        <ele>913.40002441406</ele>
        <time>2021-07-18T05:20:34.000Z</time>
      </trkpt>
      <trkpt lat="45.22751" lon="5.73821">
        <ele>913.40002441406</ele>
        <time>2021-07-18T05:20:36.000Z</time>
      </trkpt>
      <trkpt lat="45.22753" lon="5.73822">
        <ele>913.59997558594</ele>
        <time>2021-07-18T05:20:37.000Z</time>
      </trkpt>
      <trkpt lat="45.2276" lon="5.73825">
        <ele>913.40002441406</ele>
        <time>2021-07-18T05:20:40.000Z</time>
      </trkpt>
      <trkpt lat="45.22778" lon="5.73837">
        <ele>912.59997558594</ele>
        <time>2021-07-18T05:20:46.000Z</time>
      </trkpt>
      <trkpt lat="45.22787" lon="5.73839">
        <ele>912</ele>
        <time>2021-07-18T05:20:50.000Z</time>
      </trkpt>
      <trkpt lat="45.22791" lon="5.7384">
        <ele>911.59997558594</ele>
        <time>2021-07-18T05:20:52.000Z</time>
      </trkpt>
      <trkpt lat="45.22793" lon="5.73841">
        <ele>911.20001220703</ele>
        <time>2021-07-18T05:20:53.000Z</time>
      </trkpt>
      <trkpt lat="45.22798" lon="5.73846">
        <ele>910.79998779297</ele>
        <time>2021-07-18T05:20:56.000Z</time>
      </trkpt>
      <trkpt lat="45.22801" lon="5.73847">
        <ele>910.40002441406</ele>
        <time>2021-07-18T05:20:57.000Z</time>
      </trkpt>
      <trkpt lat="45.22808" lon="5.7385">
        <ele>909.40002441406</ele>
        <time>2021-07-18T05:21:01.000Z</time>
      </trkpt>
      <trkpt lat="45.2281" lon="5.73851">
        <ele>909.20001220703</ele>
        <time>2021-07-18T05:21:02.000Z</time>
      </trkpt>
      <trkpt lat="45.22814" lon="5.73852">
        <ele>909</ele>
        <time>2021-07-18T05:21:03.000Z</time>
      </trkpt>
      <trkpt lat="45.22825" lon="5.73858">
        <ele>908.20001220703</ele>
        <time>2021-07-18T05:21:09.000Z</time>
      </trkpt>
      <trkpt lat="45.22835" lon="5.73859">
        <ele>907.40002441406</ele>
        <time>2021-07-18T05:21:16.000Z</time>
      </trkpt>
      <trkpt lat="45.2284" lon="5.73863">
        <ele>907.40002441406</ele>
        <time>2021-07-18T05:21:18.000Z</time>
      </trkpt>
      <trkpt lat="45.22843" lon="5.73866">
        <ele>907.20001220703</ele>
        <time>2021-07-18T05:21:19.000Z</time>
      </trkpt>
      <trkpt lat="45.22846" lon="5.73868">
        <ele>907.20001220703</ele>
        <time>2021-07-18T05:21:20.000Z</time>
      </trkpt>
      <trkpt lat="45.22857" lon="5.7387">
        <ele>906</ele>
        <time>2021-07-18T05:21:23.000Z</time>
      </trkpt>
      <trkpt lat="45.22865" lon="5.73871">
        <ele>906</ele>
        <time>2021-07-18T05:21:27.000Z</time>
      </trkpt>
      <trkpt lat="45.22865" lon="5.7387">
        <ele>906</ele>
        <time>2021-07-18T05:21:28.000Z</time>
      </trkpt>
      <trkpt lat="45.22865" lon="5.73868">
        <ele>906</ele>
        <time>2021-07-18T05:21:29.000Z</time>
      </trkpt>
      <trkpt lat="45.22875" lon="5.73864">
        <ele>905.59997558594</ele>
        <time>2021-07-18T05:21:36.000Z</time>
      </trkpt>
      <trkpt lat="45.22877" lon="5.73863">
        <ele>905</ele>
        <time>2021-07-18T05:21:38.000Z</time>
      </trkpt>
      <trkpt lat="45.22884" lon="5.73861">
        <ele>905</ele>
        <time>2021-07-18T05:21:41.000Z</time>
      </trkpt>
      <trkpt lat="45.22888" lon="5.7386">
        <ele>905</ele>
        <time>2021-07-18T05:21:43.000Z</time>
      </trkpt>
      <trkpt lat="45.22892" lon="5.73859">
        <ele>905</ele>
        <time>2021-07-18T05:21:45.000Z</time>
      </trkpt>
      <trkpt lat="45.22897" lon="5.73859">
        <ele>904.79998779297</ele>
        <time>2021-07-18T05:21:47.000Z</time>
      </trkpt>
      <trkpt lat="45.22911" lon="5.73855">
        <ele>903.79998779297</ele>
        <time>2021-07-18T05:21:52.000Z</time>
      </trkpt>
      <trkpt lat="45.22919" lon="5.73854">
        <ele>903.59997558594</ele>
        <time>2021-07-18T05:21:55.000Z</time>
      </trkpt>
      <trkpt lat="45.2292" lon="5.73854">
        <ele>903.59997558594</ele>
        <time>2021-07-18T05:21:56.000Z</time>
      </trkpt>
      <trkpt lat="45.22926" lon="5.73852">
        <ele>902.79998779297</ele>
        <time>2021-07-18T05:21:59.000Z</time>
      </trkpt>
      <trkpt lat="45.22928" lon="5.73853">
        <ele>902.59997558594</ele>
        <time>2021-07-18T05:22:00.000Z</time>
      </trkpt>
      <trkpt lat="45.22931" lon="5.73857">
        <ele>902.20001220703</ele>
        <time>2021-07-18T05:22:02.000Z</time>
      </trkpt>
      <trkpt lat="45.22932" lon="5.73862">
        <ele>902.20001220703</ele>
        <time>2021-07-18T05:22:04.000Z</time>
      </trkpt>
      <trkpt lat="45.22934" lon="5.73868">
        <ele>901.59997558594</ele>
        <time>2021-07-18T05:22:07.000Z</time>
      </trkpt>
      <trkpt lat="45.22935" lon="5.7387">
        <ele>901.20001220703</ele>
        <time>2021-07-18T05:22:08.000Z</time>
      </trkpt>
      <trkpt lat="45.22937" lon="5.73877">
        <ele>900</ele>
        <time>2021-07-18T05:22:11.000Z</time>
      </trkpt>
      <trkpt lat="45.2294" lon="5.73886">
        <ele>898</ele>
        <time>2021-07-18T05:22:14.000Z</time>
      </trkpt>
      <trkpt lat="45.22941" lon="5.73889">
        <ele>898</ele>
        <time>2021-07-18T05:22:15.000Z</time>
      </trkpt>
      <trkpt lat="45.22944" lon="5.73907">
        <ele>897</ele>
        <time>2021-07-18T05:22:19.000Z</time>
      </trkpt>
      <trkpt lat="45.22948" lon="5.73916">
        <ele>896.79998779297</ele>
        <time>2021-07-18T05:22:21.000Z</time>
      </trkpt>
      <trkpt lat="45.22959" lon="5.73936">
        <ele>897.20001220703</ele>
        <time>2021-07-18T05:22:28.000Z</time>
      </trkpt>
      <trkpt lat="45.22962" lon="5.73939">
        <ele>897.20001220703</ele>
        <time>2021-07-18T05:22:29.000Z</time>
      </trkpt>
      <trkpt lat="45.22964" lon="5.7394">
        <ele>897.20001220703</ele>
        <time>2021-07-18T05:22:30.000Z</time>
      </trkpt>
      <trkpt lat="45.22965" lon="5.73942">
        <ele>896.79998779297</ele>
        <time>2021-07-18T05:22:31.000Z</time>
      </trkpt>
      <trkpt lat="45.22967" lon="5.73944">
        <ele>897</ele>
        <time>2021-07-18T05:22:32.000Z</time>
      </trkpt>
      <trkpt lat="45.22971" lon="5.73948">
        <ele>896.79998779297</ele>
        <time>2021-07-18T05:22:34.000Z</time>
      </trkpt>
      <trkpt lat="45.22975" lon="5.73951">
        <ele>896.79998779297</ele>
        <time>2021-07-18T05:22:36.000Z</time>
      </trkpt>
      <trkpt lat="45.2299" lon="5.73955">
        <ele>898.20001220703</ele>
        <time>2021-07-18T05:22:44.000Z</time>
      </trkpt>
      <trkpt lat="45.22996" lon="5.73958">
        <ele>898.40002441406</ele>
        <time>2021-07-18T05:22:48.000Z</time>
      </trkpt>
      <trkpt lat="45.23003" lon="5.73958">
        <ele>898.59997558594</ele>
        <time>2021-07-18T05:22:52.000Z</time>
      </trkpt>
      <trkpt lat="45.23005" lon="5.73958">
        <ele>898.79998779297</ele>
        <time>2021-07-18T05:22:53.000Z</time>
      </trkpt>
      <trkpt lat="45.23007" lon="5.73958">
        <ele>898.59997558594</ele>
        <time>2021-07-18T05:22:54.000Z</time>
      </trkpt>
      <trkpt lat="45.23014" lon="5.73961">
        <ele>898.59997558594</ele>
        <time>2021-07-18T05:22:58.000Z</time>
      </trkpt>
      <trkpt lat="45.23022" lon="5.7396">
        <ele>898.59997558594</ele>
        <time>2021-07-18T05:23:03.000Z</time>
      </trkpt>
      <trkpt lat="45.23031" lon="5.73954">
        <ele>898.79998779297</ele>
        <time>2021-07-18T05:23:09.000Z</time>
      </trkpt>
      <trkpt lat="45.23032" lon="5.7395">
        <ele>898.79998779297</ele>
        <time>2021-07-18T05:23:10.000Z</time>
      </trkpt>
      <trkpt lat="45.23036" lon="5.73941">
        <ele>899</ele>
        <time>2021-07-18T05:23:13.000Z</time>
      </trkpt>
      <trkpt lat="45.23039" lon="5.73937">
        <ele>899.59997558594</ele>
        <time>2021-07-18T05:23:15.000Z</time>
      </trkpt>
      <trkpt lat="45.23045" lon="5.73933">
        <ele>900</ele>
        <time>2021-07-18T05:23:18.000Z</time>
      </trkpt>
      <trkpt lat="45.23049" lon="5.73932">
        <ele>900.20001220703</ele>
        <time>2021-07-18T05:23:20.000Z</time>
      </trkpt>
      <trkpt lat="45.2305" lon="5.73931">
        <ele>900.59997558594</ele>
        <time>2021-07-18T05:23:21.000Z</time>
      </trkpt>
      <trkpt lat="45.23054" lon="5.7393">
        <ele>900.79998779297</ele>
        <time>2021-07-18T05:23:23.000Z</time>
      </trkpt>
      <trkpt lat="45.23059" lon="5.73929">
        <ele>901.59997558594</ele>
        <time>2021-07-18T05:23:25.000Z</time>
      </trkpt>
      <trkpt lat="45.23062" lon="5.7393">
        <ele>902.20001220703</ele>
        <time>2021-07-18T05:23:27.000Z</time>
      </trkpt>
      <trkpt lat="45.23067" lon="5.73931">
        <ele>903</ele>
        <time>2021-07-18T05:23:30.000Z</time>
      </trkpt>
      <trkpt lat="45.23068" lon="5.73931">
        <ele>903.40002441406</ele>
        <time>2021-07-18T05:23:31.000Z</time>
      </trkpt>
      <trkpt lat="45.23073" lon="5.73934">
        <ele>904.40002441406</ele>
        <time>2021-07-18T05:23:34.000Z</time>
      </trkpt>
      <trkpt lat="45.23079" lon="5.73939">
        <ele>905.40002441406</ele>
        <time>2021-07-18T05:23:37.000Z</time>
      </trkpt>
      <trkpt lat="45.23082" lon="5.73944">
        <ele>905.40002441406</ele>
        <time>2021-07-18T05:23:38.000Z</time>
      </trkpt>
      <trkpt lat="45.23086" lon="5.73949">
        <ele>905.40002441406</ele>
        <time>2021-07-18T05:23:40.000Z</time>
      </trkpt>
      <trkpt lat="45.2309" lon="5.7395">
        <ele>905.79998779297</ele>
        <time>2021-07-18T05:23:43.000Z</time>
      </trkpt>
      <trkpt lat="45.23094" lon="5.7395">
        <ele>905.79998779297</ele>
        <time>2021-07-18T05:23:46.000Z</time>
      </trkpt>
      <trkpt lat="45.23105" lon="5.73948">
        <ele>905.79998779297</ele>
        <time>2021-07-18T05:23:52.000Z</time>
      </trkpt>
      <trkpt lat="45.23115" lon="5.73947">
        <ele>906</ele>
        <time>2021-07-18T05:23:57.000Z</time>
      </trkpt>
      <trkpt lat="45.23117" lon="5.73947">
        <ele>906.20001220703</ele>
        <time>2021-07-18T05:23:58.000Z</time>
      </trkpt>
      <trkpt lat="45.2312" lon="5.73948">
        <ele>906</ele>
        <time>2021-07-18T05:23:59.000Z</time>
      </trkpt>
      <trkpt lat="45.23122" lon="5.73949">
        <ele>906.20001220703</ele>
        <time>2021-07-18T05:24:00.000Z</time>
      </trkpt>
      <trkpt lat="45.23125" lon="5.7395">
        <ele>907.20001220703</ele>
        <time>2021-07-18T05:24:01.000Z</time>
      </trkpt>
      <trkpt lat="45.23139" lon="5.7396">
        <ele>907.20001220703</ele>
        <time>2021-07-18T05:24:08.000Z</time>
      </trkpt>
      <trkpt lat="45.23155" lon="5.73971">
        <ele>906.79998779297</ele>
        <time>2021-07-18T05:24:15.000Z</time>
      </trkpt>
      <trkpt lat="45.23161" lon="5.73973">
        <ele>906</ele>
        <time>2021-07-18T05:24:18.000Z</time>
      </trkpt>
      <trkpt lat="45.23172" lon="5.73979">
        <ele>905.79998779297</ele>
        <time>2021-07-18T05:24:23.000Z</time>
      </trkpt>
      <trkpt lat="45.23176" lon="5.73982">
        <ele>904.79998779297</ele>
        <time>2021-07-18T05:24:25.000Z</time>
      </trkpt>
      <trkpt lat="45.23188" lon="5.73987">
        <ele>904.20001220703</ele>
        <time>2021-07-18T05:24:31.000Z</time>
      </trkpt>
      <trkpt lat="45.2319" lon="5.73988">
        <ele>903.59997558594</ele>
        <time>2021-07-18T05:24:33.000Z</time>
      </trkpt>
      <trkpt lat="45.23201" lon="5.73996">
        <ele>902.79998779297</ele>
        <time>2021-07-18T05:24:38.000Z</time>
      </trkpt>
      <trkpt lat="45.2321" lon="5.74002">
        <ele>902.59997558594</ele>
        <time>2021-07-18T05:24:42.000Z</time>
      </trkpt>
      <trkpt lat="45.23213" lon="5.74004">
        <ele>902.20001220703</ele>
        <time>2021-07-18T05:24:44.000Z</time>
      </trkpt>
      <trkpt lat="45.23214" lon="5.74005">
        <ele>902.20001220703</ele>
        <time>2021-07-18T05:24:45.000Z</time>
      </trkpt>
      <trkpt lat="45.23223" lon="5.7401">
        <ele>902.79998779297</ele>
        <time>2021-07-18T05:24:50.000Z</time>
      </trkpt>
      <trkpt lat="45.23224" lon="5.74012">
        <ele>903</ele>
        <time>2021-07-18T05:24:51.000Z</time>
      </trkpt>
      <trkpt lat="45.23225" lon="5.74015">
        <ele>903.20001220703</ele>
        <time>2021-07-18T05:24:52.000Z</time>
      </trkpt>
      <trkpt lat="45.23226" lon="5.74018">
        <ele>903.20001220703</ele>
        <time>2021-07-18T05:24:53.000Z</time>
      </trkpt>
      <trkpt lat="45.23226" lon="5.74022">
        <ele>903.59997558594</ele>
        <time>2021-07-18T05:24:55.000Z</time>
      </trkpt>
      <trkpt lat="45.23224" lon="5.7403">
        <ele>904.40002441406</ele>
        <time>2021-07-18T05:24:58.000Z</time>
      </trkpt>
      <trkpt lat="45.23223" lon="5.74034">
        <ele>905</ele>
        <time>2021-07-18T05:25:00.000Z</time>
      </trkpt>
      <trkpt lat="45.23224" lon="5.74036">
        <ele>905.20001220703</ele>
        <time>2021-07-18T05:25:01.000Z</time>
      </trkpt>
      <trkpt lat="45.23224" lon="5.74038">
        <ele>905.20001220703</ele>
        <time>2021-07-18T05:25:02.000Z</time>
      </trkpt>
      <trkpt lat="45.23223" lon="5.7404">
        <ele>905.59997558594</ele>
        <time>2021-07-18T05:25:03.000Z</time>
      </trkpt>
      <trkpt lat="45.23222" lon="5.74042">
        <ele>906</ele>
        <time>2021-07-18T05:25:04.000Z</time>
      </trkpt>
      <trkpt lat="45.23221" lon="5.74047">
        <ele>906</ele>
        <time>2021-07-18T05:25:06.000Z</time>
      </trkpt>
      <trkpt lat="45.23223" lon="5.74066">
        <ele>906</ele>
        <time>2021-07-18T05:25:11.000Z</time>
      </trkpt>
      <trkpt lat="45.23222" lon="5.74075">
        <ele>906.59997558594</ele>
        <time>2021-07-18T05:25:13.000Z</time>
      </trkpt>
      <trkpt lat="45.23218" lon="5.74087">
        <ele>906.59997558594</ele>
        <time>2021-07-18T05:25:16.000Z</time>
      </trkpt>
      <trkpt lat="45.23219" lon="5.74091">
        <ele>906.40002441406</ele>
        <time>2021-07-18T05:25:18.000Z</time>
      </trkpt>
      <trkpt lat="45.2322" lon="5.74094">
        <ele>906.40002441406</ele>
        <time>2021-07-18T05:25:19.000Z</time>
      </trkpt>
      <trkpt lat="45.23226" lon="5.74103">
        <ele>905.59997558594</ele>
        <time>2021-07-18T05:25:23.000Z</time>
      </trkpt>
      <trkpt lat="45.23227" lon="5.74104">
        <ele>905.20001220703</ele>
        <time>2021-07-18T05:25:24.000Z</time>
      </trkpt>
      <trkpt lat="45.23228" lon="5.74105">
        <ele>905.20001220703</ele>
        <time>2021-07-18T05:25:25.000Z</time>
      </trkpt>
      <trkpt lat="45.23239" lon="5.74107">
        <ele>905.20001220703</ele>
        <time>2021-07-18T05:25:31.000Z</time>
      </trkpt>
      <trkpt lat="45.23243" lon="5.7411">
        <ele>905.79998779297</ele>
        <time>2021-07-18T05:25:35.000Z</time>
      </trkpt>
      <trkpt lat="45.23244" lon="5.74113">
        <ele>906.20001220703</ele>
        <time>2021-07-18T05:25:37.000Z</time>
      </trkpt>
      <trkpt lat="45.23249" lon="5.74116">
        <ele>906.59997558594</ele>
        <time>2021-07-18T05:25:39.000Z</time>
      </trkpt>
      <trkpt lat="45.23252" lon="5.74118">
        <ele>906.59997558594</ele>
        <time>2021-07-18T05:25:40.000Z</time>
      </trkpt>
      <trkpt lat="45.23254" lon="5.7412">
        <ele>906.59997558594</ele>
        <time>2021-07-18T05:25:41.000Z</time>
      </trkpt>
      <trkpt lat="45.2326" lon="5.74124">
        <ele>906.59997558594</ele>
        <time>2021-07-18T05:25:45.000Z</time>
      </trkpt>
      <trkpt lat="45.23261" lon="5.74126">
        <ele>906.40002441406</ele>
        <time>2021-07-18T05:25:46.000Z</time>
      </trkpt>
      <trkpt lat="45.23269" lon="5.74137">
        <ele>905.59997558594</ele>
        <time>2021-07-18T05:25:51.000Z</time>
      </trkpt>
      <trkpt lat="45.23271" lon="5.74139">
        <ele>905.59997558594</ele>
        <time>2021-07-18T05:25:52.000Z</time>
      </trkpt>
      <trkpt lat="45.23279" lon="5.7415">
        <ele>905</ele>
        <time>2021-07-18T05:25:57.000Z</time>
      </trkpt>
      <trkpt lat="45.23283" lon="5.74152">
        <ele>904.59997558594</ele>
        <time>2021-07-18T05:25:59.000Z</time>
      </trkpt>
      <trkpt lat="45.23284" lon="5.74154">
        <ele>904.20001220703</ele>
        <time>2021-07-18T05:26:00.000Z</time>
      </trkpt>
      <trkpt lat="45.23287" lon="5.74155">
        <ele>904.20001220703</ele>
        <time>2021-07-18T05:26:01.000Z</time>
      </trkpt>
      <trkpt lat="45.23289" lon="5.74157">
        <ele>904.20001220703</ele>
        <time>2021-07-18T05:26:02.000Z</time>
      </trkpt>
      <trkpt lat="45.23303" lon="5.74166">
        <ele>903.79998779297</ele>
        <time>2021-07-18T05:26:09.000Z</time>
      </trkpt>
      <trkpt lat="45.23317" lon="5.74174">
        <ele>903.59997558594</ele>
        <time>2021-07-18T05:26:16.000Z</time>
      </trkpt>
      <trkpt lat="45.23319" lon="5.74175">
        <ele>903.59997558594</ele>
        <time>2021-07-18T05:26:17.000Z</time>
      </trkpt>
      <trkpt lat="45.23332" lon="5.74181">
        <ele>904</ele>
        <time>2021-07-18T05:26:23.000Z</time>
      </trkpt>
      <trkpt lat="45.23333" lon="5.74183">
        <ele>904</ele>
        <time>2021-07-18T05:26:24.000Z</time>
      </trkpt>
      <trkpt lat="45.23336" lon="5.74185">
        <ele>904</ele>
        <time>2021-07-18T05:26:26.000Z</time>
      </trkpt>
      <trkpt lat="45.23344" lon="5.7419">
        <ele>904</ele>
        <time>2021-07-18T05:26:30.000Z</time>
      </trkpt>
      <trkpt lat="45.23358" lon="5.74206">
        <ele>903.40002441406</ele>
        <time>2021-07-18T05:26:38.000Z</time>
      </trkpt>
      <trkpt lat="45.2336" lon="5.74208">
        <ele>903.20001220703</ele>
        <time>2021-07-18T05:26:39.000Z</time>
      </trkpt>
      <trkpt lat="45.23374" lon="5.74219">
        <ele>902.79998779297</ele>
        <time>2021-07-18T05:26:45.000Z</time>
      </trkpt>
      <trkpt lat="45.23383" lon="5.74225">
        <ele>902.20001220703</ele>
        <time>2021-07-18T05:26:49.000Z</time>
      </trkpt>
      <trkpt lat="45.23385" lon="5.74228">
        <ele>902</ele>
        <time>2021-07-18T05:26:51.000Z</time>
      </trkpt>
      <trkpt lat="45.23396" lon="5.74237">
        <ele>901</ele>
        <time>2021-07-18T05:26:56.000Z</time>
      </trkpt>
      <trkpt lat="45.23404" lon="5.74242">
        <ele>900.59997558594</ele>
        <time>2021-07-18T05:27:00.000Z</time>
      </trkpt>
      <trkpt lat="45.23406" lon="5.74244">
        <ele>899.79998779297</ele>
        <time>2021-07-18T05:27:02.000Z</time>
      </trkpt>
      <trkpt lat="45.23411" lon="5.74248">
        <ele>899</ele>
        <time>2021-07-18T05:27:06.000Z</time>
      </trkpt>
      <trkpt lat="45.23412" lon="5.74249">
        <ele>898.79998779297</ele>
        <time>2021-07-18T05:27:07.000Z</time>
      </trkpt>
      <trkpt lat="45.23419" lon="5.74252">
        <ele>897.40002441406</ele>
        <time>2021-07-18T05:27:11.000Z</time>
      </trkpt>
      <trkpt lat="45.23424" lon="5.74254">
        <ele>896.40002441406</ele>
        <time>2021-07-18T05:27:14.000Z</time>
      </trkpt>
      <trkpt lat="45.23425" lon="5.74256">
        <ele>896.40002441406</ele>
        <time>2021-07-18T05:27:15.000Z</time>
      </trkpt>
      <trkpt lat="45.2343" lon="5.74259">
        <ele>895.20001220703</ele>
        <time>2021-07-18T05:27:20.000Z</time>
      </trkpt>
      <trkpt lat="45.23432" lon="5.7426">
        <ele>894.59997558594</ele>
        <time>2021-07-18T05:27:21.000Z</time>
      </trkpt>
      <trkpt lat="45.23437" lon="5.74264">
        <ele>894</ele>
        <time>2021-07-18T05:27:23.000Z</time>
      </trkpt>
      <trkpt lat="45.23443" lon="5.74268">
        <ele>892.79998779297</ele>
        <time>2021-07-18T05:27:27.000Z</time>
      </trkpt>
      <trkpt lat="45.23445" lon="5.7427">
        <ele>892.40002441406</ele>
        <time>2021-07-18T05:27:29.000Z</time>
      </trkpt>
      <trkpt lat="45.23446" lon="5.74271">
        <ele>891.79998779297</ele>
        <time>2021-07-18T05:27:31.000Z</time>
      </trkpt>
      <trkpt lat="45.23448" lon="5.74272">
        <ele>890.59997558594</ele>
        <time>2021-07-18T05:27:33.000Z</time>
      </trkpt>
      <trkpt lat="45.23448" lon="5.74273">
        <ele>890.59997558594</ele>
        <time>2021-07-18T05:27:34.000Z</time>
      </trkpt>
      <trkpt lat="45.23455" lon="5.74279">
        <ele>889.40002441406</ele>
        <time>2021-07-18T05:27:37.000Z</time>
      </trkpt>
      <trkpt lat="45.23457" lon="5.74281">
        <ele>888.40002441406</ele>
        <time>2021-07-18T05:27:38.000Z</time>
      </trkpt>
      <trkpt lat="45.23461" lon="5.74282">
        <ele>887.59997558594</ele>
        <time>2021-07-18T05:27:40.000Z</time>
      </trkpt>
      <trkpt lat="45.23464" lon="5.74285">
        <ele>886.59997558594</ele>
        <time>2021-07-18T05:27:44.000Z</time>
      </trkpt>
      <trkpt lat="45.23467" lon="5.74288">
        <ele>885.79998779297</ele>
        <time>2021-07-18T05:27:46.000Z</time>
      </trkpt>
      <trkpt lat="45.2347" lon="5.7429">
        <ele>885</ele>
        <time>2021-07-18T05:27:48.000Z</time>
      </trkpt>
      <trkpt lat="45.23473" lon="5.74291">
        <ele>884.20001220703</ele>
        <time>2021-07-18T05:27:50.000Z</time>
      </trkpt>
      <trkpt lat="45.23474" lon="5.74292">
        <ele>884</ele>
        <time>2021-07-18T05:27:51.000Z</time>
      </trkpt>
      <trkpt lat="45.23475" lon="5.74293">
        <ele>882.79998779297</ele>
        <time>2021-07-18T05:27:53.000Z</time>
      </trkpt>
      <trkpt lat="45.23475" lon="5.74293">
        <ele>882.40002441406</ele>
        <time>2021-07-18T05:27:54.000Z</time>
      </trkpt>
      <trkpt lat="45.23477" lon="5.74294">
        <ele>882.20001220703</ele>
        <time>2021-07-18T05:27:56.000Z</time>
      </trkpt>
      <trkpt lat="45.2348" lon="5.74294">
        <ele>882</ele>
        <time>2021-07-18T05:27:58.000Z</time>
      </trkpt>
      <trkpt lat="45.23482" lon="5.74295">
        <ele>881.59997558594</ele>
        <time>2021-07-18T05:27:59.000Z</time>
      </trkpt>
      <trkpt lat="45.23486" lon="5.74298">
        <ele>880.79998779297</ele>
        <time>2021-07-18T05:28:02.000Z</time>
      </trkpt>
      <trkpt lat="45.23487" lon="5.74298">
        <ele>880.20001220703</ele>
        <time>2021-07-18T05:28:03.000Z</time>
      </trkpt>
      <trkpt lat="45.23488" lon="5.74299">
        <ele>879.20001220703</ele>
        <time>2021-07-18T05:28:04.000Z</time>
      </trkpt>
      <trkpt lat="45.23495" lon="5.74299">
        <ele>877.79998779297</ele>
        <time>2021-07-18T05:28:09.000Z</time>
      </trkpt>
      <trkpt lat="45.23496" lon="5.74301">
        <ele>876.79998779297</ele>
        <time>2021-07-18T05:28:12.000Z</time>
      </trkpt>
      <trkpt lat="45.23497" lon="5.74302">
        <ele>876.59997558594</ele>
        <time>2021-07-18T05:28:13.000Z</time>
      </trkpt>
      <trkpt lat="45.23498" lon="5.74302">
        <ele>876.59997558594</ele>
        <time>2021-07-18T05:28:14.000Z</time>
      </trkpt>
      <trkpt lat="45.235" lon="5.74302">
        <ele>875</ele>
        <time>2021-07-18T05:28:16.000Z</time>
      </trkpt>
      <trkpt lat="45.23504" lon="5.74301">
        <ele>874.79998779297</ele>
        <time>2021-07-18T05:28:18.000Z</time>
      </trkpt>
      <trkpt lat="45.23509" lon="5.74303">
        <ele>874</ele>
        <time>2021-07-18T05:28:20.000Z</time>
      </trkpt>
      <trkpt lat="45.2351" lon="5.74303">
        <ele>873.79998779297</ele>
        <time>2021-07-18T05:28:21.000Z</time>
      </trkpt>
      <trkpt lat="45.23511" lon="5.74304">
        <ele>872.40002441406</ele>
        <time>2021-07-18T05:28:24.000Z</time>
      </trkpt>
      <trkpt lat="45.23513" lon="5.74302">
        <ele>871.79998779297</ele>
        <time>2021-07-18T05:28:26.000Z</time>
      </trkpt>
      <trkpt lat="45.23516" lon="5.74302">
        <ele>871.20001220703</ele>
        <time>2021-07-18T05:28:28.000Z</time>
      </trkpt>
      <trkpt lat="45.2352" lon="5.74301">
        <ele>870.79998779297</ele>
        <time>2021-07-18T05:28:31.000Z</time>
      </trkpt>
      <trkpt lat="45.23524" lon="5.743">
        <ele>869.59997558594</ele>
        <time>2021-07-18T05:28:33.000Z</time>
      </trkpt>
      <trkpt lat="45.23532" lon="5.74296">
        <ele>868.40002441406</ele>
        <time>2021-07-18T05:28:37.000Z</time>
      </trkpt>
      <trkpt lat="45.2354" lon="5.74293">
        <ele>867.40002441406</ele>
        <time>2021-07-18T05:28:40.000Z</time>
      </trkpt>
      <trkpt lat="45.23551" lon="5.74291">
        <ele>866.40002441406</ele>
        <time>2021-07-18T05:28:44.000Z</time>
      </trkpt>
      <trkpt lat="45.23553" lon="5.74291">
        <ele>864.79998779297</ele>
        <time>2021-07-18T05:28:45.000Z</time>
      </trkpt>
      <trkpt lat="45.23555" lon="5.7429">
        <ele>864.59997558594</ele>
        <time>2021-07-18T05:28:46.000Z</time>
      </trkpt>
      <trkpt lat="45.23559" lon="5.7429">
        <ele>864.40002441406</ele>
        <time>2021-07-18T05:28:48.000Z</time>
      </trkpt>
      <trkpt lat="45.23563" lon="5.7429">
        <ele>863.79998779297</ele>
        <time>2021-07-18T05:28:50.000Z</time>
      </trkpt>
      <trkpt lat="45.23565" lon="5.7429">
        <ele>863.40002441406</ele>
        <time>2021-07-18T05:28:52.000Z</time>
      </trkpt>
      <trkpt lat="45.23566" lon="5.74291">
        <ele>862.20001220703</ele>
        <time>2021-07-18T05:28:53.000Z</time>
      </trkpt>
      <trkpt lat="45.23567" lon="5.74295">
        <ele>862</ele>
        <time>2021-07-18T05:28:57.000Z</time>
      </trkpt>
      <trkpt lat="45.23566" lon="5.74296">
        <ele>862</ele>
        <time>2021-07-18T05:28:58.000Z</time>
      </trkpt>
      <trkpt lat="45.23565" lon="5.74299">
        <ele>862.79998779297</ele>
        <time>2021-07-18T05:29:01.000Z</time>
      </trkpt>
      <trkpt lat="45.23565" lon="5.74299">
        <ele>863</ele>
        <time>2021-07-18T05:29:03.000Z</time>
      </trkpt>
      <trkpt lat="45.23564" lon="5.74299">
        <ele>863.79998779297</ele>
        <time>2021-07-18T05:29:04.000Z</time>
      </trkpt>
      <trkpt lat="45.23563" lon="5.74299">
        <ele>863.79998779297</ele>
        <time>2021-07-18T05:29:05.000Z</time>
      </trkpt>
      <trkpt lat="45.23562" lon="5.74299">
        <ele>865</ele>
        <time>2021-07-18T05:29:07.000Z</time>
      </trkpt>
      <trkpt lat="45.23561" lon="5.743">
        <ele>865.20001220703</ele>
        <time>2021-07-18T05:29:08.000Z</time>
      </trkpt>
      <trkpt lat="45.23559" lon="5.74299">
        <ele>865.40002441406</ele>
        <time>2021-07-18T05:29:09.000Z</time>
      </trkpt>
      <trkpt lat="45.23558" lon="5.74299">
        <ele>865.40002441406</ele>
        <time>2021-07-18T05:29:10.000Z</time>
      </trkpt>
      <trkpt lat="45.23555" lon="5.743">
        <ele>866.59997558594</ele>
        <time>2021-07-18T05:29:14.000Z</time>
      </trkpt>
      <trkpt lat="45.23556" lon="5.74301">
        <ele>866.79998779297</ele>
        <time>2021-07-18T05:29:15.000Z</time>
      </trkpt>
      <trkpt lat="45.23556" lon="5.74301">
        <ele>867.20001220703</ele>
        <time>2021-07-18T05:29:16.000Z</time>
      </trkpt>
      <trkpt lat="45.23555" lon="5.74301">
        <ele>867.79998779297</ele>
        <time>2021-07-18T05:29:18.000Z</time>
      </trkpt>
      <trkpt lat="45.23549" lon="5.74304">
        <ele>868</ele>
        <time>2021-07-18T05:29:21.000Z</time>
      </trkpt>
      <trkpt lat="45.23548" lon="5.74304">
        <ele>868.59997558594</ele>
        <time>2021-07-18T05:29:22.000Z</time>
      </trkpt>
      <trkpt lat="45.23548" lon="5.74305">
        <ele>868.79998779297</ele>
        <time>2021-07-18T05:29:23.000Z</time>
      </trkpt>
      <trkpt lat="45.23547" lon="5.74305">
        <ele>868.79998779297</ele>
        <time>2021-07-18T05:29:24.000Z</time>
      </trkpt>
      <trkpt lat="45.23546" lon="5.74306">
        <ele>869.20001220703</ele>
        <time>2021-07-18T05:29:26.000Z</time>
      </trkpt>
      <trkpt lat="45.23546" lon="5.74305">
        <ele>870.20001220703</ele>
        <time>2021-07-18T05:29:27.000Z</time>
      </trkpt>
      <trkpt lat="45.23545" lon="5.74306">
        <ele>870.20001220703</ele>
        <time>2021-07-18T05:29:28.000Z</time>
      </trkpt>
      <trkpt lat="45.23544" lon="5.74308">
        <ele>870.40002441406</ele>
        <time>2021-07-18T05:29:30.000Z</time>
      </trkpt>
      <trkpt lat="45.23543" lon="5.74308">
        <ele>870.40002441406</ele>
        <time>2021-07-18T05:29:31.000Z</time>
      </trkpt>
      <trkpt lat="45.23543" lon="5.74309">
        <ele>871.20001220703</ele>
        <time>2021-07-18T05:29:32.000Z</time>
      </trkpt>
      <trkpt lat="45.23543" lon="5.74312">
        <ele>871.40002441406</ele>
        <time>2021-07-18T05:29:34.000Z</time>
      </trkpt>
      <trkpt lat="45.23541" lon="5.74314">
        <ele>871.59997558594</ele>
        <time>2021-07-18T05:29:35.000Z</time>
      </trkpt>
      <trkpt lat="45.23539" lon="5.74315">
        <ele>872.20001220703</ele>
        <time>2021-07-18T05:29:36.000Z</time>
      </trkpt>
      <trkpt lat="45.23538" lon="5.74316">
        <ele>872.40002441406</ele>
        <time>2021-07-18T05:29:37.000Z</time>
      </trkpt>
      <trkpt lat="45.23536" lon="5.74316">
        <ele>872.40002441406</ele>
        <time>2021-07-18T05:29:38.000Z</time>
      </trkpt>
      <trkpt lat="45.2353" lon="5.74317">
        <ele>873.40002441406</ele>
        <time>2021-07-18T05:29:42.000Z</time>
      </trkpt>
      <trkpt lat="45.23529" lon="5.74317">
        <ele>873.79998779297</ele>
        <time>2021-07-18T05:29:43.000Z</time>
      </trkpt>
      <trkpt lat="45.23529" lon="5.74316">
        <ele>873.79998779297</ele>
        <time>2021-07-18T05:29:44.000Z</time>
      </trkpt>
      <trkpt lat="45.23528" lon="5.74316">
        <ele>874.20001220703</ele>
        <time>2021-07-18T05:29:45.000Z</time>
      </trkpt>
      <trkpt lat="45.23526" lon="5.74317">
        <ele>874.40002441406</ele>
        <time>2021-07-18T05:29:47.000Z</time>
      </trkpt>
      <trkpt lat="45.23525" lon="5.74317">
        <ele>874.79998779297</ele>
        <time>2021-07-18T05:29:48.000Z</time>
      </trkpt>
      <trkpt lat="45.23522" lon="5.74317">
        <ele>875</ele>
        <time>2021-07-18T05:29:50.000Z</time>
      </trkpt>
      <trkpt lat="45.23521" lon="5.74317">
        <ele>875.40002441406</ele>
        <time>2021-07-18T05:29:51.000Z</time>
      </trkpt>
      <trkpt lat="45.23519" lon="5.74317">
        <ele>875.79998779297</ele>
        <time>2021-07-18T05:29:52.000Z</time>
      </trkpt>
      <trkpt lat="45.23518" lon="5.74317">
        <ele>875.79998779297</ele>
        <time>2021-07-18T05:29:53.000Z</time>
      </trkpt>
      <trkpt lat="45.23516" lon="5.74317">
        <ele>876.40002441406</ele>
        <time>2021-07-18T05:29:56.000Z</time>
      </trkpt>
      <trkpt lat="45.23516" lon="5.74317">
        <ele>876.79998779297</ele>
        <time>2021-07-18T05:29:57.000Z</time>
      </trkpt>
      <trkpt lat="45.23514" lon="5.74318">
        <ele>877.20001220703</ele>
        <time>2021-07-18T05:29:59.000Z</time>
      </trkpt>
      <trkpt lat="45.2351" lon="5.74317">
        <ele>878</ele>
        <time>2021-07-18T05:30:02.000Z</time>
      </trkpt>
      <trkpt lat="45.23509" lon="5.74317">
        <ele>878.20001220703</ele>
        <time>2021-07-18T05:30:03.000Z</time>
      </trkpt>
      <trkpt lat="45.23506" lon="5.74317">
        <ele>879</ele>
        <time>2021-07-18T05:30:05.000Z</time>
      </trkpt>
      <trkpt lat="45.23504" lon="5.74317">
        <ele>879.20001220703</ele>
        <time>2021-07-18T05:30:06.000Z</time>
      </trkpt>
      <trkpt lat="45.23497" lon="5.74319">
        <ele>880</ele>
        <time>2021-07-18T05:30:10.000Z</time>
      </trkpt>
      <trkpt lat="45.23495" lon="5.74319">
        <ele>881</ele>
        <time>2021-07-18T05:30:12.000Z</time>
      </trkpt>
      <trkpt lat="45.23493" lon="5.74319">
        <ele>881.20001220703</ele>
        <time>2021-07-18T05:30:14.000Z</time>
      </trkpt>
      <trkpt lat="45.23492" lon="5.74319">
        <ele>881.40002441406</ele>
        <time>2021-07-18T05:30:15.000Z</time>
      </trkpt>
      <trkpt lat="45.23488" lon="5.74318">
        <ele>882</ele>
        <time>2021-07-18T05:30:17.000Z</time>
      </trkpt>
      <trkpt lat="45.23486" lon="5.74317">
        <ele>882</ele>
        <time>2021-07-18T05:30:18.000Z</time>
      </trkpt>
      <trkpt lat="45.23484" lon="5.74315">
        <ele>883.20001220703</ele>
        <time>2021-07-18T05:30:21.000Z</time>
      </trkpt>
      <trkpt lat="45.23482" lon="5.74313">
        <ele>883.79998779297</ele>
        <time>2021-07-18T05:30:25.000Z</time>
      </trkpt>
      <trkpt lat="45.23481" lon="5.74311">
        <ele>884.40002441406</ele>
        <time>2021-07-18T05:30:26.000Z</time>
      </trkpt>
      <trkpt lat="45.23479" lon="5.7431">
        <ele>884.79998779297</ele>
        <time>2021-07-18T05:30:28.000Z</time>
      </trkpt>
      <trkpt lat="45.23477" lon="5.74308">
        <ele>885.40002441406</ele>
        <time>2021-07-18T05:30:30.000Z</time>
      </trkpt>
      <trkpt lat="45.23475" lon="5.74307">
        <ele>885.79998779297</ele>
        <time>2021-07-18T05:30:32.000Z</time>
      </trkpt>
      <trkpt lat="45.23474" lon="5.74306">
        <ele>886.40002441406</ele>
        <time>2021-07-18T05:30:34.000Z</time>
      </trkpt>
      <trkpt lat="45.23474" lon="5.74305">
        <ele>886.79998779297</ele>
        <time>2021-07-18T05:30:35.000Z</time>
      </trkpt>
      <trkpt lat="45.2347" lon="5.74305">
        <ele>887.40002441406</ele>
        <time>2021-07-18T05:30:37.000Z</time>
      </trkpt>
      <trkpt lat="45.23468" lon="5.74303">
        <ele>887.79998779297</ele>
        <time>2021-07-18T05:30:39.000Z</time>
      </trkpt>
      <trkpt lat="45.23468" lon="5.74303">
        <ele>888</ele>
        <time>2021-07-18T05:30:40.000Z</time>
      </trkpt>
      <trkpt lat="45.23465" lon="5.74302">
        <ele>888.79998779297</ele>
        <time>2021-07-18T05:30:42.000Z</time>
      </trkpt>
      <trkpt lat="45.2346" lon="5.74301">
        <ele>890.20001220703</ele>
        <time>2021-07-18T05:30:48.000Z</time>
      </trkpt>
      <trkpt lat="45.23456" lon="5.74299">
        <ele>890.59997558594</ele>
        <time>2021-07-18T05:30:50.000Z</time>
      </trkpt>
      <trkpt lat="45.23453" lon="5.74295">
        <ele>891.59997558594</ele>
        <time>2021-07-18T05:30:54.000Z</time>
      </trkpt>
      <trkpt lat="45.23446" lon="5.7429">
        <ele>892.79998779297</ele>
        <time>2021-07-18T05:30:59.000Z</time>
      </trkpt>
      <trkpt lat="45.23445" lon="5.74288">
        <ele>893.20001220703</ele>
        <time>2021-07-18T05:31:01.000Z</time>
      </trkpt>
      <trkpt lat="45.23444" lon="5.74287">
        <ele>893.40002441406</ele>
        <time>2021-07-18T05:31:02.000Z</time>
      </trkpt>
      <trkpt lat="45.23443" lon="5.74286">
        <ele>893.59997558594</ele>
        <time>2021-07-18T05:31:03.000Z</time>
      </trkpt>
      <trkpt lat="45.2344" lon="5.74284">
        <ele>894</ele>
        <time>2021-07-18T05:31:05.000Z</time>
      </trkpt>
      <trkpt lat="45.23438" lon="5.74282">
        <ele>894.59997558594</ele>
        <time>2021-07-18T05:31:07.000Z</time>
      </trkpt>
      <trkpt lat="45.23437" lon="5.74281">
        <ele>894.79998779297</ele>
        <time>2021-07-18T05:31:08.000Z</time>
      </trkpt>
      <trkpt lat="45.23435" lon="5.74279">
        <ele>895.20001220703</ele>
        <time>2021-07-18T05:31:10.000Z</time>
      </trkpt>
      <trkpt lat="45.23432" lon="5.74278">
        <ele>895.59997558594</ele>
        <time>2021-07-18T05:31:13.000Z</time>
      </trkpt>
      <trkpt lat="45.23429" lon="5.74278">
        <ele>896.20001220703</ele>
        <time>2021-07-18T05:31:15.000Z</time>
      </trkpt>
      <trkpt lat="45.23427" lon="5.74276">
        <ele>896.40002441406</ele>
        <time>2021-07-18T05:31:17.000Z</time>
      </trkpt>
      <trkpt lat="45.23425" lon="5.74276">
        <ele>896.79998779297</ele>
        <time>2021-07-18T05:31:18.000Z</time>
      </trkpt>
      <trkpt lat="45.23424" lon="5.74275">
        <ele>897.20001220703</ele>
        <time>2021-07-18T05:31:19.000Z</time>
      </trkpt>
      <trkpt lat="45.23422" lon="5.74274">
        <ele>897.40002441406</ele>
        <time>2021-07-18T05:31:20.000Z</time>
      </trkpt>
      <trkpt lat="45.23421" lon="5.74273">
        <ele>897.40002441406</ele>
        <time>2021-07-18T05:31:21.000Z</time>
      </trkpt>
      <trkpt lat="45.2342" lon="5.74271">
        <ele>898.20001220703</ele>
        <time>2021-07-18T05:31:24.000Z</time>
      </trkpt>
      <trkpt lat="45.23419" lon="5.74271">
        <ele>898.59997558594</ele>
        <time>2021-07-18T05:31:25.000Z</time>
      </trkpt>
      <trkpt lat="45.23416" lon="5.74268">
        <ele>899.20001220703</ele>
        <time>2021-07-18T05:31:29.000Z</time>
      </trkpt>
      <trkpt lat="45.23413" lon="5.74266">
        <ele>899.59997558594</ele>
        <time>2021-07-18T05:31:32.000Z</time>
      </trkpt>
      <trkpt lat="45.23411" lon="5.74264">
        <ele>900.20001220703</ele>
        <time>2021-07-18T05:31:34.000Z</time>
      </trkpt>
      <trkpt lat="45.23401" lon="5.7426">
        <ele>901</ele>
        <time>2021-07-18T05:31:39.000Z</time>
      </trkpt>
      <trkpt lat="45.23399" lon="5.7426">
        <ele>901</ele>
        <time>2021-07-18T05:31:40.000Z</time>
      </trkpt>
      <trkpt lat="45.23398" lon="5.74259">
        <ele>901.20001220703</ele>
        <time>2021-07-18T05:31:41.000Z</time>
      </trkpt>
      <trkpt lat="45.23392" lon="5.74258">
        <ele>901.79998779297</ele>
        <time>2021-07-18T05:31:45.000Z</time>
      </trkpt>
      <trkpt lat="45.23391" lon="5.74259">
        <ele>902</ele>
        <time>2021-07-18T05:31:47.000Z</time>
      </trkpt>
      <trkpt lat="45.23391" lon="5.74259">
        <ele>902</ele>
        <time>2021-07-18T05:31:48.000Z</time>
      </trkpt>
      <trkpt lat="45.23393" lon="5.7426">
        <ele>902</ele>
        <time>2021-07-18T05:31:50.000Z</time>
      </trkpt>
      <trkpt lat="45.23394" lon="5.7426">
        <ele>902</ele>
        <time>2021-07-18T05:31:53.000Z</time>
      </trkpt>
      <trkpt lat="45.23392" lon="5.74261">
        <ele>902</ele>
        <time>2021-07-18T05:31:57.000Z</time>
      </trkpt>
      <trkpt lat="45.23391" lon="5.74261">
        <ele>902</ele>
        <time>2021-07-18T05:32:00.000Z</time>
      </trkpt>
      <trkpt lat="45.23391" lon="5.74261">
        <ele>902</ele>
        <time>2021-07-18T05:32:03.000Z</time>
      </trkpt>
      <trkpt lat="45.23391" lon="5.74261">
        <ele>902</ele>
        <time>2021-07-18T05:32:05.000Z</time>
      </trkpt>
      <trkpt lat="45.23391" lon="5.74261">
        <ele>902</ele>
        <time>2021-07-18T05:32:08.000Z</time>
      </trkpt>
      <trkpt lat="45.23391" lon="5.74261">
        <ele>902</ele>
        <time>2021-07-18T05:32:10.000Z</time>
      </trkpt>
      <trkpt lat="45.23391" lon="5.74261">
        <ele>902</ele>
        <time>2021-07-18T05:32:12.000Z</time>
      </trkpt>
      <trkpt lat="45.23391" lon="5.74261">
        <ele>902</ele>
        <time>2021-07-18T05:32:14.000Z</time>
      </trkpt>
      <trkpt lat="45.23391" lon="5.74262">
        <ele>902</ele>
        <time>2021-07-18T05:32:16.000Z</time>
      </trkpt>
      <trkpt lat="45.23391" lon="5.74262">
        <ele>902</ele>
        <time>2021-07-18T05:32:20.000Z</time>
      </trkpt>
      <trkpt lat="45.23388" lon="5.74272">
        <ele>902</ele>
        <time>2021-07-18T05:32:25.000Z</time>
      </trkpt>
      <trkpt lat="45.23386" lon="5.74278">
        <ele>902</ele>
        <time>2021-07-18T05:32:27.000Z</time>
      </trkpt>
      <trkpt lat="45.23381" lon="5.7429">
        <ele>901.79998779297</ele>
        <time>2021-07-18T05:32:31.000Z</time>
      </trkpt>
      <trkpt lat="45.2338" lon="5.74292">
        <ele>901</ele>
        <time>2021-07-18T05:32:32.000Z</time>
      </trkpt>
      <trkpt lat="45.2338" lon="5.74294">
        <ele>901</ele>
        <time>2021-07-18T05:32:33.000Z</time>
      </trkpt>
      <trkpt lat="45.23377" lon="5.74306">
        <ele>900</ele>
        <time>2021-07-18T05:32:38.000Z</time>
      </trkpt>
      <trkpt lat="45.23368" lon="5.74324">
        <ele>899.20001220703</ele>
        <time>2021-07-18T05:32:45.000Z</time>
      </trkpt>
      <trkpt lat="45.23367" lon="5.74327">
        <ele>899</ele>
        <time>2021-07-18T05:32:46.000Z</time>
      </trkpt>
      <trkpt lat="45.23367" lon="5.7433">
        <ele>898.79998779297</ele>
        <time>2021-07-18T05:32:47.000Z</time>
      </trkpt>
      <trkpt lat="45.23368" lon="5.74332">
        <ele>898.79998779297</ele>
        <time>2021-07-18T05:32:48.000Z</time>
      </trkpt>
      <trkpt lat="45.23371" lon="5.74337">
        <ele>898.59997558594</ele>
        <time>2021-07-18T05:32:50.000Z</time>
      </trkpt>
      <trkpt lat="45.23379" lon="5.74347">
        <ele>897.40002441406</ele>
        <time>2021-07-18T05:32:55.000Z</time>
      </trkpt>
      <trkpt lat="45.23383" lon="5.74352">
        <ele>896.79998779297</ele>
        <time>2021-07-18T05:32:58.000Z</time>
      </trkpt>
      <trkpt lat="45.23384" lon="5.74357">
        <ele>896.20001220703</ele>
        <time>2021-07-18T05:33:00.000Z</time>
      </trkpt>
      <trkpt lat="45.2338" lon="5.74362">
        <ele>896</ele>
        <time>2021-07-18T05:33:02.000Z</time>
      </trkpt>
      <trkpt lat="45.23375" lon="5.74366">
        <ele>895.20001220703</ele>
        <time>2021-07-18T05:33:04.000Z</time>
      </trkpt>
      <trkpt lat="45.23374" lon="5.74367">
        <ele>895</ele>
        <time>2021-07-18T05:33:05.000Z</time>
      </trkpt>
      <trkpt lat="45.23367" lon="5.7437">
        <ele>894.40002441406</ele>
        <time>2021-07-18T05:33:09.000Z</time>
      </trkpt>
      <trkpt lat="45.23365" lon="5.7437">
        <ele>894</ele>
        <time>2021-07-18T05:33:10.000Z</time>
      </trkpt>
      <trkpt lat="45.2336" lon="5.74372">
        <ele>893.20001220703</ele>
        <time>2021-07-18T05:33:13.000Z</time>
      </trkpt>
      <trkpt lat="45.23355" lon="5.74373">
        <ele>892.59997558594</ele>
        <time>2021-07-18T05:33:15.000Z</time>
      </trkpt>
      <trkpt lat="45.23347" lon="5.74374">
        <ele>892</ele>
        <time>2021-07-18T05:33:19.000Z</time>
      </trkpt>
      <trkpt lat="45.23338" lon="5.74376">
        <ele>891.20001220703</ele>
        <time>2021-07-18T05:33:23.000Z</time>
      </trkpt>
      <trkpt lat="45.23329" lon="5.74375">
        <ele>891</ele>
        <time>2021-07-18T05:33:26.000Z</time>
      </trkpt>
      <trkpt lat="45.23324" lon="5.74374">
        <ele>890.20001220703</ele>
        <time>2021-07-18T05:33:28.000Z</time>
      </trkpt>
      <trkpt lat="45.2332" lon="5.74373">
        <ele>889.59997558594</ele>
        <time>2021-07-18T05:33:30.000Z</time>
      </trkpt>
      <trkpt lat="45.23319" lon="5.74372">
        <ele>889.40002441406</ele>
        <time>2021-07-18T05:33:31.000Z</time>
      </trkpt>
      <trkpt lat="45.23316" lon="5.7437">
        <ele>888.59997558594</ele>
        <time>2021-07-18T05:33:33.000Z</time>
      </trkpt>
      <trkpt lat="45.23313" lon="5.74367">
        <ele>888.40002441406</ele>
        <time>2021-07-18T05:33:35.000Z</time>
      </trkpt>
      <trkpt lat="45.23309" lon="5.74364">
        <ele>888</ele>
        <time>2021-07-18T05:33:37.000Z</time>
      </trkpt>
      <trkpt lat="45.23304" lon="5.7436">
        <ele>887</ele>
        <time>2021-07-18T05:33:40.000Z</time>
      </trkpt>
      <trkpt lat="45.23292" lon="5.74353">
        <ele>886</ele>
        <time>2021-07-18T05:33:45.000Z</time>
      </trkpt>
      <trkpt lat="45.23284" lon="5.74347">
        <ele>885.20001220703</ele>
        <time>2021-07-18T05:33:48.000Z</time>
      </trkpt>
      <trkpt lat="45.23281" lon="5.74344">
        <ele>884.79998779297</ele>
        <time>2021-07-18T05:33:50.000Z</time>
      </trkpt>
      <trkpt lat="45.2327" lon="5.74336">
        <ele>883.79998779297</ele>
        <time>2021-07-18T05:33:55.000Z</time>
      </trkpt>
      <trkpt lat="45.23261" lon="5.7433">
        <ele>882.59997558594</ele>
        <time>2021-07-18T05:33:59.000Z</time>
      </trkpt>
      <trkpt lat="45.23255" lon="5.74326">
        <ele>882.59997558594</ele>
        <time>2021-07-18T05:34:02.000Z</time>
      </trkpt>
      <trkpt lat="45.23253" lon="5.74324">
        <ele>881.59997558594</ele>
        <time>2021-07-18T05:34:03.000Z</time>
      </trkpt>
      <trkpt lat="45.23252" lon="5.74323">
        <ele>881.59997558594</ele>
        <time>2021-07-18T05:34:04.000Z</time>
      </trkpt>
      <trkpt lat="45.23247" lon="5.74318">
        <ele>881</ele>
        <time>2021-07-18T05:34:06.000Z</time>
      </trkpt>
      <trkpt lat="45.23246" lon="5.74317">
        <ele>880.59997558594</ele>
        <time>2021-07-18T05:34:07.000Z</time>
      </trkpt>
      <trkpt lat="45.23232" lon="5.74314">
        <ele>879.40002441406</ele>
        <time>2021-07-18T05:34:13.000Z</time>
      </trkpt>
      <trkpt lat="45.23224" lon="5.74311">
        <ele>878.20001220703</ele>
        <time>2021-07-18T05:34:16.000Z</time>
      </trkpt>
      <trkpt lat="45.23213" lon="5.74307">
        <ele>877.79998779297</ele>
        <time>2021-07-18T05:34:21.000Z</time>
      </trkpt>
      <trkpt lat="45.23211" lon="5.74306">
        <ele>877</ele>
        <time>2021-07-18T05:34:23.000Z</time>
      </trkpt>
      <trkpt lat="45.23205" lon="5.74304">
        <ele>875.59997558594</ele>
        <time>2021-07-18T05:34:26.000Z</time>
      </trkpt>
      <trkpt lat="45.23192" lon="5.743">
        <ele>875.20001220703</ele>
        <time>2021-07-18T05:34:32.000Z</time>
      </trkpt>
      <trkpt lat="45.2319" lon="5.74299">
        <ele>874.20001220703</ele>
        <time>2021-07-18T05:34:33.000Z</time>
      </trkpt>
      <trkpt lat="45.23179" lon="5.74292">
        <ele>873</ele>
        <time>2021-07-18T05:34:38.000Z</time>
      </trkpt>
      <trkpt lat="45.23177" lon="5.74291">
        <ele>873</ele>
        <time>2021-07-18T05:34:39.000Z</time>
      </trkpt>
      <trkpt lat="45.23171" lon="5.74288">
        <ele>871.79998779297</ele>
        <time>2021-07-18T05:34:42.000Z</time>
      </trkpt>
      <trkpt lat="45.23162" lon="5.74286">
        <ele>870.59997558594</ele>
        <time>2021-07-18T05:34:46.000Z</time>
      </trkpt>
      <trkpt lat="45.23155" lon="5.74285">
        <ele>870.40002441406</ele>
        <time>2021-07-18T05:34:48.000Z</time>
      </trkpt>
      <trkpt lat="45.23141" lon="5.74281">
        <ele>869.20001220703</ele>
        <time>2021-07-18T05:34:53.000Z</time>
      </trkpt>
      <trkpt lat="45.23138" lon="5.74279">
        <ele>868.79998779297</ele>
        <time>2021-07-18T05:34:55.000Z</time>
      </trkpt>
      <trkpt lat="45.23136" lon="5.74278">
        <ele>868.20001220703</ele>
        <time>2021-07-18T05:34:56.000Z</time>
      </trkpt>
      <trkpt lat="45.23133" lon="5.74277">
        <ele>868</ele>
        <time>2021-07-18T05:34:57.000Z</time>
      </trkpt>
      <trkpt lat="45.2313" lon="5.74278">
        <ele>867.59997558594</ele>
        <time>2021-07-18T05:35:00.000Z</time>
      </trkpt>
      <trkpt lat="45.23125" lon="5.74277">
        <ele>866.79998779297</ele>
        <time>2021-07-18T05:35:02.000Z</time>
      </trkpt>
      <trkpt lat="45.23114" lon="5.74273">
        <ele>866.20001220703</ele>
        <time>2021-07-18T05:35:06.000Z</time>
      </trkpt>
      <trkpt lat="45.2311" lon="5.74272">
        <ele>865.40002441406</ele>
        <time>2021-07-18T05:35:09.000Z</time>
      </trkpt>
      <trkpt lat="45.23104" lon="5.7427">
        <ele>865.20001220703</ele>
        <time>2021-07-18T05:35:12.000Z</time>
      </trkpt>
      <trkpt lat="45.23099" lon="5.74268">
        <ele>864.40002441406</ele>
        <time>2021-07-18T05:35:14.000Z</time>
      </trkpt>
      <trkpt lat="45.23096" lon="5.74266">
        <ele>863.40002441406</ele>
        <time>2021-07-18T05:35:16.000Z</time>
      </trkpt>
      <trkpt lat="45.23088" lon="5.74264">
        <ele>862.59997558594</ele>
        <time>2021-07-18T05:35:20.000Z</time>
      </trkpt>
      <trkpt lat="45.23087" lon="5.74262">
        <ele>862</ele>
        <time>2021-07-18T05:35:21.000Z</time>
      </trkpt>
      <trkpt lat="45.23072" lon="5.74257">
        <ele>861</ele>
        <time>2021-07-18T05:35:27.000Z</time>
      </trkpt>
      <trkpt lat="45.2307" lon="5.74257">
        <ele>860.40002441406</ele>
        <time>2021-07-18T05:35:28.000Z</time>
      </trkpt>
      <trkpt lat="45.23058" lon="5.74251">
        <ele>859.20001220703</ele>
        <time>2021-07-18T05:35:33.000Z</time>
      </trkpt>
      <trkpt lat="45.23043" lon="5.74246">
        <ele>858</ele>
        <time>2021-07-18T05:35:39.000Z</time>
      </trkpt>
      <trkpt lat="45.2304" lon="5.74244">
        <ele>858</ele>
        <time>2021-07-18T05:35:40.000Z</time>
      </trkpt>
      <trkpt lat="45.23033" lon="5.74241">
        <ele>857.20001220703</ele>
        <time>2021-07-18T05:35:43.000Z</time>
      </trkpt>
      <trkpt lat="45.23031" lon="5.7424">
        <ele>857</ele>
        <time>2021-07-18T05:35:44.000Z</time>
      </trkpt>
      <trkpt lat="45.2303" lon="5.74239">
        <ele>856.40002441406</ele>
        <time>2021-07-18T05:35:45.000Z</time>
      </trkpt>
      <trkpt lat="45.23015" lon="5.74233">
        <ele>855</ele>
        <time>2021-07-18T05:35:52.000Z</time>
      </trkpt>
      <trkpt lat="45.23007" lon="5.74228">
        <ele>854.40002441406</ele>
        <time>2021-07-18T05:35:56.000Z</time>
      </trkpt>
      <trkpt lat="45.23" lon="5.7423">
        <ele>853.59997558594</ele>
        <time>2021-07-18T05:35:58.000Z</time>
      </trkpt>
      <trkpt lat="45.22998" lon="5.7423">
        <ele>853.40002441406</ele>
        <time>2021-07-18T05:35:59.000Z</time>
      </trkpt>
      <trkpt lat="45.22992" lon="5.74229">
        <ele>852.59997558594</ele>
        <time>2021-07-18T05:36:01.000Z</time>
      </trkpt>
      <trkpt lat="45.22985" lon="5.74227">
        <ele>852.40002441406</ele>
        <time>2021-07-18T05:36:04.000Z</time>
      </trkpt>
      <trkpt lat="45.22979" lon="5.74225">
        <ele>851.59997558594</ele>
        <time>2021-07-18T05:36:06.000Z</time>
      </trkpt>
      <trkpt lat="45.22974" lon="5.74223">
        <ele>851.20001220703</ele>
        <time>2021-07-18T05:36:08.000Z</time>
      </trkpt>
      <trkpt lat="45.22969" lon="5.74221">
        <ele>850.59997558594</ele>
        <time>2021-07-18T05:36:10.000Z</time>
      </trkpt>
      <trkpt lat="45.22967" lon="5.74221">
        <ele>850.40002441406</ele>
        <time>2021-07-18T05:36:11.000Z</time>
      </trkpt>
      <trkpt lat="45.22961" lon="5.74217">
        <ele>849.20001220703</ele>
        <time>2021-07-18T05:36:14.000Z</time>
      </trkpt>
      <trkpt lat="45.22952" lon="5.74212">
        <ele>849</ele>
        <time>2021-07-18T05:36:17.000Z</time>
      </trkpt>
      <trkpt lat="45.22949" lon="5.74211">
        <ele>848.59997558594</ele>
        <time>2021-07-18T05:36:19.000Z</time>
      </trkpt>
      <trkpt lat="45.22947" lon="5.7421">
        <ele>847.79998779297</ele>
        <time>2021-07-18T05:36:21.000Z</time>
      </trkpt>
      <trkpt lat="45.2294" lon="5.74206">
        <ele>846.79998779297</ele>
        <time>2021-07-18T05:36:25.000Z</time>
      </trkpt>
      <trkpt lat="45.22938" lon="5.74205">
        <ele>846.59997558594</ele>
        <time>2021-07-18T05:36:26.000Z</time>
      </trkpt>
      <trkpt lat="45.22928" lon="5.74201">
        <ele>845.40002441406</ele>
        <time>2021-07-18T05:36:30.000Z</time>
      </trkpt>
      <trkpt lat="45.22912" lon="5.74192">
        <ele>844.79998779297</ele>
        <time>2021-07-18T05:36:36.000Z</time>
      </trkpt>
      <trkpt lat="45.2291" lon="5.74191">
        <ele>844.40002441406</ele>
        <time>2021-07-18T05:36:37.000Z</time>
      </trkpt>
      <trkpt lat="45.22904" lon="5.74189">
        <ele>842.79998779297</ele>
        <time>2021-07-18T05:36:40.000Z</time>
      </trkpt>
      <trkpt lat="45.22901" lon="5.74188">
        <ele>842.59997558594</ele>
        <time>2021-07-18T05:36:42.000Z</time>
      </trkpt>
      <trkpt lat="45.22895" lon="5.74186">
        <ele>842.20001220703</ele>
        <time>2021-07-18T05:36:44.000Z</time>
      </trkpt>
      <trkpt lat="45.2289" lon="5.74184">
        <ele>841.79998779297</ele>
        <time>2021-07-18T05:36:46.000Z</time>
      </trkpt>
      <trkpt lat="45.22887" lon="5.74183">
        <ele>841.40002441406</ele>
        <time>2021-07-18T05:36:47.000Z</time>
      </trkpt>
      <trkpt lat="45.22881" lon="5.74182">
        <ele>840.40002441406</ele>
        <time>2021-07-18T05:36:50.000Z</time>
      </trkpt>
      <trkpt lat="45.22876" lon="5.74177">
        <ele>840</ele>
        <time>2021-07-18T05:36:54.000Z</time>
      </trkpt>
      <trkpt lat="45.22872" lon="5.74174">
        <ele>839</ele>
        <time>2021-07-18T05:36:56.000Z</time>
      </trkpt>
      <trkpt lat="45.22862" lon="5.74167">
        <ele>838</ele>
        <time>2021-07-18T05:37:01.000Z</time>
      </trkpt>
      <trkpt lat="45.22855" lon="5.74164">
        <ele>836.79998779297</ele>
        <time>2021-07-18T05:37:04.000Z</time>
      </trkpt>
      <trkpt lat="45.22844" lon="5.74158">
        <ele>835.79998779297</ele>
        <time>2021-07-18T05:37:09.000Z</time>
      </trkpt>
      <trkpt lat="45.22842" lon="5.74158">
        <ele>835.59997558594</ele>
        <time>2021-07-18T05:37:10.000Z</time>
      </trkpt>
      <trkpt lat="45.22832" lon="5.74155">
        <ele>834.59997558594</ele>
        <time>2021-07-18T05:37:14.000Z</time>
      </trkpt>
      <trkpt lat="45.22827" lon="5.74152">
        <ele>834.20001220703</ele>
        <time>2021-07-18T05:37:16.000Z</time>
      </trkpt>
      <trkpt lat="45.22818" lon="5.74149">
        <ele>833.59997558594</ele>
        <time>2021-07-18T05:37:20.000Z</time>
      </trkpt>
      <trkpt lat="45.22814" lon="5.74149">
        <ele>832.59997558594</ele>
        <time>2021-07-18T05:37:22.000Z</time>
      </trkpt>
      <trkpt lat="45.22807" lon="5.74147">
        <ele>832</ele>
        <time>2021-07-18T05:37:25.000Z</time>
      </trkpt>
      <trkpt lat="45.22801" lon="5.74146">
        <ele>831.40002441406</ele>
        <time>2021-07-18T05:37:27.000Z</time>
      </trkpt>
      <trkpt lat="45.2279" lon="5.74143">
        <ele>831</ele>
        <time>2021-07-18T05:37:31.000Z</time>
      </trkpt>
      <trkpt lat="45.22784" lon="5.74142">
        <ele>830</ele>
        <time>2021-07-18T05:37:33.000Z</time>
      </trkpt>
      <trkpt lat="45.22773" lon="5.74136">
        <ele>829.40002441406</ele>
        <time>2021-07-18T05:37:38.000Z</time>
      </trkpt>
      <trkpt lat="45.2277" lon="5.74133">
        <ele>828.59997558594</ele>
        <time>2021-07-18T05:37:40.000Z</time>
      </trkpt>
      <trkpt lat="45.22767" lon="5.74131">
        <ele>828</ele>
        <time>2021-07-18T05:37:42.000Z</time>
      </trkpt>
      <trkpt lat="45.22765" lon="5.74131">
        <ele>828</ele>
        <time>2021-07-18T05:37:43.000Z</time>
      </trkpt>
      <trkpt lat="45.2276" lon="5.74128">
        <ele>827.40002441406</ele>
        <time>2021-07-18T05:37:45.000Z</time>
      </trkpt>
      <trkpt lat="45.22753" lon="5.74126">
        <ele>827</ele>
        <time>2021-07-18T05:37:48.000Z</time>
      </trkpt>
      <trkpt lat="45.2275" lon="5.74125">
        <ele>826.20001220703</ele>
        <time>2021-07-18T05:37:49.000Z</time>
      </trkpt>
      <trkpt lat="45.22737" lon="5.7412">
        <ele>825.40002441406</ele>
        <time>2021-07-18T05:37:54.000Z</time>
      </trkpt>
      <trkpt lat="45.22734" lon="5.74119">
        <ele>825.20001220703</ele>
        <time>2021-07-18T05:37:55.000Z</time>
      </trkpt>
      <trkpt lat="45.22723" lon="5.74117">
        <ele>823.79998779297</ele>
        <time>2021-07-18T05:37:59.000Z</time>
      </trkpt>
      <trkpt lat="45.22716" lon="5.74116">
        <ele>823.59997558594</ele>
        <time>2021-07-18T05:38:01.000Z</time>
      </trkpt>
      <trkpt lat="45.2271" lon="5.74114">
        <ele>822.40002441406</ele>
        <time>2021-07-18T05:38:03.000Z</time>
      </trkpt>
      <trkpt lat="45.22702" lon="5.74113">
        <ele>822.20001220703</ele>
        <time>2021-07-18T05:38:06.000Z</time>
      </trkpt>
      <trkpt lat="45.22698" lon="5.74112">
        <ele>821.40002441406</ele>
        <time>2021-07-18T05:38:08.000Z</time>
      </trkpt>
      <trkpt lat="45.22685" lon="5.74108">
        <ele>820</ele>
        <time>2021-07-18T05:38:13.000Z</time>
      </trkpt>
      <trkpt lat="45.2268" lon="5.74107">
        <ele>820</ele>
        <time>2021-07-18T05:38:15.000Z</time>
      </trkpt>
      <trkpt lat="45.22671" lon="5.74104">
        <ele>819</ele>
        <time>2021-07-18T05:38:18.000Z</time>
      </trkpt>
      <trkpt lat="45.2266" lon="5.74101">
        <ele>818</ele>
        <time>2021-07-18T05:38:22.000Z</time>
      </trkpt>
      <trkpt lat="45.2265" lon="5.74098">
        <ele>816.79998779297</ele>
        <time>2021-07-18T05:38:26.000Z</time>
      </trkpt>
      <trkpt lat="45.22643" lon="5.74095">
        <ele>816.20001220703</ele>
        <time>2021-07-18T05:38:30.000Z</time>
      </trkpt>
      <trkpt lat="45.22638" lon="5.74095">
        <ele>815.79998779297</ele>
        <time>2021-07-18T05:38:32.000Z</time>
      </trkpt>
      <trkpt lat="45.22628" lon="5.74092">
        <ele>814.79998779297</ele>
        <time>2021-07-18T05:38:36.000Z</time>
      </trkpt>
      <trkpt lat="45.22623" lon="5.7409">
        <ele>814.40002441406</ele>
        <time>2021-07-18T05:38:38.000Z</time>
      </trkpt>
      <trkpt lat="45.22618" lon="5.74089">
        <ele>813.40002441406</ele>
        <time>2021-07-18T05:38:40.000Z</time>
      </trkpt>
      <trkpt lat="45.22614" lon="5.74088">
        <ele>813.40002441406</ele>
        <time>2021-07-18T05:38:41.000Z</time>
      </trkpt>
      <trkpt lat="45.22609" lon="5.74087">
        <ele>812.79998779297</ele>
        <time>2021-07-18T05:38:43.000Z</time>
      </trkpt>
      <trkpt lat="45.22602" lon="5.74086">
        <ele>811.79998779297</ele>
        <time>2021-07-18T05:38:46.000Z</time>
      </trkpt>
      <trkpt lat="45.22599" lon="5.74085">
        <ele>811.59997558594</ele>
        <time>2021-07-18T05:38:48.000Z</time>
      </trkpt>
      <trkpt lat="45.22589" lon="5.74086">
        <ele>810.20001220703</ele>
        <time>2021-07-18T05:38:53.000Z</time>
      </trkpt>
      <trkpt lat="45.22585" lon="5.74086">
        <ele>809.59997558594</ele>
        <time>2021-07-18T05:38:55.000Z</time>
      </trkpt>
      <trkpt lat="45.22577" lon="5.74088">
        <ele>808.79998779297</ele>
        <time>2021-07-18T05:38:58.000Z</time>
      </trkpt>
      <trkpt lat="45.22571" lon="5.74092">
        <ele>808</ele>
        <time>2021-07-18T05:39:01.000Z</time>
      </trkpt>
      <trkpt lat="45.22561" lon="5.74098">
        <ele>807</ele>
        <time>2021-07-18T05:39:05.000Z</time>
      </trkpt>
      <trkpt lat="45.22552" lon="5.74104">
        <ele>806.59997558594</ele>
        <time>2021-07-18T05:39:09.000Z</time>
      </trkpt>
      <trkpt lat="45.22549" lon="5.74104">
        <ele>805.79998779297</ele>
        <time>2021-07-18T05:39:10.000Z</time>
      </trkpt>
      <trkpt lat="45.22535" lon="5.74105">
        <ele>804.59997558594</ele>
        <time>2021-07-18T05:39:15.000Z</time>
      </trkpt>
      <trkpt lat="45.22529" lon="5.74106">
        <ele>804.20001220703</ele>
        <time>2021-07-18T05:39:17.000Z</time>
      </trkpt>
      <trkpt lat="45.2252" lon="5.74107">
        <ele>803.20001220703</ele>
        <time>2021-07-18T05:39:20.000Z</time>
      </trkpt>
      <trkpt lat="45.22517" lon="5.74107">
        <ele>802.79998779297</ele>
        <time>2021-07-18T05:39:21.000Z</time>
      </trkpt>
      <trkpt lat="45.22508" lon="5.74108">
        <ele>802.20001220703</ele>
        <time>2021-07-18T05:39:25.000Z</time>
      </trkpt>
      <trkpt lat="45.22499" lon="5.74107">
        <ele>801.79998779297</ele>
        <time>2021-07-18T05:39:29.000Z</time>
      </trkpt>
      <trkpt lat="45.22496" lon="5.74106">
        <ele>801</ele>
        <time>2021-07-18T05:39:30.000Z</time>
      </trkpt>
      <trkpt lat="45.22483" lon="5.74105">
        <ele>799.40002441406</ele>
        <time>2021-07-18T05:39:35.000Z</time>
      </trkpt>
      <trkpt lat="45.22472" lon="5.74102">
        <ele>798.20001220703</ele>
        <time>2021-07-18T05:39:39.000Z</time>
      </trkpt>
      <trkpt lat="45.22466" lon="5.74101">
        <ele>798.20001220703</ele>
        <time>2021-07-18T05:39:41.000Z</time>
      </trkpt>
      <trkpt lat="45.22461" lon="5.74099">
        <ele>798</ele>
        <time>2021-07-18T05:39:43.000Z</time>
      </trkpt>
      <trkpt lat="45.22455" lon="5.74096">
        <ele>797.20001220703</ele>
        <time>2021-07-18T05:39:45.000Z</time>
      </trkpt>
      <trkpt lat="45.22452" lon="5.74095">
        <ele>796.79998779297</ele>
        <time>2021-07-18T05:39:46.000Z</time>
      </trkpt>
      <trkpt lat="45.2245" lon="5.74093">
        <ele>795.79998779297</ele>
        <time>2021-07-18T05:39:47.000Z</time>
      </trkpt>
      <trkpt lat="45.22443" lon="5.7409">
        <ele>795.40002441406</ele>
        <time>2021-07-18T05:39:50.000Z</time>
      </trkpt>
      <trkpt lat="45.22438" lon="5.74089">
        <ele>795</ele>
        <time>2021-07-18T05:39:52.000Z</time>
      </trkpt>
      <trkpt lat="45.22436" lon="5.74088">
        <ele>794.79998779297</ele>
        <time>2021-07-18T05:39:53.000Z</time>
      </trkpt>
      <trkpt lat="45.22431" lon="5.74086">
        <ele>794.20001220703</ele>
        <time>2021-07-18T05:39:55.000Z</time>
      </trkpt>
      <trkpt lat="45.22428" lon="5.74084">
        <ele>793.59997558594</ele>
        <time>2021-07-18T05:39:57.000Z</time>
      </trkpt>
      <trkpt lat="45.22421" lon="5.7408">
        <ele>792.79998779297</ele>
        <time>2021-07-18T05:40:00.000Z</time>
      </trkpt>
      <trkpt lat="45.22417" lon="5.74076">
        <ele>792.20001220703</ele>
        <time>2021-07-18T05:40:02.000Z</time>
      </trkpt>
      <trkpt lat="45.22415" lon="5.74073">
        <ele>791.59997558594</ele>
        <time>2021-07-18T05:40:04.000Z</time>
      </trkpt>
      <trkpt lat="45.22413" lon="5.74071">
        <ele>791</ele>
        <time>2021-07-18T05:40:05.000Z</time>
      </trkpt>
      <trkpt lat="45.2241" lon="5.74068">
        <ele>790.79998779297</ele>
        <time>2021-07-18T05:40:07.000Z</time>
      </trkpt>
      <trkpt lat="45.22403" lon="5.74066">
        <ele>790.40002441406</ele>
        <time>2021-07-18T05:40:11.000Z</time>
      </trkpt>
      <trkpt lat="45.22401" lon="5.74067">
        <ele>789.79998779297</ele>
        <time>2021-07-18T05:40:12.000Z</time>
      </trkpt>
      <trkpt lat="45.22397" lon="5.74066">
        <ele>789.59997558594</ele>
        <time>2021-07-18T05:40:14.000Z</time>
      </trkpt>
      <trkpt lat="45.22392" lon="5.74066">
        <ele>789.59997558594</ele>
        <time>2021-07-18T05:40:16.000Z</time>
      </trkpt>
      <trkpt lat="45.2239" lon="5.74066">
        <ele>789.59997558594</ele>
        <time>2021-07-18T05:40:17.000Z</time>
      </trkpt>
      <trkpt lat="45.22387" lon="5.74065">
        <ele>789.40002441406</ele>
        <time>2021-07-18T05:40:18.000Z</time>
      </trkpt>
      <trkpt lat="45.22385" lon="5.74063">
        <ele>789.40002441406</ele>
        <time>2021-07-18T05:40:19.000Z</time>
      </trkpt>
      <trkpt lat="45.22381" lon="5.74059">
        <ele>790.20001220703</ele>
        <time>2021-07-18T05:40:21.000Z</time>
      </trkpt>
      <trkpt lat="45.22365" lon="5.7405">
        <ele>790</ele>
        <time>2021-07-18T05:40:27.000Z</time>
      </trkpt>
      <trkpt lat="45.22354" lon="5.74038">
        <ele>788.79998779297</ele>
        <time>2021-07-18T05:40:32.000Z</time>
      </trkpt>
      <trkpt lat="45.22342" lon="5.74033">
        <ele>787.59997558594</ele>
        <time>2021-07-18T05:40:38.000Z</time>
      </trkpt>
      <trkpt lat="45.22336" lon="5.7403">
        <ele>786.59997558594</ele>
        <time>2021-07-18T05:40:42.000Z</time>
      </trkpt>
      <trkpt lat="45.22333" lon="5.74028">
        <ele>786.59997558594</ele>
        <time>2021-07-18T05:40:44.000Z</time>
      </trkpt>
      <trkpt lat="45.22331" lon="5.74027">
        <ele>786.40002441406</ele>
        <time>2021-07-18T05:40:45.000Z</time>
      </trkpt>
      <trkpt lat="45.22324" lon="5.74027">
        <ele>785.79998779297</ele>
        <time>2021-07-18T05:40:48.000Z</time>
      </trkpt>
      <trkpt lat="45.22322" lon="5.74026">
        <ele>785.79998779297</ele>
        <time>2021-07-18T05:40:49.000Z</time>
      </trkpt>
      <trkpt lat="45.22319" lon="5.74025">
        <ele>785.20001220703</ele>
        <time>2021-07-18T05:40:50.000Z</time>
      </trkpt>
      <trkpt lat="45.22309" lon="5.7402">
        <ele>784.20001220703</ele>
        <time>2021-07-18T05:40:54.000Z</time>
      </trkpt>
      <trkpt lat="45.22306" lon="5.74017">
        <ele>783.79998779297</ele>
        <time>2021-07-18T05:40:55.000Z</time>
      </trkpt>
      <trkpt lat="45.223" lon="5.74014">
        <ele>782.79998779297</ele>
        <time>2021-07-18T05:40:57.000Z</time>
      </trkpt>
      <trkpt lat="45.22292" lon="5.7401">
        <ele>782.40002441406</ele>
        <time>2021-07-18T05:41:00.000Z</time>
      </trkpt>
      <trkpt lat="45.2229" lon="5.74008">
        <ele>782.20001220703</ele>
        <time>2021-07-18T05:41:01.000Z</time>
      </trkpt>
      <trkpt lat="45.22288" lon="5.74006">
        <ele>781.40002441406</ele>
        <time>2021-07-18T05:41:02.000Z</time>
      </trkpt>
      <trkpt lat="45.22279" lon="5.74">
        <ele>780.79998779297</ele>
        <time>2021-07-18T05:41:06.000Z</time>
      </trkpt>
      <trkpt lat="45.22277" lon="5.73999">
        <ele>780.40002441406</ele>
        <time>2021-07-18T05:41:07.000Z</time>
      </trkpt>
      <trkpt lat="45.22261" lon="5.73989">
        <ele>779.20001220703</ele>
        <time>2021-07-18T05:41:14.000Z</time>
      </trkpt>
      <trkpt lat="45.22259" lon="5.73988">
        <ele>779.20001220703</ele>
        <time>2021-07-18T05:41:15.000Z</time>
      </trkpt>
      <trkpt lat="45.2225" lon="5.73984">
        <ele>778.59997558594</ele>
        <time>2021-07-18T05:41:19.000Z</time>
      </trkpt>
      <trkpt lat="45.22249" lon="5.73983">
        <ele>778.59997558594</ele>
        <time>2021-07-18T05:41:20.000Z</time>
      </trkpt>
      <trkpt lat="45.22244" lon="5.7398">
        <ele>777.79998779297</ele>
        <time>2021-07-18T05:41:22.000Z</time>
      </trkpt>
      <trkpt lat="45.22236" lon="5.7397">
        <ele>777.20001220703</ele>
        <time>2021-07-18T05:41:26.000Z</time>
      </trkpt>
      <trkpt lat="45.22236" lon="5.73968">
        <ele>777.20001220703</ele>
        <time>2021-07-18T05:41:27.000Z</time>
      </trkpt>
      <trkpt lat="45.22235" lon="5.73965">
        <ele>776.79998779297</ele>
        <time>2021-07-18T05:41:28.000Z</time>
      </trkpt>
      <trkpt lat="45.22234" lon="5.7396">
        <ele>776.20001220703</ele>
        <time>2021-07-18T05:41:30.000Z</time>
      </trkpt>
      <trkpt lat="45.2223" lon="5.73956">
        <ele>775</ele>
        <time>2021-07-18T05:41:33.000Z</time>
      </trkpt>
      <trkpt lat="45.22225" lon="5.73952">
        <ele>774.59997558594</ele>
        <time>2021-07-18T05:41:35.000Z</time>
      </trkpt>
      <trkpt lat="45.22219" lon="5.73948">
        <ele>773.59997558594</ele>
        <time>2021-07-18T05:41:37.000Z</time>
      </trkpt>
      <trkpt lat="45.22216" lon="5.73945">
        <ele>773.59997558594</ele>
        <time>2021-07-18T05:41:38.000Z</time>
      </trkpt>
      <trkpt lat="45.22215" lon="5.73943">
        <ele>773.59997558594</ele>
        <time>2021-07-18T05:41:39.000Z</time>
      </trkpt>
      <trkpt lat="45.22214" lon="5.73941">
        <ele>773.20001220703</ele>
        <time>2021-07-18T05:41:40.000Z</time>
      </trkpt>
      <trkpt lat="45.22205" lon="5.73933">
        <ele>772.40002441406</ele>
        <time>2021-07-18T05:41:43.000Z</time>
      </trkpt>
      <trkpt lat="45.22201" lon="5.73932">
        <ele>772.40002441406</ele>
        <time>2021-07-18T05:41:44.000Z</time>
      </trkpt>
      <trkpt lat="45.22197" lon="5.73931">
        <ele>771.79998779297</ele>
        <time>2021-07-18T05:41:45.000Z</time>
      </trkpt>
      <trkpt lat="45.22189" lon="5.73928">
        <ele>771</ele>
        <time>2021-07-18T05:41:47.000Z</time>
      </trkpt>
      <trkpt lat="45.2218" lon="5.73921">
        <ele>770</ele>
        <time>2021-07-18T05:41:51.000Z</time>
      </trkpt>
      <trkpt lat="45.22177" lon="5.7392">
        <ele>769.59997558594</ele>
        <time>2021-07-18T05:41:52.000Z</time>
      </trkpt>
      <trkpt lat="45.22162" lon="5.73914">
        <ele>767.79998779297</ele>
        <time>2021-07-18T05:41:57.000Z</time>
      </trkpt>
      <trkpt lat="45.22155" lon="5.73912">
        <ele>767.59997558594</ele>
        <time>2021-07-18T05:42:00.000Z</time>
      </trkpt>
      <trkpt lat="45.22144" lon="5.73908">
        <ele>765.79998779297</ele>
        <time>2021-07-18T05:42:04.000Z</time>
      </trkpt>
      <trkpt lat="45.22139" lon="5.73906">
        <ele>765.59997558594</ele>
        <time>2021-07-18T05:42:06.000Z</time>
      </trkpt>
      <trkpt lat="45.22129" lon="5.73901">
        <ele>764.79998779297</ele>
        <time>2021-07-18T05:42:09.000Z</time>
      </trkpt>
      <trkpt lat="45.22122" lon="5.73899">
        <ele>764.59997558594</ele>
        <time>2021-07-18T05:42:11.000Z</time>
      </trkpt>
      <trkpt lat="45.22108" lon="5.7389">
        <ele>763.40002441406</ele>
        <time>2021-07-18T05:42:15.000Z</time>
      </trkpt>
      <trkpt lat="45.22098" lon="5.73886">
        <ele>763</ele>
        <time>2021-07-18T05:42:19.000Z</time>
      </trkpt>
      <trkpt lat="45.22091" lon="5.73882">
        <ele>762.20001220703</ele>
        <time>2021-07-18T05:42:21.000Z</time>
      </trkpt>
      <trkpt lat="45.22081" lon="5.73872">
        <ele>762.20001220703</ele>
        <time>2021-07-18T05:42:25.000Z</time>
      </trkpt>
      <trkpt lat="45.22072" lon="5.73867">
        <ele>762.59997558594</ele>
        <time>2021-07-18T05:42:29.000Z</time>
      </trkpt>
      <trkpt lat="45.22068" lon="5.73865">
        <ele>763</ele>
        <time>2021-07-18T05:42:31.000Z</time>
      </trkpt>
      <trkpt lat="45.22065" lon="5.73864">
        <ele>763.40002441406</ele>
        <time>2021-07-18T05:42:32.000Z</time>
      </trkpt>
      <trkpt lat="45.22047" lon="5.73859">
        <ele>764.20001220703</ele>
        <time>2021-07-18T05:42:38.000Z</time>
      </trkpt>
      <trkpt lat="45.22046" lon="5.73858">
        <ele>764.40002441406</ele>
        <time>2021-07-18T05:42:39.000Z</time>
      </trkpt>
      <trkpt lat="45.22042" lon="5.73851">
        <ele>765.20001220703</ele>
        <time>2021-07-18T05:42:42.000Z</time>
      </trkpt>
      <trkpt lat="45.22036" lon="5.73847">
        <ele>765.59997558594</ele>
        <time>2021-07-18T05:42:45.000Z</time>
      </trkpt>
      <trkpt lat="45.22033" lon="5.73845">
        <ele>765.79998779297</ele>
        <time>2021-07-18T05:42:47.000Z</time>
      </trkpt>
      <trkpt lat="45.22025" lon="5.73839">
        <ele>766.59997558594</ele>
        <time>2021-07-18T05:42:51.000Z</time>
      </trkpt>
      <trkpt lat="45.2202" lon="5.73836">
        <ele>767</ele>
        <time>2021-07-18T05:42:53.000Z</time>
      </trkpt>
      <trkpt lat="45.22011" lon="5.73828">
        <ele>767.79998779297</ele>
        <time>2021-07-18T05:42:57.000Z</time>
      </trkpt>
      <trkpt lat="45.22009" lon="5.73828">
        <ele>768</ele>
        <time>2021-07-18T05:42:58.000Z</time>
      </trkpt>
      <trkpt lat="45.22007" lon="5.73827">
        <ele>768.20001220703</ele>
        <time>2021-07-18T05:42:59.000Z</time>
      </trkpt>
      <trkpt lat="45.22004" lon="5.73826">
        <ele>769.20001220703</ele>
        <time>2021-07-18T05:43:01.000Z</time>
      </trkpt>
      <trkpt lat="45.22002" lon="5.73825">
        <ele>769.59997558594</ele>
        <time>2021-07-18T05:43:03.000Z</time>
      </trkpt>
      <trkpt lat="45.22" lon="5.73825">
        <ele>769.59997558594</ele>
        <time>2021-07-18T05:43:04.000Z</time>
      </trkpt>
      <trkpt lat="45.21997" lon="5.73822">
        <ele>770.79998779297</ele>
        <time>2021-07-18T05:43:06.000Z</time>
      </trkpt>
      <trkpt lat="45.21993" lon="5.73819">
        <ele>771</ele>
        <time>2021-07-18T05:43:08.000Z</time>
      </trkpt>
      <trkpt lat="45.21991" lon="5.73817">
        <ele>771.79998779297</ele>
        <time>2021-07-18T05:43:09.000Z</time>
      </trkpt>
      <trkpt lat="45.21984" lon="5.73812">
        <ele>772.40002441406</ele>
        <time>2021-07-18T05:43:12.000Z</time>
      </trkpt>
      <trkpt lat="45.2198" lon="5.73807">
        <ele>772.79998779297</ele>
        <time>2021-07-18T05:43:14.000Z</time>
      </trkpt>
      <trkpt lat="45.21979" lon="5.73805">
        <ele>773</ele>
        <time>2021-07-18T05:43:15.000Z</time>
      </trkpt>
      <trkpt lat="45.21976" lon="5.73801">
        <ele>773.59997558594</ele>
        <time>2021-07-18T05:43:17.000Z</time>
      </trkpt>
      <trkpt lat="45.21973" lon="5.73798">
        <ele>773.79998779297</ele>
        <time>2021-07-18T05:43:19.000Z</time>
      </trkpt>
      <trkpt lat="45.21972" lon="5.73796">
        <ele>774</ele>
        <time>2021-07-18T05:43:20.000Z</time>
      </trkpt>
      <trkpt lat="45.21965" lon="5.73782">
        <ele>774.79998779297</ele>
        <time>2021-07-18T05:43:25.000Z</time>
      </trkpt>
      <trkpt lat="45.21964" lon="5.73779">
        <ele>775</ele>
        <time>2021-07-18T05:43:26.000Z</time>
      </trkpt>
      <trkpt lat="45.21961" lon="5.73769">
        <ele>775.79998779297</ele>
        <time>2021-07-18T05:43:29.000Z</time>
      </trkpt>
      <trkpt lat="45.21959" lon="5.73765">
        <ele>775.79998779297</ele>
        <time>2021-07-18T05:43:30.000Z</time>
      </trkpt>
      <trkpt lat="45.21956" lon="5.73762">
        <ele>776</ele>
        <time>2021-07-18T05:43:32.000Z</time>
      </trkpt>
      <trkpt lat="45.21953" lon="5.73756">
        <ele>776.20001220703</ele>
        <time>2021-07-18T05:43:35.000Z</time>
      </trkpt>
      <trkpt lat="45.21948" lon="5.7375">
        <ele>777</ele>
        <time>2021-07-18T05:43:38.000Z</time>
      </trkpt>
      <trkpt lat="45.21948" lon="5.73749">
        <ele>777.20001220703</ele>
        <time>2021-07-18T05:43:39.000Z</time>
      </trkpt>
      <trkpt lat="45.21948" lon="5.73747">
        <ele>777.40002441406</ele>
        <time>2021-07-18T05:43:40.000Z</time>
      </trkpt>
      <trkpt lat="45.21942" lon="5.73739">
        <ele>778.20001220703</ele>
        <time>2021-07-18T05:43:44.000Z</time>
      </trkpt>
      <trkpt lat="45.2194" lon="5.73733">
        <ele>779</ele>
        <time>2021-07-18T05:43:47.000Z</time>
      </trkpt>
      <trkpt lat="45.21939" lon="5.73731">
        <ele>779</ele>
        <time>2021-07-18T05:43:48.000Z</time>
      </trkpt>
      <trkpt lat="45.21937" lon="5.7373">
        <ele>779.59997558594</ele>
        <time>2021-07-18T05:43:49.000Z</time>
      </trkpt>
      <trkpt lat="45.21928" lon="5.73724">
        <ele>780.40002441406</ele>
        <time>2021-07-18T05:43:54.000Z</time>
      </trkpt>
      <trkpt lat="45.21926" lon="5.73723">
        <ele>781.40002441406</ele>
        <time>2021-07-18T05:43:55.000Z</time>
      </trkpt>
      <trkpt lat="45.21925" lon="5.73722">
        <ele>781.40002441406</ele>
        <time>2021-07-18T05:43:56.000Z</time>
      </trkpt>
      <trkpt lat="45.21921" lon="5.73718">
        <ele>782.40002441406</ele>
        <time>2021-07-18T05:44:00.000Z</time>
      </trkpt>
      <trkpt lat="45.2192" lon="5.73718">
        <ele>782.59997558594</ele>
        <time>2021-07-18T05:44:01.000Z</time>
      </trkpt>
      <trkpt lat="45.21916" lon="5.73717">
        <ele>783.79998779297</ele>
        <time>2021-07-18T05:44:04.000Z</time>
      </trkpt>
      <trkpt lat="45.21912" lon="5.73716">
        <ele>784.79998779297</ele>
        <time>2021-07-18T05:44:06.000Z</time>
      </trkpt>
      <trkpt lat="45.21907" lon="5.73715">
        <ele>786</ele>
        <time>2021-07-18T05:44:09.000Z</time>
      </trkpt>
      <trkpt lat="45.21905" lon="5.73716">
        <ele>786</ele>
        <time>2021-07-18T05:44:10.000Z</time>
      </trkpt>
      <trkpt lat="45.21904" lon="5.73716">
        <ele>786.59997558594</ele>
        <time>2021-07-18T05:44:11.000Z</time>
      </trkpt>
      <trkpt lat="45.21903" lon="5.73715">
        <ele>786.79998779297</ele>
        <time>2021-07-18T05:44:12.000Z</time>
      </trkpt>
      <trkpt lat="45.21902" lon="5.73715">
        <ele>787</ele>
        <time>2021-07-18T05:44:13.000Z</time>
      </trkpt>
      <trkpt lat="45.21899" lon="5.73713">
        <ele>788.40002441406</ele>
        <time>2021-07-18T05:44:15.000Z</time>
      </trkpt>
      <trkpt lat="45.21894" lon="5.73711">
        <ele>789</ele>
        <time>2021-07-18T05:44:18.000Z</time>
      </trkpt>
      <trkpt lat="45.21893" lon="5.7371">
        <ele>789.20001220703</ele>
        <time>2021-07-18T05:44:19.000Z</time>
      </trkpt>
      <trkpt lat="45.21891" lon="5.73708">
        <ele>789.40002441406</ele>
        <time>2021-07-18T05:44:20.000Z</time>
      </trkpt>
      <trkpt lat="45.2189" lon="5.73706">
        <ele>789.59997558594</ele>
        <time>2021-07-18T05:44:21.000Z</time>
      </trkpt>
      <trkpt lat="45.21889" lon="5.73704">
        <ele>790</ele>
        <time>2021-07-18T05:44:22.000Z</time>
      </trkpt>
      <trkpt lat="45.21888" lon="5.737">
        <ele>790.20001220703</ele>
        <time>2021-07-18T05:44:24.000Z</time>
      </trkpt>
      <trkpt lat="45.21887" lon="5.73698">
        <ele>790.20001220703</ele>
        <time>2021-07-18T05:44:25.000Z</time>
      </trkpt>
      <trkpt lat="45.2188" lon="5.73688">
        <ele>790.40002441406</ele>
        <time>2021-07-18T05:44:29.000Z</time>
      </trkpt>
      <trkpt lat="45.21878" lon="5.73687">
        <ele>790.40002441406</ele>
        <time>2021-07-18T05:44:30.000Z</time>
      </trkpt>
      <trkpt lat="45.21869" lon="5.73679">
        <ele>790</ele>
        <time>2021-07-18T05:44:34.000Z</time>
      </trkpt>
      <trkpt lat="45.21864" lon="5.73675">
        <ele>790</ele>
        <time>2021-07-18T05:44:36.000Z</time>
      </trkpt>
      <trkpt lat="45.21858" lon="5.7367">
        <ele>789.79998779297</ele>
        <time>2021-07-18T05:44:39.000Z</time>
      </trkpt>
      <trkpt lat="45.21852" lon="5.73663">
        <ele>789.79998779297</ele>
        <time>2021-07-18T05:44:42.000Z</time>
      </trkpt>
      <trkpt lat="45.2184" lon="5.73651">
        <ele>790</ele>
        <time>2021-07-18T05:44:47.000Z</time>
      </trkpt>
      <trkpt lat="45.21839" lon="5.73647">
        <ele>790.20001220703</ele>
        <time>2021-07-18T05:44:48.000Z</time>
      </trkpt>
      <trkpt lat="45.21838" lon="5.73641">
        <ele>790.59997558594</ele>
        <time>2021-07-18T05:44:50.000Z</time>
      </trkpt>
      <trkpt lat="45.21837" lon="5.73639">
        <ele>791</ele>
        <time>2021-07-18T05:44:51.000Z</time>
      </trkpt>
      <trkpt lat="45.21833" lon="5.73634">
        <ele>791</ele>
        <time>2021-07-18T05:44:54.000Z</time>
      </trkpt>
      <trkpt lat="45.21831" lon="5.73632">
        <ele>790.79998779297</ele>
        <time>2021-07-18T05:44:56.000Z</time>
      </trkpt>
      <trkpt lat="45.21825" lon="5.73627">
        <ele>789.59997558594</ele>
        <time>2021-07-18T05:45:00.000Z</time>
      </trkpt>
      <trkpt lat="45.21824" lon="5.73626">
        <ele>789.59997558594</ele>
        <time>2021-07-18T05:45:01.000Z</time>
      </trkpt>
      <trkpt lat="45.21823" lon="5.73624">
        <ele>789.59997558594</ele>
        <time>2021-07-18T05:45:02.000Z</time>
      </trkpt>
      <trkpt lat="45.21814" lon="5.73618">
        <ele>789</ele>
        <time>2021-07-18T05:45:07.000Z</time>
      </trkpt>
      <trkpt lat="45.2181" lon="5.73617">
        <ele>788.79998779297</ele>
        <time>2021-07-18T05:45:09.000Z</time>
      </trkpt>
      <trkpt lat="45.21806" lon="5.73607">
        <ele>788.40002441406</ele>
        <time>2021-07-18T05:45:12.000Z</time>
      </trkpt>
      <trkpt lat="45.21803" lon="5.73604">
        <ele>788</ele>
        <time>2021-07-18T05:45:13.000Z</time>
      </trkpt>
      <trkpt lat="45.21792" lon="5.73592">
        <ele>787.79998779297</ele>
        <time>2021-07-18T05:45:19.000Z</time>
      </trkpt>
      <trkpt lat="45.21788" lon="5.73587">
        <ele>787.40002441406</ele>
        <time>2021-07-18T05:45:21.000Z</time>
      </trkpt>
      <trkpt lat="45.21787" lon="5.73585">
        <ele>787.79998779297</ele>
        <time>2021-07-18T05:45:22.000Z</time>
      </trkpt>
      <trkpt lat="45.21784" lon="5.73579">
        <ele>787.79998779297</ele>
        <time>2021-07-18T05:45:24.000Z</time>
      </trkpt>
      <trkpt lat="45.2178" lon="5.73569">
        <ele>788.79998779297</ele>
        <time>2021-07-18T05:45:29.000Z</time>
      </trkpt>
      <trkpt lat="45.2178" lon="5.73568">
        <ele>789</ele>
        <time>2021-07-18T05:45:30.000Z</time>
      </trkpt>
      <trkpt lat="45.21779" lon="5.73566">
        <ele>789</ele>
        <time>2021-07-18T05:45:33.000Z</time>
      </trkpt>
      <trkpt lat="45.21779" lon="5.73566">
        <ele>789</ele>
        <time>2021-07-18T05:45:36.000Z</time>
      </trkpt>
      <trkpt lat="45.21781" lon="5.73565">
        <ele>789</ele>
        <time>2021-07-18T05:45:38.000Z</time>
      </trkpt>
      <trkpt lat="45.21779" lon="5.73563">
        <ele>789.20001220703</ele>
        <time>2021-07-18T05:45:41.000Z</time>
      </trkpt>
      <trkpt lat="45.21778" lon="5.73562">
        <ele>789.20001220703</ele>
        <time>2021-07-18T05:45:42.000Z</time>
      </trkpt>
      <trkpt lat="45.21776" lon="5.73558">
        <ele>789.20001220703</ele>
        <time>2021-07-18T05:45:44.000Z</time>
      </trkpt>
      <trkpt lat="45.21774" lon="5.73556">
        <ele>789</ele>
        <time>2021-07-18T05:45:46.000Z</time>
      </trkpt>
      <trkpt lat="45.21772" lon="5.73554">
        <ele>789.40002441406</ele>
        <time>2021-07-18T05:45:49.000Z</time>
      </trkpt>
      <trkpt lat="45.2177" lon="5.73553">
        <ele>789.59997558594</ele>
        <time>2021-07-18T05:45:50.000Z</time>
      </trkpt>
      <trkpt lat="45.21765" lon="5.73547">
        <ele>790.59997558594</ele>
        <time>2021-07-18T05:45:54.000Z</time>
      </trkpt>
      <trkpt lat="45.21764" lon="5.73547">
        <ele>791</ele>
        <time>2021-07-18T05:45:55.000Z</time>
      </trkpt>
      <trkpt lat="45.21762" lon="5.73546">
        <ele>791.20001220703</ele>
        <time>2021-07-18T05:45:56.000Z</time>
      </trkpt>
      <trkpt lat="45.21758" lon="5.73544">
        <ele>792</ele>
        <time>2021-07-18T05:46:00.000Z</time>
      </trkpt>
      <trkpt lat="45.2175" lon="5.73543">
        <ele>792.59997558594</ele>
        <time>2021-07-18T05:46:03.000Z</time>
      </trkpt>
      <trkpt lat="45.21735" lon="5.73544">
        <ele>792.59997558594</ele>
        <time>2021-07-18T05:46:09.000Z</time>
      </trkpt>
      <trkpt lat="45.21733" lon="5.73543">
        <ele>792.79998779297</ele>
        <time>2021-07-18T05:46:10.000Z</time>
      </trkpt>
      <trkpt lat="45.21729" lon="5.7354">
        <ele>792.59997558594</ele>
        <time>2021-07-18T05:46:12.000Z</time>
      </trkpt>
      <trkpt lat="45.21729" lon="5.73537">
        <ele>792.59997558594</ele>
        <time>2021-07-18T05:46:13.000Z</time>
      </trkpt>
      <trkpt lat="45.21727" lon="5.73533">
        <ele>792.40002441406</ele>
        <time>2021-07-18T05:46:15.000Z</time>
      </trkpt>
      <trkpt lat="45.21726" lon="5.73531">
        <ele>792.40002441406</ele>
        <time>2021-07-18T05:46:16.000Z</time>
      </trkpt>
      <trkpt lat="45.21721" lon="5.73528">
        <ele>792.40002441406</ele>
        <time>2021-07-18T05:46:19.000Z</time>
      </trkpt>
      <trkpt lat="45.2172" lon="5.73527">
        <ele>792.59997558594</ele>
        <time>2021-07-18T05:46:20.000Z</time>
      </trkpt>
      <trkpt lat="45.21718" lon="5.73524">
        <ele>793</ele>
        <time>2021-07-18T05:46:23.000Z</time>
      </trkpt>
      <trkpt lat="45.21716" lon="5.73522">
        <ele>793.40002441406</ele>
        <time>2021-07-18T05:46:26.000Z</time>
      </trkpt>
      <trkpt lat="45.21709" lon="5.73518">
        <ele>794</ele>
        <time>2021-07-18T05:46:30.000Z</time>
      </trkpt>
      <trkpt lat="45.21707" lon="5.73516">
        <ele>794.20001220703</ele>
        <time>2021-07-18T05:46:31.000Z</time>
      </trkpt>
      <trkpt lat="45.21706" lon="5.73516">
        <ele>794.40002441406</ele>
        <time>2021-07-18T05:46:32.000Z</time>
      </trkpt>
      <trkpt lat="45.21705" lon="5.73514">
        <ele>795</ele>
        <time>2021-07-18T05:46:34.000Z</time>
      </trkpt>
      <trkpt lat="45.21705" lon="5.73514">
        <ele>795.79998779297</ele>
        <time>2021-07-18T05:46:35.000Z</time>
      </trkpt>
      <trkpt lat="45.21704" lon="5.73513">
        <ele>796.20001220703</ele>
        <time>2021-07-18T05:46:36.000Z</time>
      </trkpt>
      <trkpt lat="45.21701" lon="5.73512">
        <ele>797</ele>
        <time>2021-07-18T05:46:39.000Z</time>
      </trkpt>
      <trkpt lat="45.217" lon="5.73512">
        <ele>797.40002441406</ele>
        <time>2021-07-18T05:46:40.000Z</time>
      </trkpt>
      <trkpt lat="45.21699" lon="5.73511">
        <ele>798</ele>
        <time>2021-07-18T05:46:41.000Z</time>
      </trkpt>
      <trkpt lat="45.21695" lon="5.73508">
        <ele>798.79998779297</ele>
        <time>2021-07-18T05:46:44.000Z</time>
      </trkpt>
      <trkpt lat="45.21693" lon="5.73507">
        <ele>799.20001220703</ele>
        <time>2021-07-18T05:46:46.000Z</time>
      </trkpt>
      <trkpt lat="45.21691" lon="5.73506">
        <ele>799.40002441406</ele>
        <time>2021-07-18T05:46:47.000Z</time>
      </trkpt>
      <trkpt lat="45.21686" lon="5.73502">
        <ele>800.59997558594</ele>
        <time>2021-07-18T05:46:51.000Z</time>
      </trkpt>
      <trkpt lat="45.21685" lon="5.735">
        <ele>800.59997558594</ele>
        <time>2021-07-18T05:46:53.000Z</time>
      </trkpt>
      <trkpt lat="45.21682" lon="5.73495">
        <ele>801.59997558594</ele>
        <time>2021-07-18T05:46:57.000Z</time>
      </trkpt>
      <trkpt lat="45.21682" lon="5.73494">
        <ele>801.59997558594</ele>
        <time>2021-07-18T05:46:58.000Z</time>
      </trkpt>
      <trkpt lat="45.21681" lon="5.7349">
        <ele>802</ele>
        <time>2021-07-18T05:47:00.000Z</time>
      </trkpt>
      <trkpt lat="45.21679" lon="5.73483">
        <ele>802.20001220703</ele>
        <time>2021-07-18T05:47:03.000Z</time>
      </trkpt>
      <trkpt lat="45.21675" lon="5.73477">
        <ele>802.59997558594</ele>
        <time>2021-07-18T05:47:05.000Z</time>
      </trkpt>
      <trkpt lat="45.21673" lon="5.7347">
        <ele>802</ele>
        <time>2021-07-18T05:47:07.000Z</time>
      </trkpt>
      <trkpt lat="45.21672" lon="5.73467">
        <ele>801.59997558594</ele>
        <time>2021-07-18T05:47:08.000Z</time>
      </trkpt>
      <trkpt lat="45.21673" lon="5.7346">
        <ele>801.20001220703</ele>
        <time>2021-07-18T05:47:10.000Z</time>
      </trkpt>
      <trkpt lat="45.21669" lon="5.73453">
        <ele>800.40002441406</ele>
        <time>2021-07-18T05:47:12.000Z</time>
      </trkpt>
      <trkpt lat="45.21667" lon="5.7345">
        <ele>800.20001220703</ele>
        <time>2021-07-18T05:47:13.000Z</time>
      </trkpt>
      <trkpt lat="45.21663" lon="5.7344">
        <ele>799.40002441406</ele>
        <time>2021-07-18T05:47:16.000Z</time>
      </trkpt>
      <trkpt lat="45.21657" lon="5.73425">
        <ele>798.59997558594</ele>
        <time>2021-07-18T05:47:21.000Z</time>
      </trkpt>
      <trkpt lat="45.21655" lon="5.73422">
        <ele>798.40002441406</ele>
        <time>2021-07-18T05:47:22.000Z</time>
      </trkpt>
      <trkpt lat="45.21653" lon="5.73418">
        <ele>798.40002441406</ele>
        <time>2021-07-18T05:47:23.000Z</time>
      </trkpt>
      <trkpt lat="45.21649" lon="5.73413">
        <ele>797.59997558594</ele>
        <time>2021-07-18T05:47:25.000Z</time>
      </trkpt>
      <trkpt lat="45.21641" lon="5.73402">
        <ele>797</ele>
        <time>2021-07-18T05:47:29.000Z</time>
      </trkpt>
      <trkpt lat="45.21639" lon="5.73401">
        <ele>797</ele>
        <time>2021-07-18T05:47:30.000Z</time>
      </trkpt>
      <trkpt lat="45.2163" lon="5.73392">
        <ele>795.79998779297</ele>
        <time>2021-07-18T05:47:34.000Z</time>
      </trkpt>
      <trkpt lat="45.21628" lon="5.7339">
        <ele>795.59997558594</ele>
        <time>2021-07-18T05:47:35.000Z</time>
      </trkpt>
      <trkpt lat="45.21626" lon="5.7339">
        <ele>795.59997558594</ele>
        <time>2021-07-18T05:47:36.000Z</time>
      </trkpt>
      <trkpt lat="45.2162" lon="5.73386">
        <ele>794.20001220703</ele>
        <time>2021-07-18T05:47:39.000Z</time>
      </trkpt>
      <trkpt lat="45.21615" lon="5.73383">
        <ele>793.40002441406</ele>
        <time>2021-07-18T05:47:42.000Z</time>
      </trkpt>
      <trkpt lat="45.21613" lon="5.73381">
        <ele>793</ele>
        <time>2021-07-18T05:47:44.000Z</time>
      </trkpt>
      <trkpt lat="45.21611" lon="5.7338">
        <ele>791.79998779297</ele>
        <time>2021-07-18T05:47:45.000Z</time>
      </trkpt>
      <trkpt lat="45.21602" lon="5.73369">
        <ele>791</ele>
        <time>2021-07-18T05:47:49.000Z</time>
      </trkpt>
      <trkpt lat="45.216" lon="5.73366">
        <ele>790.79998779297</ele>
        <time>2021-07-18T05:47:50.000Z</time>
      </trkpt>
      <trkpt lat="45.21593" lon="5.73358">
        <ele>789.59997558594</ele>
        <time>2021-07-18T05:47:53.000Z</time>
      </trkpt>
      <trkpt lat="45.21591" lon="5.73355">
        <ele>789</ele>
        <time>2021-07-18T05:47:54.000Z</time>
      </trkpt>
      <trkpt lat="45.21586" lon="5.7335">
        <ele>788.20001220703</ele>
        <time>2021-07-18T05:47:58.000Z</time>
      </trkpt>
      <trkpt lat="45.21585" lon="5.73349">
        <ele>787.20001220703</ele>
        <time>2021-07-18T05:47:59.000Z</time>
      </trkpt>
      <trkpt lat="45.21583" lon="5.73349">
        <ele>786.79998779297</ele>
        <time>2021-07-18T05:48:00.000Z</time>
      </trkpt>
      <trkpt lat="45.21574" lon="5.73343">
        <ele>785.40002441406</ele>
        <time>2021-07-18T05:48:04.000Z</time>
      </trkpt>
      <trkpt lat="45.21572" lon="5.73342">
        <ele>785.20001220703</ele>
        <time>2021-07-18T05:48:05.000Z</time>
      </trkpt>
      <trkpt lat="45.21566" lon="5.73339">
        <ele>784.79998779297</ele>
        <time>2021-07-18T05:48:08.000Z</time>
      </trkpt>
      <trkpt lat="45.21565" lon="5.73338">
        <ele>784</ele>
        <time>2021-07-18T05:48:09.000Z</time>
      </trkpt>
      <trkpt lat="45.2156" lon="5.73337">
        <ele>783.59997558594</ele>
        <time>2021-07-18T05:48:11.000Z</time>
      </trkpt>
      <trkpt lat="45.21553" lon="5.73335">
        <ele>782.59997558594</ele>
        <time>2021-07-18T05:48:14.000Z</time>
      </trkpt>
      <trkpt lat="45.21547" lon="5.73332">
        <ele>781.59997558594</ele>
        <time>2021-07-18T05:48:17.000Z</time>
      </trkpt>
      <trkpt lat="45.21545" lon="5.73332">
        <ele>781.59997558594</ele>
        <time>2021-07-18T05:48:18.000Z</time>
      </trkpt>
      <trkpt lat="45.21542" lon="5.73332">
        <ele>781.40002441406</ele>
        <time>2021-07-18T05:48:19.000Z</time>
      </trkpt>
      <trkpt lat="45.21535" lon="5.7333">
        <ele>779.40002441406</ele>
        <time>2021-07-18T05:48:22.000Z</time>
      </trkpt>
      <trkpt lat="45.21533" lon="5.73331">
        <ele>779</ele>
        <time>2021-07-18T05:48:23.000Z</time>
      </trkpt>
      <trkpt lat="45.21528" lon="5.7333">
        <ele>779</ele>
        <time>2021-07-18T05:48:25.000Z</time>
      </trkpt>
      <trkpt lat="45.21524" lon="5.73329">
        <ele>777.79998779297</ele>
        <time>2021-07-18T05:48:26.000Z</time>
      </trkpt>
      <trkpt lat="45.21512" lon="5.73321">
        <ele>776.40002441406</ele>
        <time>2021-07-18T05:48:31.000Z</time>
      </trkpt>
      <trkpt lat="45.21512" lon="5.73319">
        <ele>776.40002441406</ele>
        <time>2021-07-18T05:48:32.000Z</time>
      </trkpt>
      <trkpt lat="45.21511" lon="5.73317">
        <ele>776.40002441406</ele>
        <time>2021-07-18T05:48:33.000Z</time>
      </trkpt>
      <trkpt lat="45.21512" lon="5.73314">
        <ele>776</ele>
        <time>2021-07-18T05:48:34.000Z</time>
      </trkpt>
      <trkpt lat="45.21513" lon="5.7331">
        <ele>775.59997558594</ele>
        <time>2021-07-18T05:48:36.000Z</time>
      </trkpt>
      <trkpt lat="45.21512" lon="5.73304">
        <ele>775</ele>
        <time>2021-07-18T05:48:38.000Z</time>
      </trkpt>
      <trkpt lat="45.21512" lon="5.733">
        <ele>775</ele>
        <time>2021-07-18T05:48:39.000Z</time>
      </trkpt>
      <trkpt lat="45.2151" lon="5.73296">
        <ele>774</ele>
        <time>2021-07-18T05:48:40.000Z</time>
      </trkpt>
      <trkpt lat="45.21508" lon="5.73289">
        <ele>773.79998779297</ele>
        <time>2021-07-18T05:48:42.000Z</time>
      </trkpt>
      <trkpt lat="45.21502" lon="5.73274">
        <ele>773.79998779297</ele>
        <time>2021-07-18T05:48:47.000Z</time>
      </trkpt>
      <trkpt lat="45.21499" lon="5.73267">
        <ele>773.79998779297</ele>
        <time>2021-07-18T05:48:50.000Z</time>
      </trkpt>
      <trkpt lat="45.21497" lon="5.73265">
        <ele>773.79998779297</ele>
        <time>2021-07-18T05:48:51.000Z</time>
      </trkpt>
      <trkpt lat="45.21494" lon="5.73263">
        <ele>773.59997558594</ele>
        <time>2021-07-18T05:48:52.000Z</time>
      </trkpt>
      <trkpt lat="45.21491" lon="5.73259">
        <ele>773</ele>
        <time>2021-07-18T05:48:54.000Z</time>
      </trkpt>
      <trkpt lat="45.21487" lon="5.73252">
        <ele>772</ele>
        <time>2021-07-18T05:48:57.000Z</time>
      </trkpt>
      <trkpt lat="45.21486" lon="5.73251">
        <ele>771.59997558594</ele>
        <time>2021-07-18T05:48:58.000Z</time>
      </trkpt>
      <trkpt lat="45.2148" lon="5.73244">
        <ele>770.20001220703</ele>
        <time>2021-07-18T05:49:03.000Z</time>
      </trkpt>
      <trkpt lat="45.21477" lon="5.73239">
        <ele>769.20001220703</ele>
        <time>2021-07-18T05:49:05.000Z</time>
      </trkpt>
      <trkpt lat="45.21476" lon="5.73237">
        <ele>768.40002441406</ele>
        <time>2021-07-18T05:49:06.000Z</time>
      </trkpt>
      <trkpt lat="45.21474" lon="5.73223">
        <ele>767.40002441406</ele>
        <time>2021-07-18T05:49:10.000Z</time>
      </trkpt>
      <trkpt lat="45.21476" lon="5.73216">
        <ele>766.79998779297</ele>
        <time>2021-07-18T05:49:12.000Z</time>
      </trkpt>
      <trkpt lat="45.21471" lon="5.73203">
        <ele>766.20001220703</ele>
        <time>2021-07-18T05:49:16.000Z</time>
      </trkpt>
      <trkpt lat="45.21471" lon="5.73201">
        <ele>765.79998779297</ele>
        <time>2021-07-18T05:49:17.000Z</time>
      </trkpt>
      <trkpt lat="45.21469" lon="5.732">
        <ele>765.40002441406</ele>
        <time>2021-07-18T05:49:18.000Z</time>
      </trkpt>
      <trkpt lat="45.21465" lon="5.73194">
        <ele>764.79998779297</ele>
        <time>2021-07-18T05:49:21.000Z</time>
      </trkpt>
      <trkpt lat="45.21456" lon="5.7319">
        <ele>764.20001220703</ele>
        <time>2021-07-18T05:49:24.000Z</time>
      </trkpt>
      <trkpt lat="45.21451" lon="5.73189">
        <ele>763.20001220703</ele>
        <time>2021-07-18T05:49:25.000Z</time>
      </trkpt>
      <trkpt lat="45.21446" lon="5.73184">
        <ele>762.20001220703</ele>
        <time>2021-07-18T05:49:27.000Z</time>
      </trkpt>
      <trkpt lat="45.21439" lon="5.73178">
        <ele>760.40002441406</ele>
        <time>2021-07-18T05:49:29.000Z</time>
      </trkpt>
      <trkpt lat="45.2144" lon="5.73174">
        <ele>759.40002441406</ele>
        <time>2021-07-18T05:49:31.000Z</time>
      </trkpt>
      <trkpt lat="45.21441" lon="5.73173">
        <ele>759.20001220703</ele>
        <time>2021-07-18T05:49:32.000Z</time>
      </trkpt>
      <trkpt lat="45.21441" lon="5.73171">
        <ele>759.20001220703</ele>
        <time>2021-07-18T05:49:33.000Z</time>
      </trkpt>
      <trkpt lat="45.21437" lon="5.73168">
        <ele>758.79998779297</ele>
        <time>2021-07-18T05:49:35.000Z</time>
      </trkpt>
      <trkpt lat="45.21432" lon="5.73167">
        <ele>758</ele>
        <time>2021-07-18T05:49:37.000Z</time>
      </trkpt>
      <trkpt lat="45.21419" lon="5.73164">
        <ele>756.20001220703</ele>
        <time>2021-07-18T05:49:41.000Z</time>
      </trkpt>
      <trkpt lat="45.21415" lon="5.73162">
        <ele>755</ele>
        <time>2021-07-18T05:49:43.000Z</time>
      </trkpt>
      <trkpt lat="45.21412" lon="5.73159">
        <ele>754.79998779297</ele>
        <time>2021-07-18T05:49:45.000Z</time>
      </trkpt>
      <trkpt lat="45.21411" lon="5.73158">
        <ele>754</ele>
        <time>2021-07-18T05:49:46.000Z</time>
      </trkpt>
      <trkpt lat="45.21412" lon="5.73155">
        <ele>753.59997558594</ele>
        <time>2021-07-18T05:49:48.000Z</time>
      </trkpt>
      <trkpt lat="45.21412" lon="5.73155">
        <ele>753.40002441406</ele>
        <time>2021-07-18T05:49:49.000Z</time>
      </trkpt>
      <trkpt lat="45.21408" lon="5.73152">
        <ele>752.59997558594</ele>
        <time>2021-07-18T05:49:51.000Z</time>
      </trkpt>
      <trkpt lat="45.21408" lon="5.7315">
        <ele>752.40002441406</ele>
        <time>2021-07-18T05:49:52.000Z</time>
      </trkpt>
      <trkpt lat="45.21405" lon="5.73145">
        <ele>752.20001220703</ele>
        <time>2021-07-18T05:49:54.000Z</time>
      </trkpt>
      <trkpt lat="45.21403" lon="5.73143">
        <ele>751.79998779297</ele>
        <time>2021-07-18T05:49:55.000Z</time>
      </trkpt>
      <trkpt lat="45.21401" lon="5.73141">
        <ele>751</ele>
        <time>2021-07-18T05:49:56.000Z</time>
      </trkpt>
      <trkpt lat="45.21397" lon="5.73137">
        <ele>750.20001220703</ele>
        <time>2021-07-18T05:49:58.000Z</time>
      </trkpt>
      <trkpt lat="45.21395" lon="5.73132">
        <ele>749.79998779297</ele>
        <time>2021-07-18T05:50:00.000Z</time>
      </trkpt>
      <trkpt lat="45.21393" lon="5.73129">
        <ele>750.20001220703</ele>
        <time>2021-07-18T05:50:01.000Z</time>
      </trkpt>
      <trkpt lat="45.21379" lon="5.73108">
        <ele>748.20001220703</ele>
        <time>2021-07-18T05:50:07.000Z</time>
      </trkpt>
      <trkpt lat="45.21372" lon="5.73094">
        <ele>747.40002441406</ele>
        <time>2021-07-18T05:50:12.000Z</time>
      </trkpt>
      <trkpt lat="45.21372" lon="5.73093">
        <ele>747.20001220703</ele>
        <time>2021-07-18T05:50:13.000Z</time>
      </trkpt>
      <trkpt lat="45.2137" lon="5.73087">
        <ele>747</ele>
        <time>2021-07-18T05:50:15.000Z</time>
      </trkpt>
      <trkpt lat="45.21365" lon="5.7308">
        <ele>746.40002441406</ele>
        <time>2021-07-18T05:50:18.000Z</time>
      </trkpt>
      <trkpt lat="45.2136" lon="5.73075">
        <ele>746</ele>
        <time>2021-07-18T05:50:22.000Z</time>
      </trkpt>
      <trkpt lat="45.21359" lon="5.73074">
        <ele>745.40002441406</ele>
        <time>2021-07-18T05:50:23.000Z</time>
      </trkpt>
      <trkpt lat="45.21358" lon="5.73073">
        <ele>745.40002441406</ele>
        <time>2021-07-18T05:50:24.000Z</time>
      </trkpt>
      <trkpt lat="45.21356" lon="5.73071">
        <ele>744.79998779297</ele>
        <time>2021-07-18T05:50:26.000Z</time>
      </trkpt>
      <trkpt lat="45.21355" lon="5.7307">
        <ele>744.59997558594</ele>
        <time>2021-07-18T05:50:27.000Z</time>
      </trkpt>
      <trkpt lat="45.21355" lon="5.73069">
        <ele>743.79998779297</ele>
        <time>2021-07-18T05:50:28.000Z</time>
      </trkpt>
      <trkpt lat="45.21353" lon="5.73061">
        <ele>742.59997558594</ele>
        <time>2021-07-18T05:50:33.000Z</time>
      </trkpt>
      <trkpt lat="45.21353" lon="5.7306">
        <ele>742</ele>
        <time>2021-07-18T05:50:34.000Z</time>
      </trkpt>
      <trkpt lat="45.21352" lon="5.73056">
        <ele>741.40002441406</ele>
        <time>2021-07-18T05:50:36.000Z</time>
      </trkpt>
      <trkpt lat="45.21349" lon="5.73051">
        <ele>740.59997558594</ele>
        <time>2021-07-18T05:50:38.000Z</time>
      </trkpt>
      <trkpt lat="45.21347" lon="5.7305">
        <ele>739.79998779297</ele>
        <time>2021-07-18T05:50:39.000Z</time>
      </trkpt>
      <trkpt lat="45.21346" lon="5.73048">
        <ele>739.40002441406</ele>
        <time>2021-07-18T05:50:41.000Z</time>
      </trkpt>
      <trkpt lat="45.21344" lon="5.73045">
        <ele>738.40002441406</ele>
        <time>2021-07-18T05:50:43.000Z</time>
      </trkpt>
      <trkpt lat="45.21343" lon="5.73042">
        <ele>737.59997558594</ele>
        <time>2021-07-18T05:50:46.000Z</time>
      </trkpt>
      <trkpt lat="45.21343" lon="5.73041">
        <ele>736.59997558594</ele>
        <time>2021-07-18T05:50:47.000Z</time>
      </trkpt>
      <trkpt lat="45.21341" lon="5.7304">
        <ele>736</ele>
        <time>2021-07-18T05:50:48.000Z</time>
      </trkpt>
      <trkpt lat="45.21339" lon="5.73034">
        <ele>735.79998779297</ele>
        <time>2021-07-18T05:50:51.000Z</time>
      </trkpt>
      <trkpt lat="45.21338" lon="5.73032">
        <ele>735.40002441406</ele>
        <time>2021-07-18T05:50:52.000Z</time>
      </trkpt>
      <trkpt lat="45.21337" lon="5.7303">
        <ele>734</ele>
        <time>2021-07-18T05:50:53.000Z</time>
      </trkpt>
      <trkpt lat="45.21333" lon="5.73026">
        <ele>734</ele>
        <time>2021-07-18T05:50:55.000Z</time>
      </trkpt>
      <trkpt lat="45.21331" lon="5.73022">
        <ele>732.79998779297</ele>
        <time>2021-07-18T05:50:57.000Z</time>
      </trkpt>
      <trkpt lat="45.21325" lon="5.73017">
        <ele>731.40002441406</ele>
        <time>2021-07-18T05:51:00.000Z</time>
      </trkpt>
      <trkpt lat="45.21319" lon="5.73012">
        <ele>730.40002441406</ele>
        <time>2021-07-18T05:51:03.000Z</time>
      </trkpt>
      <trkpt lat="45.21313" lon="5.72997">
        <ele>729</ele>
        <time>2021-07-18T05:51:08.000Z</time>
      </trkpt>
      <trkpt lat="45.21312" lon="5.72995">
        <ele>728.59997558594</ele>
        <time>2021-07-18T05:51:09.000Z</time>
      </trkpt>
      <trkpt lat="45.2131" lon="5.72994">
        <ele>728.40002441406</ele>
        <time>2021-07-18T05:51:10.000Z</time>
      </trkpt>
      <trkpt lat="45.21311" lon="5.72992">
        <ele>727.79998779297</ele>
        <time>2021-07-18T05:51:11.000Z</time>
      </trkpt>
      <trkpt lat="45.21307" lon="5.72989">
        <ele>727.20001220703</ele>
        <time>2021-07-18T05:51:14.000Z</time>
      </trkpt>
      <trkpt lat="45.21306" lon="5.72988">
        <ele>726.59997558594</ele>
        <time>2021-07-18T05:51:15.000Z</time>
      </trkpt>
      <trkpt lat="45.21298" lon="5.72982">
        <ele>726.20001220703</ele>
        <time>2021-07-18T05:51:18.000Z</time>
      </trkpt>
      <trkpt lat="45.21296" lon="5.7298">
        <ele>725.40002441406</ele>
        <time>2021-07-18T05:51:19.000Z</time>
      </trkpt>
      <trkpt lat="45.21296" lon="5.72979">
        <ele>724</ele>
        <time>2021-07-18T05:51:20.000Z</time>
      </trkpt>
      <trkpt lat="45.21295" lon="5.72978">
        <ele>723.59997558594</ele>
        <time>2021-07-18T05:51:21.000Z</time>
      </trkpt>
      <trkpt lat="45.21292" lon="5.72974">
        <ele>722.59997558594</ele>
        <time>2021-07-18T05:51:23.000Z</time>
      </trkpt>
      <trkpt lat="45.21288" lon="5.72969">
        <ele>721.40002441406</ele>
        <time>2021-07-18T05:51:28.000Z</time>
      </trkpt>
      <trkpt lat="45.21283" lon="5.72963">
        <ele>720.79998779297</ele>
        <time>2021-07-18T05:51:30.000Z</time>
      </trkpt>
      <trkpt lat="45.2128" lon="5.7296">
        <ele>720.20001220703</ele>
        <time>2021-07-18T05:51:32.000Z</time>
      </trkpt>
      <trkpt lat="45.2128" lon="5.72958">
        <ele>720.20001220703</ele>
        <time>2021-07-18T05:51:33.000Z</time>
      </trkpt>
      <trkpt lat="45.21277" lon="5.72956">
        <ele>718.40002441406</ele>
        <time>2021-07-18T05:51:35.000Z</time>
      </trkpt>
      <trkpt lat="45.21274" lon="5.72956">
        <ele>717.59997558594</ele>
        <time>2021-07-18T05:51:37.000Z</time>
      </trkpt>
      <trkpt lat="45.21272" lon="5.72956">
        <ele>717.20001220703</ele>
        <time>2021-07-18T05:51:38.000Z</time>
      </trkpt>
      <trkpt lat="45.21268" lon="5.72954">
        <ele>716.40002441406</ele>
        <time>2021-07-18T05:51:41.000Z</time>
      </trkpt>
      <trkpt lat="45.21265" lon="5.72953">
        <ele>716.20001220703</ele>
        <time>2021-07-18T05:51:42.000Z</time>
      </trkpt>
      <trkpt lat="45.21258" lon="5.7295">
        <ele>715.20001220703</ele>
        <time>2021-07-18T05:51:46.000Z</time>
      </trkpt>
      <trkpt lat="45.21258" lon="5.72948">
        <ele>714.20001220703</ele>
        <time>2021-07-18T05:51:47.000Z</time>
      </trkpt>
      <trkpt lat="45.21257" lon="5.72947">
        <ele>714</ele>
        <time>2021-07-18T05:51:48.000Z</time>
      </trkpt>
      <trkpt lat="45.21256" lon="5.72944">
        <ele>714</ele>
        <time>2021-07-18T05:51:50.000Z</time>
      </trkpt>
      <trkpt lat="45.21256" lon="5.72944">
        <ele>713</ele>
        <time>2021-07-18T05:51:52.000Z</time>
      </trkpt>
      <trkpt lat="45.21254" lon="5.72943">
        <ele>712.59997558594</ele>
        <time>2021-07-18T05:51:53.000Z</time>
      </trkpt>
      <trkpt lat="45.21253" lon="5.72941">
        <ele>710.59997558594</ele>
        <time>2021-07-18T05:51:55.000Z</time>
      </trkpt>
      <trkpt lat="45.21249" lon="5.72938">
        <ele>710.20001220703</ele>
        <time>2021-07-18T05:51:57.000Z</time>
      </trkpt>
      <trkpt lat="45.21246" lon="5.72936">
        <ele>709.59997558594</ele>
        <time>2021-07-18T05:51:58.000Z</time>
      </trkpt>
      <trkpt lat="45.21243" lon="5.72935">
        <ele>708.79998779297</ele>
        <time>2021-07-18T05:51:59.000Z</time>
      </trkpt>
      <trkpt lat="45.21241" lon="5.72932">
        <ele>708.79998779297</ele>
        <time>2021-07-18T05:52:01.000Z</time>
      </trkpt>
      <trkpt lat="45.2124" lon="5.72929">
        <ele>708.59997558594</ele>
        <time>2021-07-18T05:52:02.000Z</time>
      </trkpt>
      <trkpt lat="45.21238" lon="5.72927">
        <ele>708.20001220703</ele>
        <time>2021-07-18T05:52:03.000Z</time>
      </trkpt>
      <trkpt lat="45.21237" lon="5.72925">
        <ele>706.79998779297</ele>
        <time>2021-07-18T05:52:06.000Z</time>
      </trkpt>
      <trkpt lat="45.21235" lon="5.72924">
        <ele>706</ele>
        <time>2021-07-18T05:52:08.000Z</time>
      </trkpt>
      <trkpt lat="45.21234" lon="5.72923">
        <ele>705.79998779297</ele>
        <time>2021-07-18T05:52:10.000Z</time>
      </trkpt>
      <trkpt lat="45.21231" lon="5.72921">
        <ele>705</ele>
        <time>2021-07-18T05:52:13.000Z</time>
      </trkpt>
      <trkpt lat="45.2123" lon="5.72921">
        <ele>704.79998779297</ele>
        <time>2021-07-18T05:52:14.000Z</time>
      </trkpt>
      <trkpt lat="45.2123" lon="5.7292">
        <ele>704.79998779297</ele>
        <time>2021-07-18T05:52:15.000Z</time>
      </trkpt>
      <trkpt lat="45.21227" lon="5.72919">
        <ele>704.40002441406</ele>
        <time>2021-07-18T05:52:16.000Z</time>
      </trkpt>
      <trkpt lat="45.21225" lon="5.72919">
        <ele>703.79998779297</ele>
        <time>2021-07-18T05:52:18.000Z</time>
      </trkpt>
      <trkpt lat="45.21224" lon="5.72919">
        <ele>703.59997558594</ele>
        <time>2021-07-18T05:52:19.000Z</time>
      </trkpt>
      <trkpt lat="45.21223" lon="5.7292">
        <ele>702.79998779297</ele>
        <time>2021-07-18T05:52:20.000Z</time>
      </trkpt>
      <trkpt lat="45.21221" lon="5.72921">
        <ele>702.79998779297</ele>
        <time>2021-07-18T05:52:21.000Z</time>
      </trkpt>
      <trkpt lat="45.2122" lon="5.72923">
        <ele>702.59997558594</ele>
        <time>2021-07-18T05:52:22.000Z</time>
      </trkpt>
      <trkpt lat="45.2122" lon="5.72925">
        <ele>702.40002441406</ele>
        <time>2021-07-18T05:52:23.000Z</time>
      </trkpt>
      <trkpt lat="45.2122" lon="5.72928">
        <ele>701.59997558594</ele>
        <time>2021-07-18T05:52:25.000Z</time>
      </trkpt>
      <trkpt lat="45.21221" lon="5.7293">
        <ele>701.40002441406</ele>
        <time>2021-07-18T05:52:26.000Z</time>
      </trkpt>
      <trkpt lat="45.21223" lon="5.72933">
        <ele>700.59997558594</ele>
        <time>2021-07-18T05:52:28.000Z</time>
      </trkpt>
      <trkpt lat="45.21225" lon="5.72934">
        <ele>700.59997558594</ele>
        <time>2021-07-18T05:52:29.000Z</time>
      </trkpt>
      <trkpt lat="45.21225" lon="5.72935">
        <ele>699.59997558594</ele>
        <time>2021-07-18T05:52:30.000Z</time>
      </trkpt>
      <trkpt lat="45.21226" lon="5.72936">
        <ele>699.40002441406</ele>
        <time>2021-07-18T05:52:31.000Z</time>
      </trkpt>
      <trkpt lat="45.21225" lon="5.72938">
        <ele>698.79998779297</ele>
        <time>2021-07-18T05:52:33.000Z</time>
      </trkpt>
      <trkpt lat="45.21224" lon="5.72937">
        <ele>698</ele>
        <time>2021-07-18T05:52:35.000Z</time>
      </trkpt>
      <trkpt lat="45.21222" lon="5.72936">
        <ele>698</ele>
        <time>2021-07-18T05:52:36.000Z</time>
      </trkpt>
      <trkpt lat="45.21218" lon="5.72934">
        <ele>697.40002441406</ele>
        <time>2021-07-18T05:52:39.000Z</time>
      </trkpt>
      <trkpt lat="45.21218" lon="5.72933">
        <ele>697.40002441406</ele>
        <time>2021-07-18T05:52:40.000Z</time>
      </trkpt>
      <trkpt lat="45.21217" lon="5.72932">
        <ele>696.20001220703</ele>
        <time>2021-07-18T05:52:41.000Z</time>
      </trkpt>
      <trkpt lat="45.21212" lon="5.72928">
        <ele>695.20001220703</ele>
        <time>2021-07-18T05:52:43.000Z</time>
      </trkpt>
      <trkpt lat="45.21211" lon="5.72927">
        <ele>695</ele>
        <time>2021-07-18T05:52:44.000Z</time>
      </trkpt>
      <trkpt lat="45.21208" lon="5.72925">
        <ele>694.40002441406</ele>
        <time>2021-07-18T05:52:45.000Z</time>
      </trkpt>
      <trkpt lat="45.21205" lon="5.72921">
        <ele>693.59997558594</ele>
        <time>2021-07-18T05:52:47.000Z</time>
      </trkpt>
      <trkpt lat="45.21204" lon="5.72919">
        <ele>693.40002441406</ele>
        <time>2021-07-18T05:52:48.000Z</time>
      </trkpt>
      <trkpt lat="45.21205" lon="5.72918">
        <ele>693.40002441406</ele>
        <time>2021-07-18T05:52:49.000Z</time>
      </trkpt>
      <trkpt lat="45.21206" lon="5.72916">
        <ele>693.20001220703</ele>
        <time>2021-07-18T05:52:51.000Z</time>
      </trkpt>
      <trkpt lat="45.21205" lon="5.72915">
        <ele>692.59997558594</ele>
        <time>2021-07-18T05:52:53.000Z</time>
      </trkpt>
      <trkpt lat="45.21203" lon="5.72912">
        <ele>691.59997558594</ele>
        <time>2021-07-18T05:52:55.000Z</time>
      </trkpt>
      <trkpt lat="45.21199" lon="5.72911">
        <ele>691.40002441406</ele>
        <time>2021-07-18T05:52:56.000Z</time>
      </trkpt>
      <trkpt lat="45.21197" lon="5.7291">
        <ele>690.79998779297</ele>
        <time>2021-07-18T05:52:57.000Z</time>
      </trkpt>
      <trkpt lat="45.21196" lon="5.72909">
        <ele>690.79998779297</ele>
        <time>2021-07-18T05:52:58.000Z</time>
      </trkpt>
      <trkpt lat="45.21195" lon="5.72907">
        <ele>690.40002441406</ele>
        <time>2021-07-18T05:52:59.000Z</time>
      </trkpt>
      <trkpt lat="45.21191" lon="5.72906">
        <ele>689.20001220703</ele>
        <time>2021-07-18T05:53:01.000Z</time>
      </trkpt>
      <trkpt lat="45.21186" lon="5.72905">
        <ele>689.20001220703</ele>
        <time>2021-07-18T05:53:03.000Z</time>
      </trkpt>
      <trkpt lat="45.21179" lon="5.72901">
        <ele>687.59997558594</ele>
        <time>2021-07-18T05:53:05.000Z</time>
      </trkpt>
      <trkpt lat="45.21173" lon="5.72897">
        <ele>687.20001220703</ele>
        <time>2021-07-18T05:53:09.000Z</time>
      </trkpt>
      <trkpt lat="45.21172" lon="5.72896">
        <ele>686.40002441406</ele>
        <time>2021-07-18T05:53:10.000Z</time>
      </trkpt>
      <trkpt lat="45.21171" lon="5.72895">
        <ele>686</ele>
        <time>2021-07-18T05:53:11.000Z</time>
      </trkpt>
      <trkpt lat="45.21167" lon="5.72894">
        <ele>685</ele>
        <time>2021-07-18T05:53:14.000Z</time>
      </trkpt>
      <trkpt lat="45.21162" lon="5.72893">
        <ele>684.40002441406</ele>
        <time>2021-07-18T05:53:17.000Z</time>
      </trkpt>
      <trkpt lat="45.21161" lon="5.72892">
        <ele>683.79998779297</ele>
        <time>2021-07-18T05:53:19.000Z</time>
      </trkpt>
      <trkpt lat="45.2116" lon="5.72891">
        <ele>683.20001220703</ele>
        <time>2021-07-18T05:53:20.000Z</time>
      </trkpt>
      <trkpt lat="45.21159" lon="5.72889">
        <ele>682.79998779297</ele>
        <time>2021-07-18T05:53:21.000Z</time>
      </trkpt>
      <trkpt lat="45.21157" lon="5.72888">
        <ele>682.59997558594</ele>
        <time>2021-07-18T05:53:22.000Z</time>
      </trkpt>
      <trkpt lat="45.21152" lon="5.72886">
        <ele>682.20001220703</ele>
        <time>2021-07-18T05:53:24.000Z</time>
      </trkpt>
      <trkpt lat="45.21149" lon="5.72886">
        <ele>681.40002441406</ele>
        <time>2021-07-18T05:53:25.000Z</time>
      </trkpt>
      <trkpt lat="45.21146" lon="5.72884">
        <ele>681</ele>
        <time>2021-07-18T05:53:26.000Z</time>
      </trkpt>
      <trkpt lat="45.21144" lon="5.72883">
        <ele>680.40002441406</ele>
        <time>2021-07-18T05:53:28.000Z</time>
      </trkpt>
      <trkpt lat="45.21145" lon="5.72883">
        <ele>680.40002441406</ele>
        <time>2021-07-18T05:53:29.000Z</time>
      </trkpt>
      <trkpt lat="45.21144" lon="5.72882">
        <ele>679.79998779297</ele>
        <time>2021-07-18T05:53:30.000Z</time>
      </trkpt>
      <trkpt lat="45.21145" lon="5.72881">
        <ele>678.79998779297</ele>
        <time>2021-07-18T05:53:32.000Z</time>
      </trkpt>
      <trkpt lat="45.21144" lon="5.7288">
        <ele>678.79998779297</ele>
        <time>2021-07-18T05:53:33.000Z</time>
      </trkpt>
      <trkpt lat="45.2114" lon="5.72877">
        <ele>678</ele>
        <time>2021-07-18T05:53:36.000Z</time>
      </trkpt>
      <trkpt lat="45.21139" lon="5.72875">
        <ele>677.20001220703</ele>
        <time>2021-07-18T05:53:37.000Z</time>
      </trkpt>
      <trkpt lat="45.21139" lon="5.72874">
        <ele>677.20001220703</ele>
        <time>2021-07-18T05:53:38.000Z</time>
      </trkpt>
      <trkpt lat="45.21138" lon="5.72872">
        <ele>676.79998779297</ele>
        <time>2021-07-18T05:53:40.000Z</time>
      </trkpt>
      <trkpt lat="45.21137" lon="5.7287">
        <ele>676.79998779297</ele>
        <time>2021-07-18T05:53:42.000Z</time>
      </trkpt>
      <trkpt lat="45.21135" lon="5.72869">
        <ele>676.20001220703</ele>
        <time>2021-07-18T05:53:44.000Z</time>
      </trkpt>
      <trkpt lat="45.21133" lon="5.72867">
        <ele>675.40002441406</ele>
        <time>2021-07-18T05:53:46.000Z</time>
      </trkpt>
      <trkpt lat="45.21129" lon="5.72864">
        <ele>675</ele>
        <time>2021-07-18T05:53:48.000Z</time>
      </trkpt>
      <trkpt lat="45.21125" lon="5.72862">
        <ele>674.79998779297</ele>
        <time>2021-07-18T05:53:49.000Z</time>
      </trkpt>
      <trkpt lat="45.21122" lon="5.7286">
        <ele>674.20001220703</ele>
        <time>2021-07-18T05:53:50.000Z</time>
      </trkpt>
      <trkpt lat="45.21112" lon="5.72854">
        <ele>674</ele>
        <time>2021-07-18T05:53:53.000Z</time>
      </trkpt>
      <trkpt lat="45.2111" lon="5.72853">
        <ele>674</ele>
        <time>2021-07-18T05:53:54.000Z</time>
      </trkpt>
      <trkpt lat="45.21109" lon="5.72853">
        <ele>673.79998779297</ele>
        <time>2021-07-18T05:53:55.000Z</time>
      </trkpt>
      <trkpt lat="45.21109" lon="5.72851">
        <ele>673.59997558594</ele>
        <time>2021-07-18T05:53:57.000Z</time>
      </trkpt>
      <trkpt lat="45.21105" lon="5.72848">
        <ele>673.20001220703</ele>
        <time>2021-07-18T05:53:59.000Z</time>
      </trkpt>
      <trkpt lat="45.21105" lon="5.72845">
        <ele>672.79998779297</ele>
        <time>2021-07-18T05:54:00.000Z</time>
      </trkpt>
      <trkpt lat="45.21104" lon="5.72843">
        <ele>672</ele>
        <time>2021-07-18T05:54:01.000Z</time>
      </trkpt>
      <trkpt lat="45.211" lon="5.72838">
        <ele>671.20001220703</ele>
        <time>2021-07-18T05:54:03.000Z</time>
      </trkpt>
      <trkpt lat="45.21094" lon="5.7283">
        <ele>671.20001220703</ele>
        <time>2021-07-18T05:54:06.000Z</time>
      </trkpt>
      <trkpt lat="45.2109" lon="5.72825">
        <ele>671</ele>
        <time>2021-07-18T05:54:08.000Z</time>
      </trkpt>
      <trkpt lat="45.21089" lon="5.72822">
        <ele>671</ele>
        <time>2021-07-18T05:54:09.000Z</time>
      </trkpt>
      <trkpt lat="45.21089" lon="5.72819">
        <ele>670.59997558594</ele>
        <time>2021-07-18T05:54:10.000Z</time>
      </trkpt>
      <trkpt lat="45.21087" lon="5.72815">
        <ele>670.59997558594</ele>
        <time>2021-07-18T05:54:11.000Z</time>
      </trkpt>
      <trkpt lat="45.21085" lon="5.72809">
        <ele>670.79998779297</ele>
        <time>2021-07-18T05:54:13.000Z</time>
      </trkpt>
      <trkpt lat="45.21082" lon="5.72806">
        <ele>670.40002441406</ele>
        <time>2021-07-18T05:54:14.000Z</time>
      </trkpt>
      <trkpt lat="45.21076" lon="5.72798">
        <ele>670.79998779297</ele>
        <time>2021-07-18T05:54:17.000Z</time>
      </trkpt>
      <trkpt lat="45.2107" lon="5.72787">
        <ele>670.20001220703</ele>
        <time>2021-07-18T05:54:20.000Z</time>
      </trkpt>
      <trkpt lat="45.21066" lon="5.72784">
        <ele>670.59997558594</ele>
        <time>2021-07-18T05:54:21.000Z</time>
      </trkpt>
      <trkpt lat="45.21064" lon="5.72781">
        <ele>670</ele>
        <time>2021-07-18T05:54:22.000Z</time>
      </trkpt>
      <trkpt lat="45.21058" lon="5.72775">
        <ele>669.79998779297</ele>
        <time>2021-07-18T05:54:24.000Z</time>
      </trkpt>
      <trkpt lat="45.21053" lon="5.72767">
        <ele>669.59997558594</ele>
        <time>2021-07-18T05:54:27.000Z</time>
      </trkpt>
      <trkpt lat="45.21051" lon="5.72763">
        <ele>669.20001220703</ele>
        <time>2021-07-18T05:54:29.000Z</time>
      </trkpt>
      <trkpt lat="45.21049" lon="5.7276">
        <ele>668.59997558594</ele>
        <time>2021-07-18T05:54:31.000Z</time>
      </trkpt>
      <trkpt lat="45.2105" lon="5.72755">
        <ele>667.20001220703</ele>
        <time>2021-07-18T05:54:36.000Z</time>
      </trkpt>
      <trkpt lat="45.21051" lon="5.72755">
        <ele>667.20001220703</ele>
        <time>2021-07-18T05:54:37.000Z</time>
      </trkpt>
      <trkpt lat="45.21051" lon="5.72754">
        <ele>667</ele>
        <time>2021-07-18T05:54:39.000Z</time>
      </trkpt>
      <trkpt lat="45.21051" lon="5.72752">
        <ele>665.79998779297</ele>
        <time>2021-07-18T05:54:42.000Z</time>
      </trkpt>
      <trkpt lat="45.21048" lon="5.7275">
        <ele>665.20001220703</ele>
        <time>2021-07-18T05:54:46.000Z</time>
      </trkpt>
      <trkpt lat="45.21047" lon="5.72749">
        <ele>664.59997558594</ele>
        <time>2021-07-18T05:54:48.000Z</time>
      </trkpt>
      <trkpt lat="45.21047" lon="5.72749">
        <ele>663.59997558594</ele>
        <time>2021-07-18T05:54:50.000Z</time>
      </trkpt>
      <trkpt lat="45.21046" lon="5.72748">
        <ele>663.40002441406</ele>
        <time>2021-07-18T05:54:51.000Z</time>
      </trkpt>
      <trkpt lat="45.21045" lon="5.72748">
        <ele>662</ele>
        <time>2021-07-18T05:54:53.000Z</time>
      </trkpt>
      <trkpt lat="45.21044" lon="5.72748">
        <ele>661.79998779297</ele>
        <time>2021-07-18T05:54:54.000Z</time>
      </trkpt>
      <trkpt lat="45.21042" lon="5.72748">
        <ele>661</ele>
        <time>2021-07-18T05:54:55.000Z</time>
      </trkpt>
      <trkpt lat="45.21039" lon="5.72748">
        <ele>660.59997558594</ele>
        <time>2021-07-18T05:54:57.000Z</time>
      </trkpt>
      <trkpt lat="45.21036" lon="5.72748">
        <ele>660.59997558594</ele>
        <time>2021-07-18T05:54:58.000Z</time>
      </trkpt>
      <trkpt lat="45.21032" lon="5.72747">
        <ele>660.40002441406</ele>
        <time>2021-07-18T05:55:01.000Z</time>
      </trkpt>
      <trkpt lat="45.21032" lon="5.72747">
        <ele>659.59997558594</ele>
        <time>2021-07-18T05:55:02.000Z</time>
      </trkpt>
      <trkpt lat="45.21032" lon="5.72747">
        <ele>659</ele>
        <time>2021-07-18T05:55:03.000Z</time>
      </trkpt>
      <trkpt lat="45.21031" lon="5.72747">
        <ele>658.59997558594</ele>
        <time>2021-07-18T05:55:06.000Z</time>
      </trkpt>
      <trkpt lat="45.2103" lon="5.72746">
        <ele>658.40002441406</ele>
        <time>2021-07-18T05:55:07.000Z</time>
      </trkpt>
      <trkpt lat="45.21028" lon="5.72746">
        <ele>657.20001220703</ele>
        <time>2021-07-18T05:55:10.000Z</time>
      </trkpt>
      <trkpt lat="45.21028" lon="5.72747">
        <ele>657</ele>
        <time>2021-07-18T05:55:11.000Z</time>
      </trkpt>
      <trkpt lat="45.21027" lon="5.72747">
        <ele>655.79998779297</ele>
        <time>2021-07-18T05:55:12.000Z</time>
      </trkpt>
      <trkpt lat="45.21027" lon="5.72748">
        <ele>655.79998779297</ele>
        <time>2021-07-18T05:55:14.000Z</time>
      </trkpt>
      <trkpt lat="45.21027" lon="5.7275">
        <ele>655</ele>
        <time>2021-07-18T05:55:16.000Z</time>
      </trkpt>
      <trkpt lat="45.21026" lon="5.72751">
        <ele>654.79998779297</ele>
        <time>2021-07-18T05:55:17.000Z</time>
      </trkpt>
      <trkpt lat="45.21025" lon="5.72751">
        <ele>653.79998779297</ele>
        <time>2021-07-18T05:55:18.000Z</time>
      </trkpt>
      <trkpt lat="45.21023" lon="5.72753">
        <ele>653</ele>
        <time>2021-07-18T05:55:22.000Z</time>
      </trkpt>
      <trkpt lat="45.21021" lon="5.72753">
        <ele>652</ele>
        <time>2021-07-18T05:55:23.000Z</time>
      </trkpt>
      <trkpt lat="45.2102" lon="5.72754">
        <ele>651.79998779297</ele>
        <time>2021-07-18T05:55:24.000Z</time>
      </trkpt>
      <trkpt lat="45.21018" lon="5.72755">
        <ele>651.40002441406</ele>
        <time>2021-07-18T05:55:26.000Z</time>
      </trkpt>
      <trkpt lat="45.21017" lon="5.72756">
        <ele>651</ele>
        <time>2021-07-18T05:55:27.000Z</time>
      </trkpt>
      <trkpt lat="45.21016" lon="5.72755">
        <ele>650</ele>
        <time>2021-07-18T05:55:28.000Z</time>
      </trkpt>
      <trkpt lat="45.21015" lon="5.72755">
        <ele>649.79998779297</ele>
        <time>2021-07-18T05:55:29.000Z</time>
      </trkpt>
      <trkpt lat="45.21014" lon="5.72755">
        <ele>649.40002441406</ele>
        <time>2021-07-18T05:55:30.000Z</time>
      </trkpt>
      <trkpt lat="45.21013" lon="5.72755">
        <ele>649.40002441406</ele>
        <time>2021-07-18T05:55:31.000Z</time>
      </trkpt>
      <trkpt lat="45.2101" lon="5.72757">
        <ele>649</ele>
        <time>2021-07-18T05:55:33.000Z</time>
      </trkpt>
      <trkpt lat="45.21009" lon="5.72758">
        <ele>647.59997558594</ele>
        <time>2021-07-18T05:55:34.000Z</time>
      </trkpt>
      <trkpt lat="45.21009" lon="5.72757">
        <ele>647.59997558594</ele>
        <time>2021-07-18T05:55:35.000Z</time>
      </trkpt>
      <trkpt lat="45.21008" lon="5.72757">
        <ele>646.20001220703</ele>
        <time>2021-07-18T05:55:36.000Z</time>
      </trkpt>
      <trkpt lat="45.21008" lon="5.72757">
        <ele>646</ele>
        <time>2021-07-18T05:55:37.000Z</time>
      </trkpt>
      <trkpt lat="45.21005" lon="5.72756">
        <ele>644.59997558594</ele>
        <time>2021-07-18T05:55:40.000Z</time>
      </trkpt>
      <trkpt lat="45.21006" lon="5.72755">
        <ele>644.20001220703</ele>
        <time>2021-07-18T05:55:42.000Z</time>
      </trkpt>
      <trkpt lat="45.21005" lon="5.72754">
        <ele>643.59997558594</ele>
        <time>2021-07-18T05:55:43.000Z</time>
      </trkpt>
      <trkpt lat="45.21004" lon="5.72751">
        <ele>642.59997558594</ele>
        <time>2021-07-18T05:55:45.000Z</time>
      </trkpt>
      <trkpt lat="45.21001" lon="5.72749">
        <ele>642.40002441406</ele>
        <time>2021-07-18T05:55:47.000Z</time>
      </trkpt>
      <trkpt lat="45.20999" lon="5.72747">
        <ele>642</ele>
        <time>2021-07-18T05:55:48.000Z</time>
      </trkpt>
      <trkpt lat="45.20996" lon="5.72746">
        <ele>641.40002441406</ele>
        <time>2021-07-18T05:55:49.000Z</time>
      </trkpt>
      <trkpt lat="45.20994" lon="5.72744">
        <ele>639.79998779297</ele>
        <time>2021-07-18T05:55:52.000Z</time>
      </trkpt>
      <trkpt lat="45.20994" lon="5.72744">
        <ele>639.40002441406</ele>
        <time>2021-07-18T05:55:53.000Z</time>
      </trkpt>
      <trkpt lat="45.20994" lon="5.72743">
        <ele>639</ele>
        <time>2021-07-18T05:55:54.000Z</time>
      </trkpt>
      <trkpt lat="45.20994" lon="5.72742">
        <ele>638.79998779297</ele>
        <time>2021-07-18T05:55:55.000Z</time>
      </trkpt>
      <trkpt lat="45.20993" lon="5.72741">
        <ele>637.79998779297</ele>
        <time>2021-07-18T05:55:56.000Z</time>
      </trkpt>
      <trkpt lat="45.20991" lon="5.72739">
        <ele>637.59997558594</ele>
        <time>2021-07-18T05:55:58.000Z</time>
      </trkpt>
      <trkpt lat="45.2099" lon="5.72738">
        <ele>637.59997558594</ele>
        <time>2021-07-18T05:55:59.000Z</time>
      </trkpt>
      <trkpt lat="45.20989" lon="5.72738">
        <ele>637.40002441406</ele>
        <time>2021-07-18T05:56:00.000Z</time>
      </trkpt>
      <trkpt lat="45.20988" lon="5.72737">
        <ele>636.20001220703</ele>
        <time>2021-07-18T05:56:01.000Z</time>
      </trkpt>
      <trkpt lat="45.20988" lon="5.72736">
        <ele>636</ele>
        <time>2021-07-18T05:56:02.000Z</time>
      </trkpt>
      <trkpt lat="45.20989" lon="5.72735">
        <ele>635.20001220703</ele>
        <time>2021-07-18T05:56:05.000Z</time>
      </trkpt>
      <trkpt lat="45.20988" lon="5.72735">
        <ele>634.79998779297</ele>
        <time>2021-07-18T05:56:06.000Z</time>
      </trkpt>
      <trkpt lat="45.20988" lon="5.72734">
        <ele>634.20001220703</ele>
        <time>2021-07-18T05:56:07.000Z</time>
      </trkpt>
      <trkpt lat="45.20987" lon="5.72734">
        <ele>633.79998779297</ele>
        <time>2021-07-18T05:56:08.000Z</time>
      </trkpt>
      <trkpt lat="45.20984" lon="5.72731">
        <ele>633.20001220703</ele>
        <time>2021-07-18T05:56:11.000Z</time>
      </trkpt>
      <trkpt lat="45.20984" lon="5.7273">
        <ele>633</ele>
        <time>2021-07-18T05:56:12.000Z</time>
      </trkpt>
      <trkpt lat="45.20984" lon="5.7273">
        <ele>632.20001220703</ele>
        <time>2021-07-18T05:56:13.000Z</time>
      </trkpt>
      <trkpt lat="45.20983" lon="5.7273">
        <ele>631.79998779297</ele>
        <time>2021-07-18T05:56:14.000Z</time>
      </trkpt>
      <trkpt lat="45.20982" lon="5.72729">
        <ele>630.79998779297</ele>
        <time>2021-07-18T05:56:15.000Z</time>
      </trkpt>
      <trkpt lat="45.20981" lon="5.72728">
        <ele>630.59997558594</ele>
        <time>2021-07-18T05:56:16.000Z</time>
      </trkpt>
      <trkpt lat="45.20982" lon="5.72724">
        <ele>629.59997558594</ele>
        <time>2021-07-18T05:56:19.000Z</time>
      </trkpt>
      <trkpt lat="45.20982" lon="5.72723">
        <ele>629.59997558594</ele>
        <time>2021-07-18T05:56:20.000Z</time>
      </trkpt>
      <trkpt lat="45.20978" lon="5.7272">
        <ele>628.40002441406</ele>
        <time>2021-07-18T05:56:22.000Z</time>
      </trkpt>
      <trkpt lat="45.20976" lon="5.72718">
        <ele>628.20001220703</ele>
        <time>2021-07-18T05:56:23.000Z</time>
      </trkpt>
      <trkpt lat="45.20974" lon="5.72717">
        <ele>628.20001220703</ele>
        <time>2021-07-18T05:56:24.000Z</time>
      </trkpt>
      <trkpt lat="45.20972" lon="5.72715">
        <ele>627</ele>
        <time>2021-07-18T05:56:25.000Z</time>
      </trkpt>
      <trkpt lat="45.20969" lon="5.72711">
        <ele>626</ele>
        <time>2021-07-18T05:56:27.000Z</time>
      </trkpt>
      <trkpt lat="45.20968" lon="5.72709">
        <ele>625.59997558594</ele>
        <time>2021-07-18T05:56:28.000Z</time>
      </trkpt>
      <trkpt lat="45.20966" lon="5.72705">
        <ele>625.20001220703</ele>
        <time>2021-07-18T05:56:30.000Z</time>
      </trkpt>
      <trkpt lat="45.20965" lon="5.72703">
        <ele>624.59997558594</ele>
        <time>2021-07-18T05:56:31.000Z</time>
      </trkpt>
      <trkpt lat="45.20963" lon="5.72703">
        <ele>624.20001220703</ele>
        <time>2021-07-18T05:56:32.000Z</time>
      </trkpt>
      <trkpt lat="45.20961" lon="5.72703">
        <ele>623.79998779297</ele>
        <time>2021-07-18T05:56:33.000Z</time>
      </trkpt>
      <trkpt lat="45.20956" lon="5.72701">
        <ele>623</ele>
        <time>2021-07-18T05:56:36.000Z</time>
      </trkpt>
      <trkpt lat="45.20955" lon="5.727">
        <ele>622.59997558594</ele>
        <time>2021-07-18T05:56:37.000Z</time>
      </trkpt>
      <trkpt lat="45.20954" lon="5.72698">
        <ele>622.40002441406</ele>
        <time>2021-07-18T05:56:38.000Z</time>
      </trkpt>
      <trkpt lat="45.20954" lon="5.72697">
        <ele>621.40002441406</ele>
        <time>2021-07-18T05:56:39.000Z</time>
      </trkpt>
      <trkpt lat="45.20955" lon="5.72696">
        <ele>621.20001220703</ele>
        <time>2021-07-18T05:56:40.000Z</time>
      </trkpt>
      <trkpt lat="45.20958" lon="5.72694">
        <ele>620.79998779297</ele>
        <time>2021-07-18T05:56:42.000Z</time>
      </trkpt>
      <trkpt lat="45.20959" lon="5.72694">
        <ele>620.20001220703</ele>
        <time>2021-07-18T05:56:43.000Z</time>
      </trkpt>
      <trkpt lat="45.20957" lon="5.72694">
        <ele>619</ele>
        <time>2021-07-18T05:56:45.000Z</time>
      </trkpt>
      <trkpt lat="45.20955" lon="5.72694">
        <ele>618.79998779297</ele>
        <time>2021-07-18T05:56:46.000Z</time>
      </trkpt>
      <trkpt lat="45.20955" lon="5.72694">
        <ele>618</ele>
        <time>2021-07-18T05:56:50.000Z</time>
      </trkpt>
      <trkpt lat="45.20954" lon="5.72695">
        <ele>616.79998779297</ele>
        <time>2021-07-18T05:56:52.000Z</time>
      </trkpt>
      <trkpt lat="45.20953" lon="5.72695">
        <ele>616.79998779297</ele>
        <time>2021-07-18T05:56:53.000Z</time>
      </trkpt>
      <trkpt lat="45.20951" lon="5.72694">
        <ele>616.40002441406</ele>
        <time>2021-07-18T05:56:54.000Z</time>
      </trkpt>
      <trkpt lat="45.20948" lon="5.72695">
        <ele>616</ele>
        <time>2021-07-18T05:56:56.000Z</time>
      </trkpt>
      <trkpt lat="45.20946" lon="5.72695">
        <ele>615.40002441406</ele>
        <time>2021-07-18T05:56:58.000Z</time>
      </trkpt>
      <trkpt lat="45.20945" lon="5.72696">
        <ele>615.40002441406</ele>
        <time>2021-07-18T05:56:59.000Z</time>
      </trkpt>
      <trkpt lat="45.20943" lon="5.72696">
        <ele>614.20001220703</ele>
        <time>2021-07-18T05:57:00.000Z</time>
      </trkpt>
      <trkpt lat="45.20942" lon="5.72695">
        <ele>613.59997558594</ele>
        <time>2021-07-18T05:57:01.000Z</time>
      </trkpt>
      <trkpt lat="45.2094" lon="5.72693">
        <ele>613.59997558594</ele>
        <time>2021-07-18T05:57:02.000Z</time>
      </trkpt>
      <trkpt lat="45.20939" lon="5.72693">
        <ele>613.40002441406</ele>
        <time>2021-07-18T05:57:03.000Z</time>
      </trkpt>
      <trkpt lat="45.20937" lon="5.72693">
        <ele>613</ele>
        <time>2021-07-18T05:57:04.000Z</time>
      </trkpt>
      <trkpt lat="45.20929" lon="5.72697">
        <ele>612.20001220703</ele>
        <time>2021-07-18T05:57:07.000Z</time>
      </trkpt>
      <trkpt lat="45.20925" lon="5.72697">
        <ele>611.59997558594</ele>
        <time>2021-07-18T05:57:08.000Z</time>
      </trkpt>
      <trkpt lat="45.20921" lon="5.72698">
        <ele>611.40002441406</ele>
        <time>2021-07-18T05:57:10.000Z</time>
      </trkpt>
      <trkpt lat="45.20919" lon="5.72699">
        <ele>611.40002441406</ele>
        <time>2021-07-18T05:57:11.000Z</time>
      </trkpt>
      <trkpt lat="45.20918" lon="5.727">
        <ele>609.79998779297</ele>
        <time>2021-07-18T05:57:13.000Z</time>
      </trkpt>
      <trkpt lat="45.20915" lon="5.72702">
        <ele>609.79998779297</ele>
        <time>2021-07-18T05:57:15.000Z</time>
      </trkpt>
      <trkpt lat="45.20913" lon="5.72701">
        <ele>609.20001220703</ele>
        <time>2021-07-18T05:57:16.000Z</time>
      </trkpt>
      <trkpt lat="45.20914" lon="5.72703">
        <ele>608.59997558594</ele>
        <time>2021-07-18T05:57:18.000Z</time>
      </trkpt>
      <trkpt lat="45.20914" lon="5.72702">
        <ele>608.40002441406</ele>
        <time>2021-07-18T05:57:19.000Z</time>
      </trkpt>
      <trkpt lat="45.20914" lon="5.72702">
        <ele>608.20001220703</ele>
        <time>2021-07-18T05:57:20.000Z</time>
      </trkpt>
      <trkpt lat="45.20912" lon="5.72701">
        <ele>608</ele>
        <time>2021-07-18T05:57:21.000Z</time>
      </trkpt>
      <trkpt lat="45.2091" lon="5.72701">
        <ele>607.59997558594</ele>
        <time>2021-07-18T05:57:23.000Z</time>
      </trkpt>
      <trkpt lat="45.20909" lon="5.72701">
        <ele>607.59997558594</ele>
        <time>2021-07-18T05:57:24.000Z</time>
      </trkpt>
      <trkpt lat="45.20908" lon="5.72701">
        <ele>607.40002441406</ele>
        <time>2021-07-18T05:57:25.000Z</time>
      </trkpt>
      <trkpt lat="45.20906" lon="5.72701">
        <ele>606.40002441406</ele>
        <time>2021-07-18T05:57:27.000Z</time>
      </trkpt>
      <trkpt lat="45.20905" lon="5.72701">
        <ele>606.40002441406</ele>
        <time>2021-07-18T05:57:28.000Z</time>
      </trkpt>
      <trkpt lat="45.20904" lon="5.72701">
        <ele>606.40002441406</ele>
        <time>2021-07-18T05:57:29.000Z</time>
      </trkpt>
      <trkpt lat="45.20902" lon="5.727">
        <ele>605.40002441406</ele>
        <time>2021-07-18T05:57:32.000Z</time>
      </trkpt>
      <trkpt lat="45.209" lon="5.72699">
        <ele>605</ele>
        <time>2021-07-18T05:57:33.000Z</time>
      </trkpt>
      <trkpt lat="45.20899" lon="5.727">
        <ele>604.40002441406</ele>
        <time>2021-07-18T05:57:35.000Z</time>
      </trkpt>
      <trkpt lat="45.209" lon="5.72702">
        <ele>603.79998779297</ele>
        <time>2021-07-18T05:57:38.000Z</time>
      </trkpt>
      <trkpt lat="45.20901" lon="5.72703">
        <ele>603.40002441406</ele>
        <time>2021-07-18T05:57:39.000Z</time>
      </trkpt>
      <trkpt lat="45.20901" lon="5.72704">
        <ele>603.40002441406</ele>
        <time>2021-07-18T05:57:40.000Z</time>
      </trkpt>
      <trkpt lat="45.209" lon="5.72703">
        <ele>603</ele>
        <time>2021-07-18T05:57:42.000Z</time>
      </trkpt>
      <trkpt lat="45.20898" lon="5.72701">
        <ele>601.79998779297</ele>
        <time>2021-07-18T05:57:44.000Z</time>
      </trkpt>
      <trkpt lat="45.20898" lon="5.72699">
        <ele>601.59997558594</ele>
        <time>2021-07-18T05:57:46.000Z</time>
      </trkpt>
      <trkpt lat="45.20898" lon="5.72697">
        <ele>600.20001220703</ele>
        <time>2021-07-18T05:57:48.000Z</time>
      </trkpt>
      <trkpt lat="45.20898" lon="5.72696">
        <ele>599.79998779297</ele>
        <time>2021-07-18T05:57:49.000Z</time>
      </trkpt>
      <trkpt lat="45.20898" lon="5.72695">
        <ele>599.59997558594</ele>
        <time>2021-07-18T05:57:50.000Z</time>
      </trkpt>
      <trkpt lat="45.20897" lon="5.72694">
        <ele>599.20001220703</ele>
        <time>2021-07-18T05:57:51.000Z</time>
      </trkpt>
      <trkpt lat="45.20897" lon="5.72692">
        <ele>599</ele>
        <time>2021-07-18T05:57:52.000Z</time>
      </trkpt>
      <trkpt lat="45.20895" lon="5.72687">
        <ele>598.59997558594</ele>
        <time>2021-07-18T05:57:56.000Z</time>
      </trkpt>
      <trkpt lat="45.20894" lon="5.72687">
        <ele>597.79998779297</ele>
        <time>2021-07-18T05:57:57.000Z</time>
      </trkpt>
      <trkpt lat="45.20893" lon="5.72686">
        <ele>597.40002441406</ele>
        <time>2021-07-18T05:57:59.000Z</time>
      </trkpt>
      <trkpt lat="45.2089" lon="5.72682">
        <ele>596.20001220703</ele>
        <time>2021-07-18T05:58:01.000Z</time>
      </trkpt>
      <trkpt lat="45.20888" lon="5.72681">
        <ele>596</ele>
        <time>2021-07-18T05:58:02.000Z</time>
      </trkpt>
      <trkpt lat="45.20884" lon="5.72675">
        <ele>594.79998779297</ele>
        <time>2021-07-18T05:58:06.000Z</time>
      </trkpt>
      <trkpt lat="45.20884" lon="5.72673">
        <ele>594.40002441406</ele>
        <time>2021-07-18T05:58:07.000Z</time>
      </trkpt>
      <trkpt lat="45.20883" lon="5.72672">
        <ele>593.79998779297</ele>
        <time>2021-07-18T05:58:09.000Z</time>
      </trkpt>
      <trkpt lat="45.20882" lon="5.72672">
        <ele>593.40002441406</ele>
        <time>2021-07-18T05:58:10.000Z</time>
      </trkpt>
      <trkpt lat="45.20881" lon="5.72674">
        <ele>592.40002441406</ele>
        <time>2021-07-18T05:58:11.000Z</time>
      </trkpt>
      <trkpt lat="45.20879" lon="5.72677">
        <ele>592.20001220703</ele>
        <time>2021-07-18T05:58:13.000Z</time>
      </trkpt>
      <trkpt lat="45.20876" lon="5.72678">
        <ele>591.79998779297</ele>
        <time>2021-07-18T05:58:15.000Z</time>
      </trkpt>
      <trkpt lat="45.20872" lon="5.7268">
        <ele>591.59997558594</ele>
        <time>2021-07-18T05:58:17.000Z</time>
      </trkpt>
      <trkpt lat="45.20872" lon="5.72679">
        <ele>591.40002441406</ele>
        <time>2021-07-18T05:58:18.000Z</time>
      </trkpt>
      <trkpt lat="45.20869" lon="5.72679">
        <ele>589.79998779297</ele>
        <time>2021-07-18T05:58:20.000Z</time>
      </trkpt>
      <trkpt lat="45.20867" lon="5.72678">
        <ele>588.79998779297</ele>
        <time>2021-07-18T05:58:22.000Z</time>
      </trkpt>
      <trkpt lat="45.20865" lon="5.72677">
        <ele>588.79998779297</ele>
        <time>2021-07-18T05:58:23.000Z</time>
      </trkpt>
      <trkpt lat="45.20861" lon="5.72674">
        <ele>588</ele>
        <time>2021-07-18T05:58:25.000Z</time>
      </trkpt>
      <trkpt lat="45.20861" lon="5.72672">
        <ele>587.20001220703</ele>
        <time>2021-07-18T05:58:26.000Z</time>
      </trkpt>
      <trkpt lat="45.20859" lon="5.7267">
        <ele>587.20001220703</ele>
        <time>2021-07-18T05:58:27.000Z</time>
      </trkpt>
      <trkpt lat="45.20854" lon="5.72665">
        <ele>586.20001220703</ele>
        <time>2021-07-18T05:58:30.000Z</time>
      </trkpt>
      <trkpt lat="45.2085" lon="5.72659">
        <ele>585.40002441406</ele>
        <time>2021-07-18T05:58:33.000Z</time>
      </trkpt>
      <trkpt lat="45.20848" lon="5.72658">
        <ele>585</ele>
        <time>2021-07-18T05:58:34.000Z</time>
      </trkpt>
      <trkpt lat="45.20847" lon="5.72656">
        <ele>584.40002441406</ele>
        <time>2021-07-18T05:58:36.000Z</time>
      </trkpt>
      <trkpt lat="45.20848" lon="5.72653">
        <ele>583.79998779297</ele>
        <time>2021-07-18T05:58:39.000Z</time>
      </trkpt>
      <trkpt lat="45.20846" lon="5.72652">
        <ele>583</ele>
        <time>2021-07-18T05:58:41.000Z</time>
      </trkpt>
      <trkpt lat="45.20845" lon="5.72649">
        <ele>582.59997558594</ele>
        <time>2021-07-18T05:58:43.000Z</time>
      </trkpt>
      <trkpt lat="45.20843" lon="5.72647">
        <ele>581.40002441406</ele>
        <time>2021-07-18T05:58:45.000Z</time>
      </trkpt>
      <trkpt lat="45.20842" lon="5.72645">
        <ele>580.59997558594</ele>
        <time>2021-07-18T05:58:47.000Z</time>
      </trkpt>
      <trkpt lat="45.20841" lon="5.72643">
        <ele>580.20001220703</ele>
        <time>2021-07-18T05:58:48.000Z</time>
      </trkpt>
      <trkpt lat="45.20838" lon="5.72641">
        <ele>579.20001220703</ele>
        <time>2021-07-18T05:58:51.000Z</time>
      </trkpt>
      <trkpt lat="45.20834" lon="5.72641">
        <ele>579</ele>
        <time>2021-07-18T05:58:53.000Z</time>
      </trkpt>
      <trkpt lat="45.20832" lon="5.72642">
        <ele>578.40002441406</ele>
        <time>2021-07-18T05:58:54.000Z</time>
      </trkpt>
      <trkpt lat="45.20829" lon="5.72645">
        <ele>577.40002441406</ele>
        <time>2021-07-18T05:58:56.000Z</time>
      </trkpt>
      <trkpt lat="45.20828" lon="5.72647">
        <ele>577.40002441406</ele>
        <time>2021-07-18T05:58:57.000Z</time>
      </trkpt>
      <trkpt lat="45.20825" lon="5.7265">
        <ele>577</ele>
        <time>2021-07-18T05:58:59.000Z</time>
      </trkpt>
      <trkpt lat="45.20824" lon="5.7265">
        <ele>576.79998779297</ele>
        <time>2021-07-18T05:59:00.000Z</time>
      </trkpt>
      <trkpt lat="45.20823" lon="5.7265">
        <ele>575.40002441406</ele>
        <time>2021-07-18T05:59:02.000Z</time>
      </trkpt>
      <trkpt lat="45.20823" lon="5.72651">
        <ele>575.40002441406</ele>
        <time>2021-07-18T05:59:03.000Z</time>
      </trkpt>
      <trkpt lat="45.20822" lon="5.72651">
        <ele>574.59997558594</ele>
        <time>2021-07-18T05:59:05.000Z</time>
      </trkpt>
      <trkpt lat="45.20822" lon="5.72652">
        <ele>574.40002441406</ele>
        <time>2021-07-18T05:59:06.000Z</time>
      </trkpt>
      <trkpt lat="45.20823" lon="5.72653">
        <ele>574.40002441406</ele>
        <time>2021-07-18T05:59:07.000Z</time>
      </trkpt>
      <trkpt lat="45.20822" lon="5.72655">
        <ele>573.40002441406</ele>
        <time>2021-07-18T05:59:11.000Z</time>
      </trkpt>
      <trkpt lat="45.20821" lon="5.72655">
        <ele>572.79998779297</ele>
        <time>2021-07-18T05:59:12.000Z</time>
      </trkpt>
      <trkpt lat="45.20821" lon="5.72655">
        <ele>572</ele>
        <time>2021-07-18T05:59:13.000Z</time>
      </trkpt>
      <trkpt lat="45.20819" lon="5.72652">
        <ele>571.20001220703</ele>
        <time>2021-07-18T05:59:16.000Z</time>
      </trkpt>
      <trkpt lat="45.20819" lon="5.72651">
        <ele>571</ele>
        <time>2021-07-18T05:59:17.000Z</time>
      </trkpt>
      <trkpt lat="45.20818" lon="5.72649">
        <ele>570</ele>
        <time>2021-07-18T05:59:19.000Z</time>
      </trkpt>
      <trkpt lat="45.20816" lon="5.72645">
        <ele>569.40002441406</ele>
        <time>2021-07-18T05:59:21.000Z</time>
      </trkpt>
      <trkpt lat="45.20816" lon="5.72643">
        <ele>569.20001220703</ele>
        <time>2021-07-18T05:59:22.000Z</time>
      </trkpt>
      <trkpt lat="45.20817" lon="5.72641">
        <ele>568.79998779297</ele>
        <time>2021-07-18T05:59:23.000Z</time>
      </trkpt>
      <trkpt lat="45.20817" lon="5.72639">
        <ele>568.20001220703</ele>
        <time>2021-07-18T05:59:24.000Z</time>
      </trkpt>
      <trkpt lat="45.20816" lon="5.72637">
        <ele>567.59997558594</ele>
        <time>2021-07-18T05:59:25.000Z</time>
      </trkpt>
      <trkpt lat="45.20814" lon="5.72632">
        <ele>567</ele>
        <time>2021-07-18T05:59:27.000Z</time>
      </trkpt>
      <trkpt lat="45.20803" lon="5.72627">
        <ele>565.79998779297</ele>
        <time>2021-07-18T05:59:30.000Z</time>
      </trkpt>
      <trkpt lat="45.20792" lon="5.72621">
        <ele>565.59997558594</ele>
        <time>2021-07-18T05:59:33.000Z</time>
      </trkpt>
      <trkpt lat="45.20791" lon="5.72622">
        <ele>565.20001220703</ele>
        <time>2021-07-18T05:59:34.000Z</time>
      </trkpt>
      <trkpt lat="45.20791" lon="5.72623">
        <ele>563.79998779297</ele>
        <time>2021-07-18T05:59:35.000Z</time>
      </trkpt>
      <trkpt lat="45.20792" lon="5.72626">
        <ele>563.20001220703</ele>
        <time>2021-07-18T05:59:38.000Z</time>
      </trkpt>
      <trkpt lat="45.20793" lon="5.72627">
        <ele>563</ele>
        <time>2021-07-18T05:59:39.000Z</time>
      </trkpt>
      <trkpt lat="45.20794" lon="5.72628">
        <ele>562.59997558594</ele>
        <time>2021-07-18T05:59:40.000Z</time>
      </trkpt>
      <trkpt lat="45.20794" lon="5.72628">
        <ele>562.40002441406</ele>
        <time>2021-07-18T05:59:41.000Z</time>
      </trkpt>
      <trkpt lat="45.20793" lon="5.72628">
        <ele>560.59997558594</ele>
        <time>2021-07-18T05:59:42.000Z</time>
      </trkpt>
      <trkpt lat="45.20791" lon="5.72628">
        <ele>560.20001220703</ele>
        <time>2021-07-18T05:59:43.000Z</time>
      </trkpt>
      <trkpt lat="45.20789" lon="5.72627">
        <ele>559.79998779297</ele>
        <time>2021-07-18T05:59:45.000Z</time>
      </trkpt>
      <trkpt lat="45.20789" lon="5.72628">
        <ele>559.59997558594</ele>
        <time>2021-07-18T05:59:46.000Z</time>
      </trkpt>
      <trkpt lat="45.20788" lon="5.72628">
        <ele>558.20001220703</ele>
        <time>2021-07-18T05:59:49.000Z</time>
      </trkpt>
      <trkpt lat="45.20787" lon="5.72626">
        <ele>558</ele>
        <time>2021-07-18T05:59:51.000Z</time>
      </trkpt>
      <trkpt lat="45.20786" lon="5.72625">
        <ele>557.79998779297</ele>
        <time>2021-07-18T05:59:52.000Z</time>
      </trkpt>
      <trkpt lat="45.20786" lon="5.72623">
        <ele>557.79998779297</ele>
        <time>2021-07-18T05:59:53.000Z</time>
      </trkpt>
      <trkpt lat="45.20784" lon="5.72619">
        <ele>557.20001220703</ele>
        <time>2021-07-18T05:59:55.000Z</time>
      </trkpt>
      <trkpt lat="45.20782" lon="5.72618">
        <ele>556.59997558594</ele>
        <time>2021-07-18T05:59:56.000Z</time>
      </trkpt>
      <trkpt lat="45.20778" lon="5.72614">
        <ele>555.79998779297</ele>
        <time>2021-07-18T05:59:58.000Z</time>
      </trkpt>
      <trkpt lat="45.20777" lon="5.72612">
        <ele>555.40002441406</ele>
        <time>2021-07-18T05:59:59.000Z</time>
      </trkpt>
      <trkpt lat="45.20776" lon="5.72609">
        <ele>555</ele>
        <time>2021-07-18T06:00:01.000Z</time>
      </trkpt>
      <trkpt lat="45.20777" lon="5.72608">
        <ele>554.79998779297</ele>
        <time>2021-07-18T06:00:02.000Z</time>
      </trkpt>
      <trkpt lat="45.2078" lon="5.72605">
        <ele>554</ele>
        <time>2021-07-18T06:00:04.000Z</time>
      </trkpt>
      <trkpt lat="45.2078" lon="5.72604">
        <ele>553</ele>
        <time>2021-07-18T06:00:06.000Z</time>
      </trkpt>
      <trkpt lat="45.20779" lon="5.72604">
        <ele>552.79998779297</ele>
        <time>2021-07-18T06:00:07.000Z</time>
      </trkpt>
      <trkpt lat="45.20777" lon="5.72603">
        <ele>552.79998779297</ele>
        <time>2021-07-18T06:00:08.000Z</time>
      </trkpt>
      <trkpt lat="45.20777" lon="5.72602">
        <ele>552.20001220703</ele>
        <time>2021-07-18T06:00:10.000Z</time>
      </trkpt>
      <trkpt lat="45.20777" lon="5.726">
        <ele>550.79998779297</ele>
        <time>2021-07-18T06:00:11.000Z</time>
      </trkpt>
      <trkpt lat="45.20772" lon="5.72595">
        <ele>549.59997558594</ele>
        <time>2021-07-18T06:00:15.000Z</time>
      </trkpt>
      <trkpt lat="45.20769" lon="5.7259">
        <ele>548.20001220703</ele>
        <time>2021-07-18T06:00:19.000Z</time>
      </trkpt>
      <trkpt lat="45.20765" lon="5.72588">
        <ele>547.40002441406</ele>
        <time>2021-07-18T06:00:20.000Z</time>
      </trkpt>
      <trkpt lat="45.20758" lon="5.72585">
        <ele>547</ele>
        <time>2021-07-18T06:00:22.000Z</time>
      </trkpt>
      <trkpt lat="45.20757" lon="5.72586">
        <ele>547</ele>
        <time>2021-07-18T06:00:23.000Z</time>
      </trkpt>
      <trkpt lat="45.20754" lon="5.72585">
        <ele>545.59997558594</ele>
        <time>2021-07-18T06:00:25.000Z</time>
      </trkpt>
      <trkpt lat="45.20751" lon="5.72584">
        <ele>545.40002441406</ele>
        <time>2021-07-18T06:00:26.000Z</time>
      </trkpt>
      <trkpt lat="45.20741" lon="5.72578">
        <ele>544.59997558594</ele>
        <time>2021-07-18T06:00:30.000Z</time>
      </trkpt>
      <trkpt lat="45.20742" lon="5.72577">
        <ele>544.20001220703</ele>
        <time>2021-07-18T06:00:31.000Z</time>
      </trkpt>
      <trkpt lat="45.20742" lon="5.72576">
        <ele>544.20001220703</ele>
        <time>2021-07-18T06:00:32.000Z</time>
      </trkpt>
      <trkpt lat="45.20743" lon="5.72576">
        <ele>543.79998779297</ele>
        <time>2021-07-18T06:00:33.000Z</time>
      </trkpt>
      <trkpt lat="45.2074" lon="5.72574">
        <ele>543.20001220703</ele>
        <time>2021-07-18T06:00:35.000Z</time>
      </trkpt>
      <trkpt lat="45.20737" lon="5.72573">
        <ele>542.79998779297</ele>
        <time>2021-07-18T06:00:36.000Z</time>
      </trkpt>
      <trkpt lat="45.20734" lon="5.72572">
        <ele>542.40002441406</ele>
        <time>2021-07-18T06:00:37.000Z</time>
      </trkpt>
      <trkpt lat="45.20733" lon="5.72572">
        <ele>541.40002441406</ele>
        <time>2021-07-18T06:00:38.000Z</time>
      </trkpt>
      <trkpt lat="45.20732" lon="5.72573">
        <ele>541.20001220703</ele>
        <time>2021-07-18T06:00:39.000Z</time>
      </trkpt>
      <trkpt lat="45.20727" lon="5.72574">
        <ele>540.79998779297</ele>
        <time>2021-07-18T06:00:41.000Z</time>
      </trkpt>
      <trkpt lat="45.20725" lon="5.72574">
        <ele>540.20001220703</ele>
        <time>2021-07-18T06:00:42.000Z</time>
      </trkpt>
      <trkpt lat="45.20723" lon="5.72575">
        <ele>540.20001220703</ele>
        <time>2021-07-18T06:00:43.000Z</time>
      </trkpt>
      <trkpt lat="45.20722" lon="5.7258">
        <ele>539.40002441406</ele>
        <time>2021-07-18T06:00:46.000Z</time>
      </trkpt>
      <trkpt lat="45.20723" lon="5.72581">
        <ele>538.40002441406</ele>
        <time>2021-07-18T06:00:47.000Z</time>
      </trkpt>
      <trkpt lat="45.20721" lon="5.72582">
        <ele>538.40002441406</ele>
        <time>2021-07-18T06:00:48.000Z</time>
      </trkpt>
      <trkpt lat="45.20723" lon="5.72587">
        <ele>537.59997558594</ele>
        <time>2021-07-18T06:00:50.000Z</time>
      </trkpt>
      <trkpt lat="45.20724" lon="5.72593">
        <ele>537.40002441406</ele>
        <time>2021-07-18T06:00:52.000Z</time>
      </trkpt>
      <trkpt lat="45.20723" lon="5.72598">
        <ele>536.79998779297</ele>
        <time>2021-07-18T06:00:54.000Z</time>
      </trkpt>
      <trkpt lat="45.20723" lon="5.726">
        <ele>536.40002441406</ele>
        <time>2021-07-18T06:00:55.000Z</time>
      </trkpt>
      <trkpt lat="45.2072" lon="5.72614">
        <ele>535.79998779297</ele>
        <time>2021-07-18T06:01:01.000Z</time>
      </trkpt>
      <trkpt lat="45.20706" lon="5.72622">
        <ele>535.79998779297</ele>
        <time>2021-07-18T06:01:06.000Z</time>
      </trkpt>
      <trkpt lat="45.20706" lon="5.72624">
        <ele>535.79998779297</ele>
        <time>2021-07-18T06:01:07.000Z</time>
      </trkpt>
      <trkpt lat="45.20704" lon="5.72625">
        <ele>535.79998779297</ele>
        <time>2021-07-18T06:01:09.000Z</time>
      </trkpt>
      <trkpt lat="45.20704" lon="5.72626">
        <ele>535.79998779297</ele>
        <time>2021-07-18T06:01:10.000Z</time>
      </trkpt>
      <trkpt lat="45.20705" lon="5.72626">
        <ele>535.79998779297</ele>
        <time>2021-07-18T06:01:11.000Z</time>
      </trkpt>
      <trkpt lat="45.20705" lon="5.72626">
        <ele>535.79998779297</ele>
        <time>2021-07-18T06:01:12.000Z</time>
      </trkpt>
      <trkpt lat="45.20704" lon="5.72626">
        <ele>535.79998779297</ele>
        <time>2021-07-18T06:01:13.000Z</time>
      </trkpt>
      <trkpt lat="45.20703" lon="5.72625">
        <ele>535.79998779297</ele>
        <time>2021-07-18T06:01:14.000Z</time>
      </trkpt>
      <trkpt lat="45.20703" lon="5.72625">
        <ele>535.79998779297</ele>
        <time>2021-07-18T06:01:15.000Z</time>
      </trkpt>
      <trkpt lat="45.20703" lon="5.72625">
        <ele>535.79998779297</ele>
        <time>2021-07-18T06:01:16.000Z</time>
      </trkpt>
      <trkpt lat="45.20694" lon="5.72624">
        <ele>536</ele>
        <time>2021-07-18T06:01:18.000Z</time>
      </trkpt>
      <trkpt lat="45.20692" lon="5.72625">
        <ele>536</ele>
        <time>2021-07-18T06:01:19.000Z</time>
      </trkpt>
      <trkpt lat="45.20684" lon="5.72628">
        <ele>535.40002441406</ele>
        <time>2021-07-18T06:01:23.000Z</time>
      </trkpt>
      <trkpt lat="45.20682" lon="5.72628">
        <ele>535.20001220703</ele>
        <time>2021-07-18T06:01:24.000Z</time>
      </trkpt>
      <trkpt lat="45.20673" lon="5.72628">
        <ele>534.79998779297</ele>
        <time>2021-07-18T06:01:27.000Z</time>
      </trkpt>
      <trkpt lat="45.20666" lon="5.72627">
        <ele>533.79998779297</ele>
        <time>2021-07-18T06:01:29.000Z</time>
      </trkpt>
      <trkpt lat="45.20663" lon="5.72625">
        <ele>533.79998779297</ele>
        <time>2021-07-18T06:01:30.000Z</time>
      </trkpt>
      <trkpt lat="45.20654" lon="5.72618">
        <ele>533</ele>
        <time>2021-07-18T06:01:33.000Z</time>
      </trkpt>
      <trkpt lat="45.2065" lon="5.72617">
        <ele>532.59997558594</ele>
        <time>2021-07-18T06:01:35.000Z</time>
      </trkpt>
      <trkpt lat="45.2064" lon="5.72607">
        <ele>531.20001220703</ele>
        <time>2021-07-18T06:01:40.000Z</time>
      </trkpt>
      <trkpt lat="45.20627" lon="5.72597">
        <ele>530.20001220703</ele>
        <time>2021-07-18T06:01:44.000Z</time>
      </trkpt>
      <trkpt lat="45.20625" lon="5.72596">
        <ele>530.20001220703</ele>
        <time>2021-07-18T06:01:45.000Z</time>
      </trkpt>
      <trkpt lat="45.20623" lon="5.72594">
        <ele>530.20001220703</ele>
        <time>2021-07-18T06:01:46.000Z</time>
      </trkpt>
      <trkpt lat="45.20605" lon="5.72583">
        <ele>529.40002441406</ele>
        <time>2021-07-18T06:01:52.000Z</time>
      </trkpt>
      <trkpt lat="45.20603" lon="5.72581">
        <ele>529</ele>
        <time>2021-07-18T06:01:53.000Z</time>
      </trkpt>
      <trkpt lat="45.2059" lon="5.72571">
        <ele>527.79998779297</ele>
        <time>2021-07-18T06:01:57.000Z</time>
      </trkpt>
      <trkpt lat="45.20583" lon="5.72569">
        <ele>527.20001220703</ele>
        <time>2021-07-18T06:01:59.000Z</time>
      </trkpt>
      <trkpt lat="45.20571" lon="5.72567">
        <ele>527</ele>
        <time>2021-07-18T06:02:02.000Z</time>
      </trkpt>
      <trkpt lat="45.20567" lon="5.72565">
        <ele>527</ele>
        <time>2021-07-18T06:02:03.000Z</time>
      </trkpt>
      <trkpt lat="45.20562" lon="5.72563">
        <ele>526.40002441406</ele>
        <time>2021-07-18T06:02:05.000Z</time>
      </trkpt>
      <trkpt lat="45.20554" lon="5.72564">
        <ele>525.40002441406</ele>
        <time>2021-07-18T06:02:08.000Z</time>
      </trkpt>
      <trkpt lat="45.20547" lon="5.72567">
        <ele>525</ele>
        <time>2021-07-18T06:02:12.000Z</time>
      </trkpt>
      <trkpt lat="45.20538" lon="5.72571">
        <ele>524</ele>
        <time>2021-07-18T06:02:16.000Z</time>
      </trkpt>
      <trkpt lat="45.20533" lon="5.72573">
        <ele>523.59997558594</ele>
        <time>2021-07-18T06:02:18.000Z</time>
      </trkpt>
      <trkpt lat="45.20522" lon="5.72578">
        <ele>522.79998779297</ele>
        <time>2021-07-18T06:02:22.000Z</time>
      </trkpt>
      <trkpt lat="45.20519" lon="5.72578">
        <ele>522.79998779297</ele>
        <time>2021-07-18T06:02:23.000Z</time>
      </trkpt>
      <trkpt lat="45.20517" lon="5.72579">
        <ele>523</ele>
        <time>2021-07-18T06:02:24.000Z</time>
      </trkpt>
      <trkpt lat="45.20514" lon="5.72578">
        <ele>522.79998779297</ele>
        <time>2021-07-18T06:02:25.000Z</time>
      </trkpt>
      <trkpt lat="45.20511" lon="5.72577">
        <ele>522.20001220703</ele>
        <time>2021-07-18T06:02:26.000Z</time>
      </trkpt>
      <trkpt lat="45.20508" lon="5.72576">
        <ele>521.79998779297</ele>
        <time>2021-07-18T06:02:27.000Z</time>
      </trkpt>
      <trkpt lat="45.20504" lon="5.72574">
        <ele>521.79998779297</ele>
        <time>2021-07-18T06:02:29.000Z</time>
      </trkpt>
      <trkpt lat="45.20502" lon="5.72572">
        <ele>521.59997558594</ele>
        <time>2021-07-18T06:02:30.000Z</time>
      </trkpt>
      <trkpt lat="45.20498" lon="5.72568">
        <ele>521.59997558594</ele>
        <time>2021-07-18T06:02:32.000Z</time>
      </trkpt>
      <trkpt lat="45.2049" lon="5.72562">
        <ele>520.79998779297</ele>
        <time>2021-07-18T06:02:35.000Z</time>
      </trkpt>
      <trkpt lat="45.20489" lon="5.72561">
        <ele>520.20001220703</ele>
        <time>2021-07-18T06:02:36.000Z</time>
      </trkpt>
      <trkpt lat="45.20488" lon="5.7256">
        <ele>520</ele>
        <time>2021-07-18T06:02:37.000Z</time>
      </trkpt>
      <trkpt lat="45.20473" lon="5.72549">
        <ele>518.79998779297</ele>
        <time>2021-07-18T06:02:43.000Z</time>
      </trkpt>
      <trkpt lat="45.20468" lon="5.72543">
        <ele>517.20001220703</ele>
        <time>2021-07-18T06:02:47.000Z</time>
      </trkpt>
      <trkpt lat="45.20466" lon="5.7254">
        <ele>517</ele>
        <time>2021-07-18T06:02:48.000Z</time>
      </trkpt>
      <trkpt lat="45.20465" lon="5.72539">
        <ele>517</ele>
        <time>2021-07-18T06:02:49.000Z</time>
      </trkpt>
      <trkpt lat="45.20464" lon="5.72538">
        <ele>516.79998779297</ele>
        <time>2021-07-18T06:02:51.000Z</time>
      </trkpt>
      <trkpt lat="45.2046" lon="5.72536">
        <ele>516.20001220703</ele>
        <time>2021-07-18T06:02:53.000Z</time>
      </trkpt>
      <trkpt lat="45.20456" lon="5.72535">
        <ele>515</ele>
        <time>2021-07-18T06:02:55.000Z</time>
      </trkpt>
      <trkpt lat="45.20456" lon="5.72542">
        <ele>515</ele>
        <time>2021-07-18T06:02:58.000Z</time>
      </trkpt>
      <trkpt lat="45.20458" lon="5.72545">
        <ele>513.79998779297</ele>
        <time>2021-07-18T06:03:00.000Z</time>
      </trkpt>
      <trkpt lat="45.20458" lon="5.72547">
        <ele>513</ele>
        <time>2021-07-18T06:03:02.000Z</time>
      </trkpt>
      <trkpt lat="45.2046" lon="5.72553">
        <ele>512.59997558594</ele>
        <time>2021-07-18T06:03:05.000Z</time>
      </trkpt>
      <trkpt lat="45.20463" lon="5.72559">
        <ele>512</ele>
        <time>2021-07-18T06:03:08.000Z</time>
      </trkpt>
      <trkpt lat="45.20469" lon="5.72563">
        <ele>511.20001220703</ele>
        <time>2021-07-18T06:03:10.000Z</time>
      </trkpt>
      <trkpt lat="45.20477" lon="5.72569">
        <ele>510.60000610352</ele>
        <time>2021-07-18T06:03:13.000Z</time>
      </trkpt>
      <trkpt lat="45.2048" lon="5.72573">
        <ele>510</ele>
        <time>2021-07-18T06:03:15.000Z</time>
      </trkpt>
      <trkpt lat="45.20484" lon="5.72581">
        <ele>509.39999389648</ele>
        <time>2021-07-18T06:03:18.000Z</time>
      </trkpt>
      <trkpt lat="45.20486" lon="5.72584">
        <ele>508.79998779297</ele>
        <time>2021-07-18T06:03:19.000Z</time>
      </trkpt>
      <trkpt lat="45.20488" lon="5.72586">
        <ele>508.60000610352</ele>
        <time>2021-07-18T06:03:20.000Z</time>
      </trkpt>
      <trkpt lat="45.20494" lon="5.72594">
        <ele>507.60000610352</ele>
        <time>2021-07-18T06:03:24.000Z</time>
      </trkpt>
      <trkpt lat="45.20501" lon="5.72599">
        <ele>506.39999389648</ele>
        <time>2021-07-18T06:03:27.000Z</time>
      </trkpt>
      <trkpt lat="45.20502" lon="5.72601">
        <ele>506.39999389648</ele>
        <time>2021-07-18T06:03:28.000Z</time>
      </trkpt>
      <trkpt lat="45.20503" lon="5.72603">
        <ele>506.20001220703</ele>
        <time>2021-07-18T06:03:29.000Z</time>
      </trkpt>
      <trkpt lat="45.20504" lon="5.72605">
        <ele>505.79998779297</ele>
        <time>2021-07-18T06:03:30.000Z</time>
      </trkpt>
      <trkpt lat="45.20506" lon="5.72606">
        <ele>505.39999389648</ele>
        <time>2021-07-18T06:03:31.000Z</time>
      </trkpt>
      <trkpt lat="45.20508" lon="5.72607">
        <ele>505.20001220703</ele>
        <time>2021-07-18T06:03:32.000Z</time>
      </trkpt>
      <trkpt lat="45.20511" lon="5.72607">
        <ele>505</ele>
        <time>2021-07-18T06:03:33.000Z</time>
      </trkpt>
      <trkpt lat="45.20516" lon="5.7261">
        <ele>504.39999389648</ele>
        <time>2021-07-18T06:03:36.000Z</time>
      </trkpt>
      <trkpt lat="45.20518" lon="5.72613">
        <ele>503.39999389648</ele>
        <time>2021-07-18T06:03:38.000Z</time>
      </trkpt>
      <trkpt lat="45.20525" lon="5.72618">
        <ele>502.20001220703</ele>
        <time>2021-07-18T06:03:42.000Z</time>
      </trkpt>
      <trkpt lat="45.20529" lon="5.72623">
        <ele>502.20001220703</ele>
        <time>2021-07-18T06:03:44.000Z</time>
      </trkpt>
      <trkpt lat="45.2054" lon="5.72634">
        <ele>500.60000610352</ele>
        <time>2021-07-18T06:03:48.000Z</time>
      </trkpt>
      <trkpt lat="45.20544" lon="5.72639">
        <ele>500</ele>
        <time>2021-07-18T06:03:50.000Z</time>
      </trkpt>
      <trkpt lat="45.20551" lon="5.72648">
        <ele>499.39999389648</ele>
        <time>2021-07-18T06:03:53.000Z</time>
      </trkpt>
      <trkpt lat="45.20554" lon="5.72651">
        <ele>498.39999389648</ele>
        <time>2021-07-18T06:03:54.000Z</time>
      </trkpt>
      <trkpt lat="45.2056" lon="5.72658">
        <ele>498.20001220703</ele>
        <time>2021-07-18T06:03:57.000Z</time>
      </trkpt>
      <trkpt lat="45.20571" lon="5.72666">
        <ele>497.20001220703</ele>
        <time>2021-07-18T06:04:01.000Z</time>
      </trkpt>
      <trkpt lat="45.20578" lon="5.72673">
        <ele>497</ele>
        <time>2021-07-18T06:04:04.000Z</time>
      </trkpt>
      <trkpt lat="45.20587" lon="5.72693">
        <ele>496.20001220703</ele>
        <time>2021-07-18T06:04:12.000Z</time>
      </trkpt>
      <trkpt lat="45.20584" lon="5.72697">
        <ele>496.20001220703</ele>
        <time>2021-07-18T06:04:13.000Z</time>
      </trkpt>
      <trkpt lat="45.20582" lon="5.72702">
        <ele>495.20001220703</ele>
        <time>2021-07-18T06:04:15.000Z</time>
      </trkpt>
      <trkpt lat="45.2058" lon="5.72706">
        <ele>494.60000610352</ele>
        <time>2021-07-18T06:04:17.000Z</time>
      </trkpt>
      <trkpt lat="45.20577" lon="5.72705">
        <ele>494</ele>
        <time>2021-07-18T06:04:19.000Z</time>
      </trkpt>
      <trkpt lat="45.20574" lon="5.72704">
        <ele>493.39999389648</ele>
        <time>2021-07-18T06:04:20.000Z</time>
      </trkpt>
      <trkpt lat="45.20572" lon="5.72703">
        <ele>493</ele>
        <time>2021-07-18T06:04:21.000Z</time>
      </trkpt>
      <trkpt lat="45.2057" lon="5.72702">
        <ele>492.39999389648</ele>
        <time>2021-07-18T06:04:22.000Z</time>
      </trkpt>
      <trkpt lat="45.20563" lon="5.72697">
        <ele>491.60000610352</ele>
        <time>2021-07-18T06:04:25.000Z</time>
      </trkpt>
      <trkpt lat="45.20552" lon="5.72692">
        <ele>490.39999389648</ele>
        <time>2021-07-18T06:04:29.000Z</time>
      </trkpt>
      <trkpt lat="45.20547" lon="5.72691">
        <ele>489.39999389648</ele>
        <time>2021-07-18T06:04:31.000Z</time>
      </trkpt>
      <trkpt lat="45.20536" lon="5.72683">
        <ele>488.39999389648</ele>
        <time>2021-07-18T06:04:35.000Z</time>
      </trkpt>
      <trkpt lat="45.20529" lon="5.7268">
        <ele>487.39999389648</ele>
        <time>2021-07-18T06:04:38.000Z</time>
      </trkpt>
      <trkpt lat="45.20522" lon="5.72679">
        <ele>486.60000610352</ele>
        <time>2021-07-18T06:04:41.000Z</time>
      </trkpt>
      <trkpt lat="45.20516" lon="5.72676">
        <ele>486.20001220703</ele>
        <time>2021-07-18T06:04:43.000Z</time>
      </trkpt>
      <trkpt lat="45.20511" lon="5.72674">
        <ele>485.20001220703</ele>
        <time>2021-07-18T06:04:45.000Z</time>
      </trkpt>
      <trkpt lat="45.20509" lon="5.72672">
        <ele>485</ele>
        <time>2021-07-18T06:04:46.000Z</time>
      </trkpt>
      <trkpt lat="45.20505" lon="5.72671">
        <ele>484</ele>
        <time>2021-07-18T06:04:48.000Z</time>
      </trkpt>
      <trkpt lat="45.20493" lon="5.72668">
        <ele>483.60000610352</ele>
        <time>2021-07-18T06:04:53.000Z</time>
      </trkpt>
      <trkpt lat="45.20491" lon="5.72667">
        <ele>482.60000610352</ele>
        <time>2021-07-18T06:04:54.000Z</time>
      </trkpt>
      <trkpt lat="45.20489" lon="5.72666">
        <ele>482.39999389648</ele>
        <time>2021-07-18T06:04:55.000Z</time>
      </trkpt>
      <trkpt lat="45.20482" lon="5.72662">
        <ele>482</ele>
        <time>2021-07-18T06:04:58.000Z</time>
      </trkpt>
      <trkpt lat="45.20475" lon="5.7266">
        <ele>480.79998779297</ele>
        <time>2021-07-18T06:05:01.000Z</time>
      </trkpt>
      <trkpt lat="45.20472" lon="5.72658">
        <ele>479.79998779297</ele>
        <time>2021-07-18T06:05:03.000Z</time>
      </trkpt>
      <trkpt lat="45.20467" lon="5.72655">
        <ele>479.39999389648</ele>
        <time>2021-07-18T06:05:05.000Z</time>
      </trkpt>
      <trkpt lat="45.20459" lon="5.72654">
        <ele>479.20001220703</ele>
        <time>2021-07-18T06:05:08.000Z</time>
      </trkpt>
      <trkpt lat="45.20456" lon="5.72654">
        <ele>478</ele>
        <time>2021-07-18T06:05:09.000Z</time>
      </trkpt>
      <trkpt lat="45.20451" lon="5.7265">
        <ele>477.39999389648</ele>
        <time>2021-07-18T06:05:11.000Z</time>
      </trkpt>
      <trkpt lat="45.20446" lon="5.72645">
        <ele>477</ele>
        <time>2021-07-18T06:05:13.000Z</time>
      </trkpt>
      <trkpt lat="45.20443" lon="5.72642">
        <ele>476.60000610352</ele>
        <time>2021-07-18T06:05:14.000Z</time>
      </trkpt>
      <trkpt lat="45.2043" lon="5.7263">
        <ele>475.79998779297</ele>
        <time>2021-07-18T06:05:18.000Z</time>
      </trkpt>
      <trkpt lat="45.20428" lon="5.72629">
        <ele>475.60000610352</ele>
        <time>2021-07-18T06:05:19.000Z</time>
      </trkpt>
      <trkpt lat="45.20424" lon="5.72628">
        <ele>475</ele>
        <time>2021-07-18T06:05:21.000Z</time>
      </trkpt>
      <trkpt lat="45.20424" lon="5.72628">
        <ele>474.79998779297</ele>
        <time>2021-07-18T06:05:22.000Z</time>
      </trkpt>
      <trkpt lat="45.20425" lon="5.72631">
        <ele>473.79998779297</ele>
        <time>2021-07-18T06:05:24.000Z</time>
      </trkpt>
      <trkpt lat="45.20433" lon="5.72634">
        <ele>473</ele>
        <time>2021-07-18T06:05:27.000Z</time>
      </trkpt>
      <trkpt lat="45.20439" lon="5.72638">
        <ele>472.60000610352</ele>
        <time>2021-07-18T06:05:29.000Z</time>
      </trkpt>
      <trkpt lat="45.20444" lon="5.72642">
        <ele>471.20001220703</ele>
        <time>2021-07-18T06:05:31.000Z</time>
      </trkpt>
      <trkpt lat="45.20449" lon="5.72647">
        <ele>471</ele>
        <time>2021-07-18T06:05:33.000Z</time>
      </trkpt>
      <trkpt lat="45.20459" lon="5.72658">
        <ele>469.79998779297</ele>
        <time>2021-07-18T06:05:38.000Z</time>
      </trkpt>
      <trkpt lat="45.20463" lon="5.72661">
        <ele>468.39999389648</ele>
        <time>2021-07-18T06:05:40.000Z</time>
      </trkpt>
      <trkpt lat="45.20466" lon="5.72662">
        <ele>468.39999389648</ele>
        <time>2021-07-18T06:05:42.000Z</time>
      </trkpt>
      <trkpt lat="45.20468" lon="5.72662">
        <ele>468.39999389648</ele>
        <time>2021-07-18T06:05:43.000Z</time>
      </trkpt>
      <trkpt lat="45.20471" lon="5.72665">
        <ele>467.39999389648</ele>
        <time>2021-07-18T06:05:46.000Z</time>
      </trkpt>
      <trkpt lat="45.20474" lon="5.72669">
        <ele>466.20001220703</ele>
        <time>2021-07-18T06:05:49.000Z</time>
      </trkpt>
      <trkpt lat="45.20475" lon="5.72671">
        <ele>466.20001220703</ele>
        <time>2021-07-18T06:05:50.000Z</time>
      </trkpt>
      <trkpt lat="45.20477" lon="5.72672">
        <ele>465.60000610352</ele>
        <time>2021-07-18T06:05:51.000Z</time>
      </trkpt>
      <trkpt lat="45.2048" lon="5.72673">
        <ele>465.20001220703</ele>
        <time>2021-07-18T06:05:52.000Z</time>
      </trkpt>
      <trkpt lat="45.20485" lon="5.72676">
        <ele>464.20001220703</ele>
        <time>2021-07-18T06:05:54.000Z</time>
      </trkpt>
      <trkpt lat="45.20491" lon="5.72681">
        <ele>464</ele>
        <time>2021-07-18T06:05:57.000Z</time>
      </trkpt>
      <trkpt lat="45.20494" lon="5.72684">
        <ele>463.60000610352</ele>
        <time>2021-07-18T06:05:59.000Z</time>
      </trkpt>
      <trkpt lat="45.205" lon="5.72686">
        <ele>462.79998779297</ele>
        <time>2021-07-18T06:06:01.000Z</time>
      </trkpt>
      <trkpt lat="45.20507" lon="5.72692">
        <ele>461.79998779297</ele>
        <time>2021-07-18T06:06:04.000Z</time>
      </trkpt>
      <trkpt lat="45.20512" lon="5.72696">
        <ele>461.20001220703</ele>
        <time>2021-07-18T06:06:06.000Z</time>
      </trkpt>
      <trkpt lat="45.20514" lon="5.72699">
        <ele>460.60000610352</ele>
        <time>2021-07-18T06:06:07.000Z</time>
      </trkpt>
      <trkpt lat="45.20529" lon="5.72713">
        <ele>459.20001220703</ele>
        <time>2021-07-18T06:06:13.000Z</time>
      </trkpt>
      <trkpt lat="45.20527" lon="5.72719">
        <ele>458</ele>
        <time>2021-07-18T06:06:15.000Z</time>
      </trkpt>
      <trkpt lat="45.20515" lon="5.72719">
        <ele>457</ele>
        <time>2021-07-18T06:06:19.000Z</time>
      </trkpt>
      <trkpt lat="45.20501" lon="5.72718">
        <ele>456</ele>
        <time>2021-07-18T06:06:24.000Z</time>
      </trkpt>
      <trkpt lat="45.20498" lon="5.72718">
        <ele>455.60000610352</ele>
        <time>2021-07-18T06:06:25.000Z</time>
      </trkpt>
      <trkpt lat="45.20488" lon="5.72715">
        <ele>454.79998779297</ele>
        <time>2021-07-18T06:06:30.000Z</time>
      </trkpt>
      <trkpt lat="45.20484" lon="5.72715">
        <ele>454.79998779297</ele>
        <time>2021-07-18T06:06:31.000Z</time>
      </trkpt>
      <trkpt lat="45.20481" lon="5.72715">
        <ele>453.79998779297</ele>
        <time>2021-07-18T06:06:32.000Z</time>
      </trkpt>
      <trkpt lat="45.20474" lon="5.72715">
        <ele>453</ele>
        <time>2021-07-18T06:06:34.000Z</time>
      </trkpt>
      <trkpt lat="45.20469" lon="5.72713">
        <ele>452.79998779297</ele>
        <time>2021-07-18T06:06:36.000Z</time>
      </trkpt>
      <trkpt lat="45.20463" lon="5.72714">
        <ele>452.20001220703</ele>
        <time>2021-07-18T06:06:38.000Z</time>
      </trkpt>
      <trkpt lat="45.20455" lon="5.72714">
        <ele>451.39999389648</ele>
        <time>2021-07-18T06:06:41.000Z</time>
      </trkpt>
      <trkpt lat="45.20454" lon="5.72714">
        <ele>451</ele>
        <time>2021-07-18T06:06:42.000Z</time>
      </trkpt>
      <trkpt lat="45.20453" lon="5.72715">
        <ele>450</ele>
        <time>2021-07-18T06:06:43.000Z</time>
      </trkpt>
      <trkpt lat="45.20448" lon="5.72715">
        <ele>449.79998779297</ele>
        <time>2021-07-18T06:06:45.000Z</time>
      </trkpt>
      <trkpt lat="45.2044" lon="5.72714">
        <ele>448.79998779297</ele>
        <time>2021-07-18T06:06:48.000Z</time>
      </trkpt>
      <trkpt lat="45.20435" lon="5.72713">
        <ele>447.20001220703</ele>
        <time>2021-07-18T06:06:50.000Z</time>
      </trkpt>
      <trkpt lat="45.20432" lon="5.72712">
        <ele>447</ele>
        <time>2021-07-18T06:06:51.000Z</time>
      </trkpt>
      <trkpt lat="45.2043" lon="5.7271">
        <ele>447</ele>
        <time>2021-07-18T06:06:52.000Z</time>
      </trkpt>
      <trkpt lat="45.20422" lon="5.72703">
        <ele>446.60000610352</ele>
        <time>2021-07-18T06:06:55.000Z</time>
      </trkpt>
      <trkpt lat="45.2042" lon="5.72702">
        <ele>446.20001220703</ele>
        <time>2021-07-18T06:06:56.000Z</time>
      </trkpt>
      <trkpt lat="45.20418" lon="5.727">
        <ele>445.20001220703</ele>
        <time>2021-07-18T06:06:57.000Z</time>
      </trkpt>
      <trkpt lat="45.20414" lon="5.72696">
        <ele>444</ele>
        <time>2021-07-18T06:06:59.000Z</time>
      </trkpt>
      <trkpt lat="45.20409" lon="5.72692">
        <ele>443.79998779297</ele>
        <time>2021-07-18T06:07:01.000Z</time>
      </trkpt>
      <trkpt lat="45.204" lon="5.72685">
        <ele>442.39999389648</ele>
        <time>2021-07-18T06:07:04.000Z</time>
      </trkpt>
      <trkpt lat="45.20395" lon="5.7268">
        <ele>441.79998779297</ele>
        <time>2021-07-18T06:07:06.000Z</time>
      </trkpt>
      <trkpt lat="45.20389" lon="5.72675">
        <ele>441.20001220703</ele>
        <time>2021-07-18T06:07:08.000Z</time>
      </trkpt>
      <trkpt lat="45.20384" lon="5.7267">
        <ele>441</ele>
        <time>2021-07-18T06:07:10.000Z</time>
      </trkpt>
      <trkpt lat="45.20382" lon="5.72666">
        <ele>440.20001220703</ele>
        <time>2021-07-18T06:07:12.000Z</time>
      </trkpt>
      <trkpt lat="45.2038" lon="5.72664">
        <ele>439.79998779297</ele>
        <time>2021-07-18T06:07:13.000Z</time>
      </trkpt>
      <trkpt lat="45.20378" lon="5.72662">
        <ele>439.20001220703</ele>
        <time>2021-07-18T06:07:14.000Z</time>
      </trkpt>
      <trkpt lat="45.20373" lon="5.72655">
        <ele>438.79998779297</ele>
        <time>2021-07-18T06:07:17.000Z</time>
      </trkpt>
      <trkpt lat="45.20369" lon="5.72651">
        <ele>437.60000610352</ele>
        <time>2021-07-18T06:07:19.000Z</time>
      </trkpt>
      <trkpt lat="45.20362" lon="5.72644">
        <ele>437</ele>
        <time>2021-07-18T06:07:23.000Z</time>
      </trkpt>
      <trkpt lat="45.20362" lon="5.72643">
        <ele>436.60000610352</ele>
        <time>2021-07-18T06:07:24.000Z</time>
      </trkpt>
      <trkpt lat="45.2036" lon="5.72641">
        <ele>436</ele>
        <time>2021-07-18T06:07:26.000Z</time>
      </trkpt>
      <trkpt lat="45.20358" lon="5.7264">
        <ele>435</ele>
        <time>2021-07-18T06:07:27.000Z</time>
      </trkpt>
      <trkpt lat="45.20357" lon="5.72639">
        <ele>433.79998779297</ele>
        <time>2021-07-18T06:07:28.000Z</time>
      </trkpt>
      <trkpt lat="45.20348" lon="5.72631">
        <ele>433.20001220703</ele>
        <time>2021-07-18T06:07:33.000Z</time>
      </trkpt>
      <trkpt lat="45.20346" lon="5.7263">
        <ele>432.20001220703</ele>
        <time>2021-07-18T06:07:34.000Z</time>
      </trkpt>
      <trkpt lat="45.20337" lon="5.72629">
        <ele>430.20001220703</ele>
        <time>2021-07-18T06:07:38.000Z</time>
      </trkpt>
      <trkpt lat="45.20335" lon="5.72628">
        <ele>429.79998779297</ele>
        <time>2021-07-18T06:07:39.000Z</time>
      </trkpt>
      <trkpt lat="45.20325" lon="5.72625">
        <ele>428.79998779297</ele>
        <time>2021-07-18T06:07:42.000Z</time>
      </trkpt>
      <trkpt lat="45.20322" lon="5.72625">
        <ele>428.79998779297</ele>
        <time>2021-07-18T06:07:43.000Z</time>
      </trkpt>
      <trkpt lat="45.20307" lon="5.72624">
        <ele>426.79998779297</ele>
        <time>2021-07-18T06:07:47.000Z</time>
      </trkpt>
      <trkpt lat="45.20301" lon="5.72623">
        <ele>425.60000610352</ele>
        <time>2021-07-18T06:07:49.000Z</time>
      </trkpt>
      <trkpt lat="45.20298" lon="5.72622">
        <ele>425.39999389648</ele>
        <time>2021-07-18T06:07:50.000Z</time>
      </trkpt>
      <trkpt lat="45.20295" lon="5.72621">
        <ele>424.39999389648</ele>
        <time>2021-07-18T06:07:51.000Z</time>
      </trkpt>
      <trkpt lat="45.20281" lon="5.72617">
        <ele>423.20001220703</ele>
        <time>2021-07-18T06:07:55.000Z</time>
      </trkpt>
      <trkpt lat="45.20271" lon="5.72618">
        <ele>422.39999389648</ele>
        <time>2021-07-18T06:07:58.000Z</time>
      </trkpt>
      <trkpt lat="45.20268" lon="5.72618">
        <ele>421.20001220703</ele>
        <time>2021-07-18T06:07:59.000Z</time>
      </trkpt>
      <trkpt lat="45.2026" lon="5.72617">
        <ele>420.79998779297</ele>
        <time>2021-07-18T06:08:01.000Z</time>
      </trkpt>
      <trkpt lat="45.20256" lon="5.72615">
        <ele>420.79998779297</ele>
        <time>2021-07-18T06:08:02.000Z</time>
      </trkpt>
      <trkpt lat="45.20253" lon="5.72614">
        <ele>418.79998779297</ele>
        <time>2021-07-18T06:08:03.000Z</time>
      </trkpt>
      <trkpt lat="45.20239" lon="5.72609">
        <ele>418.20001220703</ele>
        <time>2021-07-18T06:08:08.000Z</time>
      </trkpt>
      <trkpt lat="45.20237" lon="5.72609">
        <ele>417.60000610352</ele>
        <time>2021-07-18T06:08:09.000Z</time>
      </trkpt>
      <trkpt lat="45.20235" lon="5.72607">
        <ele>416.39999389648</ele>
        <time>2021-07-18T06:08:10.000Z</time>
      </trkpt>
      <trkpt lat="45.20225" lon="5.72601">
        <ele>415.79998779297</ele>
        <time>2021-07-18T06:08:13.000Z</time>
      </trkpt>
      <trkpt lat="45.20223" lon="5.72599">
        <ele>415.39999389648</ele>
        <time>2021-07-18T06:08:14.000Z</time>
      </trkpt>
      <trkpt lat="45.20214" lon="5.72591">
        <ele>413.79998779297</ele>
        <time>2021-07-18T06:08:17.000Z</time>
      </trkpt>
      <trkpt lat="45.20209" lon="5.72588">
        <ele>412.60000610352</ele>
        <time>2021-07-18T06:08:19.000Z</time>
      </trkpt>
      <trkpt lat="45.20203" lon="5.72585">
        <ele>412.20001220703</ele>
        <time>2021-07-18T06:08:22.000Z</time>
      </trkpt>
      <trkpt lat="45.202" lon="5.72584">
        <ele>411.20001220703</ele>
        <time>2021-07-18T06:08:23.000Z</time>
      </trkpt>
      <trkpt lat="45.20194" lon="5.72578">
        <ele>411.20001220703</ele>
        <time>2021-07-18T06:08:25.000Z</time>
      </trkpt>
      <trkpt lat="45.20188" lon="5.72574">
        <ele>410.39999389648</ele>
        <time>2021-07-18T06:08:28.000Z</time>
      </trkpt>
      <trkpt lat="45.20187" lon="5.72573">
        <ele>409.39999389648</ele>
        <time>2021-07-18T06:08:29.000Z</time>
      </trkpt>
      <trkpt lat="45.20172" lon="5.72562">
        <ele>408.79998779297</ele>
        <time>2021-07-18T06:08:34.000Z</time>
      </trkpt>
      <trkpt lat="45.2017" lon="5.72561">
        <ele>408</ele>
        <time>2021-07-18T06:08:35.000Z</time>
      </trkpt>
      <trkpt lat="45.20167" lon="5.72559">
        <ele>406.79998779297</ele>
        <time>2021-07-18T06:08:36.000Z</time>
      </trkpt>
      <trkpt lat="45.20162" lon="5.72559">
        <ele>406.20001220703</ele>
        <time>2021-07-18T06:08:39.000Z</time>
      </trkpt>
      <trkpt lat="45.20159" lon="5.72559">
        <ele>405.39999389648</ele>
        <time>2021-07-18T06:08:41.000Z</time>
      </trkpt>
      <trkpt lat="45.20154" lon="5.72557">
        <ele>405</ele>
        <time>2021-07-18T06:08:43.000Z</time>
      </trkpt>
      <trkpt lat="45.20143" lon="5.72554">
        <ele>403.79998779297</ele>
        <time>2021-07-18T06:08:46.000Z</time>
      </trkpt>
      <trkpt lat="45.20138" lon="5.72554">
        <ele>403.20001220703</ele>
        <time>2021-07-18T06:08:48.000Z</time>
      </trkpt>
      <trkpt lat="45.20131" lon="5.72551">
        <ele>402.79998779297</ele>
        <time>2021-07-18T06:08:51.000Z</time>
      </trkpt>
      <trkpt lat="45.20124" lon="5.72549">
        <ele>402.79998779297</ele>
        <time>2021-07-18T06:08:54.000Z</time>
      </trkpt>
      <trkpt lat="45.20119" lon="5.72549">
        <ele>401.60000610352</ele>
        <time>2021-07-18T06:08:56.000Z</time>
      </trkpt>
      <trkpt lat="45.20114" lon="5.72548">
        <ele>400.39999389648</ele>
        <time>2021-07-18T06:08:58.000Z</time>
      </trkpt>
      <trkpt lat="45.20108" lon="5.72544">
        <ele>399.60000610352</ele>
        <time>2021-07-18T06:09:00.000Z</time>
      </trkpt>
      <trkpt lat="45.20107" lon="5.72544">
        <ele>398.39999389648</ele>
        <time>2021-07-18T06:09:01.000Z</time>
      </trkpt>
      <trkpt lat="45.201" lon="5.72544">
        <ele>397.39999389648</ele>
        <time>2021-07-18T06:09:03.000Z</time>
      </trkpt>
      <trkpt lat="45.20091" lon="5.72543">
        <ele>396.79998779297</ele>
        <time>2021-07-18T06:09:05.000Z</time>
      </trkpt>
      <trkpt lat="45.20087" lon="5.72543">
        <ele>396.20001220703</ele>
        <time>2021-07-18T06:09:06.000Z</time>
      </trkpt>
      <trkpt lat="45.20082" lon="5.72543">
        <ele>395.79998779297</ele>
        <time>2021-07-18T06:09:08.000Z</time>
      </trkpt>
      <trkpt lat="45.20079" lon="5.72544">
        <ele>393.60000610352</ele>
        <time>2021-07-18T06:09:10.000Z</time>
      </trkpt>
      <trkpt lat="45.20074" lon="5.72544">
        <ele>392.39999389648</ele>
        <time>2021-07-18T06:09:12.000Z</time>
      </trkpt>
      <trkpt lat="45.20072" lon="5.72544">
        <ele>392.20001220703</ele>
        <time>2021-07-18T06:09:13.000Z</time>
      </trkpt>
      <trkpt lat="45.20066" lon="5.72537">
        <ele>391.79998779297</ele>
        <time>2021-07-18T06:09:16.000Z</time>
      </trkpt>
      <trkpt lat="45.20063" lon="5.72527">
        <ele>391.60000610352</ele>
        <time>2021-07-18T06:09:19.000Z</time>
      </trkpt>
      <trkpt lat="45.20067" lon="5.72521">
        <ele>391.60000610352</ele>
        <time>2021-07-18T06:09:21.000Z</time>
      </trkpt>
      <trkpt lat="45.20069" lon="5.72517">
        <ele>391.20001220703</ele>
        <time>2021-07-18T06:09:22.000Z</time>
      </trkpt>
      <trkpt lat="45.20078" lon="5.72503">
        <ele>390.79998779297</ele>
        <time>2021-07-18T06:09:26.000Z</time>
      </trkpt>
      <trkpt lat="45.20083" lon="5.72492">
        <ele>390.39999389648</ele>
        <time>2021-07-18T06:09:29.000Z</time>
      </trkpt>
      <trkpt lat="45.20085" lon="5.72488">
        <ele>390.20001220703</ele>
        <time>2021-07-18T06:09:30.000Z</time>
      </trkpt>
      <trkpt lat="45.20089" lon="5.72485">
        <ele>390</ele>
        <time>2021-07-18T06:09:31.000Z</time>
      </trkpt>
      <trkpt lat="45.20096" lon="5.72477">
        <ele>389.60000610352</ele>
        <time>2021-07-18T06:09:34.000Z</time>
      </trkpt>
      <trkpt lat="45.20098" lon="5.72469">
        <ele>388.60000610352</ele>
        <time>2021-07-18T06:09:37.000Z</time>
      </trkpt>
      <trkpt lat="45.20098" lon="5.72463">
        <ele>388</ele>
        <time>2021-07-18T06:09:39.000Z</time>
      </trkpt>
      <trkpt lat="45.20095" lon="5.72457">
        <ele>388</ele>
        <time>2021-07-18T06:09:41.000Z</time>
      </trkpt>
      <trkpt lat="45.20093" lon="5.72455">
        <ele>387</ele>
        <time>2021-07-18T06:09:42.000Z</time>
      </trkpt>
      <trkpt lat="45.20089" lon="5.72453">
        <ele>386.60000610352</ele>
        <time>2021-07-18T06:09:43.000Z</time>
      </trkpt>
      <trkpt lat="45.20083" lon="5.7245">
        <ele>386</ele>
        <time>2021-07-18T06:09:45.000Z</time>
      </trkpt>
      <trkpt lat="45.20071" lon="5.72443">
        <ele>384.20001220703</ele>
        <time>2021-07-18T06:09:49.000Z</time>
      </trkpt>
      <trkpt lat="45.20066" lon="5.72441">
        <ele>384</ele>
        <time>2021-07-18T06:09:50.000Z</time>
      </trkpt>
      <trkpt lat="45.20056" lon="5.72436">
        <ele>383.60000610352</ele>
        <time>2021-07-18T06:09:52.000Z</time>
      </trkpt>
      <trkpt lat="45.20046" lon="5.72433">
        <ele>382.79998779297</ele>
        <time>2021-07-18T06:09:54.000Z</time>
      </trkpt>
      <trkpt lat="45.20028" lon="5.72431">
        <ele>381.60000610352</ele>
        <time>2021-07-18T06:09:59.000Z</time>
      </trkpt>
      <trkpt lat="45.20019" lon="5.72429">
        <ele>380.39999389648</ele>
        <time>2021-07-18T06:10:02.000Z</time>
      </trkpt>
      <trkpt lat="45.20003" lon="5.72426">
        <ele>378.60000610352</ele>
        <time>2021-07-18T06:10:07.000Z</time>
      </trkpt>
      <trkpt lat="45.20001" lon="5.72426">
        <ele>378.60000610352</ele>
        <time>2021-07-18T06:10:08.000Z</time>
      </trkpt>
      <trkpt lat="45.19984" lon="5.72425">
        <ele>376.79998779297</ele>
        <time>2021-07-18T06:10:13.000Z</time>
      </trkpt>
      <trkpt lat="45.19978" lon="5.72424">
        <ele>376.60000610352</ele>
        <time>2021-07-18T06:10:15.000Z</time>
      </trkpt>
      <trkpt lat="45.19965" lon="5.7242">
        <ele>375.20001220703</ele>
        <time>2021-07-18T06:10:18.000Z</time>
      </trkpt>
      <trkpt lat="45.19949" lon="5.72422">
        <ele>374.39999389648</ele>
        <time>2021-07-18T06:10:23.000Z</time>
      </trkpt>
      <trkpt lat="45.19939" lon="5.72425">
        <ele>374</ele>
        <time>2021-07-18T06:10:27.000Z</time>
      </trkpt>
      <trkpt lat="45.19933" lon="5.72428">
        <ele>374</ele>
        <time>2021-07-18T06:10:29.000Z</time>
      </trkpt>
      <trkpt lat="45.19916" lon="5.72432">
        <ele>375.20001220703</ele>
        <time>2021-07-18T06:10:35.000Z</time>
      </trkpt>
      <trkpt lat="45.19901" lon="5.72433">
        <ele>376</ele>
        <time>2021-07-18T06:10:40.000Z</time>
      </trkpt>
      <trkpt lat="45.19896" lon="5.72434">
        <ele>376.60000610352</ele>
        <time>2021-07-18T06:10:42.000Z</time>
      </trkpt>
      <trkpt lat="45.1989" lon="5.72437">
        <ele>377</ele>
        <time>2021-07-18T06:10:44.000Z</time>
      </trkpt>
      <trkpt lat="45.19891" lon="5.72446">
        <ele>377.39999389648</ele>
        <time>2021-07-18T06:10:46.000Z</time>
      </trkpt>
      <trkpt lat="45.1989" lon="5.7245">
        <ele>377.79998779297</ele>
        <time>2021-07-18T06:10:47.000Z</time>
      </trkpt>
      <trkpt lat="45.19881" lon="5.72464">
        <ele>378.39999389648</ele>
        <time>2021-07-18T06:10:51.000Z</time>
      </trkpt>
      <trkpt lat="45.1988" lon="5.7247">
        <ele>378.39999389648</ele>
        <time>2021-07-18T06:10:53.000Z</time>
      </trkpt>
      <trkpt lat="45.1988" lon="5.72472">
        <ele>378.39999389648</ele>
        <time>2021-07-18T06:10:54.000Z</time>
      </trkpt>
      <trkpt lat="45.19881" lon="5.72477">
        <ele>378.60000610352</ele>
        <time>2021-07-18T06:10:56.000Z</time>
      </trkpt>
      <trkpt lat="45.19882" lon="5.72479">
        <ele>379</ele>
        <time>2021-07-18T06:10:57.000Z</time>
      </trkpt>
      <trkpt lat="45.19875" lon="5.72483">
        <ele>378.60000610352</ele>
        <time>2021-07-18T06:11:00.000Z</time>
      </trkpt>
      <trkpt lat="45.19871" lon="5.72485">
        <ele>378</ele>
        <time>2021-07-18T06:11:01.000Z</time>
      </trkpt>
      <trkpt lat="45.1987" lon="5.72488">
        <ele>377.79998779297</ele>
        <time>2021-07-18T06:11:02.000Z</time>
      </trkpt>
      <trkpt lat="45.19869" lon="5.72494">
        <ele>377.60000610352</ele>
        <time>2021-07-18T06:11:04.000Z</time>
      </trkpt>
      <trkpt lat="45.1987" lon="5.72498">
        <ele>377.60000610352</ele>
        <time>2021-07-18T06:11:05.000Z</time>
      </trkpt>
      <trkpt lat="45.19881" lon="5.72516">
        <ele>376.79998779297</ele>
        <time>2021-07-18T06:11:09.000Z</time>
      </trkpt>
      <trkpt lat="45.19885" lon="5.72529">
        <ele>376.20001220703</ele>
        <time>2021-07-18T06:11:12.000Z</time>
      </trkpt>
      <trkpt lat="45.19886" lon="5.72536">
        <ele>375.60000610352</ele>
        <time>2021-07-18T06:11:14.000Z</time>
      </trkpt>
      <trkpt lat="45.19886" lon="5.72549">
        <ele>374.39999389648</ele>
        <time>2021-07-18T06:11:17.000Z</time>
      </trkpt>
      <trkpt lat="45.19886" lon="5.7255">
        <ele>374.20001220703</ele>
        <time>2021-07-18T06:11:18.000Z</time>
      </trkpt>
      <trkpt lat="45.19884" lon="5.72548">
        <ele>374</ele>
        <time>2021-07-18T06:11:19.000Z</time>
      </trkpt>
      <trkpt lat="45.19875" lon="5.72541">
        <ele>373.60000610352</ele>
        <time>2021-07-18T06:11:21.000Z</time>
      </trkpt>
      <trkpt lat="45.19875" lon="5.72537">
        <ele>373.39999389648</ele>
        <time>2021-07-18T06:11:22.000Z</time>
      </trkpt>
      <trkpt lat="45.19867" lon="5.72525">
        <ele>373</ele>
        <time>2021-07-18T06:11:25.000Z</time>
      </trkpt>
      <trkpt lat="45.19867" lon="5.72521">
        <ele>373</ele>
        <time>2021-07-18T06:11:26.000Z</time>
      </trkpt>
      <trkpt lat="45.19867" lon="5.72519">
        <ele>371.39999389648</ele>
        <time>2021-07-18T06:11:27.000Z</time>
      </trkpt>
      <trkpt lat="45.19866" lon="5.72518">
        <ele>371.39999389648</ele>
        <time>2021-07-18T06:11:28.000Z</time>
      </trkpt>
      <trkpt lat="45.19865" lon="5.72514">
        <ele>371</ele>
        <time>2021-07-18T06:11:31.000Z</time>
      </trkpt>
      <trkpt lat="45.19865" lon="5.72512">
        <ele>371</ele>
        <time>2021-07-18T06:11:32.000Z</time>
      </trkpt>
      <trkpt lat="45.19865" lon="5.72505">
        <ele>371</ele>
        <time>2021-07-18T06:11:34.000Z</time>
      </trkpt>
      <trkpt lat="45.19862" lon="5.72497">
        <ele>371</ele>
        <time>2021-07-18T06:11:36.000Z</time>
      </trkpt>
      <trkpt lat="45.19865" lon="5.72493">
        <ele>369.79998779297</ele>
        <time>2021-07-18T06:11:37.000Z</time>
      </trkpt>
      <trkpt lat="45.19867" lon="5.72487">
        <ele>369</ele>
        <time>2021-07-18T06:11:39.000Z</time>
      </trkpt>
      <trkpt lat="45.19865" lon="5.72481">
        <ele>369</ele>
        <time>2021-07-18T06:11:41.000Z</time>
      </trkpt>
      <trkpt lat="45.19859" lon="5.72475">
        <ele>368.39999389648</ele>
        <time>2021-07-18T06:11:42.000Z</time>
      </trkpt>
      <trkpt lat="45.19857" lon="5.7247">
        <ele>368.20001220703</ele>
        <time>2021-07-18T06:11:43.000Z</time>
      </trkpt>
      <trkpt lat="45.19855" lon="5.7246">
        <ele>367.39999389648</ele>
        <time>2021-07-18T06:11:45.000Z</time>
      </trkpt>
      <trkpt lat="45.19853" lon="5.72451">
        <ele>367</ele>
        <time>2021-07-18T06:11:47.000Z</time>
      </trkpt>
      <trkpt lat="45.19849" lon="5.72446">
        <ele>367</ele>
        <time>2021-07-18T06:11:48.000Z</time>
      </trkpt>
      <trkpt lat="45.19847" lon="5.72445">
        <ele>366</ele>
        <time>2021-07-18T06:11:49.000Z</time>
      </trkpt>
      <trkpt lat="45.19845" lon="5.72445">
        <ele>366</ele>
        <time>2021-07-18T06:11:50.000Z</time>
      </trkpt>
      <trkpt lat="45.19842" lon="5.72446">
        <ele>365.79998779297</ele>
        <time>2021-07-18T06:11:51.000Z</time>
      </trkpt>
      <trkpt lat="45.19843" lon="5.72449">
        <ele>365.79998779297</ele>
        <time>2021-07-18T06:11:52.000Z</time>
      </trkpt>
      <trkpt lat="45.19842" lon="5.72457">
        <ele>365.79998779297</ele>
        <time>2021-07-18T06:11:54.000Z</time>
      </trkpt>
      <trkpt lat="45.19841" lon="5.72461">
        <ele>364.20001220703</ele>
        <time>2021-07-18T06:11:55.000Z</time>
      </trkpt>
      <trkpt lat="45.19836" lon="5.72472">
        <ele>363.60000610352</ele>
        <time>2021-07-18T06:11:58.000Z</time>
      </trkpt>
      <trkpt lat="45.19834" lon="5.72479">
        <ele>363.39999389648</ele>
        <time>2021-07-18T06:12:00.000Z</time>
      </trkpt>
      <trkpt lat="45.19833" lon="5.72483">
        <ele>362.20001220703</ele>
        <time>2021-07-18T06:12:01.000Z</time>
      </trkpt>
      <trkpt lat="45.19832" lon="5.72491">
        <ele>361.79998779297</ele>
        <time>2021-07-18T06:12:03.000Z</time>
      </trkpt>
      <trkpt lat="45.1983" lon="5.72499">
        <ele>361.39999389648</ele>
        <time>2021-07-18T06:12:05.000Z</time>
      </trkpt>
      <trkpt lat="45.19827" lon="5.72502">
        <ele>361.20001220703</ele>
        <time>2021-07-18T06:12:06.000Z</time>
      </trkpt>
      <trkpt lat="45.19819" lon="5.72512">
        <ele>359.39999389648</ele>
        <time>2021-07-18T06:12:09.000Z</time>
      </trkpt>
      <trkpt lat="45.19819" lon="5.72517">
        <ele>359.20001220703</ele>
        <time>2021-07-18T06:12:10.000Z</time>
      </trkpt>
      <trkpt lat="45.19816" lon="5.72529">
        <ele>358.79998779297</ele>
        <time>2021-07-18T06:12:13.000Z</time>
      </trkpt>
      <trkpt lat="45.19815" lon="5.72533">
        <ele>357.60000610352</ele>
        <time>2021-07-18T06:12:14.000Z</time>
      </trkpt>
      <trkpt lat="45.19813" lon="5.72547">
        <ele>356.39999389648</ele>
        <time>2021-07-18T06:12:18.000Z</time>
      </trkpt>
      <trkpt lat="45.19815" lon="5.72551">
        <ele>356.39999389648</ele>
        <time>2021-07-18T06:12:19.000Z</time>
      </trkpt>
      <trkpt lat="45.19814" lon="5.7256">
        <ele>356</ele>
        <time>2021-07-18T06:12:21.000Z</time>
      </trkpt>
      <trkpt lat="45.19818" lon="5.72574">
        <ele>355</ele>
        <time>2021-07-18T06:12:24.000Z</time>
      </trkpt>
      <trkpt lat="45.19818" lon="5.72578">
        <ele>355</ele>
        <time>2021-07-18T06:12:25.000Z</time>
      </trkpt>
      <trkpt lat="45.19815" lon="5.72585">
        <ele>354</ele>
        <time>2021-07-18T06:12:27.000Z</time>
      </trkpt>
      <trkpt lat="45.19815" lon="5.72588">
        <ele>354</ele>
        <time>2021-07-18T06:12:28.000Z</time>
      </trkpt>
      <trkpt lat="45.1982" lon="5.72596">
        <ele>352.79998779297</ele>
        <time>2021-07-18T06:12:30.000Z</time>
      </trkpt>
      <trkpt lat="45.19834" lon="5.72609">
        <ele>352.20001220703</ele>
        <time>2021-07-18T06:12:34.000Z</time>
      </trkpt>
      <trkpt lat="45.19839" lon="5.72614">
        <ele>351.79998779297</ele>
        <time>2021-07-18T06:12:35.000Z</time>
      </trkpt>
      <trkpt lat="45.19849" lon="5.7263">
        <ele>351.20001220703</ele>
        <time>2021-07-18T06:12:39.000Z</time>
      </trkpt>
      <trkpt lat="45.19855" lon="5.72638">
        <ele>350.39999389648</ele>
        <time>2021-07-18T06:12:42.000Z</time>
      </trkpt>
      <trkpt lat="45.19856" lon="5.72641">
        <ele>350</ele>
        <time>2021-07-18T06:12:43.000Z</time>
      </trkpt>
      <trkpt lat="45.19867" lon="5.72652">
        <ele>348.79998779297</ele>
        <time>2021-07-18T06:12:47.000Z</time>
      </trkpt>
      <trkpt lat="45.19875" lon="5.72663">
        <ele>346.79998779297</ele>
        <time>2021-07-18T06:12:52.000Z</time>
      </trkpt>
      <trkpt lat="45.19875" lon="5.72665">
        <ele>346.79998779297</ele>
        <time>2021-07-18T06:12:53.000Z</time>
      </trkpt>
      <trkpt lat="45.1987" lon="5.72673">
        <ele>346.20001220703</ele>
        <time>2021-07-18T06:12:55.000Z</time>
      </trkpt>
      <trkpt lat="45.19867" lon="5.72675">
        <ele>346.20001220703</ele>
        <time>2021-07-18T06:12:56.000Z</time>
      </trkpt>
      <trkpt lat="45.1986" lon="5.72674">
        <ele>345.39999389648</ele>
        <time>2021-07-18T06:12:58.000Z</time>
      </trkpt>
      <trkpt lat="45.19855" lon="5.72671">
        <ele>345.39999389648</ele>
        <time>2021-07-18T06:13:00.000Z</time>
      </trkpt>
      <trkpt lat="45.19838" lon="5.72657">
        <ele>344.60000610352</ele>
        <time>2021-07-18T06:13:05.000Z</time>
      </trkpt>
      <trkpt lat="45.19835" lon="5.72653">
        <ele>344.39999389648</ele>
        <time>2021-07-18T06:13:06.000Z</time>
      </trkpt>
      <trkpt lat="45.19831" lon="5.72651">
        <ele>344.39999389648</ele>
        <time>2021-07-18T06:13:07.000Z</time>
      </trkpt>
      <trkpt lat="45.19826" lon="5.72646">
        <ele>343</ele>
        <time>2021-07-18T06:13:09.000Z</time>
      </trkpt>
      <trkpt lat="45.19825" lon="5.72645">
        <ele>342.60000610352</ele>
        <time>2021-07-18T06:13:10.000Z</time>
      </trkpt>
      <trkpt lat="45.1982" lon="5.72641">
        <ele>341.79998779297</ele>
        <time>2021-07-18T06:13:13.000Z</time>
      </trkpt>
      <trkpt lat="45.19816" lon="5.72638">
        <ele>341.39999389648</ele>
        <time>2021-07-18T06:13:15.000Z</time>
      </trkpt>
      <trkpt lat="45.19809" lon="5.72632">
        <ele>340.79998779297</ele>
        <time>2021-07-18T06:13:19.000Z</time>
      </trkpt>
      <trkpt lat="45.19806" lon="5.7263">
        <ele>340.79998779297</ele>
        <time>2021-07-18T06:13:20.000Z</time>
      </trkpt>
      <trkpt lat="45.19804" lon="5.72628">
        <ele>339.20001220703</ele>
        <time>2021-07-18T06:13:21.000Z</time>
      </trkpt>
      <trkpt lat="45.19798" lon="5.7262">
        <ele>339.20001220703</ele>
        <time>2021-07-18T06:13:24.000Z</time>
      </trkpt>
      <trkpt lat="45.19795" lon="5.72616">
        <ele>337.79998779297</ele>
        <time>2021-07-18T06:13:26.000Z</time>
      </trkpt>
      <trkpt lat="45.19794" lon="5.72613">
        <ele>337.79998779297</ele>
        <time>2021-07-18T06:13:27.000Z</time>
      </trkpt>
      <trkpt lat="45.19793" lon="5.72606">
        <ele>337.60000610352</ele>
        <time>2021-07-18T06:13:29.000Z</time>
      </trkpt>
      <trkpt lat="45.19788" lon="5.72596">
        <ele>336.79998779297</ele>
        <time>2021-07-18T06:13:31.000Z</time>
      </trkpt>
      <trkpt lat="45.19789" lon="5.72584">
        <ele>336</ele>
        <time>2021-07-18T06:13:34.000Z</time>
      </trkpt>
      <trkpt lat="45.19788" lon="5.7258">
        <ele>335.79998779297</ele>
        <time>2021-07-18T06:13:35.000Z</time>
      </trkpt>
      <trkpt lat="45.19784" lon="5.72571">
        <ele>335.79998779297</ele>
        <time>2021-07-18T06:13:37.000Z</time>
      </trkpt>
      <trkpt lat="45.19785" lon="5.72567">
        <ele>335.20001220703</ele>
        <time>2021-07-18T06:13:38.000Z</time>
      </trkpt>
      <trkpt lat="45.19785" lon="5.72564">
        <ele>335</ele>
        <time>2021-07-18T06:13:39.000Z</time>
      </trkpt>
      <trkpt lat="45.19784" lon="5.7256">
        <ele>334.39999389648</ele>
        <time>2021-07-18T06:13:40.000Z</time>
      </trkpt>
      <trkpt lat="45.19783" lon="5.72552">
        <ele>334.20001220703</ele>
        <time>2021-07-18T06:13:42.000Z</time>
      </trkpt>
      <trkpt lat="45.19785" lon="5.7255">
        <ele>333.79998779297</ele>
        <time>2021-07-18T06:13:43.000Z</time>
      </trkpt>
      <trkpt lat="45.19792" lon="5.72537">
        <ele>333</ele>
        <time>2021-07-18T06:13:46.000Z</time>
      </trkpt>
      <trkpt lat="45.19795" lon="5.72532">
        <ele>332</ele>
        <time>2021-07-18T06:13:48.000Z</time>
      </trkpt>
      <trkpt lat="45.19793" lon="5.72532">
        <ele>332</ele>
        <time>2021-07-18T06:13:49.000Z</time>
      </trkpt>
      <trkpt lat="45.1979" lon="5.72533">
        <ele>331.20001220703</ele>
        <time>2021-07-18T06:13:50.000Z</time>
      </trkpt>
      <trkpt lat="45.19786" lon="5.72535">
        <ele>331.39999389648</ele>
        <time>2021-07-18T06:13:52.000Z</time>
      </trkpt>
      <trkpt lat="45.19785" lon="5.72537">
        <ele>331.20001220703</ele>
        <time>2021-07-18T06:13:53.000Z</time>
      </trkpt>
      <trkpt lat="45.19781" lon="5.72548">
        <ele>330.39999389648</ele>
        <time>2021-07-18T06:13:56.000Z</time>
      </trkpt>
      <trkpt lat="45.19782" lon="5.72552">
        <ele>330</ele>
        <time>2021-07-18T06:13:57.000Z</time>
      </trkpt>
      <trkpt lat="45.19781" lon="5.7256">
        <ele>329.20001220703</ele>
        <time>2021-07-18T06:13:59.000Z</time>
      </trkpt>
      <trkpt lat="45.19779" lon="5.72563">
        <ele>329.20001220703</ele>
        <time>2021-07-18T06:14:00.000Z</time>
      </trkpt>
      <trkpt lat="45.19778" lon="5.72566">
        <ele>328.60000610352</ele>
        <time>2021-07-18T06:14:01.000Z</time>
      </trkpt>
      <trkpt lat="45.19778" lon="5.72569">
        <ele>328.20001220703</ele>
        <time>2021-07-18T06:14:02.000Z</time>
      </trkpt>
      <trkpt lat="45.19776" lon="5.72575">
        <ele>328</ele>
        <time>2021-07-18T06:14:04.000Z</time>
      </trkpt>
      <trkpt lat="45.19778" lon="5.72584">
        <ele>327.60000610352</ele>
        <time>2021-07-18T06:14:08.000Z</time>
      </trkpt>
      <trkpt lat="45.19777" lon="5.72582">
        <ele>326.60000610352</ele>
        <time>2021-07-18T06:14:09.000Z</time>
      </trkpt>
      <trkpt lat="45.19775" lon="5.72579">
        <ele>326.60000610352</ele>
        <time>2021-07-18T06:14:10.000Z</time>
      </trkpt>
      <trkpt lat="45.19775" lon="5.72577">
        <ele>326.20001220703</ele>
        <time>2021-07-18T06:14:11.000Z</time>
      </trkpt>
      <trkpt lat="45.19776" lon="5.72571">
        <ele>325.20001220703</ele>
        <time>2021-07-18T06:14:13.000Z</time>
      </trkpt>
      <trkpt lat="45.19776" lon="5.72565">
        <ele>325</ele>
        <time>2021-07-18T06:14:15.000Z</time>
      </trkpt>
      <trkpt lat="45.19774" lon="5.72559">
        <ele>324.60000610352</ele>
        <time>2021-07-18T06:14:17.000Z</time>
      </trkpt>
      <trkpt lat="45.19774" lon="5.72556">
        <ele>323.79998779297</ele>
        <time>2021-07-18T06:14:18.000Z</time>
      </trkpt>
      <trkpt lat="45.19772" lon="5.72548">
        <ele>323.39999389648</ele>
        <time>2021-07-18T06:14:20.000Z</time>
      </trkpt>
      <trkpt lat="45.19769" lon="5.72539">
        <ele>323.20001220703</ele>
        <time>2021-07-18T06:14:22.000Z</time>
      </trkpt>
      <trkpt lat="45.19769" lon="5.72535">
        <ele>322.39999389648</ele>
        <time>2021-07-18T06:14:23.000Z</time>
      </trkpt>
      <trkpt lat="45.19768" lon="5.72531">
        <ele>322.39999389648</ele>
        <time>2021-07-18T06:14:24.000Z</time>
      </trkpt>
      <trkpt lat="45.19767" lon="5.7252">
        <ele>322</ele>
        <time>2021-07-18T06:14:26.000Z</time>
      </trkpt>
      <trkpt lat="45.19766" lon="5.72511">
        <ele>321.39999389648</ele>
        <time>2021-07-18T06:14:28.000Z</time>
      </trkpt>
      <trkpt lat="45.19765" lon="5.72508">
        <ele>320.39999389648</ele>
        <time>2021-07-18T06:14:31.000Z</time>
      </trkpt>
      <trkpt lat="45.19764" lon="5.72507">
        <ele>320.20001220703</ele>
        <time>2021-07-18T06:14:32.000Z</time>
      </trkpt>
      <trkpt lat="45.19761" lon="5.72507">
        <ele>319.79998779297</ele>
        <time>2021-07-18T06:14:34.000Z</time>
      </trkpt>
      <trkpt lat="45.1976" lon="5.72507">
        <ele>319.60000610352</ele>
        <time>2021-07-18T06:14:35.000Z</time>
      </trkpt>
      <trkpt lat="45.1976" lon="5.72509">
        <ele>319.20001220703</ele>
        <time>2021-07-18T06:14:36.000Z</time>
      </trkpt>
      <trkpt lat="45.19761" lon="5.72515">
        <ele>319</ele>
        <time>2021-07-18T06:14:38.000Z</time>
      </trkpt>
      <trkpt lat="45.19759" lon="5.7252">
        <ele>318.39999389648</ele>
        <time>2021-07-18T06:14:40.000Z</time>
      </trkpt>
      <trkpt lat="45.19758" lon="5.72522">
        <ele>318.20001220703</ele>
        <time>2021-07-18T06:14:41.000Z</time>
      </trkpt>
      <trkpt lat="45.19759" lon="5.72525">
        <ele>318.20001220703</ele>
        <time>2021-07-18T06:14:42.000Z</time>
      </trkpt>
      <trkpt lat="45.1976" lon="5.72529">
        <ele>317.79998779297</ele>
        <time>2021-07-18T06:14:43.000Z</time>
      </trkpt>
      <trkpt lat="45.19761" lon="5.72533">
        <ele>317.79998779297</ele>
        <time>2021-07-18T06:14:44.000Z</time>
      </trkpt>
      <trkpt lat="45.1976" lon="5.72548">
        <ele>317.60000610352</ele>
        <time>2021-07-18T06:14:48.000Z</time>
      </trkpt>
      <trkpt lat="45.19761" lon="5.72551">
        <ele>317.79998779297</ele>
        <time>2021-07-18T06:14:49.000Z</time>
      </trkpt>
      <trkpt lat="45.19763" lon="5.7256">
        <ele>318.20001220703</ele>
        <time>2021-07-18T06:14:51.000Z</time>
      </trkpt>
      <trkpt lat="45.19762" lon="5.72564">
        <ele>317.79998779297</ele>
        <time>2021-07-18T06:14:52.000Z</time>
      </trkpt>
      <trkpt lat="45.1976" lon="5.7257">
        <ele>317.79998779297</ele>
        <time>2021-07-18T06:14:54.000Z</time>
      </trkpt>
      <trkpt lat="45.1976" lon="5.72573">
        <ele>317.79998779297</ele>
        <time>2021-07-18T06:14:55.000Z</time>
      </trkpt>
      <trkpt lat="45.1976" lon="5.72577">
        <ele>318.20001220703</ele>
        <time>2021-07-18T06:14:56.000Z</time>
      </trkpt>
      <trkpt lat="45.19767" lon="5.72592">
        <ele>317.79998779297</ele>
        <time>2021-07-18T06:15:01.000Z</time>
      </trkpt>
      <trkpt lat="45.19775" lon="5.72606">
        <ele>317.79998779297</ele>
        <time>2021-07-18T06:15:06.000Z</time>
      </trkpt>
      <trkpt lat="45.19777" lon="5.72617">
        <ele>317.60000610352</ele>
        <time>2021-07-18T06:15:09.000Z</time>
      </trkpt>
      <trkpt lat="45.19779" lon="5.7262">
        <ele>317.60000610352</ele>
        <time>2021-07-18T06:15:10.000Z</time>
      </trkpt>
      <trkpt lat="45.19793" lon="5.72643">
        <ele>317.60000610352</ele>
        <time>2021-07-18T06:15:16.000Z</time>
      </trkpt>
      <trkpt lat="45.19796" lon="5.72647">
        <ele>317.60000610352</ele>
        <time>2021-07-18T06:15:17.000Z</time>
      </trkpt>
      <trkpt lat="45.19808" lon="5.72664">
        <ele>318.20001220703</ele>
        <time>2021-07-18T06:15:23.000Z</time>
      </trkpt>
      <trkpt lat="45.19821" lon="5.72681">
        <ele>318.20001220703</ele>
        <time>2021-07-18T06:15:30.000Z</time>
      </trkpt>
      <trkpt lat="45.19823" lon="5.72685">
        <ele>318.20001220703</ele>
        <time>2021-07-18T06:15:31.000Z</time>
      </trkpt>
      <trkpt lat="45.19833" lon="5.72698">
        <ele>318.60000610352</ele>
        <time>2021-07-18T06:15:35.000Z</time>
      </trkpt>
      <trkpt lat="45.19839" lon="5.72709">
        <ele>318.79998779297</ele>
        <time>2021-07-18T06:15:39.000Z</time>
      </trkpt>
      <trkpt lat="45.19839" lon="5.72716">
        <ele>318.79998779297</ele>
        <time>2021-07-18T06:15:41.000Z</time>
      </trkpt>
      <trkpt lat="45.19845" lon="5.72728">
        <ele>318.60000610352</ele>
        <time>2021-07-18T06:15:45.000Z</time>
      </trkpt>
      <trkpt lat="45.19849" lon="5.72732">
        <ele>319</ele>
        <time>2021-07-18T06:15:47.000Z</time>
      </trkpt>
      <trkpt lat="45.19855" lon="5.72745">
        <ele>317</ele>
        <time>2021-07-18T06:15:56.000Z</time>
      </trkpt>
      <trkpt lat="45.19858" lon="5.72745">
        <ele>315.60000610352</ele>
        <time>2021-07-18T06:15:58.000Z</time>
      </trkpt>
      <trkpt lat="45.1986" lon="5.72747">
        <ele>315</ele>
        <time>2021-07-18T06:16:01.000Z</time>
      </trkpt>
      <trkpt lat="45.19859" lon="5.7275">
        <ele>314.79998779297</ele>
        <time>2021-07-18T06:16:02.000Z</time>
      </trkpt>
      <trkpt lat="45.19859" lon="5.72755">
        <ele>314.79998779297</ele>
        <time>2021-07-18T06:16:04.000Z</time>
      </trkpt>
      <trkpt lat="45.19859" lon="5.72756">
        <ele>314.60000610352</ele>
        <time>2021-07-18T06:16:05.000Z</time>
      </trkpt>
      <trkpt lat="45.19858" lon="5.72758">
        <ele>314.20001220703</ele>
        <time>2021-07-18T06:16:07.000Z</time>
      </trkpt>
      <trkpt lat="45.19856" lon="5.72757">
        <ele>313.20001220703</ele>
        <time>2021-07-18T06:16:09.000Z</time>
      </trkpt>
      <trkpt lat="45.19856" lon="5.72757">
        <ele>312.79998779297</ele>
        <time>2021-07-18T06:16:10.000Z</time>
      </trkpt>
      <trkpt lat="45.19856" lon="5.72756">
        <ele>312.20001220703</ele>
        <time>2021-07-18T06:16:11.000Z</time>
      </trkpt>
      <trkpt lat="45.19855" lon="5.72753">
        <ele>311</ele>
        <time>2021-07-18T06:16:13.000Z</time>
      </trkpt>
      <trkpt lat="45.19853" lon="5.72754">
        <ele>309.79998779297</ele>
        <time>2021-07-18T06:16:15.000Z</time>
      </trkpt>
      <trkpt lat="45.19852" lon="5.72757">
        <ele>309.60000610352</ele>
        <time>2021-07-18T06:16:17.000Z</time>
      </trkpt>
      <trkpt lat="45.19854" lon="5.72759">
        <ele>309.39999389648</ele>
        <time>2021-07-18T06:16:19.000Z</time>
      </trkpt>
      <trkpt lat="45.19843" lon="5.72795">
        <ele>289.20001220703</ele>
        <time>2021-07-18T06:17:09.000Z</time>
      </trkpt>
      <trkpt lat="45.19848" lon="5.72799">
        <ele>288.79998779297</ele>
        <time>2021-07-18T06:17:10.000Z</time>
      </trkpt>
      <trkpt lat="45.1984" lon="5.72791">
        <ele>287.60000610352</ele>
        <time>2021-07-18T06:17:13.000Z</time>
      </trkpt>
      <trkpt lat="45.19838" lon="5.72791">
        <ele>287.60000610352</ele>
        <time>2021-07-18T06:17:14.000Z</time>
      </trkpt>
      <trkpt lat="45.19835" lon="5.7279">
        <ele>287.39999389648</ele>
        <time>2021-07-18T06:17:15.000Z</time>
      </trkpt>
      <trkpt lat="45.1983" lon="5.72786">
        <ele>286.60000610352</ele>
        <time>2021-07-18T06:17:17.000Z</time>
      </trkpt>
      <trkpt lat="45.19825" lon="5.7278">
        <ele>286.60000610352</ele>
        <time>2021-07-18T06:17:19.000Z</time>
      </trkpt>
      <trkpt lat="45.19817" lon="5.72772">
        <ele>285.79998779297</ele>
        <time>2021-07-18T06:17:22.000Z</time>
      </trkpt>
      <trkpt lat="45.19812" lon="5.72766">
        <ele>285.60000610352</ele>
        <time>2021-07-18T06:17:24.000Z</time>
      </trkpt>
      <trkpt lat="45.19806" lon="5.72762">
        <ele>284.20001220703</ele>
        <time>2021-07-18T06:17:26.000Z</time>
      </trkpt>
      <trkpt lat="45.19799" lon="5.72758">
        <ele>283.60000610352</ele>
        <time>2021-07-18T06:17:29.000Z</time>
      </trkpt>
      <trkpt lat="45.198" lon="5.72756">
        <ele>283.39999389648</ele>
        <time>2021-07-18T06:17:31.000Z</time>
      </trkpt>
      <trkpt lat="45.198" lon="5.72756">
        <ele>283</ele>
        <time>2021-07-18T06:17:32.000Z</time>
      </trkpt>
      <trkpt lat="45.19804" lon="5.72753">
        <ele>281.79998779297</ele>
        <time>2021-07-18T06:17:34.000Z</time>
      </trkpt>
      <trkpt lat="45.19808" lon="5.72752">
        <ele>281.79998779297</ele>
        <time>2021-07-18T06:17:36.000Z</time>
      </trkpt>
      <trkpt lat="45.19813" lon="5.72758">
        <ele>280.60000610352</ele>
        <time>2021-07-18T06:17:39.000Z</time>
      </trkpt>
      <trkpt lat="45.19816" lon="5.72763">
        <ele>280.20001220703</ele>
        <time>2021-07-18T06:17:41.000Z</time>
      </trkpt>
      <trkpt lat="45.19823" lon="5.72769">
        <ele>279</ele>
        <time>2021-07-18T06:17:44.000Z</time>
      </trkpt>
      <trkpt lat="45.19828" lon="5.72774">
        <ele>278.20001220703</ele>
        <time>2021-07-18T06:17:47.000Z</time>
      </trkpt>
      <trkpt lat="45.1983" lon="5.72775">
        <ele>277.79998779297</ele>
        <time>2021-07-18T06:17:48.000Z</time>
      </trkpt>
      <trkpt lat="45.19837" lon="5.72783">
        <ele>277</ele>
        <time>2021-07-18T06:17:52.000Z</time>
      </trkpt>
      <trkpt lat="45.19841" lon="5.72784">
        <ele>276.60000610352</ele>
        <time>2021-07-18T06:17:53.000Z</time>
      </trkpt>
      <trkpt lat="45.19849" lon="5.72789">
        <ele>275.39999389648</ele>
        <time>2021-07-18T06:17:56.000Z</time>
      </trkpt>
      <trkpt lat="45.19851" lon="5.72795">
        <ele>274.60000610352</ele>
        <time>2021-07-18T06:18:00.000Z</time>
      </trkpt>
      <trkpt lat="45.19849" lon="5.72795">
        <ele>273.20001220703</ele>
        <time>2021-07-18T06:18:01.000Z</time>
      </trkpt>
      <trkpt lat="45.19841" lon="5.72791">
        <ele>271.79998779297</ele>
        <time>2021-07-18T06:18:05.000Z</time>
      </trkpt>
      <trkpt lat="45.19831" lon="5.72791">
        <ele>270.60000610352</ele>
        <time>2021-07-18T06:18:09.000Z</time>
      </trkpt>
      <trkpt lat="45.19827" lon="5.72791">
        <ele>269.79998779297</ele>
        <time>2021-07-18T06:18:11.000Z</time>
      </trkpt>
      <trkpt lat="45.19819" lon="5.72789">
        <ele>269.60000610352</ele>
        <time>2021-07-18T06:18:14.000Z</time>
      </trkpt>
      <trkpt lat="45.19815" lon="5.72785">
        <ele>268</ele>
        <time>2021-07-18T06:18:16.000Z</time>
      </trkpt>
      <trkpt lat="45.19811" lon="5.72785">
        <ele>268</ele>
        <time>2021-07-18T06:18:19.000Z</time>
      </trkpt>
      <trkpt lat="45.19812" lon="5.72785">
        <ele>267.39999389648</ele>
        <time>2021-07-18T06:18:20.000Z</time>
      </trkpt>
      <trkpt lat="45.19814" lon="5.72786">
        <ele>266.79998779297</ele>
        <time>2021-07-18T06:18:22.000Z</time>
      </trkpt>
      <trkpt lat="45.19816" lon="5.72786">
        <ele>266.60000610352</ele>
        <time>2021-07-18T06:18:23.000Z</time>
      </trkpt>
      <trkpt lat="45.19821" lon="5.72789">
        <ele>265.79998779297</ele>
        <time>2021-07-18T06:18:25.000Z</time>
      </trkpt>
      <trkpt lat="45.19827" lon="5.72793">
        <ele>265.60000610352</ele>
        <time>2021-07-18T06:18:28.000Z</time>
      </trkpt>
      <trkpt lat="45.19833" lon="5.72796">
        <ele>264.79998779297</ele>
        <time>2021-07-18T06:18:31.000Z</time>
      </trkpt>
      <trkpt lat="45.19837" lon="5.72803">
        <ele>263</ele>
        <time>2021-07-18T06:18:34.000Z</time>
      </trkpt>
      <trkpt lat="45.19841" lon="5.7281">
        <ele>262.39999389648</ele>
        <time>2021-07-18T06:18:37.000Z</time>
      </trkpt>
      <trkpt lat="45.19846" lon="5.72814">
        <ele>261.60000610352</ele>
        <time>2021-07-18T06:18:39.000Z</time>
      </trkpt>
      <trkpt lat="45.19848" lon="5.72816">
        <ele>261.20001220703</ele>
        <time>2021-07-18T06:18:40.000Z</time>
      </trkpt>
      <trkpt lat="45.1985" lon="5.72819">
        <ele>260.20001220703</ele>
        <time>2021-07-18T06:18:42.000Z</time>
      </trkpt>
      <trkpt lat="45.19849" lon="5.72822">
        <ele>259.79998779297</ele>
        <time>2021-07-18T06:18:44.000Z</time>
      </trkpt>
      <trkpt lat="45.19847" lon="5.72822">
        <ele>259.79998779297</ele>
        <time>2021-07-18T06:18:45.000Z</time>
      </trkpt>
      <trkpt lat="45.19844" lon="5.72822">
        <ele>259</ele>
        <time>2021-07-18T06:18:47.000Z</time>
      </trkpt>
      <trkpt lat="45.19839" lon="5.72819">
        <ele>258.60000610352</ele>
        <time>2021-07-18T06:18:49.000Z</time>
      </trkpt>
      <trkpt lat="45.19833" lon="5.72815">
        <ele>258</ele>
        <time>2021-07-18T06:18:51.000Z</time>
      </trkpt>
      <trkpt lat="45.19829" lon="5.72814">
        <ele>257.60000610352</ele>
        <time>2021-07-18T06:18:53.000Z</time>
      </trkpt>
      <trkpt lat="45.19828" lon="5.72814">
        <ele>256.79998779297</ele>
        <time>2021-07-18T06:18:54.000Z</time>
      </trkpt>
      <trkpt lat="45.19835" lon="5.72817">
        <ele>255.19999694824</ele>
        <time>2021-07-18T06:18:58.000Z</time>
      </trkpt>
      <trkpt lat="45.1984" lon="5.72823">
        <ele>254</ele>
        <time>2021-07-18T06:19:02.000Z</time>
      </trkpt>
      <trkpt lat="45.19841" lon="5.72826">
        <ele>254</ele>
        <time>2021-07-18T06:19:04.000Z</time>
      </trkpt>
      <trkpt lat="45.19832" lon="5.72828">
        <ele>253</ele>
        <time>2021-07-18T06:19:08.000Z</time>
      </trkpt>
      <trkpt lat="45.19825" lon="5.72826">
        <ele>252</ele>
        <time>2021-07-18T06:19:11.000Z</time>
      </trkpt>
      <trkpt lat="45.19823" lon="5.72825">
        <ele>251.60000610352</ele>
        <time>2021-07-18T06:19:12.000Z</time>
      </trkpt>
      <trkpt lat="45.19819" lon="5.72824">
        <ele>250.60000610352</ele>
        <time>2021-07-18T06:19:14.000Z</time>
      </trkpt>
      <trkpt lat="45.19806" lon="5.72818">
        <ele>249.19999694824</ele>
        <time>2021-07-18T06:19:19.000Z</time>
      </trkpt>
      <trkpt lat="45.198" lon="5.72815">
        <ele>248.60000610352</ele>
        <time>2021-07-18T06:19:22.000Z</time>
      </trkpt>
      <trkpt lat="45.19801" lon="5.72815">
        <ele>248.39999389648</ele>
        <time>2021-07-18T06:19:23.000Z</time>
      </trkpt>
      <trkpt lat="45.19805" lon="5.72817">
        <ele>248</ele>
        <time>2021-07-18T06:19:25.000Z</time>
      </trkpt>
      <trkpt lat="45.19813" lon="5.72822">
        <ele>247.39999389648</ele>
        <time>2021-07-18T06:19:28.000Z</time>
      </trkpt>
      <trkpt lat="45.19819" lon="5.7283">
        <ele>246.60000610352</ele>
        <time>2021-07-18T06:19:32.000Z</time>
      </trkpt>
      <trkpt lat="45.19824" lon="5.72838">
        <ele>246.39999389648</ele>
        <time>2021-07-18T06:19:35.000Z</time>
      </trkpt>
      <trkpt lat="45.19827" lon="5.72841">
        <ele>245.39999389648</ele>
        <time>2021-07-18T06:19:37.000Z</time>
      </trkpt>
      <trkpt lat="45.19826" lon="5.72841">
        <ele>245.39999389648</ele>
        <time>2021-07-18T06:19:38.000Z</time>
      </trkpt>
      <trkpt lat="45.19824" lon="5.72841">
        <ele>245</ele>
        <time>2021-07-18T06:19:39.000Z</time>
      </trkpt>
      <trkpt lat="45.19817" lon="5.7284">
        <ele>244.19999694824</ele>
        <time>2021-07-18T06:19:42.000Z</time>
      </trkpt>
      <trkpt lat="45.19813" lon="5.7284">
        <ele>243.39999389648</ele>
        <time>2021-07-18T06:19:44.000Z</time>
      </trkpt>
      <trkpt lat="45.19805" lon="5.72836">
        <ele>242</ele>
        <time>2021-07-18T06:19:48.000Z</time>
      </trkpt>
      <trkpt lat="45.19793" lon="5.72831">
        <ele>240.39999389648</ele>
        <time>2021-07-18T06:19:53.000Z</time>
      </trkpt>
      <trkpt lat="45.19783" lon="5.72826">
        <ele>239</ele>
        <time>2021-07-18T06:19:59.000Z</time>
      </trkpt>
      <trkpt lat="45.19777" lon="5.72822">
        <ele>238.80000305176</ele>
        <time>2021-07-18T06:20:02.000Z</time>
      </trkpt>
      <trkpt lat="45.19774" lon="5.7282">
        <ele>237.80000305176</ele>
        <time>2021-07-18T06:20:03.000Z</time>
      </trkpt>
      <trkpt lat="45.19771" lon="5.72818">
        <ele>237.80000305176</ele>
        <time>2021-07-18T06:20:04.000Z</time>
      </trkpt>
      <trkpt lat="45.19768" lon="5.72818">
        <ele>236.60000610352</ele>
        <time>2021-07-18T06:20:07.000Z</time>
      </trkpt>
      <trkpt lat="45.19766" lon="5.72819">
        <ele>236</ele>
        <time>2021-07-18T06:20:09.000Z</time>
      </trkpt>
      <trkpt lat="45.19766" lon="5.72819">
        <ele>235.60000610352</ele>
        <time>2021-07-18T06:20:10.000Z</time>
      </trkpt>
      <trkpt lat="45.19767" lon="5.7282">
        <ele>235.39999389648</ele>
        <time>2021-07-18T06:20:12.000Z</time>
      </trkpt>
      <trkpt lat="45.19769" lon="5.72822">
        <ele>235.19999694824</ele>
        <time>2021-07-18T06:20:13.000Z</time>
      </trkpt>
      <trkpt lat="45.19771" lon="5.72826">
        <ele>233.80000305176</ele>
        <time>2021-07-18T06:20:15.000Z</time>
      </trkpt>
      <trkpt lat="45.19769" lon="5.72827">
        <ele>233.80000305176</ele>
        <time>2021-07-18T06:20:16.000Z</time>
      </trkpt>
      <trkpt lat="45.1977" lon="5.72831">
        <ele>233</ele>
        <time>2021-07-18T06:20:19.000Z</time>
      </trkpt>
      <trkpt lat="45.19775" lon="5.72835">
        <ele>232.80000305176</ele>
        <time>2021-07-18T06:20:21.000Z</time>
      </trkpt>
      <trkpt lat="45.19777" lon="5.72836">
        <ele>232.60000610352</ele>
        <time>2021-07-18T06:20:22.000Z</time>
      </trkpt>
      <trkpt lat="45.19782" lon="5.72839">
        <ele>232</ele>
        <time>2021-07-18T06:20:24.000Z</time>
      </trkpt>
      <trkpt lat="45.19784" lon="5.72841">
        <ele>231.60000610352</ele>
        <time>2021-07-18T06:20:25.000Z</time>
      </trkpt>
      <trkpt lat="45.19789" lon="5.72843">
        <ele>231</ele>
        <time>2021-07-18T06:20:27.000Z</time>
      </trkpt>
      <trkpt lat="45.19793" lon="5.72846">
        <ele>230.39999389648</ele>
        <time>2021-07-18T06:20:29.000Z</time>
      </trkpt>
      <trkpt lat="45.19796" lon="5.72848">
        <ele>229.19999694824</ele>
        <time>2021-07-18T06:20:30.000Z</time>
      </trkpt>
      <trkpt lat="45.19797" lon="5.7285">
        <ele>229</ele>
        <time>2021-07-18T06:20:31.000Z</time>
      </trkpt>
      <trkpt lat="45.19806" lon="5.72856">
        <ele>228</ele>
        <time>2021-07-18T06:20:35.000Z</time>
      </trkpt>
      <trkpt lat="45.19811" lon="5.72858">
        <ele>227.39999389648</ele>
        <time>2021-07-18T06:20:37.000Z</time>
      </trkpt>
      <trkpt lat="45.19811" lon="5.72858">
        <ele>227.39999389648</ele>
        <time>2021-07-18T06:20:38.000Z</time>
      </trkpt>
      <trkpt lat="45.19812" lon="5.7286">
        <ele>226.60000610352</ele>
        <time>2021-07-18T06:20:40.000Z</time>
      </trkpt>
      <trkpt lat="45.19812" lon="5.7286">
        <ele>226.39999389648</ele>
        <time>2021-07-18T06:20:41.000Z</time>
      </trkpt>
      <trkpt lat="45.19803" lon="5.72858">
        <ele>225.19999694824</ele>
        <time>2021-07-18T06:20:45.000Z</time>
      </trkpt>
      <trkpt lat="45.19793" lon="5.72854">
        <ele>224</ele>
        <time>2021-07-18T06:20:49.000Z</time>
      </trkpt>
      <trkpt lat="45.19792" lon="5.72854">
        <ele>223.80000305176</ele>
        <time>2021-07-18T06:20:50.000Z</time>
      </trkpt>
      <trkpt lat="45.1979" lon="5.72855">
        <ele>223</ele>
        <time>2021-07-18T06:20:52.000Z</time>
      </trkpt>
      <trkpt lat="45.19786" lon="5.72856">
        <ele>222.19999694824</ele>
        <time>2021-07-18T06:20:55.000Z</time>
      </trkpt>
      <trkpt lat="45.19786" lon="5.72856">
        <ele>221.19999694824</ele>
        <time>2021-07-18T06:20:56.000Z</time>
      </trkpt>
      <trkpt lat="45.19782" lon="5.72856">
        <ele>221.19999694824</ele>
        <time>2021-07-18T06:20:58.000Z</time>
      </trkpt>
      <trkpt lat="45.19777" lon="5.72857">
        <ele>220.80000305176</ele>
        <time>2021-07-18T06:21:00.000Z</time>
      </trkpt>
      <trkpt lat="45.19776" lon="5.72856">
        <ele>220</ele>
        <time>2021-07-18T06:21:01.000Z</time>
      </trkpt>
      <trkpt lat="45.19772" lon="5.72856">
        <ele>219.39999389648</ele>
        <time>2021-07-18T06:21:03.000Z</time>
      </trkpt>
      <trkpt lat="45.19769" lon="5.72854">
        <ele>218.80000305176</ele>
        <time>2021-07-18T06:21:05.000Z</time>
      </trkpt>
      <trkpt lat="45.19762" lon="5.72851">
        <ele>217.80000305176</ele>
        <time>2021-07-18T06:21:08.000Z</time>
      </trkpt>
      <trkpt lat="45.19761" lon="5.7285">
        <ele>217.60000610352</ele>
        <time>2021-07-18T06:21:09.000Z</time>
      </trkpt>
      <trkpt lat="45.1976" lon="5.7285">
        <ele>217.39999389648</ele>
        <time>2021-07-18T06:21:10.000Z</time>
      </trkpt>
      <trkpt lat="45.1976" lon="5.72849">
        <ele>216.19999694824</ele>
        <time>2021-07-18T06:21:13.000Z</time>
      </trkpt>
      <trkpt lat="45.1976" lon="5.72849">
        <ele>216</ele>
        <time>2021-07-18T06:21:14.000Z</time>
      </trkpt>
      <trkpt lat="45.19759" lon="5.7285">
        <ele>215.80000305176</ele>
        <time>2021-07-18T06:21:15.000Z</time>
      </trkpt>
      <trkpt lat="45.19761" lon="5.72852">
        <ele>215.39999389648</ele>
        <time>2021-07-18T06:21:17.000Z</time>
      </trkpt>
      <trkpt lat="45.19762" lon="5.72854">
        <ele>215.39999389648</ele>
        <time>2021-07-18T06:21:18.000Z</time>
      </trkpt>
      <trkpt lat="45.19763" lon="5.72856">
        <ele>215.19999694824</ele>
        <time>2021-07-18T06:21:19.000Z</time>
      </trkpt>
      <trkpt lat="45.19765" lon="5.72862">
        <ele>214.39999389648</ele>
        <time>2021-07-18T06:21:21.000Z</time>
      </trkpt>
      <trkpt lat="45.19766" lon="5.72864">
        <ele>213.80000305176</ele>
        <time>2021-07-18T06:21:22.000Z</time>
      </trkpt>
      <trkpt lat="45.1977" lon="5.72868">
        <ele>213.19999694824</ele>
        <time>2021-07-18T06:21:24.000Z</time>
      </trkpt>
      <trkpt lat="45.19776" lon="5.72872">
        <ele>213</ele>
        <time>2021-07-18T06:21:26.000Z</time>
      </trkpt>
      <trkpt lat="45.19779" lon="5.72874">
        <ele>212.60000610352</ele>
        <time>2021-07-18T06:21:27.000Z</time>
      </trkpt>
      <trkpt lat="45.19784" lon="5.72879">
        <ele>211.39999389648</ele>
        <time>2021-07-18T06:21:29.000Z</time>
      </trkpt>
      <trkpt lat="45.19788" lon="5.72882">
        <ele>210.60000610352</ele>
        <time>2021-07-18T06:21:31.000Z</time>
      </trkpt>
      <trkpt lat="45.19793" lon="5.72888">
        <ele>210</ele>
        <time>2021-07-18T06:21:34.000Z</time>
      </trkpt>
      <trkpt lat="45.19794" lon="5.7289">
        <ele>209.80000305176</ele>
        <time>2021-07-18T06:21:35.000Z</time>
      </trkpt>
      <trkpt lat="45.19795" lon="5.72894">
        <ele>209</ele>
        <time>2021-07-18T06:21:37.000Z</time>
      </trkpt>
      <trkpt lat="45.198" lon="5.72905">
        <ele>208</ele>
        <time>2021-07-18T06:21:41.000Z</time>
      </trkpt>
      <trkpt lat="45.19801" lon="5.72909">
        <ele>207.60000610352</ele>
        <time>2021-07-18T06:21:42.000Z</time>
      </trkpt>
      <trkpt lat="45.198" lon="5.72913">
        <ele>206.80000305176</ele>
        <time>2021-07-18T06:21:44.000Z</time>
      </trkpt>
      <trkpt lat="45.19798" lon="5.72914">
        <ele>206.60000610352</ele>
        <time>2021-07-18T06:21:45.000Z</time>
      </trkpt>
      <trkpt lat="45.19797" lon="5.72915">
        <ele>206.39999389648</ele>
        <time>2021-07-18T06:21:46.000Z</time>
      </trkpt>
      <trkpt lat="45.19786" lon="5.72913">
        <ele>205.39999389648</ele>
        <time>2021-07-18T06:21:49.000Z</time>
      </trkpt>
      <trkpt lat="45.19776" lon="5.72909">
        <ele>204.19999694824</ele>
        <time>2021-07-18T06:21:53.000Z</time>
      </trkpt>
      <trkpt lat="45.19775" lon="5.7291">
        <ele>204.19999694824</ele>
        <time>2021-07-18T06:21:54.000Z</time>
      </trkpt>
      <trkpt lat="45.1977" lon="5.72909">
        <ele>203.39999389648</ele>
        <time>2021-07-18T06:21:56.000Z</time>
      </trkpt>
      <trkpt lat="45.19768" lon="5.72908">
        <ele>203.19999694824</ele>
        <time>2021-07-18T06:21:57.000Z</time>
      </trkpt>
      <trkpt lat="45.19762" lon="5.72906">
        <ele>201.39999389648</ele>
        <time>2021-07-18T06:22:00.000Z</time>
      </trkpt>
      <trkpt lat="45.19758" lon="5.72904">
        <ele>201</ele>
        <time>2021-07-18T06:22:01.000Z</time>
      </trkpt>
      <trkpt lat="45.19744" lon="5.72897">
        <ele>200</ele>
        <time>2021-07-18T06:22:05.000Z</time>
      </trkpt>
      <trkpt lat="45.19741" lon="5.72896">
        <ele>199.60000610352</ele>
        <time>2021-07-18T06:22:06.000Z</time>
      </trkpt>
      <trkpt lat="45.1974" lon="5.72895">
        <ele>199.60000610352</ele>
        <time>2021-07-18T06:22:07.000Z</time>
      </trkpt>
      <trkpt lat="45.19738" lon="5.72894">
        <ele>199</ele>
        <time>2021-07-18T06:22:09.000Z</time>
      </trkpt>
      <trkpt lat="45.19736" lon="5.72894">
        <ele>198.39999389648</ele>
        <time>2021-07-18T06:22:10.000Z</time>
      </trkpt>
      <trkpt lat="45.19733" lon="5.72893">
        <ele>198.39999389648</ele>
        <time>2021-07-18T06:22:11.000Z</time>
      </trkpt>
      <trkpt lat="45.19724" lon="5.72886">
        <ele>197.39999389648</ele>
        <time>2021-07-18T06:22:13.000Z</time>
      </trkpt>
      <trkpt lat="45.1972" lon="5.72882">
        <ele>197.19999694824</ele>
        <time>2021-07-18T06:22:14.000Z</time>
      </trkpt>
      <trkpt lat="45.19715" lon="5.72878">
        <ele>196.39999389648</ele>
        <time>2021-07-18T06:22:16.000Z</time>
      </trkpt>
      <trkpt lat="45.19713" lon="5.72877">
        <ele>195.80000305176</ele>
        <time>2021-07-18T06:22:17.000Z</time>
      </trkpt>
      <trkpt lat="45.19705" lon="5.72871">
        <ele>195</ele>
        <time>2021-07-18T06:22:20.000Z</time>
      </trkpt>
      <trkpt lat="45.19704" lon="5.72869">
        <ele>195</ele>
        <time>2021-07-18T06:22:21.000Z</time>
      </trkpt>
      <trkpt lat="45.19703" lon="5.72868">
        <ele>194.39999389648</ele>
        <time>2021-07-18T06:22:22.000Z</time>
      </trkpt>
      <trkpt lat="45.19702" lon="5.72867">
        <ele>194.39999389648</ele>
        <time>2021-07-18T06:22:23.000Z</time>
      </trkpt>
      <trkpt lat="45.19699" lon="5.72867">
        <ele>193.39999389648</ele>
        <time>2021-07-18T06:22:25.000Z</time>
      </trkpt>
      <trkpt lat="45.19701" lon="5.72868">
        <ele>192.60000610352</ele>
        <time>2021-07-18T06:22:27.000Z</time>
      </trkpt>
      <trkpt lat="45.19704" lon="5.72868">
        <ele>192.60000610352</ele>
        <time>2021-07-18T06:22:28.000Z</time>
      </trkpt>
      <trkpt lat="45.19707" lon="5.7287">
        <ele>192.39999389648</ele>
        <time>2021-07-18T06:22:29.000Z</time>
      </trkpt>
      <trkpt lat="45.19709" lon="5.72871">
        <ele>192</ele>
        <time>2021-07-18T06:22:30.000Z</time>
      </trkpt>
      <trkpt lat="45.19718" lon="5.72879">
        <ele>191.39999389648</ele>
        <time>2021-07-18T06:22:34.000Z</time>
      </trkpt>
      <trkpt lat="45.19719" lon="5.72881">
        <ele>190.60000610352</ele>
        <time>2021-07-18T06:22:35.000Z</time>
      </trkpt>
      <trkpt lat="45.19719" lon="5.72883">
        <ele>190.39999389648</ele>
        <time>2021-07-18T06:22:36.000Z</time>
      </trkpt>
      <trkpt lat="45.1972" lon="5.72886">
        <ele>190.19999694824</ele>
        <time>2021-07-18T06:22:38.000Z</time>
      </trkpt>
      <trkpt lat="45.19722" lon="5.72888">
        <ele>188.80000305176</ele>
        <time>2021-07-18T06:22:39.000Z</time>
      </trkpt>
      <trkpt lat="45.19727" lon="5.72893">
        <ele>188.80000305176</ele>
        <time>2021-07-18T06:22:41.000Z</time>
      </trkpt>
      <trkpt lat="45.19728" lon="5.72896">
        <ele>188.60000610352</ele>
        <time>2021-07-18T06:22:42.000Z</time>
      </trkpt>
      <trkpt lat="45.19729" lon="5.72901">
        <ele>187.39999389648</ele>
        <time>2021-07-18T06:22:44.000Z</time>
      </trkpt>
      <trkpt lat="45.1973" lon="5.72903">
        <ele>187.19999694824</ele>
        <time>2021-07-18T06:22:45.000Z</time>
      </trkpt>
      <trkpt lat="45.19734" lon="5.72909">
        <ele>186.80000305176</ele>
        <time>2021-07-18T06:22:48.000Z</time>
      </trkpt>
      <trkpt lat="45.19739" lon="5.72918">
        <ele>185.60000610352</ele>
        <time>2021-07-18T06:22:51.000Z</time>
      </trkpt>
      <trkpt lat="45.19742" lon="5.72923">
        <ele>185.39999389648</ele>
        <time>2021-07-18T06:22:53.000Z</time>
      </trkpt>
      <trkpt lat="45.19743" lon="5.72928">
        <ele>184.80000305176</ele>
        <time>2021-07-18T06:22:55.000Z</time>
      </trkpt>
      <trkpt lat="45.19742" lon="5.7293">
        <ele>184.19999694824</ele>
        <time>2021-07-18T06:22:56.000Z</time>
      </trkpt>
      <trkpt lat="45.19742" lon="5.72932">
        <ele>184</ele>
        <time>2021-07-18T06:22:57.000Z</time>
      </trkpt>
      <trkpt lat="45.19743" lon="5.72934">
        <ele>183</ele>
        <time>2021-07-18T06:22:58.000Z</time>
      </trkpt>
      <trkpt lat="45.19744" lon="5.72936">
        <ele>183</ele>
        <time>2021-07-18T06:22:59.000Z</time>
      </trkpt>
      <trkpt lat="45.19745" lon="5.72943">
        <ele>182.60000610352</ele>
        <time>2021-07-18T06:23:02.000Z</time>
      </trkpt>
      <trkpt lat="45.19745" lon="5.72945">
        <ele>181.80000305176</ele>
        <time>2021-07-18T06:23:03.000Z</time>
      </trkpt>
      <trkpt lat="45.19744" lon="5.72946">
        <ele>181.60000610352</ele>
        <time>2021-07-18T06:23:05.000Z</time>
      </trkpt>
      <trkpt lat="45.19744" lon="5.72947">
        <ele>180.80000305176</ele>
        <time>2021-07-18T06:23:07.000Z</time>
      </trkpt>
      <trkpt lat="45.19745" lon="5.72949">
        <ele>180.19999694824</ele>
        <time>2021-07-18T06:23:08.000Z</time>
      </trkpt>
      <trkpt lat="45.19745" lon="5.72952">
        <ele>180</ele>
        <time>2021-07-18T06:23:09.000Z</time>
      </trkpt>
      <trkpt lat="45.1975" lon="5.72957">
        <ele>179.19999694824</ele>
        <time>2021-07-18T06:23:11.000Z</time>
      </trkpt>
      <trkpt lat="45.19756" lon="5.72962">
        <ele>179</ele>
        <time>2021-07-18T06:23:13.000Z</time>
      </trkpt>
      <trkpt lat="45.19763" lon="5.72967">
        <ele>177.80000305176</ele>
        <time>2021-07-18T06:23:15.000Z</time>
      </trkpt>
      <trkpt lat="45.19771" lon="5.72975">
        <ele>177.19999694824</ele>
        <time>2021-07-18T06:23:18.000Z</time>
      </trkpt>
      <trkpt lat="45.19774" lon="5.7298">
        <ele>176.60000610352</ele>
        <time>2021-07-18T06:23:20.000Z</time>
      </trkpt>
      <trkpt lat="45.19779" lon="5.72986">
        <ele>175.80000305176</ele>
        <time>2021-07-18T06:23:22.000Z</time>
      </trkpt>
      <trkpt lat="45.19783" lon="5.72989">
        <ele>175.80000305176</ele>
        <time>2021-07-18T06:23:23.000Z</time>
      </trkpt>
      <trkpt lat="45.19789" lon="5.72995">
        <ele>175.39999389648</ele>
        <time>2021-07-18T06:23:25.000Z</time>
      </trkpt>
      <trkpt lat="45.19791" lon="5.72997">
        <ele>175.39999389648</ele>
        <time>2021-07-18T06:23:26.000Z</time>
      </trkpt>
      <trkpt lat="45.19793" lon="5.72998">
        <ele>174.60000610352</ele>
        <time>2021-07-18T06:23:27.000Z</time>
      </trkpt>
      <trkpt lat="45.19792" lon="5.73">
        <ele>174</ele>
        <time>2021-07-18T06:23:28.000Z</time>
      </trkpt>
      <trkpt lat="45.19791" lon="5.73">
        <ele>174</ele>
        <time>2021-07-18T06:23:29.000Z</time>
      </trkpt>
      <trkpt lat="45.19785" lon="5.73006">
        <ele>173.80000305176</ele>
        <time>2021-07-18T06:23:33.000Z</time>
      </trkpt>
      <trkpt lat="45.19784" lon="5.73007">
        <ele>172.39999389648</ele>
        <time>2021-07-18T06:23:34.000Z</time>
      </trkpt>
      <trkpt lat="45.19783" lon="5.73008">
        <ele>172.19999694824</ele>
        <time>2021-07-18T06:23:35.000Z</time>
      </trkpt>
      <trkpt lat="45.19781" lon="5.73009">
        <ele>171.80000305176</ele>
        <time>2021-07-18T06:23:37.000Z</time>
      </trkpt>
      <trkpt lat="45.1978" lon="5.73012">
        <ele>171.60000610352</ele>
        <time>2021-07-18T06:23:38.000Z</time>
      </trkpt>
      <trkpt lat="45.19779" lon="5.73014">
        <ele>171.19999694824</ele>
        <time>2021-07-18T06:23:39.000Z</time>
      </trkpt>
      <trkpt lat="45.19776" lon="5.73015">
        <ele>170.19999694824</ele>
        <time>2021-07-18T06:23:41.000Z</time>
      </trkpt>
      <trkpt lat="45.19769" lon="5.73013">
        <ele>169.80000305176</ele>
        <time>2021-07-18T06:23:44.000Z</time>
      </trkpt>
      <trkpt lat="45.19767" lon="5.73014">
        <ele>169</ele>
        <time>2021-07-18T06:23:46.000Z</time>
      </trkpt>
      <trkpt lat="45.19768" lon="5.73015">
        <ele>169</ele>
        <time>2021-07-18T06:23:47.000Z</time>
      </trkpt>
      <trkpt lat="45.19771" lon="5.73016">
        <ele>168.60000610352</ele>
        <time>2021-07-18T06:23:49.000Z</time>
      </trkpt>
      <trkpt lat="45.19779" lon="5.7302">
        <ele>167.80000305176</ele>
        <time>2021-07-18T06:23:53.000Z</time>
      </trkpt>
      <trkpt lat="45.1978" lon="5.73021">
        <ele>166.80000305176</ele>
        <time>2021-07-18T06:23:54.000Z</time>
      </trkpt>
      <trkpt lat="45.19791" lon="5.73025">
        <ele>165.39999389648</ele>
        <time>2021-07-18T06:23:59.000Z</time>
      </trkpt>
      <trkpt lat="45.19803" lon="5.7303">
        <ele>164.39999389648</ele>
        <time>2021-07-18T06:24:04.000Z</time>
      </trkpt>
      <trkpt lat="45.19803" lon="5.7303">
        <ele>164.39999389648</ele>
        <time>2021-07-18T06:24:05.000Z</time>
      </trkpt>
      <trkpt lat="45.19798" lon="5.73034">
        <ele>163.39999389648</ele>
        <time>2021-07-18T06:24:08.000Z</time>
      </trkpt>
      <trkpt lat="45.19797" lon="5.73035">
        <ele>163.19999694824</ele>
        <time>2021-07-18T06:24:09.000Z</time>
      </trkpt>
      <trkpt lat="45.19793" lon="5.73036">
        <ele>162.60000610352</ele>
        <time>2021-07-18T06:24:11.000Z</time>
      </trkpt>
      <trkpt lat="45.19787" lon="5.73034">
        <ele>162</ele>
        <time>2021-07-18T06:24:13.000Z</time>
      </trkpt>
      <trkpt lat="45.19784" lon="5.73033">
        <ele>161</ele>
        <time>2021-07-18T06:24:14.000Z</time>
      </trkpt>
      <trkpt lat="45.19782" lon="5.73033">
        <ele>160.80000305176</ele>
        <time>2021-07-18T06:24:15.000Z</time>
      </trkpt>
      <trkpt lat="45.19776" lon="5.73035">
        <ele>160.80000305176</ele>
        <time>2021-07-18T06:24:17.000Z</time>
      </trkpt>
      <trkpt lat="45.19772" lon="5.73035">
        <ele>160.19999694824</ele>
        <time>2021-07-18T06:24:18.000Z</time>
      </trkpt>
      <trkpt lat="45.19769" lon="5.73034">
        <ele>159.60000610352</ele>
        <time>2021-07-18T06:24:19.000Z</time>
      </trkpt>
      <trkpt lat="45.19758" lon="5.73032">
        <ele>158.60000610352</ele>
        <time>2021-07-18T06:24:23.000Z</time>
      </trkpt>
      <trkpt lat="45.19755" lon="5.73033">
        <ele>158.39999389648</ele>
        <time>2021-07-18T06:24:24.000Z</time>
      </trkpt>
      <trkpt lat="45.19754" lon="5.73035">
        <ele>157.60000610352</ele>
        <time>2021-07-18T06:24:26.000Z</time>
      </trkpt>
      <trkpt lat="45.19756" lon="5.73035">
        <ele>157.60000610352</ele>
        <time>2021-07-18T06:24:27.000Z</time>
      </trkpt>
      <trkpt lat="45.19764" lon="5.73039">
        <ele>156.60000610352</ele>
        <time>2021-07-18T06:24:31.000Z</time>
      </trkpt>
      <trkpt lat="45.19765" lon="5.7304">
        <ele>156.19999694824</ele>
        <time>2021-07-18T06:24:32.000Z</time>
      </trkpt>
      <trkpt lat="45.19771" lon="5.73045">
        <ele>155.19999694824</ele>
        <time>2021-07-18T06:24:36.000Z</time>
      </trkpt>
      <trkpt lat="45.19774" lon="5.73047">
        <ele>154</ele>
        <time>2021-07-18T06:24:37.000Z</time>
      </trkpt>
      <trkpt lat="45.19777" lon="5.73048">
        <ele>154</ele>
        <time>2021-07-18T06:24:38.000Z</time>
      </trkpt>
      <trkpt lat="45.19782" lon="5.73052">
        <ele>153.60000610352</ele>
        <time>2021-07-18T06:24:41.000Z</time>
      </trkpt>
      <trkpt lat="45.19788" lon="5.73055">
        <ele>152.80000305176</ele>
        <time>2021-07-18T06:24:43.000Z</time>
      </trkpt>
      <trkpt lat="45.19792" lon="5.73057">
        <ele>151.80000305176</ele>
        <time>2021-07-18T06:24:45.000Z</time>
      </trkpt>
      <trkpt lat="45.19794" lon="5.73058">
        <ele>151.39999389648</ele>
        <time>2021-07-18T06:24:46.000Z</time>
      </trkpt>
      <trkpt lat="45.19793" lon="5.73061">
        <ele>151.19999694824</ele>
        <time>2021-07-18T06:24:48.000Z</time>
      </trkpt>
      <trkpt lat="45.19791" lon="5.73062">
        <ele>151</ele>
        <time>2021-07-18T06:24:49.000Z</time>
      </trkpt>
      <trkpt lat="45.19784" lon="5.73064">
        <ele>150.39999389648</ele>
        <time>2021-07-18T06:24:52.000Z</time>
      </trkpt>
      <trkpt lat="45.19782" lon="5.73064">
        <ele>150.39999389648</ele>
        <time>2021-07-18T06:24:53.000Z</time>
      </trkpt>
      <trkpt lat="45.19781" lon="5.73064">
        <ele>150.19999694824</ele>
        <time>2021-07-18T06:24:54.000Z</time>
      </trkpt>
      <trkpt lat="45.19778" lon="5.73064">
        <ele>149</ele>
        <time>2021-07-18T06:24:56.000Z</time>
      </trkpt>
      <trkpt lat="45.19773" lon="5.73063">
        <ele>148.60000610352</ele>
        <time>2021-07-18T06:24:58.000Z</time>
      </trkpt>
      <trkpt lat="45.19764" lon="5.73062">
        <ele>148</ele>
        <time>2021-07-18T06:25:01.000Z</time>
      </trkpt>
      <trkpt lat="45.19759" lon="5.73061">
        <ele>147.19999694824</ele>
        <time>2021-07-18T06:25:03.000Z</time>
      </trkpt>
      <trkpt lat="45.19757" lon="5.73061">
        <ele>147.19999694824</ele>
        <time>2021-07-18T06:25:04.000Z</time>
      </trkpt>
      <trkpt lat="45.19756" lon="5.73061">
        <ele>146.80000305176</ele>
        <time>2021-07-18T06:25:05.000Z</time>
      </trkpt>
      <trkpt lat="45.19755" lon="5.73061">
        <ele>146.19999694824</ele>
        <time>2021-07-18T06:25:06.000Z</time>
      </trkpt>
      <trkpt lat="45.19756" lon="5.73061">
        <ele>145.80000305176</ele>
        <time>2021-07-18T06:25:08.000Z</time>
      </trkpt>
      <trkpt lat="45.19758" lon="5.7306">
        <ele>145.80000305176</ele>
        <time>2021-07-18T06:25:09.000Z</time>
      </trkpt>
      <trkpt lat="45.19762" lon="5.7306">
        <ele>144.39999389648</ele>
        <time>2021-07-18T06:25:11.000Z</time>
      </trkpt>
      <trkpt lat="45.19765" lon="5.7306">
        <ele>144.39999389648</ele>
        <time>2021-07-18T06:25:12.000Z</time>
      </trkpt>
      <trkpt lat="45.19772" lon="5.73064">
        <ele>143.80000305176</ele>
        <time>2021-07-18T06:25:15.000Z</time>
      </trkpt>
      <trkpt lat="45.19776" lon="5.73067">
        <ele>143.19999694824</ele>
        <time>2021-07-18T06:25:17.000Z</time>
      </trkpt>
      <trkpt lat="45.19787" lon="5.73068">
        <ele>142</ele>
        <time>2021-07-18T06:25:20.000Z</time>
      </trkpt>
      <trkpt lat="45.19798" lon="5.73072">
        <ele>141.39999389648</ele>
        <time>2021-07-18T06:25:23.000Z</time>
      </trkpt>
      <trkpt lat="45.198" lon="5.73073">
        <ele>140.80000305176</ele>
        <time>2021-07-18T06:25:24.000Z</time>
      </trkpt>
      <trkpt lat="45.19805" lon="5.73075">
        <ele>140.39999389648</ele>
        <time>2021-07-18T06:25:26.000Z</time>
      </trkpt>
      <trkpt lat="45.19806" lon="5.73076">
        <ele>139.80000305176</ele>
        <time>2021-07-18T06:25:27.000Z</time>
      </trkpt>
      <trkpt lat="45.19807" lon="5.73076">
        <ele>139.60000610352</ele>
        <time>2021-07-18T06:25:28.000Z</time>
      </trkpt>
      <trkpt lat="45.19808" lon="5.73077">
        <ele>139.39999389648</ele>
        <time>2021-07-18T06:25:30.000Z</time>
      </trkpt>
      <trkpt lat="45.19807" lon="5.73084">
        <ele>138.80000305176</ele>
        <time>2021-07-18T06:25:33.000Z</time>
      </trkpt>
      <trkpt lat="45.19805" lon="5.73086">
        <ele>138.60000610352</ele>
        <time>2021-07-18T06:25:34.000Z</time>
      </trkpt>
      <trkpt lat="45.19804" lon="5.73086">
        <ele>138.39999389648</ele>
        <time>2021-07-18T06:25:35.000Z</time>
      </trkpt>
      <trkpt lat="45.19798" lon="5.73089">
        <ele>137.80000305176</ele>
        <time>2021-07-18T06:25:38.000Z</time>
      </trkpt>
      <trkpt lat="45.19796" lon="5.7309">
        <ele>137</ele>
        <time>2021-07-18T06:25:39.000Z</time>
      </trkpt>
      <trkpt lat="45.19785" lon="5.73091">
        <ele>136</ele>
        <time>2021-07-18T06:25:43.000Z</time>
      </trkpt>
      <trkpt lat="45.19782" lon="5.73091">
        <ele>135.39999389648</ele>
        <time>2021-07-18T06:25:44.000Z</time>
      </trkpt>
      <trkpt lat="45.19776" lon="5.73089">
        <ele>134.80000305176</ele>
        <time>2021-07-18T06:25:46.000Z</time>
      </trkpt>
      <trkpt lat="45.19765" lon="5.73091">
        <ele>134.19999694824</ele>
        <time>2021-07-18T06:25:50.000Z</time>
      </trkpt>
      <trkpt lat="45.19764" lon="5.73094">
        <ele>134</ele>
        <time>2021-07-18T06:25:53.000Z</time>
      </trkpt>
      <trkpt lat="45.19767" lon="5.73095">
        <ele>133.39999389648</ele>
        <time>2021-07-18T06:25:54.000Z</time>
      </trkpt>
      <trkpt lat="45.19772" lon="5.73097">
        <ele>132</ele>
        <time>2021-07-18T06:25:56.000Z</time>
      </trkpt>
      <trkpt lat="45.19774" lon="5.73099">
        <ele>131.80000305176</ele>
        <time>2021-07-18T06:25:57.000Z</time>
      </trkpt>
      <trkpt lat="45.19782" lon="5.731">
        <ele>130.80000305176</ele>
        <time>2021-07-18T06:26:00.000Z</time>
      </trkpt>
      <trkpt lat="45.19787" lon="5.73101">
        <ele>130.39999389648</ele>
        <time>2021-07-18T06:26:02.000Z</time>
      </trkpt>
      <trkpt lat="45.1979" lon="5.73101">
        <ele>130.19999694824</ele>
        <time>2021-07-18T06:26:03.000Z</time>
      </trkpt>
      <trkpt lat="45.19794" lon="5.73102">
        <ele>130</ele>
        <time>2021-07-18T06:26:05.000Z</time>
      </trkpt>
      <trkpt lat="45.19796" lon="5.73102">
        <ele>129.80000305176</ele>
        <time>2021-07-18T06:26:06.000Z</time>
      </trkpt>
      <trkpt lat="45.19809" lon="5.73102">
        <ele>128.39999389648</ele>
        <time>2021-07-18T06:26:10.000Z</time>
      </trkpt>
      <trkpt lat="45.19813" lon="5.73105">
        <ele>127.40000152588</ele>
        <time>2021-07-18T06:26:12.000Z</time>
      </trkpt>
      <trkpt lat="45.1981" lon="5.73107">
        <ele>127.19999694824</ele>
        <time>2021-07-18T06:26:13.000Z</time>
      </trkpt>
      <trkpt lat="45.19798" lon="5.73111">
        <ele>126</ele>
        <time>2021-07-18T06:26:17.000Z</time>
      </trkpt>
      <trkpt lat="45.19795" lon="5.73112">
        <ele>126</ele>
        <time>2021-07-18T06:26:18.000Z</time>
      </trkpt>
      <trkpt lat="45.19788" lon="5.73118">
        <ele>125.59999847412</ele>
        <time>2021-07-18T06:26:21.000Z</time>
      </trkpt>
      <trkpt lat="45.19786" lon="5.73121">
        <ele>124.80000305176</ele>
        <time>2021-07-18T06:26:22.000Z</time>
      </trkpt>
      <trkpt lat="45.19783" lon="5.73127">
        <ele>124.59999847412</ele>
        <time>2021-07-18T06:26:24.000Z</time>
      </trkpt>
      <trkpt lat="45.19779" lon="5.73134">
        <ele>123.80000305176</ele>
        <time>2021-07-18T06:26:26.000Z</time>
      </trkpt>
      <trkpt lat="45.19777" lon="5.7314">
        <ele>122.80000305176</ele>
        <time>2021-07-18T06:26:28.000Z</time>
      </trkpt>
      <trkpt lat="45.19777" lon="5.73144">
        <ele>122.19999694824</ele>
        <time>2021-07-18T06:26:29.000Z</time>
      </trkpt>
      <trkpt lat="45.19778" lon="5.73148">
        <ele>121.40000152588</ele>
        <time>2021-07-18T06:26:30.000Z</time>
      </trkpt>
      <trkpt lat="45.19777" lon="5.73156">
        <ele>121.19999694824</ele>
        <time>2021-07-18T06:26:32.000Z</time>
      </trkpt>
      <trkpt lat="45.19778" lon="5.7316">
        <ele>120.40000152588</ele>
        <time>2021-07-18T06:26:33.000Z</time>
      </trkpt>
      <trkpt lat="45.1978" lon="5.73164">
        <ele>120.40000152588</ele>
        <time>2021-07-18T06:26:34.000Z</time>
      </trkpt>
      <trkpt lat="45.19782" lon="5.7317">
        <ele>120.19999694824</ele>
        <time>2021-07-18T06:26:35.000Z</time>
      </trkpt>
      <trkpt lat="45.1978" lon="5.73179">
        <ele>120.19999694824</ele>
        <time>2021-07-18T06:26:37.000Z</time>
      </trkpt>
      <trkpt lat="45.19776" lon="5.73192">
        <ele>120.19999694824</ele>
        <time>2021-07-18T06:26:41.000Z</time>
      </trkpt>
      <trkpt lat="45.19774" lon="5.73195">
        <ele>120.40000152588</ele>
        <time>2021-07-18T06:26:42.000Z</time>
      </trkpt>
      <trkpt lat="45.19771" lon="5.73203">
        <ele>120.40000152588</ele>
        <time>2021-07-18T06:26:44.000Z</time>
      </trkpt>
      <trkpt lat="45.19769" lon="5.73206">
        <ele>120.40000152588</ele>
        <time>2021-07-18T06:26:45.000Z</time>
      </trkpt>
      <trkpt lat="45.19766" lon="5.73209">
        <ele>120.40000152588</ele>
        <time>2021-07-18T06:26:46.000Z</time>
      </trkpt>
      <trkpt lat="45.19763" lon="5.73222">
        <ele>120.40000152588</ele>
        <time>2021-07-18T06:26:49.000Z</time>
      </trkpt>
      <trkpt lat="45.19764" lon="5.73225">
        <ele>120.59999847412</ele>
        <time>2021-07-18T06:26:50.000Z</time>
      </trkpt>
      <trkpt lat="45.19772" lon="5.73238">
        <ele>120.59999847412</ele>
        <time>2021-07-18T06:26:54.000Z</time>
      </trkpt>
      <trkpt lat="45.19786" lon="5.73248">
        <ele>121.40000152588</ele>
        <time>2021-07-18T06:26:59.000Z</time>
      </trkpt>
      <trkpt lat="45.19788" lon="5.73249">
        <ele>120.80000305176</ele>
        <time>2021-07-18T06:27:00.000Z</time>
      </trkpt>
      <trkpt lat="45.19798" lon="5.73253">
        <ele>121</ele>
        <time>2021-07-18T06:27:03.000Z</time>
      </trkpt>
      <trkpt lat="45.19802" lon="5.73255">
        <ele>120.80000305176</ele>
        <time>2021-07-18T06:27:05.000Z</time>
      </trkpt>
      <trkpt lat="45.19806" lon="5.73256">
        <ele>120.80000305176</ele>
        <time>2021-07-18T06:27:06.000Z</time>
      </trkpt>
      <trkpt lat="45.1982" lon="5.7326">
        <ele>120.59999847412</ele>
        <time>2021-07-18T06:27:12.000Z</time>
      </trkpt>
      <trkpt lat="45.19822" lon="5.7326">
        <ele>120.59999847412</ele>
        <time>2021-07-18T06:27:13.000Z</time>
      </trkpt>
      <trkpt lat="45.19829" lon="5.73261">
        <ele>121</ele>
        <time>2021-07-18T06:27:17.000Z</time>
      </trkpt>
      <trkpt lat="45.19841" lon="5.73262">
        <ele>121</ele>
        <time>2021-07-18T06:27:22.000Z</time>
      </trkpt>
      <trkpt lat="45.19848" lon="5.73261">
        <ele>121</ele>
        <time>2021-07-18T06:27:25.000Z</time>
      </trkpt>
      <trkpt lat="45.19863" lon="5.73261">
        <ele>121</ele>
        <time>2021-07-18T06:27:32.000Z</time>
      </trkpt>
      <trkpt lat="45.19877" lon="5.73265">
        <ele>121.19999694824</ele>
        <time>2021-07-18T06:27:36.000Z</time>
      </trkpt>
      <trkpt lat="45.19889" lon="5.73269">
        <ele>121.40000152588</ele>
        <time>2021-07-18T06:27:41.000Z</time>
      </trkpt>
      <trkpt lat="45.19897" lon="5.73271">
        <ele>121.40000152588</ele>
        <time>2021-07-18T06:27:44.000Z</time>
      </trkpt>
      <trkpt lat="45.19908" lon="5.73278">
        <ele>121.19999694824</ele>
        <time>2021-07-18T06:27:47.000Z</time>
      </trkpt>
      <trkpt lat="45.19911" lon="5.7328">
        <ele>121.19999694824</ele>
        <time>2021-07-18T06:27:48.000Z</time>
      </trkpt>
      <trkpt lat="45.19917" lon="5.73285">
        <ele>121.19999694824</ele>
        <time>2021-07-18T06:27:51.000Z</time>
      </trkpt>
      <trkpt lat="45.19923" lon="5.73289">
        <ele>121.40000152588</ele>
        <time>2021-07-18T06:27:53.000Z</time>
      </trkpt>
      <trkpt lat="45.1993" lon="5.73293">
        <ele>121.40000152588</ele>
        <time>2021-07-18T06:27:56.000Z</time>
      </trkpt>
      <trkpt lat="45.19945" lon="5.73301">
        <ele>121.19999694824</ele>
        <time>2021-07-18T06:28:01.000Z</time>
      </trkpt>
      <trkpt lat="45.19963" lon="5.73307">
        <ele>121.19999694824</ele>
        <time>2021-07-18T06:28:06.000Z</time>
      </trkpt>
      <trkpt lat="45.19965" lon="5.7331">
        <ele>121.19999694824</ele>
        <time>2021-07-18T06:28:08.000Z</time>
      </trkpt>
      <trkpt lat="45.19966" lon="5.73311">
        <ele>121.19999694824</ele>
        <time>2021-07-18T06:28:09.000Z</time>
      </trkpt>
      <trkpt lat="45.19968" lon="5.73312">
        <ele>121.19999694824</ele>
        <time>2021-07-18T06:28:10.000Z</time>
      </trkpt>
      <trkpt lat="45.19978" lon="5.73317">
        <ele>120.80000305176</ele>
        <time>2021-07-18T06:28:15.000Z</time>
      </trkpt>
      <trkpt lat="45.19982" lon="5.73319">
        <ele>120.80000305176</ele>
        <time>2021-07-18T06:28:17.000Z</time>
      </trkpt>
      <trkpt lat="45.19991" lon="5.73324">
        <ele>120.80000305176</ele>
        <time>2021-07-18T06:28:21.000Z</time>
      </trkpt>
      <trkpt lat="45.20008" lon="5.73327">
        <ele>120.80000305176</ele>
        <time>2021-07-18T06:28:27.000Z</time>
      </trkpt>
      <trkpt lat="45.20027" lon="5.73336">
        <ele>120</ele>
        <time>2021-07-18T06:28:33.000Z</time>
      </trkpt>
      <trkpt lat="45.2003" lon="5.73337">
        <ele>120</ele>
        <time>2021-07-18T06:28:34.000Z</time>
      </trkpt>
      <trkpt lat="45.2004" lon="5.7334">
        <ele>119.80000305176</ele>
        <time>2021-07-18T06:28:39.000Z</time>
      </trkpt>
      <trkpt lat="45.20045" lon="5.73342">
        <ele>119.80000305176</ele>
        <time>2021-07-18T06:28:41.000Z</time>
      </trkpt>
      <trkpt lat="45.20053" lon="5.73343">
        <ele>119.80000305176</ele>
        <time>2021-07-18T06:28:44.000Z</time>
      </trkpt>
      <trkpt lat="45.20059" lon="5.73345">
        <ele>119.80000305176</ele>
        <time>2021-07-18T06:28:46.000Z</time>
      </trkpt>
      <trkpt lat="45.20077" lon="5.73352">
        <ele>119.80000305176</ele>
        <time>2021-07-18T06:28:52.000Z</time>
      </trkpt>
      <trkpt lat="45.20081" lon="5.73353">
        <ele>119.80000305176</ele>
        <time>2021-07-18T06:28:53.000Z</time>
      </trkpt>
      <trkpt lat="45.20086" lon="5.73355">
        <ele>119.80000305176</ele>
        <time>2021-07-18T06:28:54.000Z</time>
      </trkpt>
      <trkpt lat="45.20105" lon="5.73367">
        <ele>119.80000305176</ele>
        <time>2021-07-18T06:28:59.000Z</time>
      </trkpt>
      <trkpt lat="45.20108" lon="5.7337">
        <ele>119.40000152588</ele>
        <time>2021-07-18T06:29:00.000Z</time>
      </trkpt>
      <trkpt lat="45.20115" lon="5.73375">
        <ele>119.40000152588</ele>
        <time>2021-07-18T06:29:02.000Z</time>
      </trkpt>
      <trkpt lat="45.20132" lon="5.73386">
        <ele>119.40000152588</ele>
        <time>2021-07-18T06:29:08.000Z</time>
      </trkpt>
      <trkpt lat="45.20145" lon="5.73397">
        <ele>119.19999694824</ele>
        <time>2021-07-18T06:29:13.000Z</time>
      </trkpt>
      <trkpt lat="45.20153" lon="5.73415">
        <ele>118.80000305176</ele>
        <time>2021-07-18T06:29:18.000Z</time>
      </trkpt>
      <trkpt lat="45.20157" lon="5.7342">
        <ele>118.59999847412</ele>
        <time>2021-07-18T06:29:20.000Z</time>
      </trkpt>
      <trkpt lat="45.20159" lon="5.73422">
        <ele>118.19999694824</ele>
        <time>2021-07-18T06:29:21.000Z</time>
      </trkpt>
      <trkpt lat="45.20163" lon="5.73429">
        <ele>118</ele>
        <time>2021-07-18T06:29:23.000Z</time>
      </trkpt>
      <trkpt lat="45.20176" lon="5.73451">
        <ele>118</ele>
        <time>2021-07-18T06:29:30.000Z</time>
      </trkpt>
      <trkpt lat="45.2019" lon="5.73468">
        <ele>118</ele>
        <time>2021-07-18T06:29:36.000Z</time>
      </trkpt>
      <trkpt lat="45.20196" lon="5.73474">
        <ele>117.80000305176</ele>
        <time>2021-07-18T06:29:38.000Z</time>
      </trkpt>
      <trkpt lat="45.20202" lon="5.73494">
        <ele>118</ele>
        <time>2021-07-18T06:29:43.000Z</time>
      </trkpt>
      <trkpt lat="45.2021" lon="5.73514">
        <ele>118.19999694824</ele>
        <time>2021-07-18T06:29:49.000Z</time>
      </trkpt>
      <trkpt lat="45.20211" lon="5.73518">
        <ele>118.19999694824</ele>
        <time>2021-07-18T06:29:50.000Z</time>
      </trkpt>
      <trkpt lat="45.2021" lon="5.73524">
        <ele>118.19999694824</ele>
        <time>2021-07-18T06:29:52.000Z</time>
      </trkpt>
      <trkpt lat="45.20211" lon="5.73526">
        <ele>118.59999847412</ele>
        <time>2021-07-18T06:29:53.000Z</time>
      </trkpt>
      <trkpt lat="45.20217" lon="5.73542">
        <ele>118.80000305176</ele>
        <time>2021-07-18T06:29:58.000Z</time>
      </trkpt>
      <trkpt lat="45.20218" lon="5.7355">
        <ele>119.19999694824</ele>
        <time>2021-07-18T06:30:00.000Z</time>
      </trkpt>
      <trkpt lat="45.20222" lon="5.7356">
        <ele>119.19999694824</ele>
        <time>2021-07-18T06:30:03.000Z</time>
      </trkpt>
      <trkpt lat="45.20228" lon="5.73576">
        <ele>119</ele>
        <time>2021-07-18T06:30:08.000Z</time>
      </trkpt>
      <trkpt lat="45.20224" lon="5.73579">
        <ele>119</ele>
        <time>2021-07-18T06:30:09.000Z</time>
      </trkpt>
      <trkpt lat="45.20224" lon="5.73582">
        <ele>119</ele>
        <time>2021-07-18T06:30:10.000Z</time>
      </trkpt>
      <trkpt lat="45.20225" lon="5.73586">
        <ele>119.19999694824</ele>
        <time>2021-07-18T06:30:11.000Z</time>
      </trkpt>
      <trkpt lat="45.20228" lon="5.7359">
        <ele>119</ele>
        <time>2021-07-18T06:30:12.000Z</time>
      </trkpt>
      <trkpt lat="45.20244" lon="5.73603">
        <ele>118.59999847412</ele>
        <time>2021-07-18T06:30:17.000Z</time>
      </trkpt>
      <trkpt lat="45.20248" lon="5.73612">
        <ele>118.80000305176</ele>
        <time>2021-07-18T06:30:19.000Z</time>
      </trkpt>
      <trkpt lat="45.20253" lon="5.73637">
        <ele>118.80000305176</ele>
        <time>2021-07-18T06:30:25.000Z</time>
      </trkpt>
      <trkpt lat="45.20252" lon="5.73646">
        <ele>119.19999694824</ele>
        <time>2021-07-18T06:30:27.000Z</time>
      </trkpt>
      <trkpt lat="45.20253" lon="5.73672">
        <ele>119.19999694824</ele>
        <time>2021-07-18T06:30:33.000Z</time>
      </trkpt>
      <trkpt lat="45.20257" lon="5.73683">
        <ele>119.19999694824</ele>
        <time>2021-07-18T06:30:36.000Z</time>
      </trkpt>
      <trkpt lat="45.20258" lon="5.73706">
        <ele>119.19999694824</ele>
        <time>2021-07-18T06:30:41.000Z</time>
      </trkpt>
      <trkpt lat="45.20261" lon="5.73725">
        <ele>119.40000152588</ele>
        <time>2021-07-18T06:30:46.000Z</time>
      </trkpt>
      <trkpt lat="45.20263" lon="5.73744">
        <ele>119.19999694824</ele>
        <time>2021-07-18T06:30:51.000Z</time>
      </trkpt>
      <trkpt lat="45.20263" lon="5.73748">
        <ele>119</ele>
        <time>2021-07-18T06:30:52.000Z</time>
      </trkpt>
      <trkpt lat="45.20261" lon="5.73777">
        <ele>119.40000152588</ele>
        <time>2021-07-18T06:30:59.000Z</time>
      </trkpt>
      <trkpt lat="45.20259" lon="5.7378">
        <ele>119.59999847412</ele>
        <time>2021-07-18T06:31:00.000Z</time>
      </trkpt>
      <trkpt lat="45.20255" lon="5.73799">
        <ele>119.59999847412</ele>
        <time>2021-07-18T06:31:05.000Z</time>
      </trkpt>
      <trkpt lat="45.20252" lon="5.73807">
        <ele>119.59999847412</ele>
        <time>2021-07-18T06:31:07.000Z</time>
      </trkpt>
      <trkpt lat="45.2025" lon="5.73815">
        <ele>119.59999847412</ele>
        <time>2021-07-18T06:31:09.000Z</time>
      </trkpt>
      <trkpt lat="45.20252" lon="5.7383">
        <ele>119.59999847412</ele>
        <time>2021-07-18T06:31:12.000Z</time>
      </trkpt>
      <trkpt lat="45.2025" lon="5.73844">
        <ele>119.59999847412</ele>
        <time>2021-07-18T06:31:16.000Z</time>
      </trkpt>
      <trkpt lat="45.20246" lon="5.73866">
        <ele>119.59999847412</ele>
        <time>2021-07-18T06:31:23.000Z</time>
      </trkpt>
      <trkpt lat="45.20241" lon="5.73893">
        <ele>119.80000305176</ele>
        <time>2021-07-18T06:31:30.000Z</time>
      </trkpt>
      <trkpt lat="45.2024" lon="5.739">
        <ele>120</ele>
        <time>2021-07-18T06:31:32.000Z</time>
      </trkpt>
      <trkpt lat="45.20237" lon="5.73911">
        <ele>120</ele>
        <time>2021-07-18T06:31:35.000Z</time>
      </trkpt>
      <trkpt lat="45.20236" lon="5.73923">
        <ele>119.59999847412</ele>
        <time>2021-07-18T06:31:38.000Z</time>
      </trkpt>
      <trkpt lat="45.20228" lon="5.73948">
        <ele>119.80000305176</ele>
        <time>2021-07-18T06:31:45.000Z</time>
      </trkpt>
      <trkpt lat="45.20226" lon="5.73951">
        <ele>120.40000152588</ele>
        <time>2021-07-18T06:31:46.000Z</time>
      </trkpt>
      <trkpt lat="45.2022" lon="5.73969">
        <ele>119.80000305176</ele>
        <time>2021-07-18T06:31:51.000Z</time>
      </trkpt>
      <trkpt lat="45.20211" lon="5.73991">
        <ele>120.40000152588</ele>
        <time>2021-07-18T06:31:58.000Z</time>
      </trkpt>
      <trkpt lat="45.2021" lon="5.73996">
        <ele>119.80000305176</ele>
        <time>2021-07-18T06:31:59.000Z</time>
      </trkpt>
      <trkpt lat="45.20206" lon="5.74006">
        <ele>119.80000305176</ele>
        <time>2021-07-18T06:32:02.000Z</time>
      </trkpt>
      <trkpt lat="45.20201" lon="5.74015">
        <ele>120.19999694824</ele>
        <time>2021-07-18T06:32:05.000Z</time>
      </trkpt>
      <trkpt lat="45.20193" lon="5.74028">
        <ele>120</ele>
        <time>2021-07-18T06:32:10.000Z</time>
      </trkpt>
      <trkpt lat="45.20187" lon="5.74032">
        <ele>120</ele>
        <time>2021-07-18T06:32:12.000Z</time>
      </trkpt>
      <trkpt lat="45.20179" lon="5.74042">
        <ele>120</ele>
        <time>2021-07-18T06:32:15.000Z</time>
      </trkpt>
      <trkpt lat="45.20169" lon="5.74058">
        <ele>119.80000305176</ele>
        <time>2021-07-18T06:32:20.000Z</time>
      </trkpt>
      <trkpt lat="45.20165" lon="5.74067">
        <ele>120.19999694824</ele>
        <time>2021-07-18T06:32:23.000Z</time>
      </trkpt>
      <trkpt lat="45.20164" lon="5.74072">
        <ele>120.19999694824</ele>
        <time>2021-07-18T06:32:25.000Z</time>
      </trkpt>
      <trkpt lat="45.20163" lon="5.74075">
        <ele>120.19999694824</ele>
        <time>2021-07-18T06:32:26.000Z</time>
      </trkpt>
      <trkpt lat="45.20161" lon="5.7408">
        <ele>120.40000152588</ele>
        <time>2021-07-18T06:32:28.000Z</time>
      </trkpt>
      <trkpt lat="45.20158" lon="5.74085">
        <ele>120.40000152588</ele>
        <time>2021-07-18T06:32:30.000Z</time>
      </trkpt>
      <trkpt lat="45.20156" lon="5.74091">
        <ele>120.80000305176</ele>
        <time>2021-07-18T06:32:32.000Z</time>
      </trkpt>
      <trkpt lat="45.20152" lon="5.74098">
        <ele>121</ele>
        <time>2021-07-18T06:32:34.000Z</time>
      </trkpt>
      <trkpt lat="45.2015" lon="5.74102">
        <ele>121</ele>
        <time>2021-07-18T06:32:35.000Z</time>
      </trkpt>
      <trkpt lat="45.20148" lon="5.74108">
        <ele>121.40000152588</ele>
        <time>2021-07-18T06:32:37.000Z</time>
      </trkpt>
      <trkpt lat="45.20148" lon="5.74114">
        <ele>121.40000152588</ele>
        <time>2021-07-18T06:32:39.000Z</time>
      </trkpt>
      <trkpt lat="45.20147" lon="5.74117">
        <ele>122</ele>
        <time>2021-07-18T06:32:40.000Z</time>
      </trkpt>
      <trkpt lat="45.20142" lon="5.74126">
        <ele>122</ele>
        <time>2021-07-18T06:32:43.000Z</time>
      </trkpt>
      <trkpt lat="45.2014" lon="5.74128">
        <ele>122</ele>
        <time>2021-07-18T06:32:44.000Z</time>
      </trkpt>
      <trkpt lat="45.20136" lon="5.7414">
        <ele>123</ele>
        <time>2021-07-18T06:32:48.000Z</time>
      </trkpt>
      <trkpt lat="45.20133" lon="5.74143">
        <ele>123.19999694824</ele>
        <time>2021-07-18T06:32:49.000Z</time>
      </trkpt>
      <trkpt lat="45.2013" lon="5.74145">
        <ele>123.59999847412</ele>
        <time>2021-07-18T06:32:50.000Z</time>
      </trkpt>
      <trkpt lat="45.20125" lon="5.7415">
        <ele>123.59999847412</ele>
        <time>2021-07-18T06:32:52.000Z</time>
      </trkpt>
      <trkpt lat="45.20125" lon="5.74153">
        <ele>124.19999694824</ele>
        <time>2021-07-18T06:32:53.000Z</time>
      </trkpt>
      <trkpt lat="45.20119" lon="5.74166">
        <ele>124.80000305176</ele>
        <time>2021-07-18T06:32:58.000Z</time>
      </trkpt>
      <trkpt lat="45.2011" lon="5.74177">
        <ele>124.59999847412</ele>
        <time>2021-07-18T06:33:03.000Z</time>
      </trkpt>
      <trkpt lat="45.20107" lon="5.7418">
        <ele>124.19999694824</ele>
        <time>2021-07-18T06:33:05.000Z</time>
      </trkpt>
      <trkpt lat="45.20103" lon="5.74182">
        <ele>124.19999694824</ele>
        <time>2021-07-18T06:33:07.000Z</time>
      </trkpt>
      <trkpt lat="45.20101" lon="5.74182">
        <ele>124.19999694824</ele>
        <time>2021-07-18T06:33:08.000Z</time>
      </trkpt>
      <trkpt lat="45.20088" lon="5.74181">
        <ele>124.40000152588</ele>
        <time>2021-07-18T06:33:13.000Z</time>
      </trkpt>
      <trkpt lat="45.20078" lon="5.74171">
        <ele>124.80000305176</ele>
        <time>2021-07-18T06:33:17.000Z</time>
      </trkpt>
      <trkpt lat="45.20075" lon="5.74167">
        <ele>124.80000305176</ele>
        <time>2021-07-18T06:33:18.000Z</time>
      </trkpt>
      <trkpt lat="45.20059" lon="5.74149">
        <ele>124.80000305176</ele>
        <time>2021-07-18T06:33:26.000Z</time>
      </trkpt>
      <trkpt lat="45.20055" lon="5.74143">
        <ele>125.19999694824</ele>
        <time>2021-07-18T06:33:28.000Z</time>
      </trkpt>
      <trkpt lat="45.20045" lon="5.74131">
        <ele>125.40000152588</ele>
        <time>2021-07-18T06:33:33.000Z</time>
      </trkpt>
      <trkpt lat="45.20031" lon="5.7411">
        <ele>124.80000305176</ele>
        <time>2021-07-18T06:33:40.000Z</time>
      </trkpt>
      <trkpt lat="45.20027" lon="5.74105">
        <ele>124.80000305176</ele>
        <time>2021-07-18T06:33:42.000Z</time>
      </trkpt>
      <trkpt lat="45.20019" lon="5.74098">
        <ele>124.80000305176</ele>
        <time>2021-07-18T06:33:45.000Z</time>
      </trkpt>
      <trkpt lat="45.20012" lon="5.7409">
        <ele>124.40000152588</ele>
        <time>2021-07-18T06:33:49.000Z</time>
      </trkpt>
      <trkpt lat="45.20008" lon="5.74089">
        <ele>124.40000152588</ele>
        <time>2021-07-18T06:33:52.000Z</time>
      </trkpt>
      <trkpt lat="45.20006" lon="5.7409">
        <ele>124.19999694824</ele>
        <time>2021-07-18T06:33:53.000Z</time>
      </trkpt>
      <trkpt lat="45.19997" lon="5.74099">
        <ele>122.80000305176</ele>
        <time>2021-07-18T06:33:58.000Z</time>
      </trkpt>
      <trkpt lat="45.19995" lon="5.74101">
        <ele>122.59999847412</ele>
        <time>2021-07-18T06:33:59.000Z</time>
      </trkpt>
      <trkpt lat="45.19984" lon="5.74116">
        <ele>122.19999694824</ele>
        <time>2021-07-18T06:34:05.000Z</time>
      </trkpt>
      <trkpt lat="45.1998" lon="5.74125">
        <ele>121.80000305176</ele>
        <time>2021-07-18T06:34:08.000Z</time>
      </trkpt>
      <trkpt lat="45.19972" lon="5.74137">
        <ele>121.19999694824</ele>
        <time>2021-07-18T06:34:12.000Z</time>
      </trkpt>
      <trkpt lat="45.19965" lon="5.7415">
        <ele>121.19999694824</ele>
        <time>2021-07-18T06:34:16.000Z</time>
      </trkpt>
      <trkpt lat="45.19959" lon="5.74155">
        <ele>121.19999694824</ele>
        <time>2021-07-18T06:34:18.000Z</time>
      </trkpt>
      <trkpt lat="45.19946" lon="5.74165">
        <ele>121.59999847412</ele>
        <time>2021-07-18T06:34:23.000Z</time>
      </trkpt>
      <trkpt lat="45.19927" lon="5.74178">
        <ele>121</ele>
        <time>2021-07-18T06:34:30.000Z</time>
      </trkpt>
      <trkpt lat="45.19911" lon="5.74186">
        <ele>121</ele>
        <time>2021-07-18T06:34:36.000Z</time>
      </trkpt>
      <trkpt lat="45.19893" lon="5.74199">
        <ele>121.19999694824</ele>
        <time>2021-07-18T06:34:43.000Z</time>
      </trkpt>
      <trkpt lat="45.1989" lon="5.74201">
        <ele>121.19999694824</ele>
        <time>2021-07-18T06:34:44.000Z</time>
      </trkpt>
      <trkpt lat="45.19878" lon="5.74207">
        <ele>121.19999694824</ele>
        <time>2021-07-18T06:34:48.000Z</time>
      </trkpt>
      <trkpt lat="45.19876" lon="5.74208">
        <ele>121.19999694824</ele>
        <time>2021-07-18T06:34:49.000Z</time>
      </trkpt>
      <trkpt lat="45.19856" lon="5.74216">
        <ele>121.19999694824</ele>
        <time>2021-07-18T06:34:56.000Z</time>
      </trkpt>
      <trkpt lat="45.19839" lon="5.74225">
        <ele>121</ele>
        <time>2021-07-18T06:35:02.000Z</time>
      </trkpt>
      <trkpt lat="45.1982" lon="5.74237">
        <ele>121.19999694824</ele>
        <time>2021-07-18T06:35:09.000Z</time>
      </trkpt>
      <trkpt lat="45.19815" lon="5.74241">
        <ele>121</ele>
        <time>2021-07-18T06:35:11.000Z</time>
      </trkpt>
      <trkpt lat="45.19811" lon="5.74242">
        <ele>120.59999847412</ele>
        <time>2021-07-18T06:35:12.000Z</time>
      </trkpt>
      <trkpt lat="45.19806" lon="5.74245">
        <ele>120.59999847412</ele>
        <time>2021-07-18T06:35:14.000Z</time>
      </trkpt>
      <trkpt lat="45.19801" lon="5.74248">
        <ele>121</ele>
        <time>2021-07-18T06:35:16.000Z</time>
      </trkpt>
      <trkpt lat="45.19791" lon="5.74247">
        <ele>121.40000152588</ele>
        <time>2021-07-18T06:35:19.000Z</time>
      </trkpt>
      <trkpt lat="45.19773" lon="5.7425">
        <ele>121.19999694824</ele>
        <time>2021-07-18T06:35:25.000Z</time>
      </trkpt>
      <trkpt lat="45.19755" lon="5.7425">
        <ele>121.19999694824</ele>
        <time>2021-07-18T06:35:31.000Z</time>
      </trkpt>
      <trkpt lat="45.19748" lon="5.7425">
        <ele>121.40000152588</ele>
        <time>2021-07-18T06:35:33.000Z</time>
      </trkpt>
      <trkpt lat="45.19738" lon="5.7425">
        <ele>121.19999694824</ele>
        <time>2021-07-18T06:35:37.000Z</time>
      </trkpt>
      <trkpt lat="45.19734" lon="5.74248">
        <ele>121</ele>
        <time>2021-07-18T06:35:39.000Z</time>
      </trkpt>
      <trkpt lat="45.1973" lon="5.74245">
        <ele>120.40000152588</ele>
        <time>2021-07-18T06:35:42.000Z</time>
      </trkpt>
      <trkpt lat="45.19728" lon="5.74241">
        <ele>119.40000152588</ele>
        <time>2021-07-18T06:35:44.000Z</time>
      </trkpt>
      <trkpt lat="45.1972" lon="5.74214">
        <ele>119.40000152588</ele>
        <time>2021-07-18T06:35:51.000Z</time>
      </trkpt>
      <trkpt lat="45.19717" lon="5.74202">
        <ele>119.40000152588</ele>
        <time>2021-07-18T06:35:54.000Z</time>
      </trkpt>
      <trkpt lat="45.19715" lon="5.74198">
        <ele>119.40000152588</ele>
        <time>2021-07-18T06:35:55.000Z</time>
      </trkpt>
      <trkpt lat="45.1971" lon="5.74173">
        <ele>119.59999847412</ele>
        <time>2021-07-18T06:36:01.000Z</time>
      </trkpt>
      <trkpt lat="45.19709" lon="5.74163">
        <ele>119.59999847412</ele>
        <time>2021-07-18T06:36:03.000Z</time>
      </trkpt>
      <trkpt lat="45.19708" lon="5.74157">
        <ele>119.59999847412</ele>
        <time>2021-07-18T06:36:05.000Z</time>
      </trkpt>
      <trkpt lat="45.19708" lon="5.7415">
        <ele>119.40000152588</ele>
        <time>2021-07-18T06:36:07.000Z</time>
      </trkpt>
      <trkpt lat="45.19703" lon="5.74131">
        <ele>119.80000305176</ele>
        <time>2021-07-18T06:36:12.000Z</time>
      </trkpt>
      <trkpt lat="45.19701" lon="5.74123">
        <ele>119.80000305176</ele>
        <time>2021-07-18T06:36:14.000Z</time>
      </trkpt>
      <trkpt lat="45.19699" lon="5.7411">
        <ele>119.19999694824</ele>
        <time>2021-07-18T06:36:17.000Z</time>
      </trkpt>
      <trkpt lat="45.19699" lon="5.74103">
        <ele>119.59999847412</ele>
        <time>2021-07-18T06:36:19.000Z</time>
      </trkpt>
      <trkpt lat="45.19697" lon="5.74082">
        <ele>119.80000305176</ele>
        <time>2021-07-18T06:36:24.000Z</time>
      </trkpt>
      <trkpt lat="45.19698" lon="5.74065">
        <ele>120</ele>
        <time>2021-07-18T06:36:29.000Z</time>
      </trkpt>
      <trkpt lat="45.19695" lon="5.74047">
        <ele>119.80000305176</ele>
        <time>2021-07-18T06:36:34.000Z</time>
      </trkpt>
      <trkpt lat="45.19691" lon="5.74024">
        <ele>119.40000152588</ele>
        <time>2021-07-18T06:36:40.000Z</time>
      </trkpt>
      <trkpt lat="45.19688" lon="5.74015">
        <ele>119.40000152588</ele>
        <time>2021-07-18T06:36:43.000Z</time>
      </trkpt>
      <trkpt lat="45.19681" lon="5.74011">
        <ele>119.59999847412</ele>
        <time>2021-07-18T06:36:45.000Z</time>
      </trkpt>
      <trkpt lat="45.19679" lon="5.74011">
        <ele>119.59999847412</ele>
        <time>2021-07-18T06:36:46.000Z</time>
      </trkpt>
      <trkpt lat="45.19677" lon="5.74013">
        <ele>119.40000152588</ele>
        <time>2021-07-18T06:36:48.000Z</time>
      </trkpt>
      <trkpt lat="45.19676" lon="5.74013">
        <ele>119.40000152588</ele>
        <time>2021-07-18T06:36:49.000Z</time>
      </trkpt>
      <trkpt lat="45.19672" lon="5.74016">
        <ele>119.19999694824</ele>
        <time>2021-07-18T06:36:51.000Z</time>
      </trkpt>
      <trkpt lat="45.19666" lon="5.74014">
        <ele>118.80000305176</ele>
        <time>2021-07-18T06:36:53.000Z</time>
      </trkpt>
      <trkpt lat="45.19652" lon="5.74014">
        <ele>118.59999847412</ele>
        <time>2021-07-18T06:36:58.000Z</time>
      </trkpt>
      <trkpt lat="45.19638" lon="5.7401">
        <ele>119.19999694824</ele>
        <time>2021-07-18T06:37:03.000Z</time>
      </trkpt>
      <trkpt lat="45.19623" lon="5.74003">
        <ele>119</ele>
        <time>2021-07-18T06:37:08.000Z</time>
      </trkpt>
      <trkpt lat="45.1962" lon="5.73987">
        <ele>119.59999847412</ele>
        <time>2021-07-18T06:37:12.000Z</time>
      </trkpt>
      <trkpt lat="45.19621" lon="5.73979">
        <ele>119.59999847412</ele>
        <time>2021-07-18T06:37:14.000Z</time>
      </trkpt>
      <trkpt lat="45.19622" lon="5.73975">
        <ele>119.19999694824</ele>
        <time>2021-07-18T06:37:16.000Z</time>
      </trkpt>
      <trkpt lat="45.19626" lon="5.73974">
        <ele>119.40000152588</ele>
        <time>2021-07-18T06:37:18.000Z</time>
      </trkpt>
      <trkpt lat="45.19632" lon="5.73974">
        <ele>119.40000152588</ele>
        <time>2021-07-18T06:37:21.000Z</time>
      </trkpt>
      <trkpt lat="45.19637" lon="5.73975">
        <ele>119.40000152588</ele>
        <time>2021-07-18T06:37:23.000Z</time>
      </trkpt>
      <trkpt lat="45.19639" lon="5.73974">
        <ele>119.19999694824</ele>
        <time>2021-07-18T06:37:25.000Z</time>
      </trkpt>
      <trkpt lat="45.1964" lon="5.73974">
        <ele>119.19999694824</ele>
        <time>2021-07-18T06:37:26.000Z</time>
      </trkpt>
      <trkpt lat="45.19643" lon="5.73979">
        <ele>119.40000152588</ele>
        <time>2021-07-18T06:37:30.000Z</time>
      </trkpt>
      <trkpt lat="45.19641" lon="5.73978">
        <ele>119.40000152588</ele>
        <time>2021-07-18T06:37:33.000Z</time>
      </trkpt>
      <trkpt lat="45.19635" lon="5.73983">
        <ele>119.40000152588</ele>
        <time>2021-07-18T06:37:39.000Z</time>
      </trkpt>
      <trkpt lat="45.19637" lon="5.73978">
        <ele>119.59999847412</ele>
        <time>2021-07-18T06:37:42.000Z</time>
      </trkpt>
      <trkpt lat="45.19637" lon="5.73974">
        <ele>120.40000152588</ele>
        <time>2021-07-18T06:37:44.000Z</time>
      </trkpt>
      <trkpt lat="45.19636" lon="5.73974">
        <ele>120.40000152588</ele>
        <time>2021-07-18T06:37:45.000Z</time>
      </trkpt>
      <trkpt lat="45.19637" lon="5.73975">
        <ele>121.80000305176</ele>
        <time>2021-07-18T06:37:48.000Z</time>
      </trkpt>
      <trkpt lat="45.1964" lon="5.73977">
        <ele>122.59999847412</ele>
        <time>2021-07-18T06:37:54.000Z</time>
      </trkpt>
      <trkpt lat="45.19643" lon="5.73974">
        <ele>123.19999694824</ele>
        <time>2021-07-18T06:37:56.000Z</time>
      </trkpt>
      <trkpt lat="45.19641" lon="5.73971">
        <ele>124.59999847412</ele>
        <time>2021-07-18T06:38:00.000Z</time>
      </trkpt>
      <trkpt lat="45.19639" lon="5.7397">
        <ele>124.59999847412</ele>
        <time>2021-07-18T06:38:01.000Z</time>
      </trkpt>
      <trkpt lat="45.19639" lon="5.73967">
        <ele>124.80000305176</ele>
        <time>2021-07-18T06:38:05.000Z</time>
      </trkpt>
      <trkpt lat="45.19641" lon="5.73965">
        <ele>125</ele>
        <time>2021-07-18T06:38:06.000Z</time>
      </trkpt>
      <trkpt lat="45.19643" lon="5.73962">
        <ele>125.40000152588</ele>
        <time>2021-07-18T06:38:08.000Z</time>
      </trkpt>
      <trkpt lat="45.19644" lon="5.73962">
        <ele>125.80000305176</ele>
        <time>2021-07-18T06:38:09.000Z</time>
      </trkpt>
      <trkpt lat="45.19643" lon="5.73962">
        <ele>126.40000152588</ele>
        <time>2021-07-18T06:38:10.000Z</time>
      </trkpt>
      <trkpt lat="45.19643" lon="5.73962">
        <ele>126.59999847412</ele>
        <time>2021-07-18T06:38:11.000Z</time>
      </trkpt>
      <trkpt lat="45.19642" lon="5.73961">
        <ele>127.19999694824</ele>
        <time>2021-07-18T06:38:13.000Z</time>
      </trkpt>
      <trkpt lat="45.19644" lon="5.7396">
        <ele>127.19999694824</ele>
        <time>2021-07-18T06:38:17.000Z</time>
      </trkpt>
      <trkpt lat="45.19644" lon="5.7396">
        <ele>127.19999694824</ele>
        <time>2021-07-18T06:38:18.000Z</time>
      </trkpt>
      <trkpt lat="45.19645" lon="5.7396">
        <ele>127.19999694824</ele>
        <time>2021-07-18T06:38:20.000Z</time>
      </trkpt>
      <trkpt lat="45.19647" lon="5.73961">
        <ele>127.19999694824</ele>
        <time>2021-07-18T06:38:22.000Z</time>
      </trkpt>
      <trkpt lat="45.19648" lon="5.73962">
        <ele>127.19999694824</ele>
        <time>2021-07-18T06:38:24.000Z</time>
      </trkpt>
      <trkpt lat="45.19649" lon="5.73962">
        <ele>127.19999694824</ele>
        <time>2021-07-18T06:38:25.000Z</time>
      </trkpt>
      <trkpt lat="45.19654" lon="5.73963">
        <ele>127.19999694824</ele>
        <time>2021-07-18T06:38:29.000Z</time>
      </trkpt>
      <trkpt lat="45.19656" lon="5.73965">
        <ele>127.19999694824</ele>
        <time>2021-07-18T06:38:31.000Z</time>
      </trkpt>
    </trkseg>
  </trk>
</gpx>